<?xml version="1.0" encoding="UTF-8" standalone="no" ?>
<gpx xmlns="http://www.topografix.com/GPX/1/1" xmlns:xsi="http://www.w3.org/2001/XMLSchema-instance" xsi:schemaLocation="http://www.topografix.com/GPX/1/1 http://www.topografix.com/GPX/1/1/gpx.xsd" version="1.1" creator="VisuGPX - https://www.visugpx.com">
  <metadata>
    <name>Circuit des iris Picquigny</name>
    <desc><![CDATA[29 pax
Cœur et santé
Sortie à la journée
Très bel accueil, le midi, de la maison touristique, au pont écluse de picquigny]]></desc>
  </metadata>
  <trk>
    <name><![CDATA[Circuit des iris Picquigny_1]]></name>
    <trkseg>
      <trkpt lat="49.94689" lon="2.14232">
        <ele>16.1</ele>
        <time>2023-06-28T07:08:07Z</time>
      </trkpt>
      <trkpt lat="49.94689" lon="2.14232">
        <ele>16.1</ele>
        <time>2023-06-28T07:08:08Z</time>
      </trkpt>
      <trkpt lat="49.94689" lon="2.14232">
        <ele>16.1</ele>
        <time>2023-06-28T07:08:09Z</time>
      </trkpt>
      <trkpt lat="49.94689" lon="2.14232">
        <ele>16.1</ele>
        <time>2023-06-28T07:08:10Z</time>
      </trkpt>
      <trkpt lat="49.94689" lon="2.14232">
        <ele>16.1</ele>
        <time>2023-06-28T07:08:11Z</time>
      </trkpt>
      <trkpt lat="49.94692" lon="2.14234">
        <ele>16.1</ele>
        <time>2023-06-28T07:08:12Z</time>
      </trkpt>
      <trkpt lat="49.94696" lon="2.14236">
        <ele>16.1</ele>
        <time>2023-06-28T07:08:13Z</time>
      </trkpt>
      <trkpt lat="49.94698" lon="2.14237">
        <ele>16.1</ele>
        <time>2023-06-28T07:08:14Z</time>
      </trkpt>
      <trkpt lat="49.94699" lon="2.14237">
        <ele>16.1</ele>
        <time>2023-06-28T07:08:15Z</time>
      </trkpt>
      <trkpt lat="49.94699" lon="2.14238">
        <ele>16.1</ele>
        <time>2023-06-28T07:08:16Z</time>
      </trkpt>
      <trkpt lat="49.94699" lon="2.14238">
        <ele>16.1</ele>
        <time>2023-06-28T07:08:17Z</time>
      </trkpt>
      <trkpt lat="49.94699" lon="2.14238">
        <ele>16.1</ele>
        <time>2023-06-28T07:08:18Z</time>
      </trkpt>
      <trkpt lat="49.947" lon="2.14238">
        <ele>16.1</ele>
        <time>2023-06-28T07:08:19Z</time>
      </trkpt>
      <trkpt lat="49.947" lon="2.14238">
        <ele>16.1</ele>
        <time>2023-06-28T07:08:20Z</time>
      </trkpt>
      <trkpt lat="49.947" lon="2.14238">
        <ele>16.1</ele>
        <time>2023-06-28T07:08:21Z</time>
      </trkpt>
      <trkpt lat="49.947" lon="2.14238">
        <ele>16.1</ele>
        <time>2023-06-28T07:08:22Z</time>
      </trkpt>
      <trkpt lat="49.947" lon="2.14238">
        <ele>16.1</ele>
        <time>2023-06-28T07:08:23Z</time>
      </trkpt>
      <trkpt lat="49.947" lon="2.14238">
        <ele>16.1</ele>
        <time>2023-06-28T07:08:24Z</time>
      </trkpt>
      <trkpt lat="49.947" lon="2.14238">
        <ele>16.1</ele>
        <time>2023-06-28T07:08:25Z</time>
      </trkpt>
      <trkpt lat="49.947" lon="2.14238">
        <ele>16.1</ele>
        <time>2023-06-28T07:08:26Z</time>
      </trkpt>
      <trkpt lat="49.947" lon="2.14238">
        <ele>16.1</ele>
        <time>2023-06-28T07:08:27Z</time>
      </trkpt>
      <trkpt lat="49.947" lon="2.14238">
        <ele>16.1</ele>
        <time>2023-06-28T07:08:28Z</time>
      </trkpt>
      <trkpt lat="49.947" lon="2.14238">
        <ele>16.1</ele>
        <time>2023-06-28T07:08:29Z</time>
      </trkpt>
      <trkpt lat="49.947" lon="2.14238">
        <ele>16.1</ele>
        <time>2023-06-28T07:08:30Z</time>
      </trkpt>
      <trkpt lat="49.947" lon="2.14238">
        <ele>16.1</ele>
        <time>2023-06-28T07:08:31Z</time>
      </trkpt>
      <trkpt lat="49.947" lon="2.14238">
        <ele>16.1</ele>
        <time>2023-06-28T07:08:32Z</time>
      </trkpt>
      <trkpt lat="49.947" lon="2.14238">
        <ele>16.1</ele>
        <time>2023-06-28T07:08:33Z</time>
      </trkpt>
      <trkpt lat="49.947" lon="2.14238">
        <ele>16.1</ele>
        <time>2023-06-28T07:08:34Z</time>
      </trkpt>
      <trkpt lat="49.947" lon="2.14238">
        <ele>16.1</ele>
        <time>2023-06-28T07:08:35Z</time>
      </trkpt>
      <trkpt lat="49.947" lon="2.14238">
        <ele>16.1</ele>
        <time>2023-06-28T07:08:36Z</time>
      </trkpt>
      <trkpt lat="49.947" lon="2.14238">
        <ele>16.1</ele>
        <time>2023-06-28T07:08:37Z</time>
      </trkpt>
      <trkpt lat="49.947" lon="2.14238">
        <ele>16.1</ele>
        <time>2023-06-28T07:08:38Z</time>
      </trkpt>
      <trkpt lat="49.947" lon="2.14238">
        <ele>16.1</ele>
        <time>2023-06-28T07:08:39Z</time>
      </trkpt>
      <trkpt lat="49.947" lon="2.14238">
        <ele>16.1</ele>
        <time>2023-06-28T07:08:40Z</time>
      </trkpt>
      <trkpt lat="49.94701" lon="2.14238">
        <ele>16.1</ele>
        <time>2023-06-28T07:08:41Z</time>
      </trkpt>
      <trkpt lat="49.94701" lon="2.14238">
        <ele>16.1</ele>
        <time>2023-06-28T07:08:42Z</time>
      </trkpt>
      <trkpt lat="49.94701" lon="2.14238">
        <ele>16.1</ele>
        <time>2023-06-28T07:08:43Z</time>
      </trkpt>
      <trkpt lat="49.94701" lon="2.14238">
        <ele>16.1</ele>
        <time>2023-06-28T07:08:44Z</time>
      </trkpt>
      <trkpt lat="49.94701" lon="2.14238">
        <ele>16.1</ele>
        <time>2023-06-28T07:08:45Z</time>
      </trkpt>
      <trkpt lat="49.94701" lon="2.14239">
        <ele>16.1</ele>
        <time>2023-06-28T07:08:46Z</time>
      </trkpt>
      <trkpt lat="49.94701" lon="2.14239">
        <ele>16.1</ele>
        <time>2023-06-28T07:08:47Z</time>
      </trkpt>
      <trkpt lat="49.94701" lon="2.14239">
        <ele>16.1</ele>
        <time>2023-06-28T07:08:48Z</time>
      </trkpt>
      <trkpt lat="49.94701" lon="2.14239">
        <ele>16.1</ele>
        <time>2023-06-28T07:08:49Z</time>
      </trkpt>
      <trkpt lat="49.94701" lon="2.14239">
        <ele>16.1</ele>
        <time>2023-06-28T07:08:50Z</time>
      </trkpt>
      <trkpt lat="49.94701" lon="2.14239">
        <ele>16.1</ele>
        <time>2023-06-28T07:08:51Z</time>
      </trkpt>
      <trkpt lat="49.94701" lon="2.14239">
        <ele>16</ele>
        <time>2023-06-28T07:08:52Z</time>
      </trkpt>
      <trkpt lat="49.94701" lon="2.14239">
        <ele>16</ele>
        <time>2023-06-28T07:08:53Z</time>
      </trkpt>
      <trkpt lat="49.94701" lon="2.14239">
        <ele>16</ele>
        <time>2023-06-28T07:08:54Z</time>
      </trkpt>
      <trkpt lat="49.94701" lon="2.14239">
        <ele>16</ele>
        <time>2023-06-28T07:08:55Z</time>
      </trkpt>
      <trkpt lat="49.94701" lon="2.14239">
        <ele>16</ele>
        <time>2023-06-28T07:08:56Z</time>
      </trkpt>
      <trkpt lat="49.94701" lon="2.14239">
        <ele>16</ele>
        <time>2023-06-28T07:08:57Z</time>
      </trkpt>
      <trkpt lat="49.94701" lon="2.14239">
        <ele>16</ele>
        <time>2023-06-28T07:08:58Z</time>
      </trkpt>
      <trkpt lat="49.94701" lon="2.14239">
        <ele>16</ele>
        <time>2023-06-28T07:08:59Z</time>
      </trkpt>
      <trkpt lat="49.94701" lon="2.14239">
        <ele>16</ele>
        <time>2023-06-28T07:09:00Z</time>
      </trkpt>
      <trkpt lat="49.94701" lon="2.14239">
        <ele>16</ele>
        <time>2023-06-28T07:09:01Z</time>
      </trkpt>
      <trkpt lat="49.94701" lon="2.14239">
        <ele>16</ele>
        <time>2023-06-28T07:09:02Z</time>
      </trkpt>
      <trkpt lat="49.94702" lon="2.14239">
        <ele>16</ele>
        <time>2023-06-28T07:09:03Z</time>
      </trkpt>
      <trkpt lat="49.94702" lon="2.14239">
        <ele>16</ele>
        <time>2023-06-28T07:09:04Z</time>
      </trkpt>
      <trkpt lat="49.94702" lon="2.14239">
        <ele>16</ele>
        <time>2023-06-28T07:09:05Z</time>
      </trkpt>
      <trkpt lat="49.94702" lon="2.14239">
        <ele>16</ele>
        <time>2023-06-28T07:09:06Z</time>
      </trkpt>
      <trkpt lat="49.94702" lon="2.14239">
        <ele>16</ele>
        <time>2023-06-28T07:09:07Z</time>
      </trkpt>
      <trkpt lat="49.94702" lon="2.14239">
        <ele>16</ele>
        <time>2023-06-28T07:09:08Z</time>
      </trkpt>
      <trkpt lat="49.94702" lon="2.14239">
        <ele>16</ele>
        <time>2023-06-28T07:09:09Z</time>
      </trkpt>
      <trkpt lat="49.94702" lon="2.14239">
        <ele>16</ele>
        <time>2023-06-28T07:09:10Z</time>
      </trkpt>
      <trkpt lat="49.94702" lon="2.14239">
        <ele>16</ele>
        <time>2023-06-28T07:09:11Z</time>
      </trkpt>
      <trkpt lat="49.94702" lon="2.14239">
        <ele>16</ele>
        <time>2023-06-28T07:09:12Z</time>
      </trkpt>
      <trkpt lat="49.94702" lon="2.14239">
        <ele>16</ele>
        <time>2023-06-28T07:09:13Z</time>
      </trkpt>
      <trkpt lat="49.94702" lon="2.14239">
        <ele>16</ele>
        <time>2023-06-28T07:09:14Z</time>
      </trkpt>
      <trkpt lat="49.94702" lon="2.14239">
        <ele>16</ele>
        <time>2023-06-28T07:09:15Z</time>
      </trkpt>
      <trkpt lat="49.94702" lon="2.14239">
        <ele>16</ele>
        <time>2023-06-28T07:09:16Z</time>
      </trkpt>
      <trkpt lat="49.94702" lon="2.14239">
        <ele>16</ele>
        <time>2023-06-28T07:09:17Z</time>
      </trkpt>
      <trkpt lat="49.94702" lon="2.14239">
        <ele>16</ele>
        <time>2023-06-28T07:09:18Z</time>
      </trkpt>
      <trkpt lat="49.94702" lon="2.14239">
        <ele>16</ele>
        <time>2023-06-28T07:09:19Z</time>
      </trkpt>
      <trkpt lat="49.94702" lon="2.14239">
        <ele>16</ele>
        <time>2023-06-28T07:09:20Z</time>
      </trkpt>
      <trkpt lat="49.94702" lon="2.1424">
        <ele>16</ele>
        <time>2023-06-28T07:09:21Z</time>
      </trkpt>
      <trkpt lat="49.94702" lon="2.1424">
        <ele>16</ele>
        <time>2023-06-28T07:09:22Z</time>
      </trkpt>
      <trkpt lat="49.94702" lon="2.1424">
        <ele>16</ele>
        <time>2023-06-28T07:09:23Z</time>
      </trkpt>
      <trkpt lat="49.94702" lon="2.1424">
        <ele>16</ele>
        <time>2023-06-28T07:09:24Z</time>
      </trkpt>
      <trkpt lat="49.94702" lon="2.1424">
        <ele>16</ele>
        <time>2023-06-28T07:09:25Z</time>
      </trkpt>
      <trkpt lat="49.94703" lon="2.1424">
        <ele>16</ele>
        <time>2023-06-28T07:09:26Z</time>
      </trkpt>
      <trkpt lat="49.94703" lon="2.1424">
        <ele>16</ele>
        <time>2023-06-28T07:09:27Z</time>
      </trkpt>
      <trkpt lat="49.94703" lon="2.1424">
        <ele>16</ele>
        <time>2023-06-28T07:09:28Z</time>
      </trkpt>
      <trkpt lat="49.94704" lon="2.14241">
        <ele>16</ele>
        <time>2023-06-28T07:09:29Z</time>
      </trkpt>
      <trkpt lat="49.94704" lon="2.14242">
        <ele>16</ele>
        <time>2023-06-28T07:09:30Z</time>
      </trkpt>
      <trkpt lat="49.94705" lon="2.14244">
        <ele>15.9</ele>
        <time>2023-06-28T07:09:31Z</time>
      </trkpt>
      <trkpt lat="49.94705" lon="2.14245">
        <ele>15.9</ele>
        <time>2023-06-28T07:09:32Z</time>
      </trkpt>
      <trkpt lat="49.94706" lon="2.14246">
        <ele>15.9</ele>
        <time>2023-06-28T07:09:33Z</time>
      </trkpt>
      <trkpt lat="49.94707" lon="2.14246">
        <ele>15.9</ele>
        <time>2023-06-28T07:09:34Z</time>
      </trkpt>
      <trkpt lat="49.94708" lon="2.14247">
        <ele>15.9</ele>
        <time>2023-06-28T07:09:35Z</time>
      </trkpt>
      <trkpt lat="49.94708" lon="2.14248">
        <ele>15.9</ele>
        <time>2023-06-28T07:09:36Z</time>
      </trkpt>
      <trkpt lat="49.94709" lon="2.14249">
        <ele>15.9</ele>
        <time>2023-06-28T07:09:37Z</time>
      </trkpt>
      <trkpt lat="49.94709" lon="2.1425">
        <ele>15.8</ele>
        <time>2023-06-28T07:09:38Z</time>
      </trkpt>
      <trkpt lat="49.9471" lon="2.14251">
        <ele>15.8</ele>
        <time>2023-06-28T07:09:39Z</time>
      </trkpt>
      <trkpt lat="49.9471" lon="2.14252">
        <ele>15.8</ele>
        <time>2023-06-28T07:09:40Z</time>
      </trkpt>
      <trkpt lat="49.9471" lon="2.14253">
        <ele>15.8</ele>
        <time>2023-06-28T07:09:41Z</time>
      </trkpt>
      <trkpt lat="49.94711" lon="2.14254">
        <ele>15.8</ele>
        <time>2023-06-28T07:09:42Z</time>
      </trkpt>
      <trkpt lat="49.94712" lon="2.14255">
        <ele>15.8</ele>
        <time>2023-06-28T07:09:43Z</time>
      </trkpt>
      <trkpt lat="49.94713" lon="2.14256">
        <ele>15.7</ele>
        <time>2023-06-28T07:09:44Z</time>
      </trkpt>
      <trkpt lat="49.94714" lon="2.14257">
        <ele>15.7</ele>
        <time>2023-06-28T07:09:45Z</time>
      </trkpt>
      <trkpt lat="49.94715" lon="2.14258">
        <ele>15.7</ele>
        <time>2023-06-28T07:09:46Z</time>
      </trkpt>
      <trkpt lat="49.94716" lon="2.14259">
        <ele>15.7</ele>
        <time>2023-06-28T07:09:47Z</time>
      </trkpt>
      <trkpt lat="49.94716" lon="2.14259">
        <ele>15.7</ele>
        <time>2023-06-28T07:09:48Z</time>
      </trkpt>
      <trkpt lat="49.94717" lon="2.14259">
        <ele>15.7</ele>
        <time>2023-06-28T07:09:49Z</time>
      </trkpt>
      <trkpt lat="49.94717" lon="2.14259">
        <ele>15.6</ele>
        <time>2023-06-28T07:09:50Z</time>
      </trkpt>
      <trkpt lat="49.94718" lon="2.14259">
        <ele>15.6</ele>
        <time>2023-06-28T07:09:51Z</time>
      </trkpt>
      <trkpt lat="49.94719" lon="2.14259">
        <ele>15.6</ele>
        <time>2023-06-28T07:09:52Z</time>
      </trkpt>
      <trkpt lat="49.94722" lon="2.1426">
        <ele>15.6</ele>
        <time>2023-06-28T07:09:53Z</time>
      </trkpt>
      <trkpt lat="49.94722" lon="2.14261">
        <ele>15.5</ele>
        <time>2023-06-28T07:09:54Z</time>
      </trkpt>
      <trkpt lat="49.94723" lon="2.14261">
        <ele>15.5</ele>
        <time>2023-06-28T07:09:55Z</time>
      </trkpt>
      <trkpt lat="49.94724" lon="2.14262">
        <ele>15.5</ele>
        <time>2023-06-28T07:09:56Z</time>
      </trkpt>
      <trkpt lat="49.94725" lon="2.14263">
        <ele>15.5</ele>
        <time>2023-06-28T07:09:57Z</time>
      </trkpt>
      <trkpt lat="49.94726" lon="2.14264">
        <ele>15.5</ele>
        <time>2023-06-28T07:09:58Z</time>
      </trkpt>
      <trkpt lat="49.94727" lon="2.14264">
        <ele>15.5</ele>
        <time>2023-06-28T07:09:59Z</time>
      </trkpt>
      <trkpt lat="49.94728" lon="2.14265">
        <ele>15.4</ele>
        <time>2023-06-28T07:10:00Z</time>
      </trkpt>
      <trkpt lat="49.94729" lon="2.14266">
        <ele>15.4</ele>
        <time>2023-06-28T07:10:01Z</time>
      </trkpt>
      <trkpt lat="49.9473" lon="2.14267">
        <ele>15.4</ele>
        <time>2023-06-28T07:10:02Z</time>
      </trkpt>
      <trkpt lat="49.94731" lon="2.14268">
        <ele>15.4</ele>
        <time>2023-06-28T07:10:03Z</time>
      </trkpt>
      <trkpt lat="49.94732" lon="2.14268">
        <ele>15.4</ele>
        <time>2023-06-28T07:10:04Z</time>
      </trkpt>
      <trkpt lat="49.94732" lon="2.14269">
        <ele>15.3</ele>
        <time>2023-06-28T07:10:05Z</time>
      </trkpt>
      <trkpt lat="49.94733" lon="2.1427">
        <ele>15.3</ele>
        <time>2023-06-28T07:10:06Z</time>
      </trkpt>
      <trkpt lat="49.94733" lon="2.1427">
        <ele>15.3</ele>
        <time>2023-06-28T07:10:07Z</time>
      </trkpt>
      <trkpt lat="49.94733" lon="2.14271">
        <ele>15.3</ele>
        <time>2023-06-28T07:10:08Z</time>
      </trkpt>
      <trkpt lat="49.94734" lon="2.14271">
        <ele>15.3</ele>
        <time>2023-06-28T07:10:09Z</time>
      </trkpt>
      <trkpt lat="49.94735" lon="2.14273">
        <ele>15.3</ele>
        <time>2023-06-28T07:10:10Z</time>
      </trkpt>
      <trkpt lat="49.94736" lon="2.14274">
        <ele>15.3</ele>
        <time>2023-06-28T07:10:11Z</time>
      </trkpt>
      <trkpt lat="49.94737" lon="2.14275">
        <ele>15.2</ele>
        <time>2023-06-28T07:10:12Z</time>
      </trkpt>
      <trkpt lat="49.94738" lon="2.14277">
        <ele>15.2</ele>
        <time>2023-06-28T07:10:13Z</time>
      </trkpt>
      <trkpt lat="49.9474" lon="2.14278">
        <ele>15.2</ele>
        <time>2023-06-28T07:10:14Z</time>
      </trkpt>
      <trkpt lat="49.94741" lon="2.14279">
        <ele>15.2</ele>
        <time>2023-06-28T07:10:15Z</time>
      </trkpt>
      <trkpt lat="49.94742" lon="2.1428">
        <ele>15.2</ele>
        <time>2023-06-28T07:10:16Z</time>
      </trkpt>
      <trkpt lat="49.94744" lon="2.14281">
        <ele>15.1</ele>
        <time>2023-06-28T07:10:17Z</time>
      </trkpt>
      <trkpt lat="49.94745" lon="2.14281">
        <ele>15.1</ele>
        <time>2023-06-28T07:10:18Z</time>
      </trkpt>
      <trkpt lat="49.94746" lon="2.14282">
        <ele>15.1</ele>
        <time>2023-06-28T07:10:19Z</time>
      </trkpt>
      <trkpt lat="49.94747" lon="2.14283">
        <ele>15.1</ele>
        <time>2023-06-28T07:10:20Z</time>
      </trkpt>
      <trkpt lat="49.94748" lon="2.14283">
        <ele>15.1</ele>
        <time>2023-06-28T07:10:21Z</time>
      </trkpt>
      <trkpt lat="49.94749" lon="2.14284">
        <ele>15.1</ele>
        <time>2023-06-28T07:10:22Z</time>
      </trkpt>
      <trkpt lat="49.9475" lon="2.14285">
        <ele>15.1</ele>
        <time>2023-06-28T07:10:23Z</time>
      </trkpt>
      <trkpt lat="49.94751" lon="2.14285">
        <ele>15.1</ele>
        <time>2023-06-28T07:10:24Z</time>
      </trkpt>
      <trkpt lat="49.94752" lon="2.14286">
        <ele>15</ele>
        <time>2023-06-28T07:10:25Z</time>
      </trkpt>
      <trkpt lat="49.94753" lon="2.14287">
        <ele>15</ele>
        <time>2023-06-28T07:10:26Z</time>
      </trkpt>
      <trkpt lat="49.94754" lon="2.14288">
        <ele>15</ele>
        <time>2023-06-28T07:10:27Z</time>
      </trkpt>
      <trkpt lat="49.94755" lon="2.14289">
        <ele>15</ele>
        <time>2023-06-28T07:10:28Z</time>
      </trkpt>
      <trkpt lat="49.94756" lon="2.1429">
        <ele>15</ele>
        <time>2023-06-28T07:10:29Z</time>
      </trkpt>
      <trkpt lat="49.94757" lon="2.14291">
        <ele>15</ele>
        <time>2023-06-28T07:10:30Z</time>
      </trkpt>
      <trkpt lat="49.94757" lon="2.14292">
        <ele>15</ele>
        <time>2023-06-28T07:10:31Z</time>
      </trkpt>
      <trkpt lat="49.94758" lon="2.14292">
        <ele>15</ele>
        <time>2023-06-28T07:10:32Z</time>
      </trkpt>
      <trkpt lat="49.94759" lon="2.14293">
        <ele>15</ele>
        <time>2023-06-28T07:10:33Z</time>
      </trkpt>
      <trkpt lat="49.9476" lon="2.14293">
        <ele>15</ele>
        <time>2023-06-28T07:10:34Z</time>
      </trkpt>
      <trkpt lat="49.94761" lon="2.14293">
        <ele>15</ele>
        <time>2023-06-28T07:10:35Z</time>
      </trkpt>
      <trkpt lat="49.94762" lon="2.14293">
        <ele>15</ele>
        <time>2023-06-28T07:10:36Z</time>
      </trkpt>
      <trkpt lat="49.94763" lon="2.14294">
        <ele>15</ele>
        <time>2023-06-28T07:10:37Z</time>
      </trkpt>
      <trkpt lat="49.94764" lon="2.14294">
        <ele>14.9</ele>
        <time>2023-06-28T07:10:38Z</time>
      </trkpt>
      <trkpt lat="49.94765" lon="2.14295">
        <ele>14.9</ele>
        <time>2023-06-28T07:10:39Z</time>
      </trkpt>
      <trkpt lat="49.94767" lon="2.14295">
        <ele>14.9</ele>
        <time>2023-06-28T07:10:40Z</time>
      </trkpt>
      <trkpt lat="49.94767" lon="2.14296">
        <ele>14.9</ele>
        <time>2023-06-28T07:10:41Z</time>
      </trkpt>
      <trkpt lat="49.94768" lon="2.14296">
        <ele>14.9</ele>
        <time>2023-06-28T07:10:42Z</time>
      </trkpt>
      <trkpt lat="49.94768" lon="2.14296">
        <ele>14.9</ele>
        <time>2023-06-28T07:10:43Z</time>
      </trkpt>
      <trkpt lat="49.94769" lon="2.14296">
        <ele>14.9</ele>
        <time>2023-06-28T07:10:44Z</time>
      </trkpt>
      <trkpt lat="49.94769" lon="2.14296">
        <ele>14.9</ele>
        <time>2023-06-28T07:10:45Z</time>
      </trkpt>
      <trkpt lat="49.9477" lon="2.14296">
        <ele>14.9</ele>
        <time>2023-06-28T07:10:46Z</time>
      </trkpt>
      <trkpt lat="49.94771" lon="2.14297">
        <ele>14.9</ele>
        <time>2023-06-28T07:10:47Z</time>
      </trkpt>
      <trkpt lat="49.94771" lon="2.14297">
        <ele>14.9</ele>
        <time>2023-06-28T07:10:48Z</time>
      </trkpt>
      <trkpt lat="49.94772" lon="2.14298">
        <ele>14.9</ele>
        <time>2023-06-28T07:10:49Z</time>
      </trkpt>
      <trkpt lat="49.94773" lon="2.14298">
        <ele>14.9</ele>
        <time>2023-06-28T07:10:50Z</time>
      </trkpt>
      <trkpt lat="49.94773" lon="2.14299">
        <ele>14.9</ele>
        <time>2023-06-28T07:10:51Z</time>
      </trkpt>
      <trkpt lat="49.94774" lon="2.14299">
        <ele>14.9</ele>
        <time>2023-06-28T07:10:52Z</time>
      </trkpt>
      <trkpt lat="49.94775" lon="2.143">
        <ele>14.9</ele>
        <time>2023-06-28T07:10:53Z</time>
      </trkpt>
      <trkpt lat="49.94776" lon="2.143">
        <ele>14.8</ele>
        <time>2023-06-28T07:10:54Z</time>
      </trkpt>
      <trkpt lat="49.94776" lon="2.14301">
        <ele>14.8</ele>
        <time>2023-06-28T07:10:55Z</time>
      </trkpt>
      <trkpt lat="49.94777" lon="2.14302">
        <ele>14.8</ele>
        <time>2023-06-28T07:10:56Z</time>
      </trkpt>
      <trkpt lat="49.94777" lon="2.14303">
        <ele>14.8</ele>
        <time>2023-06-28T07:10:57Z</time>
      </trkpt>
      <trkpt lat="49.94778" lon="2.14303">
        <ele>14.8</ele>
        <time>2023-06-28T07:10:58Z</time>
      </trkpt>
      <trkpt lat="49.94779" lon="2.14304">
        <ele>14.8</ele>
        <time>2023-06-28T07:10:59Z</time>
      </trkpt>
      <trkpt lat="49.94779" lon="2.14305">
        <ele>14.8</ele>
        <time>2023-06-28T07:11:00Z</time>
      </trkpt>
      <trkpt lat="49.9478" lon="2.14306">
        <ele>14.8</ele>
        <time>2023-06-28T07:11:01Z</time>
      </trkpt>
      <trkpt lat="49.94781" lon="2.14307">
        <ele>14.8</ele>
        <time>2023-06-28T07:11:02Z</time>
      </trkpt>
      <trkpt lat="49.94782" lon="2.14308">
        <ele>14.8</ele>
        <time>2023-06-28T07:11:03Z</time>
      </trkpt>
      <trkpt lat="49.94783" lon="2.14309">
        <ele>14.8</ele>
        <time>2023-06-28T07:11:04Z</time>
      </trkpt>
      <trkpt lat="49.94784" lon="2.1431">
        <ele>14.8</ele>
        <time>2023-06-28T07:11:05Z</time>
      </trkpt>
      <trkpt lat="49.94785" lon="2.14311">
        <ele>14.8</ele>
        <time>2023-06-28T07:11:06Z</time>
      </trkpt>
      <trkpt lat="49.94786" lon="2.14312">
        <ele>14.8</ele>
        <time>2023-06-28T07:11:07Z</time>
      </trkpt>
      <trkpt lat="49.94787" lon="2.14312">
        <ele>14.8</ele>
        <time>2023-06-28T07:11:08Z</time>
      </trkpt>
      <trkpt lat="49.94789" lon="2.14314">
        <ele>14.7</ele>
        <time>2023-06-28T07:11:09Z</time>
      </trkpt>
      <trkpt lat="49.9479" lon="2.14315">
        <ele>14.7</ele>
        <time>2023-06-28T07:11:10Z</time>
      </trkpt>
      <trkpt lat="49.94791" lon="2.14315">
        <ele>14.7</ele>
        <time>2023-06-28T07:11:11Z</time>
      </trkpt>
      <trkpt lat="49.94792" lon="2.14316">
        <ele>14.7</ele>
        <time>2023-06-28T07:11:12Z</time>
      </trkpt>
      <trkpt lat="49.94794" lon="2.14317">
        <ele>14.7</ele>
        <time>2023-06-28T07:11:13Z</time>
      </trkpt>
      <trkpt lat="49.94795" lon="2.14318">
        <ele>14.7</ele>
        <time>2023-06-28T07:11:14Z</time>
      </trkpt>
      <trkpt lat="49.94797" lon="2.14318">
        <ele>14.7</ele>
        <time>2023-06-28T07:11:15Z</time>
      </trkpt>
      <trkpt lat="49.94798" lon="2.14319">
        <ele>14.7</ele>
        <time>2023-06-28T07:11:16Z</time>
      </trkpt>
      <trkpt lat="49.94799" lon="2.1432">
        <ele>14.7</ele>
        <time>2023-06-28T07:11:17Z</time>
      </trkpt>
      <trkpt lat="49.94801" lon="2.14322">
        <ele>14.7</ele>
        <time>2023-06-28T07:11:18Z</time>
      </trkpt>
      <trkpt lat="49.94802" lon="2.14322">
        <ele>14.7</ele>
        <time>2023-06-28T07:11:19Z</time>
      </trkpt>
      <trkpt lat="49.94803" lon="2.14323">
        <ele>14.7</ele>
        <time>2023-06-28T07:11:20Z</time>
      </trkpt>
      <trkpt lat="49.94805" lon="2.14325">
        <ele>14.7</ele>
        <time>2023-06-28T07:11:21Z</time>
      </trkpt>
      <trkpt lat="49.94805" lon="2.14326">
        <ele>14.7</ele>
        <time>2023-06-28T07:11:22Z</time>
      </trkpt>
      <trkpt lat="49.94806" lon="2.14327">
        <ele>14.7</ele>
        <time>2023-06-28T07:11:23Z</time>
      </trkpt>
      <trkpt lat="49.94807" lon="2.14328">
        <ele>14.7</ele>
        <time>2023-06-28T07:11:24Z</time>
      </trkpt>
      <trkpt lat="49.94807" lon="2.14329">
        <ele>14.7</ele>
        <time>2023-06-28T07:11:25Z</time>
      </trkpt>
      <trkpt lat="49.94808" lon="2.14331">
        <ele>14.7</ele>
        <time>2023-06-28T07:11:26Z</time>
      </trkpt>
      <trkpt lat="49.94809" lon="2.14332">
        <ele>14.7</ele>
        <time>2023-06-28T07:11:27Z</time>
      </trkpt>
      <trkpt lat="49.94809" lon="2.14334">
        <ele>14.7</ele>
        <time>2023-06-28T07:11:28Z</time>
      </trkpt>
      <trkpt lat="49.9481" lon="2.14335">
        <ele>14.7</ele>
        <time>2023-06-28T07:11:29Z</time>
      </trkpt>
      <trkpt lat="49.94811" lon="2.14337">
        <ele>14.7</ele>
        <time>2023-06-28T07:11:30Z</time>
      </trkpt>
      <trkpt lat="49.94811" lon="2.14338">
        <ele>14.7</ele>
        <time>2023-06-28T07:11:31Z</time>
      </trkpt>
      <trkpt lat="49.94812" lon="2.14339">
        <ele>14.7</ele>
        <time>2023-06-28T07:11:32Z</time>
      </trkpt>
      <trkpt lat="49.94813" lon="2.1434">
        <ele>14.7</ele>
        <time>2023-06-28T07:11:33Z</time>
      </trkpt>
      <trkpt lat="49.94813" lon="2.14341">
        <ele>14.7</ele>
        <time>2023-06-28T07:11:34Z</time>
      </trkpt>
      <trkpt lat="49.94814" lon="2.14341">
        <ele>14.7</ele>
        <time>2023-06-28T07:11:35Z</time>
      </trkpt>
      <trkpt lat="49.94814" lon="2.1434">
        <ele>14.7</ele>
        <time>2023-06-28T07:11:36Z</time>
      </trkpt>
      <trkpt lat="49.94815" lon="2.14338">
        <ele>14.7</ele>
        <time>2023-06-28T07:11:37Z</time>
      </trkpt>
      <trkpt lat="49.94816" lon="2.14337">
        <ele>14.7</ele>
        <time>2023-06-28T07:11:38Z</time>
      </trkpt>
      <trkpt lat="49.94817" lon="2.14336">
        <ele>14.7</ele>
        <time>2023-06-28T07:11:39Z</time>
      </trkpt>
      <trkpt lat="49.94818" lon="2.14336">
        <ele>14.7</ele>
        <time>2023-06-28T07:11:40Z</time>
      </trkpt>
      <trkpt lat="49.94819" lon="2.14336">
        <ele>14.7</ele>
        <time>2023-06-28T07:11:41Z</time>
      </trkpt>
      <trkpt lat="49.9482" lon="2.14336">
        <ele>14.7</ele>
        <time>2023-06-28T07:11:42Z</time>
      </trkpt>
      <trkpt lat="49.94821" lon="2.14336">
        <ele>14.7</ele>
        <time>2023-06-28T07:11:43Z</time>
      </trkpt>
      <trkpt lat="49.94821" lon="2.14337">
        <ele>14.7</ele>
        <time>2023-06-28T07:11:44Z</time>
      </trkpt>
      <trkpt lat="49.94822" lon="2.14337">
        <ele>14.7</ele>
        <time>2023-06-28T07:11:45Z</time>
      </trkpt>
      <trkpt lat="49.94823" lon="2.14337">
        <ele>14.7</ele>
        <time>2023-06-28T07:11:46Z</time>
      </trkpt>
      <trkpt lat="49.94824" lon="2.14337">
        <ele>14.7</ele>
        <time>2023-06-28T07:11:47Z</time>
      </trkpt>
      <trkpt lat="49.94825" lon="2.14337">
        <ele>14.7</ele>
        <time>2023-06-28T07:11:48Z</time>
      </trkpt>
      <trkpt lat="49.94825" lon="2.14337">
        <ele>14.7</ele>
        <time>2023-06-28T07:11:49Z</time>
      </trkpt>
      <trkpt lat="49.94826" lon="2.14337">
        <ele>14.7</ele>
        <time>2023-06-28T07:11:50Z</time>
      </trkpt>
      <trkpt lat="49.94827" lon="2.14338">
        <ele>14.7</ele>
        <time>2023-06-28T07:11:51Z</time>
      </trkpt>
      <trkpt lat="49.94828" lon="2.14338">
        <ele>14.7</ele>
        <time>2023-06-28T07:11:52Z</time>
      </trkpt>
      <trkpt lat="49.94829" lon="2.14338">
        <ele>14.7</ele>
        <time>2023-06-28T07:11:53Z</time>
      </trkpt>
      <trkpt lat="49.9483" lon="2.14338">
        <ele>14.7</ele>
        <time>2023-06-28T07:11:54Z</time>
      </trkpt>
      <trkpt lat="49.94831" lon="2.14339">
        <ele>14.7</ele>
        <time>2023-06-28T07:11:55Z</time>
      </trkpt>
      <trkpt lat="49.94832" lon="2.14339">
        <ele>14.7</ele>
        <time>2023-06-28T07:11:56Z</time>
      </trkpt>
      <trkpt lat="49.94833" lon="2.14339">
        <ele>14.7</ele>
        <time>2023-06-28T07:11:57Z</time>
      </trkpt>
      <trkpt lat="49.94834" lon="2.1434">
        <ele>14.7</ele>
        <time>2023-06-28T07:11:58Z</time>
      </trkpt>
      <trkpt lat="49.94835" lon="2.1434">
        <ele>14.7</ele>
        <time>2023-06-28T07:11:59Z</time>
      </trkpt>
      <trkpt lat="49.94836" lon="2.14341">
        <ele>14.7</ele>
        <time>2023-06-28T07:12:00Z</time>
      </trkpt>
      <trkpt lat="49.94837" lon="2.14342">
        <ele>14.7</ele>
        <time>2023-06-28T07:12:01Z</time>
      </trkpt>
      <trkpt lat="49.94838" lon="2.14342">
        <ele>14.7</ele>
        <time>2023-06-28T07:12:02Z</time>
      </trkpt>
      <trkpt lat="49.94839" lon="2.14343">
        <ele>14.7</ele>
        <time>2023-06-28T07:12:03Z</time>
      </trkpt>
      <trkpt lat="49.94839" lon="2.14343">
        <ele>14.7</ele>
        <time>2023-06-28T07:12:04Z</time>
      </trkpt>
      <trkpt lat="49.9484" lon="2.14344">
        <ele>14.7</ele>
        <time>2023-06-28T07:12:05Z</time>
      </trkpt>
      <trkpt lat="49.9484" lon="2.14345">
        <ele>14.7</ele>
        <time>2023-06-28T07:12:06Z</time>
      </trkpt>
      <trkpt lat="49.94841" lon="2.14345">
        <ele>14.7</ele>
        <time>2023-06-28T07:12:07Z</time>
      </trkpt>
      <trkpt lat="49.94841" lon="2.14347">
        <ele>14.7</ele>
        <time>2023-06-28T07:12:08Z</time>
      </trkpt>
      <trkpt lat="49.94841" lon="2.14348">
        <ele>14.7</ele>
        <time>2023-06-28T07:12:09Z</time>
      </trkpt>
      <trkpt lat="49.94842" lon="2.14349">
        <ele>14.7</ele>
        <time>2023-06-28T07:12:10Z</time>
      </trkpt>
      <trkpt lat="49.94843" lon="2.1435">
        <ele>14.7</ele>
        <time>2023-06-28T07:12:11Z</time>
      </trkpt>
      <trkpt lat="49.94845" lon="2.14354">
        <ele>14.7</ele>
        <time>2023-06-28T07:12:12Z</time>
      </trkpt>
      <trkpt lat="49.94845" lon="2.14355">
        <ele>14.7</ele>
        <time>2023-06-28T07:12:13Z</time>
      </trkpt>
      <trkpt lat="49.94848" lon="2.14358">
        <ele>14.7</ele>
        <time>2023-06-28T07:12:14Z</time>
      </trkpt>
      <trkpt lat="49.94848" lon="2.14359">
        <ele>14.8</ele>
        <time>2023-06-28T07:12:15Z</time>
      </trkpt>
      <trkpt lat="49.94851" lon="2.14363">
        <ele>14.8</ele>
        <time>2023-06-28T07:12:16Z</time>
      </trkpt>
      <trkpt lat="49.94851" lon="2.14364">
        <ele>14.8</ele>
        <time>2023-06-28T07:12:17Z</time>
      </trkpt>
      <trkpt lat="49.94853" lon="2.14366">
        <ele>14.8</ele>
        <time>2023-06-28T07:12:18Z</time>
      </trkpt>
      <trkpt lat="49.94853" lon="2.14367">
        <ele>14.8</ele>
        <time>2023-06-28T07:12:19Z</time>
      </trkpt>
      <trkpt lat="49.94855" lon="2.1437">
        <ele>14.8</ele>
        <time>2023-06-28T07:12:20Z</time>
      </trkpt>
      <trkpt lat="49.94856" lon="2.1437">
        <ele>14.8</ele>
        <time>2023-06-28T07:12:21Z</time>
      </trkpt>
      <trkpt lat="49.94856" lon="2.14371">
        <ele>14.8</ele>
        <time>2023-06-28T07:12:22Z</time>
      </trkpt>
      <trkpt lat="49.94859" lon="2.14374">
        <ele>14.8</ele>
        <time>2023-06-28T07:12:23Z</time>
      </trkpt>
      <trkpt lat="49.9486" lon="2.14375">
        <ele>14.8</ele>
        <time>2023-06-28T07:12:24Z</time>
      </trkpt>
      <trkpt lat="49.94861" lon="2.14376">
        <ele>14.8</ele>
        <time>2023-06-28T07:12:25Z</time>
      </trkpt>
      <trkpt lat="49.94862" lon="2.14377">
        <ele>14.8</ele>
        <time>2023-06-28T07:12:26Z</time>
      </trkpt>
      <trkpt lat="49.94864" lon="2.14379">
        <ele>14.9</ele>
        <time>2023-06-28T07:12:27Z</time>
      </trkpt>
      <trkpt lat="49.94864" lon="2.14379">
        <ele>14.9</ele>
        <time>2023-06-28T07:12:28Z</time>
      </trkpt>
      <trkpt lat="49.94865" lon="2.1438">
        <ele>14.9</ele>
        <time>2023-06-28T07:12:29Z</time>
      </trkpt>
      <trkpt lat="49.94866" lon="2.14381">
        <ele>14.9</ele>
        <time>2023-06-28T07:12:30Z</time>
      </trkpt>
      <trkpt lat="49.94867" lon="2.14382">
        <ele>14.9</ele>
        <time>2023-06-28T07:12:31Z</time>
      </trkpt>
      <trkpt lat="49.94868" lon="2.14383">
        <ele>14.9</ele>
        <time>2023-06-28T07:12:32Z</time>
      </trkpt>
      <trkpt lat="49.9487" lon="2.14384">
        <ele>14.9</ele>
        <time>2023-06-28T07:12:33Z</time>
      </trkpt>
      <trkpt lat="49.94871" lon="2.14385">
        <ele>14.9</ele>
        <time>2023-06-28T07:12:34Z</time>
      </trkpt>
      <trkpt lat="49.94872" lon="2.14385">
        <ele>14.9</ele>
        <time>2023-06-28T07:12:35Z</time>
      </trkpt>
      <trkpt lat="49.94873" lon="2.14386">
        <ele>14.9</ele>
        <time>2023-06-28T07:12:36Z</time>
      </trkpt>
      <trkpt lat="49.94874" lon="2.14386">
        <ele>14.9</ele>
        <time>2023-06-28T07:12:37Z</time>
      </trkpt>
      <trkpt lat="49.94875" lon="2.14387">
        <ele>14.9</ele>
        <time>2023-06-28T07:12:38Z</time>
      </trkpt>
      <trkpt lat="49.94876" lon="2.14387">
        <ele>14.9</ele>
        <time>2023-06-28T07:12:39Z</time>
      </trkpt>
      <trkpt lat="49.94877" lon="2.14387">
        <ele>14.9</ele>
        <time>2023-06-28T07:12:40Z</time>
      </trkpt>
      <trkpt lat="49.94878" lon="2.14388">
        <ele>14.9</ele>
        <time>2023-06-28T07:12:41Z</time>
      </trkpt>
      <trkpt lat="49.9488" lon="2.14389">
        <ele>14.9</ele>
        <time>2023-06-28T07:12:42Z</time>
      </trkpt>
      <trkpt lat="49.94881" lon="2.14389">
        <ele>15</ele>
        <time>2023-06-28T07:12:43Z</time>
      </trkpt>
      <trkpt lat="49.94882" lon="2.14389">
        <ele>15</ele>
        <time>2023-06-28T07:12:44Z</time>
      </trkpt>
      <trkpt lat="49.94884" lon="2.1439">
        <ele>15</ele>
        <time>2023-06-28T07:12:45Z</time>
      </trkpt>
      <trkpt lat="49.94885" lon="2.14391">
        <ele>15</ele>
        <time>2023-06-28T07:12:46Z</time>
      </trkpt>
      <trkpt lat="49.94887" lon="2.14392">
        <ele>15</ele>
        <time>2023-06-28T07:12:47Z</time>
      </trkpt>
      <trkpt lat="49.94888" lon="2.14392">
        <ele>15</ele>
        <time>2023-06-28T07:12:48Z</time>
      </trkpt>
      <trkpt lat="49.94889" lon="2.14393">
        <ele>15</ele>
        <time>2023-06-28T07:12:49Z</time>
      </trkpt>
      <trkpt lat="49.9489" lon="2.14393">
        <ele>15</ele>
        <time>2023-06-28T07:12:50Z</time>
      </trkpt>
      <trkpt lat="49.94891" lon="2.14394">
        <ele>15</ele>
        <time>2023-06-28T07:12:51Z</time>
      </trkpt>
      <trkpt lat="49.94892" lon="2.14394">
        <ele>15</ele>
        <time>2023-06-28T07:12:52Z</time>
      </trkpt>
      <trkpt lat="49.94893" lon="2.14395">
        <ele>15</ele>
        <time>2023-06-28T07:12:53Z</time>
      </trkpt>
      <trkpt lat="49.94895" lon="2.14396">
        <ele>15</ele>
        <time>2023-06-28T07:12:54Z</time>
      </trkpt>
      <trkpt lat="49.94897" lon="2.14397">
        <ele>15</ele>
        <time>2023-06-28T07:12:55Z</time>
      </trkpt>
      <trkpt lat="49.94897" lon="2.14397">
        <ele>15</ele>
        <time>2023-06-28T07:12:56Z</time>
      </trkpt>
      <trkpt lat="49.94898" lon="2.14398">
        <ele>15</ele>
        <time>2023-06-28T07:12:57Z</time>
      </trkpt>
      <trkpt lat="49.94899" lon="2.14399">
        <ele>15.1</ele>
        <time>2023-06-28T07:12:58Z</time>
      </trkpt>
      <trkpt lat="49.949" lon="2.14399">
        <ele>15.1</ele>
        <time>2023-06-28T07:12:59Z</time>
      </trkpt>
      <trkpt lat="49.94901" lon="2.144">
        <ele>15.1</ele>
        <time>2023-06-28T07:13:00Z</time>
      </trkpt>
      <trkpt lat="49.94902" lon="2.14401">
        <ele>15.1</ele>
        <time>2023-06-28T07:13:01Z</time>
      </trkpt>
      <trkpt lat="49.94903" lon="2.14402">
        <ele>15.1</ele>
        <time>2023-06-28T07:13:02Z</time>
      </trkpt>
      <trkpt lat="49.94904" lon="2.14403">
        <ele>15.1</ele>
        <time>2023-06-28T07:13:03Z</time>
      </trkpt>
      <trkpt lat="49.94905" lon="2.14405">
        <ele>15.1</ele>
        <time>2023-06-28T07:13:04Z</time>
      </trkpt>
      <trkpt lat="49.94906" lon="2.14406">
        <ele>15.1</ele>
        <time>2023-06-28T07:13:05Z</time>
      </trkpt>
      <trkpt lat="49.94907" lon="2.14407">
        <ele>15.1</ele>
        <time>2023-06-28T07:13:06Z</time>
      </trkpt>
      <trkpt lat="49.94907" lon="2.14408">
        <ele>15.1</ele>
        <time>2023-06-28T07:13:07Z</time>
      </trkpt>
      <trkpt lat="49.94908" lon="2.14409">
        <ele>15.1</ele>
        <time>2023-06-28T07:13:08Z</time>
      </trkpt>
      <trkpt lat="49.94909" lon="2.14409">
        <ele>15.1</ele>
        <time>2023-06-28T07:13:09Z</time>
      </trkpt>
      <trkpt lat="49.9491" lon="2.1441">
        <ele>15.1</ele>
        <time>2023-06-28T07:13:10Z</time>
      </trkpt>
      <trkpt lat="49.94911" lon="2.14411">
        <ele>15.1</ele>
        <time>2023-06-28T07:13:11Z</time>
      </trkpt>
      <trkpt lat="49.94912" lon="2.14412">
        <ele>15.1</ele>
        <time>2023-06-28T07:13:12Z</time>
      </trkpt>
      <trkpt lat="49.94913" lon="2.14414">
        <ele>15.1</ele>
        <time>2023-06-28T07:13:13Z</time>
      </trkpt>
      <trkpt lat="49.94914" lon="2.14415">
        <ele>15.1</ele>
        <time>2023-06-28T07:13:14Z</time>
      </trkpt>
      <trkpt lat="49.94915" lon="2.14415">
        <ele>15.1</ele>
        <time>2023-06-28T07:13:15Z</time>
      </trkpt>
      <trkpt lat="49.94916" lon="2.14417">
        <ele>15.2</ele>
        <time>2023-06-28T07:13:16Z</time>
      </trkpt>
      <trkpt lat="49.94916" lon="2.14418">
        <ele>15.2</ele>
        <time>2023-06-28T07:13:17Z</time>
      </trkpt>
      <trkpt lat="49.94917" lon="2.14419">
        <ele>15.2</ele>
        <time>2023-06-28T07:13:18Z</time>
      </trkpt>
      <trkpt lat="49.94919" lon="2.14421">
        <ele>15.2</ele>
        <time>2023-06-28T07:13:19Z</time>
      </trkpt>
      <trkpt lat="49.94919" lon="2.14422">
        <ele>15.2</ele>
        <time>2023-06-28T07:13:20Z</time>
      </trkpt>
      <trkpt lat="49.9492" lon="2.14423">
        <ele>15.2</ele>
        <time>2023-06-28T07:13:21Z</time>
      </trkpt>
      <trkpt lat="49.94921" lon="2.14425">
        <ele>15.2</ele>
        <time>2023-06-28T07:13:22Z</time>
      </trkpt>
      <trkpt lat="49.94922" lon="2.14426">
        <ele>15.2</ele>
        <time>2023-06-28T07:13:23Z</time>
      </trkpt>
      <trkpt lat="49.94922" lon="2.14427">
        <ele>15.2</ele>
        <time>2023-06-28T07:13:24Z</time>
      </trkpt>
      <trkpt lat="49.94924" lon="2.14429">
        <ele>15.2</ele>
        <time>2023-06-28T07:13:25Z</time>
      </trkpt>
      <trkpt lat="49.94925" lon="2.1443">
        <ele>15.2</ele>
        <time>2023-06-28T07:13:26Z</time>
      </trkpt>
      <trkpt lat="49.94925" lon="2.14431">
        <ele>15.2</ele>
        <time>2023-06-28T07:13:27Z</time>
      </trkpt>
      <trkpt lat="49.94927" lon="2.14433">
        <ele>15.2</ele>
        <time>2023-06-28T07:13:28Z</time>
      </trkpt>
      <trkpt lat="49.94927" lon="2.14434">
        <ele>15.2</ele>
        <time>2023-06-28T07:13:29Z</time>
      </trkpt>
      <trkpt lat="49.94928" lon="2.14435">
        <ele>15.2</ele>
        <time>2023-06-28T07:13:30Z</time>
      </trkpt>
      <trkpt lat="49.94929" lon="2.14436">
        <ele>15.3</ele>
        <time>2023-06-28T07:13:31Z</time>
      </trkpt>
      <trkpt lat="49.9493" lon="2.14438">
        <ele>15.3</ele>
        <time>2023-06-28T07:13:32Z</time>
      </trkpt>
      <trkpt lat="49.94931" lon="2.1444">
        <ele>15.3</ele>
        <time>2023-06-28T07:13:33Z</time>
      </trkpt>
      <trkpt lat="49.94932" lon="2.14441">
        <ele>15.3</ele>
        <time>2023-06-28T07:13:34Z</time>
      </trkpt>
      <trkpt lat="49.94933" lon="2.14442">
        <ele>15.3</ele>
        <time>2023-06-28T07:13:35Z</time>
      </trkpt>
      <trkpt lat="49.94933" lon="2.14444">
        <ele>15.3</ele>
        <time>2023-06-28T07:13:36Z</time>
      </trkpt>
      <trkpt lat="49.94934" lon="2.14445">
        <ele>15.3</ele>
        <time>2023-06-28T07:13:37Z</time>
      </trkpt>
      <trkpt lat="49.94935" lon="2.14446">
        <ele>15.3</ele>
        <time>2023-06-28T07:13:38Z</time>
      </trkpt>
      <trkpt lat="49.94936" lon="2.14446">
        <ele>15.3</ele>
        <time>2023-06-28T07:13:39Z</time>
      </trkpt>
      <trkpt lat="49.94937" lon="2.14447">
        <ele>15.3</ele>
        <time>2023-06-28T07:13:40Z</time>
      </trkpt>
      <trkpt lat="49.94938" lon="2.14448">
        <ele>15.3</ele>
        <time>2023-06-28T07:13:41Z</time>
      </trkpt>
      <trkpt lat="49.94939" lon="2.14449">
        <ele>15.3</ele>
        <time>2023-06-28T07:13:42Z</time>
      </trkpt>
      <trkpt lat="49.9494" lon="2.1445">
        <ele>15.3</ele>
        <time>2023-06-28T07:13:43Z</time>
      </trkpt>
      <trkpt lat="49.94941" lon="2.1445">
        <ele>15.3</ele>
        <time>2023-06-28T07:13:44Z</time>
      </trkpt>
      <trkpt lat="49.94942" lon="2.14452">
        <ele>15.3</ele>
        <time>2023-06-28T07:13:45Z</time>
      </trkpt>
      <trkpt lat="49.94943" lon="2.14453">
        <ele>15.3</ele>
        <time>2023-06-28T07:13:46Z</time>
      </trkpt>
      <trkpt lat="49.94944" lon="2.14453">
        <ele>15.3</ele>
        <time>2023-06-28T07:13:47Z</time>
      </trkpt>
      <trkpt lat="49.94945" lon="2.14454">
        <ele>15.3</ele>
        <time>2023-06-28T07:13:48Z</time>
      </trkpt>
      <trkpt lat="49.94946" lon="2.14455">
        <ele>15.3</ele>
        <time>2023-06-28T07:13:49Z</time>
      </trkpt>
      <trkpt lat="49.94947" lon="2.14456">
        <ele>15.3</ele>
        <time>2023-06-28T07:13:50Z</time>
      </trkpt>
      <trkpt lat="49.94948" lon="2.14457">
        <ele>15.3</ele>
        <time>2023-06-28T07:13:51Z</time>
      </trkpt>
      <trkpt lat="49.94949" lon="2.14458">
        <ele>15.3</ele>
        <time>2023-06-28T07:13:52Z</time>
      </trkpt>
      <trkpt lat="49.94951" lon="2.14459">
        <ele>15.3</ele>
        <time>2023-06-28T07:13:53Z</time>
      </trkpt>
      <trkpt lat="49.94952" lon="2.1446">
        <ele>15.3</ele>
        <time>2023-06-28T07:13:54Z</time>
      </trkpt>
      <trkpt lat="49.94953" lon="2.14461">
        <ele>15.3</ele>
        <time>2023-06-28T07:13:55Z</time>
      </trkpt>
      <trkpt lat="49.94955" lon="2.14462">
        <ele>15.3</ele>
        <time>2023-06-28T07:13:56Z</time>
      </trkpt>
      <trkpt lat="49.94955" lon="2.14462">
        <ele>15.3</ele>
        <time>2023-06-28T07:13:57Z</time>
      </trkpt>
      <trkpt lat="49.94956" lon="2.14463">
        <ele>15.3</ele>
        <time>2023-06-28T07:13:58Z</time>
      </trkpt>
      <trkpt lat="49.94957" lon="2.14464">
        <ele>15.4</ele>
        <time>2023-06-28T07:13:59Z</time>
      </trkpt>
      <trkpt lat="49.94958" lon="2.14465">
        <ele>15.4</ele>
        <time>2023-06-28T07:14:00Z</time>
      </trkpt>
      <trkpt lat="49.94959" lon="2.14465">
        <ele>15.4</ele>
        <time>2023-06-28T07:14:01Z</time>
      </trkpt>
      <trkpt lat="49.9496" lon="2.14466">
        <ele>15.4</ele>
        <time>2023-06-28T07:14:02Z</time>
      </trkpt>
      <trkpt lat="49.94961" lon="2.14467">
        <ele>15.4</ele>
        <time>2023-06-28T07:14:03Z</time>
      </trkpt>
      <trkpt lat="49.94961" lon="2.14467">
        <ele>15.4</ele>
        <time>2023-06-28T07:14:04Z</time>
      </trkpt>
      <trkpt lat="49.94962" lon="2.14468">
        <ele>15.4</ele>
        <time>2023-06-28T07:14:05Z</time>
      </trkpt>
      <trkpt lat="49.94963" lon="2.14468">
        <ele>15.4</ele>
        <time>2023-06-28T07:14:06Z</time>
      </trkpt>
      <trkpt lat="49.94963" lon="2.14469">
        <ele>15.4</ele>
        <time>2023-06-28T07:14:07Z</time>
      </trkpt>
      <trkpt lat="49.94964" lon="2.14469">
        <ele>15.4</ele>
        <time>2023-06-28T07:14:08Z</time>
      </trkpt>
      <trkpt lat="49.94965" lon="2.1447">
        <ele>15.4</ele>
        <time>2023-06-28T07:14:09Z</time>
      </trkpt>
      <trkpt lat="49.94965" lon="2.1447">
        <ele>15.4</ele>
        <time>2023-06-28T07:14:10Z</time>
      </trkpt>
      <trkpt lat="49.94966" lon="2.1447">
        <ele>15.4</ele>
        <time>2023-06-28T07:14:11Z</time>
      </trkpt>
      <trkpt lat="49.94967" lon="2.14471">
        <ele>15.4</ele>
        <time>2023-06-28T07:14:12Z</time>
      </trkpt>
      <trkpt lat="49.94967" lon="2.14472">
        <ele>15.4</ele>
        <time>2023-06-28T07:14:13Z</time>
      </trkpt>
      <trkpt lat="49.94968" lon="2.14473">
        <ele>15.4</ele>
        <time>2023-06-28T07:14:14Z</time>
      </trkpt>
      <trkpt lat="49.94969" lon="2.14474">
        <ele>15.4</ele>
        <time>2023-06-28T07:14:15Z</time>
      </trkpt>
      <trkpt lat="49.9497" lon="2.14475">
        <ele>15.4</ele>
        <time>2023-06-28T07:14:16Z</time>
      </trkpt>
      <trkpt lat="49.94971" lon="2.14476">
        <ele>15.4</ele>
        <time>2023-06-28T07:14:17Z</time>
      </trkpt>
      <trkpt lat="49.94972" lon="2.14478">
        <ele>15.4</ele>
        <time>2023-06-28T07:14:18Z</time>
      </trkpt>
      <trkpt lat="49.94973" lon="2.1448">
        <ele>15.4</ele>
        <time>2023-06-28T07:14:19Z</time>
      </trkpt>
      <trkpt lat="49.94974" lon="2.14481">
        <ele>15.4</ele>
        <time>2023-06-28T07:14:20Z</time>
      </trkpt>
      <trkpt lat="49.94975" lon="2.14482">
        <ele>15.4</ele>
        <time>2023-06-28T07:14:21Z</time>
      </trkpt>
      <trkpt lat="49.94976" lon="2.14483">
        <ele>15.4</ele>
        <time>2023-06-28T07:14:22Z</time>
      </trkpt>
      <trkpt lat="49.94977" lon="2.14484">
        <ele>15.4</ele>
        <time>2023-06-28T07:14:23Z</time>
      </trkpt>
      <trkpt lat="49.94978" lon="2.14485">
        <ele>15.4</ele>
        <time>2023-06-28T07:14:24Z</time>
      </trkpt>
      <trkpt lat="49.94979" lon="2.14486">
        <ele>15.4</ele>
        <time>2023-06-28T07:14:25Z</time>
      </trkpt>
      <trkpt lat="49.9498" lon="2.14487">
        <ele>15.4</ele>
        <time>2023-06-28T07:14:26Z</time>
      </trkpt>
      <trkpt lat="49.94981" lon="2.14487">
        <ele>15.4</ele>
        <time>2023-06-28T07:14:27Z</time>
      </trkpt>
      <trkpt lat="49.94982" lon="2.14488">
        <ele>15.4</ele>
        <time>2023-06-28T07:14:28Z</time>
      </trkpt>
      <trkpt lat="49.94983" lon="2.14489">
        <ele>15.4</ele>
        <time>2023-06-28T07:14:29Z</time>
      </trkpt>
      <trkpt lat="49.94984" lon="2.1449">
        <ele>15.4</ele>
        <time>2023-06-28T07:14:30Z</time>
      </trkpt>
      <trkpt lat="49.94985" lon="2.14491">
        <ele>15.4</ele>
        <time>2023-06-28T07:14:31Z</time>
      </trkpt>
      <trkpt lat="49.94986" lon="2.14491">
        <ele>15.4</ele>
        <time>2023-06-28T07:14:32Z</time>
      </trkpt>
      <trkpt lat="49.94987" lon="2.14492">
        <ele>15.4</ele>
        <time>2023-06-28T07:14:33Z</time>
      </trkpt>
      <trkpt lat="49.94988" lon="2.14493">
        <ele>15.4</ele>
        <time>2023-06-28T07:14:34Z</time>
      </trkpt>
      <trkpt lat="49.94989" lon="2.14494">
        <ele>15.4</ele>
        <time>2023-06-28T07:14:35Z</time>
      </trkpt>
      <trkpt lat="49.94991" lon="2.14495">
        <ele>15.4</ele>
        <time>2023-06-28T07:14:36Z</time>
      </trkpt>
      <trkpt lat="49.94991" lon="2.14496">
        <ele>15.4</ele>
        <time>2023-06-28T07:14:37Z</time>
      </trkpt>
      <trkpt lat="49.94992" lon="2.14496">
        <ele>15.4</ele>
        <time>2023-06-28T07:14:38Z</time>
      </trkpt>
      <trkpt lat="49.94994" lon="2.14497">
        <ele>15.4</ele>
        <time>2023-06-28T07:14:39Z</time>
      </trkpt>
      <trkpt lat="49.94995" lon="2.14498">
        <ele>15.4</ele>
        <time>2023-06-28T07:14:40Z</time>
      </trkpt>
      <trkpt lat="49.94997" lon="2.145">
        <ele>15.4</ele>
        <time>2023-06-28T07:14:41Z</time>
      </trkpt>
      <trkpt lat="49.94997" lon="2.145">
        <ele>15.4</ele>
        <time>2023-06-28T07:14:42Z</time>
      </trkpt>
      <trkpt lat="49.94998" lon="2.14501">
        <ele>15.4</ele>
        <time>2023-06-28T07:14:43Z</time>
      </trkpt>
      <trkpt lat="49.94999" lon="2.14502">
        <ele>15.4</ele>
        <time>2023-06-28T07:14:44Z</time>
      </trkpt>
      <trkpt lat="49.95" lon="2.14502">
        <ele>15.4</ele>
        <time>2023-06-28T07:14:45Z</time>
      </trkpt>
      <trkpt lat="49.95001" lon="2.14503">
        <ele>15.4</ele>
        <time>2023-06-28T07:14:46Z</time>
      </trkpt>
      <trkpt lat="49.95003" lon="2.14505">
        <ele>15.4</ele>
        <time>2023-06-28T07:14:47Z</time>
      </trkpt>
      <trkpt lat="49.95004" lon="2.14506">
        <ele>15.4</ele>
        <time>2023-06-28T07:14:48Z</time>
      </trkpt>
      <trkpt lat="49.95004" lon="2.14506">
        <ele>15.4</ele>
        <time>2023-06-28T07:14:49Z</time>
      </trkpt>
      <trkpt lat="49.95005" lon="2.14507">
        <ele>15.4</ele>
        <time>2023-06-28T07:14:50Z</time>
      </trkpt>
      <trkpt lat="49.95006" lon="2.14508">
        <ele>15.4</ele>
        <time>2023-06-28T07:14:51Z</time>
      </trkpt>
      <trkpt lat="49.95007" lon="2.14509">
        <ele>15.4</ele>
        <time>2023-06-28T07:14:52Z</time>
      </trkpt>
      <trkpt lat="49.95008" lon="2.1451">
        <ele>15.4</ele>
        <time>2023-06-28T07:14:53Z</time>
      </trkpt>
      <trkpt lat="49.95008" lon="2.14512">
        <ele>15.4</ele>
        <time>2023-06-28T07:14:54Z</time>
      </trkpt>
      <trkpt lat="49.95009" lon="2.14513">
        <ele>15.4</ele>
        <time>2023-06-28T07:14:55Z</time>
      </trkpt>
      <trkpt lat="49.9501" lon="2.14514">
        <ele>15.4</ele>
        <time>2023-06-28T07:14:56Z</time>
      </trkpt>
      <trkpt lat="49.95011" lon="2.14515">
        <ele>15.4</ele>
        <time>2023-06-28T07:14:57Z</time>
      </trkpt>
      <trkpt lat="49.95011" lon="2.14516">
        <ele>15.4</ele>
        <time>2023-06-28T07:14:58Z</time>
      </trkpt>
      <trkpt lat="49.95012" lon="2.14517">
        <ele>15.4</ele>
        <time>2023-06-28T07:14:59Z</time>
      </trkpt>
      <trkpt lat="49.95013" lon="2.14518">
        <ele>15.4</ele>
        <time>2023-06-28T07:15:00Z</time>
      </trkpt>
      <trkpt lat="49.95014" lon="2.14519">
        <ele>15.4</ele>
        <time>2023-06-28T07:15:01Z</time>
      </trkpt>
      <trkpt lat="49.95015" lon="2.1452">
        <ele>15.4</ele>
        <time>2023-06-28T07:15:02Z</time>
      </trkpt>
      <trkpt lat="49.95015" lon="2.14521">
        <ele>15.4</ele>
        <time>2023-06-28T07:15:03Z</time>
      </trkpt>
      <trkpt lat="49.95016" lon="2.14521">
        <ele>15.4</ele>
        <time>2023-06-28T07:15:04Z</time>
      </trkpt>
      <trkpt lat="49.95017" lon="2.14522">
        <ele>15.4</ele>
        <time>2023-06-28T07:15:05Z</time>
      </trkpt>
      <trkpt lat="49.95018" lon="2.14523">
        <ele>15.4</ele>
        <time>2023-06-28T07:15:06Z</time>
      </trkpt>
      <trkpt lat="49.95019" lon="2.14523">
        <ele>15.4</ele>
        <time>2023-06-28T07:15:07Z</time>
      </trkpt>
      <trkpt lat="49.95019" lon="2.14524">
        <ele>15.4</ele>
        <time>2023-06-28T07:15:08Z</time>
      </trkpt>
      <trkpt lat="49.9502" lon="2.14525">
        <ele>15.4</ele>
        <time>2023-06-28T07:15:09Z</time>
      </trkpt>
      <trkpt lat="49.95021" lon="2.14526">
        <ele>15.4</ele>
        <time>2023-06-28T07:15:10Z</time>
      </trkpt>
      <trkpt lat="49.95022" lon="2.14526">
        <ele>15.4</ele>
        <time>2023-06-28T07:15:11Z</time>
      </trkpt>
      <trkpt lat="49.95023" lon="2.14527">
        <ele>15.4</ele>
        <time>2023-06-28T07:15:12Z</time>
      </trkpt>
      <trkpt lat="49.95024" lon="2.14528">
        <ele>15.4</ele>
        <time>2023-06-28T07:15:13Z</time>
      </trkpt>
      <trkpt lat="49.95025" lon="2.14529">
        <ele>15.4</ele>
        <time>2023-06-28T07:15:14Z</time>
      </trkpt>
      <trkpt lat="49.95026" lon="2.1453">
        <ele>15.4</ele>
        <time>2023-06-28T07:15:15Z</time>
      </trkpt>
      <trkpt lat="49.95027" lon="2.14531">
        <ele>15.4</ele>
        <time>2023-06-28T07:15:16Z</time>
      </trkpt>
      <trkpt lat="49.95028" lon="2.14532">
        <ele>15.4</ele>
        <time>2023-06-28T07:15:17Z</time>
      </trkpt>
      <trkpt lat="49.9503" lon="2.14534">
        <ele>15.4</ele>
        <time>2023-06-28T07:15:18Z</time>
      </trkpt>
      <trkpt lat="49.9503" lon="2.14534">
        <ele>15.4</ele>
        <time>2023-06-28T07:15:19Z</time>
      </trkpt>
      <trkpt lat="49.95031" lon="2.14535">
        <ele>15.4</ele>
        <time>2023-06-28T07:15:20Z</time>
      </trkpt>
      <trkpt lat="49.95033" lon="2.14536">
        <ele>15.4</ele>
        <time>2023-06-28T07:15:21Z</time>
      </trkpt>
      <trkpt lat="49.95034" lon="2.14537">
        <ele>15.4</ele>
        <time>2023-06-28T07:15:22Z</time>
      </trkpt>
      <trkpt lat="49.95035" lon="2.14538">
        <ele>15.4</ele>
        <time>2023-06-28T07:15:23Z</time>
      </trkpt>
      <trkpt lat="49.95036" lon="2.14539">
        <ele>15.4</ele>
        <time>2023-06-28T07:15:24Z</time>
      </trkpt>
      <trkpt lat="49.95037" lon="2.1454">
        <ele>15.4</ele>
        <time>2023-06-28T07:15:25Z</time>
      </trkpt>
      <trkpt lat="49.95038" lon="2.14541">
        <ele>15.4</ele>
        <time>2023-06-28T07:15:26Z</time>
      </trkpt>
      <trkpt lat="49.95039" lon="2.14542">
        <ele>15.4</ele>
        <time>2023-06-28T07:15:27Z</time>
      </trkpt>
      <trkpt lat="49.9504" lon="2.14542">
        <ele>15.4</ele>
        <time>2023-06-28T07:15:28Z</time>
      </trkpt>
      <trkpt lat="49.95041" lon="2.14543">
        <ele>15.5</ele>
        <time>2023-06-28T07:15:29Z</time>
      </trkpt>
      <trkpt lat="49.95042" lon="2.14544">
        <ele>15.5</ele>
        <time>2023-06-28T07:15:30Z</time>
      </trkpt>
      <trkpt lat="49.95044" lon="2.14545">
        <ele>15.5</ele>
        <time>2023-06-28T07:15:31Z</time>
      </trkpt>
      <trkpt lat="49.95045" lon="2.14546">
        <ele>15.5</ele>
        <time>2023-06-28T07:15:32Z</time>
      </trkpt>
      <trkpt lat="49.95047" lon="2.14548">
        <ele>15.5</ele>
        <time>2023-06-28T07:15:33Z</time>
      </trkpt>
      <trkpt lat="49.95048" lon="2.14549">
        <ele>15.5</ele>
        <time>2023-06-28T07:15:34Z</time>
      </trkpt>
      <trkpt lat="49.95048" lon="2.14549">
        <ele>15.5</ele>
        <time>2023-06-28T07:15:35Z</time>
      </trkpt>
      <trkpt lat="49.9505" lon="2.14551">
        <ele>15.5</ele>
        <time>2023-06-28T07:15:36Z</time>
      </trkpt>
      <trkpt lat="49.95051" lon="2.14552">
        <ele>15.5</ele>
        <time>2023-06-28T07:15:37Z</time>
      </trkpt>
      <trkpt lat="49.95052" lon="2.14552">
        <ele>15.5</ele>
        <time>2023-06-28T07:15:38Z</time>
      </trkpt>
      <trkpt lat="49.95054" lon="2.14554">
        <ele>15.5</ele>
        <time>2023-06-28T07:15:39Z</time>
      </trkpt>
      <trkpt lat="49.95054" lon="2.14555">
        <ele>15.5</ele>
        <time>2023-06-28T07:15:40Z</time>
      </trkpt>
      <trkpt lat="49.95055" lon="2.14556">
        <ele>15.5</ele>
        <time>2023-06-28T07:15:41Z</time>
      </trkpt>
      <trkpt lat="49.95056" lon="2.14557">
        <ele>15.5</ele>
        <time>2023-06-28T07:15:42Z</time>
      </trkpt>
      <trkpt lat="49.95057" lon="2.14558">
        <ele>15.5</ele>
        <time>2023-06-28T07:15:43Z</time>
      </trkpt>
      <trkpt lat="49.95058" lon="2.14559">
        <ele>15.5</ele>
        <time>2023-06-28T07:15:44Z</time>
      </trkpt>
      <trkpt lat="49.95059" lon="2.1456">
        <ele>15.5</ele>
        <time>2023-06-28T07:15:45Z</time>
      </trkpt>
      <trkpt lat="49.9506" lon="2.14561">
        <ele>15.5</ele>
        <time>2023-06-28T07:15:46Z</time>
      </trkpt>
      <trkpt lat="49.95061" lon="2.14562">
        <ele>15.5</ele>
        <time>2023-06-28T07:15:47Z</time>
      </trkpt>
      <trkpt lat="49.95062" lon="2.14563">
        <ele>15.5</ele>
        <time>2023-06-28T07:15:48Z</time>
      </trkpt>
      <trkpt lat="49.95063" lon="2.14564">
        <ele>15.5</ele>
        <time>2023-06-28T07:15:49Z</time>
      </trkpt>
      <trkpt lat="49.95063" lon="2.14565">
        <ele>15.5</ele>
        <time>2023-06-28T07:15:50Z</time>
      </trkpt>
      <trkpt lat="49.95065" lon="2.14567">
        <ele>15.5</ele>
        <time>2023-06-28T07:15:51Z</time>
      </trkpt>
      <trkpt lat="49.95066" lon="2.14567">
        <ele>15.5</ele>
        <time>2023-06-28T07:15:52Z</time>
      </trkpt>
      <trkpt lat="49.95067" lon="2.14568">
        <ele>15.5</ele>
        <time>2023-06-28T07:15:53Z</time>
      </trkpt>
      <trkpt lat="49.95067" lon="2.1457">
        <ele>15.5</ele>
        <time>2023-06-28T07:15:54Z</time>
      </trkpt>
      <trkpt lat="49.95068" lon="2.14571">
        <ele>15.5</ele>
        <time>2023-06-28T07:15:55Z</time>
      </trkpt>
      <trkpt lat="49.95069" lon="2.14572">
        <ele>15.5</ele>
        <time>2023-06-28T07:15:56Z</time>
      </trkpt>
      <trkpt lat="49.9507" lon="2.14573">
        <ele>15.5</ele>
        <time>2023-06-28T07:15:57Z</time>
      </trkpt>
      <trkpt lat="49.95071" lon="2.14574">
        <ele>15.5</ele>
        <time>2023-06-28T07:15:58Z</time>
      </trkpt>
      <trkpt lat="49.95072" lon="2.14575">
        <ele>15.5</ele>
        <time>2023-06-28T07:15:59Z</time>
      </trkpt>
      <trkpt lat="49.95072" lon="2.14576">
        <ele>15.5</ele>
        <time>2023-06-28T07:16:00Z</time>
      </trkpt>
      <trkpt lat="49.95073" lon="2.14577">
        <ele>15.5</ele>
        <time>2023-06-28T07:16:01Z</time>
      </trkpt>
      <trkpt lat="49.95074" lon="2.14578">
        <ele>15.5</ele>
        <time>2023-06-28T07:16:02Z</time>
      </trkpt>
      <trkpt lat="49.95076" lon="2.14579">
        <ele>15.5</ele>
        <time>2023-06-28T07:16:03Z</time>
      </trkpt>
      <trkpt lat="49.95077" lon="2.1458">
        <ele>15.5</ele>
        <time>2023-06-28T07:16:04Z</time>
      </trkpt>
      <trkpt lat="49.95077" lon="2.14581">
        <ele>15.5</ele>
        <time>2023-06-28T07:16:05Z</time>
      </trkpt>
      <trkpt lat="49.95078" lon="2.14581">
        <ele>15.4</ele>
        <time>2023-06-28T07:16:06Z</time>
      </trkpt>
      <trkpt lat="49.95079" lon="2.14582">
        <ele>15.4</ele>
        <time>2023-06-28T07:16:07Z</time>
      </trkpt>
      <trkpt lat="49.9508" lon="2.14583">
        <ele>15.4</ele>
        <time>2023-06-28T07:16:08Z</time>
      </trkpt>
      <trkpt lat="49.95082" lon="2.14584">
        <ele>15.4</ele>
        <time>2023-06-28T07:16:09Z</time>
      </trkpt>
      <trkpt lat="49.95083" lon="2.14584">
        <ele>15.4</ele>
        <time>2023-06-28T07:16:10Z</time>
      </trkpt>
      <trkpt lat="49.95084" lon="2.14585">
        <ele>15.4</ele>
        <time>2023-06-28T07:16:11Z</time>
      </trkpt>
      <trkpt lat="49.95085" lon="2.14585">
        <ele>15.4</ele>
        <time>2023-06-28T07:16:12Z</time>
      </trkpt>
      <trkpt lat="49.95086" lon="2.14586">
        <ele>15.4</ele>
        <time>2023-06-28T07:16:13Z</time>
      </trkpt>
      <trkpt lat="49.95087" lon="2.14587">
        <ele>15.4</ele>
        <time>2023-06-28T07:16:14Z</time>
      </trkpt>
      <trkpt lat="49.95088" lon="2.14588">
        <ele>15.4</ele>
        <time>2023-06-28T07:16:15Z</time>
      </trkpt>
      <trkpt lat="49.95089" lon="2.14589">
        <ele>15.4</ele>
        <time>2023-06-28T07:16:16Z</time>
      </trkpt>
      <trkpt lat="49.9509" lon="2.1459">
        <ele>15.4</ele>
        <time>2023-06-28T07:16:17Z</time>
      </trkpt>
      <trkpt lat="49.95091" lon="2.1459">
        <ele>15.4</ele>
        <time>2023-06-28T07:16:18Z</time>
      </trkpt>
      <trkpt lat="49.95091" lon="2.14591">
        <ele>15.4</ele>
        <time>2023-06-28T07:16:19Z</time>
      </trkpt>
      <trkpt lat="49.95092" lon="2.14591">
        <ele>15.4</ele>
        <time>2023-06-28T07:16:20Z</time>
      </trkpt>
      <trkpt lat="49.95093" lon="2.14592">
        <ele>15.4</ele>
        <time>2023-06-28T07:16:21Z</time>
      </trkpt>
      <trkpt lat="49.95094" lon="2.14593">
        <ele>15.4</ele>
        <time>2023-06-28T07:16:22Z</time>
      </trkpt>
      <trkpt lat="49.95095" lon="2.14593">
        <ele>15.4</ele>
        <time>2023-06-28T07:16:23Z</time>
      </trkpt>
      <trkpt lat="49.95096" lon="2.14594">
        <ele>15.4</ele>
        <time>2023-06-28T07:16:24Z</time>
      </trkpt>
      <trkpt lat="49.95097" lon="2.14595">
        <ele>15.3</ele>
        <time>2023-06-28T07:16:25Z</time>
      </trkpt>
      <trkpt lat="49.95098" lon="2.14596">
        <ele>15.3</ele>
        <time>2023-06-28T07:16:26Z</time>
      </trkpt>
      <trkpt lat="49.95099" lon="2.14596">
        <ele>15.3</ele>
        <time>2023-06-28T07:16:27Z</time>
      </trkpt>
      <trkpt lat="49.951" lon="2.14597">
        <ele>15.3</ele>
        <time>2023-06-28T07:16:28Z</time>
      </trkpt>
      <trkpt lat="49.95101" lon="2.14598">
        <ele>15.3</ele>
        <time>2023-06-28T07:16:29Z</time>
      </trkpt>
      <trkpt lat="49.95102" lon="2.14599">
        <ele>15.3</ele>
        <time>2023-06-28T07:16:30Z</time>
      </trkpt>
      <trkpt lat="49.95103" lon="2.14599">
        <ele>15.3</ele>
        <time>2023-06-28T07:16:31Z</time>
      </trkpt>
      <trkpt lat="49.95104" lon="2.146">
        <ele>15.3</ele>
        <time>2023-06-28T07:16:32Z</time>
      </trkpt>
      <trkpt lat="49.95105" lon="2.14601">
        <ele>15.3</ele>
        <time>2023-06-28T07:16:33Z</time>
      </trkpt>
      <trkpt lat="49.95105" lon="2.14602">
        <ele>15.3</ele>
        <time>2023-06-28T07:16:34Z</time>
      </trkpt>
      <trkpt lat="49.95106" lon="2.14603">
        <ele>15.3</ele>
        <time>2023-06-28T07:16:35Z</time>
      </trkpt>
      <trkpt lat="49.95107" lon="2.14603">
        <ele>15.3</ele>
        <time>2023-06-28T07:16:36Z</time>
      </trkpt>
      <trkpt lat="49.95108" lon="2.14604">
        <ele>15.3</ele>
        <time>2023-06-28T07:16:37Z</time>
      </trkpt>
      <trkpt lat="49.95109" lon="2.14605">
        <ele>15.3</ele>
        <time>2023-06-28T07:16:38Z</time>
      </trkpt>
      <trkpt lat="49.9511" lon="2.14605">
        <ele>15.3</ele>
        <time>2023-06-28T07:16:39Z</time>
      </trkpt>
      <trkpt lat="49.95112" lon="2.14606">
        <ele>15.3</ele>
        <time>2023-06-28T07:16:40Z</time>
      </trkpt>
      <trkpt lat="49.95112" lon="2.14607">
        <ele>15.3</ele>
        <time>2023-06-28T07:16:41Z</time>
      </trkpt>
      <trkpt lat="49.95113" lon="2.14608">
        <ele>15.3</ele>
        <time>2023-06-28T07:16:42Z</time>
      </trkpt>
      <trkpt lat="49.95115" lon="2.14609">
        <ele>15.3</ele>
        <time>2023-06-28T07:16:43Z</time>
      </trkpt>
      <trkpt lat="49.95116" lon="2.1461">
        <ele>15.3</ele>
        <time>2023-06-28T07:16:44Z</time>
      </trkpt>
      <trkpt lat="49.95117" lon="2.1461">
        <ele>15.3</ele>
        <time>2023-06-28T07:16:45Z</time>
      </trkpt>
      <trkpt lat="49.95118" lon="2.14611">
        <ele>15.3</ele>
        <time>2023-06-28T07:16:46Z</time>
      </trkpt>
      <trkpt lat="49.95119" lon="2.14612">
        <ele>15.3</ele>
        <time>2023-06-28T07:16:47Z</time>
      </trkpt>
      <trkpt lat="49.95121" lon="2.14613">
        <ele>15.3</ele>
        <time>2023-06-28T07:16:48Z</time>
      </trkpt>
      <trkpt lat="49.95122" lon="2.14614">
        <ele>15.3</ele>
        <time>2023-06-28T07:16:49Z</time>
      </trkpt>
      <trkpt lat="49.95124" lon="2.14615">
        <ele>15.3</ele>
        <time>2023-06-28T07:16:50Z</time>
      </trkpt>
      <trkpt lat="49.95125" lon="2.14616">
        <ele>15.3</ele>
        <time>2023-06-28T07:16:51Z</time>
      </trkpt>
      <trkpt lat="49.95127" lon="2.14617">
        <ele>15.3</ele>
        <time>2023-06-28T07:16:52Z</time>
      </trkpt>
      <trkpt lat="49.95128" lon="2.14618">
        <ele>15.4</ele>
        <time>2023-06-28T07:16:53Z</time>
      </trkpt>
      <trkpt lat="49.95129" lon="2.14618">
        <ele>15.4</ele>
        <time>2023-06-28T07:16:54Z</time>
      </trkpt>
      <trkpt lat="49.95131" lon="2.14619">
        <ele>15.4</ele>
        <time>2023-06-28T07:16:55Z</time>
      </trkpt>
      <trkpt lat="49.95132" lon="2.1462">
        <ele>15.4</ele>
        <time>2023-06-28T07:16:56Z</time>
      </trkpt>
      <trkpt lat="49.95133" lon="2.14621">
        <ele>15.4</ele>
        <time>2023-06-28T07:16:57Z</time>
      </trkpt>
      <trkpt lat="49.95135" lon="2.14622">
        <ele>15.4</ele>
        <time>2023-06-28T07:16:58Z</time>
      </trkpt>
      <trkpt lat="49.95136" lon="2.14622">
        <ele>15.4</ele>
        <time>2023-06-28T07:16:59Z</time>
      </trkpt>
      <trkpt lat="49.95137" lon="2.14623">
        <ele>15.4</ele>
        <time>2023-06-28T07:17:00Z</time>
      </trkpt>
      <trkpt lat="49.95138" lon="2.14624">
        <ele>15.4</ele>
        <time>2023-06-28T07:17:01Z</time>
      </trkpt>
      <trkpt lat="49.95139" lon="2.14625">
        <ele>15.4</ele>
        <time>2023-06-28T07:17:02Z</time>
      </trkpt>
      <trkpt lat="49.9514" lon="2.14625">
        <ele>15.4</ele>
        <time>2023-06-28T07:17:03Z</time>
      </trkpt>
      <trkpt lat="49.9514" lon="2.14626">
        <ele>15.4</ele>
        <time>2023-06-28T07:17:04Z</time>
      </trkpt>
      <trkpt lat="49.95141" lon="2.14626">
        <ele>15.4</ele>
        <time>2023-06-28T07:17:05Z</time>
      </trkpt>
      <trkpt lat="49.95142" lon="2.14627">
        <ele>15.4</ele>
        <time>2023-06-28T07:17:06Z</time>
      </trkpt>
      <trkpt lat="49.95142" lon="2.14627">
        <ele>15.5</ele>
        <time>2023-06-28T07:17:07Z</time>
      </trkpt>
      <trkpt lat="49.95143" lon="2.14628">
        <ele>15.5</ele>
        <time>2023-06-28T07:17:08Z</time>
      </trkpt>
      <trkpt lat="49.95144" lon="2.14629">
        <ele>15.5</ele>
        <time>2023-06-28T07:17:09Z</time>
      </trkpt>
      <trkpt lat="49.95145" lon="2.14629">
        <ele>15.5</ele>
        <time>2023-06-28T07:17:10Z</time>
      </trkpt>
      <trkpt lat="49.95145" lon="2.1463">
        <ele>15.5</ele>
        <time>2023-06-28T07:17:11Z</time>
      </trkpt>
      <trkpt lat="49.95146" lon="2.14631">
        <ele>15.5</ele>
        <time>2023-06-28T07:17:12Z</time>
      </trkpt>
      <trkpt lat="49.95146" lon="2.14632">
        <ele>15.5</ele>
        <time>2023-06-28T07:17:13Z</time>
      </trkpt>
      <trkpt lat="49.95147" lon="2.14633">
        <ele>15.5</ele>
        <time>2023-06-28T07:17:14Z</time>
      </trkpt>
      <trkpt lat="49.95147" lon="2.14633">
        <ele>15.5</ele>
        <time>2023-06-28T07:17:15Z</time>
      </trkpt>
      <trkpt lat="49.95147" lon="2.14634">
        <ele>15.5</ele>
        <time>2023-06-28T07:17:16Z</time>
      </trkpt>
      <trkpt lat="49.95148" lon="2.14635">
        <ele>15.5</ele>
        <time>2023-06-28T07:17:17Z</time>
      </trkpt>
      <trkpt lat="49.95148" lon="2.14636">
        <ele>15.5</ele>
        <time>2023-06-28T07:17:18Z</time>
      </trkpt>
      <trkpt lat="49.95149" lon="2.14637">
        <ele>15.5</ele>
        <time>2023-06-28T07:17:19Z</time>
      </trkpt>
      <trkpt lat="49.9515" lon="2.14638">
        <ele>15.5</ele>
        <time>2023-06-28T07:17:20Z</time>
      </trkpt>
      <trkpt lat="49.95151" lon="2.14639">
        <ele>15.5</ele>
        <time>2023-06-28T07:17:21Z</time>
      </trkpt>
      <trkpt lat="49.95151" lon="2.1464">
        <ele>15.5</ele>
        <time>2023-06-28T07:17:22Z</time>
      </trkpt>
      <trkpt lat="49.95152" lon="2.14641">
        <ele>15.5</ele>
        <time>2023-06-28T07:17:23Z</time>
      </trkpt>
      <trkpt lat="49.95153" lon="2.14642">
        <ele>15.5</ele>
        <time>2023-06-28T07:17:24Z</time>
      </trkpt>
      <trkpt lat="49.95154" lon="2.14643">
        <ele>15.5</ele>
        <time>2023-06-28T07:17:25Z</time>
      </trkpt>
      <trkpt lat="49.95155" lon="2.14644">
        <ele>15.5</ele>
        <time>2023-06-28T07:17:26Z</time>
      </trkpt>
      <trkpt lat="49.95157" lon="2.14646">
        <ele>15.5</ele>
        <time>2023-06-28T07:17:27Z</time>
      </trkpt>
      <trkpt lat="49.95158" lon="2.14646">
        <ele>15.5</ele>
        <time>2023-06-28T07:17:28Z</time>
      </trkpt>
      <trkpt lat="49.95158" lon="2.14647">
        <ele>15.5</ele>
        <time>2023-06-28T07:17:29Z</time>
      </trkpt>
      <trkpt lat="49.9516" lon="2.14648">
        <ele>15.5</ele>
        <time>2023-06-28T07:17:30Z</time>
      </trkpt>
      <trkpt lat="49.95161" lon="2.14649">
        <ele>15.5</ele>
        <time>2023-06-28T07:17:31Z</time>
      </trkpt>
      <trkpt lat="49.95162" lon="2.1465">
        <ele>15.5</ele>
        <time>2023-06-28T07:17:32Z</time>
      </trkpt>
      <trkpt lat="49.95163" lon="2.14651">
        <ele>15.5</ele>
        <time>2023-06-28T07:17:33Z</time>
      </trkpt>
      <trkpt lat="49.95164" lon="2.14652">
        <ele>15.5</ele>
        <time>2023-06-28T07:17:34Z</time>
      </trkpt>
      <trkpt lat="49.95165" lon="2.14652">
        <ele>15.5</ele>
        <time>2023-06-28T07:17:35Z</time>
      </trkpt>
      <trkpt lat="49.95166" lon="2.14653">
        <ele>15.5</ele>
        <time>2023-06-28T07:17:36Z</time>
      </trkpt>
      <trkpt lat="49.95167" lon="2.14654">
        <ele>15.5</ele>
        <time>2023-06-28T07:17:37Z</time>
      </trkpt>
      <trkpt lat="49.95168" lon="2.14655">
        <ele>15.5</ele>
        <time>2023-06-28T07:17:38Z</time>
      </trkpt>
      <trkpt lat="49.95169" lon="2.14656">
        <ele>15.5</ele>
        <time>2023-06-28T07:17:39Z</time>
      </trkpt>
      <trkpt lat="49.9517" lon="2.14657">
        <ele>15.5</ele>
        <time>2023-06-28T07:17:40Z</time>
      </trkpt>
      <trkpt lat="49.95171" lon="2.14658">
        <ele>15.5</ele>
        <time>2023-06-28T07:17:41Z</time>
      </trkpt>
      <trkpt lat="49.95171" lon="2.14659">
        <ele>15.5</ele>
        <time>2023-06-28T07:17:42Z</time>
      </trkpt>
      <trkpt lat="49.95172" lon="2.1466">
        <ele>15.5</ele>
        <time>2023-06-28T07:17:43Z</time>
      </trkpt>
      <trkpt lat="49.95173" lon="2.14662">
        <ele>15.5</ele>
        <time>2023-06-28T07:17:44Z</time>
      </trkpt>
      <trkpt lat="49.95174" lon="2.14663">
        <ele>15.5</ele>
        <time>2023-06-28T07:17:45Z</time>
      </trkpt>
      <trkpt lat="49.95175" lon="2.14664">
        <ele>15.5</ele>
        <time>2023-06-28T07:17:46Z</time>
      </trkpt>
      <trkpt lat="49.95175" lon="2.14665">
        <ele>15.5</ele>
        <time>2023-06-28T07:17:47Z</time>
      </trkpt>
      <trkpt lat="49.95176" lon="2.14666">
        <ele>15.5</ele>
        <time>2023-06-28T07:17:48Z</time>
      </trkpt>
      <trkpt lat="49.95177" lon="2.14667">
        <ele>15.5</ele>
        <time>2023-06-28T07:17:49Z</time>
      </trkpt>
      <trkpt lat="49.95178" lon="2.14668">
        <ele>15.5</ele>
        <time>2023-06-28T07:17:50Z</time>
      </trkpt>
      <trkpt lat="49.95179" lon="2.14668">
        <ele>15.5</ele>
        <time>2023-06-28T07:17:51Z</time>
      </trkpt>
      <trkpt lat="49.9518" lon="2.14669">
        <ele>15.5</ele>
        <time>2023-06-28T07:17:52Z</time>
      </trkpt>
      <trkpt lat="49.95181" lon="2.14669">
        <ele>15.5</ele>
        <time>2023-06-28T07:17:53Z</time>
      </trkpt>
      <trkpt lat="49.95182" lon="2.1467">
        <ele>15.5</ele>
        <time>2023-06-28T07:17:54Z</time>
      </trkpt>
      <trkpt lat="49.95183" lon="2.14671">
        <ele>15.5</ele>
        <time>2023-06-28T07:17:55Z</time>
      </trkpt>
      <trkpt lat="49.95184" lon="2.14671">
        <ele>15.5</ele>
        <time>2023-06-28T07:17:56Z</time>
      </trkpt>
      <trkpt lat="49.95185" lon="2.14672">
        <ele>15.5</ele>
        <time>2023-06-28T07:17:57Z</time>
      </trkpt>
      <trkpt lat="49.95186" lon="2.14673">
        <ele>15.5</ele>
        <time>2023-06-28T07:17:58Z</time>
      </trkpt>
      <trkpt lat="49.95187" lon="2.14674">
        <ele>15.5</ele>
        <time>2023-06-28T07:17:59Z</time>
      </trkpt>
      <trkpt lat="49.95188" lon="2.14675">
        <ele>15.5</ele>
        <time>2023-06-28T07:18:00Z</time>
      </trkpt>
      <trkpt lat="49.95189" lon="2.14675">
        <ele>15.5</ele>
        <time>2023-06-28T07:18:01Z</time>
      </trkpt>
      <trkpt lat="49.9519" lon="2.14676">
        <ele>15.5</ele>
        <time>2023-06-28T07:18:02Z</time>
      </trkpt>
      <trkpt lat="49.95192" lon="2.14676">
        <ele>15.5</ele>
        <time>2023-06-28T07:18:03Z</time>
      </trkpt>
      <trkpt lat="49.95193" lon="2.14677">
        <ele>15.5</ele>
        <time>2023-06-28T07:18:04Z</time>
      </trkpt>
      <trkpt lat="49.95194" lon="2.14678">
        <ele>15.5</ele>
        <time>2023-06-28T07:18:05Z</time>
      </trkpt>
      <trkpt lat="49.95196" lon="2.14679">
        <ele>15.5</ele>
        <time>2023-06-28T07:18:06Z</time>
      </trkpt>
      <trkpt lat="49.95197" lon="2.1468">
        <ele>15.5</ele>
        <time>2023-06-28T07:18:07Z</time>
      </trkpt>
      <trkpt lat="49.95199" lon="2.14681">
        <ele>15.5</ele>
        <time>2023-06-28T07:18:08Z</time>
      </trkpt>
      <trkpt lat="49.952" lon="2.14682">
        <ele>15.5</ele>
        <time>2023-06-28T07:18:09Z</time>
      </trkpt>
      <trkpt lat="49.952" lon="2.14682">
        <ele>15.5</ele>
        <time>2023-06-28T07:18:10Z</time>
      </trkpt>
      <trkpt lat="49.95202" lon="2.14683">
        <ele>15.5</ele>
        <time>2023-06-28T07:18:11Z</time>
      </trkpt>
      <trkpt lat="49.95202" lon="2.14684">
        <ele>15.5</ele>
        <time>2023-06-28T07:18:12Z</time>
      </trkpt>
      <trkpt lat="49.95203" lon="2.14685">
        <ele>15.5</ele>
        <time>2023-06-28T07:18:13Z</time>
      </trkpt>
      <trkpt lat="49.95204" lon="2.14686">
        <ele>15.5</ele>
        <time>2023-06-28T07:18:14Z</time>
      </trkpt>
      <trkpt lat="49.95205" lon="2.14686">
        <ele>15.5</ele>
        <time>2023-06-28T07:18:15Z</time>
      </trkpt>
      <trkpt lat="49.95206" lon="2.14687">
        <ele>15.5</ele>
        <time>2023-06-28T07:18:16Z</time>
      </trkpt>
      <trkpt lat="49.95207" lon="2.14687">
        <ele>15.6</ele>
        <time>2023-06-28T07:18:17Z</time>
      </trkpt>
      <trkpt lat="49.95208" lon="2.14688">
        <ele>15.6</ele>
        <time>2023-06-28T07:18:18Z</time>
      </trkpt>
      <trkpt lat="49.95209" lon="2.14689">
        <ele>15.6</ele>
        <time>2023-06-28T07:18:19Z</time>
      </trkpt>
      <trkpt lat="49.9521" lon="2.14689">
        <ele>15.6</ele>
        <time>2023-06-28T07:18:20Z</time>
      </trkpt>
      <trkpt lat="49.95211" lon="2.1469">
        <ele>15.6</ele>
        <time>2023-06-28T07:18:21Z</time>
      </trkpt>
      <trkpt lat="49.95212" lon="2.14691">
        <ele>15.6</ele>
        <time>2023-06-28T07:18:22Z</time>
      </trkpt>
      <trkpt lat="49.95213" lon="2.14691">
        <ele>15.6</ele>
        <time>2023-06-28T07:18:23Z</time>
      </trkpt>
      <trkpt lat="49.95214" lon="2.14692">
        <ele>15.6</ele>
        <time>2023-06-28T07:18:24Z</time>
      </trkpt>
      <trkpt lat="49.95214" lon="2.14692">
        <ele>15.6</ele>
        <time>2023-06-28T07:18:25Z</time>
      </trkpt>
      <trkpt lat="49.95215" lon="2.14693">
        <ele>15.7</ele>
        <time>2023-06-28T07:18:26Z</time>
      </trkpt>
      <trkpt lat="49.95216" lon="2.14693">
        <ele>15.7</ele>
        <time>2023-06-28T07:18:27Z</time>
      </trkpt>
      <trkpt lat="49.95217" lon="2.14694">
        <ele>15.7</ele>
        <time>2023-06-28T07:18:28Z</time>
      </trkpt>
      <trkpt lat="49.95218" lon="2.14695">
        <ele>15.7</ele>
        <time>2023-06-28T07:18:29Z</time>
      </trkpt>
      <trkpt lat="49.95219" lon="2.14695">
        <ele>15.7</ele>
        <time>2023-06-28T07:18:30Z</time>
      </trkpt>
      <trkpt lat="49.9522" lon="2.14696">
        <ele>15.7</ele>
        <time>2023-06-28T07:18:31Z</time>
      </trkpt>
      <trkpt lat="49.95221" lon="2.14696">
        <ele>15.8</ele>
        <time>2023-06-28T07:18:32Z</time>
      </trkpt>
      <trkpt lat="49.95222" lon="2.14697">
        <ele>15.8</ele>
        <time>2023-06-28T07:18:33Z</time>
      </trkpt>
      <trkpt lat="49.95223" lon="2.14697">
        <ele>15.8</ele>
        <time>2023-06-28T07:18:34Z</time>
      </trkpt>
      <trkpt lat="49.95223" lon="2.14698">
        <ele>15.8</ele>
        <time>2023-06-28T07:18:35Z</time>
      </trkpt>
      <trkpt lat="49.95224" lon="2.14699">
        <ele>15.8</ele>
        <time>2023-06-28T07:18:36Z</time>
      </trkpt>
      <trkpt lat="49.95225" lon="2.14699">
        <ele>15.8</ele>
        <time>2023-06-28T07:18:37Z</time>
      </trkpt>
      <trkpt lat="49.95226" lon="2.147">
        <ele>15.8</ele>
        <time>2023-06-28T07:18:38Z</time>
      </trkpt>
      <trkpt lat="49.95227" lon="2.14701">
        <ele>15.9</ele>
        <time>2023-06-28T07:18:39Z</time>
      </trkpt>
      <trkpt lat="49.95228" lon="2.14702">
        <ele>15.9</ele>
        <time>2023-06-28T07:18:40Z</time>
      </trkpt>
      <trkpt lat="49.95229" lon="2.14703">
        <ele>15.9</ele>
        <time>2023-06-28T07:18:41Z</time>
      </trkpt>
      <trkpt lat="49.9523" lon="2.14704">
        <ele>15.9</ele>
        <time>2023-06-28T07:18:42Z</time>
      </trkpt>
      <trkpt lat="49.95231" lon="2.14705">
        <ele>15.9</ele>
        <time>2023-06-28T07:18:43Z</time>
      </trkpt>
      <trkpt lat="49.95232" lon="2.14706">
        <ele>15.9</ele>
        <time>2023-06-28T07:18:44Z</time>
      </trkpt>
      <trkpt lat="49.95233" lon="2.14707">
        <ele>15.9</ele>
        <time>2023-06-28T07:18:45Z</time>
      </trkpt>
      <trkpt lat="49.95234" lon="2.14708">
        <ele>16</ele>
        <time>2023-06-28T07:18:46Z</time>
      </trkpt>
      <trkpt lat="49.95235" lon="2.1471">
        <ele>16</ele>
        <time>2023-06-28T07:18:47Z</time>
      </trkpt>
      <trkpt lat="49.95236" lon="2.14711">
        <ele>16</ele>
        <time>2023-06-28T07:18:48Z</time>
      </trkpt>
      <trkpt lat="49.95236" lon="2.14712">
        <ele>16</ele>
        <time>2023-06-28T07:18:49Z</time>
      </trkpt>
      <trkpt lat="49.95237" lon="2.14713">
        <ele>16</ele>
        <time>2023-06-28T07:18:50Z</time>
      </trkpt>
      <trkpt lat="49.95238" lon="2.14715">
        <ele>16</ele>
        <time>2023-06-28T07:18:51Z</time>
      </trkpt>
      <trkpt lat="49.95239" lon="2.14716">
        <ele>16</ele>
        <time>2023-06-28T07:18:52Z</time>
      </trkpt>
      <trkpt lat="49.9524" lon="2.14718">
        <ele>16.1</ele>
        <time>2023-06-28T07:18:53Z</time>
      </trkpt>
      <trkpt lat="49.95241" lon="2.14719">
        <ele>16.1</ele>
        <time>2023-06-28T07:18:54Z</time>
      </trkpt>
      <trkpt lat="49.95241" lon="2.1472">
        <ele>16.1</ele>
        <time>2023-06-28T07:18:55Z</time>
      </trkpt>
      <trkpt lat="49.95243" lon="2.14722">
        <ele>16.1</ele>
        <time>2023-06-28T07:18:56Z</time>
      </trkpt>
      <trkpt lat="49.95244" lon="2.14722">
        <ele>16.1</ele>
        <time>2023-06-28T07:18:57Z</time>
      </trkpt>
      <trkpt lat="49.95245" lon="2.14723">
        <ele>16.1</ele>
        <time>2023-06-28T07:18:58Z</time>
      </trkpt>
      <trkpt lat="49.95246" lon="2.14724">
        <ele>16.1</ele>
        <time>2023-06-28T07:18:59Z</time>
      </trkpt>
      <trkpt lat="49.95247" lon="2.14724">
        <ele>16.2</ele>
        <time>2023-06-28T07:19:00Z</time>
      </trkpt>
      <trkpt lat="49.95249" lon="2.14725">
        <ele>16.2</ele>
        <time>2023-06-28T07:19:01Z</time>
      </trkpt>
      <trkpt lat="49.9525" lon="2.14726">
        <ele>16.2</ele>
        <time>2023-06-28T07:19:02Z</time>
      </trkpt>
      <trkpt lat="49.95251" lon="2.14727">
        <ele>16.2</ele>
        <time>2023-06-28T07:19:03Z</time>
      </trkpt>
      <trkpt lat="49.95252" lon="2.14727">
        <ele>16.2</ele>
        <time>2023-06-28T07:19:04Z</time>
      </trkpt>
      <trkpt lat="49.95253" lon="2.14728">
        <ele>16.2</ele>
        <time>2023-06-28T07:19:05Z</time>
      </trkpt>
      <trkpt lat="49.95254" lon="2.14729">
        <ele>16.3</ele>
        <time>2023-06-28T07:19:06Z</time>
      </trkpt>
      <trkpt lat="49.95255" lon="2.14729">
        <ele>16.3</ele>
        <time>2023-06-28T07:19:07Z</time>
      </trkpt>
      <trkpt lat="49.95256" lon="2.1473">
        <ele>16.3</ele>
        <time>2023-06-28T07:19:08Z</time>
      </trkpt>
      <trkpt lat="49.95257" lon="2.1473">
        <ele>16.3</ele>
        <time>2023-06-28T07:19:09Z</time>
      </trkpt>
      <trkpt lat="49.95258" lon="2.14731">
        <ele>16.3</ele>
        <time>2023-06-28T07:19:10Z</time>
      </trkpt>
      <trkpt lat="49.95259" lon="2.14731">
        <ele>16.3</ele>
        <time>2023-06-28T07:19:11Z</time>
      </trkpt>
      <trkpt lat="49.95259" lon="2.14732">
        <ele>16.4</ele>
        <time>2023-06-28T07:19:12Z</time>
      </trkpt>
      <trkpt lat="49.9526" lon="2.14733">
        <ele>16.4</ele>
        <time>2023-06-28T07:19:13Z</time>
      </trkpt>
      <trkpt lat="49.95261" lon="2.14733">
        <ele>16.4</ele>
        <time>2023-06-28T07:19:14Z</time>
      </trkpt>
      <trkpt lat="49.95262" lon="2.14734">
        <ele>16.4</ele>
        <time>2023-06-28T07:19:15Z</time>
      </trkpt>
      <trkpt lat="49.95263" lon="2.14735">
        <ele>16.4</ele>
        <time>2023-06-28T07:19:16Z</time>
      </trkpt>
      <trkpt lat="49.95264" lon="2.14736">
        <ele>16.4</ele>
        <time>2023-06-28T07:19:17Z</time>
      </trkpt>
      <trkpt lat="49.95264" lon="2.14736">
        <ele>16.4</ele>
        <time>2023-06-28T07:19:18Z</time>
      </trkpt>
      <trkpt lat="49.95265" lon="2.14737">
        <ele>16.4</ele>
        <time>2023-06-28T07:19:19Z</time>
      </trkpt>
      <trkpt lat="49.95266" lon="2.14738">
        <ele>16.5</ele>
        <time>2023-06-28T07:19:20Z</time>
      </trkpt>
      <trkpt lat="49.95266" lon="2.14739">
        <ele>16.5</ele>
        <time>2023-06-28T07:19:21Z</time>
      </trkpt>
      <trkpt lat="49.95267" lon="2.1474">
        <ele>16.5</ele>
        <time>2023-06-28T07:19:22Z</time>
      </trkpt>
      <trkpt lat="49.95268" lon="2.14741">
        <ele>16.5</ele>
        <time>2023-06-28T07:19:23Z</time>
      </trkpt>
      <trkpt lat="49.95269" lon="2.14742">
        <ele>16.5</ele>
        <time>2023-06-28T07:19:24Z</time>
      </trkpt>
      <trkpt lat="49.95269" lon="2.14743">
        <ele>16.5</ele>
        <time>2023-06-28T07:19:25Z</time>
      </trkpt>
      <trkpt lat="49.95271" lon="2.14746">
        <ele>16.6</ele>
        <time>2023-06-28T07:19:26Z</time>
      </trkpt>
      <trkpt lat="49.95271" lon="2.14747">
        <ele>16.6</ele>
        <time>2023-06-28T07:19:27Z</time>
      </trkpt>
      <trkpt lat="49.95272" lon="2.14748">
        <ele>16.6</ele>
        <time>2023-06-28T07:19:28Z</time>
      </trkpt>
      <trkpt lat="49.95273" lon="2.14749">
        <ele>16.6</ele>
        <time>2023-06-28T07:19:29Z</time>
      </trkpt>
      <trkpt lat="49.95273" lon="2.14751">
        <ele>16.6</ele>
        <time>2023-06-28T07:19:30Z</time>
      </trkpt>
      <trkpt lat="49.95274" lon="2.14752">
        <ele>16.7</ele>
        <time>2023-06-28T07:19:31Z</time>
      </trkpt>
      <trkpt lat="49.95275" lon="2.14753">
        <ele>16.7</ele>
        <time>2023-06-28T07:19:32Z</time>
      </trkpt>
      <trkpt lat="49.95276" lon="2.14754">
        <ele>16.7</ele>
        <time>2023-06-28T07:19:33Z</time>
      </trkpt>
      <trkpt lat="49.95277" lon="2.14755">
        <ele>16.7</ele>
        <time>2023-06-28T07:19:34Z</time>
      </trkpt>
      <trkpt lat="49.95278" lon="2.14755">
        <ele>16.7</ele>
        <time>2023-06-28T07:19:35Z</time>
      </trkpt>
      <trkpt lat="49.9528" lon="2.14755">
        <ele>16.7</ele>
        <time>2023-06-28T07:19:36Z</time>
      </trkpt>
      <trkpt lat="49.95281" lon="2.14754">
        <ele>16.8</ele>
        <time>2023-06-28T07:19:37Z</time>
      </trkpt>
      <trkpt lat="49.95282" lon="2.14754">
        <ele>16.9</ele>
        <time>2023-06-28T07:19:38Z</time>
      </trkpt>
      <trkpt lat="49.95283" lon="2.14753">
        <ele>16.9</ele>
        <time>2023-06-28T07:19:39Z</time>
      </trkpt>
      <trkpt lat="49.95284" lon="2.14752">
        <ele>16.9</ele>
        <time>2023-06-28T07:19:40Z</time>
      </trkpt>
      <trkpt lat="49.95285" lon="2.1475">
        <ele>16.9</ele>
        <time>2023-06-28T07:19:41Z</time>
      </trkpt>
      <trkpt lat="49.95286" lon="2.14748">
        <ele>16.9</ele>
        <time>2023-06-28T07:19:42Z</time>
      </trkpt>
      <trkpt lat="49.95287" lon="2.14747">
        <ele>16.9</ele>
        <time>2023-06-28T07:19:43Z</time>
      </trkpt>
      <trkpt lat="49.95288" lon="2.14745">
        <ele>17</ele>
        <time>2023-06-28T07:19:44Z</time>
      </trkpt>
      <trkpt lat="49.95289" lon="2.14743">
        <ele>17</ele>
        <time>2023-06-28T07:19:45Z</time>
      </trkpt>
      <trkpt lat="49.9529" lon="2.14742">
        <ele>17</ele>
        <time>2023-06-28T07:19:46Z</time>
      </trkpt>
      <trkpt lat="49.95291" lon="2.14739">
        <ele>17</ele>
        <time>2023-06-28T07:19:47Z</time>
      </trkpt>
      <trkpt lat="49.95292" lon="2.14738">
        <ele>17</ele>
        <time>2023-06-28T07:19:48Z</time>
      </trkpt>
      <trkpt lat="49.95292" lon="2.14737">
        <ele>17</ele>
        <time>2023-06-28T07:19:49Z</time>
      </trkpt>
      <trkpt lat="49.95293" lon="2.14734">
        <ele>17</ele>
        <time>2023-06-28T07:19:50Z</time>
      </trkpt>
      <trkpt lat="49.95294" lon="2.14733">
        <ele>17</ele>
        <time>2023-06-28T07:19:51Z</time>
      </trkpt>
      <trkpt lat="49.95294" lon="2.14732">
        <ele>17</ele>
        <time>2023-06-28T07:19:52Z</time>
      </trkpt>
      <trkpt lat="49.95295" lon="2.14729">
        <ele>17</ele>
        <time>2023-06-28T07:19:53Z</time>
      </trkpt>
      <trkpt lat="49.95296" lon="2.14728">
        <ele>17</ele>
        <time>2023-06-28T07:19:54Z</time>
      </trkpt>
      <trkpt lat="49.95296" lon="2.14727">
        <ele>17</ele>
        <time>2023-06-28T07:19:55Z</time>
      </trkpt>
      <trkpt lat="49.95297" lon="2.14724">
        <ele>17</ele>
        <time>2023-06-28T07:19:56Z</time>
      </trkpt>
      <trkpt lat="49.95298" lon="2.14723">
        <ele>17</ele>
        <time>2023-06-28T07:19:57Z</time>
      </trkpt>
      <trkpt lat="49.95298" lon="2.14722">
        <ele>17</ele>
        <time>2023-06-28T07:19:58Z</time>
      </trkpt>
      <trkpt lat="49.95299" lon="2.1472">
        <ele>17</ele>
        <time>2023-06-28T07:19:59Z</time>
      </trkpt>
      <trkpt lat="49.95299" lon="2.14719">
        <ele>17</ele>
        <time>2023-06-28T07:20:00Z</time>
      </trkpt>
      <trkpt lat="49.953" lon="2.14717">
        <ele>17</ele>
        <time>2023-06-28T07:20:01Z</time>
      </trkpt>
      <trkpt lat="49.953" lon="2.14716">
        <ele>17</ele>
        <time>2023-06-28T07:20:02Z</time>
      </trkpt>
      <trkpt lat="49.95301" lon="2.14714">
        <ele>17</ele>
        <time>2023-06-28T07:20:03Z</time>
      </trkpt>
      <trkpt lat="49.95301" lon="2.14713">
        <ele>17</ele>
        <time>2023-06-28T07:20:04Z</time>
      </trkpt>
      <trkpt lat="49.95302" lon="2.14711">
        <ele>17</ele>
        <time>2023-06-28T07:20:05Z</time>
      </trkpt>
      <trkpt lat="49.95302" lon="2.14709">
        <ele>17</ele>
        <time>2023-06-28T07:20:06Z</time>
      </trkpt>
      <trkpt lat="49.95303" lon="2.14708">
        <ele>17</ele>
        <time>2023-06-28T07:20:07Z</time>
      </trkpt>
      <trkpt lat="49.95303" lon="2.14707">
        <ele>17</ele>
        <time>2023-06-28T07:20:08Z</time>
      </trkpt>
      <trkpt lat="49.95304" lon="2.14705">
        <ele>16.9</ele>
        <time>2023-06-28T07:20:09Z</time>
      </trkpt>
      <trkpt lat="49.95304" lon="2.14704">
        <ele>16.9</ele>
        <time>2023-06-28T07:20:10Z</time>
      </trkpt>
      <trkpt lat="49.95305" lon="2.14703">
        <ele>16.9</ele>
        <time>2023-06-28T07:20:11Z</time>
      </trkpt>
      <trkpt lat="49.95305" lon="2.14701">
        <ele>16.9</ele>
        <time>2023-06-28T07:20:12Z</time>
      </trkpt>
      <trkpt lat="49.95306" lon="2.147">
        <ele>16.9</ele>
        <time>2023-06-28T07:20:13Z</time>
      </trkpt>
      <trkpt lat="49.95307" lon="2.14697">
        <ele>16.9</ele>
        <time>2023-06-28T07:20:14Z</time>
      </trkpt>
      <trkpt lat="49.95308" lon="2.14696">
        <ele>16.9</ele>
        <time>2023-06-28T07:20:15Z</time>
      </trkpt>
      <trkpt lat="49.95308" lon="2.14695">
        <ele>16.9</ele>
        <time>2023-06-28T07:20:16Z</time>
      </trkpt>
      <trkpt lat="49.95308" lon="2.14693">
        <ele>16.9</ele>
        <time>2023-06-28T07:20:17Z</time>
      </trkpt>
      <trkpt lat="49.95309" lon="2.14692">
        <ele>16.9</ele>
        <time>2023-06-28T07:20:18Z</time>
      </trkpt>
      <trkpt lat="49.9531" lon="2.1469">
        <ele>16.9</ele>
        <time>2023-06-28T07:20:19Z</time>
      </trkpt>
      <trkpt lat="49.9531" lon="2.14689">
        <ele>16.9</ele>
        <time>2023-06-28T07:20:20Z</time>
      </trkpt>
      <trkpt lat="49.95311" lon="2.14688">
        <ele>16.9</ele>
        <time>2023-06-28T07:20:21Z</time>
      </trkpt>
      <trkpt lat="49.95312" lon="2.14686">
        <ele>16.9</ele>
        <time>2023-06-28T07:20:22Z</time>
      </trkpt>
      <trkpt lat="49.95313" lon="2.14683">
        <ele>16.8</ele>
        <time>2023-06-28T07:20:23Z</time>
      </trkpt>
      <trkpt lat="49.95313" lon="2.14682">
        <ele>16.8</ele>
        <time>2023-06-28T07:20:24Z</time>
      </trkpt>
      <trkpt lat="49.95314" lon="2.14681">
        <ele>16.8</ele>
        <time>2023-06-28T07:20:25Z</time>
      </trkpt>
      <trkpt lat="49.95315" lon="2.14679">
        <ele>16.8</ele>
        <time>2023-06-28T07:20:26Z</time>
      </trkpt>
      <trkpt lat="49.95316" lon="2.14678">
        <ele>16.8</ele>
        <time>2023-06-28T07:20:27Z</time>
      </trkpt>
      <trkpt lat="49.95316" lon="2.14677">
        <ele>16.8</ele>
        <time>2023-06-28T07:20:28Z</time>
      </trkpt>
      <trkpt lat="49.95318" lon="2.14674">
        <ele>16.7</ele>
        <time>2023-06-28T07:20:29Z</time>
      </trkpt>
      <trkpt lat="49.95318" lon="2.14673">
        <ele>16.7</ele>
        <time>2023-06-28T07:20:30Z</time>
      </trkpt>
      <trkpt lat="49.95319" lon="2.14672">
        <ele>16.7</ele>
        <time>2023-06-28T07:20:31Z</time>
      </trkpt>
      <trkpt lat="49.9532" lon="2.1467">
        <ele>16.7</ele>
        <time>2023-06-28T07:20:32Z</time>
      </trkpt>
      <trkpt lat="49.95321" lon="2.14669">
        <ele>16.6</ele>
        <time>2023-06-28T07:20:33Z</time>
      </trkpt>
      <trkpt lat="49.95321" lon="2.14667">
        <ele>16.6</ele>
        <time>2023-06-28T07:20:34Z</time>
      </trkpt>
      <trkpt lat="49.95322" lon="2.14665">
        <ele>16.6</ele>
        <time>2023-06-28T07:20:35Z</time>
      </trkpt>
      <trkpt lat="49.95323" lon="2.14664">
        <ele>16.5</ele>
        <time>2023-06-28T07:20:36Z</time>
      </trkpt>
      <trkpt lat="49.95325" lon="2.14662">
        <ele>16.5</ele>
        <time>2023-06-28T07:20:37Z</time>
      </trkpt>
      <trkpt lat="49.95325" lon="2.14661">
        <ele>16.5</ele>
        <time>2023-06-28T07:20:38Z</time>
      </trkpt>
      <trkpt lat="49.95326" lon="2.1466">
        <ele>16.4</ele>
        <time>2023-06-28T07:20:39Z</time>
      </trkpt>
      <trkpt lat="49.95326" lon="2.14658">
        <ele>16.4</ele>
        <time>2023-06-28T07:20:40Z</time>
      </trkpt>
      <trkpt lat="49.95326" lon="2.14656">
        <ele>16.3</ele>
        <time>2023-06-28T07:20:41Z</time>
      </trkpt>
      <trkpt lat="49.95326" lon="2.14655">
        <ele>16.3</ele>
        <time>2023-06-28T07:20:42Z</time>
      </trkpt>
      <trkpt lat="49.95326" lon="2.14654">
        <ele>16.3</ele>
        <time>2023-06-28T07:20:43Z</time>
      </trkpt>
      <trkpt lat="49.95325" lon="2.14652">
        <ele>16.2</ele>
        <time>2023-06-28T07:20:44Z</time>
      </trkpt>
      <trkpt lat="49.95325" lon="2.14651">
        <ele>16.2</ele>
        <time>2023-06-28T07:20:45Z</time>
      </trkpt>
      <trkpt lat="49.95324" lon="2.14649">
        <ele>16.1</ele>
        <time>2023-06-28T07:20:46Z</time>
      </trkpt>
      <trkpt lat="49.95323" lon="2.14648">
        <ele>16.1</ele>
        <time>2023-06-28T07:20:47Z</time>
      </trkpt>
      <trkpt lat="49.95323" lon="2.14646">
        <ele>16</ele>
        <time>2023-06-28T07:20:48Z</time>
      </trkpt>
      <trkpt lat="49.95322" lon="2.14645">
        <ele>16</ele>
        <time>2023-06-28T07:20:49Z</time>
      </trkpt>
      <trkpt lat="49.95321" lon="2.14642">
        <ele>15.9</ele>
        <time>2023-06-28T07:20:50Z</time>
      </trkpt>
      <trkpt lat="49.9532" lon="2.14641">
        <ele>15.8</ele>
        <time>2023-06-28T07:20:51Z</time>
      </trkpt>
      <trkpt lat="49.9532" lon="2.1464">
        <ele>15.8</ele>
        <time>2023-06-28T07:20:52Z</time>
      </trkpt>
      <trkpt lat="49.95318" lon="2.14638">
        <ele>15.7</ele>
        <time>2023-06-28T07:20:53Z</time>
      </trkpt>
      <trkpt lat="49.95318" lon="2.14637">
        <ele>15.7</ele>
        <time>2023-06-28T07:20:54Z</time>
      </trkpt>
      <trkpt lat="49.95317" lon="2.14635">
        <ele>15.6</ele>
        <time>2023-06-28T07:20:55Z</time>
      </trkpt>
      <trkpt lat="49.95316" lon="2.14634">
        <ele>15.5</ele>
        <time>2023-06-28T07:20:56Z</time>
      </trkpt>
      <trkpt lat="49.95315" lon="2.14632">
        <ele>15.5</ele>
        <time>2023-06-28T07:20:57Z</time>
      </trkpt>
      <trkpt lat="49.95314" lon="2.14629">
        <ele>15.4</ele>
        <time>2023-06-28T07:20:58Z</time>
      </trkpt>
      <trkpt lat="49.95313" lon="2.14628">
        <ele>15.3</ele>
        <time>2023-06-28T07:20:59Z</time>
      </trkpt>
      <trkpt lat="49.95313" lon="2.14627">
        <ele>15.3</ele>
        <time>2023-06-28T07:21:00Z</time>
      </trkpt>
      <trkpt lat="49.95312" lon="2.14626">
        <ele>15.2</ele>
        <time>2023-06-28T07:21:01Z</time>
      </trkpt>
      <trkpt lat="49.95311" lon="2.14624">
        <ele>15.1</ele>
        <time>2023-06-28T07:21:02Z</time>
      </trkpt>
      <trkpt lat="49.9531" lon="2.14622">
        <ele>15.1</ele>
        <time>2023-06-28T07:21:03Z</time>
      </trkpt>
      <trkpt lat="49.95309" lon="2.1462">
        <ele>15</ele>
        <time>2023-06-28T07:21:04Z</time>
      </trkpt>
      <trkpt lat="49.95308" lon="2.14619">
        <ele>14.9</ele>
        <time>2023-06-28T07:21:05Z</time>
      </trkpt>
      <trkpt lat="49.95307" lon="2.14617">
        <ele>14.9</ele>
        <time>2023-06-28T07:21:06Z</time>
      </trkpt>
      <trkpt lat="49.95306" lon="2.14615">
        <ele>14.8</ele>
        <time>2023-06-28T07:21:07Z</time>
      </trkpt>
      <trkpt lat="49.95305" lon="2.14614">
        <ele>14.7</ele>
        <time>2023-06-28T07:21:08Z</time>
      </trkpt>
      <trkpt lat="49.95304" lon="2.14613">
        <ele>14.7</ele>
        <time>2023-06-28T07:21:09Z</time>
      </trkpt>
      <trkpt lat="49.95304" lon="2.14611">
        <ele>14.6</ele>
        <time>2023-06-28T07:21:10Z</time>
      </trkpt>
      <trkpt lat="49.95303" lon="2.1461">
        <ele>14.6</ele>
        <time>2023-06-28T07:21:11Z</time>
      </trkpt>
      <trkpt lat="49.95302" lon="2.14609">
        <ele>14.5</ele>
        <time>2023-06-28T07:21:12Z</time>
      </trkpt>
      <trkpt lat="49.95301" lon="2.14607">
        <ele>14.4</ele>
        <time>2023-06-28T07:21:13Z</time>
      </trkpt>
      <trkpt lat="49.95301" lon="2.14606">
        <ele>14.4</ele>
        <time>2023-06-28T07:21:14Z</time>
      </trkpt>
      <trkpt lat="49.953" lon="2.14605">
        <ele>14.3</ele>
        <time>2023-06-28T07:21:15Z</time>
      </trkpt>
      <trkpt lat="49.95299" lon="2.14604">
        <ele>14.3</ele>
        <time>2023-06-28T07:21:16Z</time>
      </trkpt>
      <trkpt lat="49.95298" lon="2.14603">
        <ele>14.2</ele>
        <time>2023-06-28T07:21:17Z</time>
      </trkpt>
      <trkpt lat="49.95297" lon="2.14601">
        <ele>14.2</ele>
        <time>2023-06-28T07:21:18Z</time>
      </trkpt>
      <trkpt lat="49.95296" lon="2.146">
        <ele>14.1</ele>
        <time>2023-06-28T07:21:19Z</time>
      </trkpt>
      <trkpt lat="49.95295" lon="2.14599">
        <ele>14.1</ele>
        <time>2023-06-28T07:21:20Z</time>
      </trkpt>
      <trkpt lat="49.95295" lon="2.14598">
        <ele>14</ele>
        <time>2023-06-28T07:21:21Z</time>
      </trkpt>
      <trkpt lat="49.95294" lon="2.14597">
        <ele>14</ele>
        <time>2023-06-28T07:21:22Z</time>
      </trkpt>
      <trkpt lat="49.95293" lon="2.14595">
        <ele>13.9</ele>
        <time>2023-06-28T07:21:23Z</time>
      </trkpt>
      <trkpt lat="49.95293" lon="2.14594">
        <ele>13.9</ele>
        <time>2023-06-28T07:21:24Z</time>
      </trkpt>
      <trkpt lat="49.95293" lon="2.14592">
        <ele>13.9</ele>
        <time>2023-06-28T07:21:25Z</time>
      </trkpt>
      <trkpt lat="49.95293" lon="2.1459">
        <ele>13.8</ele>
        <time>2023-06-28T07:21:26Z</time>
      </trkpt>
      <trkpt lat="49.95293" lon="2.14587">
        <ele>13.8</ele>
        <time>2023-06-28T07:21:27Z</time>
      </trkpt>
      <trkpt lat="49.95293" lon="2.14586">
        <ele>13.7</ele>
        <time>2023-06-28T07:21:28Z</time>
      </trkpt>
      <trkpt lat="49.95294" lon="2.14585">
        <ele>13.7</ele>
        <time>2023-06-28T07:21:29Z</time>
      </trkpt>
      <trkpt lat="49.95294" lon="2.14583">
        <ele>13.7</ele>
        <time>2023-06-28T07:21:30Z</time>
      </trkpt>
      <trkpt lat="49.95295" lon="2.14582">
        <ele>13.7</ele>
        <time>2023-06-28T07:21:31Z</time>
      </trkpt>
      <trkpt lat="49.95295" lon="2.1458">
        <ele>13.6</ele>
        <time>2023-06-28T07:21:32Z</time>
      </trkpt>
      <trkpt lat="49.95296" lon="2.14578">
        <ele>13.6</ele>
        <time>2023-06-28T07:21:33Z</time>
      </trkpt>
      <trkpt lat="49.95297" lon="2.14577">
        <ele>13.6</ele>
        <time>2023-06-28T07:21:34Z</time>
      </trkpt>
      <trkpt lat="49.95297" lon="2.14576">
        <ele>13.6</ele>
        <time>2023-06-28T07:21:35Z</time>
      </trkpt>
      <trkpt lat="49.95299" lon="2.14573">
        <ele>13.5</ele>
        <time>2023-06-28T07:21:36Z</time>
      </trkpt>
      <trkpt lat="49.95299" lon="2.14572">
        <ele>13.5</ele>
        <time>2023-06-28T07:21:37Z</time>
      </trkpt>
      <trkpt lat="49.953" lon="2.14571">
        <ele>13.5</ele>
        <time>2023-06-28T07:21:38Z</time>
      </trkpt>
      <trkpt lat="49.95301" lon="2.14569">
        <ele>13.5</ele>
        <time>2023-06-28T07:21:39Z</time>
      </trkpt>
      <trkpt lat="49.95303" lon="2.14568">
        <ele>13.5</ele>
        <time>2023-06-28T07:21:40Z</time>
      </trkpt>
      <trkpt lat="49.95304" lon="2.14567">
        <ele>13.5</ele>
        <time>2023-06-28T07:21:41Z</time>
      </trkpt>
      <trkpt lat="49.95305" lon="2.14566">
        <ele>13.5</ele>
        <time>2023-06-28T07:21:42Z</time>
      </trkpt>
      <trkpt lat="49.95305" lon="2.14564">
        <ele>13.5</ele>
        <time>2023-06-28T07:21:43Z</time>
      </trkpt>
      <trkpt lat="49.95306" lon="2.14563">
        <ele>13.4</ele>
        <time>2023-06-28T07:21:44Z</time>
      </trkpt>
      <trkpt lat="49.95307" lon="2.14561">
        <ele>13.4</ele>
        <time>2023-06-28T07:21:45Z</time>
      </trkpt>
      <trkpt lat="49.95308" lon="2.14558">
        <ele>13.4</ele>
        <time>2023-06-28T07:21:46Z</time>
      </trkpt>
      <trkpt lat="49.95308" lon="2.14557">
        <ele>13.4</ele>
        <time>2023-06-28T07:21:47Z</time>
      </trkpt>
      <trkpt lat="49.95309" lon="2.14555">
        <ele>13.4</ele>
        <time>2023-06-28T07:21:48Z</time>
      </trkpt>
      <trkpt lat="49.9531" lon="2.14554">
        <ele>13.4</ele>
        <time>2023-06-28T07:21:49Z</time>
      </trkpt>
      <trkpt lat="49.9531" lon="2.14552">
        <ele>13.4</ele>
        <time>2023-06-28T07:21:50Z</time>
      </trkpt>
      <trkpt lat="49.95312" lon="2.14549">
        <ele>13.4</ele>
        <time>2023-06-28T07:21:51Z</time>
      </trkpt>
      <trkpt lat="49.95312" lon="2.14548">
        <ele>13.4</ele>
        <time>2023-06-28T07:21:52Z</time>
      </trkpt>
      <trkpt lat="49.95313" lon="2.14547">
        <ele>13.4</ele>
        <time>2023-06-28T07:21:53Z</time>
      </trkpt>
      <trkpt lat="49.95313" lon="2.14546">
        <ele>13.4</ele>
        <time>2023-06-28T07:21:54Z</time>
      </trkpt>
      <trkpt lat="49.95314" lon="2.14545">
        <ele>13.4</ele>
        <time>2023-06-28T07:21:55Z</time>
      </trkpt>
      <trkpt lat="49.95315" lon="2.14544">
        <ele>13.4</ele>
        <time>2023-06-28T07:21:56Z</time>
      </trkpt>
      <trkpt lat="49.95316" lon="2.14543">
        <ele>13.4</ele>
        <time>2023-06-28T07:21:57Z</time>
      </trkpt>
      <trkpt lat="49.95316" lon="2.14541">
        <ele>13.3</ele>
        <time>2023-06-28T07:21:58Z</time>
      </trkpt>
      <trkpt lat="49.95317" lon="2.14539">
        <ele>13.3</ele>
        <time>2023-06-28T07:21:59Z</time>
      </trkpt>
      <trkpt lat="49.95318" lon="2.14538">
        <ele>13.3</ele>
        <time>2023-06-28T07:22:00Z</time>
      </trkpt>
      <trkpt lat="49.95318" lon="2.14536">
        <ele>13.3</ele>
        <time>2023-06-28T07:22:01Z</time>
      </trkpt>
      <trkpt lat="49.95319" lon="2.14535">
        <ele>13.3</ele>
        <time>2023-06-28T07:22:02Z</time>
      </trkpt>
      <trkpt lat="49.9532" lon="2.14534">
        <ele>13.3</ele>
        <time>2023-06-28T07:22:03Z</time>
      </trkpt>
      <trkpt lat="49.9532" lon="2.14533">
        <ele>13.3</ele>
        <time>2023-06-28T07:22:04Z</time>
      </trkpt>
      <trkpt lat="49.95321" lon="2.14531">
        <ele>13.3</ele>
        <time>2023-06-28T07:22:05Z</time>
      </trkpt>
      <trkpt lat="49.95321" lon="2.1453">
        <ele>13.3</ele>
        <time>2023-06-28T07:22:06Z</time>
      </trkpt>
      <trkpt lat="49.95322" lon="2.14529">
        <ele>13.3</ele>
        <time>2023-06-28T07:22:07Z</time>
      </trkpt>
      <trkpt lat="49.95323" lon="2.14527">
        <ele>13.3</ele>
        <time>2023-06-28T07:22:08Z</time>
      </trkpt>
      <trkpt lat="49.95324" lon="2.14525">
        <ele>13.3</ele>
        <time>2023-06-28T07:22:09Z</time>
      </trkpt>
      <trkpt lat="49.95325" lon="2.14524">
        <ele>13.3</ele>
        <time>2023-06-28T07:22:10Z</time>
      </trkpt>
      <trkpt lat="49.95325" lon="2.14523">
        <ele>13.3</ele>
        <time>2023-06-28T07:22:11Z</time>
      </trkpt>
      <trkpt lat="49.95326" lon="2.14522">
        <ele>13.4</ele>
        <time>2023-06-28T07:22:12Z</time>
      </trkpt>
      <trkpt lat="49.95327" lon="2.14521">
        <ele>13.4</ele>
        <time>2023-06-28T07:22:13Z</time>
      </trkpt>
      <trkpt lat="49.95327" lon="2.14519">
        <ele>13.4</ele>
        <time>2023-06-28T07:22:14Z</time>
      </trkpt>
      <trkpt lat="49.95328" lon="2.14518">
        <ele>13.4</ele>
        <time>2023-06-28T07:22:15Z</time>
      </trkpt>
      <trkpt lat="49.95329" lon="2.14517">
        <ele>13.4</ele>
        <time>2023-06-28T07:22:16Z</time>
      </trkpt>
      <trkpt lat="49.95329" lon="2.14515">
        <ele>13.4</ele>
        <time>2023-06-28T07:22:17Z</time>
      </trkpt>
      <trkpt lat="49.9533" lon="2.14514">
        <ele>13.4</ele>
        <time>2023-06-28T07:22:18Z</time>
      </trkpt>
      <trkpt lat="49.95331" lon="2.14513">
        <ele>13.4</ele>
        <time>2023-06-28T07:22:19Z</time>
      </trkpt>
      <trkpt lat="49.95332" lon="2.14511">
        <ele>13.5</ele>
        <time>2023-06-28T07:22:20Z</time>
      </trkpt>
      <trkpt lat="49.95333" lon="2.14509">
        <ele>13.5</ele>
        <time>2023-06-28T07:22:21Z</time>
      </trkpt>
      <trkpt lat="49.95334" lon="2.14509">
        <ele>13.5</ele>
        <time>2023-06-28T07:22:22Z</time>
      </trkpt>
      <trkpt lat="49.95335" lon="2.14508">
        <ele>13.5</ele>
        <time>2023-06-28T07:22:23Z</time>
      </trkpt>
      <trkpt lat="49.95335" lon="2.14507">
        <ele>13.6</ele>
        <time>2023-06-28T07:22:24Z</time>
      </trkpt>
      <trkpt lat="49.95337" lon="2.14506">
        <ele>13.6</ele>
        <time>2023-06-28T07:22:25Z</time>
      </trkpt>
      <trkpt lat="49.95338" lon="2.14505">
        <ele>13.6</ele>
        <time>2023-06-28T07:22:26Z</time>
      </trkpt>
      <trkpt lat="49.9534" lon="2.14504">
        <ele>13.7</ele>
        <time>2023-06-28T07:22:27Z</time>
      </trkpt>
      <trkpt lat="49.9534" lon="2.14504">
        <ele>13.7</ele>
        <time>2023-06-28T07:22:28Z</time>
      </trkpt>
      <trkpt lat="49.95341" lon="2.14503">
        <ele>13.7</ele>
        <time>2023-06-28T07:22:29Z</time>
      </trkpt>
      <trkpt lat="49.95343" lon="2.14503">
        <ele>13.8</ele>
        <time>2023-06-28T07:22:30Z</time>
      </trkpt>
      <trkpt lat="49.95344" lon="2.14503">
        <ele>13.8</ele>
        <time>2023-06-28T07:22:31Z</time>
      </trkpt>
      <trkpt lat="49.95345" lon="2.14503">
        <ele>13.9</ele>
        <time>2023-06-28T07:22:32Z</time>
      </trkpt>
      <trkpt lat="49.95347" lon="2.14504">
        <ele>13.9</ele>
        <time>2023-06-28T07:22:33Z</time>
      </trkpt>
      <trkpt lat="49.95348" lon="2.14504">
        <ele>13.9</ele>
        <time>2023-06-28T07:22:34Z</time>
      </trkpt>
      <trkpt lat="49.95348" lon="2.14504">
        <ele>13.9</ele>
        <time>2023-06-28T07:22:35Z</time>
      </trkpt>
      <trkpt lat="49.9535" lon="2.14505">
        <ele>14</ele>
        <time>2023-06-28T07:22:36Z</time>
      </trkpt>
      <trkpt lat="49.95351" lon="2.14506">
        <ele>14</ele>
        <time>2023-06-28T07:22:37Z</time>
      </trkpt>
      <trkpt lat="49.95352" lon="2.14506">
        <ele>14</ele>
        <time>2023-06-28T07:22:38Z</time>
      </trkpt>
      <trkpt lat="49.95354" lon="2.14507">
        <ele>14</ele>
        <time>2023-06-28T07:22:39Z</time>
      </trkpt>
      <trkpt lat="49.95355" lon="2.14509">
        <ele>14.1</ele>
        <time>2023-06-28T07:22:40Z</time>
      </trkpt>
      <trkpt lat="49.95356" lon="2.1451">
        <ele>14.1</ele>
        <time>2023-06-28T07:22:41Z</time>
      </trkpt>
      <trkpt lat="49.95357" lon="2.1451">
        <ele>14.1</ele>
        <time>2023-06-28T07:22:42Z</time>
      </trkpt>
      <trkpt lat="49.95359" lon="2.14512">
        <ele>14.2</ele>
        <time>2023-06-28T07:22:43Z</time>
      </trkpt>
      <trkpt lat="49.9536" lon="2.14513">
        <ele>14.2</ele>
        <time>2023-06-28T07:22:44Z</time>
      </trkpt>
      <trkpt lat="49.95361" lon="2.14514">
        <ele>14.2</ele>
        <time>2023-06-28T07:22:45Z</time>
      </trkpt>
      <trkpt lat="49.95362" lon="2.14515">
        <ele>14.3</ele>
        <time>2023-06-28T07:22:46Z</time>
      </trkpt>
      <trkpt lat="49.95364" lon="2.14515">
        <ele>14.3</ele>
        <time>2023-06-28T07:22:47Z</time>
      </trkpt>
      <trkpt lat="49.95366" lon="2.14516">
        <ele>14.4</ele>
        <time>2023-06-28T07:22:48Z</time>
      </trkpt>
      <trkpt lat="49.95367" lon="2.14516">
        <ele>14.5</ele>
        <time>2023-06-28T07:22:49Z</time>
      </trkpt>
      <trkpt lat="49.95368" lon="2.14516">
        <ele>14.6</ele>
        <time>2023-06-28T07:22:50Z</time>
      </trkpt>
      <trkpt lat="49.9537" lon="2.14516">
        <ele>14.6</ele>
        <time>2023-06-28T07:22:51Z</time>
      </trkpt>
      <trkpt lat="49.95371" lon="2.14516">
        <ele>14.6</ele>
        <time>2023-06-28T07:22:52Z</time>
      </trkpt>
      <trkpt lat="49.95371" lon="2.14516">
        <ele>14.6</ele>
        <time>2023-06-28T07:22:53Z</time>
      </trkpt>
      <trkpt lat="49.95372" lon="2.14515">
        <ele>14.7</ele>
        <time>2023-06-28T07:22:54Z</time>
      </trkpt>
      <trkpt lat="49.95373" lon="2.14514">
        <ele>14.7</ele>
        <time>2023-06-28T07:22:55Z</time>
      </trkpt>
      <trkpt lat="49.95374" lon="2.14513">
        <ele>14.7</ele>
        <time>2023-06-28T07:22:56Z</time>
      </trkpt>
      <trkpt lat="49.95376" lon="2.14512">
        <ele>14.7</ele>
        <time>2023-06-28T07:22:57Z</time>
      </trkpt>
      <trkpt lat="49.95376" lon="2.1451">
        <ele>14.7</ele>
        <time>2023-06-28T07:22:58Z</time>
      </trkpt>
      <trkpt lat="49.95377" lon="2.14509">
        <ele>14.7</ele>
        <time>2023-06-28T07:22:59Z</time>
      </trkpt>
      <trkpt lat="49.95378" lon="2.14508">
        <ele>14.7</ele>
        <time>2023-06-28T07:23:00Z</time>
      </trkpt>
      <trkpt lat="49.95379" lon="2.14507">
        <ele>14.7</ele>
        <time>2023-06-28T07:23:01Z</time>
      </trkpt>
      <trkpt lat="49.95379" lon="2.14505">
        <ele>14.7</ele>
        <time>2023-06-28T07:23:02Z</time>
      </trkpt>
      <trkpt lat="49.9538" lon="2.14503">
        <ele>14.7</ele>
        <time>2023-06-28T07:23:03Z</time>
      </trkpt>
      <trkpt lat="49.95381" lon="2.14502">
        <ele>14.7</ele>
        <time>2023-06-28T07:23:04Z</time>
      </trkpt>
      <trkpt lat="49.95382" lon="2.14499">
        <ele>14.7</ele>
        <time>2023-06-28T07:23:05Z</time>
      </trkpt>
      <trkpt lat="49.95382" lon="2.14498">
        <ele>14.7</ele>
        <time>2023-06-28T07:23:06Z</time>
      </trkpt>
      <trkpt lat="49.95383" lon="2.14497">
        <ele>14.7</ele>
        <time>2023-06-28T07:23:07Z</time>
      </trkpt>
      <trkpt lat="49.95384" lon="2.14496">
        <ele>14.8</ele>
        <time>2023-06-28T07:23:08Z</time>
      </trkpt>
      <trkpt lat="49.95384" lon="2.14494">
        <ele>14.8</ele>
        <time>2023-06-28T07:23:09Z</time>
      </trkpt>
      <trkpt lat="49.95385" lon="2.14493">
        <ele>14.8</ele>
        <time>2023-06-28T07:23:10Z</time>
      </trkpt>
      <trkpt lat="49.95385" lon="2.14492">
        <ele>14.8</ele>
        <time>2023-06-28T07:23:11Z</time>
      </trkpt>
      <trkpt lat="49.95386" lon="2.1449">
        <ele>14.8</ele>
        <time>2023-06-28T07:23:12Z</time>
      </trkpt>
      <trkpt lat="49.95387" lon="2.14489">
        <ele>14.8</ele>
        <time>2023-06-28T07:23:13Z</time>
      </trkpt>
      <trkpt lat="49.95387" lon="2.14488">
        <ele>14.8</ele>
        <time>2023-06-28T07:23:14Z</time>
      </trkpt>
      <trkpt lat="49.95388" lon="2.14486">
        <ele>14.8</ele>
        <time>2023-06-28T07:23:15Z</time>
      </trkpt>
      <trkpt lat="49.95389" lon="2.14485">
        <ele>14.8</ele>
        <time>2023-06-28T07:23:16Z</time>
      </trkpt>
      <trkpt lat="49.9539" lon="2.14484">
        <ele>14.8</ele>
        <time>2023-06-28T07:23:17Z</time>
      </trkpt>
      <trkpt lat="49.9539" lon="2.14482">
        <ele>14.7</ele>
        <time>2023-06-28T07:23:18Z</time>
      </trkpt>
      <trkpt lat="49.95391" lon="2.14482">
        <ele>14.7</ele>
        <time>2023-06-28T07:23:19Z</time>
      </trkpt>
      <trkpt lat="49.95391" lon="2.1448">
        <ele>14.7</ele>
        <time>2023-06-28T07:23:20Z</time>
      </trkpt>
      <trkpt lat="49.95392" lon="2.14479">
        <ele>14.7</ele>
        <time>2023-06-28T07:23:21Z</time>
      </trkpt>
      <trkpt lat="49.95393" lon="2.14478">
        <ele>14.7</ele>
        <time>2023-06-28T07:23:22Z</time>
      </trkpt>
      <trkpt lat="49.95394" lon="2.14476">
        <ele>14.7</ele>
        <time>2023-06-28T07:23:23Z</time>
      </trkpt>
      <trkpt lat="49.95395" lon="2.14474">
        <ele>14.7</ele>
        <time>2023-06-28T07:23:24Z</time>
      </trkpt>
      <trkpt lat="49.95395" lon="2.14472">
        <ele>14.7</ele>
        <time>2023-06-28T07:23:25Z</time>
      </trkpt>
      <trkpt lat="49.95396" lon="2.14471">
        <ele>14.7</ele>
        <time>2023-06-28T07:23:26Z</time>
      </trkpt>
      <trkpt lat="49.95396" lon="2.1447">
        <ele>14.7</ele>
        <time>2023-06-28T07:23:27Z</time>
      </trkpt>
      <trkpt lat="49.95397" lon="2.14469">
        <ele>14.7</ele>
        <time>2023-06-28T07:23:28Z</time>
      </trkpt>
      <trkpt lat="49.95398" lon="2.14468">
        <ele>14.7</ele>
        <time>2023-06-28T07:23:29Z</time>
      </trkpt>
      <trkpt lat="49.95398" lon="2.14467">
        <ele>14.7</ele>
        <time>2023-06-28T07:23:30Z</time>
      </trkpt>
      <trkpt lat="49.95399" lon="2.14466">
        <ele>14.7</ele>
        <time>2023-06-28T07:23:31Z</time>
      </trkpt>
      <trkpt lat="49.954" lon="2.14465">
        <ele>14.7</ele>
        <time>2023-06-28T07:23:32Z</time>
      </trkpt>
      <trkpt lat="49.95401" lon="2.14464">
        <ele>14.7</ele>
        <time>2023-06-28T07:23:33Z</time>
      </trkpt>
      <trkpt lat="49.95402" lon="2.14463">
        <ele>14.7</ele>
        <time>2023-06-28T07:23:34Z</time>
      </trkpt>
      <trkpt lat="49.95402" lon="2.14463">
        <ele>14.7</ele>
        <time>2023-06-28T07:23:35Z</time>
      </trkpt>
      <trkpt lat="49.95403" lon="2.14462">
        <ele>14.6</ele>
        <time>2023-06-28T07:23:36Z</time>
      </trkpt>
      <trkpt lat="49.95404" lon="2.14461">
        <ele>14.6</ele>
        <time>2023-06-28T07:23:37Z</time>
      </trkpt>
      <trkpt lat="49.95405" lon="2.1446">
        <ele>14.6</ele>
        <time>2023-06-28T07:23:38Z</time>
      </trkpt>
      <trkpt lat="49.95405" lon="2.14459">
        <ele>14.6</ele>
        <time>2023-06-28T07:23:39Z</time>
      </trkpt>
      <trkpt lat="49.95406" lon="2.14458">
        <ele>14.6</ele>
        <time>2023-06-28T07:23:40Z</time>
      </trkpt>
      <trkpt lat="49.95407" lon="2.14457">
        <ele>14.6</ele>
        <time>2023-06-28T07:23:41Z</time>
      </trkpt>
      <trkpt lat="49.95408" lon="2.14455">
        <ele>14.6</ele>
        <time>2023-06-28T07:23:42Z</time>
      </trkpt>
      <trkpt lat="49.95409" lon="2.14454">
        <ele>14.6</ele>
        <time>2023-06-28T07:23:43Z</time>
      </trkpt>
      <trkpt lat="49.9541" lon="2.14453">
        <ele>14.6</ele>
        <time>2023-06-28T07:23:44Z</time>
      </trkpt>
      <trkpt lat="49.95411" lon="2.14453">
        <ele>14.6</ele>
        <time>2023-06-28T07:23:45Z</time>
      </trkpt>
      <trkpt lat="49.95412" lon="2.14452">
        <ele>14.6</ele>
        <time>2023-06-28T07:23:46Z</time>
      </trkpt>
      <trkpt lat="49.95412" lon="2.14451">
        <ele>14.6</ele>
        <time>2023-06-28T07:23:47Z</time>
      </trkpt>
      <trkpt lat="49.95413" lon="2.1445">
        <ele>14.6</ele>
        <time>2023-06-28T07:23:48Z</time>
      </trkpt>
      <trkpt lat="49.95414" lon="2.14448">
        <ele>14.6</ele>
        <time>2023-06-28T07:23:49Z</time>
      </trkpt>
      <trkpt lat="49.95415" lon="2.14446">
        <ele>14.6</ele>
        <time>2023-06-28T07:23:50Z</time>
      </trkpt>
      <trkpt lat="49.95416" lon="2.14445">
        <ele>14.6</ele>
        <time>2023-06-28T07:23:51Z</time>
      </trkpt>
      <trkpt lat="49.95416" lon="2.14444">
        <ele>14.6</ele>
        <time>2023-06-28T07:23:52Z</time>
      </trkpt>
      <trkpt lat="49.95417" lon="2.14442">
        <ele>14.6</ele>
        <time>2023-06-28T07:23:53Z</time>
      </trkpt>
      <trkpt lat="49.95418" lon="2.1444">
        <ele>14.6</ele>
        <time>2023-06-28T07:23:54Z</time>
      </trkpt>
      <trkpt lat="49.95419" lon="2.14438">
        <ele>14.6</ele>
        <time>2023-06-28T07:23:55Z</time>
      </trkpt>
      <trkpt lat="49.9542" lon="2.14437">
        <ele>14.6</ele>
        <time>2023-06-28T07:23:56Z</time>
      </trkpt>
      <trkpt lat="49.9542" lon="2.14436">
        <ele>14.6</ele>
        <time>2023-06-28T07:23:57Z</time>
      </trkpt>
      <trkpt lat="49.95421" lon="2.14434">
        <ele>14.6</ele>
        <time>2023-06-28T07:23:58Z</time>
      </trkpt>
      <trkpt lat="49.95421" lon="2.14433">
        <ele>14.6</ele>
        <time>2023-06-28T07:23:59Z</time>
      </trkpt>
      <trkpt lat="49.95422" lon="2.14431">
        <ele>14.6</ele>
        <time>2023-06-28T07:24:00Z</time>
      </trkpt>
      <trkpt lat="49.95422" lon="2.1443">
        <ele>14.6</ele>
        <time>2023-06-28T07:24:01Z</time>
      </trkpt>
      <trkpt lat="49.95423" lon="2.14429">
        <ele>14.6</ele>
        <time>2023-06-28T07:24:02Z</time>
      </trkpt>
      <trkpt lat="49.95424" lon="2.14427">
        <ele>14.6</ele>
        <time>2023-06-28T07:24:03Z</time>
      </trkpt>
      <trkpt lat="49.95424" lon="2.14426">
        <ele>14.6</ele>
        <time>2023-06-28T07:24:04Z</time>
      </trkpt>
      <trkpt lat="49.95425" lon="2.14424">
        <ele>14.6</ele>
        <time>2023-06-28T07:24:05Z</time>
      </trkpt>
      <trkpt lat="49.95426" lon="2.14423">
        <ele>14.6</ele>
        <time>2023-06-28T07:24:06Z</time>
      </trkpt>
      <trkpt lat="49.95426" lon="2.14422">
        <ele>14.6</ele>
        <time>2023-06-28T07:24:07Z</time>
      </trkpt>
      <trkpt lat="49.95427" lon="2.14421">
        <ele>14.6</ele>
        <time>2023-06-28T07:24:08Z</time>
      </trkpt>
      <trkpt lat="49.95428" lon="2.1442">
        <ele>14.5</ele>
        <time>2023-06-28T07:24:09Z</time>
      </trkpt>
      <trkpt lat="49.95429" lon="2.14419">
        <ele>14.5</ele>
        <time>2023-06-28T07:24:10Z</time>
      </trkpt>
      <trkpt lat="49.95429" lon="2.14418">
        <ele>14.5</ele>
        <time>2023-06-28T07:24:11Z</time>
      </trkpt>
      <trkpt lat="49.9543" lon="2.14417">
        <ele>14.5</ele>
        <time>2023-06-28T07:24:12Z</time>
      </trkpt>
      <trkpt lat="49.95431" lon="2.14415">
        <ele>14.5</ele>
        <time>2023-06-28T07:24:13Z</time>
      </trkpt>
      <trkpt lat="49.95432" lon="2.14414">
        <ele>14.5</ele>
        <time>2023-06-28T07:24:14Z</time>
      </trkpt>
      <trkpt lat="49.95433" lon="2.14413">
        <ele>14.5</ele>
        <time>2023-06-28T07:24:15Z</time>
      </trkpt>
      <trkpt lat="49.95433" lon="2.14412">
        <ele>14.5</ele>
        <time>2023-06-28T07:24:16Z</time>
      </trkpt>
      <trkpt lat="49.95434" lon="2.14411">
        <ele>14.4</ele>
        <time>2023-06-28T07:24:17Z</time>
      </trkpt>
      <trkpt lat="49.95435" lon="2.1441">
        <ele>14.4</ele>
        <time>2023-06-28T07:24:18Z</time>
      </trkpt>
      <trkpt lat="49.95436" lon="2.14409">
        <ele>14.4</ele>
        <time>2023-06-28T07:24:19Z</time>
      </trkpt>
      <trkpt lat="49.95437" lon="2.14408">
        <ele>14.4</ele>
        <time>2023-06-28T07:24:20Z</time>
      </trkpt>
      <trkpt lat="49.95438" lon="2.14407">
        <ele>14.4</ele>
        <time>2023-06-28T07:24:21Z</time>
      </trkpt>
      <trkpt lat="49.95439" lon="2.14405">
        <ele>14.4</ele>
        <time>2023-06-28T07:24:22Z</time>
      </trkpt>
      <trkpt lat="49.9544" lon="2.14404">
        <ele>14.3</ele>
        <time>2023-06-28T07:24:23Z</time>
      </trkpt>
      <trkpt lat="49.95441" lon="2.14403">
        <ele>14.3</ele>
        <time>2023-06-28T07:24:24Z</time>
      </trkpt>
      <trkpt lat="49.95442" lon="2.14402">
        <ele>14.3</ele>
        <time>2023-06-28T07:24:25Z</time>
      </trkpt>
      <trkpt lat="49.95442" lon="2.14401">
        <ele>14.3</ele>
        <time>2023-06-28T07:24:26Z</time>
      </trkpt>
      <trkpt lat="49.95443" lon="2.144">
        <ele>14.3</ele>
        <time>2023-06-28T07:24:27Z</time>
      </trkpt>
      <trkpt lat="49.95444" lon="2.144">
        <ele>14.3</ele>
        <time>2023-06-28T07:24:28Z</time>
      </trkpt>
      <trkpt lat="49.95445" lon="2.14398">
        <ele>14.3</ele>
        <time>2023-06-28T07:24:29Z</time>
      </trkpt>
      <trkpt lat="49.95446" lon="2.14397">
        <ele>14.3</ele>
        <time>2023-06-28T07:24:30Z</time>
      </trkpt>
      <trkpt lat="49.95447" lon="2.14396">
        <ele>14.2</ele>
        <time>2023-06-28T07:24:31Z</time>
      </trkpt>
      <trkpt lat="49.95448" lon="2.14395">
        <ele>14.2</ele>
        <time>2023-06-28T07:24:32Z</time>
      </trkpt>
      <trkpt lat="49.95448" lon="2.14393">
        <ele>14.2</ele>
        <time>2023-06-28T07:24:33Z</time>
      </trkpt>
      <trkpt lat="49.9545" lon="2.14391">
        <ele>14.2</ele>
        <time>2023-06-28T07:24:34Z</time>
      </trkpt>
      <trkpt lat="49.9545" lon="2.1439">
        <ele>14.2</ele>
        <time>2023-06-28T07:24:35Z</time>
      </trkpt>
      <trkpt lat="49.95451" lon="2.14388">
        <ele>14.2</ele>
        <time>2023-06-28T07:24:36Z</time>
      </trkpt>
      <trkpt lat="49.95452" lon="2.14387">
        <ele>14.2</ele>
        <time>2023-06-28T07:24:37Z</time>
      </trkpt>
      <trkpt lat="49.95452" lon="2.14386">
        <ele>14.2</ele>
        <time>2023-06-28T07:24:38Z</time>
      </trkpt>
      <trkpt lat="49.95453" lon="2.14385">
        <ele>14.1</ele>
        <time>2023-06-28T07:24:39Z</time>
      </trkpt>
      <trkpt lat="49.95454" lon="2.14384">
        <ele>14.1</ele>
        <time>2023-06-28T07:24:40Z</time>
      </trkpt>
      <trkpt lat="49.95455" lon="2.14383">
        <ele>14.1</ele>
        <time>2023-06-28T07:24:41Z</time>
      </trkpt>
      <trkpt lat="49.95456" lon="2.14382">
        <ele>14.1</ele>
        <time>2023-06-28T07:24:42Z</time>
      </trkpt>
      <trkpt lat="49.95457" lon="2.14382">
        <ele>14.1</ele>
        <time>2023-06-28T07:24:43Z</time>
      </trkpt>
      <trkpt lat="49.95458" lon="2.14381">
        <ele>14</ele>
        <time>2023-06-28T07:24:44Z</time>
      </trkpt>
      <trkpt lat="49.95459" lon="2.1438">
        <ele>14</ele>
        <time>2023-06-28T07:24:45Z</time>
      </trkpt>
      <trkpt lat="49.9546" lon="2.1438">
        <ele>14</ele>
        <time>2023-06-28T07:24:46Z</time>
      </trkpt>
      <trkpt lat="49.95461" lon="2.1438">
        <ele>14</ele>
        <time>2023-06-28T07:24:47Z</time>
      </trkpt>
      <trkpt lat="49.95461" lon="2.14379">
        <ele>14</ele>
        <time>2023-06-28T07:24:48Z</time>
      </trkpt>
      <trkpt lat="49.95462" lon="2.14378">
        <ele>14</ele>
        <time>2023-06-28T07:24:49Z</time>
      </trkpt>
      <trkpt lat="49.95463" lon="2.14377">
        <ele>14</ele>
        <time>2023-06-28T07:24:50Z</time>
      </trkpt>
      <trkpt lat="49.95464" lon="2.14375">
        <ele>14</ele>
        <time>2023-06-28T07:24:51Z</time>
      </trkpt>
      <trkpt lat="49.95465" lon="2.14373">
        <ele>14</ele>
        <time>2023-06-28T07:24:52Z</time>
      </trkpt>
      <trkpt lat="49.95466" lon="2.14372">
        <ele>14</ele>
        <time>2023-06-28T07:24:53Z</time>
      </trkpt>
      <trkpt lat="49.95466" lon="2.14371">
        <ele>14</ele>
        <time>2023-06-28T07:24:54Z</time>
      </trkpt>
      <trkpt lat="49.95467" lon="2.14369">
        <ele>14</ele>
        <time>2023-06-28T07:24:55Z</time>
      </trkpt>
      <trkpt lat="49.95468" lon="2.14368">
        <ele>14</ele>
        <time>2023-06-28T07:24:56Z</time>
      </trkpt>
      <trkpt lat="49.95469" lon="2.14367">
        <ele>14</ele>
        <time>2023-06-28T07:24:57Z</time>
      </trkpt>
      <trkpt lat="49.9547" lon="2.14366">
        <ele>14</ele>
        <time>2023-06-28T07:24:58Z</time>
      </trkpt>
      <trkpt lat="49.9547" lon="2.14365">
        <ele>14</ele>
        <time>2023-06-28T07:24:59Z</time>
      </trkpt>
      <trkpt lat="49.95471" lon="2.14364">
        <ele>14.1</ele>
        <time>2023-06-28T07:25:00Z</time>
      </trkpt>
      <trkpt lat="49.95472" lon="2.14363">
        <ele>14.1</ele>
        <time>2023-06-28T07:25:01Z</time>
      </trkpt>
      <trkpt lat="49.95473" lon="2.14362">
        <ele>14.1</ele>
        <time>2023-06-28T07:25:02Z</time>
      </trkpt>
      <trkpt lat="49.95474" lon="2.14361">
        <ele>14.1</ele>
        <time>2023-06-28T07:25:03Z</time>
      </trkpt>
      <trkpt lat="49.95474" lon="2.1436">
        <ele>14.1</ele>
        <time>2023-06-28T07:25:04Z</time>
      </trkpt>
      <trkpt lat="49.95475" lon="2.1436">
        <ele>14.1</ele>
        <time>2023-06-28T07:25:05Z</time>
      </trkpt>
      <trkpt lat="49.95476" lon="2.14359">
        <ele>14.1</ele>
        <time>2023-06-28T07:25:06Z</time>
      </trkpt>
      <trkpt lat="49.95477" lon="2.14358">
        <ele>14.2</ele>
        <time>2023-06-28T07:25:07Z</time>
      </trkpt>
      <trkpt lat="49.95477" lon="2.14357">
        <ele>14.2</ele>
        <time>2023-06-28T07:25:08Z</time>
      </trkpt>
      <trkpt lat="49.95478" lon="2.14357">
        <ele>14.2</ele>
        <time>2023-06-28T07:25:09Z</time>
      </trkpt>
      <trkpt lat="49.95479" lon="2.14356">
        <ele>14.2</ele>
        <time>2023-06-28T07:25:10Z</time>
      </trkpt>
      <trkpt lat="49.9548" lon="2.14356">
        <ele>14.2</ele>
        <time>2023-06-28T07:25:11Z</time>
      </trkpt>
      <trkpt lat="49.9548" lon="2.14355">
        <ele>14.2</ele>
        <time>2023-06-28T07:25:12Z</time>
      </trkpt>
      <trkpt lat="49.95481" lon="2.14354">
        <ele>14.2</ele>
        <time>2023-06-28T07:25:13Z</time>
      </trkpt>
      <trkpt lat="49.95482" lon="2.14354">
        <ele>14.2</ele>
        <time>2023-06-28T07:25:14Z</time>
      </trkpt>
      <trkpt lat="49.95482" lon="2.14354">
        <ele>14.2</ele>
        <time>2023-06-28T07:25:15Z</time>
      </trkpt>
      <trkpt lat="49.95483" lon="2.14354">
        <ele>14.3</ele>
        <time>2023-06-28T07:25:16Z</time>
      </trkpt>
      <trkpt lat="49.95484" lon="2.14355">
        <ele>14.3</ele>
        <time>2023-06-28T07:25:17Z</time>
      </trkpt>
      <trkpt lat="49.95484" lon="2.14355">
        <ele>14.3</ele>
        <time>2023-06-28T07:25:18Z</time>
      </trkpt>
      <trkpt lat="49.95485" lon="2.14354">
        <ele>14.3</ele>
        <time>2023-06-28T07:25:19Z</time>
      </trkpt>
      <trkpt lat="49.95486" lon="2.14353">
        <ele>14.3</ele>
        <time>2023-06-28T07:25:20Z</time>
      </trkpt>
      <trkpt lat="49.95486" lon="2.14352">
        <ele>14.3</ele>
        <time>2023-06-28T07:25:21Z</time>
      </trkpt>
      <trkpt lat="49.95487" lon="2.14352">
        <ele>14.3</ele>
        <time>2023-06-28T07:25:22Z</time>
      </trkpt>
      <trkpt lat="49.95487" lon="2.14351">
        <ele>14.3</ele>
        <time>2023-06-28T07:25:23Z</time>
      </trkpt>
      <trkpt lat="49.95488" lon="2.1435">
        <ele>14.3</ele>
        <time>2023-06-28T07:25:24Z</time>
      </trkpt>
      <trkpt lat="49.95488" lon="2.14349">
        <ele>14.3</ele>
        <time>2023-06-28T07:25:25Z</time>
      </trkpt>
      <trkpt lat="49.95488" lon="2.14349">
        <ele>14.3</ele>
        <time>2023-06-28T07:25:26Z</time>
      </trkpt>
      <trkpt lat="49.95488" lon="2.14349">
        <ele>14.3</ele>
        <time>2023-06-28T07:25:27Z</time>
      </trkpt>
      <trkpt lat="49.95488" lon="2.14349">
        <ele>14.3</ele>
        <time>2023-06-28T07:25:28Z</time>
      </trkpt>
      <trkpt lat="49.95488" lon="2.14349">
        <ele>14.3</ele>
        <time>2023-06-28T07:25:29Z</time>
      </trkpt>
      <trkpt lat="49.95488" lon="2.14349">
        <ele>14.3</ele>
        <time>2023-06-28T07:25:30Z</time>
      </trkpt>
      <trkpt lat="49.95488" lon="2.1435">
        <ele>14.3</ele>
        <time>2023-06-28T07:25:31Z</time>
      </trkpt>
      <trkpt lat="49.95488" lon="2.1435">
        <ele>14.3</ele>
        <time>2023-06-28T07:25:32Z</time>
      </trkpt>
      <trkpt lat="49.95488" lon="2.1435">
        <ele>14.3</ele>
        <time>2023-06-28T07:25:33Z</time>
      </trkpt>
      <trkpt lat="49.95488" lon="2.1435">
        <ele>14.3</ele>
        <time>2023-06-28T07:25:34Z</time>
      </trkpt>
      <trkpt lat="49.95488" lon="2.1435">
        <ele>14.3</ele>
        <time>2023-06-28T07:25:35Z</time>
      </trkpt>
      <trkpt lat="49.95488" lon="2.1435">
        <ele>14.3</ele>
        <time>2023-06-28T07:25:36Z</time>
      </trkpt>
      <trkpt lat="49.95488" lon="2.1435">
        <ele>14.3</ele>
        <time>2023-06-28T07:25:37Z</time>
      </trkpt>
      <trkpt lat="49.95488" lon="2.1435">
        <ele>14.3</ele>
        <time>2023-06-28T07:25:38Z</time>
      </trkpt>
      <trkpt lat="49.95487" lon="2.14351">
        <ele>14.3</ele>
        <time>2023-06-28T07:25:39Z</time>
      </trkpt>
      <trkpt lat="49.95485" lon="2.14351">
        <ele>14.4</ele>
        <time>2023-06-28T07:25:40Z</time>
      </trkpt>
      <trkpt lat="49.95484" lon="2.14351">
        <ele>14.4</ele>
        <time>2023-06-28T07:25:41Z</time>
      </trkpt>
      <trkpt lat="49.95484" lon="2.1435">
        <ele>14.4</ele>
        <time>2023-06-28T07:25:42Z</time>
      </trkpt>
      <trkpt lat="49.95483" lon="2.1435">
        <ele>14.4</ele>
        <time>2023-06-28T07:25:43Z</time>
      </trkpt>
      <trkpt lat="49.95483" lon="2.1435">
        <ele>14.4</ele>
        <time>2023-06-28T07:25:44Z</time>
      </trkpt>
      <trkpt lat="49.95483" lon="2.1435">
        <ele>14.4</ele>
        <time>2023-06-28T07:25:45Z</time>
      </trkpt>
      <trkpt lat="49.95483" lon="2.1435">
        <ele>14.4</ele>
        <time>2023-06-28T07:25:46Z</time>
      </trkpt>
      <trkpt lat="49.95483" lon="2.14351">
        <ele>14.4</ele>
        <time>2023-06-28T07:25:47Z</time>
      </trkpt>
      <trkpt lat="49.95483" lon="2.14351">
        <ele>14.4</ele>
        <time>2023-06-28T07:25:48Z</time>
      </trkpt>
      <trkpt lat="49.95483" lon="2.14351">
        <ele>14.4</ele>
        <time>2023-06-28T07:25:49Z</time>
      </trkpt>
      <trkpt lat="49.95483" lon="2.14351">
        <ele>14.4</ele>
        <time>2023-06-28T07:25:50Z</time>
      </trkpt>
      <trkpt lat="49.95483" lon="2.14351">
        <ele>14.4</ele>
        <time>2023-06-28T07:25:51Z</time>
      </trkpt>
      <trkpt lat="49.95483" lon="2.14351">
        <ele>14.4</ele>
        <time>2023-06-28T07:25:52Z</time>
      </trkpt>
      <trkpt lat="49.95483" lon="2.14351">
        <ele>14.4</ele>
        <time>2023-06-28T07:25:53Z</time>
      </trkpt>
      <trkpt lat="49.95483" lon="2.14351">
        <ele>14.4</ele>
        <time>2023-06-28T07:25:54Z</time>
      </trkpt>
      <trkpt lat="49.95483" lon="2.14351">
        <ele>14.4</ele>
        <time>2023-06-28T07:25:55Z</time>
      </trkpt>
      <trkpt lat="49.95483" lon="2.14351">
        <ele>14.4</ele>
        <time>2023-06-28T07:25:56Z</time>
      </trkpt>
      <trkpt lat="49.95483" lon="2.14351">
        <ele>14.4</ele>
        <time>2023-06-28T07:25:57Z</time>
      </trkpt>
      <trkpt lat="49.95483" lon="2.14351">
        <ele>14.4</ele>
        <time>2023-06-28T07:25:58Z</time>
      </trkpt>
      <trkpt lat="49.95483" lon="2.14351">
        <ele>14.4</ele>
        <time>2023-06-28T07:25:59Z</time>
      </trkpt>
      <trkpt lat="49.95483" lon="2.14351">
        <ele>14.4</ele>
        <time>2023-06-28T07:26:00Z</time>
      </trkpt>
      <trkpt lat="49.95483" lon="2.14351">
        <ele>14.4</ele>
        <time>2023-06-28T07:26:01Z</time>
      </trkpt>
      <trkpt lat="49.95483" lon="2.14351">
        <ele>14.4</ele>
        <time>2023-06-28T07:26:02Z</time>
      </trkpt>
      <trkpt lat="49.95483" lon="2.14351">
        <ele>14.4</ele>
        <time>2023-06-28T07:26:03Z</time>
      </trkpt>
      <trkpt lat="49.95483" lon="2.14351">
        <ele>14.4</ele>
        <time>2023-06-28T07:26:04Z</time>
      </trkpt>
      <trkpt lat="49.95483" lon="2.14351">
        <ele>14.4</ele>
        <time>2023-06-28T07:26:05Z</time>
      </trkpt>
      <trkpt lat="49.95483" lon="2.14351">
        <ele>14.4</ele>
        <time>2023-06-28T07:26:06Z</time>
      </trkpt>
      <trkpt lat="49.95483" lon="2.14351">
        <ele>14.4</ele>
        <time>2023-06-28T07:26:07Z</time>
      </trkpt>
      <trkpt lat="49.95483" lon="2.14351">
        <ele>14.4</ele>
        <time>2023-06-28T07:26:08Z</time>
      </trkpt>
      <trkpt lat="49.95483" lon="2.14351">
        <ele>14.4</ele>
        <time>2023-06-28T07:26:09Z</time>
      </trkpt>
      <trkpt lat="49.95483" lon="2.14351">
        <ele>14.4</ele>
        <time>2023-06-28T07:26:10Z</time>
      </trkpt>
      <trkpt lat="49.95483" lon="2.14351">
        <ele>14.4</ele>
        <time>2023-06-28T07:26:11Z</time>
      </trkpt>
      <trkpt lat="49.95483" lon="2.14351">
        <ele>14.4</ele>
        <time>2023-06-28T07:26:12Z</time>
      </trkpt>
      <trkpt lat="49.95483" lon="2.14351">
        <ele>14.4</ele>
        <time>2023-06-28T07:26:13Z</time>
      </trkpt>
      <trkpt lat="49.95483" lon="2.14351">
        <ele>14.4</ele>
        <time>2023-06-28T07:26:14Z</time>
      </trkpt>
      <trkpt lat="49.95483" lon="2.14351">
        <ele>14.4</ele>
        <time>2023-06-28T07:26:15Z</time>
      </trkpt>
      <trkpt lat="49.95483" lon="2.14351">
        <ele>14.4</ele>
        <time>2023-06-28T07:26:16Z</time>
      </trkpt>
      <trkpt lat="49.95483" lon="2.14351">
        <ele>14.4</ele>
        <time>2023-06-28T07:26:17Z</time>
      </trkpt>
      <trkpt lat="49.95483" lon="2.14351">
        <ele>14.4</ele>
        <time>2023-06-28T07:26:18Z</time>
      </trkpt>
      <trkpt lat="49.95483" lon="2.14351">
        <ele>14.4</ele>
        <time>2023-06-28T07:26:19Z</time>
      </trkpt>
      <trkpt lat="49.95483" lon="2.14351">
        <ele>14.4</ele>
        <time>2023-06-28T07:26:20Z</time>
      </trkpt>
      <trkpt lat="49.95483" lon="2.14351">
        <ele>14.4</ele>
        <time>2023-06-28T07:26:21Z</time>
      </trkpt>
      <trkpt lat="49.95483" lon="2.14351">
        <ele>14.4</ele>
        <time>2023-06-28T07:26:22Z</time>
      </trkpt>
      <trkpt lat="49.95483" lon="2.14351">
        <ele>14.4</ele>
        <time>2023-06-28T07:26:23Z</time>
      </trkpt>
      <trkpt lat="49.95483" lon="2.14351">
        <ele>14.4</ele>
        <time>2023-06-28T07:26:24Z</time>
      </trkpt>
      <trkpt lat="49.95483" lon="2.14351">
        <ele>14.4</ele>
        <time>2023-06-28T07:26:25Z</time>
      </trkpt>
      <trkpt lat="49.95483" lon="2.14351">
        <ele>14.4</ele>
        <time>2023-06-28T07:26:26Z</time>
      </trkpt>
      <trkpt lat="49.95483" lon="2.14351">
        <ele>14.4</ele>
        <time>2023-06-28T07:26:27Z</time>
      </trkpt>
      <trkpt lat="49.95483" lon="2.14351">
        <ele>14.4</ele>
        <time>2023-06-28T07:26:28Z</time>
      </trkpt>
      <trkpt lat="49.95483" lon="2.14351">
        <ele>14.4</ele>
        <time>2023-06-28T07:26:29Z</time>
      </trkpt>
      <trkpt lat="49.95483" lon="2.14351">
        <ele>14.4</ele>
        <time>2023-06-28T07:26:30Z</time>
      </trkpt>
      <trkpt lat="49.95483" lon="2.14351">
        <ele>14.4</ele>
        <time>2023-06-28T07:26:31Z</time>
      </trkpt>
      <trkpt lat="49.95484" lon="2.14353">
        <ele>14.4</ele>
        <time>2023-06-28T07:26:32Z</time>
      </trkpt>
      <trkpt lat="49.95484" lon="2.14353">
        <ele>14.4</ele>
        <time>2023-06-28T07:26:33Z</time>
      </trkpt>
      <trkpt lat="49.95484" lon="2.14354">
        <ele>14.4</ele>
        <time>2023-06-28T07:26:34Z</time>
      </trkpt>
      <trkpt lat="49.95485" lon="2.14353">
        <ele>14.4</ele>
        <time>2023-06-28T07:26:35Z</time>
      </trkpt>
      <trkpt lat="49.95485" lon="2.14353">
        <ele>14.4</ele>
        <time>2023-06-28T07:26:36Z</time>
      </trkpt>
      <trkpt lat="49.95485" lon="2.14352">
        <ele>14.4</ele>
        <time>2023-06-28T07:26:37Z</time>
      </trkpt>
      <trkpt lat="49.95486" lon="2.14352">
        <ele>14.4</ele>
        <time>2023-06-28T07:26:38Z</time>
      </trkpt>
      <trkpt lat="49.95485" lon="2.14352">
        <ele>14.5</ele>
        <time>2023-06-28T07:26:39Z</time>
      </trkpt>
      <trkpt lat="49.95486" lon="2.14351">
        <ele>14.5</ele>
        <time>2023-06-28T07:26:40Z</time>
      </trkpt>
      <trkpt lat="49.95486" lon="2.14351">
        <ele>14.5</ele>
        <time>2023-06-28T07:26:41Z</time>
      </trkpt>
      <trkpt lat="49.95486" lon="2.14351">
        <ele>14.5</ele>
        <time>2023-06-28T07:26:42Z</time>
      </trkpt>
      <trkpt lat="49.95486" lon="2.14351">
        <ele>14.5</ele>
        <time>2023-06-28T07:26:43Z</time>
      </trkpt>
      <trkpt lat="49.95486" lon="2.14351">
        <ele>14.5</ele>
        <time>2023-06-28T07:26:44Z</time>
      </trkpt>
      <trkpt lat="49.95486" lon="2.14351">
        <ele>14.5</ele>
        <time>2023-06-28T07:26:45Z</time>
      </trkpt>
      <trkpt lat="49.95486" lon="2.14351">
        <ele>14.5</ele>
        <time>2023-06-28T07:26:46Z</time>
      </trkpt>
      <trkpt lat="49.95486" lon="2.14351">
        <ele>14.5</ele>
        <time>2023-06-28T07:26:47Z</time>
      </trkpt>
      <trkpt lat="49.95486" lon="2.14351">
        <ele>14.5</ele>
        <time>2023-06-28T07:26:48Z</time>
      </trkpt>
      <trkpt lat="49.95486" lon="2.14351">
        <ele>14.5</ele>
        <time>2023-06-28T07:26:49Z</time>
      </trkpt>
      <trkpt lat="49.95486" lon="2.14351">
        <ele>14.5</ele>
        <time>2023-06-28T07:26:51Z</time>
      </trkpt>
      <trkpt lat="49.95486" lon="2.14351">
        <ele>14.5</ele>
        <time>2023-06-28T07:26:52Z</time>
      </trkpt>
      <trkpt lat="49.95486" lon="2.14351">
        <ele>14.5</ele>
        <time>2023-06-28T07:26:53Z</time>
      </trkpt>
      <trkpt lat="49.95486" lon="2.1435">
        <ele>14.5</ele>
        <time>2023-06-28T07:26:54Z</time>
      </trkpt>
      <trkpt lat="49.95486" lon="2.1435">
        <ele>14.5</ele>
        <time>2023-06-28T07:26:55Z</time>
      </trkpt>
      <trkpt lat="49.95486" lon="2.1435">
        <ele>14.5</ele>
        <time>2023-06-28T07:26:56Z</time>
      </trkpt>
      <trkpt lat="49.95486" lon="2.1435">
        <ele>14.5</ele>
        <time>2023-06-28T07:26:57Z</time>
      </trkpt>
      <trkpt lat="49.95486" lon="2.1435">
        <ele>14.5</ele>
        <time>2023-06-28T07:26:58Z</time>
      </trkpt>
      <trkpt lat="49.95486" lon="2.1435">
        <ele>14.5</ele>
        <time>2023-06-28T07:26:59Z</time>
      </trkpt>
      <trkpt lat="49.95486" lon="2.1435">
        <ele>14.5</ele>
        <time>2023-06-28T07:27:00Z</time>
      </trkpt>
      <trkpt lat="49.95486" lon="2.1435">
        <ele>14.5</ele>
        <time>2023-06-28T07:27:01Z</time>
      </trkpt>
      <trkpt lat="49.95486" lon="2.1435">
        <ele>14.5</ele>
        <time>2023-06-28T07:27:02Z</time>
      </trkpt>
      <trkpt lat="49.95486" lon="2.1435">
        <ele>14.5</ele>
        <time>2023-06-28T07:27:03Z</time>
      </trkpt>
      <trkpt lat="49.95487" lon="2.1435">
        <ele>14.5</ele>
        <time>2023-06-28T07:27:04Z</time>
      </trkpt>
      <trkpt lat="49.95487" lon="2.1435">
        <ele>14.5</ele>
        <time>2023-06-28T07:27:05Z</time>
      </trkpt>
      <trkpt lat="49.95487" lon="2.14349">
        <ele>14.5</ele>
        <time>2023-06-28T07:27:06Z</time>
      </trkpt>
      <trkpt lat="49.95488" lon="2.14348">
        <ele>14.5</ele>
        <time>2023-06-28T07:27:07Z</time>
      </trkpt>
      <trkpt lat="49.95488" lon="2.14347">
        <ele>14.5</ele>
        <time>2023-06-28T07:27:08Z</time>
      </trkpt>
      <trkpt lat="49.95488" lon="2.14345">
        <ele>14.5</ele>
        <time>2023-06-28T07:27:09Z</time>
      </trkpt>
      <trkpt lat="49.95489" lon="2.14342">
        <ele>14.6</ele>
        <time>2023-06-28T07:27:10Z</time>
      </trkpt>
      <trkpt lat="49.95489" lon="2.14341">
        <ele>14.6</ele>
        <time>2023-06-28T07:27:11Z</time>
      </trkpt>
      <trkpt lat="49.9549" lon="2.1434">
        <ele>14.6</ele>
        <time>2023-06-28T07:27:12Z</time>
      </trkpt>
      <trkpt lat="49.9549" lon="2.14339">
        <ele>14.6</ele>
        <time>2023-06-28T07:27:13Z</time>
      </trkpt>
      <trkpt lat="49.9549" lon="2.14338">
        <ele>14.6</ele>
        <time>2023-06-28T07:27:14Z</time>
      </trkpt>
      <trkpt lat="49.95491" lon="2.14337">
        <ele>14.6</ele>
        <time>2023-06-28T07:27:15Z</time>
      </trkpt>
      <trkpt lat="49.95491" lon="2.14336">
        <ele>14.6</ele>
        <time>2023-06-28T07:27:16Z</time>
      </trkpt>
      <trkpt lat="49.95492" lon="2.14336">
        <ele>14.6</ele>
        <time>2023-06-28T07:27:17Z</time>
      </trkpt>
      <trkpt lat="49.95492" lon="2.14335">
        <ele>14.6</ele>
        <time>2023-06-28T07:27:18Z</time>
      </trkpt>
      <trkpt lat="49.95492" lon="2.14334">
        <ele>14.6</ele>
        <time>2023-06-28T07:27:19Z</time>
      </trkpt>
      <trkpt lat="49.95493" lon="2.14333">
        <ele>14.6</ele>
        <time>2023-06-28T07:27:20Z</time>
      </trkpt>
      <trkpt lat="49.95493" lon="2.14332">
        <ele>14.6</ele>
        <time>2023-06-28T07:27:21Z</time>
      </trkpt>
      <trkpt lat="49.95493" lon="2.14332">
        <ele>14.6</ele>
        <time>2023-06-28T07:27:22Z</time>
      </trkpt>
      <trkpt lat="49.95494" lon="2.14331">
        <ele>14.6</ele>
        <time>2023-06-28T07:27:23Z</time>
      </trkpt>
      <trkpt lat="49.95494" lon="2.14331">
        <ele>14.6</ele>
        <time>2023-06-28T07:27:24Z</time>
      </trkpt>
      <trkpt lat="49.95495" lon="2.1433">
        <ele>14.7</ele>
        <time>2023-06-28T07:27:25Z</time>
      </trkpt>
      <trkpt lat="49.95496" lon="2.14329">
        <ele>14.7</ele>
        <time>2023-06-28T07:27:26Z</time>
      </trkpt>
      <trkpt lat="49.95496" lon="2.14328">
        <ele>14.7</ele>
        <time>2023-06-28T07:27:27Z</time>
      </trkpt>
      <trkpt lat="49.95497" lon="2.14327">
        <ele>14.7</ele>
        <time>2023-06-28T07:27:28Z</time>
      </trkpt>
      <trkpt lat="49.95498" lon="2.14326">
        <ele>14.7</ele>
        <time>2023-06-28T07:27:29Z</time>
      </trkpt>
      <trkpt lat="49.95499" lon="2.14325">
        <ele>14.7</ele>
        <time>2023-06-28T07:27:30Z</time>
      </trkpt>
      <trkpt lat="49.955" lon="2.14324">
        <ele>14.7</ele>
        <time>2023-06-28T07:27:31Z</time>
      </trkpt>
      <trkpt lat="49.955" lon="2.14323">
        <ele>14.7</ele>
        <time>2023-06-28T07:27:32Z</time>
      </trkpt>
      <trkpt lat="49.95501" lon="2.14322">
        <ele>14.7</ele>
        <time>2023-06-28T07:27:33Z</time>
      </trkpt>
      <trkpt lat="49.95502" lon="2.14321">
        <ele>14.7</ele>
        <time>2023-06-28T07:27:34Z</time>
      </trkpt>
      <trkpt lat="49.95503" lon="2.1432">
        <ele>14.7</ele>
        <time>2023-06-28T07:27:35Z</time>
      </trkpt>
      <trkpt lat="49.95504" lon="2.14319">
        <ele>14.7</ele>
        <time>2023-06-28T07:27:36Z</time>
      </trkpt>
      <trkpt lat="49.95505" lon="2.14319">
        <ele>14.7</ele>
        <time>2023-06-28T07:27:37Z</time>
      </trkpt>
      <trkpt lat="49.95506" lon="2.14318">
        <ele>14.7</ele>
        <time>2023-06-28T07:27:38Z</time>
      </trkpt>
      <trkpt lat="49.95507" lon="2.14316">
        <ele>14.7</ele>
        <time>2023-06-28T07:27:39Z</time>
      </trkpt>
      <trkpt lat="49.95508" lon="2.14315">
        <ele>14.7</ele>
        <time>2023-06-28T07:27:40Z</time>
      </trkpt>
      <trkpt lat="49.95509" lon="2.14315">
        <ele>14.7</ele>
        <time>2023-06-28T07:27:41Z</time>
      </trkpt>
      <trkpt lat="49.9551" lon="2.14313">
        <ele>14.7</ele>
        <time>2023-06-28T07:27:42Z</time>
      </trkpt>
      <trkpt lat="49.95511" lon="2.14312">
        <ele>14.7</ele>
        <time>2023-06-28T07:27:43Z</time>
      </trkpt>
      <trkpt lat="49.95512" lon="2.1431">
        <ele>14.7</ele>
        <time>2023-06-28T07:27:44Z</time>
      </trkpt>
      <trkpt lat="49.95512" lon="2.14309">
        <ele>14.7</ele>
        <time>2023-06-28T07:27:45Z</time>
      </trkpt>
      <trkpt lat="49.95513" lon="2.14308">
        <ele>14.7</ele>
        <time>2023-06-28T07:27:46Z</time>
      </trkpt>
      <trkpt lat="49.95513" lon="2.14308">
        <ele>14.7</ele>
        <time>2023-06-28T07:27:47Z</time>
      </trkpt>
      <trkpt lat="49.95513" lon="2.14307">
        <ele>14.6</ele>
        <time>2023-06-28T07:27:48Z</time>
      </trkpt>
      <trkpt lat="49.95514" lon="2.14306">
        <ele>14.6</ele>
        <time>2023-06-28T07:27:49Z</time>
      </trkpt>
      <trkpt lat="49.95514" lon="2.14306">
        <ele>14.6</ele>
        <time>2023-06-28T07:27:50Z</time>
      </trkpt>
      <trkpt lat="49.95514" lon="2.14305">
        <ele>14.6</ele>
        <time>2023-06-28T07:27:51Z</time>
      </trkpt>
      <trkpt lat="49.95514" lon="2.14305">
        <ele>14.6</ele>
        <time>2023-06-28T07:27:52Z</time>
      </trkpt>
      <trkpt lat="49.95514" lon="2.14304">
        <ele>14.6</ele>
        <time>2023-06-28T07:27:53Z</time>
      </trkpt>
      <trkpt lat="49.95515" lon="2.14303">
        <ele>14.6</ele>
        <time>2023-06-28T07:27:54Z</time>
      </trkpt>
      <trkpt lat="49.95515" lon="2.14303">
        <ele>14.6</ele>
        <time>2023-06-28T07:27:55Z</time>
      </trkpt>
      <trkpt lat="49.95515" lon="2.14303">
        <ele>14.6</ele>
        <time>2023-06-28T07:27:56Z</time>
      </trkpt>
      <trkpt lat="49.95515" lon="2.14302">
        <ele>14.6</ele>
        <time>2023-06-28T07:27:57Z</time>
      </trkpt>
      <trkpt lat="49.95515" lon="2.14302">
        <ele>14.6</ele>
        <time>2023-06-28T07:27:58Z</time>
      </trkpt>
      <trkpt lat="49.95516" lon="2.14301">
        <ele>14.5</ele>
        <time>2023-06-28T07:27:59Z</time>
      </trkpt>
      <trkpt lat="49.95516" lon="2.14301">
        <ele>14.5</ele>
        <time>2023-06-28T07:28:00Z</time>
      </trkpt>
      <trkpt lat="49.95516" lon="2.143">
        <ele>14.5</ele>
        <time>2023-06-28T07:28:01Z</time>
      </trkpt>
      <trkpt lat="49.95517" lon="2.143">
        <ele>14.5</ele>
        <time>2023-06-28T07:28:02Z</time>
      </trkpt>
      <trkpt lat="49.95517" lon="2.143">
        <ele>14.5</ele>
        <time>2023-06-28T07:28:03Z</time>
      </trkpt>
      <trkpt lat="49.95517" lon="2.14299">
        <ele>14.5</ele>
        <time>2023-06-28T07:28:04Z</time>
      </trkpt>
      <trkpt lat="49.95518" lon="2.14299">
        <ele>14.5</ele>
        <time>2023-06-28T07:28:05Z</time>
      </trkpt>
      <trkpt lat="49.95518" lon="2.14299">
        <ele>14.5</ele>
        <time>2023-06-28T07:28:06Z</time>
      </trkpt>
      <trkpt lat="49.95518" lon="2.14299">
        <ele>14.5</ele>
        <time>2023-06-28T07:28:07Z</time>
      </trkpt>
      <trkpt lat="49.95518" lon="2.14299">
        <ele>14.5</ele>
        <time>2023-06-28T07:28:08Z</time>
      </trkpt>
      <trkpt lat="49.95518" lon="2.14299">
        <ele>14.5</ele>
        <time>2023-06-28T07:28:09Z</time>
      </trkpt>
      <trkpt lat="49.95518" lon="2.14298">
        <ele>14.5</ele>
        <time>2023-06-28T07:28:10Z</time>
      </trkpt>
      <trkpt lat="49.95518" lon="2.14298">
        <ele>14.4</ele>
        <time>2023-06-28T07:28:11Z</time>
      </trkpt>
      <trkpt lat="49.95518" lon="2.14298">
        <ele>14.4</ele>
        <time>2023-06-28T07:28:12Z</time>
      </trkpt>
      <trkpt lat="49.95518" lon="2.14298">
        <ele>14.4</ele>
        <time>2023-06-28T07:28:13Z</time>
      </trkpt>
      <trkpt lat="49.95518" lon="2.14298">
        <ele>14.4</ele>
        <time>2023-06-28T07:28:14Z</time>
      </trkpt>
      <trkpt lat="49.95518" lon="2.14297">
        <ele>14.4</ele>
        <time>2023-06-28T07:28:15Z</time>
      </trkpt>
      <trkpt lat="49.95518" lon="2.14297">
        <ele>14.4</ele>
        <time>2023-06-28T07:28:16Z</time>
      </trkpt>
      <trkpt lat="49.95519" lon="2.14296">
        <ele>14.4</ele>
        <time>2023-06-28T07:28:17Z</time>
      </trkpt>
      <trkpt lat="49.95519" lon="2.14296">
        <ele>14.4</ele>
        <time>2023-06-28T07:28:18Z</time>
      </trkpt>
      <trkpt lat="49.95519" lon="2.14295">
        <ele>14.4</ele>
        <time>2023-06-28T07:28:19Z</time>
      </trkpt>
      <trkpt lat="49.9552" lon="2.14294">
        <ele>14.4</ele>
        <time>2023-06-28T07:28:20Z</time>
      </trkpt>
      <trkpt lat="49.95521" lon="2.14293">
        <ele>14.3</ele>
        <time>2023-06-28T07:28:21Z</time>
      </trkpt>
      <trkpt lat="49.95522" lon="2.14291">
        <ele>14.3</ele>
        <time>2023-06-28T07:28:22Z</time>
      </trkpt>
      <trkpt lat="49.95523" lon="2.14288">
        <ele>14.2</ele>
        <time>2023-06-28T07:28:23Z</time>
      </trkpt>
      <trkpt lat="49.95524" lon="2.14287">
        <ele>14.2</ele>
        <time>2023-06-28T07:28:24Z</time>
      </trkpt>
      <trkpt lat="49.95524" lon="2.14286">
        <ele>14.2</ele>
        <time>2023-06-28T07:28:25Z</time>
      </trkpt>
      <trkpt lat="49.95525" lon="2.14285">
        <ele>14.2</ele>
        <time>2023-06-28T07:28:26Z</time>
      </trkpt>
      <trkpt lat="49.95526" lon="2.14283">
        <ele>14.2</ele>
        <time>2023-06-28T07:28:27Z</time>
      </trkpt>
      <trkpt lat="49.95526" lon="2.14282">
        <ele>14.1</ele>
        <time>2023-06-28T07:28:28Z</time>
      </trkpt>
      <trkpt lat="49.95527" lon="2.14281">
        <ele>14.1</ele>
        <time>2023-06-28T07:28:29Z</time>
      </trkpt>
      <trkpt lat="49.95527" lon="2.1428">
        <ele>14.1</ele>
        <time>2023-06-28T07:28:30Z</time>
      </trkpt>
      <trkpt lat="49.95528" lon="2.14279">
        <ele>14.1</ele>
        <time>2023-06-28T07:28:31Z</time>
      </trkpt>
      <trkpt lat="49.95529" lon="2.14279">
        <ele>14.1</ele>
        <time>2023-06-28T07:28:32Z</time>
      </trkpt>
      <trkpt lat="49.9553" lon="2.14278">
        <ele>14.1</ele>
        <time>2023-06-28T07:28:33Z</time>
      </trkpt>
      <trkpt lat="49.9553" lon="2.14277">
        <ele>14.1</ele>
        <time>2023-06-28T07:28:34Z</time>
      </trkpt>
      <trkpt lat="49.95531" lon="2.14276">
        <ele>14.1</ele>
        <time>2023-06-28T07:28:35Z</time>
      </trkpt>
      <trkpt lat="49.95532" lon="2.14273">
        <ele>14.1</ele>
        <time>2023-06-28T07:28:36Z</time>
      </trkpt>
      <trkpt lat="49.95533" lon="2.14272">
        <ele>14.1</ele>
        <time>2023-06-28T07:28:37Z</time>
      </trkpt>
      <trkpt lat="49.95534" lon="2.14272">
        <ele>14.1</ele>
        <time>2023-06-28T07:28:38Z</time>
      </trkpt>
      <trkpt lat="49.95535" lon="2.14269">
        <ele>14</ele>
        <time>2023-06-28T07:28:39Z</time>
      </trkpt>
      <trkpt lat="49.95535" lon="2.14268">
        <ele>14</ele>
        <time>2023-06-28T07:28:40Z</time>
      </trkpt>
      <trkpt lat="49.95536" lon="2.14267">
        <ele>14</ele>
        <time>2023-06-28T07:28:41Z</time>
      </trkpt>
      <trkpt lat="49.95537" lon="2.14265">
        <ele>14</ele>
        <time>2023-06-28T07:28:42Z</time>
      </trkpt>
      <trkpt lat="49.95537" lon="2.14264">
        <ele>14</ele>
        <time>2023-06-28T07:28:43Z</time>
      </trkpt>
      <trkpt lat="49.95538" lon="2.14263">
        <ele>13.9</ele>
        <time>2023-06-28T07:28:44Z</time>
      </trkpt>
      <trkpt lat="49.95538" lon="2.14262">
        <ele>13.9</ele>
        <time>2023-06-28T07:28:45Z</time>
      </trkpt>
      <trkpt lat="49.95539" lon="2.14261">
        <ele>13.9</ele>
        <time>2023-06-28T07:28:46Z</time>
      </trkpt>
      <trkpt lat="49.95539" lon="2.1426">
        <ele>13.9</ele>
        <time>2023-06-28T07:28:47Z</time>
      </trkpt>
      <trkpt lat="49.95539" lon="2.1426">
        <ele>13.9</ele>
        <time>2023-06-28T07:28:48Z</time>
      </trkpt>
      <trkpt lat="49.9554" lon="2.14259">
        <ele>13.8</ele>
        <time>2023-06-28T07:28:49Z</time>
      </trkpt>
      <trkpt lat="49.95541" lon="2.14257">
        <ele>13.8</ele>
        <time>2023-06-28T07:28:50Z</time>
      </trkpt>
      <trkpt lat="49.95542" lon="2.14255">
        <ele>13.7</ele>
        <time>2023-06-28T07:28:51Z</time>
      </trkpt>
      <trkpt lat="49.95543" lon="2.14252">
        <ele>13.6</ele>
        <time>2023-06-28T07:28:52Z</time>
      </trkpt>
      <trkpt lat="49.95543" lon="2.14252">
        <ele>13.6</ele>
        <time>2023-06-28T07:28:53Z</time>
      </trkpt>
      <trkpt lat="49.95544" lon="2.14251">
        <ele>13.6</ele>
        <time>2023-06-28T07:28:54Z</time>
      </trkpt>
      <trkpt lat="49.95544" lon="2.1425">
        <ele>13.5</ele>
        <time>2023-06-28T07:28:55Z</time>
      </trkpt>
      <trkpt lat="49.95545" lon="2.14249">
        <ele>13.5</ele>
        <time>2023-06-28T07:28:56Z</time>
      </trkpt>
      <trkpt lat="49.95545" lon="2.14248">
        <ele>13.5</ele>
        <time>2023-06-28T07:28:57Z</time>
      </trkpt>
      <trkpt lat="49.95546" lon="2.14247">
        <ele>13.5</ele>
        <time>2023-06-28T07:28:58Z</time>
      </trkpt>
      <trkpt lat="49.95546" lon="2.14246">
        <ele>13.4</ele>
        <time>2023-06-28T07:28:59Z</time>
      </trkpt>
      <trkpt lat="49.95546" lon="2.14246">
        <ele>13.4</ele>
        <time>2023-06-28T07:29:00Z</time>
      </trkpt>
      <trkpt lat="49.95546" lon="2.14245">
        <ele>13.4</ele>
        <time>2023-06-28T07:29:01Z</time>
      </trkpt>
      <trkpt lat="49.95547" lon="2.14245">
        <ele>13.4</ele>
        <time>2023-06-28T07:29:02Z</time>
      </trkpt>
      <trkpt lat="49.95547" lon="2.14245">
        <ele>13.4</ele>
        <time>2023-06-28T07:29:03Z</time>
      </trkpt>
      <trkpt lat="49.95546" lon="2.14245">
        <ele>13.4</ele>
        <time>2023-06-28T07:29:04Z</time>
      </trkpt>
      <trkpt lat="49.95546" lon="2.14244">
        <ele>13.4</ele>
        <time>2023-06-28T07:29:05Z</time>
      </trkpt>
      <trkpt lat="49.95546" lon="2.14244">
        <ele>13.4</ele>
        <time>2023-06-28T07:29:06Z</time>
      </trkpt>
      <trkpt lat="49.95546" lon="2.14245">
        <ele>13.4</ele>
        <time>2023-06-28T07:29:07Z</time>
      </trkpt>
      <trkpt lat="49.95546" lon="2.14245">
        <ele>13.4</ele>
        <time>2023-06-28T07:29:08Z</time>
      </trkpt>
      <trkpt lat="49.95546" lon="2.14245">
        <ele>13.4</ele>
        <time>2023-06-28T07:29:09Z</time>
      </trkpt>
      <trkpt lat="49.95546" lon="2.14245">
        <ele>13.4</ele>
        <time>2023-06-28T07:29:10Z</time>
      </trkpt>
      <trkpt lat="49.95546" lon="2.14245">
        <ele>13.4</ele>
        <time>2023-06-28T07:29:11Z</time>
      </trkpt>
      <trkpt lat="49.95546" lon="2.14245">
        <ele>13.4</ele>
        <time>2023-06-28T07:29:12Z</time>
      </trkpt>
      <trkpt lat="49.95546" lon="2.14245">
        <ele>13.4</ele>
        <time>2023-06-28T07:29:13Z</time>
      </trkpt>
      <trkpt lat="49.95546" lon="2.14245">
        <ele>13.4</ele>
        <time>2023-06-28T07:29:14Z</time>
      </trkpt>
      <trkpt lat="49.95546" lon="2.14245">
        <ele>13.4</ele>
        <time>2023-06-28T07:29:15Z</time>
      </trkpt>
      <trkpt lat="49.95546" lon="2.14245">
        <ele>13.4</ele>
        <time>2023-06-28T07:29:16Z</time>
      </trkpt>
      <trkpt lat="49.95546" lon="2.14245">
        <ele>13.4</ele>
        <time>2023-06-28T07:29:17Z</time>
      </trkpt>
      <trkpt lat="49.95546" lon="2.14245">
        <ele>13.4</ele>
        <time>2023-06-28T07:29:18Z</time>
      </trkpt>
      <trkpt lat="49.95546" lon="2.14245">
        <ele>13.4</ele>
        <time>2023-06-28T07:29:19Z</time>
      </trkpt>
      <trkpt lat="49.95546" lon="2.14245">
        <ele>13.4</ele>
        <time>2023-06-28T07:29:20Z</time>
      </trkpt>
      <trkpt lat="49.95546" lon="2.14245">
        <ele>13.4</ele>
        <time>2023-06-28T07:29:21Z</time>
      </trkpt>
      <trkpt lat="49.95546" lon="2.14245">
        <ele>13.4</ele>
        <time>2023-06-28T07:29:22Z</time>
      </trkpt>
      <trkpt lat="49.95546" lon="2.14245">
        <ele>13.4</ele>
        <time>2023-06-28T07:29:23Z</time>
      </trkpt>
      <trkpt lat="49.95546" lon="2.14245">
        <ele>13.4</ele>
        <time>2023-06-28T07:29:24Z</time>
      </trkpt>
      <trkpt lat="49.95547" lon="2.14244">
        <ele>13.3</ele>
        <time>2023-06-28T07:29:25Z</time>
      </trkpt>
      <trkpt lat="49.95547" lon="2.14244">
        <ele>13.3</ele>
        <time>2023-06-28T07:29:26Z</time>
      </trkpt>
      <trkpt lat="49.95548" lon="2.14243">
        <ele>13.3</ele>
        <time>2023-06-28T07:29:27Z</time>
      </trkpt>
      <trkpt lat="49.95548" lon="2.14242">
        <ele>13.3</ele>
        <time>2023-06-28T07:29:28Z</time>
      </trkpt>
      <trkpt lat="49.95548" lon="2.14242">
        <ele>13.3</ele>
        <time>2023-06-28T07:29:29Z</time>
      </trkpt>
      <trkpt lat="49.95548" lon="2.14242">
        <ele>13.3</ele>
        <time>2023-06-28T07:29:30Z</time>
      </trkpt>
      <trkpt lat="49.95548" lon="2.14242">
        <ele>13.3</ele>
        <time>2023-06-28T07:29:31Z</time>
      </trkpt>
      <trkpt lat="49.95548" lon="2.14242">
        <ele>13.3</ele>
        <time>2023-06-28T07:29:32Z</time>
      </trkpt>
      <trkpt lat="49.95548" lon="2.14242">
        <ele>13.3</ele>
        <time>2023-06-28T07:29:33Z</time>
      </trkpt>
      <trkpt lat="49.95548" lon="2.14242">
        <ele>13.3</ele>
        <time>2023-06-28T07:29:34Z</time>
      </trkpt>
      <trkpt lat="49.95548" lon="2.14242">
        <ele>13.3</ele>
        <time>2023-06-28T07:29:35Z</time>
      </trkpt>
      <trkpt lat="49.95548" lon="2.14242">
        <ele>13.3</ele>
        <time>2023-06-28T07:29:36Z</time>
      </trkpt>
      <trkpt lat="49.95548" lon="2.14242">
        <ele>13.3</ele>
        <time>2023-06-28T07:29:37Z</time>
      </trkpt>
      <trkpt lat="49.95548" lon="2.14242">
        <ele>13.3</ele>
        <time>2023-06-28T07:29:38Z</time>
      </trkpt>
      <trkpt lat="49.95548" lon="2.14242">
        <ele>13.3</ele>
        <time>2023-06-28T07:29:39Z</time>
      </trkpt>
      <trkpt lat="49.95548" lon="2.14242">
        <ele>13.3</ele>
        <time>2023-06-28T07:29:40Z</time>
      </trkpt>
      <trkpt lat="49.95548" lon="2.14242">
        <ele>13.3</ele>
        <time>2023-06-28T07:29:41Z</time>
      </trkpt>
      <trkpt lat="49.95548" lon="2.14242">
        <ele>13.3</ele>
        <time>2023-06-28T07:29:42Z</time>
      </trkpt>
      <trkpt lat="49.95548" lon="2.14242">
        <ele>13.3</ele>
        <time>2023-06-28T07:29:43Z</time>
      </trkpt>
      <trkpt lat="49.95548" lon="2.14242">
        <ele>13.3</ele>
        <time>2023-06-28T07:29:44Z</time>
      </trkpt>
      <trkpt lat="49.95548" lon="2.14242">
        <ele>13.3</ele>
        <time>2023-06-28T07:29:45Z</time>
      </trkpt>
      <trkpt lat="49.95548" lon="2.14242">
        <ele>13.3</ele>
        <time>2023-06-28T07:29:46Z</time>
      </trkpt>
      <trkpt lat="49.95548" lon="2.14242">
        <ele>13.3</ele>
        <time>2023-06-28T07:29:47Z</time>
      </trkpt>
      <trkpt lat="49.95548" lon="2.14242">
        <ele>13.2</ele>
        <time>2023-06-28T07:29:48Z</time>
      </trkpt>
      <trkpt lat="49.95548" lon="2.14242">
        <ele>13.2</ele>
        <time>2023-06-28T07:29:49Z</time>
      </trkpt>
      <trkpt lat="49.95548" lon="2.14242">
        <ele>13.2</ele>
        <time>2023-06-28T07:29:50Z</time>
      </trkpt>
      <trkpt lat="49.95548" lon="2.14242">
        <ele>13.2</ele>
        <time>2023-06-28T07:29:51Z</time>
      </trkpt>
      <trkpt lat="49.95548" lon="2.14241">
        <ele>13.2</ele>
        <time>2023-06-28T07:29:52Z</time>
      </trkpt>
      <trkpt lat="49.95548" lon="2.14241">
        <ele>13.2</ele>
        <time>2023-06-28T07:29:53Z</time>
      </trkpt>
      <trkpt lat="49.95548" lon="2.14241">
        <ele>13.2</ele>
        <time>2023-06-28T07:29:54Z</time>
      </trkpt>
      <trkpt lat="49.95548" lon="2.1424">
        <ele>13.2</ele>
        <time>2023-06-28T07:29:55Z</time>
      </trkpt>
      <trkpt lat="49.95549" lon="2.14239">
        <ele>13.2</ele>
        <time>2023-06-28T07:29:56Z</time>
      </trkpt>
      <trkpt lat="49.95549" lon="2.14239">
        <ele>13.2</ele>
        <time>2023-06-28T07:29:57Z</time>
      </trkpt>
      <trkpt lat="49.9555" lon="2.14237">
        <ele>13.2</ele>
        <time>2023-06-28T07:29:58Z</time>
      </trkpt>
      <trkpt lat="49.9555" lon="2.14236">
        <ele>13.2</ele>
        <time>2023-06-28T07:29:59Z</time>
      </trkpt>
      <trkpt lat="49.95551" lon="2.14235">
        <ele>13.2</ele>
        <time>2023-06-28T07:30:00Z</time>
      </trkpt>
      <trkpt lat="49.95551" lon="2.14234">
        <ele>13.2</ele>
        <time>2023-06-28T07:30:01Z</time>
      </trkpt>
      <trkpt lat="49.95553" lon="2.14231">
        <ele>13.2</ele>
        <time>2023-06-28T07:30:02Z</time>
      </trkpt>
      <trkpt lat="49.95553" lon="2.1423">
        <ele>13.2</ele>
        <time>2023-06-28T07:30:03Z</time>
      </trkpt>
      <trkpt lat="49.95554" lon="2.14228">
        <ele>13.2</ele>
        <time>2023-06-28T07:30:04Z</time>
      </trkpt>
      <trkpt lat="49.95554" lon="2.14227">
        <ele>13.2</ele>
        <time>2023-06-28T07:30:05Z</time>
      </trkpt>
      <trkpt lat="49.95555" lon="2.14226">
        <ele>13.2</ele>
        <time>2023-06-28T07:30:06Z</time>
      </trkpt>
      <trkpt lat="49.95555" lon="2.14224">
        <ele>13.2</ele>
        <time>2023-06-28T07:30:07Z</time>
      </trkpt>
      <trkpt lat="49.95556" lon="2.14223">
        <ele>13.2</ele>
        <time>2023-06-28T07:30:08Z</time>
      </trkpt>
      <trkpt lat="49.95557" lon="2.14222">
        <ele>13.2</ele>
        <time>2023-06-28T07:30:09Z</time>
      </trkpt>
      <trkpt lat="49.95558" lon="2.1422">
        <ele>13.3</ele>
        <time>2023-06-28T07:30:10Z</time>
      </trkpt>
      <trkpt lat="49.95558" lon="2.14219">
        <ele>13.3</ele>
        <time>2023-06-28T07:30:11Z</time>
      </trkpt>
      <trkpt lat="49.95559" lon="2.14217">
        <ele>13.3</ele>
        <time>2023-06-28T07:30:12Z</time>
      </trkpt>
      <trkpt lat="49.9556" lon="2.14216">
        <ele>13.4</ele>
        <time>2023-06-28T07:30:13Z</time>
      </trkpt>
      <trkpt lat="49.95561" lon="2.14214">
        <ele>13.4</ele>
        <time>2023-06-28T07:30:14Z</time>
      </trkpt>
      <trkpt lat="49.95562" lon="2.14213">
        <ele>13.4</ele>
        <time>2023-06-28T07:30:15Z</time>
      </trkpt>
      <trkpt lat="49.95562" lon="2.14212">
        <ele>13.5</ele>
        <time>2023-06-28T07:30:16Z</time>
      </trkpt>
      <trkpt lat="49.95563" lon="2.1421">
        <ele>13.5</ele>
        <time>2023-06-28T07:30:17Z</time>
      </trkpt>
      <trkpt lat="49.95564" lon="2.14209">
        <ele>13.6</ele>
        <time>2023-06-28T07:30:18Z</time>
      </trkpt>
      <trkpt lat="49.95564" lon="2.14207">
        <ele>13.6</ele>
        <time>2023-06-28T07:30:19Z</time>
      </trkpt>
      <trkpt lat="49.95565" lon="2.14206">
        <ele>13.6</ele>
        <time>2023-06-28T07:30:20Z</time>
      </trkpt>
      <trkpt lat="49.95566" lon="2.14205">
        <ele>13.7</ele>
        <time>2023-06-28T07:30:21Z</time>
      </trkpt>
      <trkpt lat="49.95566" lon="2.14204">
        <ele>13.7</ele>
        <time>2023-06-28T07:30:22Z</time>
      </trkpt>
      <trkpt lat="49.95567" lon="2.14202">
        <ele>13.7</ele>
        <time>2023-06-28T07:30:23Z</time>
      </trkpt>
      <trkpt lat="49.95568" lon="2.14201">
        <ele>13.8</ele>
        <time>2023-06-28T07:30:24Z</time>
      </trkpt>
      <trkpt lat="49.95569" lon="2.142">
        <ele>13.8</ele>
        <time>2023-06-28T07:30:25Z</time>
      </trkpt>
      <trkpt lat="49.95569" lon="2.14199">
        <ele>13.9</ele>
        <time>2023-06-28T07:30:26Z</time>
      </trkpt>
      <trkpt lat="49.9557" lon="2.14199">
        <ele>13.9</ele>
        <time>2023-06-28T07:30:27Z</time>
      </trkpt>
      <trkpt lat="49.9557" lon="2.14198">
        <ele>13.9</ele>
        <time>2023-06-28T07:30:28Z</time>
      </trkpt>
      <trkpt lat="49.95571" lon="2.14197">
        <ele>14</ele>
        <time>2023-06-28T07:30:29Z</time>
      </trkpt>
      <trkpt lat="49.95572" lon="2.14196">
        <ele>14</ele>
        <time>2023-06-28T07:30:30Z</time>
      </trkpt>
      <trkpt lat="49.95572" lon="2.14195">
        <ele>14</ele>
        <time>2023-06-28T07:30:31Z</time>
      </trkpt>
      <trkpt lat="49.95573" lon="2.14194">
        <ele>14.1</ele>
        <time>2023-06-28T07:30:32Z</time>
      </trkpt>
      <trkpt lat="49.95574" lon="2.14193">
        <ele>14.1</ele>
        <time>2023-06-28T07:30:33Z</time>
      </trkpt>
      <trkpt lat="49.95574" lon="2.14192">
        <ele>14.1</ele>
        <time>2023-06-28T07:30:34Z</time>
      </trkpt>
      <trkpt lat="49.95575" lon="2.14191">
        <ele>14.2</ele>
        <time>2023-06-28T07:30:35Z</time>
      </trkpt>
      <trkpt lat="49.95575" lon="2.1419">
        <ele>14.2</ele>
        <time>2023-06-28T07:30:36Z</time>
      </trkpt>
      <trkpt lat="49.95576" lon="2.1419">
        <ele>14.2</ele>
        <time>2023-06-28T07:30:37Z</time>
      </trkpt>
      <trkpt lat="49.95576" lon="2.14189">
        <ele>14.2</ele>
        <time>2023-06-28T07:30:38Z</time>
      </trkpt>
      <trkpt lat="49.95577" lon="2.14188">
        <ele>14.3</ele>
        <time>2023-06-28T07:30:39Z</time>
      </trkpt>
      <trkpt lat="49.95577" lon="2.14188">
        <ele>14.3</ele>
        <time>2023-06-28T07:30:40Z</time>
      </trkpt>
      <trkpt lat="49.95578" lon="2.14187">
        <ele>14.3</ele>
        <time>2023-06-28T07:30:41Z</time>
      </trkpt>
      <trkpt lat="49.95579" lon="2.14186">
        <ele>14.4</ele>
        <time>2023-06-28T07:30:42Z</time>
      </trkpt>
      <trkpt lat="49.9558" lon="2.14185">
        <ele>14.4</ele>
        <time>2023-06-28T07:30:43Z</time>
      </trkpt>
      <trkpt lat="49.9558" lon="2.14183">
        <ele>14.5</ele>
        <time>2023-06-28T07:30:44Z</time>
      </trkpt>
      <trkpt lat="49.95581" lon="2.14182">
        <ele>14.5</ele>
        <time>2023-06-28T07:30:45Z</time>
      </trkpt>
      <trkpt lat="49.95582" lon="2.14181">
        <ele>14.5</ele>
        <time>2023-06-28T07:30:46Z</time>
      </trkpt>
      <trkpt lat="49.95582" lon="2.14179">
        <ele>14.6</ele>
        <time>2023-06-28T07:30:47Z</time>
      </trkpt>
      <trkpt lat="49.95583" lon="2.14178">
        <ele>14.6</ele>
        <time>2023-06-28T07:30:48Z</time>
      </trkpt>
      <trkpt lat="49.95584" lon="2.14177">
        <ele>14.6</ele>
        <time>2023-06-28T07:30:49Z</time>
      </trkpt>
      <trkpt lat="49.95584" lon="2.14175">
        <ele>14.7</ele>
        <time>2023-06-28T07:30:50Z</time>
      </trkpt>
      <trkpt lat="49.95585" lon="2.14174">
        <ele>14.7</ele>
        <time>2023-06-28T07:30:51Z</time>
      </trkpt>
      <trkpt lat="49.95585" lon="2.14173">
        <ele>14.7</ele>
        <time>2023-06-28T07:30:52Z</time>
      </trkpt>
      <trkpt lat="49.95586" lon="2.14171">
        <ele>14.8</ele>
        <time>2023-06-28T07:30:53Z</time>
      </trkpt>
      <trkpt lat="49.95586" lon="2.1417">
        <ele>14.8</ele>
        <time>2023-06-28T07:30:54Z</time>
      </trkpt>
      <trkpt lat="49.95587" lon="2.14169">
        <ele>14.8</ele>
        <time>2023-06-28T07:30:55Z</time>
      </trkpt>
      <trkpt lat="49.95588" lon="2.14166">
        <ele>14.8</ele>
        <time>2023-06-28T07:30:56Z</time>
      </trkpt>
      <trkpt lat="49.95589" lon="2.14165">
        <ele>14.9</ele>
        <time>2023-06-28T07:30:57Z</time>
      </trkpt>
      <trkpt lat="49.9559" lon="2.14164">
        <ele>14.9</ele>
        <time>2023-06-28T07:30:58Z</time>
      </trkpt>
      <trkpt lat="49.95591" lon="2.14161">
        <ele>14.9</ele>
        <time>2023-06-28T07:30:59Z</time>
      </trkpt>
      <trkpt lat="49.95592" lon="2.1416">
        <ele>14.9</ele>
        <time>2023-06-28T07:31:00Z</time>
      </trkpt>
      <trkpt lat="49.95592" lon="2.14159">
        <ele>14.9</ele>
        <time>2023-06-28T07:31:01Z</time>
      </trkpt>
      <trkpt lat="49.95594" lon="2.14157">
        <ele>15</ele>
        <time>2023-06-28T07:31:02Z</time>
      </trkpt>
      <trkpt lat="49.95594" lon="2.14156">
        <ele>15</ele>
        <time>2023-06-28T07:31:03Z</time>
      </trkpt>
      <trkpt lat="49.95595" lon="2.14155">
        <ele>15</ele>
        <time>2023-06-28T07:31:04Z</time>
      </trkpt>
      <trkpt lat="49.95595" lon="2.14154">
        <ele>15</ele>
        <time>2023-06-28T07:31:05Z</time>
      </trkpt>
      <trkpt lat="49.95596" lon="2.14153">
        <ele>15</ele>
        <time>2023-06-28T07:31:06Z</time>
      </trkpt>
      <trkpt lat="49.95597" lon="2.14151">
        <ele>15</ele>
        <time>2023-06-28T07:31:07Z</time>
      </trkpt>
      <trkpt lat="49.95597" lon="2.1415">
        <ele>15</ele>
        <time>2023-06-28T07:31:08Z</time>
      </trkpt>
      <trkpt lat="49.95598" lon="2.14149">
        <ele>15</ele>
        <time>2023-06-28T07:31:09Z</time>
      </trkpt>
      <trkpt lat="49.95599" lon="2.14148">
        <ele>15</ele>
        <time>2023-06-28T07:31:10Z</time>
      </trkpt>
      <trkpt lat="49.95599" lon="2.14147">
        <ele>15</ele>
        <time>2023-06-28T07:31:11Z</time>
      </trkpt>
      <trkpt lat="49.956" lon="2.14146">
        <ele>15</ele>
        <time>2023-06-28T07:31:12Z</time>
      </trkpt>
      <trkpt lat="49.956" lon="2.14145">
        <ele>15</ele>
        <time>2023-06-28T07:31:13Z</time>
      </trkpt>
      <trkpt lat="49.95601" lon="2.14144">
        <ele>15</ele>
        <time>2023-06-28T07:31:14Z</time>
      </trkpt>
      <trkpt lat="49.95602" lon="2.14142">
        <ele>14.9</ele>
        <time>2023-06-28T07:31:15Z</time>
      </trkpt>
      <trkpt lat="49.95602" lon="2.14141">
        <ele>14.9</ele>
        <time>2023-06-28T07:31:16Z</time>
      </trkpt>
      <trkpt lat="49.95602" lon="2.1414">
        <ele>14.9</ele>
        <time>2023-06-28T07:31:17Z</time>
      </trkpt>
      <trkpt lat="49.95603" lon="2.14139">
        <ele>14.9</ele>
        <time>2023-06-28T07:31:18Z</time>
      </trkpt>
      <trkpt lat="49.95604" lon="2.14138">
        <ele>14.9</ele>
        <time>2023-06-28T07:31:19Z</time>
      </trkpt>
      <trkpt lat="49.95604" lon="2.14136">
        <ele>14.9</ele>
        <time>2023-06-28T07:31:20Z</time>
      </trkpt>
      <trkpt lat="49.95605" lon="2.14135">
        <ele>14.8</ele>
        <time>2023-06-28T07:31:21Z</time>
      </trkpt>
      <trkpt lat="49.95606" lon="2.14133">
        <ele>14.8</ele>
        <time>2023-06-28T07:31:22Z</time>
      </trkpt>
      <trkpt lat="49.95606" lon="2.14132">
        <ele>14.8</ele>
        <time>2023-06-28T07:31:23Z</time>
      </trkpt>
      <trkpt lat="49.95607" lon="2.14131">
        <ele>14.7</ele>
        <time>2023-06-28T07:31:24Z</time>
      </trkpt>
      <trkpt lat="49.95608" lon="2.1413">
        <ele>14.7</ele>
        <time>2023-06-28T07:31:25Z</time>
      </trkpt>
      <trkpt lat="49.95609" lon="2.14129">
        <ele>14.6</ele>
        <time>2023-06-28T07:31:26Z</time>
      </trkpt>
      <trkpt lat="49.95609" lon="2.14128">
        <ele>14.6</ele>
        <time>2023-06-28T07:31:27Z</time>
      </trkpt>
      <trkpt lat="49.9561" lon="2.14128">
        <ele>14.5</ele>
        <time>2023-06-28T07:31:28Z</time>
      </trkpt>
      <trkpt lat="49.95611" lon="2.14128">
        <ele>14.5</ele>
        <time>2023-06-28T07:31:29Z</time>
      </trkpt>
      <trkpt lat="49.95611" lon="2.14127">
        <ele>14.5</ele>
        <time>2023-06-28T07:31:30Z</time>
      </trkpt>
      <trkpt lat="49.95612" lon="2.14127">
        <ele>14.5</ele>
        <time>2023-06-28T07:31:31Z</time>
      </trkpt>
      <trkpt lat="49.95612" lon="2.14126">
        <ele>14.4</ele>
        <time>2023-06-28T07:31:32Z</time>
      </trkpt>
      <trkpt lat="49.95612" lon="2.14125">
        <ele>14.4</ele>
        <time>2023-06-28T07:31:33Z</time>
      </trkpt>
      <trkpt lat="49.95612" lon="2.14124">
        <ele>14.4</ele>
        <time>2023-06-28T07:31:34Z</time>
      </trkpt>
      <trkpt lat="49.95612" lon="2.14122">
        <ele>14.3</ele>
        <time>2023-06-28T07:31:35Z</time>
      </trkpt>
      <trkpt lat="49.95612" lon="2.14121">
        <ele>14.3</ele>
        <time>2023-06-28T07:31:36Z</time>
      </trkpt>
      <trkpt lat="49.95612" lon="2.1412">
        <ele>14.2</ele>
        <time>2023-06-28T07:31:37Z</time>
      </trkpt>
      <trkpt lat="49.95613" lon="2.14119">
        <ele>14.2</ele>
        <time>2023-06-28T07:31:38Z</time>
      </trkpt>
      <trkpt lat="49.95613" lon="2.14118">
        <ele>14.1</ele>
        <time>2023-06-28T07:31:39Z</time>
      </trkpt>
      <trkpt lat="49.95613" lon="2.14117">
        <ele>14.1</ele>
        <time>2023-06-28T07:31:40Z</time>
      </trkpt>
      <trkpt lat="49.95614" lon="2.14116">
        <ele>14.2</ele>
        <time>2023-06-28T07:31:41Z</time>
      </trkpt>
      <trkpt lat="49.95614" lon="2.14115">
        <ele>14.2</ele>
        <time>2023-06-28T07:31:42Z</time>
      </trkpt>
      <trkpt lat="49.95615" lon="2.14114">
        <ele>14.2</ele>
        <time>2023-06-28T07:31:43Z</time>
      </trkpt>
      <trkpt lat="49.95615" lon="2.14113">
        <ele>14.1</ele>
        <time>2023-06-28T07:31:44Z</time>
      </trkpt>
      <trkpt lat="49.95616" lon="2.14111">
        <ele>14.1</ele>
        <time>2023-06-28T07:31:45Z</time>
      </trkpt>
      <trkpt lat="49.95617" lon="2.1411">
        <ele>14.2</ele>
        <time>2023-06-28T07:31:46Z</time>
      </trkpt>
      <trkpt lat="49.95618" lon="2.14108">
        <ele>14.1</ele>
        <time>2023-06-28T07:31:47Z</time>
      </trkpt>
      <trkpt lat="49.95618" lon="2.14107">
        <ele>14.1</ele>
        <time>2023-06-28T07:31:48Z</time>
      </trkpt>
      <trkpt lat="49.95619" lon="2.14106">
        <ele>14.1</ele>
        <time>2023-06-28T07:31:49Z</time>
      </trkpt>
      <trkpt lat="49.95619" lon="2.14105">
        <ele>14.1</ele>
        <time>2023-06-28T07:31:50Z</time>
      </trkpt>
      <trkpt lat="49.9562" lon="2.14104">
        <ele>14.1</ele>
        <time>2023-06-28T07:31:51Z</time>
      </trkpt>
      <trkpt lat="49.9562" lon="2.14103">
        <ele>14.1</ele>
        <time>2023-06-28T07:31:52Z</time>
      </trkpt>
      <trkpt lat="49.9562" lon="2.14102">
        <ele>14.1</ele>
        <time>2023-06-28T07:31:53Z</time>
      </trkpt>
      <trkpt lat="49.95621" lon="2.141">
        <ele>14.1</ele>
        <time>2023-06-28T07:31:54Z</time>
      </trkpt>
      <trkpt lat="49.95622" lon="2.14099">
        <ele>14.1</ele>
        <time>2023-06-28T07:31:55Z</time>
      </trkpt>
      <trkpt lat="49.95622" lon="2.14098">
        <ele>14.2</ele>
        <time>2023-06-28T07:31:56Z</time>
      </trkpt>
      <trkpt lat="49.95622" lon="2.14097">
        <ele>14.2</ele>
        <time>2023-06-28T07:31:57Z</time>
      </trkpt>
      <trkpt lat="49.95623" lon="2.14097">
        <ele>14.2</ele>
        <time>2023-06-28T07:31:58Z</time>
      </trkpt>
      <trkpt lat="49.95623" lon="2.14096">
        <ele>14.2</ele>
        <time>2023-06-28T07:31:59Z</time>
      </trkpt>
      <trkpt lat="49.95623" lon="2.14096">
        <ele>14.2</ele>
        <time>2023-06-28T07:32:00Z</time>
      </trkpt>
      <trkpt lat="49.95623" lon="2.14096">
        <ele>14.2</ele>
        <time>2023-06-28T07:32:01Z</time>
      </trkpt>
      <trkpt lat="49.95623" lon="2.14096">
        <ele>14.2</ele>
        <time>2023-06-28T07:32:02Z</time>
      </trkpt>
      <trkpt lat="49.95623" lon="2.14096">
        <ele>14.2</ele>
        <time>2023-06-28T07:32:03Z</time>
      </trkpt>
      <trkpt lat="49.95622" lon="2.14097">
        <ele>14.2</ele>
        <time>2023-06-28T07:32:04Z</time>
      </trkpt>
      <trkpt lat="49.95622" lon="2.14097">
        <ele>14.2</ele>
        <time>2023-06-28T07:32:05Z</time>
      </trkpt>
      <trkpt lat="49.95622" lon="2.14097">
        <ele>14.2</ele>
        <time>2023-06-28T07:32:06Z</time>
      </trkpt>
      <trkpt lat="49.95622" lon="2.14097">
        <ele>14.2</ele>
        <time>2023-06-28T07:32:07Z</time>
      </trkpt>
      <trkpt lat="49.95622" lon="2.14096">
        <ele>14.1</ele>
        <time>2023-06-28T07:32:08Z</time>
      </trkpt>
      <trkpt lat="49.95622" lon="2.14096">
        <ele>14</ele>
        <time>2023-06-28T07:32:09Z</time>
      </trkpt>
      <trkpt lat="49.95622" lon="2.14096">
        <ele>14</ele>
        <time>2023-06-28T07:32:10Z</time>
      </trkpt>
      <trkpt lat="49.95622" lon="2.14096">
        <ele>14.1</ele>
        <time>2023-06-28T07:32:11Z</time>
      </trkpt>
      <trkpt lat="49.95623" lon="2.14095">
        <ele>14.1</ele>
        <time>2023-06-28T07:32:12Z</time>
      </trkpt>
      <trkpt lat="49.95623" lon="2.14094">
        <ele>14.1</ele>
        <time>2023-06-28T07:32:13Z</time>
      </trkpt>
      <trkpt lat="49.95624" lon="2.14094">
        <ele>14.1</ele>
        <time>2023-06-28T07:32:14Z</time>
      </trkpt>
      <trkpt lat="49.95624" lon="2.14093">
        <ele>14.1</ele>
        <time>2023-06-28T07:32:15Z</time>
      </trkpt>
      <trkpt lat="49.95625" lon="2.14092">
        <ele>14.2</ele>
        <time>2023-06-28T07:32:16Z</time>
      </trkpt>
      <trkpt lat="49.95626" lon="2.14091">
        <ele>14.1</ele>
        <time>2023-06-28T07:32:17Z</time>
      </trkpt>
      <trkpt lat="49.95626" lon="2.14091">
        <ele>14.1</ele>
        <time>2023-06-28T07:32:18Z</time>
      </trkpt>
      <trkpt lat="49.95626" lon="2.1409">
        <ele>14.1</ele>
        <time>2023-06-28T07:32:19Z</time>
      </trkpt>
      <trkpt lat="49.95626" lon="2.1409">
        <ele>14.1</ele>
        <time>2023-06-28T07:32:20Z</time>
      </trkpt>
      <trkpt lat="49.95626" lon="2.1409">
        <ele>14.1</ele>
        <time>2023-06-28T07:32:21Z</time>
      </trkpt>
      <trkpt lat="49.95626" lon="2.1409">
        <ele>14.1</ele>
        <time>2023-06-28T07:32:22Z</time>
      </trkpt>
      <trkpt lat="49.95626" lon="2.1409">
        <ele>14.1</ele>
        <time>2023-06-28T07:32:23Z</time>
      </trkpt>
      <trkpt lat="49.95626" lon="2.1409">
        <ele>14.1</ele>
        <time>2023-06-28T07:32:24Z</time>
      </trkpt>
      <trkpt lat="49.95626" lon="2.1409">
        <ele>14.1</ele>
        <time>2023-06-28T07:32:25Z</time>
      </trkpt>
      <trkpt lat="49.95626" lon="2.1409">
        <ele>14.1</ele>
        <time>2023-06-28T07:32:26Z</time>
      </trkpt>
      <trkpt lat="49.95626" lon="2.1409">
        <ele>14.1</ele>
        <time>2023-06-28T07:32:27Z</time>
      </trkpt>
      <trkpt lat="49.95626" lon="2.1409">
        <ele>14.1</ele>
        <time>2023-06-28T07:32:28Z</time>
      </trkpt>
      <trkpt lat="49.95626" lon="2.1409">
        <ele>14.1</ele>
        <time>2023-06-28T07:32:29Z</time>
      </trkpt>
      <trkpt lat="49.95626" lon="2.1409">
        <ele>14.1</ele>
        <time>2023-06-28T07:32:30Z</time>
      </trkpt>
      <trkpt lat="49.95626" lon="2.1409">
        <ele>14.1</ele>
        <time>2023-06-28T07:32:31Z</time>
      </trkpt>
      <trkpt lat="49.95626" lon="2.1409">
        <ele>14.1</ele>
        <time>2023-06-28T07:32:32Z</time>
      </trkpt>
      <trkpt lat="49.95626" lon="2.1409">
        <ele>14.1</ele>
        <time>2023-06-28T07:32:33Z</time>
      </trkpt>
      <trkpt lat="49.95626" lon="2.1409">
        <ele>14.1</ele>
        <time>2023-06-28T07:32:34Z</time>
      </trkpt>
      <trkpt lat="49.95626" lon="2.1409">
        <ele>14.1</ele>
        <time>2023-06-28T07:32:35Z</time>
      </trkpt>
      <trkpt lat="49.95626" lon="2.1409">
        <ele>14.1</ele>
        <time>2023-06-28T07:32:36Z</time>
      </trkpt>
      <trkpt lat="49.95627" lon="2.14089">
        <ele>14.1</ele>
        <time>2023-06-28T07:32:37Z</time>
      </trkpt>
      <trkpt lat="49.95628" lon="2.14088">
        <ele>14.3</ele>
        <time>2023-06-28T07:32:38Z</time>
      </trkpt>
      <trkpt lat="49.95628" lon="2.14088">
        <ele>14.3</ele>
        <time>2023-06-28T07:32:39Z</time>
      </trkpt>
      <trkpt lat="49.95629" lon="2.14087">
        <ele>14.2</ele>
        <time>2023-06-28T07:32:40Z</time>
      </trkpt>
      <trkpt lat="49.9563" lon="2.14086">
        <ele>14.2</ele>
        <time>2023-06-28T07:32:41Z</time>
      </trkpt>
      <trkpt lat="49.95631" lon="2.14085">
        <ele>14.3</ele>
        <time>2023-06-28T07:32:42Z</time>
      </trkpt>
      <trkpt lat="49.95631" lon="2.14085">
        <ele>14.3</ele>
        <time>2023-06-28T07:32:43Z</time>
      </trkpt>
      <trkpt lat="49.95632" lon="2.14084">
        <ele>14.3</ele>
        <time>2023-06-28T07:32:44Z</time>
      </trkpt>
      <trkpt lat="49.95633" lon="2.14083">
        <ele>14.3</ele>
        <time>2023-06-28T07:32:45Z</time>
      </trkpt>
      <trkpt lat="49.95633" lon="2.14083">
        <ele>14.3</ele>
        <time>2023-06-28T07:32:46Z</time>
      </trkpt>
      <trkpt lat="49.95634" lon="2.14082">
        <ele>14.3</ele>
        <time>2023-06-28T07:32:47Z</time>
      </trkpt>
      <trkpt lat="49.95634" lon="2.14082">
        <ele>14.3</ele>
        <time>2023-06-28T07:32:48Z</time>
      </trkpt>
      <trkpt lat="49.95634" lon="2.14081">
        <ele>14.3</ele>
        <time>2023-06-28T07:32:49Z</time>
      </trkpt>
      <trkpt lat="49.95635" lon="2.14081">
        <ele>14.3</ele>
        <time>2023-06-28T07:32:50Z</time>
      </trkpt>
      <trkpt lat="49.95636" lon="2.1408">
        <ele>14.5</ele>
        <time>2023-06-28T07:32:51Z</time>
      </trkpt>
      <trkpt lat="49.95636" lon="2.14079">
        <ele>14.5</ele>
        <time>2023-06-28T07:32:52Z</time>
      </trkpt>
      <trkpt lat="49.95637" lon="2.14079">
        <ele>14.4</ele>
        <time>2023-06-28T07:32:53Z</time>
      </trkpt>
      <trkpt lat="49.95637" lon="2.14078">
        <ele>14.4</ele>
        <time>2023-06-28T07:32:54Z</time>
      </trkpt>
      <trkpt lat="49.95638" lon="2.14077">
        <ele>14.4</ele>
        <time>2023-06-28T07:32:55Z</time>
      </trkpt>
      <trkpt lat="49.95638" lon="2.14077">
        <ele>14.4</ele>
        <time>2023-06-28T07:32:56Z</time>
      </trkpt>
      <trkpt lat="49.95638" lon="2.14076">
        <ele>14.4</ele>
        <time>2023-06-28T07:32:57Z</time>
      </trkpt>
      <trkpt lat="49.95639" lon="2.14076">
        <ele>14.5</ele>
        <time>2023-06-28T07:32:58Z</time>
      </trkpt>
      <trkpt lat="49.95639" lon="2.14075">
        <ele>14.5</ele>
        <time>2023-06-28T07:32:59Z</time>
      </trkpt>
      <trkpt lat="49.95639" lon="2.14075">
        <ele>14.4</ele>
        <time>2023-06-28T07:33:00Z</time>
      </trkpt>
      <trkpt lat="49.95639" lon="2.14074">
        <ele>14.4</ele>
        <time>2023-06-28T07:33:01Z</time>
      </trkpt>
      <trkpt lat="49.95639" lon="2.14073">
        <ele>14.4</ele>
        <time>2023-06-28T07:33:02Z</time>
      </trkpt>
      <trkpt lat="49.9564" lon="2.14073">
        <ele>14.4</ele>
        <time>2023-06-28T07:33:03Z</time>
      </trkpt>
      <trkpt lat="49.9564" lon="2.14071">
        <ele>14.4</ele>
        <time>2023-06-28T07:33:04Z</time>
      </trkpt>
      <trkpt lat="49.95641" lon="2.1407">
        <ele>14.3</ele>
        <time>2023-06-28T07:33:05Z</time>
      </trkpt>
      <trkpt lat="49.95642" lon="2.14069">
        <ele>14.4</ele>
        <time>2023-06-28T07:33:06Z</time>
      </trkpt>
      <trkpt lat="49.95643" lon="2.14067">
        <ele>14.4</ele>
        <time>2023-06-28T07:33:07Z</time>
      </trkpt>
      <trkpt lat="49.95644" lon="2.14066">
        <ele>14.4</ele>
        <time>2023-06-28T07:33:08Z</time>
      </trkpt>
      <trkpt lat="49.95644" lon="2.14065">
        <ele>14.5</ele>
        <time>2023-06-28T07:33:09Z</time>
      </trkpt>
      <trkpt lat="49.95645" lon="2.14064">
        <ele>14.5</ele>
        <time>2023-06-28T07:33:10Z</time>
      </trkpt>
      <trkpt lat="49.95646" lon="2.14062">
        <ele>14.5</ele>
        <time>2023-06-28T07:33:11Z</time>
      </trkpt>
      <trkpt lat="49.95647" lon="2.14061">
        <ele>14.4</ele>
        <time>2023-06-28T07:33:12Z</time>
      </trkpt>
      <trkpt lat="49.95647" lon="2.14061">
        <ele>14.5</ele>
        <time>2023-06-28T07:33:13Z</time>
      </trkpt>
      <trkpt lat="49.95648" lon="2.1406">
        <ele>14.5</ele>
        <time>2023-06-28T07:33:14Z</time>
      </trkpt>
      <trkpt lat="49.95648" lon="2.14059">
        <ele>14.5</ele>
        <time>2023-06-28T07:33:15Z</time>
      </trkpt>
      <trkpt lat="49.95649" lon="2.14058">
        <ele>14.5</ele>
        <time>2023-06-28T07:33:16Z</time>
      </trkpt>
      <trkpt lat="49.9565" lon="2.14056">
        <ele>14.5</ele>
        <time>2023-06-28T07:33:17Z</time>
      </trkpt>
      <trkpt lat="49.9565" lon="2.14055">
        <ele>14.5</ele>
        <time>2023-06-28T07:33:18Z</time>
      </trkpt>
      <trkpt lat="49.95651" lon="2.14054">
        <ele>14.5</ele>
        <time>2023-06-28T07:33:19Z</time>
      </trkpt>
      <trkpt lat="49.95652" lon="2.14053">
        <ele>14.5</ele>
        <time>2023-06-28T07:33:20Z</time>
      </trkpt>
      <trkpt lat="49.95652" lon="2.14052">
        <ele>14.5</ele>
        <time>2023-06-28T07:33:21Z</time>
      </trkpt>
      <trkpt lat="49.95653" lon="2.14052">
        <ele>14.5</ele>
        <time>2023-06-28T07:33:22Z</time>
      </trkpt>
      <trkpt lat="49.95654" lon="2.1405">
        <ele>14.5</ele>
        <time>2023-06-28T07:33:23Z</time>
      </trkpt>
      <trkpt lat="49.95654" lon="2.14049">
        <ele>14.5</ele>
        <time>2023-06-28T07:33:24Z</time>
      </trkpt>
      <trkpt lat="49.95655" lon="2.14048">
        <ele>14.5</ele>
        <time>2023-06-28T07:33:25Z</time>
      </trkpt>
      <trkpt lat="49.95655" lon="2.14047">
        <ele>14.6</ele>
        <time>2023-06-28T07:33:26Z</time>
      </trkpt>
      <trkpt lat="49.95656" lon="2.14046">
        <ele>14.6</ele>
        <time>2023-06-28T07:33:27Z</time>
      </trkpt>
      <trkpt lat="49.95656" lon="2.14045">
        <ele>14.6</ele>
        <time>2023-06-28T07:33:28Z</time>
      </trkpt>
      <trkpt lat="49.95656" lon="2.14044">
        <ele>14.5</ele>
        <time>2023-06-28T07:33:29Z</time>
      </trkpt>
      <trkpt lat="49.95657" lon="2.14043">
        <ele>14.5</ele>
        <time>2023-06-28T07:33:30Z</time>
      </trkpt>
      <trkpt lat="49.95657" lon="2.14043">
        <ele>14.5</ele>
        <time>2023-06-28T07:33:31Z</time>
      </trkpt>
      <trkpt lat="49.95657" lon="2.14042">
        <ele>14.5</ele>
        <time>2023-06-28T07:33:32Z</time>
      </trkpt>
      <trkpt lat="49.95657" lon="2.14041">
        <ele>14.5</ele>
        <time>2023-06-28T07:33:33Z</time>
      </trkpt>
      <trkpt lat="49.95658" lon="2.1404">
        <ele>14.5</ele>
        <time>2023-06-28T07:33:34Z</time>
      </trkpt>
      <trkpt lat="49.95658" lon="2.14039">
        <ele>14.5</ele>
        <time>2023-06-28T07:33:35Z</time>
      </trkpt>
      <trkpt lat="49.95658" lon="2.14037">
        <ele>14.5</ele>
        <time>2023-06-28T07:33:36Z</time>
      </trkpt>
      <trkpt lat="49.95659" lon="2.14036">
        <ele>14.4</ele>
        <time>2023-06-28T07:33:37Z</time>
      </trkpt>
      <trkpt lat="49.95659" lon="2.14034">
        <ele>14.4</ele>
        <time>2023-06-28T07:33:38Z</time>
      </trkpt>
      <trkpt lat="49.95659" lon="2.14033">
        <ele>14.4</ele>
        <time>2023-06-28T07:33:39Z</time>
      </trkpt>
      <trkpt lat="49.95659" lon="2.14032">
        <ele>14.4</ele>
        <time>2023-06-28T07:33:40Z</time>
      </trkpt>
      <trkpt lat="49.9566" lon="2.14031">
        <ele>14.3</ele>
        <time>2023-06-28T07:33:41Z</time>
      </trkpt>
      <trkpt lat="49.9566" lon="2.1403">
        <ele>14.3</ele>
        <time>2023-06-28T07:33:42Z</time>
      </trkpt>
      <trkpt lat="49.9566" lon="2.14029">
        <ele>14.3</ele>
        <time>2023-06-28T07:33:43Z</time>
      </trkpt>
      <trkpt lat="49.9566" lon="2.14029">
        <ele>14.3</ele>
        <time>2023-06-28T07:33:44Z</time>
      </trkpt>
      <trkpt lat="49.9566" lon="2.14029">
        <ele>14.3</ele>
        <time>2023-06-28T07:33:45Z</time>
      </trkpt>
      <trkpt lat="49.9566" lon="2.14028">
        <ele>14.3</ele>
        <time>2023-06-28T07:33:46Z</time>
      </trkpt>
      <trkpt lat="49.9566" lon="2.14028">
        <ele>14.3</ele>
        <time>2023-06-28T07:33:47Z</time>
      </trkpt>
      <trkpt lat="49.9566" lon="2.14027">
        <ele>14.2</ele>
        <time>2023-06-28T07:33:48Z</time>
      </trkpt>
      <trkpt lat="49.9566" lon="2.14027">
        <ele>14.2</ele>
        <time>2023-06-28T07:33:49Z</time>
      </trkpt>
      <trkpt lat="49.9566" lon="2.14027">
        <ele>14.2</ele>
        <time>2023-06-28T07:33:50Z</time>
      </trkpt>
      <trkpt lat="49.9566" lon="2.14026">
        <ele>14.2</ele>
        <time>2023-06-28T07:33:51Z</time>
      </trkpt>
      <trkpt lat="49.9566" lon="2.14025">
        <ele>14.2</ele>
        <time>2023-06-28T07:33:52Z</time>
      </trkpt>
      <trkpt lat="49.9566" lon="2.14025">
        <ele>14.2</ele>
        <time>2023-06-28T07:33:53Z</time>
      </trkpt>
      <trkpt lat="49.95661" lon="2.14024">
        <ele>14.3</ele>
        <time>2023-06-28T07:33:54Z</time>
      </trkpt>
      <trkpt lat="49.95661" lon="2.14023">
        <ele>14.4</ele>
        <time>2023-06-28T07:33:55Z</time>
      </trkpt>
      <trkpt lat="49.95662" lon="2.14022">
        <ele>14.3</ele>
        <time>2023-06-28T07:33:56Z</time>
      </trkpt>
      <trkpt lat="49.95662" lon="2.14022">
        <ele>14.3</ele>
        <time>2023-06-28T07:33:57Z</time>
      </trkpt>
      <trkpt lat="49.95664" lon="2.14021">
        <ele>14.4</ele>
        <time>2023-06-28T07:33:58Z</time>
      </trkpt>
      <trkpt lat="49.95664" lon="2.14021">
        <ele>14.4</ele>
        <time>2023-06-28T07:33:59Z</time>
      </trkpt>
      <trkpt lat="49.95665" lon="2.14019">
        <ele>14.4</ele>
        <time>2023-06-28T07:34:00Z</time>
      </trkpt>
      <trkpt lat="49.95665" lon="2.14018">
        <ele>14.3</ele>
        <time>2023-06-28T07:34:01Z</time>
      </trkpt>
      <trkpt lat="49.95666" lon="2.14017">
        <ele>14.3</ele>
        <time>2023-06-28T07:34:02Z</time>
      </trkpt>
      <trkpt lat="49.95667" lon="2.14016">
        <ele>14.4</ele>
        <time>2023-06-28T07:34:03Z</time>
      </trkpt>
      <trkpt lat="49.95667" lon="2.14014">
        <ele>14.3</ele>
        <time>2023-06-28T07:34:04Z</time>
      </trkpt>
      <trkpt lat="49.95668" lon="2.14013">
        <ele>14.3</ele>
        <time>2023-06-28T07:34:05Z</time>
      </trkpt>
      <trkpt lat="49.95669" lon="2.14011">
        <ele>14.3</ele>
        <time>2023-06-28T07:34:06Z</time>
      </trkpt>
      <trkpt lat="49.95669" lon="2.14009">
        <ele>14.3</ele>
        <time>2023-06-28T07:34:07Z</time>
      </trkpt>
      <trkpt lat="49.9567" lon="2.14008">
        <ele>14.3</ele>
        <time>2023-06-28T07:34:08Z</time>
      </trkpt>
      <trkpt lat="49.95671" lon="2.14007">
        <ele>14.3</ele>
        <time>2023-06-28T07:34:09Z</time>
      </trkpt>
      <trkpt lat="49.95671" lon="2.14005">
        <ele>14.2</ele>
        <time>2023-06-28T07:34:10Z</time>
      </trkpt>
      <trkpt lat="49.95672" lon="2.14004">
        <ele>14.3</ele>
        <time>2023-06-28T07:34:11Z</time>
      </trkpt>
      <trkpt lat="49.95672" lon="2.14003">
        <ele>14.3</ele>
        <time>2023-06-28T07:34:12Z</time>
      </trkpt>
      <trkpt lat="49.95673" lon="2.14002">
        <ele>14.3</ele>
        <time>2023-06-28T07:34:13Z</time>
      </trkpt>
      <trkpt lat="49.95673" lon="2.14001">
        <ele>14.2</ele>
        <time>2023-06-28T07:34:14Z</time>
      </trkpt>
      <trkpt lat="49.95674" lon="2.14">
        <ele>14.2</ele>
        <time>2023-06-28T07:34:15Z</time>
      </trkpt>
      <trkpt lat="49.95674" lon="2.13999">
        <ele>14.2</ele>
        <time>2023-06-28T07:34:16Z</time>
      </trkpt>
      <trkpt lat="49.95675" lon="2.13997">
        <ele>14.3</ele>
        <time>2023-06-28T07:34:17Z</time>
      </trkpt>
      <trkpt lat="49.95675" lon="2.13996">
        <ele>14.3</ele>
        <time>2023-06-28T07:34:18Z</time>
      </trkpt>
      <trkpt lat="49.95676" lon="2.13995">
        <ele>14.3</ele>
        <time>2023-06-28T07:34:19Z</time>
      </trkpt>
      <trkpt lat="49.95676" lon="2.13994">
        <ele>14.3</ele>
        <time>2023-06-28T07:34:20Z</time>
      </trkpt>
      <trkpt lat="49.95677" lon="2.13993">
        <ele>14.3</ele>
        <time>2023-06-28T07:34:21Z</time>
      </trkpt>
      <trkpt lat="49.95677" lon="2.13992">
        <ele>14.3</ele>
        <time>2023-06-28T07:34:22Z</time>
      </trkpt>
      <trkpt lat="49.95678" lon="2.13991">
        <ele>14.3</ele>
        <time>2023-06-28T07:34:23Z</time>
      </trkpt>
      <trkpt lat="49.95678" lon="2.1399">
        <ele>14.3</ele>
        <time>2023-06-28T07:34:24Z</time>
      </trkpt>
      <trkpt lat="49.95679" lon="2.13989">
        <ele>14.3</ele>
        <time>2023-06-28T07:34:25Z</time>
      </trkpt>
      <trkpt lat="49.95679" lon="2.13988">
        <ele>14.2</ele>
        <time>2023-06-28T07:34:26Z</time>
      </trkpt>
      <trkpt lat="49.9568" lon="2.13987">
        <ele>14.2</ele>
        <time>2023-06-28T07:34:27Z</time>
      </trkpt>
      <trkpt lat="49.9568" lon="2.13987">
        <ele>14.3</ele>
        <time>2023-06-28T07:34:28Z</time>
      </trkpt>
      <trkpt lat="49.9568" lon="2.13986">
        <ele>14.3</ele>
        <time>2023-06-28T07:34:29Z</time>
      </trkpt>
      <trkpt lat="49.95681" lon="2.13985">
        <ele>14.3</ele>
        <time>2023-06-28T07:34:30Z</time>
      </trkpt>
      <trkpt lat="49.95681" lon="2.13984">
        <ele>14.2</ele>
        <time>2023-06-28T07:34:31Z</time>
      </trkpt>
      <trkpt lat="49.95682" lon="2.13983">
        <ele>14.2</ele>
        <time>2023-06-28T07:34:32Z</time>
      </trkpt>
      <trkpt lat="49.95683" lon="2.13982">
        <ele>14.3</ele>
        <time>2023-06-28T07:34:33Z</time>
      </trkpt>
      <trkpt lat="49.95683" lon="2.1398">
        <ele>14.3</ele>
        <time>2023-06-28T07:34:34Z</time>
      </trkpt>
      <trkpt lat="49.95684" lon="2.13979">
        <ele>14.2</ele>
        <time>2023-06-28T07:34:35Z</time>
      </trkpt>
      <trkpt lat="49.95684" lon="2.13978">
        <ele>14.2</ele>
        <time>2023-06-28T07:34:36Z</time>
      </trkpt>
      <trkpt lat="49.95685" lon="2.13977">
        <ele>14.2</ele>
        <time>2023-06-28T07:34:37Z</time>
      </trkpt>
      <trkpt lat="49.95686" lon="2.13975">
        <ele>14.2</ele>
        <time>2023-06-28T07:34:38Z</time>
      </trkpt>
      <trkpt lat="49.95687" lon="2.13974">
        <ele>14.2</ele>
        <time>2023-06-28T07:34:39Z</time>
      </trkpt>
      <trkpt lat="49.95687" lon="2.13972">
        <ele>14.2</ele>
        <time>2023-06-28T07:34:40Z</time>
      </trkpt>
      <trkpt lat="49.95689" lon="2.13969">
        <ele>14.3</ele>
        <time>2023-06-28T07:34:41Z</time>
      </trkpt>
      <trkpt lat="49.95689" lon="2.13968">
        <ele>14.3</ele>
        <time>2023-06-28T07:34:42Z</time>
      </trkpt>
      <trkpt lat="49.95689" lon="2.13967">
        <ele>14.2</ele>
        <time>2023-06-28T07:34:43Z</time>
      </trkpt>
      <trkpt lat="49.9569" lon="2.13966">
        <ele>14.2</ele>
        <time>2023-06-28T07:34:44Z</time>
      </trkpt>
      <trkpt lat="49.95691" lon="2.13964">
        <ele>14.2</ele>
        <time>2023-06-28T07:34:45Z</time>
      </trkpt>
      <trkpt lat="49.95691" lon="2.13963">
        <ele>14.2</ele>
        <time>2023-06-28T07:34:46Z</time>
      </trkpt>
      <trkpt lat="49.95692" lon="2.13962">
        <ele>14.2</ele>
        <time>2023-06-28T07:34:47Z</time>
      </trkpt>
      <trkpt lat="49.95693" lon="2.1396">
        <ele>14.2</ele>
        <time>2023-06-28T07:34:48Z</time>
      </trkpt>
      <trkpt lat="49.95693" lon="2.13959">
        <ele>14.2</ele>
        <time>2023-06-28T07:34:49Z</time>
      </trkpt>
      <trkpt lat="49.95694" lon="2.13958">
        <ele>14.2</ele>
        <time>2023-06-28T07:34:50Z</time>
      </trkpt>
      <trkpt lat="49.95695" lon="2.13956">
        <ele>14.2</ele>
        <time>2023-06-28T07:34:51Z</time>
      </trkpt>
      <trkpt lat="49.95695" lon="2.13955">
        <ele>14.2</ele>
        <time>2023-06-28T07:34:52Z</time>
      </trkpt>
      <trkpt lat="49.95697" lon="2.13953">
        <ele>14.2</ele>
        <time>2023-06-28T07:34:53Z</time>
      </trkpt>
      <trkpt lat="49.95697" lon="2.13952">
        <ele>14.2</ele>
        <time>2023-06-28T07:34:54Z</time>
      </trkpt>
      <trkpt lat="49.95698" lon="2.13951">
        <ele>14.2</ele>
        <time>2023-06-28T07:34:55Z</time>
      </trkpt>
      <trkpt lat="49.95698" lon="2.13949">
        <ele>14.2</ele>
        <time>2023-06-28T07:34:56Z</time>
      </trkpt>
      <trkpt lat="49.95699" lon="2.13948">
        <ele>14.2</ele>
        <time>2023-06-28T07:34:57Z</time>
      </trkpt>
      <trkpt lat="49.957" lon="2.13947">
        <ele>14.3</ele>
        <time>2023-06-28T07:34:58Z</time>
      </trkpt>
      <trkpt lat="49.957" lon="2.13946">
        <ele>14.3</ele>
        <time>2023-06-28T07:34:59Z</time>
      </trkpt>
      <trkpt lat="49.95701" lon="2.13945">
        <ele>14.2</ele>
        <time>2023-06-28T07:35:00Z</time>
      </trkpt>
      <trkpt lat="49.95701" lon="2.13943">
        <ele>14.2</ele>
        <time>2023-06-28T07:35:01Z</time>
      </trkpt>
      <trkpt lat="49.95702" lon="2.13942">
        <ele>14.2</ele>
        <time>2023-06-28T07:35:02Z</time>
      </trkpt>
      <trkpt lat="49.95702" lon="2.13941">
        <ele>14.2</ele>
        <time>2023-06-28T07:35:03Z</time>
      </trkpt>
      <trkpt lat="49.95703" lon="2.1394">
        <ele>14.2</ele>
        <time>2023-06-28T07:35:04Z</time>
      </trkpt>
      <trkpt lat="49.95704" lon="2.13938">
        <ele>14.2</ele>
        <time>2023-06-28T07:35:05Z</time>
      </trkpt>
      <trkpt lat="49.95704" lon="2.13937">
        <ele>14.1</ele>
        <time>2023-06-28T07:35:06Z</time>
      </trkpt>
      <trkpt lat="49.95705" lon="2.13936">
        <ele>14.2</ele>
        <time>2023-06-28T07:35:07Z</time>
      </trkpt>
      <trkpt lat="49.95705" lon="2.13935">
        <ele>14.2</ele>
        <time>2023-06-28T07:35:08Z</time>
      </trkpt>
      <trkpt lat="49.95706" lon="2.13933">
        <ele>14.2</ele>
        <time>2023-06-28T07:35:09Z</time>
      </trkpt>
      <trkpt lat="49.95707" lon="2.13932">
        <ele>14.1</ele>
        <time>2023-06-28T07:35:10Z</time>
      </trkpt>
      <trkpt lat="49.95707" lon="2.13931">
        <ele>14.3</ele>
        <time>2023-06-28T07:35:11Z</time>
      </trkpt>
      <trkpt lat="49.95708" lon="2.1393">
        <ele>14.3</ele>
        <time>2023-06-28T07:35:12Z</time>
      </trkpt>
      <trkpt lat="49.95709" lon="2.13929">
        <ele>14.3</ele>
        <time>2023-06-28T07:35:13Z</time>
      </trkpt>
      <trkpt lat="49.95709" lon="2.13928">
        <ele>14.2</ele>
        <time>2023-06-28T07:35:14Z</time>
      </trkpt>
      <trkpt lat="49.9571" lon="2.13927">
        <ele>14.2</ele>
        <time>2023-06-28T07:35:15Z</time>
      </trkpt>
      <trkpt lat="49.9571" lon="2.13926">
        <ele>14.3</ele>
        <time>2023-06-28T07:35:16Z</time>
      </trkpt>
      <trkpt lat="49.95711" lon="2.13925">
        <ele>14.3</ele>
        <time>2023-06-28T07:35:17Z</time>
      </trkpt>
      <trkpt lat="49.95712" lon="2.13924">
        <ele>14.2</ele>
        <time>2023-06-28T07:35:18Z</time>
      </trkpt>
      <trkpt lat="49.95712" lon="2.13923">
        <ele>14.2</ele>
        <time>2023-06-28T07:35:19Z</time>
      </trkpt>
      <trkpt lat="49.95713" lon="2.13922">
        <ele>14.2</ele>
        <time>2023-06-28T07:35:20Z</time>
      </trkpt>
      <trkpt lat="49.95713" lon="2.13921">
        <ele>14.3</ele>
        <time>2023-06-28T07:35:21Z</time>
      </trkpt>
      <trkpt lat="49.95714" lon="2.1392">
        <ele>14.3</ele>
        <time>2023-06-28T07:35:22Z</time>
      </trkpt>
      <trkpt lat="49.95714" lon="2.13919">
        <ele>14.2</ele>
        <time>2023-06-28T07:35:23Z</time>
      </trkpt>
      <trkpt lat="49.95715" lon="2.13918">
        <ele>14.2</ele>
        <time>2023-06-28T07:35:24Z</time>
      </trkpt>
      <trkpt lat="49.95716" lon="2.13917">
        <ele>14.2</ele>
        <time>2023-06-28T07:35:25Z</time>
      </trkpt>
      <trkpt lat="49.95716" lon="2.13916">
        <ele>14.3</ele>
        <time>2023-06-28T07:35:26Z</time>
      </trkpt>
      <trkpt lat="49.95717" lon="2.13915">
        <ele>14.2</ele>
        <time>2023-06-28T07:35:27Z</time>
      </trkpt>
      <trkpt lat="49.95717" lon="2.13914">
        <ele>14.2</ele>
        <time>2023-06-28T07:35:28Z</time>
      </trkpt>
      <trkpt lat="49.95718" lon="2.13913">
        <ele>14.2</ele>
        <time>2023-06-28T07:35:29Z</time>
      </trkpt>
      <trkpt lat="49.95718" lon="2.13912">
        <ele>14.2</ele>
        <time>2023-06-28T07:35:30Z</time>
      </trkpt>
      <trkpt lat="49.95719" lon="2.13911">
        <ele>14.2</ele>
        <time>2023-06-28T07:35:31Z</time>
      </trkpt>
      <trkpt lat="49.95719" lon="2.1391">
        <ele>14.2</ele>
        <time>2023-06-28T07:35:32Z</time>
      </trkpt>
      <trkpt lat="49.9572" lon="2.13909">
        <ele>14.2</ele>
        <time>2023-06-28T07:35:33Z</time>
      </trkpt>
      <trkpt lat="49.95721" lon="2.13908">
        <ele>14.2</ele>
        <time>2023-06-28T07:35:34Z</time>
      </trkpt>
      <trkpt lat="49.95722" lon="2.13907">
        <ele>14.3</ele>
        <time>2023-06-28T07:35:35Z</time>
      </trkpt>
      <trkpt lat="49.95722" lon="2.13907">
        <ele>14.3</ele>
        <time>2023-06-28T07:35:36Z</time>
      </trkpt>
      <trkpt lat="49.95723" lon="2.13905">
        <ele>14.3</ele>
        <time>2023-06-28T07:35:37Z</time>
      </trkpt>
      <trkpt lat="49.95724" lon="2.13904">
        <ele>14.3</ele>
        <time>2023-06-28T07:35:38Z</time>
      </trkpt>
      <trkpt lat="49.95724" lon="2.13903">
        <ele>14.4</ele>
        <time>2023-06-28T07:35:39Z</time>
      </trkpt>
      <trkpt lat="49.95725" lon="2.13903">
        <ele>14.3</ele>
        <time>2023-06-28T07:35:40Z</time>
      </trkpt>
      <trkpt lat="49.95725" lon="2.13902">
        <ele>14.3</ele>
        <time>2023-06-28T07:35:41Z</time>
      </trkpt>
      <trkpt lat="49.95726" lon="2.13901">
        <ele>14.3</ele>
        <time>2023-06-28T07:35:42Z</time>
      </trkpt>
      <trkpt lat="49.95726" lon="2.139">
        <ele>14.3</ele>
        <time>2023-06-28T07:35:43Z</time>
      </trkpt>
      <trkpt lat="49.95727" lon="2.13899">
        <ele>14.3</ele>
        <time>2023-06-28T07:35:44Z</time>
      </trkpt>
      <trkpt lat="49.95727" lon="2.13898">
        <ele>14.3</ele>
        <time>2023-06-28T07:35:45Z</time>
      </trkpt>
      <trkpt lat="49.95727" lon="2.13897">
        <ele>14.3</ele>
        <time>2023-06-28T07:35:46Z</time>
      </trkpt>
      <trkpt lat="49.95728" lon="2.13896">
        <ele>14.3</ele>
        <time>2023-06-28T07:35:47Z</time>
      </trkpt>
      <trkpt lat="49.95728" lon="2.13895">
        <ele>14.3</ele>
        <time>2023-06-28T07:35:48Z</time>
      </trkpt>
      <trkpt lat="49.95729" lon="2.13894">
        <ele>14.2</ele>
        <time>2023-06-28T07:35:49Z</time>
      </trkpt>
      <trkpt lat="49.95729" lon="2.13893">
        <ele>14.2</ele>
        <time>2023-06-28T07:35:50Z</time>
      </trkpt>
      <trkpt lat="49.9573" lon="2.13893">
        <ele>14.3</ele>
        <time>2023-06-28T07:35:51Z</time>
      </trkpt>
      <trkpt lat="49.9573" lon="2.13892">
        <ele>14.3</ele>
        <time>2023-06-28T07:35:52Z</time>
      </trkpt>
      <trkpt lat="49.95731" lon="2.13891">
        <ele>14.3</ele>
        <time>2023-06-28T07:35:53Z</time>
      </trkpt>
      <trkpt lat="49.95731" lon="2.1389">
        <ele>14.2</ele>
        <time>2023-06-28T07:35:54Z</time>
      </trkpt>
      <trkpt lat="49.95732" lon="2.13889">
        <ele>14.2</ele>
        <time>2023-06-28T07:35:55Z</time>
      </trkpt>
      <trkpt lat="49.95732" lon="2.13889">
        <ele>14.2</ele>
        <time>2023-06-28T07:35:56Z</time>
      </trkpt>
      <trkpt lat="49.95732" lon="2.13888">
        <ele>14.3</ele>
        <time>2023-06-28T07:35:57Z</time>
      </trkpt>
      <trkpt lat="49.95733" lon="2.13887">
        <ele>14.3</ele>
        <time>2023-06-28T07:35:58Z</time>
      </trkpt>
      <trkpt lat="49.95733" lon="2.13886">
        <ele>14.3</ele>
        <time>2023-06-28T07:35:59Z</time>
      </trkpt>
      <trkpt lat="49.95734" lon="2.13885">
        <ele>14.2</ele>
        <time>2023-06-28T07:36:00Z</time>
      </trkpt>
      <trkpt lat="49.95734" lon="2.13884">
        <ele>14.2</ele>
        <time>2023-06-28T07:36:01Z</time>
      </trkpt>
      <trkpt lat="49.95735" lon="2.13883">
        <ele>14.2</ele>
        <time>2023-06-28T07:36:02Z</time>
      </trkpt>
      <trkpt lat="49.95735" lon="2.13881">
        <ele>14.1</ele>
        <time>2023-06-28T07:36:03Z</time>
      </trkpt>
      <trkpt lat="49.95735" lon="2.1388">
        <ele>14.2</ele>
        <time>2023-06-28T07:36:04Z</time>
      </trkpt>
      <trkpt lat="49.95736" lon="2.13878">
        <ele>14.2</ele>
        <time>2023-06-28T07:36:05Z</time>
      </trkpt>
      <trkpt lat="49.95736" lon="2.13877">
        <ele>14.2</ele>
        <time>2023-06-28T07:36:06Z</time>
      </trkpt>
      <trkpt lat="49.95737" lon="2.13876">
        <ele>14.1</ele>
        <time>2023-06-28T07:36:07Z</time>
      </trkpt>
      <trkpt lat="49.95738" lon="2.13875">
        <ele>14.1</ele>
        <time>2023-06-28T07:36:08Z</time>
      </trkpt>
      <trkpt lat="49.95738" lon="2.13873">
        <ele>14.2</ele>
        <time>2023-06-28T07:36:09Z</time>
      </trkpt>
      <trkpt lat="49.95739" lon="2.13872">
        <ele>14.1</ele>
        <time>2023-06-28T07:36:10Z</time>
      </trkpt>
      <trkpt lat="49.95739" lon="2.1387">
        <ele>14.1</ele>
        <time>2023-06-28T07:36:11Z</time>
      </trkpt>
      <trkpt lat="49.9574" lon="2.13869">
        <ele>14.1</ele>
        <time>2023-06-28T07:36:12Z</time>
      </trkpt>
      <trkpt lat="49.9574" lon="2.13868">
        <ele>14</ele>
        <time>2023-06-28T07:36:13Z</time>
      </trkpt>
      <trkpt lat="49.95741" lon="2.13867">
        <ele>14.1</ele>
        <time>2023-06-28T07:36:14Z</time>
      </trkpt>
      <trkpt lat="49.95741" lon="2.13865">
        <ele>14.1</ele>
        <time>2023-06-28T07:36:15Z</time>
      </trkpt>
      <trkpt lat="49.95742" lon="2.13864">
        <ele>14</ele>
        <time>2023-06-28T07:36:16Z</time>
      </trkpt>
      <trkpt lat="49.95742" lon="2.13863">
        <ele>14</ele>
        <time>2023-06-28T07:36:17Z</time>
      </trkpt>
      <trkpt lat="49.95743" lon="2.13862">
        <ele>14</ele>
        <time>2023-06-28T07:36:18Z</time>
      </trkpt>
      <trkpt lat="49.95743" lon="2.13861">
        <ele>14</ele>
        <time>2023-06-28T07:36:19Z</time>
      </trkpt>
      <trkpt lat="49.95744" lon="2.1386">
        <ele>13.9</ele>
        <time>2023-06-28T07:36:20Z</time>
      </trkpt>
      <trkpt lat="49.95745" lon="2.13858">
        <ele>13.9</ele>
        <time>2023-06-28T07:36:21Z</time>
      </trkpt>
      <trkpt lat="49.95745" lon="2.13857">
        <ele>13.9</ele>
        <time>2023-06-28T07:36:22Z</time>
      </trkpt>
      <trkpt lat="49.95746" lon="2.13856">
        <ele>13.9</ele>
        <time>2023-06-28T07:36:23Z</time>
      </trkpt>
      <trkpt lat="49.95746" lon="2.13855">
        <ele>13.9</ele>
        <time>2023-06-28T07:36:24Z</time>
      </trkpt>
      <trkpt lat="49.95747" lon="2.13854">
        <ele>13.9</ele>
        <time>2023-06-28T07:36:25Z</time>
      </trkpt>
      <trkpt lat="49.95748" lon="2.13853">
        <ele>13.9</ele>
        <time>2023-06-28T07:36:26Z</time>
      </trkpt>
      <trkpt lat="49.95748" lon="2.13852">
        <ele>13.9</ele>
        <time>2023-06-28T07:36:27Z</time>
      </trkpt>
      <trkpt lat="49.95749" lon="2.13851">
        <ele>13.8</ele>
        <time>2023-06-28T07:36:28Z</time>
      </trkpt>
      <trkpt lat="49.95749" lon="2.1385">
        <ele>13.9</ele>
        <time>2023-06-28T07:36:29Z</time>
      </trkpt>
      <trkpt lat="49.9575" lon="2.13849">
        <ele>13.9</ele>
        <time>2023-06-28T07:36:30Z</time>
      </trkpt>
      <trkpt lat="49.9575" lon="2.13848">
        <ele>13.9</ele>
        <time>2023-06-28T07:36:31Z</time>
      </trkpt>
      <trkpt lat="49.9575" lon="2.13847">
        <ele>13.8</ele>
        <time>2023-06-28T07:36:32Z</time>
      </trkpt>
      <trkpt lat="49.95751" lon="2.13846">
        <ele>13.8</ele>
        <time>2023-06-28T07:36:33Z</time>
      </trkpt>
      <trkpt lat="49.95752" lon="2.13846">
        <ele>13.9</ele>
        <time>2023-06-28T07:36:34Z</time>
      </trkpt>
      <trkpt lat="49.95752" lon="2.13845">
        <ele>13.9</ele>
        <time>2023-06-28T07:36:35Z</time>
      </trkpt>
      <trkpt lat="49.95753" lon="2.13845">
        <ele>13.9</ele>
        <time>2023-06-28T07:36:36Z</time>
      </trkpt>
      <trkpt lat="49.95753" lon="2.13845">
        <ele>13.9</ele>
        <time>2023-06-28T07:36:37Z</time>
      </trkpt>
      <trkpt lat="49.95753" lon="2.13844">
        <ele>13.9</ele>
        <time>2023-06-28T07:36:38Z</time>
      </trkpt>
      <trkpt lat="49.95754" lon="2.13843">
        <ele>13.8</ele>
        <time>2023-06-28T07:36:39Z</time>
      </trkpt>
      <trkpt lat="49.95754" lon="2.13842">
        <ele>13.8</ele>
        <time>2023-06-28T07:36:40Z</time>
      </trkpt>
      <trkpt lat="49.95754" lon="2.13841">
        <ele>13.8</ele>
        <time>2023-06-28T07:36:41Z</time>
      </trkpt>
      <trkpt lat="49.95754" lon="2.1384">
        <ele>13.9</ele>
        <time>2023-06-28T07:36:42Z</time>
      </trkpt>
      <trkpt lat="49.95755" lon="2.13839">
        <ele>13.9</ele>
        <time>2023-06-28T07:36:43Z</time>
      </trkpt>
      <trkpt lat="49.95755" lon="2.13838">
        <ele>13.8</ele>
        <time>2023-06-28T07:36:44Z</time>
      </trkpt>
      <trkpt lat="49.95755" lon="2.13837">
        <ele>13.8</ele>
        <time>2023-06-28T07:36:45Z</time>
      </trkpt>
      <trkpt lat="49.95755" lon="2.13836">
        <ele>13.8</ele>
        <time>2023-06-28T07:36:46Z</time>
      </trkpt>
      <trkpt lat="49.95756" lon="2.13835">
        <ele>13.8</ele>
        <time>2023-06-28T07:36:47Z</time>
      </trkpt>
      <trkpt lat="49.95756" lon="2.13834">
        <ele>13.7</ele>
        <time>2023-06-28T07:36:48Z</time>
      </trkpt>
      <trkpt lat="49.95756" lon="2.13833">
        <ele>13.7</ele>
        <time>2023-06-28T07:36:49Z</time>
      </trkpt>
      <trkpt lat="49.95756" lon="2.13832">
        <ele>13.7</ele>
        <time>2023-06-28T07:36:50Z</time>
      </trkpt>
      <trkpt lat="49.95756" lon="2.13831">
        <ele>13.7</ele>
        <time>2023-06-28T07:36:51Z</time>
      </trkpt>
      <trkpt lat="49.95757" lon="2.1383">
        <ele>13.6</ele>
        <time>2023-06-28T07:36:52Z</time>
      </trkpt>
      <trkpt lat="49.95757" lon="2.13829">
        <ele>13.6</ele>
        <time>2023-06-28T07:36:53Z</time>
      </trkpt>
      <trkpt lat="49.95757" lon="2.13828">
        <ele>13.6</ele>
        <time>2023-06-28T07:36:54Z</time>
      </trkpt>
      <trkpt lat="49.95758" lon="2.13827">
        <ele>13.6</ele>
        <time>2023-06-28T07:36:55Z</time>
      </trkpt>
      <trkpt lat="49.95758" lon="2.13826">
        <ele>13.6</ele>
        <time>2023-06-28T07:36:56Z</time>
      </trkpt>
      <trkpt lat="49.95759" lon="2.13825">
        <ele>13.5</ele>
        <time>2023-06-28T07:36:57Z</time>
      </trkpt>
      <trkpt lat="49.95759" lon="2.13824">
        <ele>13.5</ele>
        <time>2023-06-28T07:36:58Z</time>
      </trkpt>
      <trkpt lat="49.95759" lon="2.13823">
        <ele>13.5</ele>
        <time>2023-06-28T07:36:59Z</time>
      </trkpt>
      <trkpt lat="49.9576" lon="2.13822">
        <ele>13.6</ele>
        <time>2023-06-28T07:37:00Z</time>
      </trkpt>
      <trkpt lat="49.95761" lon="2.13821">
        <ele>13.5</ele>
        <time>2023-06-28T07:37:01Z</time>
      </trkpt>
      <trkpt lat="49.95761" lon="2.13821">
        <ele>13.5</ele>
        <time>2023-06-28T07:37:02Z</time>
      </trkpt>
      <trkpt lat="49.95762" lon="2.1382">
        <ele>13.5</ele>
        <time>2023-06-28T07:37:03Z</time>
      </trkpt>
      <trkpt lat="49.95763" lon="2.13819">
        <ele>13.6</ele>
        <time>2023-06-28T07:37:04Z</time>
      </trkpt>
      <trkpt lat="49.95763" lon="2.13818">
        <ele>13.6</ele>
        <time>2023-06-28T07:37:05Z</time>
      </trkpt>
      <trkpt lat="49.95764" lon="2.13817">
        <ele>13.5</ele>
        <time>2023-06-28T07:37:06Z</time>
      </trkpt>
      <trkpt lat="49.95765" lon="2.13816">
        <ele>13.5</ele>
        <time>2023-06-28T07:37:07Z</time>
      </trkpt>
      <trkpt lat="49.95765" lon="2.13815">
        <ele>13.5</ele>
        <time>2023-06-28T07:37:08Z</time>
      </trkpt>
      <trkpt lat="49.95766" lon="2.13813">
        <ele>13.6</ele>
        <time>2023-06-28T07:37:09Z</time>
      </trkpt>
      <trkpt lat="49.95767" lon="2.13812">
        <ele>13.5</ele>
        <time>2023-06-28T07:37:10Z</time>
      </trkpt>
      <trkpt lat="49.95767" lon="2.13812">
        <ele>13.5</ele>
        <time>2023-06-28T07:37:11Z</time>
      </trkpt>
      <trkpt lat="49.95768" lon="2.1381">
        <ele>13.5</ele>
        <time>2023-06-28T07:37:12Z</time>
      </trkpt>
      <trkpt lat="49.95768" lon="2.13809">
        <ele>13.5</ele>
        <time>2023-06-28T07:37:13Z</time>
      </trkpt>
      <trkpt lat="49.95769" lon="2.13808">
        <ele>13.4</ele>
        <time>2023-06-28T07:37:14Z</time>
      </trkpt>
      <trkpt lat="49.95769" lon="2.13807">
        <ele>13.4</ele>
        <time>2023-06-28T07:37:15Z</time>
      </trkpt>
      <trkpt lat="49.9577" lon="2.13806">
        <ele>13.4</ele>
        <time>2023-06-28T07:37:16Z</time>
      </trkpt>
      <trkpt lat="49.9577" lon="2.13805">
        <ele>13.4</ele>
        <time>2023-06-28T07:37:17Z</time>
      </trkpt>
      <trkpt lat="49.95771" lon="2.13804">
        <ele>13.3</ele>
        <time>2023-06-28T07:37:18Z</time>
      </trkpt>
      <trkpt lat="49.95771" lon="2.13803">
        <ele>13.4</ele>
        <time>2023-06-28T07:37:19Z</time>
      </trkpt>
      <trkpt lat="49.95772" lon="2.13802">
        <ele>13.4</ele>
        <time>2023-06-28T07:37:20Z</time>
      </trkpt>
      <trkpt lat="49.95772" lon="2.13801">
        <ele>13.4</ele>
        <time>2023-06-28T07:37:21Z</time>
      </trkpt>
      <trkpt lat="49.95773" lon="2.138">
        <ele>13.3</ele>
        <time>2023-06-28T07:37:22Z</time>
      </trkpt>
      <trkpt lat="49.95773" lon="2.13799">
        <ele>13.3</ele>
        <time>2023-06-28T07:37:23Z</time>
      </trkpt>
      <trkpt lat="49.95774" lon="2.13798">
        <ele>13.4</ele>
        <time>2023-06-28T07:37:24Z</time>
      </trkpt>
      <trkpt lat="49.95775" lon="2.13797">
        <ele>13.4</ele>
        <time>2023-06-28T07:37:25Z</time>
      </trkpt>
      <trkpt lat="49.95775" lon="2.13796">
        <ele>13.4</ele>
        <time>2023-06-28T07:37:26Z</time>
      </trkpt>
      <trkpt lat="49.95776" lon="2.13795">
        <ele>13.3</ele>
        <time>2023-06-28T07:37:27Z</time>
      </trkpt>
      <trkpt lat="49.95776" lon="2.13794">
        <ele>13.3</ele>
        <time>2023-06-28T07:37:28Z</time>
      </trkpt>
      <trkpt lat="49.95777" lon="2.13793">
        <ele>13.3</ele>
        <time>2023-06-28T07:37:29Z</time>
      </trkpt>
      <trkpt lat="49.95777" lon="2.13792">
        <ele>13.3</ele>
        <time>2023-06-28T07:37:30Z</time>
      </trkpt>
      <trkpt lat="49.95778" lon="2.13791">
        <ele>13.2</ele>
        <time>2023-06-28T07:37:31Z</time>
      </trkpt>
      <trkpt lat="49.95779" lon="2.1379">
        <ele>13.2</ele>
        <time>2023-06-28T07:37:32Z</time>
      </trkpt>
      <trkpt lat="49.95779" lon="2.13789">
        <ele>13.2</ele>
        <time>2023-06-28T07:37:33Z</time>
      </trkpt>
      <trkpt lat="49.9578" lon="2.13788">
        <ele>13.3</ele>
        <time>2023-06-28T07:37:34Z</time>
      </trkpt>
      <trkpt lat="49.9578" lon="2.13787">
        <ele>13.2</ele>
        <time>2023-06-28T07:37:35Z</time>
      </trkpt>
      <trkpt lat="49.9578" lon="2.13786">
        <ele>13.2</ele>
        <time>2023-06-28T07:37:36Z</time>
      </trkpt>
      <trkpt lat="49.9578" lon="2.13786">
        <ele>13.2</ele>
        <time>2023-06-28T07:37:37Z</time>
      </trkpt>
      <trkpt lat="49.9578" lon="2.13786">
        <ele>13.2</ele>
        <time>2023-06-28T07:37:38Z</time>
      </trkpt>
      <trkpt lat="49.9578" lon="2.13785">
        <ele>13.2</ele>
        <time>2023-06-28T07:37:39Z</time>
      </trkpt>
      <trkpt lat="49.95781" lon="2.13785">
        <ele>13.2</ele>
        <time>2023-06-28T07:37:40Z</time>
      </trkpt>
      <trkpt lat="49.95781" lon="2.13784">
        <ele>13.2</ele>
        <time>2023-06-28T07:37:41Z</time>
      </trkpt>
      <trkpt lat="49.95781" lon="2.13784">
        <ele>13.2</ele>
        <time>2023-06-28T07:37:42Z</time>
      </trkpt>
      <trkpt lat="49.95781" lon="2.13783">
        <ele>13.2</ele>
        <time>2023-06-28T07:37:43Z</time>
      </trkpt>
      <trkpt lat="49.95782" lon="2.13782">
        <ele>13.1</ele>
        <time>2023-06-28T07:37:45Z</time>
      </trkpt>
      <trkpt lat="49.95782" lon="2.13781">
        <ele>13.2</ele>
        <time>2023-06-28T07:37:46Z</time>
      </trkpt>
      <trkpt lat="49.95783" lon="2.13781">
        <ele>13.2</ele>
        <time>2023-06-28T07:37:47Z</time>
      </trkpt>
      <trkpt lat="49.95783" lon="2.1378">
        <ele>13.2</ele>
        <time>2023-06-28T07:37:48Z</time>
      </trkpt>
      <trkpt lat="49.95784" lon="2.13779">
        <ele>13.2</ele>
        <time>2023-06-28T07:37:49Z</time>
      </trkpt>
      <trkpt lat="49.95784" lon="2.13778">
        <ele>13.1</ele>
        <time>2023-06-28T07:37:50Z</time>
      </trkpt>
      <trkpt lat="49.95785" lon="2.13777">
        <ele>13.1</ele>
        <time>2023-06-28T07:37:51Z</time>
      </trkpt>
      <trkpt lat="49.95785" lon="2.13776">
        <ele>13.2</ele>
        <time>2023-06-28T07:37:52Z</time>
      </trkpt>
      <trkpt lat="49.95785" lon="2.13775">
        <ele>13.2</ele>
        <time>2023-06-28T07:37:53Z</time>
      </trkpt>
      <trkpt lat="49.95786" lon="2.13774">
        <ele>13.2</ele>
        <time>2023-06-28T07:37:54Z</time>
      </trkpt>
      <trkpt lat="49.95786" lon="2.13773">
        <ele>13.1</ele>
        <time>2023-06-28T07:37:55Z</time>
      </trkpt>
      <trkpt lat="49.95786" lon="2.13772">
        <ele>13.1</ele>
        <time>2023-06-28T07:37:56Z</time>
      </trkpt>
      <trkpt lat="49.95787" lon="2.13772">
        <ele>13.1</ele>
        <time>2023-06-28T07:37:57Z</time>
      </trkpt>
      <trkpt lat="49.95787" lon="2.13771">
        <ele>13.1</ele>
        <time>2023-06-28T07:37:58Z</time>
      </trkpt>
      <trkpt lat="49.95787" lon="2.13769">
        <ele>13.1</ele>
        <time>2023-06-28T07:37:59Z</time>
      </trkpt>
      <trkpt lat="49.95788" lon="2.13768">
        <ele>13.1</ele>
        <time>2023-06-28T07:38:00Z</time>
      </trkpt>
      <trkpt lat="49.95788" lon="2.13767">
        <ele>13.1</ele>
        <time>2023-06-28T07:38:01Z</time>
      </trkpt>
      <trkpt lat="49.95788" lon="2.13766">
        <ele>13.1</ele>
        <time>2023-06-28T07:38:02Z</time>
      </trkpt>
      <trkpt lat="49.95789" lon="2.13765">
        <ele>13.1</ele>
        <time>2023-06-28T07:38:03Z</time>
      </trkpt>
      <trkpt lat="49.95789" lon="2.13764">
        <ele>13.1</ele>
        <time>2023-06-28T07:38:04Z</time>
      </trkpt>
      <trkpt lat="49.9579" lon="2.13763">
        <ele>13.1</ele>
        <time>2023-06-28T07:38:05Z</time>
      </trkpt>
      <trkpt lat="49.9579" lon="2.13762">
        <ele>13.1</ele>
        <time>2023-06-28T07:38:06Z</time>
      </trkpt>
      <trkpt lat="49.9579" lon="2.13761">
        <ele>13.1</ele>
        <time>2023-06-28T07:38:07Z</time>
      </trkpt>
      <trkpt lat="49.95791" lon="2.1376">
        <ele>13.1</ele>
        <time>2023-06-28T07:38:08Z</time>
      </trkpt>
      <trkpt lat="49.95791" lon="2.13759">
        <ele>13.1</ele>
        <time>2023-06-28T07:38:09Z</time>
      </trkpt>
      <trkpt lat="49.95792" lon="2.13758">
        <ele>13.1</ele>
        <time>2023-06-28T07:38:10Z</time>
      </trkpt>
      <trkpt lat="49.95792" lon="2.13757">
        <ele>13</ele>
        <time>2023-06-28T07:38:11Z</time>
      </trkpt>
      <trkpt lat="49.95792" lon="2.13756">
        <ele>13</ele>
        <time>2023-06-28T07:38:12Z</time>
      </trkpt>
      <trkpt lat="49.95793" lon="2.13755">
        <ele>13</ele>
        <time>2023-06-28T07:38:13Z</time>
      </trkpt>
      <trkpt lat="49.95793" lon="2.13754">
        <ele>13.1</ele>
        <time>2023-06-28T07:38:14Z</time>
      </trkpt>
      <trkpt lat="49.95794" lon="2.13753">
        <ele>13.1</ele>
        <time>2023-06-28T07:38:15Z</time>
      </trkpt>
      <trkpt lat="49.95794" lon="2.13752">
        <ele>13</ele>
        <time>2023-06-28T07:38:16Z</time>
      </trkpt>
      <trkpt lat="49.95795" lon="2.13751">
        <ele>13</ele>
        <time>2023-06-28T07:38:17Z</time>
      </trkpt>
      <trkpt lat="49.95795" lon="2.1375">
        <ele>13.1</ele>
        <time>2023-06-28T07:38:18Z</time>
      </trkpt>
      <trkpt lat="49.95796" lon="2.13749">
        <ele>13.1</ele>
        <time>2023-06-28T07:38:19Z</time>
      </trkpt>
      <trkpt lat="49.95796" lon="2.13748">
        <ele>13.1</ele>
        <time>2023-06-28T07:38:20Z</time>
      </trkpt>
      <trkpt lat="49.95797" lon="2.13747">
        <ele>13.1</ele>
        <time>2023-06-28T07:38:21Z</time>
      </trkpt>
      <trkpt lat="49.95797" lon="2.13746">
        <ele>13.1</ele>
        <time>2023-06-28T07:38:22Z</time>
      </trkpt>
      <trkpt lat="49.95798" lon="2.13745">
        <ele>13.1</ele>
        <time>2023-06-28T07:38:23Z</time>
      </trkpt>
      <trkpt lat="49.95798" lon="2.13744">
        <ele>13</ele>
        <time>2023-06-28T07:38:24Z</time>
      </trkpt>
      <trkpt lat="49.95798" lon="2.13742">
        <ele>13</ele>
        <time>2023-06-28T07:38:25Z</time>
      </trkpt>
      <trkpt lat="49.95799" lon="2.13741">
        <ele>13.1</ele>
        <time>2023-06-28T07:38:26Z</time>
      </trkpt>
      <trkpt lat="49.95799" lon="2.1374">
        <ele>13.1</ele>
        <time>2023-06-28T07:38:27Z</time>
      </trkpt>
      <trkpt lat="49.958" lon="2.13739">
        <ele>13.1</ele>
        <time>2023-06-28T07:38:28Z</time>
      </trkpt>
      <trkpt lat="49.958" lon="2.13738">
        <ele>13.1</ele>
        <time>2023-06-28T07:38:29Z</time>
      </trkpt>
      <trkpt lat="49.95801" lon="2.13738">
        <ele>13.1</ele>
        <time>2023-06-28T07:38:30Z</time>
      </trkpt>
      <trkpt lat="49.95801" lon="2.13736">
        <ele>13.2</ele>
        <time>2023-06-28T07:38:31Z</time>
      </trkpt>
      <trkpt lat="49.95802" lon="2.13736">
        <ele>13.1</ele>
        <time>2023-06-28T07:38:32Z</time>
      </trkpt>
      <trkpt lat="49.95803" lon="2.13735">
        <ele>13.1</ele>
        <time>2023-06-28T07:38:33Z</time>
      </trkpt>
      <trkpt lat="49.95803" lon="2.13734">
        <ele>13.1</ele>
        <time>2023-06-28T07:38:34Z</time>
      </trkpt>
      <trkpt lat="49.95804" lon="2.13732">
        <ele>13.1</ele>
        <time>2023-06-28T07:38:35Z</time>
      </trkpt>
      <trkpt lat="49.95805" lon="2.13731">
        <ele>13.2</ele>
        <time>2023-06-28T07:38:36Z</time>
      </trkpt>
      <trkpt lat="49.95806" lon="2.1373">
        <ele>13.2</ele>
        <time>2023-06-28T07:38:37Z</time>
      </trkpt>
      <trkpt lat="49.95806" lon="2.13729">
        <ele>13.2</ele>
        <time>2023-06-28T07:38:38Z</time>
      </trkpt>
      <trkpt lat="49.95807" lon="2.13728">
        <ele>13.3</ele>
        <time>2023-06-28T07:38:39Z</time>
      </trkpt>
      <trkpt lat="49.95808" lon="2.13727">
        <ele>13.2</ele>
        <time>2023-06-28T07:38:40Z</time>
      </trkpt>
      <trkpt lat="49.95808" lon="2.13726">
        <ele>13.2</ele>
        <time>2023-06-28T07:38:41Z</time>
      </trkpt>
      <trkpt lat="49.95809" lon="2.13724">
        <ele>13.2</ele>
        <time>2023-06-28T07:38:42Z</time>
      </trkpt>
      <trkpt lat="49.9581" lon="2.13723">
        <ele>13.3</ele>
        <time>2023-06-28T07:38:43Z</time>
      </trkpt>
      <trkpt lat="49.9581" lon="2.13722">
        <ele>13.3</ele>
        <time>2023-06-28T07:38:44Z</time>
      </trkpt>
      <trkpt lat="49.95811" lon="2.13721">
        <ele>13.3</ele>
        <time>2023-06-28T07:38:45Z</time>
      </trkpt>
      <trkpt lat="49.95812" lon="2.1372">
        <ele>13.3</ele>
        <time>2023-06-28T07:38:46Z</time>
      </trkpt>
      <trkpt lat="49.95812" lon="2.13718">
        <ele>13.3</ele>
        <time>2023-06-28T07:38:47Z</time>
      </trkpt>
      <trkpt lat="49.95813" lon="2.13717">
        <ele>13.3</ele>
        <time>2023-06-28T07:38:48Z</time>
      </trkpt>
      <trkpt lat="49.95814" lon="2.13716">
        <ele>13.3</ele>
        <time>2023-06-28T07:38:49Z</time>
      </trkpt>
      <trkpt lat="49.95814" lon="2.13715">
        <ele>13.3</ele>
        <time>2023-06-28T07:38:50Z</time>
      </trkpt>
      <trkpt lat="49.95815" lon="2.13713">
        <ele>13.4</ele>
        <time>2023-06-28T07:38:51Z</time>
      </trkpt>
      <trkpt lat="49.95816" lon="2.13712">
        <ele>13.4</ele>
        <time>2023-06-28T07:38:52Z</time>
      </trkpt>
      <trkpt lat="49.95817" lon="2.13712">
        <ele>13.4</ele>
        <time>2023-06-28T07:38:53Z</time>
      </trkpt>
      <trkpt lat="49.95817" lon="2.1371">
        <ele>13.4</ele>
        <time>2023-06-28T07:38:54Z</time>
      </trkpt>
      <trkpt lat="49.95818" lon="2.1371">
        <ele>13.4</ele>
        <time>2023-06-28T07:38:55Z</time>
      </trkpt>
      <trkpt lat="49.95818" lon="2.13709">
        <ele>13.4</ele>
        <time>2023-06-28T07:38:56Z</time>
      </trkpt>
      <trkpt lat="49.95819" lon="2.13708">
        <ele>13.4</ele>
        <time>2023-06-28T07:38:57Z</time>
      </trkpt>
      <trkpt lat="49.95819" lon="2.13707">
        <ele>13.4</ele>
        <time>2023-06-28T07:38:58Z</time>
      </trkpt>
      <trkpt lat="49.9582" lon="2.13706">
        <ele>13.4</ele>
        <time>2023-06-28T07:38:59Z</time>
      </trkpt>
      <trkpt lat="49.95821" lon="2.13705">
        <ele>13.4</ele>
        <time>2023-06-28T07:39:00Z</time>
      </trkpt>
      <trkpt lat="49.95821" lon="2.13704">
        <ele>13.5</ele>
        <time>2023-06-28T07:39:01Z</time>
      </trkpt>
      <trkpt lat="49.95822" lon="2.13703">
        <ele>13.5</ele>
        <time>2023-06-28T07:39:02Z</time>
      </trkpt>
      <trkpt lat="49.95822" lon="2.13701">
        <ele>13.5</ele>
        <time>2023-06-28T07:39:03Z</time>
      </trkpt>
      <trkpt lat="49.95823" lon="2.137">
        <ele>13.5</ele>
        <time>2023-06-28T07:39:04Z</time>
      </trkpt>
      <trkpt lat="49.95823" lon="2.13699">
        <ele>13.5</ele>
        <time>2023-06-28T07:39:05Z</time>
      </trkpt>
      <trkpt lat="49.95823" lon="2.13698">
        <ele>13.5</ele>
        <time>2023-06-28T07:39:06Z</time>
      </trkpt>
      <trkpt lat="49.95824" lon="2.13697">
        <ele>13.5</ele>
        <time>2023-06-28T07:39:07Z</time>
      </trkpt>
      <trkpt lat="49.95824" lon="2.13696">
        <ele>13.5</ele>
        <time>2023-06-28T07:39:08Z</time>
      </trkpt>
      <trkpt lat="49.95825" lon="2.13694">
        <ele>13.5</ele>
        <time>2023-06-28T07:39:09Z</time>
      </trkpt>
      <trkpt lat="49.95825" lon="2.13694">
        <ele>13.5</ele>
        <time>2023-06-28T07:39:10Z</time>
      </trkpt>
      <trkpt lat="49.95825" lon="2.13693">
        <ele>13.5</ele>
        <time>2023-06-28T07:39:11Z</time>
      </trkpt>
      <trkpt lat="49.95826" lon="2.13692">
        <ele>13.5</ele>
        <time>2023-06-28T07:39:12Z</time>
      </trkpt>
      <trkpt lat="49.95826" lon="2.13692">
        <ele>13.5</ele>
        <time>2023-06-28T07:39:13Z</time>
      </trkpt>
      <trkpt lat="49.95826" lon="2.13691">
        <ele>13.5</ele>
        <time>2023-06-28T07:39:14Z</time>
      </trkpt>
      <trkpt lat="49.95827" lon="2.1369">
        <ele>13.5</ele>
        <time>2023-06-28T07:39:15Z</time>
      </trkpt>
      <trkpt lat="49.95827" lon="2.13689">
        <ele>13.5</ele>
        <time>2023-06-28T07:39:16Z</time>
      </trkpt>
      <trkpt lat="49.95827" lon="2.13688">
        <ele>13.5</ele>
        <time>2023-06-28T07:39:17Z</time>
      </trkpt>
      <trkpt lat="49.95828" lon="2.13688">
        <ele>13.5</ele>
        <time>2023-06-28T07:39:18Z</time>
      </trkpt>
      <trkpt lat="49.95828" lon="2.13687">
        <ele>13.5</ele>
        <time>2023-06-28T07:39:19Z</time>
      </trkpt>
      <trkpt lat="49.95829" lon="2.13686">
        <ele>13.5</ele>
        <time>2023-06-28T07:39:20Z</time>
      </trkpt>
      <trkpt lat="49.95829" lon="2.13685">
        <ele>13.6</ele>
        <time>2023-06-28T07:39:21Z</time>
      </trkpt>
      <trkpt lat="49.9583" lon="2.13684">
        <ele>13.6</ele>
        <time>2023-06-28T07:39:22Z</time>
      </trkpt>
      <trkpt lat="49.9583" lon="2.13684">
        <ele>13.5</ele>
        <time>2023-06-28T07:39:23Z</time>
      </trkpt>
      <trkpt lat="49.95831" lon="2.13683">
        <ele>13.5</ele>
        <time>2023-06-28T07:39:24Z</time>
      </trkpt>
      <trkpt lat="49.95831" lon="2.13682">
        <ele>13.5</ele>
        <time>2023-06-28T07:39:25Z</time>
      </trkpt>
      <trkpt lat="49.95831" lon="2.13681">
        <ele>13.5</ele>
        <time>2023-06-28T07:39:26Z</time>
      </trkpt>
      <trkpt lat="49.95832" lon="2.13681">
        <ele>13.5</ele>
        <time>2023-06-28T07:39:27Z</time>
      </trkpt>
      <trkpt lat="49.95832" lon="2.1368">
        <ele>13.6</ele>
        <time>2023-06-28T07:39:28Z</time>
      </trkpt>
      <trkpt lat="49.95832" lon="2.1368">
        <ele>13.6</ele>
        <time>2023-06-28T07:39:29Z</time>
      </trkpt>
      <trkpt lat="49.95833" lon="2.1368">
        <ele>13.5</ele>
        <time>2023-06-28T07:39:30Z</time>
      </trkpt>
      <trkpt lat="49.95833" lon="2.1368">
        <ele>13.5</ele>
        <time>2023-06-28T07:39:31Z</time>
      </trkpt>
      <trkpt lat="49.95833" lon="2.1368">
        <ele>13.5</ele>
        <time>2023-06-28T07:39:32Z</time>
      </trkpt>
      <trkpt lat="49.95833" lon="2.1368">
        <ele>13.5</ele>
        <time>2023-06-28T07:39:33Z</time>
      </trkpt>
      <trkpt lat="49.95832" lon="2.1368">
        <ele>13.6</ele>
        <time>2023-06-28T07:39:34Z</time>
      </trkpt>
      <trkpt lat="49.95832" lon="2.1368">
        <ele>13.6</ele>
        <time>2023-06-28T07:39:35Z</time>
      </trkpt>
      <trkpt lat="49.95832" lon="2.1368">
        <ele>13.5</ele>
        <time>2023-06-28T07:39:36Z</time>
      </trkpt>
      <trkpt lat="49.95832" lon="2.13679">
        <ele>13.5</ele>
        <time>2023-06-28T07:39:37Z</time>
      </trkpt>
      <trkpt lat="49.95833" lon="2.13678">
        <ele>13.5</ele>
        <time>2023-06-28T07:39:38Z</time>
      </trkpt>
      <trkpt lat="49.95833" lon="2.13678">
        <ele>13.5</ele>
        <time>2023-06-28T07:39:39Z</time>
      </trkpt>
      <trkpt lat="49.95833" lon="2.13677">
        <ele>13.5</ele>
        <time>2023-06-28T07:39:40Z</time>
      </trkpt>
      <trkpt lat="49.95832" lon="2.13677">
        <ele>13.5</ele>
        <time>2023-06-28T07:39:41Z</time>
      </trkpt>
      <trkpt lat="49.95832" lon="2.13677">
        <ele>13.5</ele>
        <time>2023-06-28T07:39:42Z</time>
      </trkpt>
      <trkpt lat="49.95833" lon="2.13677">
        <ele>13.5</ele>
        <time>2023-06-28T07:39:43Z</time>
      </trkpt>
      <trkpt lat="49.95833" lon="2.13676">
        <ele>13.5</ele>
        <time>2023-06-28T07:39:44Z</time>
      </trkpt>
      <trkpt lat="49.95833" lon="2.13676">
        <ele>13.5</ele>
        <time>2023-06-28T07:39:45Z</time>
      </trkpt>
      <trkpt lat="49.95833" lon="2.13675">
        <ele>13.5</ele>
        <time>2023-06-28T07:39:46Z</time>
      </trkpt>
      <trkpt lat="49.95834" lon="2.13675">
        <ele>13.5</ele>
        <time>2023-06-28T07:39:47Z</time>
      </trkpt>
      <trkpt lat="49.95834" lon="2.13674">
        <ele>13.5</ele>
        <time>2023-06-28T07:39:48Z</time>
      </trkpt>
      <trkpt lat="49.95834" lon="2.13673">
        <ele>13.5</ele>
        <time>2023-06-28T07:39:49Z</time>
      </trkpt>
      <trkpt lat="49.95835" lon="2.13673">
        <ele>13.5</ele>
        <time>2023-06-28T07:39:50Z</time>
      </trkpt>
      <trkpt lat="49.95835" lon="2.13672">
        <ele>13.5</ele>
        <time>2023-06-28T07:39:51Z</time>
      </trkpt>
      <trkpt lat="49.95836" lon="2.13671">
        <ele>13.5</ele>
        <time>2023-06-28T07:39:52Z</time>
      </trkpt>
      <trkpt lat="49.95836" lon="2.13671">
        <ele>13.5</ele>
        <time>2023-06-28T07:39:53Z</time>
      </trkpt>
      <trkpt lat="49.95836" lon="2.1367">
        <ele>13.5</ele>
        <time>2023-06-28T07:39:54Z</time>
      </trkpt>
      <trkpt lat="49.95837" lon="2.13669">
        <ele>13.5</ele>
        <time>2023-06-28T07:39:55Z</time>
      </trkpt>
      <trkpt lat="49.95837" lon="2.13669">
        <ele>13.5</ele>
        <time>2023-06-28T07:39:56Z</time>
      </trkpt>
      <trkpt lat="49.95838" lon="2.13668">
        <ele>13.5</ele>
        <time>2023-06-28T07:39:57Z</time>
      </trkpt>
      <trkpt lat="49.95838" lon="2.13667">
        <ele>13.5</ele>
        <time>2023-06-28T07:39:58Z</time>
      </trkpt>
      <trkpt lat="49.95839" lon="2.13667">
        <ele>13.5</ele>
        <time>2023-06-28T07:39:59Z</time>
      </trkpt>
      <trkpt lat="49.95839" lon="2.13667">
        <ele>13.5</ele>
        <time>2023-06-28T07:40:00Z</time>
      </trkpt>
      <trkpt lat="49.95839" lon="2.13666">
        <ele>13.5</ele>
        <time>2023-06-28T07:40:01Z</time>
      </trkpt>
      <trkpt lat="49.95839" lon="2.13665">
        <ele>13.5</ele>
        <time>2023-06-28T07:40:02Z</time>
      </trkpt>
      <trkpt lat="49.9584" lon="2.13665">
        <ele>13.5</ele>
        <time>2023-06-28T07:40:03Z</time>
      </trkpt>
      <trkpt lat="49.9584" lon="2.13664">
        <ele>13.5</ele>
        <time>2023-06-28T07:40:04Z</time>
      </trkpt>
      <trkpt lat="49.9584" lon="2.13664">
        <ele>13.5</ele>
        <time>2023-06-28T07:40:05Z</time>
      </trkpt>
      <trkpt lat="49.95841" lon="2.13664">
        <ele>13.5</ele>
        <time>2023-06-28T07:40:06Z</time>
      </trkpt>
      <trkpt lat="49.95841" lon="2.13664">
        <ele>13.5</ele>
        <time>2023-06-28T07:40:07Z</time>
      </trkpt>
      <trkpt lat="49.95841" lon="2.13664">
        <ele>13.5</ele>
        <time>2023-06-28T07:40:08Z</time>
      </trkpt>
      <trkpt lat="49.95841" lon="2.13664">
        <ele>13.5</ele>
        <time>2023-06-28T07:40:09Z</time>
      </trkpt>
      <trkpt lat="49.95842" lon="2.13663">
        <ele>13.5</ele>
        <time>2023-06-28T07:40:10Z</time>
      </trkpt>
      <trkpt lat="49.95842" lon="2.13662">
        <ele>13.4</ele>
        <time>2023-06-28T07:40:11Z</time>
      </trkpt>
      <trkpt lat="49.95843" lon="2.13661">
        <ele>13.5</ele>
        <time>2023-06-28T07:40:12Z</time>
      </trkpt>
      <trkpt lat="49.95843" lon="2.13662">
        <ele>13.5</ele>
        <time>2023-06-28T07:40:13Z</time>
      </trkpt>
      <trkpt lat="49.95843" lon="2.13661">
        <ele>13.5</ele>
        <time>2023-06-28T07:40:14Z</time>
      </trkpt>
      <trkpt lat="49.95844" lon="2.13661">
        <ele>13.5</ele>
        <time>2023-06-28T07:40:15Z</time>
      </trkpt>
      <trkpt lat="49.95844" lon="2.1366">
        <ele>13.5</ele>
        <time>2023-06-28T07:40:16Z</time>
      </trkpt>
      <trkpt lat="49.95844" lon="2.13659">
        <ele>13.5</ele>
        <time>2023-06-28T07:40:17Z</time>
      </trkpt>
      <trkpt lat="49.95845" lon="2.13659">
        <ele>13.5</ele>
        <time>2023-06-28T07:40:18Z</time>
      </trkpt>
      <trkpt lat="49.95845" lon="2.13658">
        <ele>13.4</ele>
        <time>2023-06-28T07:40:19Z</time>
      </trkpt>
      <trkpt lat="49.95846" lon="2.13656">
        <ele>13.5</ele>
        <time>2023-06-28T07:40:20Z</time>
      </trkpt>
      <trkpt lat="49.95846" lon="2.13656">
        <ele>13.5</ele>
        <time>2023-06-28T07:40:21Z</time>
      </trkpt>
      <trkpt lat="49.95847" lon="2.13655">
        <ele>13.5</ele>
        <time>2023-06-28T07:40:22Z</time>
      </trkpt>
      <trkpt lat="49.95847" lon="2.13654">
        <ele>13.4</ele>
        <time>2023-06-28T07:40:23Z</time>
      </trkpt>
      <trkpt lat="49.95848" lon="2.13653">
        <ele>13.4</ele>
        <time>2023-06-28T07:40:24Z</time>
      </trkpt>
      <trkpt lat="49.95849" lon="2.13651">
        <ele>13.5</ele>
        <time>2023-06-28T07:40:25Z</time>
      </trkpt>
      <trkpt lat="49.9585" lon="2.1365">
        <ele>13.5</ele>
        <time>2023-06-28T07:40:26Z</time>
      </trkpt>
      <trkpt lat="49.95852" lon="2.13649">
        <ele>13.4</ele>
        <time>2023-06-28T07:40:27Z</time>
      </trkpt>
      <trkpt lat="49.95852" lon="2.13648">
        <ele>13.4</ele>
        <time>2023-06-28T07:40:28Z</time>
      </trkpt>
      <trkpt lat="49.95854" lon="2.13648">
        <ele>13.4</ele>
        <time>2023-06-28T07:40:29Z</time>
      </trkpt>
      <trkpt lat="49.95854" lon="2.13647">
        <ele>13.5</ele>
        <time>2023-06-28T07:40:30Z</time>
      </trkpt>
      <trkpt lat="49.95856" lon="2.13646">
        <ele>13.5</ele>
        <time>2023-06-28T07:40:31Z</time>
      </trkpt>
      <trkpt lat="49.95857" lon="2.13646">
        <ele>13.5</ele>
        <time>2023-06-28T07:40:32Z</time>
      </trkpt>
      <trkpt lat="49.95857" lon="2.13645">
        <ele>13.5</ele>
        <time>2023-06-28T07:40:33Z</time>
      </trkpt>
      <trkpt lat="49.95858" lon="2.13644">
        <ele>13.5</ele>
        <time>2023-06-28T07:40:34Z</time>
      </trkpt>
      <trkpt lat="49.95859" lon="2.13644">
        <ele>13.5</ele>
        <time>2023-06-28T07:40:35Z</time>
      </trkpt>
      <trkpt lat="49.95859" lon="2.13643">
        <ele>13.5</ele>
        <time>2023-06-28T07:40:36Z</time>
      </trkpt>
      <trkpt lat="49.9586" lon="2.13642">
        <ele>13.5</ele>
        <time>2023-06-28T07:40:37Z</time>
      </trkpt>
      <trkpt lat="49.9586" lon="2.13641">
        <ele>13.4</ele>
        <time>2023-06-28T07:40:38Z</time>
      </trkpt>
      <trkpt lat="49.95861" lon="2.1364">
        <ele>13.4</ele>
        <time>2023-06-28T07:40:39Z</time>
      </trkpt>
      <trkpt lat="49.95861" lon="2.13638">
        <ele>13.4</ele>
        <time>2023-06-28T07:40:40Z</time>
      </trkpt>
      <trkpt lat="49.95861" lon="2.13637">
        <ele>13.4</ele>
        <time>2023-06-28T07:40:41Z</time>
      </trkpt>
      <trkpt lat="49.95862" lon="2.13636">
        <ele>13.4</ele>
        <time>2023-06-28T07:40:42Z</time>
      </trkpt>
      <trkpt lat="49.95863" lon="2.13635">
        <ele>13.4</ele>
        <time>2023-06-28T07:40:43Z</time>
      </trkpt>
      <trkpt lat="49.95864" lon="2.13634">
        <ele>13.4</ele>
        <time>2023-06-28T07:40:44Z</time>
      </trkpt>
      <trkpt lat="49.95864" lon="2.13633">
        <ele>13.4</ele>
        <time>2023-06-28T07:40:45Z</time>
      </trkpt>
      <trkpt lat="49.95865" lon="2.13632">
        <ele>13.4</ele>
        <time>2023-06-28T07:40:46Z</time>
      </trkpt>
      <trkpt lat="49.95866" lon="2.13631">
        <ele>13.4</ele>
        <time>2023-06-28T07:40:47Z</time>
      </trkpt>
      <trkpt lat="49.95867" lon="2.1363">
        <ele>13.4</ele>
        <time>2023-06-28T07:40:48Z</time>
      </trkpt>
      <trkpt lat="49.95867" lon="2.13629">
        <ele>13.4</ele>
        <time>2023-06-28T07:40:49Z</time>
      </trkpt>
      <trkpt lat="49.95868" lon="2.13627">
        <ele>13.4</ele>
        <time>2023-06-28T07:40:50Z</time>
      </trkpt>
      <trkpt lat="49.95869" lon="2.13626">
        <ele>13.4</ele>
        <time>2023-06-28T07:40:51Z</time>
      </trkpt>
      <trkpt lat="49.95869" lon="2.13625">
        <ele>13.4</ele>
        <time>2023-06-28T07:40:52Z</time>
      </trkpt>
      <trkpt lat="49.95869" lon="2.13623">
        <ele>13.3</ele>
        <time>2023-06-28T07:40:53Z</time>
      </trkpt>
      <trkpt lat="49.95869" lon="2.13622">
        <ele>13.3</ele>
        <time>2023-06-28T07:40:54Z</time>
      </trkpt>
      <trkpt lat="49.95869" lon="2.13621">
        <ele>13.3</ele>
        <time>2023-06-28T07:40:55Z</time>
      </trkpt>
      <trkpt lat="49.9587" lon="2.13619">
        <ele>13.3</ele>
        <time>2023-06-28T07:40:56Z</time>
      </trkpt>
      <trkpt lat="49.9587" lon="2.13618">
        <ele>13.3</ele>
        <time>2023-06-28T07:40:57Z</time>
      </trkpt>
      <trkpt lat="49.95871" lon="2.13617">
        <ele>13.3</ele>
        <time>2023-06-28T07:40:58Z</time>
      </trkpt>
      <trkpt lat="49.95872" lon="2.13616">
        <ele>13.3</ele>
        <time>2023-06-28T07:40:59Z</time>
      </trkpt>
      <trkpt lat="49.95873" lon="2.13615">
        <ele>13.3</ele>
        <time>2023-06-28T07:41:00Z</time>
      </trkpt>
      <trkpt lat="49.95874" lon="2.13614">
        <ele>13.3</ele>
        <time>2023-06-28T07:41:01Z</time>
      </trkpt>
      <trkpt lat="49.95874" lon="2.13613">
        <ele>13.3</ele>
        <time>2023-06-28T07:41:02Z</time>
      </trkpt>
      <trkpt lat="49.95875" lon="2.13612">
        <ele>13.3</ele>
        <time>2023-06-28T07:41:03Z</time>
      </trkpt>
      <trkpt lat="49.95876" lon="2.13611">
        <ele>13.4</ele>
        <time>2023-06-28T07:41:04Z</time>
      </trkpt>
      <trkpt lat="49.95877" lon="2.13611">
        <ele>13.3</ele>
        <time>2023-06-28T07:41:05Z</time>
      </trkpt>
      <trkpt lat="49.95877" lon="2.1361">
        <ele>13.3</ele>
        <time>2023-06-28T07:41:06Z</time>
      </trkpt>
      <trkpt lat="49.95878" lon="2.13609">
        <ele>13.3</ele>
        <time>2023-06-28T07:41:07Z</time>
      </trkpt>
      <trkpt lat="49.95879" lon="2.13608">
        <ele>13.4</ele>
        <time>2023-06-28T07:41:08Z</time>
      </trkpt>
      <trkpt lat="49.95879" lon="2.13607">
        <ele>13.4</ele>
        <time>2023-06-28T07:41:09Z</time>
      </trkpt>
      <trkpt lat="49.9588" lon="2.13606">
        <ele>13.4</ele>
        <time>2023-06-28T07:41:10Z</time>
      </trkpt>
      <trkpt lat="49.95881" lon="2.13605">
        <ele>13.4</ele>
        <time>2023-06-28T07:41:11Z</time>
      </trkpt>
      <trkpt lat="49.95882" lon="2.13604">
        <ele>13.4</ele>
        <time>2023-06-28T07:41:12Z</time>
      </trkpt>
      <trkpt lat="49.95882" lon="2.13603">
        <ele>13.4</ele>
        <time>2023-06-28T07:41:13Z</time>
      </trkpt>
      <trkpt lat="49.95883" lon="2.13602">
        <ele>13.4</ele>
        <time>2023-06-28T07:41:14Z</time>
      </trkpt>
      <trkpt lat="49.95884" lon="2.13601">
        <ele>13.4</ele>
        <time>2023-06-28T07:41:15Z</time>
      </trkpt>
      <trkpt lat="49.95885" lon="2.136">
        <ele>13.4</ele>
        <time>2023-06-28T07:41:16Z</time>
      </trkpt>
      <trkpt lat="49.95886" lon="2.136">
        <ele>13.4</ele>
        <time>2023-06-28T07:41:17Z</time>
      </trkpt>
      <trkpt lat="49.95886" lon="2.13599">
        <ele>13.4</ele>
        <time>2023-06-28T07:41:18Z</time>
      </trkpt>
      <trkpt lat="49.95887" lon="2.13598">
        <ele>13.4</ele>
        <time>2023-06-28T07:41:19Z</time>
      </trkpt>
      <trkpt lat="49.95888" lon="2.13597">
        <ele>13.5</ele>
        <time>2023-06-28T07:41:20Z</time>
      </trkpt>
      <trkpt lat="49.95888" lon="2.13596">
        <ele>13.5</ele>
        <time>2023-06-28T07:41:21Z</time>
      </trkpt>
      <trkpt lat="49.95889" lon="2.13595">
        <ele>13.5</ele>
        <time>2023-06-28T07:41:22Z</time>
      </trkpt>
      <trkpt lat="49.9589" lon="2.13594">
        <ele>13.6</ele>
        <time>2023-06-28T07:41:23Z</time>
      </trkpt>
      <trkpt lat="49.95891" lon="2.13593">
        <ele>13.5</ele>
        <time>2023-06-28T07:41:24Z</time>
      </trkpt>
      <trkpt lat="49.95891" lon="2.13592">
        <ele>13.5</ele>
        <time>2023-06-28T07:41:25Z</time>
      </trkpt>
      <trkpt lat="49.95892" lon="2.13592">
        <ele>13.5</ele>
        <time>2023-06-28T07:41:26Z</time>
      </trkpt>
      <trkpt lat="49.95893" lon="2.13591">
        <ele>13.6</ele>
        <time>2023-06-28T07:41:27Z</time>
      </trkpt>
      <trkpt lat="49.95893" lon="2.1359">
        <ele>13.6</ele>
        <time>2023-06-28T07:41:28Z</time>
      </trkpt>
      <trkpt lat="49.95894" lon="2.13589">
        <ele>13.6</ele>
        <time>2023-06-28T07:41:29Z</time>
      </trkpt>
      <trkpt lat="49.95895" lon="2.13588">
        <ele>13.6</ele>
        <time>2023-06-28T07:41:30Z</time>
      </trkpt>
      <trkpt lat="49.95895" lon="2.13587">
        <ele>13.7</ele>
        <time>2023-06-28T07:41:31Z</time>
      </trkpt>
      <trkpt lat="49.95896" lon="2.13586">
        <ele>13.7</ele>
        <time>2023-06-28T07:41:32Z</time>
      </trkpt>
      <trkpt lat="49.95896" lon="2.13585">
        <ele>13.7</ele>
        <time>2023-06-28T07:41:33Z</time>
      </trkpt>
      <trkpt lat="49.95897" lon="2.13584">
        <ele>13.7</ele>
        <time>2023-06-28T07:41:34Z</time>
      </trkpt>
      <trkpt lat="49.95897" lon="2.13584">
        <ele>13.7</ele>
        <time>2023-06-28T07:41:35Z</time>
      </trkpt>
      <trkpt lat="49.95898" lon="2.13584">
        <ele>13.7</ele>
        <time>2023-06-28T07:41:36Z</time>
      </trkpt>
      <trkpt lat="49.95898" lon="2.13584">
        <ele>13.7</ele>
        <time>2023-06-28T07:41:37Z</time>
      </trkpt>
      <trkpt lat="49.95898" lon="2.13584">
        <ele>13.7</ele>
        <time>2023-06-28T07:41:38Z</time>
      </trkpt>
      <trkpt lat="49.95898" lon="2.13584">
        <ele>13.7</ele>
        <time>2023-06-28T07:41:39Z</time>
      </trkpt>
      <trkpt lat="49.95899" lon="2.13584">
        <ele>13.7</ele>
        <time>2023-06-28T07:41:40Z</time>
      </trkpt>
      <trkpt lat="49.95899" lon="2.13584">
        <ele>13.7</ele>
        <time>2023-06-28T07:41:41Z</time>
      </trkpt>
      <trkpt lat="49.95899" lon="2.13583">
        <ele>13.7</ele>
        <time>2023-06-28T07:41:42Z</time>
      </trkpt>
      <trkpt lat="49.959" lon="2.13583">
        <ele>13.7</ele>
        <time>2023-06-28T07:41:43Z</time>
      </trkpt>
      <trkpt lat="49.959" lon="2.13583">
        <ele>13.7</ele>
        <time>2023-06-28T07:41:44Z</time>
      </trkpt>
      <trkpt lat="49.959" lon="2.13582">
        <ele>13.7</ele>
        <time>2023-06-28T07:41:45Z</time>
      </trkpt>
      <trkpt lat="49.95901" lon="2.13581">
        <ele>13.8</ele>
        <time>2023-06-28T07:41:46Z</time>
      </trkpt>
      <trkpt lat="49.95901" lon="2.1358">
        <ele>13.8</ele>
        <time>2023-06-28T07:41:47Z</time>
      </trkpt>
      <trkpt lat="49.95901" lon="2.13579">
        <ele>13.8</ele>
        <time>2023-06-28T07:41:48Z</time>
      </trkpt>
      <trkpt lat="49.95902" lon="2.13578">
        <ele>13.8</ele>
        <time>2023-06-28T07:41:49Z</time>
      </trkpt>
      <trkpt lat="49.95902" lon="2.13577">
        <ele>13.8</ele>
        <time>2023-06-28T07:41:50Z</time>
      </trkpt>
      <trkpt lat="49.95902" lon="2.13576">
        <ele>13.8</ele>
        <time>2023-06-28T07:41:51Z</time>
      </trkpt>
      <trkpt lat="49.95903" lon="2.13575">
        <ele>13.8</ele>
        <time>2023-06-28T07:41:52Z</time>
      </trkpt>
      <trkpt lat="49.95903" lon="2.13574">
        <ele>13.8</ele>
        <time>2023-06-28T07:41:53Z</time>
      </trkpt>
      <trkpt lat="49.95904" lon="2.13573">
        <ele>13.9</ele>
        <time>2023-06-28T07:41:54Z</time>
      </trkpt>
      <trkpt lat="49.95904" lon="2.13571">
        <ele>14</ele>
        <time>2023-06-28T07:41:55Z</time>
      </trkpt>
      <trkpt lat="49.95905" lon="2.1357">
        <ele>14</ele>
        <time>2023-06-28T07:41:56Z</time>
      </trkpt>
      <trkpt lat="49.95905" lon="2.13569">
        <ele>14</ele>
        <time>2023-06-28T07:41:57Z</time>
      </trkpt>
      <trkpt lat="49.95906" lon="2.13568">
        <ele>14</ele>
        <time>2023-06-28T07:41:58Z</time>
      </trkpt>
      <trkpt lat="49.95906" lon="2.13567">
        <ele>14.1</ele>
        <time>2023-06-28T07:41:59Z</time>
      </trkpt>
      <trkpt lat="49.95907" lon="2.13566">
        <ele>14.1</ele>
        <time>2023-06-28T07:42:00Z</time>
      </trkpt>
      <trkpt lat="49.95907" lon="2.13565">
        <ele>14.1</ele>
        <time>2023-06-28T07:42:01Z</time>
      </trkpt>
      <trkpt lat="49.95908" lon="2.13564">
        <ele>14.1</ele>
        <time>2023-06-28T07:42:02Z</time>
      </trkpt>
      <trkpt lat="49.95908" lon="2.13563">
        <ele>14.1</ele>
        <time>2023-06-28T07:42:03Z</time>
      </trkpt>
      <trkpt lat="49.95909" lon="2.13562">
        <ele>14.1</ele>
        <time>2023-06-28T07:42:04Z</time>
      </trkpt>
      <trkpt lat="49.95909" lon="2.13561">
        <ele>14.1</ele>
        <time>2023-06-28T07:42:05Z</time>
      </trkpt>
      <trkpt lat="49.95909" lon="2.1356">
        <ele>14.1</ele>
        <time>2023-06-28T07:42:06Z</time>
      </trkpt>
      <trkpt lat="49.95909" lon="2.13558">
        <ele>14.1</ele>
        <time>2023-06-28T07:42:07Z</time>
      </trkpt>
      <trkpt lat="49.95908" lon="2.13557">
        <ele>14.1</ele>
        <time>2023-06-28T07:42:08Z</time>
      </trkpt>
      <trkpt lat="49.95907" lon="2.13556">
        <ele>14.1</ele>
        <time>2023-06-28T07:42:09Z</time>
      </trkpt>
      <trkpt lat="49.95906" lon="2.13555">
        <ele>14.2</ele>
        <time>2023-06-28T07:42:10Z</time>
      </trkpt>
      <trkpt lat="49.95906" lon="2.13554">
        <ele>14.1</ele>
        <time>2023-06-28T07:42:11Z</time>
      </trkpt>
      <trkpt lat="49.95905" lon="2.13553">
        <ele>14.1</ele>
        <time>2023-06-28T07:42:12Z</time>
      </trkpt>
      <trkpt lat="49.95905" lon="2.13552">
        <ele>14.1</ele>
        <time>2023-06-28T07:42:13Z</time>
      </trkpt>
      <trkpt lat="49.95904" lon="2.13551">
        <ele>14.1</ele>
        <time>2023-06-28T07:42:14Z</time>
      </trkpt>
      <trkpt lat="49.95903" lon="2.1355">
        <ele>14.1</ele>
        <time>2023-06-28T07:42:15Z</time>
      </trkpt>
      <trkpt lat="49.95903" lon="2.13549">
        <ele>14</ele>
        <time>2023-06-28T07:42:16Z</time>
      </trkpt>
      <trkpt lat="49.95902" lon="2.13548">
        <ele>14</ele>
        <time>2023-06-28T07:42:17Z</time>
      </trkpt>
      <trkpt lat="49.95902" lon="2.13547">
        <ele>14</ele>
        <time>2023-06-28T07:42:18Z</time>
      </trkpt>
      <trkpt lat="49.95901" lon="2.13546">
        <ele>14</ele>
        <time>2023-06-28T07:42:19Z</time>
      </trkpt>
      <trkpt lat="49.95901" lon="2.13544">
        <ele>13.9</ele>
        <time>2023-06-28T07:42:20Z</time>
      </trkpt>
      <trkpt lat="49.959" lon="2.13543">
        <ele>13.9</ele>
        <time>2023-06-28T07:42:21Z</time>
      </trkpt>
      <trkpt lat="49.95899" lon="2.13542">
        <ele>13.9</ele>
        <time>2023-06-28T07:42:22Z</time>
      </trkpt>
      <trkpt lat="49.95899" lon="2.1354">
        <ele>13.9</ele>
        <time>2023-06-28T07:42:23Z</time>
      </trkpt>
      <trkpt lat="49.95898" lon="2.13539">
        <ele>13.9</ele>
        <time>2023-06-28T07:42:24Z</time>
      </trkpt>
      <trkpt lat="49.95898" lon="2.13538">
        <ele>13.8</ele>
        <time>2023-06-28T07:42:25Z</time>
      </trkpt>
      <trkpt lat="49.95897" lon="2.13537">
        <ele>13.8</ele>
        <time>2023-06-28T07:42:26Z</time>
      </trkpt>
      <trkpt lat="49.95897" lon="2.13536">
        <ele>13.8</ele>
        <time>2023-06-28T07:42:27Z</time>
      </trkpt>
      <trkpt lat="49.95896" lon="2.13534">
        <ele>13.8</ele>
        <time>2023-06-28T07:42:28Z</time>
      </trkpt>
      <trkpt lat="49.95896" lon="2.13533">
        <ele>13.9</ele>
        <time>2023-06-28T07:42:29Z</time>
      </trkpt>
      <trkpt lat="49.95895" lon="2.13532">
        <ele>13.9</ele>
        <time>2023-06-28T07:42:30Z</time>
      </trkpt>
      <trkpt lat="49.95895" lon="2.13531">
        <ele>13.8</ele>
        <time>2023-06-28T07:42:31Z</time>
      </trkpt>
      <trkpt lat="49.95894" lon="2.1353">
        <ele>13.8</ele>
        <time>2023-06-28T07:42:32Z</time>
      </trkpt>
      <trkpt lat="49.95894" lon="2.13529">
        <ele>13.8</ele>
        <time>2023-06-28T07:42:33Z</time>
      </trkpt>
      <trkpt lat="49.95894" lon="2.13528">
        <ele>13.8</ele>
        <time>2023-06-28T07:42:34Z</time>
      </trkpt>
      <trkpt lat="49.95893" lon="2.13527">
        <ele>13.8</ele>
        <time>2023-06-28T07:42:35Z</time>
      </trkpt>
      <trkpt lat="49.95893" lon="2.13526">
        <ele>13.8</ele>
        <time>2023-06-28T07:42:36Z</time>
      </trkpt>
      <trkpt lat="49.95892" lon="2.13525">
        <ele>13.8</ele>
        <time>2023-06-28T07:42:37Z</time>
      </trkpt>
      <trkpt lat="49.95892" lon="2.13524">
        <ele>13.8</ele>
        <time>2023-06-28T07:42:38Z</time>
      </trkpt>
      <trkpt lat="49.95891" lon="2.13523">
        <ele>13.8</ele>
        <time>2023-06-28T07:42:39Z</time>
      </trkpt>
      <trkpt lat="49.95891" lon="2.13522">
        <ele>13.8</ele>
        <time>2023-06-28T07:42:40Z</time>
      </trkpt>
      <trkpt lat="49.95891" lon="2.13522">
        <ele>13.8</ele>
        <time>2023-06-28T07:42:41Z</time>
      </trkpt>
      <trkpt lat="49.95891" lon="2.1352">
        <ele>13.8</ele>
        <time>2023-06-28T07:42:42Z</time>
      </trkpt>
      <trkpt lat="49.9589" lon="2.13519">
        <ele>13.8</ele>
        <time>2023-06-28T07:42:43Z</time>
      </trkpt>
      <trkpt lat="49.9589" lon="2.13518">
        <ele>13.8</ele>
        <time>2023-06-28T07:42:44Z</time>
      </trkpt>
      <trkpt lat="49.95889" lon="2.13517">
        <ele>13.7</ele>
        <time>2023-06-28T07:42:45Z</time>
      </trkpt>
      <trkpt lat="49.95889" lon="2.13516">
        <ele>13.8</ele>
        <time>2023-06-28T07:42:46Z</time>
      </trkpt>
      <trkpt lat="49.95889" lon="2.13515">
        <ele>13.8</ele>
        <time>2023-06-28T07:42:47Z</time>
      </trkpt>
      <trkpt lat="49.95889" lon="2.13513">
        <ele>13.8</ele>
        <time>2023-06-28T07:42:48Z</time>
      </trkpt>
      <trkpt lat="49.95888" lon="2.13512">
        <ele>13.9</ele>
        <time>2023-06-28T07:42:49Z</time>
      </trkpt>
      <trkpt lat="49.95888" lon="2.13511">
        <ele>13.9</ele>
        <time>2023-06-28T07:42:50Z</time>
      </trkpt>
      <trkpt lat="49.95888" lon="2.1351">
        <ele>13.9</ele>
        <time>2023-06-28T07:42:51Z</time>
      </trkpt>
      <trkpt lat="49.95887" lon="2.13508">
        <ele>13.9</ele>
        <time>2023-06-28T07:42:52Z</time>
      </trkpt>
      <trkpt lat="49.95887" lon="2.13508">
        <ele>14</ele>
        <time>2023-06-28T07:42:53Z</time>
      </trkpt>
      <trkpt lat="49.95887" lon="2.13506">
        <ele>13.9</ele>
        <time>2023-06-28T07:42:54Z</time>
      </trkpt>
      <trkpt lat="49.95887" lon="2.13505">
        <ele>13.9</ele>
        <time>2023-06-28T07:42:55Z</time>
      </trkpt>
      <trkpt lat="49.95886" lon="2.13504">
        <ele>13.9</ele>
        <time>2023-06-28T07:42:56Z</time>
      </trkpt>
      <trkpt lat="49.95886" lon="2.13503">
        <ele>14</ele>
        <time>2023-06-28T07:42:57Z</time>
      </trkpt>
      <trkpt lat="49.95886" lon="2.13502">
        <ele>14</ele>
        <time>2023-06-28T07:42:58Z</time>
      </trkpt>
      <trkpt lat="49.95886" lon="2.13501">
        <ele>14</ele>
        <time>2023-06-28T07:42:59Z</time>
      </trkpt>
      <trkpt lat="49.95886" lon="2.13499">
        <ele>14.1</ele>
        <time>2023-06-28T07:43:00Z</time>
      </trkpt>
      <trkpt lat="49.95886" lon="2.13498">
        <ele>14.1</ele>
        <time>2023-06-28T07:43:01Z</time>
      </trkpt>
      <trkpt lat="49.95886" lon="2.13498">
        <ele>14.1</ele>
        <time>2023-06-28T07:43:02Z</time>
      </trkpt>
      <trkpt lat="49.95885" lon="2.13497">
        <ele>14.1</ele>
        <time>2023-06-28T07:43:03Z</time>
      </trkpt>
      <trkpt lat="49.95885" lon="2.13496">
        <ele>14.1</ele>
        <time>2023-06-28T07:43:04Z</time>
      </trkpt>
      <trkpt lat="49.95885" lon="2.13496">
        <ele>14.1</ele>
        <time>2023-06-28T07:43:05Z</time>
      </trkpt>
      <trkpt lat="49.95885" lon="2.13496">
        <ele>14.1</ele>
        <time>2023-06-28T07:43:06Z</time>
      </trkpt>
      <trkpt lat="49.95885" lon="2.13496">
        <ele>14.1</ele>
        <time>2023-06-28T07:43:07Z</time>
      </trkpt>
      <trkpt lat="49.95885" lon="2.13496">
        <ele>14.1</ele>
        <time>2023-06-28T07:43:08Z</time>
      </trkpt>
      <trkpt lat="49.95886" lon="2.13496">
        <ele>14.1</ele>
        <time>2023-06-28T07:43:09Z</time>
      </trkpt>
      <trkpt lat="49.95886" lon="2.13496">
        <ele>14.2</ele>
        <time>2023-06-28T07:43:10Z</time>
      </trkpt>
      <trkpt lat="49.95886" lon="2.13496">
        <ele>14.2</ele>
        <time>2023-06-28T07:43:11Z</time>
      </trkpt>
      <trkpt lat="49.95886" lon="2.13496">
        <ele>14.2</ele>
        <time>2023-06-28T07:43:12Z</time>
      </trkpt>
      <trkpt lat="49.95886" lon="2.13496">
        <ele>14.2</ele>
        <time>2023-06-28T07:43:13Z</time>
      </trkpt>
      <trkpt lat="49.95886" lon="2.13496">
        <ele>14.2</ele>
        <time>2023-06-28T07:43:14Z</time>
      </trkpt>
      <trkpt lat="49.95886" lon="2.13496">
        <ele>14.2</ele>
        <time>2023-06-28T07:43:15Z</time>
      </trkpt>
      <trkpt lat="49.95887" lon="2.13496">
        <ele>14.2</ele>
        <time>2023-06-28T07:43:16Z</time>
      </trkpt>
      <trkpt lat="49.95887" lon="2.13496">
        <ele>14.2</ele>
        <time>2023-06-28T07:43:17Z</time>
      </trkpt>
      <trkpt lat="49.95887" lon="2.13496">
        <ele>14.2</ele>
        <time>2023-06-28T07:43:18Z</time>
      </trkpt>
      <trkpt lat="49.95886" lon="2.13495">
        <ele>14.3</ele>
        <time>2023-06-28T07:43:19Z</time>
      </trkpt>
      <trkpt lat="49.95886" lon="2.13494">
        <ele>14.3</ele>
        <time>2023-06-28T07:43:20Z</time>
      </trkpt>
      <trkpt lat="49.95886" lon="2.13493">
        <ele>14.3</ele>
        <time>2023-06-28T07:43:21Z</time>
      </trkpt>
      <trkpt lat="49.95886" lon="2.13493">
        <ele>14.3</ele>
        <time>2023-06-28T07:43:22Z</time>
      </trkpt>
      <trkpt lat="49.95886" lon="2.13492">
        <ele>14.3</ele>
        <time>2023-06-28T07:43:23Z</time>
      </trkpt>
      <trkpt lat="49.95885" lon="2.13492">
        <ele>14.3</ele>
        <time>2023-06-28T07:43:24Z</time>
      </trkpt>
      <trkpt lat="49.95886" lon="2.13491">
        <ele>14.3</ele>
        <time>2023-06-28T07:43:25Z</time>
      </trkpt>
      <trkpt lat="49.95886" lon="2.13491">
        <ele>14.5</ele>
        <time>2023-06-28T07:43:26Z</time>
      </trkpt>
      <trkpt lat="49.95886" lon="2.1349">
        <ele>14.5</ele>
        <time>2023-06-28T07:43:27Z</time>
      </trkpt>
      <trkpt lat="49.95887" lon="2.13489">
        <ele>14.5</ele>
        <time>2023-06-28T07:43:28Z</time>
      </trkpt>
      <trkpt lat="49.95887" lon="2.13488">
        <ele>14.6</ele>
        <time>2023-06-28T07:43:29Z</time>
      </trkpt>
      <trkpt lat="49.95888" lon="2.13486">
        <ele>14.8</ele>
        <time>2023-06-28T07:43:30Z</time>
      </trkpt>
      <trkpt lat="49.95889" lon="2.13486">
        <ele>14.8</ele>
        <time>2023-06-28T07:43:31Z</time>
      </trkpt>
      <trkpt lat="49.95889" lon="2.13485">
        <ele>14.8</ele>
        <time>2023-06-28T07:43:32Z</time>
      </trkpt>
      <trkpt lat="49.9589" lon="2.13484">
        <ele>14.8</ele>
        <time>2023-06-28T07:43:33Z</time>
      </trkpt>
      <trkpt lat="49.9589" lon="2.13482">
        <ele>14.9</ele>
        <time>2023-06-28T07:43:34Z</time>
      </trkpt>
      <trkpt lat="49.95891" lon="2.13481">
        <ele>15.1</ele>
        <time>2023-06-28T07:43:35Z</time>
      </trkpt>
      <trkpt lat="49.95891" lon="2.1348">
        <ele>15.1</ele>
        <time>2023-06-28T07:43:36Z</time>
      </trkpt>
      <trkpt lat="49.95891" lon="2.1348">
        <ele>15.1</ele>
        <time>2023-06-28T07:43:37Z</time>
      </trkpt>
      <trkpt lat="49.95892" lon="2.13479">
        <ele>15.1</ele>
        <time>2023-06-28T07:43:38Z</time>
      </trkpt>
      <trkpt lat="49.95892" lon="2.13478">
        <ele>15.3</ele>
        <time>2023-06-28T07:43:39Z</time>
      </trkpt>
      <trkpt lat="49.95892" lon="2.13477">
        <ele>15.3</ele>
        <time>2023-06-28T07:43:40Z</time>
      </trkpt>
      <trkpt lat="49.95893" lon="2.13476">
        <ele>15.4</ele>
        <time>2023-06-28T07:43:41Z</time>
      </trkpt>
      <trkpt lat="49.95893" lon="2.13475">
        <ele>15.4</ele>
        <time>2023-06-28T07:43:42Z</time>
      </trkpt>
      <trkpt lat="49.95894" lon="2.13474">
        <ele>15.4</ele>
        <time>2023-06-28T07:43:43Z</time>
      </trkpt>
      <trkpt lat="49.95894" lon="2.13473">
        <ele>15.6</ele>
        <time>2023-06-28T07:43:44Z</time>
      </trkpt>
      <trkpt lat="49.95894" lon="2.13472">
        <ele>15.6</ele>
        <time>2023-06-28T07:43:45Z</time>
      </trkpt>
      <trkpt lat="49.95894" lon="2.13471">
        <ele>15.6</ele>
        <time>2023-06-28T07:43:46Z</time>
      </trkpt>
      <trkpt lat="49.95895" lon="2.1347">
        <ele>15.6</ele>
        <time>2023-06-28T07:43:47Z</time>
      </trkpt>
      <trkpt lat="49.95895" lon="2.13469">
        <ele>15.8</ele>
        <time>2023-06-28T07:43:48Z</time>
      </trkpt>
      <trkpt lat="49.95895" lon="2.13468">
        <ele>16</ele>
        <time>2023-06-28T07:43:49Z</time>
      </trkpt>
      <trkpt lat="49.95896" lon="2.13467">
        <ele>16</ele>
        <time>2023-06-28T07:43:50Z</time>
      </trkpt>
      <trkpt lat="49.95896" lon="2.13466">
        <ele>16</ele>
        <time>2023-06-28T07:43:51Z</time>
      </trkpt>
      <trkpt lat="49.95896" lon="2.13465">
        <ele>16</ele>
        <time>2023-06-28T07:43:52Z</time>
      </trkpt>
      <trkpt lat="49.95897" lon="2.13465">
        <ele>16.2</ele>
        <time>2023-06-28T07:43:53Z</time>
      </trkpt>
      <trkpt lat="49.95897" lon="2.13464">
        <ele>16.2</ele>
        <time>2023-06-28T07:43:54Z</time>
      </trkpt>
      <trkpt lat="49.95897" lon="2.13464">
        <ele>16.2</ele>
        <time>2023-06-28T07:43:55Z</time>
      </trkpt>
      <trkpt lat="49.95897" lon="2.13464">
        <ele>16.2</ele>
        <time>2023-06-28T07:43:56Z</time>
      </trkpt>
      <trkpt lat="49.95897" lon="2.13463">
        <ele>16.2</ele>
        <time>2023-06-28T07:43:57Z</time>
      </trkpt>
      <trkpt lat="49.95898" lon="2.13463">
        <ele>16.2</ele>
        <time>2023-06-28T07:43:58Z</time>
      </trkpt>
      <trkpt lat="49.95898" lon="2.13463">
        <ele>16.2</ele>
        <time>2023-06-28T07:43:59Z</time>
      </trkpt>
      <trkpt lat="49.95898" lon="2.13462">
        <ele>16.3</ele>
        <time>2023-06-28T07:44:00Z</time>
      </trkpt>
      <trkpt lat="49.95898" lon="2.13462">
        <ele>16.3</ele>
        <time>2023-06-28T07:44:01Z</time>
      </trkpt>
      <trkpt lat="49.95899" lon="2.13461">
        <ele>16.5</ele>
        <time>2023-06-28T07:44:02Z</time>
      </trkpt>
      <trkpt lat="49.95899" lon="2.1346">
        <ele>16.5</ele>
        <time>2023-06-28T07:44:03Z</time>
      </trkpt>
      <trkpt lat="49.959" lon="2.13459">
        <ele>16.5</ele>
        <time>2023-06-28T07:44:04Z</time>
      </trkpt>
      <trkpt lat="49.95901" lon="2.13459">
        <ele>16.5</ele>
        <time>2023-06-28T07:44:05Z</time>
      </trkpt>
      <trkpt lat="49.95901" lon="2.13458">
        <ele>16.7</ele>
        <time>2023-06-28T07:44:06Z</time>
      </trkpt>
      <trkpt lat="49.95902" lon="2.13457">
        <ele>16.7</ele>
        <time>2023-06-28T07:44:07Z</time>
      </trkpt>
      <trkpt lat="49.95902" lon="2.13457">
        <ele>16.9</ele>
        <time>2023-06-28T07:44:08Z</time>
      </trkpt>
      <trkpt lat="49.95902" lon="2.13456">
        <ele>16.9</ele>
        <time>2023-06-28T07:44:09Z</time>
      </trkpt>
      <trkpt lat="49.95902" lon="2.13456">
        <ele>16.9</ele>
        <time>2023-06-28T07:44:10Z</time>
      </trkpt>
      <trkpt lat="49.95903" lon="2.13456">
        <ele>16.9</ele>
        <time>2023-06-28T07:44:11Z</time>
      </trkpt>
      <trkpt lat="49.95903" lon="2.13455">
        <ele>16.9</ele>
        <time>2023-06-28T07:44:12Z</time>
      </trkpt>
      <trkpt lat="49.95903" lon="2.13455">
        <ele>16.9</ele>
        <time>2023-06-28T07:44:13Z</time>
      </trkpt>
      <trkpt lat="49.95903" lon="2.13455">
        <ele>16.9</ele>
        <time>2023-06-28T07:44:14Z</time>
      </trkpt>
      <trkpt lat="49.95903" lon="2.13455">
        <ele>16.9</ele>
        <time>2023-06-28T07:44:15Z</time>
      </trkpt>
      <trkpt lat="49.95903" lon="2.13455">
        <ele>16.9</ele>
        <time>2023-06-28T07:44:16Z</time>
      </trkpt>
      <trkpt lat="49.95903" lon="2.13455">
        <ele>16.9</ele>
        <time>2023-06-28T07:44:17Z</time>
      </trkpt>
      <trkpt lat="49.95903" lon="2.13455">
        <ele>16.9</ele>
        <time>2023-06-28T07:44:18Z</time>
      </trkpt>
      <trkpt lat="49.95903" lon="2.13455">
        <ele>16.9</ele>
        <time>2023-06-28T07:44:19Z</time>
      </trkpt>
      <trkpt lat="49.95904" lon="2.13455">
        <ele>17</ele>
        <time>2023-06-28T07:44:20Z</time>
      </trkpt>
      <trkpt lat="49.95904" lon="2.13455">
        <ele>17</ele>
        <time>2023-06-28T07:44:21Z</time>
      </trkpt>
      <trkpt lat="49.95904" lon="2.13455">
        <ele>17</ele>
        <time>2023-06-28T07:44:22Z</time>
      </trkpt>
      <trkpt lat="49.95904" lon="2.13454">
        <ele>17</ele>
        <time>2023-06-28T07:44:23Z</time>
      </trkpt>
      <trkpt lat="49.95905" lon="2.13454">
        <ele>17</ele>
        <time>2023-06-28T07:44:24Z</time>
      </trkpt>
      <trkpt lat="49.95905" lon="2.13454">
        <ele>17</ele>
        <time>2023-06-28T07:44:25Z</time>
      </trkpt>
      <trkpt lat="49.95906" lon="2.13454">
        <ele>17</ele>
        <time>2023-06-28T07:44:26Z</time>
      </trkpt>
      <trkpt lat="49.95906" lon="2.13454">
        <ele>17</ele>
        <time>2023-06-28T07:44:27Z</time>
      </trkpt>
      <trkpt lat="49.95906" lon="2.13453">
        <ele>17.2</ele>
        <time>2023-06-28T07:44:28Z</time>
      </trkpt>
      <trkpt lat="49.95907" lon="2.13453">
        <ele>17.2</ele>
        <time>2023-06-28T07:44:29Z</time>
      </trkpt>
      <trkpt lat="49.95907" lon="2.13453">
        <ele>17.2</ele>
        <time>2023-06-28T07:44:30Z</time>
      </trkpt>
      <trkpt lat="49.95907" lon="2.13453">
        <ele>17.2</ele>
        <time>2023-06-28T07:44:31Z</time>
      </trkpt>
      <trkpt lat="49.95908" lon="2.13453">
        <ele>17.2</ele>
        <time>2023-06-28T07:44:32Z</time>
      </trkpt>
      <trkpt lat="49.95908" lon="2.13453">
        <ele>17.2</ele>
        <time>2023-06-28T07:44:33Z</time>
      </trkpt>
      <trkpt lat="49.95908" lon="2.13453">
        <ele>17.2</ele>
        <time>2023-06-28T07:44:34Z</time>
      </trkpt>
      <trkpt lat="49.95908" lon="2.13453">
        <ele>17.2</ele>
        <time>2023-06-28T07:44:35Z</time>
      </trkpt>
      <trkpt lat="49.95908" lon="2.13453">
        <ele>17.2</ele>
        <time>2023-06-28T07:44:36Z</time>
      </trkpt>
      <trkpt lat="49.95908" lon="2.13453">
        <ele>17.2</ele>
        <time>2023-06-28T07:44:37Z</time>
      </trkpt>
      <trkpt lat="49.95908" lon="2.13453">
        <ele>17.2</ele>
        <time>2023-06-28T07:44:38Z</time>
      </trkpt>
      <trkpt lat="49.95908" lon="2.13453">
        <ele>17.2</ele>
        <time>2023-06-28T07:44:39Z</time>
      </trkpt>
      <trkpt lat="49.95908" lon="2.13453">
        <ele>17.2</ele>
        <time>2023-06-28T07:44:40Z</time>
      </trkpt>
      <trkpt lat="49.95908" lon="2.13453">
        <ele>17.2</ele>
        <time>2023-06-28T07:44:41Z</time>
      </trkpt>
      <trkpt lat="49.95908" lon="2.13453">
        <ele>17.2</ele>
        <time>2023-06-28T07:44:42Z</time>
      </trkpt>
      <trkpt lat="49.95908" lon="2.13453">
        <ele>17.2</ele>
        <time>2023-06-28T07:44:43Z</time>
      </trkpt>
      <trkpt lat="49.95908" lon="2.13453">
        <ele>17.2</ele>
        <time>2023-06-28T07:44:44Z</time>
      </trkpt>
      <trkpt lat="49.95908" lon="2.13453">
        <ele>17.2</ele>
        <time>2023-06-28T07:44:45Z</time>
      </trkpt>
      <trkpt lat="49.95908" lon="2.13453">
        <ele>17.2</ele>
        <time>2023-06-28T07:44:46Z</time>
      </trkpt>
      <trkpt lat="49.95908" lon="2.13453">
        <ele>17.2</ele>
        <time>2023-06-28T07:44:47Z</time>
      </trkpt>
      <trkpt lat="49.95908" lon="2.13453">
        <ele>17.2</ele>
        <time>2023-06-28T07:44:48Z</time>
      </trkpt>
      <trkpt lat="49.95908" lon="2.13453">
        <ele>17.2</ele>
        <time>2023-06-28T07:44:49Z</time>
      </trkpt>
      <trkpt lat="49.95908" lon="2.13453">
        <ele>17.2</ele>
        <time>2023-06-28T07:44:50Z</time>
      </trkpt>
      <trkpt lat="49.95908" lon="2.13453">
        <ele>17.2</ele>
        <time>2023-06-28T07:44:51Z</time>
      </trkpt>
      <trkpt lat="49.95908" lon="2.13453">
        <ele>17.2</ele>
        <time>2023-06-28T07:44:52Z</time>
      </trkpt>
      <trkpt lat="49.95908" lon="2.13453">
        <ele>17.2</ele>
        <time>2023-06-28T07:44:53Z</time>
      </trkpt>
      <trkpt lat="49.95908" lon="2.13453">
        <ele>17.2</ele>
        <time>2023-06-28T07:44:54Z</time>
      </trkpt>
      <trkpt lat="49.95908" lon="2.13453">
        <ele>17.2</ele>
        <time>2023-06-28T07:44:55Z</time>
      </trkpt>
      <trkpt lat="49.95908" lon="2.13453">
        <ele>17.2</ele>
        <time>2023-06-28T07:44:56Z</time>
      </trkpt>
      <trkpt lat="49.95908" lon="2.13453">
        <ele>17.2</ele>
        <time>2023-06-28T07:44:57Z</time>
      </trkpt>
      <trkpt lat="49.95908" lon="2.13453">
        <ele>17.2</ele>
        <time>2023-06-28T07:44:58Z</time>
      </trkpt>
      <trkpt lat="49.95908" lon="2.13453">
        <ele>17.2</ele>
        <time>2023-06-28T07:44:59Z</time>
      </trkpt>
      <trkpt lat="49.95908" lon="2.13453">
        <ele>17.2</ele>
        <time>2023-06-28T07:45:00Z</time>
      </trkpt>
      <trkpt lat="49.95908" lon="2.13453">
        <ele>17.2</ele>
        <time>2023-06-28T07:45:01Z</time>
      </trkpt>
      <trkpt lat="49.95908" lon="2.13453">
        <ele>17.2</ele>
        <time>2023-06-28T07:45:02Z</time>
      </trkpt>
      <trkpt lat="49.95909" lon="2.13453">
        <ele>17.2</ele>
        <time>2023-06-28T07:45:03Z</time>
      </trkpt>
      <trkpt lat="49.95909" lon="2.13453">
        <ele>17.4</ele>
        <time>2023-06-28T07:45:04Z</time>
      </trkpt>
      <trkpt lat="49.95909" lon="2.13453">
        <ele>17.4</ele>
        <time>2023-06-28T07:45:05Z</time>
      </trkpt>
      <trkpt lat="49.95909" lon="2.13453">
        <ele>17.4</ele>
        <time>2023-06-28T07:45:06Z</time>
      </trkpt>
      <trkpt lat="49.95909" lon="2.13453">
        <ele>17.4</ele>
        <time>2023-06-28T07:45:07Z</time>
      </trkpt>
      <trkpt lat="49.95909" lon="2.13453">
        <ele>17.4</ele>
        <time>2023-06-28T07:45:08Z</time>
      </trkpt>
      <trkpt lat="49.95909" lon="2.13453">
        <ele>17.4</ele>
        <time>2023-06-28T07:45:09Z</time>
      </trkpt>
      <trkpt lat="49.95909" lon="2.13453">
        <ele>17.4</ele>
        <time>2023-06-28T07:45:10Z</time>
      </trkpt>
      <trkpt lat="49.95909" lon="2.13453">
        <ele>17.4</ele>
        <time>2023-06-28T07:45:11Z</time>
      </trkpt>
      <trkpt lat="49.95909" lon="2.13453">
        <ele>17.4</ele>
        <time>2023-06-28T07:45:12Z</time>
      </trkpt>
      <trkpt lat="49.95909" lon="2.13453">
        <ele>17.4</ele>
        <time>2023-06-28T07:45:13Z</time>
      </trkpt>
      <trkpt lat="49.95909" lon="2.13453">
        <ele>17.4</ele>
        <time>2023-06-28T07:45:14Z</time>
      </trkpt>
      <trkpt lat="49.95909" lon="2.13453">
        <ele>17.4</ele>
        <time>2023-06-28T07:45:15Z</time>
      </trkpt>
      <trkpt lat="49.95909" lon="2.13453">
        <ele>17.4</ele>
        <time>2023-06-28T07:45:16Z</time>
      </trkpt>
      <trkpt lat="49.95909" lon="2.13453">
        <ele>17.2</ele>
        <time>2023-06-28T07:45:17Z</time>
      </trkpt>
      <trkpt lat="49.95909" lon="2.13452">
        <ele>17.2</ele>
        <time>2023-06-28T07:45:18Z</time>
      </trkpt>
      <trkpt lat="49.95909" lon="2.13452">
        <ele>17.4</ele>
        <time>2023-06-28T07:45:19Z</time>
      </trkpt>
      <trkpt lat="49.95909" lon="2.13453">
        <ele>17.2</ele>
        <time>2023-06-28T07:45:20Z</time>
      </trkpt>
      <trkpt lat="49.95909" lon="2.13453">
        <ele>17.2</ele>
        <time>2023-06-28T07:45:21Z</time>
      </trkpt>
      <trkpt lat="49.95909" lon="2.13453">
        <ele>17.2</ele>
        <time>2023-06-28T07:45:22Z</time>
      </trkpt>
      <trkpt lat="49.95908" lon="2.13452">
        <ele>17.4</ele>
        <time>2023-06-28T07:45:23Z</time>
      </trkpt>
      <trkpt lat="49.95908" lon="2.13452">
        <ele>17.4</ele>
        <time>2023-06-28T07:45:24Z</time>
      </trkpt>
      <trkpt lat="49.95908" lon="2.13452">
        <ele>17.4</ele>
        <time>2023-06-28T07:45:25Z</time>
      </trkpt>
      <trkpt lat="49.95907" lon="2.13451">
        <ele>17.4</ele>
        <time>2023-06-28T07:45:26Z</time>
      </trkpt>
      <trkpt lat="49.95907" lon="2.13451">
        <ele>17.4</ele>
        <time>2023-06-28T07:45:27Z</time>
      </trkpt>
      <trkpt lat="49.95907" lon="2.1345">
        <ele>17.4</ele>
        <time>2023-06-28T07:45:28Z</time>
      </trkpt>
      <trkpt lat="49.95907" lon="2.1345">
        <ele>17.4</ele>
        <time>2023-06-28T07:45:29Z</time>
      </trkpt>
      <trkpt lat="49.95906" lon="2.13449">
        <ele>17.4</ele>
        <time>2023-06-28T07:45:30Z</time>
      </trkpt>
      <trkpt lat="49.95906" lon="2.13448">
        <ele>17.2</ele>
        <time>2023-06-28T07:45:31Z</time>
      </trkpt>
      <trkpt lat="49.95906" lon="2.13447">
        <ele>17.4</ele>
        <time>2023-06-28T07:45:32Z</time>
      </trkpt>
      <trkpt lat="49.95905" lon="2.13447">
        <ele>17.4</ele>
        <time>2023-06-28T07:45:33Z</time>
      </trkpt>
      <trkpt lat="49.95905" lon="2.13446">
        <ele>17.4</ele>
        <time>2023-06-28T07:45:34Z</time>
      </trkpt>
      <trkpt lat="49.95904" lon="2.13445">
        <ele>17.4</ele>
        <time>2023-06-28T07:45:35Z</time>
      </trkpt>
      <trkpt lat="49.95904" lon="2.13445">
        <ele>17.4</ele>
        <time>2023-06-28T07:45:36Z</time>
      </trkpt>
      <trkpt lat="49.95903" lon="2.13444">
        <ele>17.4</ele>
        <time>2023-06-28T07:45:37Z</time>
      </trkpt>
      <trkpt lat="49.95903" lon="2.13443">
        <ele>17.4</ele>
        <time>2023-06-28T07:45:38Z</time>
      </trkpt>
      <trkpt lat="49.95902" lon="2.13441">
        <ele>17.4</ele>
        <time>2023-06-28T07:45:39Z</time>
      </trkpt>
      <trkpt lat="49.95902" lon="2.1344">
        <ele>17.4</ele>
        <time>2023-06-28T07:45:40Z</time>
      </trkpt>
      <trkpt lat="49.95901" lon="2.13439">
        <ele>17.6</ele>
        <time>2023-06-28T07:45:41Z</time>
      </trkpt>
      <trkpt lat="49.95901" lon="2.13438">
        <ele>17.6</ele>
        <time>2023-06-28T07:45:42Z</time>
      </trkpt>
      <trkpt lat="49.959" lon="2.13436">
        <ele>17.4</ele>
        <time>2023-06-28T07:45:43Z</time>
      </trkpt>
      <trkpt lat="49.959" lon="2.13434">
        <ele>17.6</ele>
        <time>2023-06-28T07:45:44Z</time>
      </trkpt>
      <trkpt lat="49.95899" lon="2.13432">
        <ele>17.6</ele>
        <time>2023-06-28T07:45:45Z</time>
      </trkpt>
      <trkpt lat="49.95898" lon="2.13431">
        <ele>17.6</ele>
        <time>2023-06-28T07:45:46Z</time>
      </trkpt>
      <trkpt lat="49.95898" lon="2.1343">
        <ele>17.5</ele>
        <time>2023-06-28T07:45:47Z</time>
      </trkpt>
      <trkpt lat="49.95897" lon="2.13429">
        <ele>17.5</ele>
        <time>2023-06-28T07:45:48Z</time>
      </trkpt>
      <trkpt lat="49.95897" lon="2.13427">
        <ele>17.5</ele>
        <time>2023-06-28T07:45:49Z</time>
      </trkpt>
      <trkpt lat="49.95896" lon="2.13426">
        <ele>17.7</ele>
        <time>2023-06-28T07:45:50Z</time>
      </trkpt>
      <trkpt lat="49.95895" lon="2.13425">
        <ele>17.5</ele>
        <time>2023-06-28T07:45:51Z</time>
      </trkpt>
      <trkpt lat="49.95894" lon="2.13424">
        <ele>17.5</ele>
        <time>2023-06-28T07:45:52Z</time>
      </trkpt>
      <trkpt lat="49.95894" lon="2.13424">
        <ele>17.5</ele>
        <time>2023-06-28T07:45:53Z</time>
      </trkpt>
      <trkpt lat="49.95892" lon="2.13422">
        <ele>17.5</ele>
        <time>2023-06-28T07:45:54Z</time>
      </trkpt>
      <trkpt lat="49.95891" lon="2.13421">
        <ele>17.5</ele>
        <time>2023-06-28T07:45:55Z</time>
      </trkpt>
      <trkpt lat="49.95891" lon="2.1342">
        <ele>17.5</ele>
        <time>2023-06-28T07:45:56Z</time>
      </trkpt>
      <trkpt lat="49.95889" lon="2.13419">
        <ele>17.3</ele>
        <time>2023-06-28T07:45:57Z</time>
      </trkpt>
      <trkpt lat="49.95889" lon="2.13418">
        <ele>17.3</ele>
        <time>2023-06-28T07:45:58Z</time>
      </trkpt>
      <trkpt lat="49.95888" lon="2.13418">
        <ele>17.5</ele>
        <time>2023-06-28T07:45:59Z</time>
      </trkpt>
      <trkpt lat="49.95888" lon="2.13417">
        <ele>17.5</ele>
        <time>2023-06-28T07:46:00Z</time>
      </trkpt>
      <trkpt lat="49.95887" lon="2.13416">
        <ele>17.3</ele>
        <time>2023-06-28T07:46:01Z</time>
      </trkpt>
      <trkpt lat="49.95886" lon="2.13416">
        <ele>17.3</ele>
        <time>2023-06-28T07:46:02Z</time>
      </trkpt>
      <trkpt lat="49.95885" lon="2.13416">
        <ele>17.3</ele>
        <time>2023-06-28T07:46:03Z</time>
      </trkpt>
      <trkpt lat="49.95884" lon="2.13415">
        <ele>17.2</ele>
        <time>2023-06-28T07:46:04Z</time>
      </trkpt>
      <trkpt lat="49.95883" lon="2.13414">
        <ele>17.2</ele>
        <time>2023-06-28T07:46:05Z</time>
      </trkpt>
      <trkpt lat="49.95882" lon="2.13413">
        <ele>17.3</ele>
        <time>2023-06-28T07:46:06Z</time>
      </trkpt>
      <trkpt lat="49.95881" lon="2.13412">
        <ele>17.2</ele>
        <time>2023-06-28T07:46:07Z</time>
      </trkpt>
      <trkpt lat="49.9588" lon="2.13411">
        <ele>17.2</ele>
        <time>2023-06-28T07:46:08Z</time>
      </trkpt>
      <trkpt lat="49.95878" lon="2.1341">
        <ele>17</ele>
        <time>2023-06-28T07:46:09Z</time>
      </trkpt>
      <trkpt lat="49.95877" lon="2.13409">
        <ele>17.2</ele>
        <time>2023-06-28T07:46:10Z</time>
      </trkpt>
      <trkpt lat="49.95877" lon="2.13408">
        <ele>17.2</ele>
        <time>2023-06-28T07:46:11Z</time>
      </trkpt>
      <trkpt lat="49.95876" lon="2.13407">
        <ele>17.2</ele>
        <time>2023-06-28T07:46:12Z</time>
      </trkpt>
      <trkpt lat="49.95876" lon="2.13407">
        <ele>17</ele>
        <time>2023-06-28T07:46:13Z</time>
      </trkpt>
      <trkpt lat="49.95876" lon="2.13407">
        <ele>17</ele>
        <time>2023-06-28T07:46:14Z</time>
      </trkpt>
      <trkpt lat="49.95875" lon="2.13406">
        <ele>17</ele>
        <time>2023-06-28T07:46:15Z</time>
      </trkpt>
      <trkpt lat="49.95875" lon="2.13406">
        <ele>17</ele>
        <time>2023-06-28T07:46:16Z</time>
      </trkpt>
      <trkpt lat="49.95875" lon="2.13405">
        <ele>17</ele>
        <time>2023-06-28T07:46:17Z</time>
      </trkpt>
      <trkpt lat="49.95874" lon="2.13405">
        <ele>17.2</ele>
        <time>2023-06-28T07:46:18Z</time>
      </trkpt>
      <trkpt lat="49.95873" lon="2.13404">
        <ele>17.2</ele>
        <time>2023-06-28T07:46:19Z</time>
      </trkpt>
      <trkpt lat="49.95873" lon="2.13403">
        <ele>17</ele>
        <time>2023-06-28T07:46:20Z</time>
      </trkpt>
      <trkpt lat="49.95872" lon="2.13402">
        <ele>17</ele>
        <time>2023-06-28T07:46:21Z</time>
      </trkpt>
      <trkpt lat="49.95872" lon="2.13401">
        <ele>17</ele>
        <time>2023-06-28T07:46:22Z</time>
      </trkpt>
      <trkpt lat="49.95871" lon="2.134">
        <ele>17.2</ele>
        <time>2023-06-28T07:46:23Z</time>
      </trkpt>
      <trkpt lat="49.9587" lon="2.13399">
        <ele>17.2</ele>
        <time>2023-06-28T07:46:24Z</time>
      </trkpt>
      <trkpt lat="49.9587" lon="2.13398">
        <ele>17</ele>
        <time>2023-06-28T07:46:25Z</time>
      </trkpt>
      <trkpt lat="49.95869" lon="2.13397">
        <ele>17</ele>
        <time>2023-06-28T07:46:26Z</time>
      </trkpt>
      <trkpt lat="49.95868" lon="2.13396">
        <ele>17.2</ele>
        <time>2023-06-28T07:46:27Z</time>
      </trkpt>
      <trkpt lat="49.95868" lon="2.13396">
        <ele>17.2</ele>
        <time>2023-06-28T07:46:28Z</time>
      </trkpt>
      <trkpt lat="49.95868" lon="2.13395">
        <ele>17.2</ele>
        <time>2023-06-28T07:46:29Z</time>
      </trkpt>
      <trkpt lat="49.95867" lon="2.13394">
        <ele>17.1</ele>
        <time>2023-06-28T07:46:30Z</time>
      </trkpt>
      <trkpt lat="49.95866" lon="2.13394">
        <ele>17.1</ele>
        <time>2023-06-28T07:46:31Z</time>
      </trkpt>
      <trkpt lat="49.95866" lon="2.13393">
        <ele>17.1</ele>
        <time>2023-06-28T07:46:32Z</time>
      </trkpt>
      <trkpt lat="49.95865" lon="2.13392">
        <ele>17.2</ele>
        <time>2023-06-28T07:46:33Z</time>
      </trkpt>
      <trkpt lat="49.95864" lon="2.13391">
        <ele>17.1</ele>
        <time>2023-06-28T07:46:34Z</time>
      </trkpt>
      <trkpt lat="49.95864" lon="2.1339">
        <ele>17.1</ele>
        <time>2023-06-28T07:46:35Z</time>
      </trkpt>
      <trkpt lat="49.95863" lon="2.13389">
        <ele>17.1</ele>
        <time>2023-06-28T07:46:36Z</time>
      </trkpt>
      <trkpt lat="49.95862" lon="2.13388">
        <ele>17.2</ele>
        <time>2023-06-28T07:46:37Z</time>
      </trkpt>
      <trkpt lat="49.95862" lon="2.13387">
        <ele>17.1</ele>
        <time>2023-06-28T07:46:38Z</time>
      </trkpt>
      <trkpt lat="49.95862" lon="2.13386">
        <ele>17.1</ele>
        <time>2023-06-28T07:46:39Z</time>
      </trkpt>
      <trkpt lat="49.95861" lon="2.13385">
        <ele>17.1</ele>
        <time>2023-06-28T07:46:40Z</time>
      </trkpt>
      <trkpt lat="49.95862" lon="2.13384">
        <ele>17.1</ele>
        <time>2023-06-28T07:46:41Z</time>
      </trkpt>
      <trkpt lat="49.95861" lon="2.13384">
        <ele>17.2</ele>
        <time>2023-06-28T07:46:42Z</time>
      </trkpt>
      <trkpt lat="49.95861" lon="2.13383">
        <ele>17.2</ele>
        <time>2023-06-28T07:46:43Z</time>
      </trkpt>
      <trkpt lat="49.95861" lon="2.13382">
        <ele>17.2</ele>
        <time>2023-06-28T07:46:44Z</time>
      </trkpt>
      <trkpt lat="49.9586" lon="2.1338">
        <ele>17.2</ele>
        <time>2023-06-28T07:46:45Z</time>
      </trkpt>
      <trkpt lat="49.9586" lon="2.13377">
        <ele>17.3</ele>
        <time>2023-06-28T07:46:46Z</time>
      </trkpt>
      <trkpt lat="49.95859" lon="2.13376">
        <ele>17.3</ele>
        <time>2023-06-28T07:46:47Z</time>
      </trkpt>
      <trkpt lat="49.95859" lon="2.13374">
        <ele>17.3</ele>
        <time>2023-06-28T07:46:48Z</time>
      </trkpt>
      <trkpt lat="49.95859" lon="2.13373">
        <ele>17.3</ele>
        <time>2023-06-28T07:46:49Z</time>
      </trkpt>
      <trkpt lat="49.95858" lon="2.13372">
        <ele>17.3</ele>
        <time>2023-06-28T07:46:50Z</time>
      </trkpt>
      <trkpt lat="49.95857" lon="2.1337">
        <ele>17.4</ele>
        <time>2023-06-28T07:46:51Z</time>
      </trkpt>
      <trkpt lat="49.95857" lon="2.13369">
        <ele>17.4</ele>
        <time>2023-06-28T07:46:52Z</time>
      </trkpt>
      <trkpt lat="49.95856" lon="2.13368">
        <ele>17.3</ele>
        <time>2023-06-28T07:46:53Z</time>
      </trkpt>
      <trkpt lat="49.95856" lon="2.13366">
        <ele>17.4</ele>
        <time>2023-06-28T07:46:54Z</time>
      </trkpt>
      <trkpt lat="49.95855" lon="2.13365">
        <ele>17.4</ele>
        <time>2023-06-28T07:46:55Z</time>
      </trkpt>
      <trkpt lat="49.95855" lon="2.13363">
        <ele>17.4</ele>
        <time>2023-06-28T07:46:56Z</time>
      </trkpt>
      <trkpt lat="49.95854" lon="2.13362">
        <ele>17.5</ele>
        <time>2023-06-28T07:46:57Z</time>
      </trkpt>
      <trkpt lat="49.95854" lon="2.13361">
        <ele>17.5</ele>
        <time>2023-06-28T07:46:58Z</time>
      </trkpt>
      <trkpt lat="49.95853" lon="2.1336">
        <ele>17.4</ele>
        <time>2023-06-28T07:46:59Z</time>
      </trkpt>
      <trkpt lat="49.95853" lon="2.13359">
        <ele>17.4</ele>
        <time>2023-06-28T07:47:00Z</time>
      </trkpt>
      <trkpt lat="49.95852" lon="2.13358">
        <ele>17.5</ele>
        <time>2023-06-28T07:47:01Z</time>
      </trkpt>
      <trkpt lat="49.95852" lon="2.13356">
        <ele>17.5</ele>
        <time>2023-06-28T07:47:02Z</time>
      </trkpt>
      <trkpt lat="49.95851" lon="2.13355">
        <ele>17.5</ele>
        <time>2023-06-28T07:47:03Z</time>
      </trkpt>
      <trkpt lat="49.95851" lon="2.13354">
        <ele>17.4</ele>
        <time>2023-06-28T07:47:04Z</time>
      </trkpt>
      <trkpt lat="49.9585" lon="2.13353">
        <ele>17.5</ele>
        <time>2023-06-28T07:47:05Z</time>
      </trkpt>
      <trkpt lat="49.9585" lon="2.13353">
        <ele>17.5</ele>
        <time>2023-06-28T07:47:06Z</time>
      </trkpt>
      <trkpt lat="49.95849" lon="2.13351">
        <ele>17.5</ele>
        <time>2023-06-28T07:47:07Z</time>
      </trkpt>
      <trkpt lat="49.95849" lon="2.13351">
        <ele>17.5</ele>
        <time>2023-06-28T07:47:08Z</time>
      </trkpt>
      <trkpt lat="49.95849" lon="2.13351">
        <ele>17.5</ele>
        <time>2023-06-28T07:47:09Z</time>
      </trkpt>
      <trkpt lat="49.95848" lon="2.1335">
        <ele>17.4</ele>
        <time>2023-06-28T07:47:10Z</time>
      </trkpt>
      <trkpt lat="49.95847" lon="2.13349">
        <ele>17.4</ele>
        <time>2023-06-28T07:47:11Z</time>
      </trkpt>
      <trkpt lat="49.95847" lon="2.13348">
        <ele>17.4</ele>
        <time>2023-06-28T07:47:12Z</time>
      </trkpt>
      <trkpt lat="49.95846" lon="2.13347">
        <ele>17.4</ele>
        <time>2023-06-28T07:47:13Z</time>
      </trkpt>
      <trkpt lat="49.95845" lon="2.13347">
        <ele>17.3</ele>
        <time>2023-06-28T07:47:14Z</time>
      </trkpt>
      <trkpt lat="49.95844" lon="2.13346">
        <ele>17.3</ele>
        <time>2023-06-28T07:47:15Z</time>
      </trkpt>
      <trkpt lat="49.95843" lon="2.13345">
        <ele>17.4</ele>
        <time>2023-06-28T07:47:16Z</time>
      </trkpt>
      <trkpt lat="49.95842" lon="2.13344">
        <ele>17.3</ele>
        <time>2023-06-28T07:47:17Z</time>
      </trkpt>
      <trkpt lat="49.95839" lon="2.13341">
        <ele>17.2</ele>
        <time>2023-06-28T07:47:18Z</time>
      </trkpt>
      <trkpt lat="49.95838" lon="2.13341">
        <ele>17.2</ele>
        <time>2023-06-28T07:47:19Z</time>
      </trkpt>
      <trkpt lat="49.95837" lon="2.13339">
        <ele>17.1</ele>
        <time>2023-06-28T07:47:20Z</time>
      </trkpt>
      <trkpt lat="49.95835" lon="2.13338">
        <ele>17.1</ele>
        <time>2023-06-28T07:47:21Z</time>
      </trkpt>
      <trkpt lat="49.95833" lon="2.13337">
        <ele>17</ele>
        <time>2023-06-28T07:47:22Z</time>
      </trkpt>
      <trkpt lat="49.95833" lon="2.13337">
        <ele>17</ele>
        <time>2023-06-28T07:47:23Z</time>
      </trkpt>
      <trkpt lat="49.95832" lon="2.13336">
        <ele>17.1</ele>
        <time>2023-06-28T07:47:24Z</time>
      </trkpt>
      <trkpt lat="49.95831" lon="2.13336">
        <ele>17</ele>
        <time>2023-06-28T07:47:25Z</time>
      </trkpt>
      <trkpt lat="49.95831" lon="2.13336">
        <ele>17</ele>
        <time>2023-06-28T07:47:26Z</time>
      </trkpt>
      <trkpt lat="49.9583" lon="2.13335">
        <ele>17</ele>
        <time>2023-06-28T07:47:27Z</time>
      </trkpt>
      <trkpt lat="49.9583" lon="2.13334">
        <ele>17</ele>
        <time>2023-06-28T07:47:28Z</time>
      </trkpt>
      <trkpt lat="49.95829" lon="2.13334">
        <ele>17</ele>
        <time>2023-06-28T07:47:29Z</time>
      </trkpt>
      <trkpt lat="49.95828" lon="2.13333">
        <ele>16.8</ele>
        <time>2023-06-28T07:47:30Z</time>
      </trkpt>
      <trkpt lat="49.95827" lon="2.13333">
        <ele>16.8</ele>
        <time>2023-06-28T07:47:31Z</time>
      </trkpt>
      <trkpt lat="49.95826" lon="2.13332">
        <ele>16.8</ele>
        <time>2023-06-28T07:47:32Z</time>
      </trkpt>
      <trkpt lat="49.95825" lon="2.13331">
        <ele>16.7</ele>
        <time>2023-06-28T07:47:33Z</time>
      </trkpt>
      <trkpt lat="49.95824" lon="2.1333">
        <ele>16.7</ele>
        <time>2023-06-28T07:47:34Z</time>
      </trkpt>
      <trkpt lat="49.95823" lon="2.13328">
        <ele>16.6</ele>
        <time>2023-06-28T07:47:35Z</time>
      </trkpt>
      <trkpt lat="49.95822" lon="2.13328">
        <ele>16.6</ele>
        <time>2023-06-28T07:47:36Z</time>
      </trkpt>
      <trkpt lat="49.95821" lon="2.13327">
        <ele>16.6</ele>
        <time>2023-06-28T07:47:37Z</time>
      </trkpt>
      <trkpt lat="49.9582" lon="2.13326">
        <ele>16.5</ele>
        <time>2023-06-28T07:47:38Z</time>
      </trkpt>
      <trkpt lat="49.9582" lon="2.13326">
        <ele>16.5</ele>
        <time>2023-06-28T07:47:39Z</time>
      </trkpt>
      <trkpt lat="49.95819" lon="2.13325">
        <ele>16.5</ele>
        <time>2023-06-28T07:47:40Z</time>
      </trkpt>
      <trkpt lat="49.95819" lon="2.13325">
        <ele>16.5</ele>
        <time>2023-06-28T07:47:41Z</time>
      </trkpt>
      <trkpt lat="49.95819" lon="2.13324">
        <ele>16.5</ele>
        <time>2023-06-28T07:47:42Z</time>
      </trkpt>
      <trkpt lat="49.95818" lon="2.13324">
        <ele>16.5</ele>
        <time>2023-06-28T07:47:43Z</time>
      </trkpt>
      <trkpt lat="49.95817" lon="2.13323">
        <ele>16.4</ele>
        <time>2023-06-28T07:47:44Z</time>
      </trkpt>
      <trkpt lat="49.95817" lon="2.13323">
        <ele>16.4</ele>
        <time>2023-06-28T07:47:45Z</time>
      </trkpt>
      <trkpt lat="49.95816" lon="2.13322">
        <ele>16.4</ele>
        <time>2023-06-28T07:47:46Z</time>
      </trkpt>
      <trkpt lat="49.95816" lon="2.13321">
        <ele>16.4</ele>
        <time>2023-06-28T07:47:47Z</time>
      </trkpt>
      <trkpt lat="49.95815" lon="2.13321">
        <ele>16.3</ele>
        <time>2023-06-28T07:47:48Z</time>
      </trkpt>
      <trkpt lat="49.95814" lon="2.1332">
        <ele>16.3</ele>
        <time>2023-06-28T07:47:49Z</time>
      </trkpt>
      <trkpt lat="49.95814" lon="2.13319">
        <ele>16.3</ele>
        <time>2023-06-28T07:47:50Z</time>
      </trkpt>
      <trkpt lat="49.95813" lon="2.13318">
        <ele>16.3</ele>
        <time>2023-06-28T07:47:51Z</time>
      </trkpt>
      <trkpt lat="49.95813" lon="2.13318">
        <ele>16.3</ele>
        <time>2023-06-28T07:47:52Z</time>
      </trkpt>
      <trkpt lat="49.95812" lon="2.13317">
        <ele>16.2</ele>
        <time>2023-06-28T07:47:53Z</time>
      </trkpt>
      <trkpt lat="49.95812" lon="2.13317">
        <ele>16.2</ele>
        <time>2023-06-28T07:47:54Z</time>
      </trkpt>
      <trkpt lat="49.95811" lon="2.13317">
        <ele>16.2</ele>
        <time>2023-06-28T07:47:55Z</time>
      </trkpt>
      <trkpt lat="49.95811" lon="2.13316">
        <ele>16.2</ele>
        <time>2023-06-28T07:47:56Z</time>
      </trkpt>
      <trkpt lat="49.95811" lon="2.13316">
        <ele>16.2</ele>
        <time>2023-06-28T07:47:57Z</time>
      </trkpt>
      <trkpt lat="49.9581" lon="2.13315">
        <ele>16.2</ele>
        <time>2023-06-28T07:47:58Z</time>
      </trkpt>
      <trkpt lat="49.95809" lon="2.13314">
        <ele>16.1</ele>
        <time>2023-06-28T07:47:59Z</time>
      </trkpt>
      <trkpt lat="49.95809" lon="2.13314">
        <ele>16.1</ele>
        <time>2023-06-28T07:48:00Z</time>
      </trkpt>
      <trkpt lat="49.95809" lon="2.13314">
        <ele>16.1</ele>
        <time>2023-06-28T07:48:01Z</time>
      </trkpt>
      <trkpt lat="49.95808" lon="2.13313">
        <ele>16.1</ele>
        <time>2023-06-28T07:48:02Z</time>
      </trkpt>
      <trkpt lat="49.95808" lon="2.13312">
        <ele>16.1</ele>
        <time>2023-06-28T07:48:03Z</time>
      </trkpt>
      <trkpt lat="49.95807" lon="2.13312">
        <ele>16.1</ele>
        <time>2023-06-28T07:48:04Z</time>
      </trkpt>
      <trkpt lat="49.95807" lon="2.13311">
        <ele>16</ele>
        <time>2023-06-28T07:48:05Z</time>
      </trkpt>
      <trkpt lat="49.95806" lon="2.1331">
        <ele>16</ele>
        <time>2023-06-28T07:48:06Z</time>
      </trkpt>
      <trkpt lat="49.95805" lon="2.13309">
        <ele>16</ele>
        <time>2023-06-28T07:48:07Z</time>
      </trkpt>
      <trkpt lat="49.95805" lon="2.13308">
        <ele>16</ele>
        <time>2023-06-28T07:48:08Z</time>
      </trkpt>
      <trkpt lat="49.95803" lon="2.13306">
        <ele>15.9</ele>
        <time>2023-06-28T07:48:09Z</time>
      </trkpt>
      <trkpt lat="49.95803" lon="2.13305">
        <ele>15.9</ele>
        <time>2023-06-28T07:48:10Z</time>
      </trkpt>
      <trkpt lat="49.95802" lon="2.13304">
        <ele>15.9</ele>
        <time>2023-06-28T07:48:11Z</time>
      </trkpt>
      <trkpt lat="49.95801" lon="2.13303">
        <ele>15.7</ele>
        <time>2023-06-28T07:48:12Z</time>
      </trkpt>
      <trkpt lat="49.958" lon="2.13302">
        <ele>15.7</ele>
        <time>2023-06-28T07:48:13Z</time>
      </trkpt>
      <trkpt lat="49.95799" lon="2.13301">
        <ele>15.7</ele>
        <time>2023-06-28T07:48:14Z</time>
      </trkpt>
      <trkpt lat="49.95798" lon="2.133">
        <ele>15.6</ele>
        <time>2023-06-28T07:48:15Z</time>
      </trkpt>
      <trkpt lat="49.95798" lon="2.13299">
        <ele>15.6</ele>
        <time>2023-06-28T07:48:16Z</time>
      </trkpt>
      <trkpt lat="49.95797" lon="2.13298">
        <ele>15.6</ele>
        <time>2023-06-28T07:48:17Z</time>
      </trkpt>
      <trkpt lat="49.95797" lon="2.13297">
        <ele>15.6</ele>
        <time>2023-06-28T07:48:18Z</time>
      </trkpt>
      <trkpt lat="49.95796" lon="2.13296">
        <ele>15.6</ele>
        <time>2023-06-28T07:48:19Z</time>
      </trkpt>
      <trkpt lat="49.95795" lon="2.13295">
        <ele>15.5</ele>
        <time>2023-06-28T07:48:20Z</time>
      </trkpt>
      <trkpt lat="49.95794" lon="2.13293">
        <ele>15.5</ele>
        <time>2023-06-28T07:48:21Z</time>
      </trkpt>
      <trkpt lat="49.95794" lon="2.13292">
        <ele>15.5</ele>
        <time>2023-06-28T07:48:22Z</time>
      </trkpt>
      <trkpt lat="49.95793" lon="2.13291">
        <ele>15.5</ele>
        <time>2023-06-28T07:48:23Z</time>
      </trkpt>
      <trkpt lat="49.95793" lon="2.1329">
        <ele>15.3</ele>
        <time>2023-06-28T07:48:24Z</time>
      </trkpt>
      <trkpt lat="49.95792" lon="2.13289">
        <ele>15.3</ele>
        <time>2023-06-28T07:48:25Z</time>
      </trkpt>
      <trkpt lat="49.95792" lon="2.13288">
        <ele>15.3</ele>
        <time>2023-06-28T07:48:26Z</time>
      </trkpt>
      <trkpt lat="49.95791" lon="2.13287">
        <ele>15.3</ele>
        <time>2023-06-28T07:48:27Z</time>
      </trkpt>
      <trkpt lat="49.9579" lon="2.13286">
        <ele>15.2</ele>
        <time>2023-06-28T07:48:28Z</time>
      </trkpt>
      <trkpt lat="49.95789" lon="2.13285">
        <ele>15.2</ele>
        <time>2023-06-28T07:48:29Z</time>
      </trkpt>
      <trkpt lat="49.95789" lon="2.13284">
        <ele>15.2</ele>
        <time>2023-06-28T07:48:30Z</time>
      </trkpt>
      <trkpt lat="49.95788" lon="2.13283">
        <ele>15.2</ele>
        <time>2023-06-28T07:48:31Z</time>
      </trkpt>
      <trkpt lat="49.95787" lon="2.13283">
        <ele>15</ele>
        <time>2023-06-28T07:48:32Z</time>
      </trkpt>
      <trkpt lat="49.95786" lon="2.13283">
        <ele>15</ele>
        <time>2023-06-28T07:48:33Z</time>
      </trkpt>
      <trkpt lat="49.95786" lon="2.13282">
        <ele>15</ele>
        <time>2023-06-28T07:48:34Z</time>
      </trkpt>
      <trkpt lat="49.95785" lon="2.13281">
        <ele>15</ele>
        <time>2023-06-28T07:48:35Z</time>
      </trkpt>
      <trkpt lat="49.95785" lon="2.13281">
        <ele>15</ele>
        <time>2023-06-28T07:48:36Z</time>
      </trkpt>
      <trkpt lat="49.95784" lon="2.1328">
        <ele>14.9</ele>
        <time>2023-06-28T07:48:37Z</time>
      </trkpt>
      <trkpt lat="49.95784" lon="2.13279">
        <ele>14.9</ele>
        <time>2023-06-28T07:48:38Z</time>
      </trkpt>
      <trkpt lat="49.95784" lon="2.13279">
        <ele>14.9</ele>
        <time>2023-06-28T07:48:39Z</time>
      </trkpt>
      <trkpt lat="49.95783" lon="2.13278">
        <ele>14.9</ele>
        <time>2023-06-28T07:48:40Z</time>
      </trkpt>
      <trkpt lat="49.95782" lon="2.13277">
        <ele>14.9</ele>
        <time>2023-06-28T07:48:41Z</time>
      </trkpt>
      <trkpt lat="49.95782" lon="2.13276">
        <ele>14.7</ele>
        <time>2023-06-28T07:48:42Z</time>
      </trkpt>
      <trkpt lat="49.95781" lon="2.13275">
        <ele>14.7</ele>
        <time>2023-06-28T07:48:43Z</time>
      </trkpt>
      <trkpt lat="49.95781" lon="2.13274">
        <ele>14.7</ele>
        <time>2023-06-28T07:48:44Z</time>
      </trkpt>
      <trkpt lat="49.9578" lon="2.13272">
        <ele>14.7</ele>
        <time>2023-06-28T07:48:45Z</time>
      </trkpt>
      <trkpt lat="49.9578" lon="2.13271">
        <ele>14.7</ele>
        <time>2023-06-28T07:48:46Z</time>
      </trkpt>
      <trkpt lat="49.95779" lon="2.1327">
        <ele>14.7</ele>
        <time>2023-06-28T07:48:47Z</time>
      </trkpt>
      <trkpt lat="49.95779" lon="2.13269">
        <ele>14.5</ele>
        <time>2023-06-28T07:48:48Z</time>
      </trkpt>
      <trkpt lat="49.95779" lon="2.13268">
        <ele>14.5</ele>
        <time>2023-06-28T07:48:49Z</time>
      </trkpt>
      <trkpt lat="49.95778" lon="2.13267">
        <ele>14.5</ele>
        <time>2023-06-28T07:48:50Z</time>
      </trkpt>
      <trkpt lat="49.95778" lon="2.13266">
        <ele>14.5</ele>
        <time>2023-06-28T07:48:51Z</time>
      </trkpt>
      <trkpt lat="49.95778" lon="2.13265">
        <ele>14.5</ele>
        <time>2023-06-28T07:48:52Z</time>
      </trkpt>
      <trkpt lat="49.95778" lon="2.13264">
        <ele>14.5</ele>
        <time>2023-06-28T07:48:53Z</time>
      </trkpt>
      <trkpt lat="49.95777" lon="2.13263">
        <ele>14.4</ele>
        <time>2023-06-28T07:48:54Z</time>
      </trkpt>
      <trkpt lat="49.95777" lon="2.13262">
        <ele>14.4</ele>
        <time>2023-06-28T07:48:55Z</time>
      </trkpt>
      <trkpt lat="49.95776" lon="2.13261">
        <ele>14.3</ele>
        <time>2023-06-28T07:48:56Z</time>
      </trkpt>
      <trkpt lat="49.95775" lon="2.1326">
        <ele>14.3</ele>
        <time>2023-06-28T07:48:57Z</time>
      </trkpt>
      <trkpt lat="49.95775" lon="2.13258">
        <ele>14.2</ele>
        <time>2023-06-28T07:48:58Z</time>
      </trkpt>
      <trkpt lat="49.95775" lon="2.13257">
        <ele>14.2</ele>
        <time>2023-06-28T07:48:59Z</time>
      </trkpt>
      <trkpt lat="49.95774" lon="2.13256">
        <ele>14.2</ele>
        <time>2023-06-28T07:49:00Z</time>
      </trkpt>
      <trkpt lat="49.95774" lon="2.13254">
        <ele>14.2</ele>
        <time>2023-06-28T07:49:01Z</time>
      </trkpt>
      <trkpt lat="49.95774" lon="2.13253">
        <ele>14.2</ele>
        <time>2023-06-28T07:49:02Z</time>
      </trkpt>
      <trkpt lat="49.95774" lon="2.13252">
        <ele>14.2</ele>
        <time>2023-06-28T07:49:03Z</time>
      </trkpt>
      <trkpt lat="49.95774" lon="2.13251">
        <ele>14.2</ele>
        <time>2023-06-28T07:49:04Z</time>
      </trkpt>
      <trkpt lat="49.95775" lon="2.1325">
        <ele>14.1</ele>
        <time>2023-06-28T07:49:05Z</time>
      </trkpt>
      <trkpt lat="49.95775" lon="2.13248">
        <ele>14.1</ele>
        <time>2023-06-28T07:49:06Z</time>
      </trkpt>
      <trkpt lat="49.95776" lon="2.13246">
        <ele>14</ele>
        <time>2023-06-28T07:49:07Z</time>
      </trkpt>
      <trkpt lat="49.95776" lon="2.13245">
        <ele>14</ele>
        <time>2023-06-28T07:49:08Z</time>
      </trkpt>
      <trkpt lat="49.95777" lon="2.13244">
        <ele>14.1</ele>
        <time>2023-06-28T07:49:09Z</time>
      </trkpt>
      <trkpt lat="49.95778" lon="2.13242">
        <ele>14.1</ele>
        <time>2023-06-28T07:49:10Z</time>
      </trkpt>
      <trkpt lat="49.95778" lon="2.13241">
        <ele>14</ele>
        <time>2023-06-28T07:49:11Z</time>
      </trkpt>
      <trkpt lat="49.95779" lon="2.1324">
        <ele>14</ele>
        <time>2023-06-28T07:49:12Z</time>
      </trkpt>
      <trkpt lat="49.9578" lon="2.13239">
        <ele>14.1</ele>
        <time>2023-06-28T07:49:13Z</time>
      </trkpt>
      <trkpt lat="49.9578" lon="2.13238">
        <ele>14.1</ele>
        <time>2023-06-28T07:49:14Z</time>
      </trkpt>
      <trkpt lat="49.95781" lon="2.13237">
        <ele>14</ele>
        <time>2023-06-28T07:49:15Z</time>
      </trkpt>
      <trkpt lat="49.95781" lon="2.13237">
        <ele>14</ele>
        <time>2023-06-28T07:49:16Z</time>
      </trkpt>
      <trkpt lat="49.95781" lon="2.13236">
        <ele>14</ele>
        <time>2023-06-28T07:49:17Z</time>
      </trkpt>
      <trkpt lat="49.95782" lon="2.13235">
        <ele>14</ele>
        <time>2023-06-28T07:49:18Z</time>
      </trkpt>
      <trkpt lat="49.95782" lon="2.13234">
        <ele>14.1</ele>
        <time>2023-06-28T07:49:19Z</time>
      </trkpt>
      <trkpt lat="49.95783" lon="2.13234">
        <ele>14.1</ele>
        <time>2023-06-28T07:49:20Z</time>
      </trkpt>
      <trkpt lat="49.95783" lon="2.13233">
        <ele>14</ele>
        <time>2023-06-28T07:49:21Z</time>
      </trkpt>
      <trkpt lat="49.95783" lon="2.13232">
        <ele>14</ele>
        <time>2023-06-28T07:49:22Z</time>
      </trkpt>
      <trkpt lat="49.95784" lon="2.13231">
        <ele>14</ele>
        <time>2023-06-28T07:49:23Z</time>
      </trkpt>
      <trkpt lat="49.95784" lon="2.13231">
        <ele>14</ele>
        <time>2023-06-28T07:49:24Z</time>
      </trkpt>
      <trkpt lat="49.95784" lon="2.1323">
        <ele>14</ele>
        <time>2023-06-28T07:49:25Z</time>
      </trkpt>
      <trkpt lat="49.95785" lon="2.1323">
        <ele>14.1</ele>
        <time>2023-06-28T07:49:26Z</time>
      </trkpt>
      <trkpt lat="49.95785" lon="2.13229">
        <ele>14</ele>
        <time>2023-06-28T07:49:27Z</time>
      </trkpt>
      <trkpt lat="49.95786" lon="2.13229">
        <ele>14</ele>
        <time>2023-06-28T07:49:28Z</time>
      </trkpt>
      <trkpt lat="49.95786" lon="2.13228">
        <ele>14</ele>
        <time>2023-06-28T07:49:29Z</time>
      </trkpt>
      <trkpt lat="49.95787" lon="2.13227">
        <ele>14</ele>
        <time>2023-06-28T07:49:30Z</time>
      </trkpt>
      <trkpt lat="49.95787" lon="2.13227">
        <ele>14</ele>
        <time>2023-06-28T07:49:31Z</time>
      </trkpt>
      <trkpt lat="49.95787" lon="2.13226">
        <ele>14</ele>
        <time>2023-06-28T07:49:32Z</time>
      </trkpt>
      <trkpt lat="49.95788" lon="2.13225">
        <ele>14.1</ele>
        <time>2023-06-28T07:49:33Z</time>
      </trkpt>
      <trkpt lat="49.95788" lon="2.13224">
        <ele>14</ele>
        <time>2023-06-28T07:49:34Z</time>
      </trkpt>
      <trkpt lat="49.95789" lon="2.13224">
        <ele>14</ele>
        <time>2023-06-28T07:49:35Z</time>
      </trkpt>
      <trkpt lat="49.95789" lon="2.13223">
        <ele>14</ele>
        <time>2023-06-28T07:49:36Z</time>
      </trkpt>
      <trkpt lat="49.95789" lon="2.13223">
        <ele>14</ele>
        <time>2023-06-28T07:49:37Z</time>
      </trkpt>
      <trkpt lat="49.9579" lon="2.13222">
        <ele>14</ele>
        <time>2023-06-28T07:49:38Z</time>
      </trkpt>
      <trkpt lat="49.9579" lon="2.1322">
        <ele>13.9</ele>
        <time>2023-06-28T07:49:39Z</time>
      </trkpt>
      <trkpt lat="49.95791" lon="2.13219">
        <ele>14</ele>
        <time>2023-06-28T07:49:40Z</time>
      </trkpt>
      <trkpt lat="49.95791" lon="2.13218">
        <ele>14</ele>
        <time>2023-06-28T07:49:41Z</time>
      </trkpt>
      <trkpt lat="49.95791" lon="2.13217">
        <ele>14</ele>
        <time>2023-06-28T07:49:42Z</time>
      </trkpt>
      <trkpt lat="49.95792" lon="2.13216">
        <ele>13.9</ele>
        <time>2023-06-28T07:49:43Z</time>
      </trkpt>
      <trkpt lat="49.95792" lon="2.13215">
        <ele>13.9</ele>
        <time>2023-06-28T07:49:44Z</time>
      </trkpt>
      <trkpt lat="49.95792" lon="2.13214">
        <ele>13.9</ele>
        <time>2023-06-28T07:49:45Z</time>
      </trkpt>
      <trkpt lat="49.95793" lon="2.13214">
        <ele>13.9</ele>
        <time>2023-06-28T07:49:46Z</time>
      </trkpt>
      <trkpt lat="49.95793" lon="2.13213">
        <ele>14</ele>
        <time>2023-06-28T07:49:47Z</time>
      </trkpt>
      <trkpt lat="49.95793" lon="2.13212">
        <ele>13.8</ele>
        <time>2023-06-28T07:49:48Z</time>
      </trkpt>
      <trkpt lat="49.95794" lon="2.13211">
        <ele>13.8</ele>
        <time>2023-06-28T07:49:49Z</time>
      </trkpt>
      <trkpt lat="49.95794" lon="2.1321">
        <ele>13.8</ele>
        <time>2023-06-28T07:49:50Z</time>
      </trkpt>
      <trkpt lat="49.95795" lon="2.13208">
        <ele>13.8</ele>
        <time>2023-06-28T07:49:51Z</time>
      </trkpt>
      <trkpt lat="49.95795" lon="2.13207">
        <ele>13.7</ele>
        <time>2023-06-28T07:49:52Z</time>
      </trkpt>
      <trkpt lat="49.95796" lon="2.13206">
        <ele>13.7</ele>
        <time>2023-06-28T07:49:53Z</time>
      </trkpt>
      <trkpt lat="49.95796" lon="2.13203">
        <ele>13.7</ele>
        <time>2023-06-28T07:49:54Z</time>
      </trkpt>
      <trkpt lat="49.95797" lon="2.13202">
        <ele>13.7</ele>
        <time>2023-06-28T07:49:55Z</time>
      </trkpt>
      <trkpt lat="49.95797" lon="2.132">
        <ele>13.7</ele>
        <time>2023-06-28T07:49:56Z</time>
      </trkpt>
      <trkpt lat="49.95797" lon="2.13199">
        <ele>13.5</ele>
        <time>2023-06-28T07:49:57Z</time>
      </trkpt>
      <trkpt lat="49.95798" lon="2.13197">
        <ele>13.5</ele>
        <time>2023-06-28T07:49:58Z</time>
      </trkpt>
      <trkpt lat="49.95798" lon="2.13196">
        <ele>13.5</ele>
        <time>2023-06-28T07:49:59Z</time>
      </trkpt>
      <trkpt lat="49.95798" lon="2.13194">
        <ele>13.4</ele>
        <time>2023-06-28T07:50:00Z</time>
      </trkpt>
      <trkpt lat="49.95799" lon="2.13193">
        <ele>13.5</ele>
        <time>2023-06-28T07:50:01Z</time>
      </trkpt>
      <trkpt lat="49.95799" lon="2.13192">
        <ele>13.5</ele>
        <time>2023-06-28T07:50:02Z</time>
      </trkpt>
      <trkpt lat="49.958" lon="2.13191">
        <ele>13.5</ele>
        <time>2023-06-28T07:50:03Z</time>
      </trkpt>
      <trkpt lat="49.958" lon="2.13189">
        <ele>13.4</ele>
        <time>2023-06-28T07:50:04Z</time>
      </trkpt>
      <trkpt lat="49.958" lon="2.13188">
        <ele>13.4</ele>
        <time>2023-06-28T07:50:05Z</time>
      </trkpt>
      <trkpt lat="49.95801" lon="2.13187">
        <ele>13.4</ele>
        <time>2023-06-28T07:50:06Z</time>
      </trkpt>
      <trkpt lat="49.95802" lon="2.13186">
        <ele>13.4</ele>
        <time>2023-06-28T07:50:07Z</time>
      </trkpt>
      <trkpt lat="49.95802" lon="2.13185">
        <ele>13.4</ele>
        <time>2023-06-28T07:50:08Z</time>
      </trkpt>
      <trkpt lat="49.95802" lon="2.13184">
        <ele>13.4</ele>
        <time>2023-06-28T07:50:09Z</time>
      </trkpt>
      <trkpt lat="49.95803" lon="2.13184">
        <ele>13.4</ele>
        <time>2023-06-28T07:50:10Z</time>
      </trkpt>
      <trkpt lat="49.95804" lon="2.13183">
        <ele>13.4</ele>
        <time>2023-06-28T07:50:11Z</time>
      </trkpt>
      <trkpt lat="49.95804" lon="2.13182">
        <ele>13.3</ele>
        <time>2023-06-28T07:50:12Z</time>
      </trkpt>
      <trkpt lat="49.95804" lon="2.13181">
        <ele>13.3</ele>
        <time>2023-06-28T07:50:13Z</time>
      </trkpt>
      <trkpt lat="49.95805" lon="2.1318">
        <ele>13.3</ele>
        <time>2023-06-28T07:50:14Z</time>
      </trkpt>
      <trkpt lat="49.95806" lon="2.13179">
        <ele>13.3</ele>
        <time>2023-06-28T07:50:15Z</time>
      </trkpt>
      <trkpt lat="49.95806" lon="2.13178">
        <ele>13.3</ele>
        <time>2023-06-28T07:50:16Z</time>
      </trkpt>
      <trkpt lat="49.95807" lon="2.13178">
        <ele>13.3</ele>
        <time>2023-06-28T07:50:17Z</time>
      </trkpt>
      <trkpt lat="49.95807" lon="2.13177">
        <ele>13.2</ele>
        <time>2023-06-28T07:50:18Z</time>
      </trkpt>
      <trkpt lat="49.95807" lon="2.13176">
        <ele>13.3</ele>
        <time>2023-06-28T07:50:19Z</time>
      </trkpt>
      <trkpt lat="49.95808" lon="2.13175">
        <ele>13.3</ele>
        <time>2023-06-28T07:50:20Z</time>
      </trkpt>
      <trkpt lat="49.95808" lon="2.13174">
        <ele>13.3</ele>
        <time>2023-06-28T07:50:21Z</time>
      </trkpt>
      <trkpt lat="49.95809" lon="2.13173">
        <ele>13.2</ele>
        <time>2023-06-28T07:50:22Z</time>
      </trkpt>
      <trkpt lat="49.9581" lon="2.13172">
        <ele>13.3</ele>
        <time>2023-06-28T07:50:23Z</time>
      </trkpt>
      <trkpt lat="49.95812" lon="2.13169">
        <ele>13.1</ele>
        <time>2023-06-28T07:50:24Z</time>
      </trkpt>
      <trkpt lat="49.95813" lon="2.13168">
        <ele>13.2</ele>
        <time>2023-06-28T07:50:25Z</time>
      </trkpt>
      <trkpt lat="49.95814" lon="2.13167">
        <ele>13.2</ele>
        <time>2023-06-28T07:50:26Z</time>
      </trkpt>
      <trkpt lat="49.95814" lon="2.13166">
        <ele>13.2</ele>
        <time>2023-06-28T07:50:27Z</time>
      </trkpt>
      <trkpt lat="49.95815" lon="2.13166">
        <ele>13.2</ele>
        <time>2023-06-28T07:50:28Z</time>
      </trkpt>
      <trkpt lat="49.95815" lon="2.13165">
        <ele>13.2</ele>
        <time>2023-06-28T07:50:29Z</time>
      </trkpt>
      <trkpt lat="49.95815" lon="2.13165">
        <ele>13.2</ele>
        <time>2023-06-28T07:50:30Z</time>
      </trkpt>
      <trkpt lat="49.95816" lon="2.13164">
        <ele>13.2</ele>
        <time>2023-06-28T07:50:31Z</time>
      </trkpt>
      <trkpt lat="49.95816" lon="2.13164">
        <ele>13.2</ele>
        <time>2023-06-28T07:50:32Z</time>
      </trkpt>
      <trkpt lat="49.95816" lon="2.13163">
        <ele>13.2</ele>
        <time>2023-06-28T07:50:33Z</time>
      </trkpt>
      <trkpt lat="49.95816" lon="2.13163">
        <ele>13.2</ele>
        <time>2023-06-28T07:50:34Z</time>
      </trkpt>
      <trkpt lat="49.95816" lon="2.13163">
        <ele>13.2</ele>
        <time>2023-06-28T07:50:35Z</time>
      </trkpt>
      <trkpt lat="49.95816" lon="2.13163">
        <ele>13.2</ele>
        <time>2023-06-28T07:50:36Z</time>
      </trkpt>
      <trkpt lat="49.95817" lon="2.13163">
        <ele>13.2</ele>
        <time>2023-06-28T07:50:37Z</time>
      </trkpt>
      <trkpt lat="49.95817" lon="2.13162">
        <ele>13.2</ele>
        <time>2023-06-28T07:50:38Z</time>
      </trkpt>
      <trkpt lat="49.95817" lon="2.13162">
        <ele>13.2</ele>
        <time>2023-06-28T07:50:39Z</time>
      </trkpt>
      <trkpt lat="49.95817" lon="2.13162">
        <ele>13.2</ele>
        <time>2023-06-28T07:50:40Z</time>
      </trkpt>
      <trkpt lat="49.95817" lon="2.13162">
        <ele>13.2</ele>
        <time>2023-06-28T07:50:41Z</time>
      </trkpt>
      <trkpt lat="49.95817" lon="2.13162">
        <ele>13.2</ele>
        <time>2023-06-28T07:50:42Z</time>
      </trkpt>
      <trkpt lat="49.95818" lon="2.13161">
        <ele>13.2</ele>
        <time>2023-06-28T07:50:43Z</time>
      </trkpt>
      <trkpt lat="49.95818" lon="2.13161">
        <ele>13.2</ele>
        <time>2023-06-28T07:50:44Z</time>
      </trkpt>
      <trkpt lat="49.95818" lon="2.1316">
        <ele>13.2</ele>
        <time>2023-06-28T07:50:45Z</time>
      </trkpt>
      <trkpt lat="49.95819" lon="2.13159">
        <ele>13.2</ele>
        <time>2023-06-28T07:50:46Z</time>
      </trkpt>
      <trkpt lat="49.95819" lon="2.13159">
        <ele>13.2</ele>
        <time>2023-06-28T07:50:47Z</time>
      </trkpt>
      <trkpt lat="49.9582" lon="2.13158">
        <ele>13.2</ele>
        <time>2023-06-28T07:50:48Z</time>
      </trkpt>
      <trkpt lat="49.95821" lon="2.13157">
        <ele>13.3</ele>
        <time>2023-06-28T07:50:49Z</time>
      </trkpt>
      <trkpt lat="49.95822" lon="2.13156">
        <ele>13.1</ele>
        <time>2023-06-28T07:50:50Z</time>
      </trkpt>
      <trkpt lat="49.95822" lon="2.13155">
        <ele>13.1</ele>
        <time>2023-06-28T07:50:51Z</time>
      </trkpt>
      <trkpt lat="49.95823" lon="2.13154">
        <ele>13.1</ele>
        <time>2023-06-28T07:50:52Z</time>
      </trkpt>
      <trkpt lat="49.95824" lon="2.13153">
        <ele>13.2</ele>
        <time>2023-06-28T07:50:53Z</time>
      </trkpt>
      <trkpt lat="49.95824" lon="2.13152">
        <ele>13.2</ele>
        <time>2023-06-28T07:50:54Z</time>
      </trkpt>
      <trkpt lat="49.95825" lon="2.13151">
        <ele>13.1</ele>
        <time>2023-06-28T07:50:55Z</time>
      </trkpt>
      <trkpt lat="49.95825" lon="2.1315">
        <ele>13.1</ele>
        <time>2023-06-28T07:50:56Z</time>
      </trkpt>
      <trkpt lat="49.95826" lon="2.13149">
        <ele>13.1</ele>
        <time>2023-06-28T07:50:57Z</time>
      </trkpt>
      <trkpt lat="49.95827" lon="2.13147">
        <ele>13.1</ele>
        <time>2023-06-28T07:50:58Z</time>
      </trkpt>
      <trkpt lat="49.95828" lon="2.13146">
        <ele>13.1</ele>
        <time>2023-06-28T07:50:59Z</time>
      </trkpt>
      <trkpt lat="49.95829" lon="2.13145">
        <ele>13.1</ele>
        <time>2023-06-28T07:51:00Z</time>
      </trkpt>
      <trkpt lat="49.95829" lon="2.13143">
        <ele>13.2</ele>
        <time>2023-06-28T07:51:01Z</time>
      </trkpt>
      <trkpt lat="49.9583" lon="2.13142">
        <ele>13.1</ele>
        <time>2023-06-28T07:51:02Z</time>
      </trkpt>
      <trkpt lat="49.95831" lon="2.13142">
        <ele>13.1</ele>
        <time>2023-06-28T07:51:03Z</time>
      </trkpt>
      <trkpt lat="49.95831" lon="2.13141">
        <ele>13.1</ele>
        <time>2023-06-28T07:51:04Z</time>
      </trkpt>
      <trkpt lat="49.95832" lon="2.1314">
        <ele>13.2</ele>
        <time>2023-06-28T07:51:05Z</time>
      </trkpt>
      <trkpt lat="49.95832" lon="2.13139">
        <ele>13.2</ele>
        <time>2023-06-28T07:51:06Z</time>
      </trkpt>
      <trkpt lat="49.95833" lon="2.13139">
        <ele>13</ele>
        <time>2023-06-28T07:51:07Z</time>
      </trkpt>
      <trkpt lat="49.95833" lon="2.13138">
        <ele>13</ele>
        <time>2023-06-28T07:51:08Z</time>
      </trkpt>
      <trkpt lat="49.95833" lon="2.13138">
        <ele>13</ele>
        <time>2023-06-28T07:51:09Z</time>
      </trkpt>
      <trkpt lat="49.95834" lon="2.13138">
        <ele>13</ele>
        <time>2023-06-28T07:51:10Z</time>
      </trkpt>
      <trkpt lat="49.95834" lon="2.13137">
        <ele>13</ele>
        <time>2023-06-28T07:51:11Z</time>
      </trkpt>
      <trkpt lat="49.95834" lon="2.13137">
        <ele>13</ele>
        <time>2023-06-28T07:51:12Z</time>
      </trkpt>
      <trkpt lat="49.95834" lon="2.13137">
        <ele>13</ele>
        <time>2023-06-28T07:51:13Z</time>
      </trkpt>
      <trkpt lat="49.95834" lon="2.13137">
        <ele>13</ele>
        <time>2023-06-28T07:51:14Z</time>
      </trkpt>
      <trkpt lat="49.95834" lon="2.13136">
        <ele>13.2</ele>
        <time>2023-06-28T07:51:15Z</time>
      </trkpt>
      <trkpt lat="49.95835" lon="2.13136">
        <ele>13.2</ele>
        <time>2023-06-28T07:51:16Z</time>
      </trkpt>
      <trkpt lat="49.95834" lon="2.13136">
        <ele>13.2</ele>
        <time>2023-06-28T07:51:17Z</time>
      </trkpt>
      <trkpt lat="49.95835" lon="2.13136">
        <ele>13.2</ele>
        <time>2023-06-28T07:51:18Z</time>
      </trkpt>
      <trkpt lat="49.95835" lon="2.13136">
        <ele>13.2</ele>
        <time>2023-06-28T07:51:19Z</time>
      </trkpt>
      <trkpt lat="49.95835" lon="2.13136">
        <ele>13.2</ele>
        <time>2023-06-28T07:51:20Z</time>
      </trkpt>
      <trkpt lat="49.95835" lon="2.13135">
        <ele>13.2</ele>
        <time>2023-06-28T07:51:21Z</time>
      </trkpt>
      <trkpt lat="49.95835" lon="2.13135">
        <ele>13.2</ele>
        <time>2023-06-28T07:51:22Z</time>
      </trkpt>
      <trkpt lat="49.95836" lon="2.13135">
        <ele>13.2</ele>
        <time>2023-06-28T07:51:23Z</time>
      </trkpt>
      <trkpt lat="49.95836" lon="2.13135">
        <ele>12.9</ele>
        <time>2023-06-28T07:51:24Z</time>
      </trkpt>
      <trkpt lat="49.95837" lon="2.13134">
        <ele>12.9</ele>
        <time>2023-06-28T07:51:25Z</time>
      </trkpt>
      <trkpt lat="49.95838" lon="2.13133">
        <ele>13</ele>
        <time>2023-06-28T07:51:26Z</time>
      </trkpt>
      <trkpt lat="49.95838" lon="2.13133">
        <ele>13</ele>
        <time>2023-06-28T07:51:27Z</time>
      </trkpt>
      <trkpt lat="49.95839" lon="2.13132">
        <ele>13</ele>
        <time>2023-06-28T07:51:28Z</time>
      </trkpt>
      <trkpt lat="49.9584" lon="2.13131">
        <ele>13</ele>
        <time>2023-06-28T07:51:29Z</time>
      </trkpt>
      <trkpt lat="49.9584" lon="2.13131">
        <ele>13.2</ele>
        <time>2023-06-28T07:51:30Z</time>
      </trkpt>
      <trkpt lat="49.95841" lon="2.1313">
        <ele>13</ele>
        <time>2023-06-28T07:51:31Z</time>
      </trkpt>
      <trkpt lat="49.95842" lon="2.1313">
        <ele>13</ele>
        <time>2023-06-28T07:51:32Z</time>
      </trkpt>
      <trkpt lat="49.95843" lon="2.13129">
        <ele>13.1</ele>
        <time>2023-06-28T07:51:33Z</time>
      </trkpt>
      <trkpt lat="49.95845" lon="2.13128">
        <ele>13.1</ele>
        <time>2023-06-28T07:51:34Z</time>
      </trkpt>
      <trkpt lat="49.95845" lon="2.13127">
        <ele>13.1</ele>
        <time>2023-06-28T07:51:35Z</time>
      </trkpt>
      <trkpt lat="49.95846" lon="2.13126">
        <ele>13.3</ele>
        <time>2023-06-28T07:51:36Z</time>
      </trkpt>
      <trkpt lat="49.95847" lon="2.13126">
        <ele>13.1</ele>
        <time>2023-06-28T07:51:37Z</time>
      </trkpt>
      <trkpt lat="49.95848" lon="2.13125">
        <ele>13.1</ele>
        <time>2023-06-28T07:51:38Z</time>
      </trkpt>
      <trkpt lat="49.95848" lon="2.13124">
        <ele>13.2</ele>
        <time>2023-06-28T07:51:39Z</time>
      </trkpt>
      <trkpt lat="49.9585" lon="2.13123">
        <ele>13.2</ele>
        <time>2023-06-28T07:51:40Z</time>
      </trkpt>
      <trkpt lat="49.9585" lon="2.13122">
        <ele>13.2</ele>
        <time>2023-06-28T07:51:41Z</time>
      </trkpt>
      <trkpt lat="49.95851" lon="2.13121">
        <ele>13.2</ele>
        <time>2023-06-28T07:51:42Z</time>
      </trkpt>
      <trkpt lat="49.95852" lon="2.13121">
        <ele>13.2</ele>
        <time>2023-06-28T07:51:43Z</time>
      </trkpt>
      <trkpt lat="49.95853" lon="2.1312">
        <ele>13.2</ele>
        <time>2023-06-28T07:51:44Z</time>
      </trkpt>
      <trkpt lat="49.95854" lon="2.13119">
        <ele>13.4</ele>
        <time>2023-06-28T07:51:45Z</time>
      </trkpt>
      <trkpt lat="49.95855" lon="2.13118">
        <ele>13.4</ele>
        <time>2023-06-28T07:51:46Z</time>
      </trkpt>
      <trkpt lat="49.95855" lon="2.13117">
        <ele>13.3</ele>
        <time>2023-06-28T07:51:47Z</time>
      </trkpt>
      <trkpt lat="49.95856" lon="2.13117">
        <ele>13.3</ele>
        <time>2023-06-28T07:51:48Z</time>
      </trkpt>
      <trkpt lat="49.95857" lon="2.13116">
        <ele>13.4</ele>
        <time>2023-06-28T07:51:49Z</time>
      </trkpt>
      <trkpt lat="49.95857" lon="2.13115">
        <ele>13.4</ele>
        <time>2023-06-28T07:51:50Z</time>
      </trkpt>
      <trkpt lat="49.95858" lon="2.13115">
        <ele>13.4</ele>
        <time>2023-06-28T07:51:51Z</time>
      </trkpt>
      <trkpt lat="49.95858" lon="2.13114">
        <ele>13.4</ele>
        <time>2023-06-28T07:51:52Z</time>
      </trkpt>
      <trkpt lat="49.95859" lon="2.13113">
        <ele>13.4</ele>
        <time>2023-06-28T07:51:53Z</time>
      </trkpt>
      <trkpt lat="49.9586" lon="2.13113">
        <ele>13.4</ele>
        <time>2023-06-28T07:51:54Z</time>
      </trkpt>
      <trkpt lat="49.9586" lon="2.13112">
        <ele>13.4</ele>
        <time>2023-06-28T07:51:55Z</time>
      </trkpt>
      <trkpt lat="49.95861" lon="2.13111">
        <ele>13.4</ele>
        <time>2023-06-28T07:51:56Z</time>
      </trkpt>
      <trkpt lat="49.95862" lon="2.13111">
        <ele>13.6</ele>
        <time>2023-06-28T07:51:57Z</time>
      </trkpt>
      <trkpt lat="49.95863" lon="2.1311">
        <ele>13.6</ele>
        <time>2023-06-28T07:51:58Z</time>
      </trkpt>
      <trkpt lat="49.95864" lon="2.13109">
        <ele>13.5</ele>
        <time>2023-06-28T07:51:59Z</time>
      </trkpt>
      <trkpt lat="49.95865" lon="2.13108">
        <ele>13.6</ele>
        <time>2023-06-28T07:52:00Z</time>
      </trkpt>
      <trkpt lat="49.95866" lon="2.13108">
        <ele>13.6</ele>
        <time>2023-06-28T07:52:01Z</time>
      </trkpt>
      <trkpt lat="49.95866" lon="2.13107">
        <ele>13.6</ele>
        <time>2023-06-28T07:52:02Z</time>
      </trkpt>
      <trkpt lat="49.95867" lon="2.13107">
        <ele>13.6</ele>
        <time>2023-06-28T07:52:03Z</time>
      </trkpt>
      <trkpt lat="49.95867" lon="2.13107">
        <ele>13.6</ele>
        <time>2023-06-28T07:52:04Z</time>
      </trkpt>
      <trkpt lat="49.95867" lon="2.13106">
        <ele>13.6</ele>
        <time>2023-06-28T07:52:05Z</time>
      </trkpt>
      <trkpt lat="49.95868" lon="2.13105">
        <ele>13.7</ele>
        <time>2023-06-28T07:52:06Z</time>
      </trkpt>
      <trkpt lat="49.95868" lon="2.13105">
        <ele>13.7</ele>
        <time>2023-06-28T07:52:07Z</time>
      </trkpt>
      <trkpt lat="49.95869" lon="2.13104">
        <ele>13.6</ele>
        <time>2023-06-28T07:52:08Z</time>
      </trkpt>
      <trkpt lat="49.95869" lon="2.13103">
        <ele>13.6</ele>
        <time>2023-06-28T07:52:09Z</time>
      </trkpt>
      <trkpt lat="49.95869" lon="2.13102">
        <ele>13.6</ele>
        <time>2023-06-28T07:52:10Z</time>
      </trkpt>
      <trkpt lat="49.9587" lon="2.13101">
        <ele>13.6</ele>
        <time>2023-06-28T07:52:11Z</time>
      </trkpt>
      <trkpt lat="49.9587" lon="2.13101">
        <ele>13.6</ele>
        <time>2023-06-28T07:52:12Z</time>
      </trkpt>
      <trkpt lat="49.9587" lon="2.13101">
        <ele>13.6</ele>
        <time>2023-06-28T07:52:13Z</time>
      </trkpt>
      <trkpt lat="49.9587" lon="2.131">
        <ele>13.7</ele>
        <time>2023-06-28T07:52:14Z</time>
      </trkpt>
      <trkpt lat="49.9587" lon="2.131">
        <ele>13.7</ele>
        <time>2023-06-28T07:52:15Z</time>
      </trkpt>
      <trkpt lat="49.95871" lon="2.131">
        <ele>13.7</ele>
        <time>2023-06-28T07:52:16Z</time>
      </trkpt>
      <trkpt lat="49.95871" lon="2.131">
        <ele>13.7</ele>
        <time>2023-06-28T07:52:17Z</time>
      </trkpt>
      <trkpt lat="49.95871" lon="2.131">
        <ele>13.7</ele>
        <time>2023-06-28T07:52:18Z</time>
      </trkpt>
      <trkpt lat="49.95871" lon="2.13099">
        <ele>13.7</ele>
        <time>2023-06-28T07:52:19Z</time>
      </trkpt>
      <trkpt lat="49.95871" lon="2.13099">
        <ele>13.7</ele>
        <time>2023-06-28T07:52:20Z</time>
      </trkpt>
      <trkpt lat="49.95872" lon="2.13098">
        <ele>13.7</ele>
        <time>2023-06-28T07:52:21Z</time>
      </trkpt>
      <trkpt lat="49.95872" lon="2.13097">
        <ele>13.7</ele>
        <time>2023-06-28T07:52:22Z</time>
      </trkpt>
      <trkpt lat="49.95873" lon="2.13096">
        <ele>13.6</ele>
        <time>2023-06-28T07:52:23Z</time>
      </trkpt>
      <trkpt lat="49.95873" lon="2.13094">
        <ele>13.6</ele>
        <time>2023-06-28T07:52:24Z</time>
      </trkpt>
      <trkpt lat="49.95873" lon="2.13093">
        <ele>13.6</ele>
        <time>2023-06-28T07:52:25Z</time>
      </trkpt>
      <trkpt lat="49.95873" lon="2.13092">
        <ele>13.7</ele>
        <time>2023-06-28T07:52:26Z</time>
      </trkpt>
      <trkpt lat="49.95873" lon="2.13091">
        <ele>13.7</ele>
        <time>2023-06-28T07:52:27Z</time>
      </trkpt>
      <trkpt lat="49.95874" lon="2.1309">
        <ele>13.7</ele>
        <time>2023-06-28T07:52:28Z</time>
      </trkpt>
      <trkpt lat="49.95874" lon="2.13089">
        <ele>13.7</ele>
        <time>2023-06-28T07:52:29Z</time>
      </trkpt>
      <trkpt lat="49.95875" lon="2.13087">
        <ele>13.6</ele>
        <time>2023-06-28T07:52:30Z</time>
      </trkpt>
      <trkpt lat="49.95875" lon="2.13086">
        <ele>13.6</ele>
        <time>2023-06-28T07:52:31Z</time>
      </trkpt>
      <trkpt lat="49.95876" lon="2.13085">
        <ele>13.8</ele>
        <time>2023-06-28T07:52:32Z</time>
      </trkpt>
      <trkpt lat="49.95877" lon="2.13084">
        <ele>13.8</ele>
        <time>2023-06-28T07:52:33Z</time>
      </trkpt>
      <trkpt lat="49.95878" lon="2.13083">
        <ele>13.7</ele>
        <time>2023-06-28T07:52:34Z</time>
      </trkpt>
      <trkpt lat="49.95878" lon="2.13082">
        <ele>13.7</ele>
        <time>2023-06-28T07:52:35Z</time>
      </trkpt>
      <trkpt lat="49.95879" lon="2.13081">
        <ele>13.8</ele>
        <time>2023-06-28T07:52:36Z</time>
      </trkpt>
      <trkpt lat="49.95879" lon="2.13081">
        <ele>13.8</ele>
        <time>2023-06-28T07:52:37Z</time>
      </trkpt>
      <trkpt lat="49.95879" lon="2.1308">
        <ele>13.8</ele>
        <time>2023-06-28T07:52:38Z</time>
      </trkpt>
      <trkpt lat="49.95879" lon="2.1308">
        <ele>13.8</ele>
        <time>2023-06-28T07:52:39Z</time>
      </trkpt>
      <trkpt lat="49.9588" lon="2.1308">
        <ele>13.8</ele>
        <time>2023-06-28T07:52:40Z</time>
      </trkpt>
      <trkpt lat="49.9588" lon="2.13079">
        <ele>13.8</ele>
        <time>2023-06-28T07:52:41Z</time>
      </trkpt>
      <trkpt lat="49.95881" lon="2.13078">
        <ele>13.8</ele>
        <time>2023-06-28T07:52:42Z</time>
      </trkpt>
      <trkpt lat="49.95881" lon="2.13078">
        <ele>13.8</ele>
        <time>2023-06-28T07:52:43Z</time>
      </trkpt>
      <trkpt lat="49.95881" lon="2.13077">
        <ele>13.8</ele>
        <time>2023-06-28T07:52:44Z</time>
      </trkpt>
      <trkpt lat="49.95882" lon="2.13076">
        <ele>13.9</ele>
        <time>2023-06-28T07:52:45Z</time>
      </trkpt>
      <trkpt lat="49.95884" lon="2.13074">
        <ele>13.9</ele>
        <time>2023-06-28T07:52:46Z</time>
      </trkpt>
      <trkpt lat="49.95884" lon="2.13073">
        <ele>14</ele>
        <time>2023-06-28T07:52:47Z</time>
      </trkpt>
      <trkpt lat="49.95885" lon="2.13072">
        <ele>14</ele>
        <time>2023-06-28T07:52:48Z</time>
      </trkpt>
      <trkpt lat="49.95886" lon="2.13071">
        <ele>14</ele>
        <time>2023-06-28T07:52:49Z</time>
      </trkpt>
      <trkpt lat="49.95888" lon="2.13069">
        <ele>14.2</ele>
        <time>2023-06-28T07:52:50Z</time>
      </trkpt>
      <trkpt lat="49.95889" lon="2.13068">
        <ele>14.2</ele>
        <time>2023-06-28T07:52:51Z</time>
      </trkpt>
      <trkpt lat="49.9589" lon="2.13067">
        <ele>14.2</ele>
        <time>2023-06-28T07:52:52Z</time>
      </trkpt>
      <trkpt lat="49.9589" lon="2.13066">
        <ele>14.3</ele>
        <time>2023-06-28T07:52:53Z</time>
      </trkpt>
      <trkpt lat="49.95891" lon="2.13066">
        <ele>14.3</ele>
        <time>2023-06-28T07:52:54Z</time>
      </trkpt>
      <trkpt lat="49.95891" lon="2.13065">
        <ele>14.3</ele>
        <time>2023-06-28T07:52:55Z</time>
      </trkpt>
      <trkpt lat="49.95892" lon="2.13064">
        <ele>14.3</ele>
        <time>2023-06-28T07:52:56Z</time>
      </trkpt>
      <trkpt lat="49.95893" lon="2.13064">
        <ele>14.4</ele>
        <time>2023-06-28T07:52:57Z</time>
      </trkpt>
      <trkpt lat="49.95894" lon="2.13063">
        <ele>14.4</ele>
        <time>2023-06-28T07:52:58Z</time>
      </trkpt>
      <trkpt lat="49.95895" lon="2.13062">
        <ele>14.4</ele>
        <time>2023-06-28T07:52:59Z</time>
      </trkpt>
      <trkpt lat="49.95896" lon="2.1306">
        <ele>14.5</ele>
        <time>2023-06-28T07:53:00Z</time>
      </trkpt>
      <trkpt lat="49.95897" lon="2.13058">
        <ele>14.5</ele>
        <time>2023-06-28T07:53:01Z</time>
      </trkpt>
      <trkpt lat="49.95898" lon="2.13057">
        <ele>14.6</ele>
        <time>2023-06-28T07:53:02Z</time>
      </trkpt>
      <trkpt lat="49.95899" lon="2.13056">
        <ele>14.6</ele>
        <time>2023-06-28T07:53:03Z</time>
      </trkpt>
      <trkpt lat="49.959" lon="2.13055">
        <ele>14.6</ele>
        <time>2023-06-28T07:53:04Z</time>
      </trkpt>
      <trkpt lat="49.95901" lon="2.13053">
        <ele>14.6</ele>
        <time>2023-06-28T07:53:05Z</time>
      </trkpt>
      <trkpt lat="49.95901" lon="2.13052">
        <ele>14.7</ele>
        <time>2023-06-28T07:53:06Z</time>
      </trkpt>
      <trkpt lat="49.95902" lon="2.13051">
        <ele>14.7</ele>
        <time>2023-06-28T07:53:07Z</time>
      </trkpt>
      <trkpt lat="49.95903" lon="2.1305">
        <ele>14.7</ele>
        <time>2023-06-28T07:53:08Z</time>
      </trkpt>
      <trkpt lat="49.95904" lon="2.13049">
        <ele>14.8</ele>
        <time>2023-06-28T07:53:09Z</time>
      </trkpt>
      <trkpt lat="49.95904" lon="2.13048">
        <ele>14.8</ele>
        <time>2023-06-28T07:53:10Z</time>
      </trkpt>
      <trkpt lat="49.95904" lon="2.13047">
        <ele>14.8</ele>
        <time>2023-06-28T07:53:11Z</time>
      </trkpt>
      <trkpt lat="49.95905" lon="2.13047">
        <ele>14.8</ele>
        <time>2023-06-28T07:53:12Z</time>
      </trkpt>
      <trkpt lat="49.95905" lon="2.13046">
        <ele>14.8</ele>
        <time>2023-06-28T07:53:13Z</time>
      </trkpt>
      <trkpt lat="49.95905" lon="2.13046">
        <ele>14.8</ele>
        <time>2023-06-28T07:53:14Z</time>
      </trkpt>
      <trkpt lat="49.95906" lon="2.13045">
        <ele>14.8</ele>
        <time>2023-06-28T07:53:15Z</time>
      </trkpt>
      <trkpt lat="49.95906" lon="2.13044">
        <ele>14.8</ele>
        <time>2023-06-28T07:53:16Z</time>
      </trkpt>
      <trkpt lat="49.95906" lon="2.13043">
        <ele>14.9</ele>
        <time>2023-06-28T07:53:17Z</time>
      </trkpt>
      <trkpt lat="49.95906" lon="2.13043">
        <ele>14.9</ele>
        <time>2023-06-28T07:53:18Z</time>
      </trkpt>
      <trkpt lat="49.95907" lon="2.13043">
        <ele>14.9</ele>
        <time>2023-06-28T07:53:19Z</time>
      </trkpt>
      <trkpt lat="49.95907" lon="2.13042">
        <ele>14.9</ele>
        <time>2023-06-28T07:53:20Z</time>
      </trkpt>
      <trkpt lat="49.95908" lon="2.13041">
        <ele>14.9</ele>
        <time>2023-06-28T07:53:21Z</time>
      </trkpt>
      <trkpt lat="49.95908" lon="2.1304">
        <ele>14.9</ele>
        <time>2023-06-28T07:53:22Z</time>
      </trkpt>
      <trkpt lat="49.95909" lon="2.13038">
        <ele>14.9</ele>
        <time>2023-06-28T07:53:23Z</time>
      </trkpt>
      <trkpt lat="49.95909" lon="2.13037">
        <ele>15</ele>
        <time>2023-06-28T07:53:24Z</time>
      </trkpt>
      <trkpt lat="49.9591" lon="2.13035">
        <ele>15</ele>
        <time>2023-06-28T07:53:25Z</time>
      </trkpt>
      <trkpt lat="49.95911" lon="2.13034">
        <ele>15</ele>
        <time>2023-06-28T07:53:26Z</time>
      </trkpt>
      <trkpt lat="49.95911" lon="2.13033">
        <ele>15</ele>
        <time>2023-06-28T07:53:27Z</time>
      </trkpt>
      <trkpt lat="49.95911" lon="2.13032">
        <ele>15</ele>
        <time>2023-06-28T07:53:28Z</time>
      </trkpt>
      <trkpt lat="49.95912" lon="2.13032">
        <ele>15</ele>
        <time>2023-06-28T07:53:29Z</time>
      </trkpt>
      <trkpt lat="49.95912" lon="2.13031">
        <ele>15.1</ele>
        <time>2023-06-28T07:53:30Z</time>
      </trkpt>
      <trkpt lat="49.95912" lon="2.13031">
        <ele>15.1</ele>
        <time>2023-06-28T07:53:31Z</time>
      </trkpt>
      <trkpt lat="49.95912" lon="2.13031">
        <ele>15.1</ele>
        <time>2023-06-28T07:53:32Z</time>
      </trkpt>
      <trkpt lat="49.95912" lon="2.1303">
        <ele>15.1</ele>
        <time>2023-06-28T07:53:33Z</time>
      </trkpt>
      <trkpt lat="49.95913" lon="2.1303">
        <ele>15.1</ele>
        <time>2023-06-28T07:53:34Z</time>
      </trkpt>
      <trkpt lat="49.95913" lon="2.13029">
        <ele>15.1</ele>
        <time>2023-06-28T07:53:35Z</time>
      </trkpt>
      <trkpt lat="49.95913" lon="2.13028">
        <ele>15.1</ele>
        <time>2023-06-28T07:53:36Z</time>
      </trkpt>
      <trkpt lat="49.95914" lon="2.13027">
        <ele>15</ele>
        <time>2023-06-28T07:53:37Z</time>
      </trkpt>
      <trkpt lat="49.95914" lon="2.13026">
        <ele>15</ele>
        <time>2023-06-28T07:53:38Z</time>
      </trkpt>
      <trkpt lat="49.95915" lon="2.13024">
        <ele>15.1</ele>
        <time>2023-06-28T07:53:39Z</time>
      </trkpt>
      <trkpt lat="49.95915" lon="2.13023">
        <ele>15.1</ele>
        <time>2023-06-28T07:53:40Z</time>
      </trkpt>
      <trkpt lat="49.95916" lon="2.13022">
        <ele>15.1</ele>
        <time>2023-06-28T07:53:41Z</time>
      </trkpt>
      <trkpt lat="49.95916" lon="2.13021">
        <ele>15.1</ele>
        <time>2023-06-28T07:53:42Z</time>
      </trkpt>
      <trkpt lat="49.95917" lon="2.13019">
        <ele>15.1</ele>
        <time>2023-06-28T07:53:43Z</time>
      </trkpt>
      <trkpt lat="49.95917" lon="2.13018">
        <ele>15.1</ele>
        <time>2023-06-28T07:53:44Z</time>
      </trkpt>
      <trkpt lat="49.95918" lon="2.13016">
        <ele>15.1</ele>
        <time>2023-06-28T07:53:45Z</time>
      </trkpt>
      <trkpt lat="49.95918" lon="2.13015">
        <ele>15.1</ele>
        <time>2023-06-28T07:53:46Z</time>
      </trkpt>
      <trkpt lat="49.95918" lon="2.13013">
        <ele>15</ele>
        <time>2023-06-28T07:53:47Z</time>
      </trkpt>
      <trkpt lat="49.95919" lon="2.13012">
        <ele>15</ele>
        <time>2023-06-28T07:53:48Z</time>
      </trkpt>
      <trkpt lat="49.95919" lon="2.13011">
        <ele>15</ele>
        <time>2023-06-28T07:53:49Z</time>
      </trkpt>
      <trkpt lat="49.95919" lon="2.13011">
        <ele>15</ele>
        <time>2023-06-28T07:53:50Z</time>
      </trkpt>
      <trkpt lat="49.95919" lon="2.1301">
        <ele>15</ele>
        <time>2023-06-28T07:53:51Z</time>
      </trkpt>
      <trkpt lat="49.95919" lon="2.1301">
        <ele>15</ele>
        <time>2023-06-28T07:53:52Z</time>
      </trkpt>
      <trkpt lat="49.9592" lon="2.13009">
        <ele>15</ele>
        <time>2023-06-28T07:53:53Z</time>
      </trkpt>
      <trkpt lat="49.9592" lon="2.13009">
        <ele>15</ele>
        <time>2023-06-28T07:53:54Z</time>
      </trkpt>
      <trkpt lat="49.9592" lon="2.13007">
        <ele>15.1</ele>
        <time>2023-06-28T07:53:55Z</time>
      </trkpt>
      <trkpt lat="49.9592" lon="2.13007">
        <ele>15.1</ele>
        <time>2023-06-28T07:53:56Z</time>
      </trkpt>
      <trkpt lat="49.95921" lon="2.13006">
        <ele>15</ele>
        <time>2023-06-28T07:53:57Z</time>
      </trkpt>
      <trkpt lat="49.95921" lon="2.13005">
        <ele>15</ele>
        <time>2023-06-28T07:53:58Z</time>
      </trkpt>
      <trkpt lat="49.95921" lon="2.13004">
        <ele>15</ele>
        <time>2023-06-28T07:53:59Z</time>
      </trkpt>
      <trkpt lat="49.95921" lon="2.13003">
        <ele>15</ele>
        <time>2023-06-28T07:54:00Z</time>
      </trkpt>
      <trkpt lat="49.95922" lon="2.13002">
        <ele>15</ele>
        <time>2023-06-28T07:54:01Z</time>
      </trkpt>
      <trkpt lat="49.95922" lon="2.13001">
        <ele>14.9</ele>
        <time>2023-06-28T07:54:02Z</time>
      </trkpt>
      <trkpt lat="49.95923" lon="2.12999">
        <ele>14.9</ele>
        <time>2023-06-28T07:54:03Z</time>
      </trkpt>
      <trkpt lat="49.95923" lon="2.12998">
        <ele>15</ele>
        <time>2023-06-28T07:54:04Z</time>
      </trkpt>
      <trkpt lat="49.95923" lon="2.12997">
        <ele>14.9</ele>
        <time>2023-06-28T07:54:05Z</time>
      </trkpt>
      <trkpt lat="49.95924" lon="2.12996">
        <ele>14.9</ele>
        <time>2023-06-28T07:54:06Z</time>
      </trkpt>
      <trkpt lat="49.95924" lon="2.12995">
        <ele>14.9</ele>
        <time>2023-06-28T07:54:07Z</time>
      </trkpt>
      <trkpt lat="49.95925" lon="2.12994">
        <ele>14.9</ele>
        <time>2023-06-28T07:54:08Z</time>
      </trkpt>
      <trkpt lat="49.95926" lon="2.12993">
        <ele>14.9</ele>
        <time>2023-06-28T07:54:09Z</time>
      </trkpt>
      <trkpt lat="49.95926" lon="2.12992">
        <ele>14.9</ele>
        <time>2023-06-28T07:54:10Z</time>
      </trkpt>
      <trkpt lat="49.95927" lon="2.12991">
        <ele>14.9</ele>
        <time>2023-06-28T07:54:11Z</time>
      </trkpt>
      <trkpt lat="49.95927" lon="2.1299">
        <ele>14.9</ele>
        <time>2023-06-28T07:54:12Z</time>
      </trkpt>
      <trkpt lat="49.95928" lon="2.12989">
        <ele>14.9</ele>
        <time>2023-06-28T07:54:13Z</time>
      </trkpt>
      <trkpt lat="49.95928" lon="2.12989">
        <ele>14.8</ele>
        <time>2023-06-28T07:54:14Z</time>
      </trkpt>
      <trkpt lat="49.95929" lon="2.12988">
        <ele>14.9</ele>
        <time>2023-06-28T07:54:15Z</time>
      </trkpt>
      <trkpt lat="49.95929" lon="2.12986">
        <ele>14.9</ele>
        <time>2023-06-28T07:54:16Z</time>
      </trkpt>
      <trkpt lat="49.9593" lon="2.12986">
        <ele>14.9</ele>
        <time>2023-06-28T07:54:17Z</time>
      </trkpt>
      <trkpt lat="49.9593" lon="2.12986">
        <ele>14.9</ele>
        <time>2023-06-28T07:54:18Z</time>
      </trkpt>
      <trkpt lat="49.9593" lon="2.12985">
        <ele>14.8</ele>
        <time>2023-06-28T07:54:19Z</time>
      </trkpt>
      <trkpt lat="49.9593" lon="2.12984">
        <ele>14.8</ele>
        <time>2023-06-28T07:54:20Z</time>
      </trkpt>
      <trkpt lat="49.95931" lon="2.12983">
        <ele>14.8</ele>
        <time>2023-06-28T07:54:21Z</time>
      </trkpt>
      <trkpt lat="49.95931" lon="2.12983">
        <ele>14.9</ele>
        <time>2023-06-28T07:54:22Z</time>
      </trkpt>
      <trkpt lat="49.95931" lon="2.12982">
        <ele>14.9</ele>
        <time>2023-06-28T07:54:23Z</time>
      </trkpt>
      <trkpt lat="49.95931" lon="2.12981">
        <ele>14.9</ele>
        <time>2023-06-28T07:54:24Z</time>
      </trkpt>
      <trkpt lat="49.95932" lon="2.12981">
        <ele>14.9</ele>
        <time>2023-06-28T07:54:25Z</time>
      </trkpt>
      <trkpt lat="49.95932" lon="2.12981">
        <ele>14.9</ele>
        <time>2023-06-28T07:54:26Z</time>
      </trkpt>
      <trkpt lat="49.95932" lon="2.1298">
        <ele>14.9</ele>
        <time>2023-06-28T07:54:27Z</time>
      </trkpt>
      <trkpt lat="49.95932" lon="2.1298">
        <ele>14.7</ele>
        <time>2023-06-28T07:54:28Z</time>
      </trkpt>
      <trkpt lat="49.95932" lon="2.1298">
        <ele>14.8</ele>
        <time>2023-06-28T07:54:29Z</time>
      </trkpt>
      <trkpt lat="49.95932" lon="2.1298">
        <ele>14.8</ele>
        <time>2023-06-28T07:54:30Z</time>
      </trkpt>
      <trkpt lat="49.95932" lon="2.12979">
        <ele>14.8</ele>
        <time>2023-06-28T07:54:31Z</time>
      </trkpt>
      <trkpt lat="49.95932" lon="2.12979">
        <ele>14.8</ele>
        <time>2023-06-28T07:54:32Z</time>
      </trkpt>
      <trkpt lat="49.95933" lon="2.12978">
        <ele>14.8</ele>
        <time>2023-06-28T07:54:33Z</time>
      </trkpt>
      <trkpt lat="49.95933" lon="2.12977">
        <ele>14.8</ele>
        <time>2023-06-28T07:54:34Z</time>
      </trkpt>
      <trkpt lat="49.95934" lon="2.12977">
        <ele>14.8</ele>
        <time>2023-06-28T07:54:35Z</time>
      </trkpt>
      <trkpt lat="49.95934" lon="2.12977">
        <ele>14.9</ele>
        <time>2023-06-28T07:54:36Z</time>
      </trkpt>
      <trkpt lat="49.95934" lon="2.12976">
        <ele>14.9</ele>
        <time>2023-06-28T07:54:37Z</time>
      </trkpt>
      <trkpt lat="49.95935" lon="2.12975">
        <ele>14.7</ele>
        <time>2023-06-28T07:54:38Z</time>
      </trkpt>
      <trkpt lat="49.95936" lon="2.12974">
        <ele>14.7</ele>
        <time>2023-06-28T07:54:39Z</time>
      </trkpt>
      <trkpt lat="49.95936" lon="2.12974">
        <ele>14.7</ele>
        <time>2023-06-28T07:54:40Z</time>
      </trkpt>
      <trkpt lat="49.95936" lon="2.12973">
        <ele>14.7</ele>
        <time>2023-06-28T07:54:41Z</time>
      </trkpt>
      <trkpt lat="49.95937" lon="2.12972">
        <ele>14.9</ele>
        <time>2023-06-28T07:54:42Z</time>
      </trkpt>
      <trkpt lat="49.95937" lon="2.12972">
        <ele>14.9</ele>
        <time>2023-06-28T07:54:43Z</time>
      </trkpt>
      <trkpt lat="49.95937" lon="2.12972">
        <ele>14.9</ele>
        <time>2023-06-28T07:54:44Z</time>
      </trkpt>
      <trkpt lat="49.95937" lon="2.12972">
        <ele>14.7</ele>
        <time>2023-06-28T07:54:45Z</time>
      </trkpt>
      <trkpt lat="49.95938" lon="2.12971">
        <ele>14.7</ele>
        <time>2023-06-28T07:54:46Z</time>
      </trkpt>
      <trkpt lat="49.95938" lon="2.12971">
        <ele>14.7</ele>
        <time>2023-06-28T07:54:47Z</time>
      </trkpt>
      <trkpt lat="49.95938" lon="2.12971">
        <ele>14.7</ele>
        <time>2023-06-28T07:54:48Z</time>
      </trkpt>
      <trkpt lat="49.95938" lon="2.12971">
        <ele>14.7</ele>
        <time>2023-06-28T07:54:49Z</time>
      </trkpt>
      <trkpt lat="49.95938" lon="2.12971">
        <ele>14.7</ele>
        <time>2023-06-28T07:54:50Z</time>
      </trkpt>
      <trkpt lat="49.95938" lon="2.12971">
        <ele>14.7</ele>
        <time>2023-06-28T07:54:51Z</time>
      </trkpt>
      <trkpt lat="49.95938" lon="2.12971">
        <ele>14.7</ele>
        <time>2023-06-28T07:54:52Z</time>
      </trkpt>
      <trkpt lat="49.95938" lon="2.12971">
        <ele>14.7</ele>
        <time>2023-06-28T07:54:53Z</time>
      </trkpt>
      <trkpt lat="49.95938" lon="2.12971">
        <ele>14.7</ele>
        <time>2023-06-28T07:54:54Z</time>
      </trkpt>
      <trkpt lat="49.95938" lon="2.12971">
        <ele>14.7</ele>
        <time>2023-06-28T07:54:55Z</time>
      </trkpt>
      <trkpt lat="49.95938" lon="2.12971">
        <ele>14.7</ele>
        <time>2023-06-28T07:54:56Z</time>
      </trkpt>
      <trkpt lat="49.95938" lon="2.12971">
        <ele>14.7</ele>
        <time>2023-06-28T07:54:57Z</time>
      </trkpt>
      <trkpt lat="49.95938" lon="2.12971">
        <ele>14.7</ele>
        <time>2023-06-28T07:54:58Z</time>
      </trkpt>
      <trkpt lat="49.95938" lon="2.12971">
        <ele>14.7</ele>
        <time>2023-06-28T07:54:59Z</time>
      </trkpt>
      <trkpt lat="49.95938" lon="2.12971">
        <ele>14.7</ele>
        <time>2023-06-28T07:55:00Z</time>
      </trkpt>
      <trkpt lat="49.95938" lon="2.12971">
        <ele>14.7</ele>
        <time>2023-06-28T07:55:01Z</time>
      </trkpt>
      <trkpt lat="49.95938" lon="2.12971">
        <ele>14.7</ele>
        <time>2023-06-28T07:55:02Z</time>
      </trkpt>
      <trkpt lat="49.95938" lon="2.12971">
        <ele>14.7</ele>
        <time>2023-06-28T07:55:03Z</time>
      </trkpt>
      <trkpt lat="49.95938" lon="2.12971">
        <ele>14.7</ele>
        <time>2023-06-28T07:55:04Z</time>
      </trkpt>
      <trkpt lat="49.95938" lon="2.12971">
        <ele>14.7</ele>
        <time>2023-06-28T07:55:05Z</time>
      </trkpt>
      <trkpt lat="49.95938" lon="2.12971">
        <ele>14.7</ele>
        <time>2023-06-28T07:55:06Z</time>
      </trkpt>
      <trkpt lat="49.95938" lon="2.12971">
        <ele>14.7</ele>
        <time>2023-06-28T07:55:07Z</time>
      </trkpt>
      <trkpt lat="49.95938" lon="2.1297">
        <ele>14.7</ele>
        <time>2023-06-28T07:55:08Z</time>
      </trkpt>
      <trkpt lat="49.95938" lon="2.12971">
        <ele>14.7</ele>
        <time>2023-06-28T07:55:09Z</time>
      </trkpt>
      <trkpt lat="49.95938" lon="2.12971">
        <ele>14.7</ele>
        <time>2023-06-28T07:55:10Z</time>
      </trkpt>
      <trkpt lat="49.95938" lon="2.12971">
        <ele>14.7</ele>
        <time>2023-06-28T07:55:11Z</time>
      </trkpt>
      <trkpt lat="49.95938" lon="2.12971">
        <ele>14.7</ele>
        <time>2023-06-28T07:55:12Z</time>
      </trkpt>
      <trkpt lat="49.95938" lon="2.12971">
        <ele>14.7</ele>
        <time>2023-06-28T07:55:13Z</time>
      </trkpt>
      <trkpt lat="49.95938" lon="2.12971">
        <ele>14.7</ele>
        <time>2023-06-28T07:55:14Z</time>
      </trkpt>
      <trkpt lat="49.95938" lon="2.12971">
        <ele>14.7</ele>
        <time>2023-06-28T07:55:15Z</time>
      </trkpt>
      <trkpt lat="49.95938" lon="2.12971">
        <ele>14.7</ele>
        <time>2023-06-28T07:55:16Z</time>
      </trkpt>
      <trkpt lat="49.95938" lon="2.12971">
        <ele>14.7</ele>
        <time>2023-06-28T07:55:17Z</time>
      </trkpt>
      <trkpt lat="49.95938" lon="2.12971">
        <ele>14.7</ele>
        <time>2023-06-28T07:55:18Z</time>
      </trkpt>
      <trkpt lat="49.95938" lon="2.12971">
        <ele>14.7</ele>
        <time>2023-06-28T07:55:19Z</time>
      </trkpt>
      <trkpt lat="49.95938" lon="2.12971">
        <ele>14.7</ele>
        <time>2023-06-28T07:55:20Z</time>
      </trkpt>
      <trkpt lat="49.95938" lon="2.12971">
        <ele>14.7</ele>
        <time>2023-06-28T07:55:21Z</time>
      </trkpt>
      <trkpt lat="49.95938" lon="2.12971">
        <ele>14.7</ele>
        <time>2023-06-28T07:55:22Z</time>
      </trkpt>
      <trkpt lat="49.95938" lon="2.12971">
        <ele>14.7</ele>
        <time>2023-06-28T07:55:23Z</time>
      </trkpt>
      <trkpt lat="49.95938" lon="2.1297">
        <ele>14.7</ele>
        <time>2023-06-28T07:55:24Z</time>
      </trkpt>
      <trkpt lat="49.95938" lon="2.1297">
        <ele>14.7</ele>
        <time>2023-06-28T07:55:25Z</time>
      </trkpt>
      <trkpt lat="49.95938" lon="2.12971">
        <ele>14.7</ele>
        <time>2023-06-28T07:55:26Z</time>
      </trkpt>
      <trkpt lat="49.95938" lon="2.12971">
        <ele>14.7</ele>
        <time>2023-06-28T07:55:27Z</time>
      </trkpt>
      <trkpt lat="49.95938" lon="2.12971">
        <ele>14.7</ele>
        <time>2023-06-28T07:55:28Z</time>
      </trkpt>
      <trkpt lat="49.95938" lon="2.12971">
        <ele>14.7</ele>
        <time>2023-06-28T07:55:29Z</time>
      </trkpt>
      <trkpt lat="49.95938" lon="2.12971">
        <ele>14.7</ele>
        <time>2023-06-28T07:55:30Z</time>
      </trkpt>
      <trkpt lat="49.95938" lon="2.12971">
        <ele>14.7</ele>
        <time>2023-06-28T07:55:31Z</time>
      </trkpt>
      <trkpt lat="49.95939" lon="2.1297">
        <ele>14.7</ele>
        <time>2023-06-28T07:55:32Z</time>
      </trkpt>
      <trkpt lat="49.95939" lon="2.1297">
        <ele>14.7</ele>
        <time>2023-06-28T07:55:33Z</time>
      </trkpt>
      <trkpt lat="49.95939" lon="2.12969">
        <ele>14.7</ele>
        <time>2023-06-28T07:55:34Z</time>
      </trkpt>
      <trkpt lat="49.9594" lon="2.12967">
        <ele>14.8</ele>
        <time>2023-06-28T07:55:35Z</time>
      </trkpt>
      <trkpt lat="49.95941" lon="2.12967">
        <ele>14.7</ele>
        <time>2023-06-28T07:55:36Z</time>
      </trkpt>
      <trkpt lat="49.95941" lon="2.12966">
        <ele>14.7</ele>
        <time>2023-06-28T07:55:37Z</time>
      </trkpt>
      <trkpt lat="49.95941" lon="2.12965">
        <ele>14.7</ele>
        <time>2023-06-28T07:55:38Z</time>
      </trkpt>
      <trkpt lat="49.95943" lon="2.12963">
        <ele>14.7</ele>
        <time>2023-06-28T07:55:39Z</time>
      </trkpt>
      <trkpt lat="49.95943" lon="2.12962">
        <ele>14.7</ele>
        <time>2023-06-28T07:55:40Z</time>
      </trkpt>
      <trkpt lat="49.95944" lon="2.12961">
        <ele>14.7</ele>
        <time>2023-06-28T07:55:41Z</time>
      </trkpt>
      <trkpt lat="49.95945" lon="2.1296">
        <ele>14.7</ele>
        <time>2023-06-28T07:55:42Z</time>
      </trkpt>
      <trkpt lat="49.95946" lon="2.12958">
        <ele>14.7</ele>
        <time>2023-06-28T07:55:43Z</time>
      </trkpt>
      <trkpt lat="49.95946" lon="2.12957">
        <ele>14.7</ele>
        <time>2023-06-28T07:55:44Z</time>
      </trkpt>
      <trkpt lat="49.95948" lon="2.12953">
        <ele>14.7</ele>
        <time>2023-06-28T07:55:45Z</time>
      </trkpt>
      <trkpt lat="49.95949" lon="2.12953">
        <ele>14.7</ele>
        <time>2023-06-28T07:55:46Z</time>
      </trkpt>
      <trkpt lat="49.95952" lon="2.12948">
        <ele>14.7</ele>
        <time>2023-06-28T07:55:47Z</time>
      </trkpt>
      <trkpt lat="49.95953" lon="2.12946">
        <ele>14.7</ele>
        <time>2023-06-28T07:55:48Z</time>
      </trkpt>
      <trkpt lat="49.95956" lon="2.12942">
        <ele>14.7</ele>
        <time>2023-06-28T07:55:49Z</time>
      </trkpt>
      <trkpt lat="49.95957" lon="2.1294">
        <ele>14.7</ele>
        <time>2023-06-28T07:55:50Z</time>
      </trkpt>
      <trkpt lat="49.95958" lon="2.12938">
        <ele>14.7</ele>
        <time>2023-06-28T07:55:51Z</time>
      </trkpt>
      <trkpt lat="49.95961" lon="2.12934">
        <ele>14.6</ele>
        <time>2023-06-28T07:55:52Z</time>
      </trkpt>
      <trkpt lat="49.95964" lon="2.12931">
        <ele>14.6</ele>
        <time>2023-06-28T07:55:53Z</time>
      </trkpt>
      <trkpt lat="49.95964" lon="2.1293">
        <ele>14.8</ele>
        <time>2023-06-28T07:55:54Z</time>
      </trkpt>
      <trkpt lat="49.95965" lon="2.12928">
        <ele>14.6</ele>
        <time>2023-06-28T07:55:55Z</time>
      </trkpt>
      <trkpt lat="49.95966" lon="2.12927">
        <ele>14.6</ele>
        <time>2023-06-28T07:55:56Z</time>
      </trkpt>
      <trkpt lat="49.95967" lon="2.12926">
        <ele>14.6</ele>
        <time>2023-06-28T07:55:57Z</time>
      </trkpt>
      <trkpt lat="49.95968" lon="2.12925">
        <ele>14.8</ele>
        <time>2023-06-28T07:55:58Z</time>
      </trkpt>
      <trkpt lat="49.95968" lon="2.12924">
        <ele>14.6</ele>
        <time>2023-06-28T07:55:59Z</time>
      </trkpt>
      <trkpt lat="49.95969" lon="2.12923">
        <ele>14.6</ele>
        <time>2023-06-28T07:56:00Z</time>
      </trkpt>
      <trkpt lat="49.95971" lon="2.12921">
        <ele>14.7</ele>
        <time>2023-06-28T07:56:01Z</time>
      </trkpt>
      <trkpt lat="49.95971" lon="2.1292">
        <ele>14.7</ele>
        <time>2023-06-28T07:56:02Z</time>
      </trkpt>
      <trkpt lat="49.95972" lon="2.1292">
        <ele>14.6</ele>
        <time>2023-06-28T07:56:03Z</time>
      </trkpt>
      <trkpt lat="49.95973" lon="2.12919">
        <ele>14.7</ele>
        <time>2023-06-28T07:56:04Z</time>
      </trkpt>
      <trkpt lat="49.95974" lon="2.12917">
        <ele>14.7</ele>
        <time>2023-06-28T07:56:05Z</time>
      </trkpt>
      <trkpt lat="49.95975" lon="2.12916">
        <ele>14.7</ele>
        <time>2023-06-28T07:56:06Z</time>
      </trkpt>
      <trkpt lat="49.95975" lon="2.12915">
        <ele>14.5</ele>
        <time>2023-06-28T07:56:07Z</time>
      </trkpt>
      <trkpt lat="49.95976" lon="2.12914">
        <ele>14.6</ele>
        <time>2023-06-28T07:56:08Z</time>
      </trkpt>
      <trkpt lat="49.95976" lon="2.12913">
        <ele>14.6</ele>
        <time>2023-06-28T07:56:09Z</time>
      </trkpt>
      <trkpt lat="49.95977" lon="2.12912">
        <ele>14.6</ele>
        <time>2023-06-28T07:56:10Z</time>
      </trkpt>
      <trkpt lat="49.95977" lon="2.12912">
        <ele>14.3</ele>
        <time>2023-06-28T07:56:11Z</time>
      </trkpt>
      <trkpt lat="49.95978" lon="2.12911">
        <ele>14.3</ele>
        <time>2023-06-28T07:56:12Z</time>
      </trkpt>
      <trkpt lat="49.95978" lon="2.12911">
        <ele>14.4</ele>
        <time>2023-06-28T07:56:13Z</time>
      </trkpt>
      <trkpt lat="49.95978" lon="2.1291">
        <ele>14.4</ele>
        <time>2023-06-28T07:56:14Z</time>
      </trkpt>
      <trkpt lat="49.95979" lon="2.1291">
        <ele>14.4</ele>
        <time>2023-06-28T07:56:15Z</time>
      </trkpt>
      <trkpt lat="49.95979" lon="2.1291">
        <ele>14.4</ele>
        <time>2023-06-28T07:56:16Z</time>
      </trkpt>
      <trkpt lat="49.95979" lon="2.12909">
        <ele>14.4</ele>
        <time>2023-06-28T07:56:17Z</time>
      </trkpt>
      <trkpt lat="49.95979" lon="2.12909">
        <ele>14.4</ele>
        <time>2023-06-28T07:56:18Z</time>
      </trkpt>
      <trkpt lat="49.9598" lon="2.12908">
        <ele>14.4</ele>
        <time>2023-06-28T07:56:19Z</time>
      </trkpt>
      <trkpt lat="49.9598" lon="2.12907">
        <ele>14.1</ele>
        <time>2023-06-28T07:56:20Z</time>
      </trkpt>
      <trkpt lat="49.95981" lon="2.12906">
        <ele>14.2</ele>
        <time>2023-06-28T07:56:21Z</time>
      </trkpt>
      <trkpt lat="49.95981" lon="2.12906">
        <ele>14.2</ele>
        <time>2023-06-28T07:56:22Z</time>
      </trkpt>
      <trkpt lat="49.95982" lon="2.12905">
        <ele>14.2</ele>
        <time>2023-06-28T07:56:23Z</time>
      </trkpt>
      <trkpt lat="49.95982" lon="2.12905">
        <ele>14.2</ele>
        <time>2023-06-28T07:56:24Z</time>
      </trkpt>
      <trkpt lat="49.95982" lon="2.12904">
        <ele>14.2</ele>
        <time>2023-06-28T07:56:25Z</time>
      </trkpt>
      <trkpt lat="49.95982" lon="2.12904">
        <ele>14.2</ele>
        <time>2023-06-28T07:56:26Z</time>
      </trkpt>
      <trkpt lat="49.95982" lon="2.12904">
        <ele>14.2</ele>
        <time>2023-06-28T07:56:27Z</time>
      </trkpt>
      <trkpt lat="49.95983" lon="2.12904">
        <ele>14.2</ele>
        <time>2023-06-28T07:56:28Z</time>
      </trkpt>
      <trkpt lat="49.95983" lon="2.12903">
        <ele>14.2</ele>
        <time>2023-06-28T07:56:29Z</time>
      </trkpt>
      <trkpt lat="49.95983" lon="2.12903">
        <ele>13.8</ele>
        <time>2023-06-28T07:56:30Z</time>
      </trkpt>
      <trkpt lat="49.95983" lon="2.12902">
        <ele>13.8</ele>
        <time>2023-06-28T07:56:31Z</time>
      </trkpt>
      <trkpt lat="49.95984" lon="2.12902">
        <ele>13.9</ele>
        <time>2023-06-28T07:56:32Z</time>
      </trkpt>
      <trkpt lat="49.95984" lon="2.12901">
        <ele>13.9</ele>
        <time>2023-06-28T07:56:33Z</time>
      </trkpt>
      <trkpt lat="49.95985" lon="2.129">
        <ele>13.9</ele>
        <time>2023-06-28T07:56:34Z</time>
      </trkpt>
      <trkpt lat="49.95986" lon="2.12899">
        <ele>13.9</ele>
        <time>2023-06-28T07:56:35Z</time>
      </trkpt>
      <trkpt lat="49.95986" lon="2.12898">
        <ele>13.5</ele>
        <time>2023-06-28T07:56:36Z</time>
      </trkpt>
      <trkpt lat="49.95987" lon="2.12897">
        <ele>13.6</ele>
        <time>2023-06-28T07:56:37Z</time>
      </trkpt>
      <trkpt lat="49.95988" lon="2.12895">
        <ele>13.6</ele>
        <time>2023-06-28T07:56:38Z</time>
      </trkpt>
      <trkpt lat="49.95988" lon="2.12894">
        <ele>13.1</ele>
        <time>2023-06-28T07:56:39Z</time>
      </trkpt>
      <trkpt lat="49.95989" lon="2.12892">
        <ele>13.1</ele>
        <time>2023-06-28T07:56:40Z</time>
      </trkpt>
      <trkpt lat="49.9599" lon="2.12888">
        <ele>12.8</ele>
        <time>2023-06-28T07:56:41Z</time>
      </trkpt>
      <trkpt lat="49.95991" lon="2.12886">
        <ele>12.8</ele>
        <time>2023-06-28T07:56:42Z</time>
      </trkpt>
      <trkpt lat="49.95992" lon="2.12884">
        <ele>12.4</ele>
        <time>2023-06-28T07:56:43Z</time>
      </trkpt>
      <trkpt lat="49.95993" lon="2.1288">
        <ele>12.2</ele>
        <time>2023-06-28T07:56:44Z</time>
      </trkpt>
      <trkpt lat="49.95994" lon="2.12878">
        <ele>12.2</ele>
        <time>2023-06-28T07:56:45Z</time>
      </trkpt>
      <trkpt lat="49.95995" lon="2.12876">
        <ele>12.2</ele>
        <time>2023-06-28T07:56:46Z</time>
      </trkpt>
      <trkpt lat="49.95995" lon="2.12874">
        <ele>12.2</ele>
        <time>2023-06-28T07:56:47Z</time>
      </trkpt>
      <trkpt lat="49.95996" lon="2.12872">
        <ele>11.9</ele>
        <time>2023-06-28T07:56:48Z</time>
      </trkpt>
      <trkpt lat="49.95996" lon="2.12871">
        <ele>11.9</ele>
        <time>2023-06-28T07:56:49Z</time>
      </trkpt>
      <trkpt lat="49.95997" lon="2.1287">
        <ele>11.9</ele>
        <time>2023-06-28T07:56:50Z</time>
      </trkpt>
      <trkpt lat="49.95997" lon="2.12869">
        <ele>11.9</ele>
        <time>2023-06-28T07:56:51Z</time>
      </trkpt>
      <trkpt lat="49.95997" lon="2.12868">
        <ele>11.7</ele>
        <time>2023-06-28T07:56:52Z</time>
      </trkpt>
      <trkpt lat="49.95997" lon="2.12867">
        <ele>12</ele>
        <time>2023-06-28T07:56:53Z</time>
      </trkpt>
      <trkpt lat="49.95998" lon="2.12867">
        <ele>12</ele>
        <time>2023-06-28T07:56:54Z</time>
      </trkpt>
      <trkpt lat="49.95998" lon="2.12866">
        <ele>12</ele>
        <time>2023-06-28T07:56:55Z</time>
      </trkpt>
      <trkpt lat="49.95998" lon="2.12866">
        <ele>12</ele>
        <time>2023-06-28T07:56:56Z</time>
      </trkpt>
      <trkpt lat="49.95998" lon="2.12866">
        <ele>12</ele>
        <time>2023-06-28T07:56:57Z</time>
      </trkpt>
      <trkpt lat="49.95998" lon="2.12865">
        <ele>12</ele>
        <time>2023-06-28T07:56:58Z</time>
      </trkpt>
      <trkpt lat="49.95999" lon="2.12865">
        <ele>12</ele>
        <time>2023-06-28T07:56:59Z</time>
      </trkpt>
      <trkpt lat="49.95999" lon="2.12863">
        <ele>11.9</ele>
        <time>2023-06-28T07:57:00Z</time>
      </trkpt>
      <trkpt lat="49.95999" lon="2.12863">
        <ele>11.9</ele>
        <time>2023-06-28T07:57:01Z</time>
      </trkpt>
      <trkpt lat="49.95999" lon="2.12863">
        <ele>11.9</ele>
        <time>2023-06-28T07:57:02Z</time>
      </trkpt>
      <trkpt lat="49.96" lon="2.12863">
        <ele>11.9</ele>
        <time>2023-06-28T07:57:03Z</time>
      </trkpt>
      <trkpt lat="49.96" lon="2.12861">
        <ele>12.1</ele>
        <time>2023-06-28T07:57:04Z</time>
      </trkpt>
      <trkpt lat="49.96001" lon="2.1286">
        <ele>12</ele>
        <time>2023-06-28T07:57:05Z</time>
      </trkpt>
      <trkpt lat="49.96002" lon="2.12859">
        <ele>12</ele>
        <time>2023-06-28T07:57:06Z</time>
      </trkpt>
      <trkpt lat="49.96003" lon="2.12857">
        <ele>12</ele>
        <time>2023-06-28T07:57:07Z</time>
      </trkpt>
      <trkpt lat="49.96003" lon="2.12856">
        <ele>12.3</ele>
        <time>2023-06-28T07:57:08Z</time>
      </trkpt>
      <trkpt lat="49.96004" lon="2.12855">
        <ele>12.2</ele>
        <time>2023-06-28T07:57:09Z</time>
      </trkpt>
      <trkpt lat="49.96004" lon="2.12855">
        <ele>12.2</ele>
        <time>2023-06-28T07:57:10Z</time>
      </trkpt>
      <trkpt lat="49.96005" lon="2.12854">
        <ele>12.2</ele>
        <time>2023-06-28T07:57:11Z</time>
      </trkpt>
      <trkpt lat="49.96005" lon="2.12853">
        <ele>12.2</ele>
        <time>2023-06-28T07:57:12Z</time>
      </trkpt>
      <trkpt lat="49.96006" lon="2.12852">
        <ele>12.4</ele>
        <time>2023-06-28T07:57:13Z</time>
      </trkpt>
      <trkpt lat="49.96006" lon="2.12851">
        <ele>12.4</ele>
        <time>2023-06-28T07:57:14Z</time>
      </trkpt>
      <trkpt lat="49.96007" lon="2.1285">
        <ele>12.4</ele>
        <time>2023-06-28T07:57:15Z</time>
      </trkpt>
      <trkpt lat="49.96009" lon="2.12848">
        <ele>12.6</ele>
        <time>2023-06-28T07:57:16Z</time>
      </trkpt>
      <trkpt lat="49.9601" lon="2.12847">
        <ele>12.5</ele>
        <time>2023-06-28T07:57:17Z</time>
      </trkpt>
      <trkpt lat="49.96011" lon="2.12846">
        <ele>12.7</ele>
        <time>2023-06-28T07:57:18Z</time>
      </trkpt>
      <trkpt lat="49.96012" lon="2.12845">
        <ele>12.7</ele>
        <time>2023-06-28T07:57:19Z</time>
      </trkpt>
      <trkpt lat="49.96012" lon="2.12843">
        <ele>12.7</ele>
        <time>2023-06-28T07:57:20Z</time>
      </trkpt>
      <trkpt lat="49.96013" lon="2.12842">
        <ele>12.6</ele>
        <time>2023-06-28T07:57:21Z</time>
      </trkpt>
      <trkpt lat="49.96013" lon="2.12841">
        <ele>12.6</ele>
        <time>2023-06-28T07:57:22Z</time>
      </trkpt>
      <trkpt lat="49.96014" lon="2.1284">
        <ele>12.6</ele>
        <time>2023-06-28T07:57:23Z</time>
      </trkpt>
      <trkpt lat="49.96016" lon="2.12841">
        <ele>12.7</ele>
        <time>2023-06-28T07:57:24Z</time>
      </trkpt>
      <trkpt lat="49.96017" lon="2.12841">
        <ele>12.8</ele>
        <time>2023-06-28T07:57:25Z</time>
      </trkpt>
      <trkpt lat="49.96018" lon="2.1284">
        <ele>12.8</ele>
        <time>2023-06-28T07:57:26Z</time>
      </trkpt>
      <trkpt lat="49.96019" lon="2.12839">
        <ele>12.8</ele>
        <time>2023-06-28T07:57:27Z</time>
      </trkpt>
      <trkpt lat="49.9602" lon="2.12839">
        <ele>12.9</ele>
        <time>2023-06-28T07:57:28Z</time>
      </trkpt>
      <trkpt lat="49.96021" lon="2.12838">
        <ele>12.8</ele>
        <time>2023-06-28T07:57:29Z</time>
      </trkpt>
      <trkpt lat="49.96021" lon="2.12838">
        <ele>12.8</ele>
        <time>2023-06-28T07:57:30Z</time>
      </trkpt>
      <trkpt lat="49.96022" lon="2.12838">
        <ele>12.8</ele>
        <time>2023-06-28T07:57:31Z</time>
      </trkpt>
      <trkpt lat="49.96022" lon="2.12838">
        <ele>12.8</ele>
        <time>2023-06-28T07:57:32Z</time>
      </trkpt>
      <trkpt lat="49.96022" lon="2.12838">
        <ele>12.8</ele>
        <time>2023-06-28T07:57:33Z</time>
      </trkpt>
      <trkpt lat="49.96022" lon="2.12838">
        <ele>12.8</ele>
        <time>2023-06-28T07:57:34Z</time>
      </trkpt>
      <trkpt lat="49.96022" lon="2.12838">
        <ele>12.8</ele>
        <time>2023-06-28T07:57:35Z</time>
      </trkpt>
      <trkpt lat="49.96022" lon="2.12839">
        <ele>12.8</ele>
        <time>2023-06-28T07:57:36Z</time>
      </trkpt>
      <trkpt lat="49.96022" lon="2.12839">
        <ele>12.8</ele>
        <time>2023-06-28T07:57:37Z</time>
      </trkpt>
      <trkpt lat="49.96022" lon="2.12839">
        <ele>12.8</ele>
        <time>2023-06-28T07:57:38Z</time>
      </trkpt>
      <trkpt lat="49.96022" lon="2.12839">
        <ele>12.8</ele>
        <time>2023-06-28T07:57:39Z</time>
      </trkpt>
      <trkpt lat="49.96022" lon="2.12839">
        <ele>12.8</ele>
        <time>2023-06-28T07:57:40Z</time>
      </trkpt>
      <trkpt lat="49.96022" lon="2.12839">
        <ele>12.8</ele>
        <time>2023-06-28T07:57:41Z</time>
      </trkpt>
      <trkpt lat="49.96022" lon="2.12839">
        <ele>12.8</ele>
        <time>2023-06-28T07:57:42Z</time>
      </trkpt>
      <trkpt lat="49.96022" lon="2.12839">
        <ele>12.8</ele>
        <time>2023-06-28T07:57:43Z</time>
      </trkpt>
      <trkpt lat="49.96022" lon="2.12839">
        <ele>12.8</ele>
        <time>2023-06-28T07:57:44Z</time>
      </trkpt>
      <trkpt lat="49.96022" lon="2.12839">
        <ele>12.8</ele>
        <time>2023-06-28T07:57:45Z</time>
      </trkpt>
      <trkpt lat="49.96022" lon="2.12839">
        <ele>12.8</ele>
        <time>2023-06-28T07:57:46Z</time>
      </trkpt>
      <trkpt lat="49.96022" lon="2.12839">
        <ele>12.8</ele>
        <time>2023-06-28T07:57:47Z</time>
      </trkpt>
      <trkpt lat="49.96022" lon="2.12839">
        <ele>12.8</ele>
        <time>2023-06-28T07:57:48Z</time>
      </trkpt>
      <trkpt lat="49.96022" lon="2.12839">
        <ele>12.8</ele>
        <time>2023-06-28T07:57:49Z</time>
      </trkpt>
      <trkpt lat="49.96022" lon="2.12839">
        <ele>12.8</ele>
        <time>2023-06-28T07:57:50Z</time>
      </trkpt>
      <trkpt lat="49.96022" lon="2.12839">
        <ele>12.8</ele>
        <time>2023-06-28T07:57:51Z</time>
      </trkpt>
      <trkpt lat="49.96023" lon="2.12837">
        <ele>12.8</ele>
        <time>2023-06-28T07:57:52Z</time>
      </trkpt>
      <trkpt lat="49.96023" lon="2.12835">
        <ele>12.8</ele>
        <time>2023-06-28T07:57:53Z</time>
      </trkpt>
      <trkpt lat="49.96023" lon="2.12834">
        <ele>12.8</ele>
        <time>2023-06-28T07:57:54Z</time>
      </trkpt>
      <trkpt lat="49.96024" lon="2.12834">
        <ele>12.7</ele>
        <time>2023-06-28T07:57:55Z</time>
      </trkpt>
      <trkpt lat="49.96024" lon="2.12834">
        <ele>12.7</ele>
        <time>2023-06-28T07:57:56Z</time>
      </trkpt>
      <trkpt lat="49.96024" lon="2.12834">
        <ele>12.7</ele>
        <time>2023-06-28T07:57:57Z</time>
      </trkpt>
      <trkpt lat="49.96024" lon="2.12834">
        <ele>12.7</ele>
        <time>2023-06-28T07:57:58Z</time>
      </trkpt>
      <trkpt lat="49.96024" lon="2.12833">
        <ele>12.7</ele>
        <time>2023-06-28T07:57:59Z</time>
      </trkpt>
      <trkpt lat="49.96024" lon="2.12833">
        <ele>12.7</ele>
        <time>2023-06-28T07:58:00Z</time>
      </trkpt>
      <trkpt lat="49.96024" lon="2.12833">
        <ele>12.7</ele>
        <time>2023-06-28T07:58:01Z</time>
      </trkpt>
      <trkpt lat="49.96024" lon="2.12833">
        <ele>12.7</ele>
        <time>2023-06-28T07:58:02Z</time>
      </trkpt>
      <trkpt lat="49.96024" lon="2.12833">
        <ele>12.7</ele>
        <time>2023-06-28T07:58:03Z</time>
      </trkpt>
      <trkpt lat="49.96024" lon="2.12833">
        <ele>12.7</ele>
        <time>2023-06-28T07:58:04Z</time>
      </trkpt>
      <trkpt lat="49.96024" lon="2.12833">
        <ele>12.7</ele>
        <time>2023-06-28T07:58:05Z</time>
      </trkpt>
      <trkpt lat="49.96024" lon="2.12833">
        <ele>12.7</ele>
        <time>2023-06-28T07:58:06Z</time>
      </trkpt>
      <trkpt lat="49.96024" lon="2.12833">
        <ele>12.7</ele>
        <time>2023-06-28T07:58:07Z</time>
      </trkpt>
      <trkpt lat="49.96024" lon="2.12833">
        <ele>12.7</ele>
        <time>2023-06-28T07:58:08Z</time>
      </trkpt>
      <trkpt lat="49.96024" lon="2.12833">
        <ele>12.7</ele>
        <time>2023-06-28T07:58:09Z</time>
      </trkpt>
      <trkpt lat="49.96024" lon="2.12833">
        <ele>12.7</ele>
        <time>2023-06-28T07:58:10Z</time>
      </trkpt>
      <trkpt lat="49.96024" lon="2.12833">
        <ele>12.7</ele>
        <time>2023-06-28T07:58:11Z</time>
      </trkpt>
      <trkpt lat="49.96024" lon="2.12833">
        <ele>12.7</ele>
        <time>2023-06-28T07:58:12Z</time>
      </trkpt>
      <trkpt lat="49.96024" lon="2.12833">
        <ele>12.7</ele>
        <time>2023-06-28T07:58:13Z</time>
      </trkpt>
      <trkpt lat="49.96024" lon="2.12833">
        <ele>12.7</ele>
        <time>2023-06-28T07:58:14Z</time>
      </trkpt>
      <trkpt lat="49.96024" lon="2.12833">
        <ele>12.7</ele>
        <time>2023-06-28T07:58:15Z</time>
      </trkpt>
      <trkpt lat="49.96024" lon="2.12833">
        <ele>12.7</ele>
        <time>2023-06-28T07:58:16Z</time>
      </trkpt>
      <trkpt lat="49.96024" lon="2.12833">
        <ele>12.7</ele>
        <time>2023-06-28T07:58:17Z</time>
      </trkpt>
      <trkpt lat="49.96024" lon="2.12833">
        <ele>12.7</ele>
        <time>2023-06-28T07:58:18Z</time>
      </trkpt>
      <trkpt lat="49.96024" lon="2.12833">
        <ele>12.7</ele>
        <time>2023-06-28T07:58:19Z</time>
      </trkpt>
      <trkpt lat="49.96024" lon="2.12833">
        <ele>12.7</ele>
        <time>2023-06-28T07:58:20Z</time>
      </trkpt>
      <trkpt lat="49.96024" lon="2.12833">
        <ele>12.7</ele>
        <time>2023-06-28T07:58:21Z</time>
      </trkpt>
      <trkpt lat="49.96024" lon="2.12833">
        <ele>12.7</ele>
        <time>2023-06-28T07:58:22Z</time>
      </trkpt>
      <trkpt lat="49.96024" lon="2.12833">
        <ele>12.7</ele>
        <time>2023-06-28T07:58:23Z</time>
      </trkpt>
      <trkpt lat="49.96024" lon="2.12833">
        <ele>12.7</ele>
        <time>2023-06-28T07:58:24Z</time>
      </trkpt>
      <trkpt lat="49.96024" lon="2.12833">
        <ele>12.7</ele>
        <time>2023-06-28T07:58:25Z</time>
      </trkpt>
      <trkpt lat="49.96024" lon="2.12833">
        <ele>12.7</ele>
        <time>2023-06-28T07:58:26Z</time>
      </trkpt>
      <trkpt lat="49.96024" lon="2.12833">
        <ele>12.7</ele>
        <time>2023-06-28T07:58:27Z</time>
      </trkpt>
      <trkpt lat="49.96024" lon="2.12833">
        <ele>12.7</ele>
        <time>2023-06-28T07:58:28Z</time>
      </trkpt>
      <trkpt lat="49.96024" lon="2.12833">
        <ele>12.7</ele>
        <time>2023-06-28T07:58:29Z</time>
      </trkpt>
      <trkpt lat="49.96024" lon="2.12833">
        <ele>12.7</ele>
        <time>2023-06-28T07:58:30Z</time>
      </trkpt>
      <trkpt lat="49.96023" lon="2.12833">
        <ele>12.7</ele>
        <time>2023-06-28T07:58:31Z</time>
      </trkpt>
      <trkpt lat="49.96023" lon="2.12833">
        <ele>12.7</ele>
        <time>2023-06-28T07:58:32Z</time>
      </trkpt>
      <trkpt lat="49.96023" lon="2.12833">
        <ele>12.7</ele>
        <time>2023-06-28T07:58:33Z</time>
      </trkpt>
      <trkpt lat="49.96022" lon="2.12833">
        <ele>12.7</ele>
        <time>2023-06-28T07:58:34Z</time>
      </trkpt>
      <trkpt lat="49.96022" lon="2.12833">
        <ele>12.7</ele>
        <time>2023-06-28T07:58:35Z</time>
      </trkpt>
      <trkpt lat="49.96022" lon="2.12834">
        <ele>12.7</ele>
        <time>2023-06-28T07:58:36Z</time>
      </trkpt>
      <trkpt lat="49.96022" lon="2.12835">
        <ele>12.8</ele>
        <time>2023-06-28T07:58:37Z</time>
      </trkpt>
      <trkpt lat="49.96022" lon="2.12835">
        <ele>12.8</ele>
        <time>2023-06-28T07:58:38Z</time>
      </trkpt>
      <trkpt lat="49.96022" lon="2.12835">
        <ele>12.8</ele>
        <time>2023-06-28T07:58:39Z</time>
      </trkpt>
      <trkpt lat="49.96021" lon="2.12835">
        <ele>12.8</ele>
        <time>2023-06-28T07:58:40Z</time>
      </trkpt>
      <trkpt lat="49.96021" lon="2.12836">
        <ele>12.8</ele>
        <time>2023-06-28T07:58:41Z</time>
      </trkpt>
      <trkpt lat="49.9602" lon="2.12836">
        <ele>12.8</ele>
        <time>2023-06-28T07:58:42Z</time>
      </trkpt>
      <trkpt lat="49.9602" lon="2.12837">
        <ele>12.8</ele>
        <time>2023-06-28T07:58:43Z</time>
      </trkpt>
      <trkpt lat="49.9602" lon="2.12838">
        <ele>12.8</ele>
        <time>2023-06-28T07:58:44Z</time>
      </trkpt>
      <trkpt lat="49.96019" lon="2.12838">
        <ele>12.7</ele>
        <time>2023-06-28T07:58:45Z</time>
      </trkpt>
      <trkpt lat="49.96019" lon="2.12838">
        <ele>12.7</ele>
        <time>2023-06-28T07:58:46Z</time>
      </trkpt>
      <trkpt lat="49.96018" lon="2.12839">
        <ele>12.8</ele>
        <time>2023-06-28T07:58:47Z</time>
      </trkpt>
      <trkpt lat="49.96017" lon="2.1284">
        <ele>12.8</ele>
        <time>2023-06-28T07:58:48Z</time>
      </trkpt>
      <trkpt lat="49.96018" lon="2.12842">
        <ele>12.8</ele>
        <time>2023-06-28T07:58:49Z</time>
      </trkpt>
      <trkpt lat="49.96018" lon="2.12843">
        <ele>12.9</ele>
        <time>2023-06-28T07:58:50Z</time>
      </trkpt>
      <trkpt lat="49.96018" lon="2.12844">
        <ele>12.9</ele>
        <time>2023-06-28T07:58:51Z</time>
      </trkpt>
      <trkpt lat="49.96017" lon="2.12845">
        <ele>12.9</ele>
        <time>2023-06-28T07:58:52Z</time>
      </trkpt>
      <trkpt lat="49.96017" lon="2.12846">
        <ele>12.9</ele>
        <time>2023-06-28T07:58:53Z</time>
      </trkpt>
      <trkpt lat="49.96016" lon="2.12847">
        <ele>12.8</ele>
        <time>2023-06-28T07:58:54Z</time>
      </trkpt>
      <trkpt lat="49.96016" lon="2.12848">
        <ele>12.9</ele>
        <time>2023-06-28T07:58:55Z</time>
      </trkpt>
      <trkpt lat="49.96016" lon="2.12849">
        <ele>12.9</ele>
        <time>2023-06-28T07:58:56Z</time>
      </trkpt>
      <trkpt lat="49.96015" lon="2.12851">
        <ele>12.9</ele>
        <time>2023-06-28T07:58:57Z</time>
      </trkpt>
      <trkpt lat="49.96014" lon="2.12852">
        <ele>13</ele>
        <time>2023-06-28T07:58:58Z</time>
      </trkpt>
      <trkpt lat="49.96013" lon="2.12853">
        <ele>12.9</ele>
        <time>2023-06-28T07:58:59Z</time>
      </trkpt>
      <trkpt lat="49.96012" lon="2.12855">
        <ele>12.9</ele>
        <time>2023-06-28T07:59:00Z</time>
      </trkpt>
      <trkpt lat="49.96011" lon="2.12855">
        <ele>12.9</ele>
        <time>2023-06-28T07:59:01Z</time>
      </trkpt>
      <trkpt lat="49.96011" lon="2.12858">
        <ele>12.8</ele>
        <time>2023-06-28T07:59:02Z</time>
      </trkpt>
      <trkpt lat="49.9601" lon="2.1286">
        <ele>12.9</ele>
        <time>2023-06-28T07:59:03Z</time>
      </trkpt>
      <trkpt lat="49.96009" lon="2.12861">
        <ele>12.9</ele>
        <time>2023-06-28T07:59:04Z</time>
      </trkpt>
      <trkpt lat="49.96009" lon="2.12862">
        <ele>12.9</ele>
        <time>2023-06-28T07:59:05Z</time>
      </trkpt>
      <trkpt lat="49.96007" lon="2.12863">
        <ele>12.7</ele>
        <time>2023-06-28T07:59:06Z</time>
      </trkpt>
      <trkpt lat="49.96007" lon="2.12864">
        <ele>12.7</ele>
        <time>2023-06-28T07:59:07Z</time>
      </trkpt>
      <trkpt lat="49.96006" lon="2.12865">
        <ele>12.8</ele>
        <time>2023-06-28T07:59:08Z</time>
      </trkpt>
      <trkpt lat="49.96005" lon="2.12868">
        <ele>12.6</ele>
        <time>2023-06-28T07:59:09Z</time>
      </trkpt>
      <trkpt lat="49.96004" lon="2.12869">
        <ele>12.7</ele>
        <time>2023-06-28T07:59:10Z</time>
      </trkpt>
      <trkpt lat="49.96004" lon="2.12871">
        <ele>12.7</ele>
        <time>2023-06-28T07:59:11Z</time>
      </trkpt>
      <trkpt lat="49.96003" lon="2.12872">
        <ele>12.7</ele>
        <time>2023-06-28T07:59:12Z</time>
      </trkpt>
      <trkpt lat="49.96002" lon="2.12873">
        <ele>12.7</ele>
        <time>2023-06-28T07:59:13Z</time>
      </trkpt>
      <trkpt lat="49.96001" lon="2.12874">
        <ele>12.7</ele>
        <time>2023-06-28T07:59:14Z</time>
      </trkpt>
      <trkpt lat="49.96001" lon="2.12875">
        <ele>12.7</ele>
        <time>2023-06-28T07:59:15Z</time>
      </trkpt>
      <trkpt lat="49.96" lon="2.12876">
        <ele>12.7</ele>
        <time>2023-06-28T07:59:16Z</time>
      </trkpt>
      <trkpt lat="49.96" lon="2.12876">
        <ele>12.4</ele>
        <time>2023-06-28T07:59:17Z</time>
      </trkpt>
      <trkpt lat="49.96" lon="2.12876">
        <ele>12.4</ele>
        <time>2023-06-28T07:59:18Z</time>
      </trkpt>
      <trkpt lat="49.96" lon="2.12877">
        <ele>12.4</ele>
        <time>2023-06-28T07:59:19Z</time>
      </trkpt>
      <trkpt lat="49.96" lon="2.12877">
        <ele>12.4</ele>
        <time>2023-06-28T07:59:20Z</time>
      </trkpt>
      <trkpt lat="49.96" lon="2.12877">
        <ele>12.4</ele>
        <time>2023-06-28T07:59:21Z</time>
      </trkpt>
      <trkpt lat="49.96" lon="2.12877">
        <ele>12.4</ele>
        <time>2023-06-28T07:59:22Z</time>
      </trkpt>
      <trkpt lat="49.96" lon="2.12877">
        <ele>12.4</ele>
        <time>2023-06-28T07:59:23Z</time>
      </trkpt>
      <trkpt lat="49.96" lon="2.12877">
        <ele>12.4</ele>
        <time>2023-06-28T07:59:24Z</time>
      </trkpt>
      <trkpt lat="49.96" lon="2.12877">
        <ele>12.4</ele>
        <time>2023-06-28T07:59:25Z</time>
      </trkpt>
      <trkpt lat="49.95999" lon="2.12877">
        <ele>12.7</ele>
        <time>2023-06-28T07:59:26Z</time>
      </trkpt>
      <trkpt lat="49.95999" lon="2.12877">
        <ele>12.7</ele>
        <time>2023-06-28T07:59:27Z</time>
      </trkpt>
      <trkpt lat="49.95999" lon="2.12877">
        <ele>12.7</ele>
        <time>2023-06-28T07:59:28Z</time>
      </trkpt>
      <trkpt lat="49.95999" lon="2.12878">
        <ele>12.7</ele>
        <time>2023-06-28T07:59:29Z</time>
      </trkpt>
      <trkpt lat="49.95999" lon="2.12878">
        <ele>12.7</ele>
        <time>2023-06-28T07:59:30Z</time>
      </trkpt>
      <trkpt lat="49.95999" lon="2.12878">
        <ele>12.7</ele>
        <time>2023-06-28T07:59:31Z</time>
      </trkpt>
      <trkpt lat="49.95999" lon="2.12878">
        <ele>12.7</ele>
        <time>2023-06-28T07:59:32Z</time>
      </trkpt>
      <trkpt lat="49.95999" lon="2.12878">
        <ele>12.7</ele>
        <time>2023-06-28T07:59:33Z</time>
      </trkpt>
      <trkpt lat="49.95999" lon="2.12878">
        <ele>12.7</ele>
        <time>2023-06-28T07:59:34Z</time>
      </trkpt>
      <trkpt lat="49.95999" lon="2.12877">
        <ele>12.7</ele>
        <time>2023-06-28T07:59:35Z</time>
      </trkpt>
      <trkpt lat="49.95999" lon="2.12877">
        <ele>12.4</ele>
        <time>2023-06-28T07:59:36Z</time>
      </trkpt>
      <trkpt lat="49.95998" lon="2.12878">
        <ele>12.7</ele>
        <time>2023-06-28T07:59:37Z</time>
      </trkpt>
      <trkpt lat="49.95997" lon="2.12878">
        <ele>12.5</ele>
        <time>2023-06-28T07:59:38Z</time>
      </trkpt>
      <trkpt lat="49.95997" lon="2.12878">
        <ele>12.5</ele>
        <time>2023-06-28T07:59:39Z</time>
      </trkpt>
      <trkpt lat="49.95997" lon="2.12878">
        <ele>12.5</ele>
        <time>2023-06-28T07:59:40Z</time>
      </trkpt>
      <trkpt lat="49.95997" lon="2.12878">
        <ele>12.5</ele>
        <time>2023-06-28T07:59:41Z</time>
      </trkpt>
      <trkpt lat="49.95997" lon="2.12878">
        <ele>12.5</ele>
        <time>2023-06-28T07:59:42Z</time>
      </trkpt>
      <trkpt lat="49.95997" lon="2.12878">
        <ele>12.5</ele>
        <time>2023-06-28T07:59:43Z</time>
      </trkpt>
      <trkpt lat="49.95997" lon="2.12878">
        <ele>12.5</ele>
        <time>2023-06-28T07:59:44Z</time>
      </trkpt>
      <trkpt lat="49.95997" lon="2.12878">
        <ele>12.5</ele>
        <time>2023-06-28T07:59:45Z</time>
      </trkpt>
      <trkpt lat="49.95996" lon="2.12878">
        <ele>12.5</ele>
        <time>2023-06-28T07:59:46Z</time>
      </trkpt>
      <trkpt lat="49.95996" lon="2.12878">
        <ele>12.5</ele>
        <time>2023-06-28T07:59:47Z</time>
      </trkpt>
      <trkpt lat="49.95996" lon="2.12878">
        <ele>12.5</ele>
        <time>2023-06-28T07:59:48Z</time>
      </trkpt>
      <trkpt lat="49.95996" lon="2.12878">
        <ele>12.5</ele>
        <time>2023-06-28T07:59:49Z</time>
      </trkpt>
      <trkpt lat="49.95996" lon="2.12878">
        <ele>12.5</ele>
        <time>2023-06-28T07:59:50Z</time>
      </trkpt>
      <trkpt lat="49.95996" lon="2.12878">
        <ele>12.5</ele>
        <time>2023-06-28T07:59:51Z</time>
      </trkpt>
      <trkpt lat="49.95996" lon="2.12878">
        <ele>12.5</ele>
        <time>2023-06-28T07:59:52Z</time>
      </trkpt>
      <trkpt lat="49.95996" lon="2.12878">
        <ele>12.5</ele>
        <time>2023-06-28T07:59:53Z</time>
      </trkpt>
      <trkpt lat="49.95996" lon="2.12878">
        <ele>12.5</ele>
        <time>2023-06-28T07:59:54Z</time>
      </trkpt>
      <trkpt lat="49.95996" lon="2.12878">
        <ele>12.5</ele>
        <time>2023-06-28T07:59:55Z</time>
      </trkpt>
      <trkpt lat="49.95996" lon="2.12878">
        <ele>12.5</ele>
        <time>2023-06-28T07:59:56Z</time>
      </trkpt>
      <trkpt lat="49.95996" lon="2.12878">
        <ele>12.5</ele>
        <time>2023-06-28T07:59:57Z</time>
      </trkpt>
      <trkpt lat="49.95996" lon="2.12878">
        <ele>12.5</ele>
        <time>2023-06-28T07:59:58Z</time>
      </trkpt>
      <trkpt lat="49.95996" lon="2.12878">
        <ele>12.5</ele>
        <time>2023-06-28T07:59:59Z</time>
      </trkpt>
      <trkpt lat="49.95996" lon="2.12878">
        <ele>12.5</ele>
        <time>2023-06-28T08:00:00Z</time>
      </trkpt>
      <trkpt lat="49.95996" lon="2.12878">
        <ele>12.5</ele>
        <time>2023-06-28T08:00:01Z</time>
      </trkpt>
      <trkpt lat="49.95996" lon="2.12878">
        <ele>12.5</ele>
        <time>2023-06-28T08:00:02Z</time>
      </trkpt>
      <trkpt lat="49.95996" lon="2.12878">
        <ele>12.5</ele>
        <time>2023-06-28T08:00:03Z</time>
      </trkpt>
      <trkpt lat="49.95996" lon="2.12878">
        <ele>12.5</ele>
        <time>2023-06-28T08:00:04Z</time>
      </trkpt>
      <trkpt lat="49.95996" lon="2.12878">
        <ele>12.5</ele>
        <time>2023-06-28T08:00:05Z</time>
      </trkpt>
      <trkpt lat="49.95996" lon="2.12878">
        <ele>12.5</ele>
        <time>2023-06-28T08:00:06Z</time>
      </trkpt>
      <trkpt lat="49.95996" lon="2.12878">
        <ele>12.5</ele>
        <time>2023-06-28T08:00:07Z</time>
      </trkpt>
      <trkpt lat="49.95996" lon="2.12878">
        <ele>12.5</ele>
        <time>2023-06-28T08:00:08Z</time>
      </trkpt>
      <trkpt lat="49.95996" lon="2.12878">
        <ele>12.5</ele>
        <time>2023-06-28T08:00:09Z</time>
      </trkpt>
      <trkpt lat="49.95996" lon="2.12878">
        <ele>12.5</ele>
        <time>2023-06-28T08:00:10Z</time>
      </trkpt>
      <trkpt lat="49.95996" lon="2.12878">
        <ele>12.5</ele>
        <time>2023-06-28T08:00:11Z</time>
      </trkpt>
      <trkpt lat="49.95996" lon="2.12878">
        <ele>12.5</ele>
        <time>2023-06-28T08:00:12Z</time>
      </trkpt>
      <trkpt lat="49.95996" lon="2.12878">
        <ele>12.5</ele>
        <time>2023-06-28T08:00:13Z</time>
      </trkpt>
      <trkpt lat="49.95996" lon="2.12878">
        <ele>12.5</ele>
        <time>2023-06-28T08:00:14Z</time>
      </trkpt>
      <trkpt lat="49.95996" lon="2.12878">
        <ele>12.5</ele>
        <time>2023-06-28T08:00:15Z</time>
      </trkpt>
      <trkpt lat="49.95996" lon="2.12878">
        <ele>12.5</ele>
        <time>2023-06-28T08:00:16Z</time>
      </trkpt>
      <trkpt lat="49.95996" lon="2.12878">
        <ele>12.5</ele>
        <time>2023-06-28T08:00:17Z</time>
      </trkpt>
      <trkpt lat="49.95996" lon="2.12878">
        <ele>12.5</ele>
        <time>2023-06-28T08:00:18Z</time>
      </trkpt>
      <trkpt lat="49.95996" lon="2.12878">
        <ele>12.5</ele>
        <time>2023-06-28T08:00:19Z</time>
      </trkpt>
      <trkpt lat="49.95996" lon="2.12878">
        <ele>12.5</ele>
        <time>2023-06-28T08:00:20Z</time>
      </trkpt>
      <trkpt lat="49.95996" lon="2.12878">
        <ele>12.5</ele>
        <time>2023-06-28T08:00:21Z</time>
      </trkpt>
      <trkpt lat="49.95996" lon="2.12878">
        <ele>12.5</ele>
        <time>2023-06-28T08:00:22Z</time>
      </trkpt>
      <trkpt lat="49.95996" lon="2.12878">
        <ele>12.5</ele>
        <time>2023-06-28T08:00:23Z</time>
      </trkpt>
      <trkpt lat="49.95996" lon="2.12878">
        <ele>12.5</ele>
        <time>2023-06-28T08:00:24Z</time>
      </trkpt>
      <trkpt lat="49.95996" lon="2.12878">
        <ele>12.5</ele>
        <time>2023-06-28T08:00:25Z</time>
      </trkpt>
      <trkpt lat="49.95996" lon="2.12878">
        <ele>12.5</ele>
        <time>2023-06-28T08:00:26Z</time>
      </trkpt>
      <trkpt lat="49.95996" lon="2.12878">
        <ele>12.5</ele>
        <time>2023-06-28T08:00:27Z</time>
      </trkpt>
      <trkpt lat="49.95996" lon="2.12878">
        <ele>12.5</ele>
        <time>2023-06-28T08:00:28Z</time>
      </trkpt>
      <trkpt lat="49.95996" lon="2.12878">
        <ele>12.5</ele>
        <time>2023-06-28T08:00:29Z</time>
      </trkpt>
      <trkpt lat="49.95996" lon="2.12878">
        <ele>12.5</ele>
        <time>2023-06-28T08:00:30Z</time>
      </trkpt>
      <trkpt lat="49.95996" lon="2.12878">
        <ele>12.5</ele>
        <time>2023-06-28T08:00:31Z</time>
      </trkpt>
      <trkpt lat="49.95996" lon="2.12878">
        <ele>12.5</ele>
        <time>2023-06-28T08:00:32Z</time>
      </trkpt>
      <trkpt lat="49.95996" lon="2.12878">
        <ele>12.5</ele>
        <time>2023-06-28T08:00:33Z</time>
      </trkpt>
      <trkpt lat="49.95996" lon="2.12878">
        <ele>12.5</ele>
        <time>2023-06-28T08:00:34Z</time>
      </trkpt>
      <trkpt lat="49.95996" lon="2.12878">
        <ele>12.5</ele>
        <time>2023-06-28T08:00:35Z</time>
      </trkpt>
      <trkpt lat="49.95996" lon="2.12878">
        <ele>12.5</ele>
        <time>2023-06-28T08:00:36Z</time>
      </trkpt>
      <trkpt lat="49.95996" lon="2.12878">
        <ele>12.5</ele>
        <time>2023-06-28T08:00:37Z</time>
      </trkpt>
      <trkpt lat="49.95996" lon="2.12878">
        <ele>12.5</ele>
        <time>2023-06-28T08:00:38Z</time>
      </trkpt>
      <trkpt lat="49.95996" lon="2.12878">
        <ele>12.5</ele>
        <time>2023-06-28T08:00:39Z</time>
      </trkpt>
      <trkpt lat="49.95996" lon="2.12878">
        <ele>12.5</ele>
        <time>2023-06-28T08:00:40Z</time>
      </trkpt>
      <trkpt lat="49.95996" lon="2.12878">
        <ele>12.5</ele>
        <time>2023-06-28T08:00:41Z</time>
      </trkpt>
      <trkpt lat="49.95996" lon="2.12878">
        <ele>12.5</ele>
        <time>2023-06-28T08:00:42Z</time>
      </trkpt>
      <trkpt lat="49.95996" lon="2.12878">
        <ele>12.5</ele>
        <time>2023-06-28T08:00:43Z</time>
      </trkpt>
      <trkpt lat="49.95996" lon="2.12878">
        <ele>12.5</ele>
        <time>2023-06-28T08:00:44Z</time>
      </trkpt>
      <trkpt lat="49.95996" lon="2.12878">
        <ele>12.5</ele>
        <time>2023-06-28T08:00:45Z</time>
      </trkpt>
      <trkpt lat="49.95996" lon="2.12878">
        <ele>12.5</ele>
        <time>2023-06-28T08:00:46Z</time>
      </trkpt>
      <trkpt lat="49.95996" lon="2.12878">
        <ele>12.5</ele>
        <time>2023-06-28T08:00:47Z</time>
      </trkpt>
      <trkpt lat="49.95996" lon="2.12878">
        <ele>12.5</ele>
        <time>2023-06-28T08:00:48Z</time>
      </trkpt>
      <trkpt lat="49.95996" lon="2.12878">
        <ele>12.5</ele>
        <time>2023-06-28T08:00:49Z</time>
      </trkpt>
      <trkpt lat="49.95996" lon="2.12878">
        <ele>12.5</ele>
        <time>2023-06-28T08:00:50Z</time>
      </trkpt>
      <trkpt lat="49.95996" lon="2.12878">
        <ele>12.5</ele>
        <time>2023-06-28T08:00:51Z</time>
      </trkpt>
      <trkpt lat="49.95996" lon="2.12878">
        <ele>12.5</ele>
        <time>2023-06-28T08:00:52Z</time>
      </trkpt>
      <trkpt lat="49.95996" lon="2.12878">
        <ele>12.5</ele>
        <time>2023-06-28T08:00:53Z</time>
      </trkpt>
      <trkpt lat="49.95996" lon="2.12878">
        <ele>12.5</ele>
        <time>2023-06-28T08:00:54Z</time>
      </trkpt>
      <trkpt lat="49.95996" lon="2.12878">
        <ele>12.5</ele>
        <time>2023-06-28T08:00:55Z</time>
      </trkpt>
      <trkpt lat="49.95996" lon="2.12878">
        <ele>12.5</ele>
        <time>2023-06-28T08:00:56Z</time>
      </trkpt>
      <trkpt lat="49.95996" lon="2.12878">
        <ele>12.5</ele>
        <time>2023-06-28T08:00:57Z</time>
      </trkpt>
      <trkpt lat="49.95996" lon="2.12878">
        <ele>12.5</ele>
        <time>2023-06-28T08:00:58Z</time>
      </trkpt>
      <trkpt lat="49.95996" lon="2.12878">
        <ele>12.5</ele>
        <time>2023-06-28T08:00:59Z</time>
      </trkpt>
      <trkpt lat="49.95996" lon="2.12878">
        <ele>12.5</ele>
        <time>2023-06-28T08:01:00Z</time>
      </trkpt>
      <trkpt lat="49.95996" lon="2.12878">
        <ele>12.5</ele>
        <time>2023-06-28T08:01:01Z</time>
      </trkpt>
      <trkpt lat="49.95996" lon="2.12878">
        <ele>12.5</ele>
        <time>2023-06-28T08:01:02Z</time>
      </trkpt>
      <trkpt lat="49.95996" lon="2.12878">
        <ele>12.5</ele>
        <time>2023-06-28T08:01:03Z</time>
      </trkpt>
      <trkpt lat="49.95996" lon="2.12878">
        <ele>12.5</ele>
        <time>2023-06-28T08:01:04Z</time>
      </trkpt>
      <trkpt lat="49.95996" lon="2.12878">
        <ele>12.5</ele>
        <time>2023-06-28T08:01:05Z</time>
      </trkpt>
      <trkpt lat="49.95996" lon="2.12878">
        <ele>12.5</ele>
        <time>2023-06-28T08:01:06Z</time>
      </trkpt>
      <trkpt lat="49.95996" lon="2.12878">
        <ele>12.5</ele>
        <time>2023-06-28T08:01:07Z</time>
      </trkpt>
      <trkpt lat="49.95996" lon="2.12878">
        <ele>12.5</ele>
        <time>2023-06-28T08:01:08Z</time>
      </trkpt>
      <trkpt lat="49.95996" lon="2.12878">
        <ele>12.5</ele>
        <time>2023-06-28T08:01:09Z</time>
      </trkpt>
      <trkpt lat="49.95996" lon="2.12878">
        <ele>12.5</ele>
        <time>2023-06-28T08:01:10Z</time>
      </trkpt>
      <trkpt lat="49.95996" lon="2.12878">
        <ele>12.5</ele>
        <time>2023-06-28T08:01:11Z</time>
      </trkpt>
      <trkpt lat="49.95996" lon="2.12878">
        <ele>12.5</ele>
        <time>2023-06-28T08:01:12Z</time>
      </trkpt>
      <trkpt lat="49.95996" lon="2.12878">
        <ele>12.5</ele>
        <time>2023-06-28T08:01:13Z</time>
      </trkpt>
      <trkpt lat="49.95996" lon="2.12878">
        <ele>12.5</ele>
        <time>2023-06-28T08:01:14Z</time>
      </trkpt>
      <trkpt lat="49.95996" lon="2.12878">
        <ele>12.5</ele>
        <time>2023-06-28T08:01:15Z</time>
      </trkpt>
      <trkpt lat="49.95996" lon="2.12878">
        <ele>12.5</ele>
        <time>2023-06-28T08:01:16Z</time>
      </trkpt>
      <trkpt lat="49.95996" lon="2.12878">
        <ele>12.5</ele>
        <time>2023-06-28T08:01:17Z</time>
      </trkpt>
      <trkpt lat="49.95996" lon="2.12878">
        <ele>12.5</ele>
        <time>2023-06-28T08:01:18Z</time>
      </trkpt>
      <trkpt lat="49.95995" lon="2.12878">
        <ele>12.5</ele>
        <time>2023-06-28T08:01:19Z</time>
      </trkpt>
      <trkpt lat="49.95995" lon="2.12878">
        <ele>12.5</ele>
        <time>2023-06-28T08:01:20Z</time>
      </trkpt>
      <trkpt lat="49.95995" lon="2.12878">
        <ele>12.5</ele>
        <time>2023-06-28T08:01:21Z</time>
      </trkpt>
      <trkpt lat="49.95995" lon="2.12878">
        <ele>12.5</ele>
        <time>2023-06-28T08:01:22Z</time>
      </trkpt>
      <trkpt lat="49.95995" lon="2.12877">
        <ele>12.5</ele>
        <time>2023-06-28T08:01:23Z</time>
      </trkpt>
      <trkpt lat="49.95995" lon="2.12877">
        <ele>12.5</ele>
        <time>2023-06-28T08:01:24Z</time>
      </trkpt>
      <trkpt lat="49.95995" lon="2.12877">
        <ele>12.5</ele>
        <time>2023-06-28T08:01:25Z</time>
      </trkpt>
      <trkpt lat="49.95995" lon="2.12877">
        <ele>12.5</ele>
        <time>2023-06-28T08:01:26Z</time>
      </trkpt>
      <trkpt lat="49.95995" lon="2.12877">
        <ele>12.5</ele>
        <time>2023-06-28T08:01:27Z</time>
      </trkpt>
      <trkpt lat="49.95995" lon="2.12877">
        <ele>12.5</ele>
        <time>2023-06-28T08:01:28Z</time>
      </trkpt>
      <trkpt lat="49.95995" lon="2.12877">
        <ele>12.5</ele>
        <time>2023-06-28T08:01:29Z</time>
      </trkpt>
      <trkpt lat="49.95995" lon="2.12877">
        <ele>12.2</ele>
        <time>2023-06-28T08:01:30Z</time>
      </trkpt>
      <trkpt lat="49.95995" lon="2.12877">
        <ele>12.2</ele>
        <time>2023-06-28T08:01:31Z</time>
      </trkpt>
      <trkpt lat="49.95994" lon="2.12877">
        <ele>12</ele>
        <time>2023-06-28T08:01:32Z</time>
      </trkpt>
      <trkpt lat="49.95994" lon="2.12877">
        <ele>12</ele>
        <time>2023-06-28T08:01:33Z</time>
      </trkpt>
      <trkpt lat="49.95994" lon="2.12877">
        <ele>12</ele>
        <time>2023-06-28T08:01:34Z</time>
      </trkpt>
      <trkpt lat="49.95995" lon="2.12877">
        <ele>12.5</ele>
        <time>2023-06-28T08:01:35Z</time>
      </trkpt>
      <trkpt lat="49.95996" lon="2.12877">
        <ele>12.5</ele>
        <time>2023-06-28T08:01:36Z</time>
      </trkpt>
      <trkpt lat="49.95996" lon="2.12877">
        <ele>12.5</ele>
        <time>2023-06-28T08:01:37Z</time>
      </trkpt>
      <trkpt lat="49.95996" lon="2.12877">
        <ele>12.5</ele>
        <time>2023-06-28T08:01:38Z</time>
      </trkpt>
      <trkpt lat="49.95996" lon="2.12877">
        <ele>12.2</ele>
        <time>2023-06-28T08:01:39Z</time>
      </trkpt>
      <trkpt lat="49.95995" lon="2.12877">
        <ele>12.2</ele>
        <time>2023-06-28T08:01:40Z</time>
      </trkpt>
      <trkpt lat="49.95997" lon="2.12876">
        <ele>12.2</ele>
        <time>2023-06-28T08:01:41Z</time>
      </trkpt>
      <trkpt lat="49.95997" lon="2.12876">
        <ele>12.5</ele>
        <time>2023-06-28T08:01:42Z</time>
      </trkpt>
      <trkpt lat="49.95998" lon="2.12876">
        <ele>12.5</ele>
        <time>2023-06-28T08:01:43Z</time>
      </trkpt>
      <trkpt lat="49.95998" lon="2.12876">
        <ele>12.5</ele>
        <time>2023-06-28T08:01:44Z</time>
      </trkpt>
      <trkpt lat="49.95998" lon="2.12876">
        <ele>12.5</ele>
        <time>2023-06-28T08:01:45Z</time>
      </trkpt>
      <trkpt lat="49.95998" lon="2.12876">
        <ele>12.5</ele>
        <time>2023-06-28T08:01:46Z</time>
      </trkpt>
      <trkpt lat="49.95998" lon="2.12876">
        <ele>12.5</ele>
        <time>2023-06-28T08:01:47Z</time>
      </trkpt>
      <trkpt lat="49.95998" lon="2.12876">
        <ele>12.5</ele>
        <time>2023-06-28T08:01:48Z</time>
      </trkpt>
      <trkpt lat="49.95998" lon="2.12877">
        <ele>12.5</ele>
        <time>2023-06-28T08:01:49Z</time>
      </trkpt>
      <trkpt lat="49.95997" lon="2.12877">
        <ele>12.2</ele>
        <time>2023-06-28T08:01:50Z</time>
      </trkpt>
      <trkpt lat="49.95998" lon="2.12876">
        <ele>12.5</ele>
        <time>2023-06-28T08:01:51Z</time>
      </trkpt>
      <trkpt lat="49.95998" lon="2.12875">
        <ele>12.5</ele>
        <time>2023-06-28T08:01:52Z</time>
      </trkpt>
      <trkpt lat="49.95999" lon="2.12874">
        <ele>12.5</ele>
        <time>2023-06-28T08:01:53Z</time>
      </trkpt>
      <trkpt lat="49.95999" lon="2.12873">
        <ele>12.5</ele>
        <time>2023-06-28T08:01:54Z</time>
      </trkpt>
      <trkpt lat="49.95999" lon="2.12873">
        <ele>12.2</ele>
        <time>2023-06-28T08:01:55Z</time>
      </trkpt>
      <trkpt lat="49.95998" lon="2.12873">
        <ele>12.5</ele>
        <time>2023-06-28T08:01:56Z</time>
      </trkpt>
      <trkpt lat="49.95998" lon="2.12873">
        <ele>12.5</ele>
        <time>2023-06-28T08:01:57Z</time>
      </trkpt>
      <trkpt lat="49.95997" lon="2.12873">
        <ele>12.5</ele>
        <time>2023-06-28T08:01:58Z</time>
      </trkpt>
      <trkpt lat="49.95997" lon="2.12872">
        <ele>12</ele>
        <time>2023-06-28T08:01:59Z</time>
      </trkpt>
      <trkpt lat="49.95997" lon="2.12871">
        <ele>12</ele>
        <time>2023-06-28T08:02:00Z</time>
      </trkpt>
      <trkpt lat="49.95997" lon="2.1287">
        <ele>12</ele>
        <time>2023-06-28T08:02:01Z</time>
      </trkpt>
      <trkpt lat="49.95998" lon="2.12867">
        <ele>12.1</ele>
        <time>2023-06-28T08:02:02Z</time>
      </trkpt>
      <trkpt lat="49.95998" lon="2.12866">
        <ele>12.1</ele>
        <time>2023-06-28T08:02:03Z</time>
      </trkpt>
      <trkpt lat="49.95998" lon="2.12865">
        <ele>12.1</ele>
        <time>2023-06-28T08:02:04Z</time>
      </trkpt>
      <trkpt lat="49.96" lon="2.12862">
        <ele>11.9</ele>
        <time>2023-06-28T08:02:05Z</time>
      </trkpt>
      <trkpt lat="49.96" lon="2.12861">
        <ele>12.2</ele>
        <time>2023-06-28T08:02:06Z</time>
      </trkpt>
      <trkpt lat="49.96001" lon="2.1286">
        <ele>12.2</ele>
        <time>2023-06-28T08:02:07Z</time>
      </trkpt>
      <trkpt lat="49.96002" lon="2.12859">
        <ele>12.1</ele>
        <time>2023-06-28T08:02:08Z</time>
      </trkpt>
      <trkpt lat="49.96004" lon="2.12858">
        <ele>12.4</ele>
        <time>2023-06-28T08:02:09Z</time>
      </trkpt>
      <trkpt lat="49.96005" lon="2.12857">
        <ele>12.4</ele>
        <time>2023-06-28T08:02:10Z</time>
      </trkpt>
      <trkpt lat="49.96006" lon="2.12856">
        <ele>12.6</ele>
        <time>2023-06-28T08:02:11Z</time>
      </trkpt>
      <trkpt lat="49.96006" lon="2.12855">
        <ele>12.5</ele>
        <time>2023-06-28T08:02:12Z</time>
      </trkpt>
      <trkpt lat="49.96007" lon="2.12855">
        <ele>12.5</ele>
        <time>2023-06-28T08:02:13Z</time>
      </trkpt>
      <trkpt lat="49.96006" lon="2.12854">
        <ele>12.5</ele>
        <time>2023-06-28T08:02:14Z</time>
      </trkpt>
      <trkpt lat="49.96006" lon="2.12853">
        <ele>12.5</ele>
        <time>2023-06-28T08:02:15Z</time>
      </trkpt>
      <trkpt lat="49.96006" lon="2.12852">
        <ele>12.5</ele>
        <time>2023-06-28T08:02:16Z</time>
      </trkpt>
      <trkpt lat="49.96007" lon="2.1285">
        <ele>12.4</ele>
        <time>2023-06-28T08:02:17Z</time>
      </trkpt>
      <trkpt lat="49.96008" lon="2.12849">
        <ele>12.4</ele>
        <time>2023-06-28T08:02:18Z</time>
      </trkpt>
      <trkpt lat="49.96008" lon="2.12847">
        <ele>12.4</ele>
        <time>2023-06-28T08:02:19Z</time>
      </trkpt>
      <trkpt lat="49.96009" lon="2.12845">
        <ele>12.5</ele>
        <time>2023-06-28T08:02:20Z</time>
      </trkpt>
      <trkpt lat="49.9601" lon="2.12843">
        <ele>12.5</ele>
        <time>2023-06-28T08:02:21Z</time>
      </trkpt>
      <trkpt lat="49.96011" lon="2.12841">
        <ele>12.6</ele>
        <time>2023-06-28T08:02:22Z</time>
      </trkpt>
      <trkpt lat="49.96013" lon="2.12838">
        <ele>12.6</ele>
        <time>2023-06-28T08:02:23Z</time>
      </trkpt>
      <trkpt lat="49.96014" lon="2.12837">
        <ele>12.7</ele>
        <time>2023-06-28T08:02:24Z</time>
      </trkpt>
      <trkpt lat="49.96015" lon="2.12836">
        <ele>12.7</ele>
        <time>2023-06-28T08:02:25Z</time>
      </trkpt>
      <trkpt lat="49.96016" lon="2.12835">
        <ele>12.7</ele>
        <time>2023-06-28T08:02:26Z</time>
      </trkpt>
      <trkpt lat="49.96016" lon="2.12834">
        <ele>12.6</ele>
        <time>2023-06-28T08:02:27Z</time>
      </trkpt>
      <trkpt lat="49.96017" lon="2.12833">
        <ele>12.7</ele>
        <time>2023-06-28T08:02:28Z</time>
      </trkpt>
      <trkpt lat="49.96017" lon="2.12833">
        <ele>12.7</ele>
        <time>2023-06-28T08:02:29Z</time>
      </trkpt>
      <trkpt lat="49.96017" lon="2.12832">
        <ele>12.7</ele>
        <time>2023-06-28T08:02:30Z</time>
      </trkpt>
      <trkpt lat="49.96017" lon="2.12832">
        <ele>12.7</ele>
        <time>2023-06-28T08:02:31Z</time>
      </trkpt>
      <trkpt lat="49.96017" lon="2.12832">
        <ele>12.7</ele>
        <time>2023-06-28T08:02:32Z</time>
      </trkpt>
      <trkpt lat="49.96018" lon="2.12832">
        <ele>12.7</ele>
        <time>2023-06-28T08:02:33Z</time>
      </trkpt>
      <trkpt lat="49.96018" lon="2.12832">
        <ele>12.7</ele>
        <time>2023-06-28T08:02:34Z</time>
      </trkpt>
      <trkpt lat="49.96018" lon="2.12831">
        <ele>12.7</ele>
        <time>2023-06-28T08:02:35Z</time>
      </trkpt>
      <trkpt lat="49.96018" lon="2.12831">
        <ele>12.7</ele>
        <time>2023-06-28T08:02:36Z</time>
      </trkpt>
      <trkpt lat="49.96018" lon="2.12831">
        <ele>12.7</ele>
        <time>2023-06-28T08:02:37Z</time>
      </trkpt>
      <trkpt lat="49.96018" lon="2.12831">
        <ele>12.7</ele>
        <time>2023-06-28T08:02:38Z</time>
      </trkpt>
      <trkpt lat="49.96018" lon="2.12831">
        <ele>12.7</ele>
        <time>2023-06-28T08:02:39Z</time>
      </trkpt>
      <trkpt lat="49.96018" lon="2.1283">
        <ele>12.7</ele>
        <time>2023-06-28T08:02:40Z</time>
      </trkpt>
      <trkpt lat="49.96018" lon="2.1283">
        <ele>12.7</ele>
        <time>2023-06-28T08:02:41Z</time>
      </trkpt>
      <trkpt lat="49.96019" lon="2.1283">
        <ele>12.6</ele>
        <time>2023-06-28T08:02:42Z</time>
      </trkpt>
      <trkpt lat="49.96019" lon="2.1283">
        <ele>12.6</ele>
        <time>2023-06-28T08:02:43Z</time>
      </trkpt>
      <trkpt lat="49.96019" lon="2.1283">
        <ele>12.6</ele>
        <time>2023-06-28T08:02:44Z</time>
      </trkpt>
      <trkpt lat="49.96019" lon="2.12829">
        <ele>12.6</ele>
        <time>2023-06-28T08:02:45Z</time>
      </trkpt>
      <trkpt lat="49.96019" lon="2.12829">
        <ele>12.6</ele>
        <time>2023-06-28T08:02:46Z</time>
      </trkpt>
      <trkpt lat="49.96019" lon="2.12829">
        <ele>12.6</ele>
        <time>2023-06-28T08:02:47Z</time>
      </trkpt>
      <trkpt lat="49.96019" lon="2.12829">
        <ele>12.6</ele>
        <time>2023-06-28T08:02:48Z</time>
      </trkpt>
      <trkpt lat="49.96019" lon="2.12829">
        <ele>12.6</ele>
        <time>2023-06-28T08:02:49Z</time>
      </trkpt>
      <trkpt lat="49.96019" lon="2.12829">
        <ele>12.7</ele>
        <time>2023-06-28T08:02:50Z</time>
      </trkpt>
      <trkpt lat="49.9602" lon="2.12828">
        <ele>12.7</ele>
        <time>2023-06-28T08:02:51Z</time>
      </trkpt>
      <trkpt lat="49.9602" lon="2.12828">
        <ele>12.7</ele>
        <time>2023-06-28T08:02:52Z</time>
      </trkpt>
      <trkpt lat="49.9602" lon="2.12827">
        <ele>12.7</ele>
        <time>2023-06-28T08:02:53Z</time>
      </trkpt>
      <trkpt lat="49.9602" lon="2.12827">
        <ele>12.7</ele>
        <time>2023-06-28T08:02:54Z</time>
      </trkpt>
      <trkpt lat="49.9602" lon="2.12827">
        <ele>12.7</ele>
        <time>2023-06-28T08:02:55Z</time>
      </trkpt>
      <trkpt lat="49.9602" lon="2.12828">
        <ele>12.7</ele>
        <time>2023-06-28T08:02:56Z</time>
      </trkpt>
      <trkpt lat="49.9602" lon="2.12827">
        <ele>12.7</ele>
        <time>2023-06-28T08:02:57Z</time>
      </trkpt>
      <trkpt lat="49.9602" lon="2.12827">
        <ele>12.7</ele>
        <time>2023-06-28T08:02:58Z</time>
      </trkpt>
      <trkpt lat="49.9602" lon="2.12827">
        <ele>12.7</ele>
        <time>2023-06-28T08:02:59Z</time>
      </trkpt>
      <trkpt lat="49.9602" lon="2.12827">
        <ele>12.7</ele>
        <time>2023-06-28T08:03:00Z</time>
      </trkpt>
      <trkpt lat="49.96021" lon="2.12826">
        <ele>12.7</ele>
        <time>2023-06-28T08:03:01Z</time>
      </trkpt>
      <trkpt lat="49.96021" lon="2.12826">
        <ele>12.7</ele>
        <time>2023-06-28T08:03:02Z</time>
      </trkpt>
      <trkpt lat="49.96022" lon="2.12825">
        <ele>12.6</ele>
        <time>2023-06-28T08:03:03Z</time>
      </trkpt>
      <trkpt lat="49.96022" lon="2.12825">
        <ele>12.6</ele>
        <time>2023-06-28T08:03:04Z</time>
      </trkpt>
      <trkpt lat="49.96023" lon="2.12824">
        <ele>12.6</ele>
        <time>2023-06-28T08:03:05Z</time>
      </trkpt>
      <trkpt lat="49.96024" lon="2.12823">
        <ele>12.6</ele>
        <time>2023-06-28T08:03:06Z</time>
      </trkpt>
      <trkpt lat="49.96025" lon="2.12822">
        <ele>12.6</ele>
        <time>2023-06-28T08:03:07Z</time>
      </trkpt>
      <trkpt lat="49.96026" lon="2.12822">
        <ele>12.6</ele>
        <time>2023-06-28T08:03:08Z</time>
      </trkpt>
      <trkpt lat="49.96026" lon="2.12821">
        <ele>12.6</ele>
        <time>2023-06-28T08:03:09Z</time>
      </trkpt>
      <trkpt lat="49.96027" lon="2.12821">
        <ele>12.6</ele>
        <time>2023-06-28T08:03:10Z</time>
      </trkpt>
      <trkpt lat="49.96027" lon="2.1282">
        <ele>12.6</ele>
        <time>2023-06-28T08:03:11Z</time>
      </trkpt>
      <trkpt lat="49.96027" lon="2.1282">
        <ele>12.6</ele>
        <time>2023-06-28T08:03:12Z</time>
      </trkpt>
      <trkpt lat="49.96027" lon="2.12819">
        <ele>12.6</ele>
        <time>2023-06-28T08:03:13Z</time>
      </trkpt>
      <trkpt lat="49.96027" lon="2.12819">
        <ele>12.6</ele>
        <time>2023-06-28T08:03:14Z</time>
      </trkpt>
      <trkpt lat="49.96028" lon="2.12818">
        <ele>12.5</ele>
        <time>2023-06-28T08:03:15Z</time>
      </trkpt>
      <trkpt lat="49.96029" lon="2.12818">
        <ele>12.5</ele>
        <time>2023-06-28T08:03:16Z</time>
      </trkpt>
      <trkpt lat="49.96029" lon="2.12818">
        <ele>12.5</ele>
        <time>2023-06-28T08:03:17Z</time>
      </trkpt>
      <trkpt lat="49.96029" lon="2.12819">
        <ele>12.5</ele>
        <time>2023-06-28T08:03:18Z</time>
      </trkpt>
      <trkpt lat="49.9603" lon="2.12819">
        <ele>12.5</ele>
        <time>2023-06-28T08:03:19Z</time>
      </trkpt>
      <trkpt lat="49.96031" lon="2.1282">
        <ele>12.5</ele>
        <time>2023-06-28T08:03:20Z</time>
      </trkpt>
      <trkpt lat="49.96033" lon="2.12822">
        <ele>12.6</ele>
        <time>2023-06-28T08:03:21Z</time>
      </trkpt>
      <trkpt lat="49.96034" lon="2.12823">
        <ele>12.5</ele>
        <time>2023-06-28T08:03:22Z</time>
      </trkpt>
      <trkpt lat="49.96035" lon="2.12824">
        <ele>12.5</ele>
        <time>2023-06-28T08:03:23Z</time>
      </trkpt>
      <trkpt lat="49.96036" lon="2.12825">
        <ele>12.5</ele>
        <time>2023-06-28T08:03:24Z</time>
      </trkpt>
      <trkpt lat="49.96038" lon="2.12828">
        <ele>12.6</ele>
        <time>2023-06-28T08:03:25Z</time>
      </trkpt>
      <trkpt lat="49.96038" lon="2.12828">
        <ele>12.6</ele>
        <time>2023-06-28T08:03:26Z</time>
      </trkpt>
      <trkpt lat="49.96039" lon="2.12829">
        <ele>12.5</ele>
        <time>2023-06-28T08:03:27Z</time>
      </trkpt>
      <trkpt lat="49.9604" lon="2.12831">
        <ele>12.6</ele>
        <time>2023-06-28T08:03:28Z</time>
      </trkpt>
      <trkpt lat="49.96041" lon="2.12832">
        <ele>12.6</ele>
        <time>2023-06-28T08:03:29Z</time>
      </trkpt>
      <trkpt lat="49.96042" lon="2.12833">
        <ele>12.5</ele>
        <time>2023-06-28T08:03:30Z</time>
      </trkpt>
      <trkpt lat="49.96042" lon="2.12834">
        <ele>12.5</ele>
        <time>2023-06-28T08:03:31Z</time>
      </trkpt>
      <trkpt lat="49.96043" lon="2.12836">
        <ele>12.6</ele>
        <time>2023-06-28T08:03:32Z</time>
      </trkpt>
      <trkpt lat="49.96044" lon="2.12837">
        <ele>12.6</ele>
        <time>2023-06-28T08:03:33Z</time>
      </trkpt>
      <trkpt lat="49.96044" lon="2.12838">
        <ele>12.6</ele>
        <time>2023-06-28T08:03:34Z</time>
      </trkpt>
      <trkpt lat="49.96044" lon="2.12839">
        <ele>12.7</ele>
        <time>2023-06-28T08:03:35Z</time>
      </trkpt>
      <trkpt lat="49.96044" lon="2.12841">
        <ele>12.7</ele>
        <time>2023-06-28T08:03:36Z</time>
      </trkpt>
      <trkpt lat="49.96045" lon="2.12842">
        <ele>12.7</ele>
        <time>2023-06-28T08:03:37Z</time>
      </trkpt>
      <trkpt lat="49.96046" lon="2.12844">
        <ele>12.8</ele>
        <time>2023-06-28T08:03:38Z</time>
      </trkpt>
      <trkpt lat="49.96047" lon="2.12846">
        <ele>12.8</ele>
        <time>2023-06-28T08:03:39Z</time>
      </trkpt>
      <trkpt lat="49.96047" lon="2.12847">
        <ele>12.7</ele>
        <time>2023-06-28T08:03:40Z</time>
      </trkpt>
      <trkpt lat="49.96048" lon="2.12848">
        <ele>12.9</ele>
        <time>2023-06-28T08:03:41Z</time>
      </trkpt>
      <trkpt lat="49.96049" lon="2.1285">
        <ele>12.9</ele>
        <time>2023-06-28T08:03:42Z</time>
      </trkpt>
      <trkpt lat="49.9605" lon="2.12851">
        <ele>12.8</ele>
        <time>2023-06-28T08:03:43Z</time>
      </trkpt>
      <trkpt lat="49.96051" lon="2.12853">
        <ele>13</ele>
        <time>2023-06-28T08:03:44Z</time>
      </trkpt>
      <trkpt lat="49.96051" lon="2.12855">
        <ele>13</ele>
        <time>2023-06-28T08:03:45Z</time>
      </trkpt>
      <trkpt lat="49.96051" lon="2.12856">
        <ele>13</ele>
        <time>2023-06-28T08:03:46Z</time>
      </trkpt>
      <trkpt lat="49.96052" lon="2.12857">
        <ele>13.1</ele>
        <time>2023-06-28T08:03:47Z</time>
      </trkpt>
      <trkpt lat="49.96053" lon="2.12858">
        <ele>13.1</ele>
        <time>2023-06-28T08:03:48Z</time>
      </trkpt>
      <trkpt lat="49.96053" lon="2.1286">
        <ele>13.1</ele>
        <time>2023-06-28T08:03:49Z</time>
      </trkpt>
      <trkpt lat="49.96054" lon="2.12861">
        <ele>13.2</ele>
        <time>2023-06-28T08:03:50Z</time>
      </trkpt>
      <trkpt lat="49.96055" lon="2.12862">
        <ele>13.2</ele>
        <time>2023-06-28T08:03:51Z</time>
      </trkpt>
      <trkpt lat="49.96056" lon="2.12864">
        <ele>13.2</ele>
        <time>2023-06-28T08:03:52Z</time>
      </trkpt>
      <trkpt lat="49.96057" lon="2.12864">
        <ele>13.4</ele>
        <time>2023-06-28T08:03:53Z</time>
      </trkpt>
      <trkpt lat="49.96058" lon="2.12865">
        <ele>13.4</ele>
        <time>2023-06-28T08:03:54Z</time>
      </trkpt>
      <trkpt lat="49.96059" lon="2.12867">
        <ele>13.3</ele>
        <time>2023-06-28T08:03:55Z</time>
      </trkpt>
      <trkpt lat="49.96061" lon="2.12868">
        <ele>13.3</ele>
        <time>2023-06-28T08:03:56Z</time>
      </trkpt>
      <trkpt lat="49.96062" lon="2.12869">
        <ele>13.3</ele>
        <time>2023-06-28T08:03:57Z</time>
      </trkpt>
      <trkpt lat="49.96062" lon="2.12869">
        <ele>13.5</ele>
        <time>2023-06-28T08:03:58Z</time>
      </trkpt>
      <trkpt lat="49.96063" lon="2.1287">
        <ele>13.5</ele>
        <time>2023-06-28T08:03:59Z</time>
      </trkpt>
      <trkpt lat="49.96065" lon="2.12872">
        <ele>13.4</ele>
        <time>2023-06-28T08:04:00Z</time>
      </trkpt>
      <trkpt lat="49.96066" lon="2.12873">
        <ele>13.4</ele>
        <time>2023-06-28T08:04:01Z</time>
      </trkpt>
      <trkpt lat="49.96067" lon="2.12874">
        <ele>13.6</ele>
        <time>2023-06-28T08:04:02Z</time>
      </trkpt>
      <trkpt lat="49.96068" lon="2.12875">
        <ele>13.6</ele>
        <time>2023-06-28T08:04:03Z</time>
      </trkpt>
      <trkpt lat="49.96069" lon="2.12877">
        <ele>13.6</ele>
        <time>2023-06-28T08:04:04Z</time>
      </trkpt>
      <trkpt lat="49.96071" lon="2.12878">
        <ele>13.8</ele>
        <time>2023-06-28T08:04:05Z</time>
      </trkpt>
      <trkpt lat="49.96072" lon="2.12879">
        <ele>13.8</ele>
        <time>2023-06-28T08:04:06Z</time>
      </trkpt>
      <trkpt lat="49.96074" lon="2.12881">
        <ele>13.7</ele>
        <time>2023-06-28T08:04:07Z</time>
      </trkpt>
      <trkpt lat="49.96074" lon="2.12881">
        <ele>13.7</ele>
        <time>2023-06-28T08:04:08Z</time>
      </trkpt>
      <trkpt lat="49.96075" lon="2.12882">
        <ele>13.9</ele>
        <time>2023-06-28T08:04:09Z</time>
      </trkpt>
      <trkpt lat="49.96076" lon="2.12883">
        <ele>13.9</ele>
        <time>2023-06-28T08:04:10Z</time>
      </trkpt>
      <trkpt lat="49.96076" lon="2.12884">
        <ele>13.9</ele>
        <time>2023-06-28T08:04:11Z</time>
      </trkpt>
      <trkpt lat="49.96077" lon="2.12885">
        <ele>13.9</ele>
        <time>2023-06-28T08:04:12Z</time>
      </trkpt>
      <trkpt lat="49.96078" lon="2.12887">
        <ele>14</ele>
        <time>2023-06-28T08:04:13Z</time>
      </trkpt>
      <trkpt lat="49.96079" lon="2.12888">
        <ele>14</ele>
        <time>2023-06-28T08:04:14Z</time>
      </trkpt>
      <trkpt lat="49.96079" lon="2.12889">
        <ele>14</ele>
        <time>2023-06-28T08:04:15Z</time>
      </trkpt>
      <trkpt lat="49.9608" lon="2.12891">
        <ele>14.2</ele>
        <time>2023-06-28T08:04:16Z</time>
      </trkpt>
      <trkpt lat="49.96082" lon="2.12892">
        <ele>14.2</ele>
        <time>2023-06-28T08:04:17Z</time>
      </trkpt>
      <trkpt lat="49.96084" lon="2.12895">
        <ele>14.3</ele>
        <time>2023-06-28T08:04:18Z</time>
      </trkpt>
      <trkpt lat="49.96084" lon="2.12896">
        <ele>14.3</ele>
        <time>2023-06-28T08:04:19Z</time>
      </trkpt>
      <trkpt lat="49.96086" lon="2.12898">
        <ele>14.3</ele>
        <time>2023-06-28T08:04:20Z</time>
      </trkpt>
      <trkpt lat="49.96087" lon="2.12899">
        <ele>14.4</ele>
        <time>2023-06-28T08:04:21Z</time>
      </trkpt>
      <trkpt lat="49.96088" lon="2.12901">
        <ele>14.4</ele>
        <time>2023-06-28T08:04:22Z</time>
      </trkpt>
      <trkpt lat="49.96089" lon="2.12902">
        <ele>14.4</ele>
        <time>2023-06-28T08:04:23Z</time>
      </trkpt>
      <trkpt lat="49.9609" lon="2.12904">
        <ele>14.6</ele>
        <time>2023-06-28T08:04:24Z</time>
      </trkpt>
      <trkpt lat="49.96091" lon="2.12905">
        <ele>14.6</ele>
        <time>2023-06-28T08:04:25Z</time>
      </trkpt>
      <trkpt lat="49.96093" lon="2.12908">
        <ele>14.6</ele>
        <time>2023-06-28T08:04:26Z</time>
      </trkpt>
      <trkpt lat="49.96093" lon="2.12908">
        <ele>14.6</ele>
        <time>2023-06-28T08:04:27Z</time>
      </trkpt>
      <trkpt lat="49.96094" lon="2.12909">
        <ele>14.6</ele>
        <time>2023-06-28T08:04:28Z</time>
      </trkpt>
      <trkpt lat="49.96095" lon="2.12911">
        <ele>14.6</ele>
        <time>2023-06-28T08:04:29Z</time>
      </trkpt>
      <trkpt lat="49.96096" lon="2.12912">
        <ele>14.7</ele>
        <time>2023-06-28T08:04:30Z</time>
      </trkpt>
      <trkpt lat="49.96096" lon="2.12913">
        <ele>14.7</ele>
        <time>2023-06-28T08:04:31Z</time>
      </trkpt>
      <trkpt lat="49.96098" lon="2.12916">
        <ele>14.6</ele>
        <time>2023-06-28T08:04:32Z</time>
      </trkpt>
      <trkpt lat="49.96098" lon="2.12917">
        <ele>14.8</ele>
        <time>2023-06-28T08:04:33Z</time>
      </trkpt>
      <trkpt lat="49.96099" lon="2.12918">
        <ele>14.8</ele>
        <time>2023-06-28T08:04:34Z</time>
      </trkpt>
      <trkpt lat="49.961" lon="2.12919">
        <ele>14.7</ele>
        <time>2023-06-28T08:04:35Z</time>
      </trkpt>
      <trkpt lat="49.96101" lon="2.12921">
        <ele>14.8</ele>
        <time>2023-06-28T08:04:36Z</time>
      </trkpt>
      <trkpt lat="49.96102" lon="2.12922">
        <ele>14.8</ele>
        <time>2023-06-28T08:04:37Z</time>
      </trkpt>
      <trkpt lat="49.96103" lon="2.12923">
        <ele>14.8</ele>
        <time>2023-06-28T08:04:38Z</time>
      </trkpt>
      <trkpt lat="49.96104" lon="2.12925">
        <ele>14.9</ele>
        <time>2023-06-28T08:04:39Z</time>
      </trkpt>
      <trkpt lat="49.96105" lon="2.12926">
        <ele>14.8</ele>
        <time>2023-06-28T08:04:40Z</time>
      </trkpt>
      <trkpt lat="49.96107" lon="2.12928">
        <ele>14.8</ele>
        <time>2023-06-28T08:04:41Z</time>
      </trkpt>
      <trkpt lat="49.96107" lon="2.12929">
        <ele>14.9</ele>
        <time>2023-06-28T08:04:42Z</time>
      </trkpt>
      <trkpt lat="49.96108" lon="2.1293">
        <ele>14.8</ele>
        <time>2023-06-28T08:04:43Z</time>
      </trkpt>
      <trkpt lat="49.9611" lon="2.12932">
        <ele>14.8</ele>
        <time>2023-06-28T08:04:44Z</time>
      </trkpt>
      <trkpt lat="49.9611" lon="2.12932">
        <ele>14.8</ele>
        <time>2023-06-28T08:04:45Z</time>
      </trkpt>
      <trkpt lat="49.96111" lon="2.12933">
        <ele>14.7</ele>
        <time>2023-06-28T08:04:46Z</time>
      </trkpt>
      <trkpt lat="49.96112" lon="2.12934">
        <ele>14.8</ele>
        <time>2023-06-28T08:04:47Z</time>
      </trkpt>
      <trkpt lat="49.96113" lon="2.12935">
        <ele>14.8</ele>
        <time>2023-06-28T08:04:48Z</time>
      </trkpt>
      <trkpt lat="49.96114" lon="2.12936">
        <ele>14.7</ele>
        <time>2023-06-28T08:04:49Z</time>
      </trkpt>
      <trkpt lat="49.96116" lon="2.12938">
        <ele>14.8</ele>
        <time>2023-06-28T08:04:50Z</time>
      </trkpt>
      <trkpt lat="49.96116" lon="2.12939">
        <ele>14.7</ele>
        <time>2023-06-28T08:04:51Z</time>
      </trkpt>
      <trkpt lat="49.96117" lon="2.1294">
        <ele>14.7</ele>
        <time>2023-06-28T08:04:52Z</time>
      </trkpt>
      <trkpt lat="49.96118" lon="2.1294">
        <ele>14.7</ele>
        <time>2023-06-28T08:04:53Z</time>
      </trkpt>
      <trkpt lat="49.96119" lon="2.12941">
        <ele>14.7</ele>
        <time>2023-06-28T08:04:54Z</time>
      </trkpt>
      <trkpt lat="49.96119" lon="2.12942">
        <ele>14.8</ele>
        <time>2023-06-28T08:04:55Z</time>
      </trkpt>
      <trkpt lat="49.9612" lon="2.12943">
        <ele>14.8</ele>
        <time>2023-06-28T08:04:56Z</time>
      </trkpt>
      <trkpt lat="49.96121" lon="2.12944">
        <ele>14.8</ele>
        <time>2023-06-28T08:04:57Z</time>
      </trkpt>
      <trkpt lat="49.96122" lon="2.12945">
        <ele>14.7</ele>
        <time>2023-06-28T08:04:58Z</time>
      </trkpt>
      <trkpt lat="49.96123" lon="2.12946">
        <ele>14.7</ele>
        <time>2023-06-28T08:04:59Z</time>
      </trkpt>
      <trkpt lat="49.96124" lon="2.12947">
        <ele>14.8</ele>
        <time>2023-06-28T08:05:00Z</time>
      </trkpt>
      <trkpt lat="49.96125" lon="2.12948">
        <ele>14.7</ele>
        <time>2023-06-28T08:05:01Z</time>
      </trkpt>
      <trkpt lat="49.96126" lon="2.12948">
        <ele>14.7</ele>
        <time>2023-06-28T08:05:02Z</time>
      </trkpt>
      <trkpt lat="49.96127" lon="2.12949">
        <ele>14.7</ele>
        <time>2023-06-28T08:05:03Z</time>
      </trkpt>
      <trkpt lat="49.96127" lon="2.1295">
        <ele>14.6</ele>
        <time>2023-06-28T08:05:04Z</time>
      </trkpt>
      <trkpt lat="49.96128" lon="2.12951">
        <ele>14.7</ele>
        <time>2023-06-28T08:05:05Z</time>
      </trkpt>
      <trkpt lat="49.96129" lon="2.12952">
        <ele>14.7</ele>
        <time>2023-06-28T08:05:06Z</time>
      </trkpt>
      <trkpt lat="49.9613" lon="2.12953">
        <ele>14.6</ele>
        <time>2023-06-28T08:05:07Z</time>
      </trkpt>
      <trkpt lat="49.96132" lon="2.12954">
        <ele>14.6</ele>
        <time>2023-06-28T08:05:08Z</time>
      </trkpt>
      <trkpt lat="49.96133" lon="2.12955">
        <ele>14.6</ele>
        <time>2023-06-28T08:05:09Z</time>
      </trkpt>
      <trkpt lat="49.96133" lon="2.12955">
        <ele>14.6</ele>
        <time>2023-06-28T08:05:10Z</time>
      </trkpt>
      <trkpt lat="49.96135" lon="2.12956">
        <ele>14.6</ele>
        <time>2023-06-28T08:05:11Z</time>
      </trkpt>
      <trkpt lat="49.96136" lon="2.12957">
        <ele>14.6</ele>
        <time>2023-06-28T08:05:12Z</time>
      </trkpt>
      <trkpt lat="49.96138" lon="2.12959">
        <ele>14.5</ele>
        <time>2023-06-28T08:05:13Z</time>
      </trkpt>
      <trkpt lat="49.96139" lon="2.12959">
        <ele>14.6</ele>
        <time>2023-06-28T08:05:14Z</time>
      </trkpt>
      <trkpt lat="49.9614" lon="2.1296">
        <ele>14.6</ele>
        <time>2023-06-28T08:05:15Z</time>
      </trkpt>
      <trkpt lat="49.96142" lon="2.1296">
        <ele>14.5</ele>
        <time>2023-06-28T08:05:16Z</time>
      </trkpt>
      <trkpt lat="49.96143" lon="2.1296">
        <ele>14.5</ele>
        <time>2023-06-28T08:05:17Z</time>
      </trkpt>
      <trkpt lat="49.96145" lon="2.12961">
        <ele>14.6</ele>
        <time>2023-06-28T08:05:18Z</time>
      </trkpt>
      <trkpt lat="49.96146" lon="2.12961">
        <ele>14.6</ele>
        <time>2023-06-28T08:05:19Z</time>
      </trkpt>
      <trkpt lat="49.96148" lon="2.12961">
        <ele>14.6</ele>
        <time>2023-06-28T08:05:20Z</time>
      </trkpt>
      <trkpt lat="49.96149" lon="2.12961">
        <ele>14.6</ele>
        <time>2023-06-28T08:05:21Z</time>
      </trkpt>
      <trkpt lat="49.9615" lon="2.12961">
        <ele>14.6</ele>
        <time>2023-06-28T08:05:22Z</time>
      </trkpt>
      <trkpt lat="49.96151" lon="2.12961">
        <ele>14.6</ele>
        <time>2023-06-28T08:05:23Z</time>
      </trkpt>
      <trkpt lat="49.96152" lon="2.12961">
        <ele>14.7</ele>
        <time>2023-06-28T08:05:24Z</time>
      </trkpt>
      <trkpt lat="49.96153" lon="2.12962">
        <ele>14.7</ele>
        <time>2023-06-28T08:05:25Z</time>
      </trkpt>
      <trkpt lat="49.96154" lon="2.12962">
        <ele>14.7</ele>
        <time>2023-06-28T08:05:26Z</time>
      </trkpt>
      <trkpt lat="49.96155" lon="2.12963">
        <ele>14.7</ele>
        <time>2023-06-28T08:05:27Z</time>
      </trkpt>
      <trkpt lat="49.96155" lon="2.12964">
        <ele>14.7</ele>
        <time>2023-06-28T08:05:28Z</time>
      </trkpt>
      <trkpt lat="49.96156" lon="2.12965">
        <ele>14.7</ele>
        <time>2023-06-28T08:05:29Z</time>
      </trkpt>
      <trkpt lat="49.96157" lon="2.12966">
        <ele>14.7</ele>
        <time>2023-06-28T08:05:30Z</time>
      </trkpt>
      <trkpt lat="49.96158" lon="2.12966">
        <ele>14.7</ele>
        <time>2023-06-28T08:05:31Z</time>
      </trkpt>
      <trkpt lat="49.96159" lon="2.12967">
        <ele>14.8</ele>
        <time>2023-06-28T08:05:32Z</time>
      </trkpt>
      <trkpt lat="49.9616" lon="2.12968">
        <ele>14.8</ele>
        <time>2023-06-28T08:05:33Z</time>
      </trkpt>
      <trkpt lat="49.96161" lon="2.12969">
        <ele>14.8</ele>
        <time>2023-06-28T08:05:34Z</time>
      </trkpt>
      <trkpt lat="49.96161" lon="2.12969">
        <ele>14.8</ele>
        <time>2023-06-28T08:05:35Z</time>
      </trkpt>
      <trkpt lat="49.96162" lon="2.1297">
        <ele>14.8</ele>
        <time>2023-06-28T08:05:36Z</time>
      </trkpt>
      <trkpt lat="49.96163" lon="2.1297">
        <ele>14.8</ele>
        <time>2023-06-28T08:05:37Z</time>
      </trkpt>
      <trkpt lat="49.96164" lon="2.12971">
        <ele>14.8</ele>
        <time>2023-06-28T08:05:38Z</time>
      </trkpt>
      <trkpt lat="49.96165" lon="2.12971">
        <ele>14.9</ele>
        <time>2023-06-28T08:05:39Z</time>
      </trkpt>
      <trkpt lat="49.96166" lon="2.12972">
        <ele>14.9</ele>
        <time>2023-06-28T08:05:40Z</time>
      </trkpt>
      <trkpt lat="49.96167" lon="2.12973">
        <ele>14.9</ele>
        <time>2023-06-28T08:05:41Z</time>
      </trkpt>
      <trkpt lat="49.96168" lon="2.12973">
        <ele>14.9</ele>
        <time>2023-06-28T08:05:42Z</time>
      </trkpt>
      <trkpt lat="49.96168" lon="2.12974">
        <ele>14.9</ele>
        <time>2023-06-28T08:05:43Z</time>
      </trkpt>
      <trkpt lat="49.96169" lon="2.12974">
        <ele>14.9</ele>
        <time>2023-06-28T08:05:44Z</time>
      </trkpt>
      <trkpt lat="49.9617" lon="2.12974">
        <ele>14.9</ele>
        <time>2023-06-28T08:05:45Z</time>
      </trkpt>
      <trkpt lat="49.96171" lon="2.12974">
        <ele>14.9</ele>
        <time>2023-06-28T08:05:46Z</time>
      </trkpt>
      <trkpt lat="49.96172" lon="2.12974">
        <ele>15</ele>
        <time>2023-06-28T08:05:47Z</time>
      </trkpt>
      <trkpt lat="49.96173" lon="2.12974">
        <ele>15</ele>
        <time>2023-06-28T08:05:48Z</time>
      </trkpt>
      <trkpt lat="49.96173" lon="2.12975">
        <ele>15</ele>
        <time>2023-06-28T08:05:49Z</time>
      </trkpt>
      <trkpt lat="49.96174" lon="2.12975">
        <ele>15</ele>
        <time>2023-06-28T08:05:50Z</time>
      </trkpt>
      <trkpt lat="49.96175" lon="2.12975">
        <ele>15</ele>
        <time>2023-06-28T08:05:51Z</time>
      </trkpt>
      <trkpt lat="49.96176" lon="2.12975">
        <ele>15</ele>
        <time>2023-06-28T08:05:52Z</time>
      </trkpt>
      <trkpt lat="49.96176" lon="2.12975">
        <ele>15</ele>
        <time>2023-06-28T08:05:53Z</time>
      </trkpt>
      <trkpt lat="49.96177" lon="2.12975">
        <ele>15</ele>
        <time>2023-06-28T08:05:54Z</time>
      </trkpt>
      <trkpt lat="49.96178" lon="2.12976">
        <ele>15</ele>
        <time>2023-06-28T08:05:55Z</time>
      </trkpt>
      <trkpt lat="49.96178" lon="2.12976">
        <ele>15</ele>
        <time>2023-06-28T08:05:56Z</time>
      </trkpt>
      <trkpt lat="49.96179" lon="2.12977">
        <ele>15</ele>
        <time>2023-06-28T08:05:57Z</time>
      </trkpt>
      <trkpt lat="49.96179" lon="2.12978">
        <ele>15.1</ele>
        <time>2023-06-28T08:05:58Z</time>
      </trkpt>
      <trkpt lat="49.9618" lon="2.12979">
        <ele>15.1</ele>
        <time>2023-06-28T08:05:59Z</time>
      </trkpt>
      <trkpt lat="49.9618" lon="2.1298">
        <ele>15.1</ele>
        <time>2023-06-28T08:06:00Z</time>
      </trkpt>
      <trkpt lat="49.9618" lon="2.12981">
        <ele>15.1</ele>
        <time>2023-06-28T08:06:01Z</time>
      </trkpt>
      <trkpt lat="49.96181" lon="2.12982">
        <ele>15.1</ele>
        <time>2023-06-28T08:06:02Z</time>
      </trkpt>
      <trkpt lat="49.96181" lon="2.12983">
        <ele>15.1</ele>
        <time>2023-06-28T08:06:03Z</time>
      </trkpt>
      <trkpt lat="49.96181" lon="2.12984">
        <ele>15.1</ele>
        <time>2023-06-28T08:06:04Z</time>
      </trkpt>
      <trkpt lat="49.96182" lon="2.12985">
        <ele>15.1</ele>
        <time>2023-06-28T08:06:05Z</time>
      </trkpt>
      <trkpt lat="49.96182" lon="2.12986">
        <ele>15.1</ele>
        <time>2023-06-28T08:06:06Z</time>
      </trkpt>
      <trkpt lat="49.96183" lon="2.12987">
        <ele>15.2</ele>
        <time>2023-06-28T08:06:07Z</time>
      </trkpt>
      <trkpt lat="49.96184" lon="2.12989">
        <ele>15.2</ele>
        <time>2023-06-28T08:06:08Z</time>
      </trkpt>
      <trkpt lat="49.96184" lon="2.1299">
        <ele>15.2</ele>
        <time>2023-06-28T08:06:09Z</time>
      </trkpt>
      <trkpt lat="49.96185" lon="2.12991">
        <ele>15.2</ele>
        <time>2023-06-28T08:06:10Z</time>
      </trkpt>
      <trkpt lat="49.96186" lon="2.12993">
        <ele>15.2</ele>
        <time>2023-06-28T08:06:11Z</time>
      </trkpt>
      <trkpt lat="49.96186" lon="2.12994">
        <ele>15.2</ele>
        <time>2023-06-28T08:06:12Z</time>
      </trkpt>
      <trkpt lat="49.96187" lon="2.12995">
        <ele>15.2</ele>
        <time>2023-06-28T08:06:13Z</time>
      </trkpt>
      <trkpt lat="49.96188" lon="2.12996">
        <ele>15.3</ele>
        <time>2023-06-28T08:06:14Z</time>
      </trkpt>
      <trkpt lat="49.96188" lon="2.12999">
        <ele>15.3</ele>
        <time>2023-06-28T08:06:15Z</time>
      </trkpt>
      <trkpt lat="49.96189" lon="2.13">
        <ele>15.3</ele>
        <time>2023-06-28T08:06:16Z</time>
      </trkpt>
      <trkpt lat="49.9619" lon="2.13">
        <ele>15.3</ele>
        <time>2023-06-28T08:06:17Z</time>
      </trkpt>
      <trkpt lat="49.96191" lon="2.13001">
        <ele>15.3</ele>
        <time>2023-06-28T08:06:18Z</time>
      </trkpt>
      <trkpt lat="49.96191" lon="2.13002">
        <ele>15.3</ele>
        <time>2023-06-28T08:06:19Z</time>
      </trkpt>
      <trkpt lat="49.96192" lon="2.13003">
        <ele>15.3</ele>
        <time>2023-06-28T08:06:20Z</time>
      </trkpt>
      <trkpt lat="49.96193" lon="2.13004">
        <ele>15.4</ele>
        <time>2023-06-28T08:06:21Z</time>
      </trkpt>
      <trkpt lat="49.96194" lon="2.13004">
        <ele>15.4</ele>
        <time>2023-06-28T08:06:22Z</time>
      </trkpt>
      <trkpt lat="49.96195" lon="2.13004">
        <ele>15.4</ele>
        <time>2023-06-28T08:06:23Z</time>
      </trkpt>
      <trkpt lat="49.96196" lon="2.13005">
        <ele>15.4</ele>
        <time>2023-06-28T08:06:24Z</time>
      </trkpt>
      <trkpt lat="49.96197" lon="2.13005">
        <ele>15.4</ele>
        <time>2023-06-28T08:06:25Z</time>
      </trkpt>
      <trkpt lat="49.96198" lon="2.13006">
        <ele>15.4</ele>
        <time>2023-06-28T08:06:26Z</time>
      </trkpt>
      <trkpt lat="49.96199" lon="2.13007">
        <ele>15.4</ele>
        <time>2023-06-28T08:06:27Z</time>
      </trkpt>
      <trkpt lat="49.962" lon="2.13007">
        <ele>15.4</ele>
        <time>2023-06-28T08:06:28Z</time>
      </trkpt>
      <trkpt lat="49.96201" lon="2.13008">
        <ele>15.5</ele>
        <time>2023-06-28T08:06:29Z</time>
      </trkpt>
      <trkpt lat="49.96202" lon="2.13009">
        <ele>15.5</ele>
        <time>2023-06-28T08:06:30Z</time>
      </trkpt>
      <trkpt lat="49.96203" lon="2.13011">
        <ele>15.5</ele>
        <time>2023-06-28T08:06:31Z</time>
      </trkpt>
      <trkpt lat="49.96204" lon="2.13012">
        <ele>15.5</ele>
        <time>2023-06-28T08:06:32Z</time>
      </trkpt>
      <trkpt lat="49.96204" lon="2.13013">
        <ele>15.5</ele>
        <time>2023-06-28T08:06:33Z</time>
      </trkpt>
      <trkpt lat="49.96205" lon="2.13015">
        <ele>15.5</ele>
        <time>2023-06-28T08:06:34Z</time>
      </trkpt>
      <trkpt lat="49.96206" lon="2.13016">
        <ele>15.6</ele>
        <time>2023-06-28T08:06:35Z</time>
      </trkpt>
      <trkpt lat="49.96207" lon="2.13018">
        <ele>15.6</ele>
        <time>2023-06-28T08:06:36Z</time>
      </trkpt>
      <trkpt lat="49.96208" lon="2.13019">
        <ele>15.6</ele>
        <time>2023-06-28T08:06:37Z</time>
      </trkpt>
      <trkpt lat="49.9621" lon="2.13021">
        <ele>15.6</ele>
        <time>2023-06-28T08:06:38Z</time>
      </trkpt>
      <trkpt lat="49.96211" lon="2.13022">
        <ele>15.6</ele>
        <time>2023-06-28T08:06:39Z</time>
      </trkpt>
      <trkpt lat="49.96211" lon="2.13023">
        <ele>15.6</ele>
        <time>2023-06-28T08:06:40Z</time>
      </trkpt>
      <trkpt lat="49.96213" lon="2.13024">
        <ele>15.7</ele>
        <time>2023-06-28T08:06:41Z</time>
      </trkpt>
      <trkpt lat="49.96214" lon="2.13026">
        <ele>15.7</ele>
        <time>2023-06-28T08:06:42Z</time>
      </trkpt>
      <trkpt lat="49.96215" lon="2.13027">
        <ele>15.7</ele>
        <time>2023-06-28T08:06:43Z</time>
      </trkpt>
      <trkpt lat="49.96216" lon="2.13028">
        <ele>15.7</ele>
        <time>2023-06-28T08:06:44Z</time>
      </trkpt>
      <trkpt lat="49.96217" lon="2.13029">
        <ele>15.7</ele>
        <time>2023-06-28T08:06:45Z</time>
      </trkpt>
      <trkpt lat="49.96219" lon="2.1303">
        <ele>15.8</ele>
        <time>2023-06-28T08:06:46Z</time>
      </trkpt>
      <trkpt lat="49.9622" lon="2.13031">
        <ele>15.8</ele>
        <time>2023-06-28T08:06:47Z</time>
      </trkpt>
      <trkpt lat="49.96222" lon="2.13032">
        <ele>15.8</ele>
        <time>2023-06-28T08:06:48Z</time>
      </trkpt>
      <trkpt lat="49.96223" lon="2.13033">
        <ele>15.8</ele>
        <time>2023-06-28T08:06:49Z</time>
      </trkpt>
      <trkpt lat="49.96225" lon="2.13034">
        <ele>15.9</ele>
        <time>2023-06-28T08:06:50Z</time>
      </trkpt>
      <trkpt lat="49.96226" lon="2.13035">
        <ele>15.9</ele>
        <time>2023-06-28T08:06:51Z</time>
      </trkpt>
      <trkpt lat="49.96227" lon="2.13036">
        <ele>15.9</ele>
        <time>2023-06-28T08:06:52Z</time>
      </trkpt>
      <trkpt lat="49.96228" lon="2.13037">
        <ele>15.9</ele>
        <time>2023-06-28T08:06:53Z</time>
      </trkpt>
      <trkpt lat="49.96229" lon="2.13037">
        <ele>15.9</ele>
        <time>2023-06-28T08:06:54Z</time>
      </trkpt>
      <trkpt lat="49.9623" lon="2.13038">
        <ele>15.9</ele>
        <time>2023-06-28T08:06:55Z</time>
      </trkpt>
      <trkpt lat="49.96231" lon="2.13038">
        <ele>15.9</ele>
        <time>2023-06-28T08:06:56Z</time>
      </trkpt>
      <trkpt lat="49.96232" lon="2.13039">
        <ele>16</ele>
        <time>2023-06-28T08:06:57Z</time>
      </trkpt>
      <trkpt lat="49.96233" lon="2.1304">
        <ele>16</ele>
        <time>2023-06-28T08:06:58Z</time>
      </trkpt>
      <trkpt lat="49.96233" lon="2.13041">
        <ele>16</ele>
        <time>2023-06-28T08:06:59Z</time>
      </trkpt>
      <trkpt lat="49.96234" lon="2.13042">
        <ele>16</ele>
        <time>2023-06-28T08:07:00Z</time>
      </trkpt>
      <trkpt lat="49.96234" lon="2.13044">
        <ele>16</ele>
        <time>2023-06-28T08:07:01Z</time>
      </trkpt>
      <trkpt lat="49.96234" lon="2.13046">
        <ele>16</ele>
        <time>2023-06-28T08:07:02Z</time>
      </trkpt>
      <trkpt lat="49.96234" lon="2.13048">
        <ele>16</ele>
        <time>2023-06-28T08:07:03Z</time>
      </trkpt>
      <trkpt lat="49.96235" lon="2.13051">
        <ele>16.1</ele>
        <time>2023-06-28T08:07:04Z</time>
      </trkpt>
      <trkpt lat="49.96235" lon="2.13052">
        <ele>16.1</ele>
        <time>2023-06-28T08:07:05Z</time>
      </trkpt>
      <trkpt lat="49.96236" lon="2.13054">
        <ele>16.1</ele>
        <time>2023-06-28T08:07:06Z</time>
      </trkpt>
      <trkpt lat="49.96236" lon="2.13055">
        <ele>16.1</ele>
        <time>2023-06-28T08:07:07Z</time>
      </trkpt>
      <trkpt lat="49.96237" lon="2.13057">
        <ele>16.1</ele>
        <time>2023-06-28T08:07:08Z</time>
      </trkpt>
      <trkpt lat="49.96238" lon="2.13058">
        <ele>16.1</ele>
        <time>2023-06-28T08:07:09Z</time>
      </trkpt>
      <trkpt lat="49.96238" lon="2.13059">
        <ele>16.2</ele>
        <time>2023-06-28T08:07:10Z</time>
      </trkpt>
      <trkpt lat="49.96239" lon="2.13061">
        <ele>16.2</ele>
        <time>2023-06-28T08:07:11Z</time>
      </trkpt>
      <trkpt lat="49.96239" lon="2.13062">
        <ele>16.2</ele>
        <time>2023-06-28T08:07:12Z</time>
      </trkpt>
      <trkpt lat="49.9624" lon="2.13064">
        <ele>16.2</ele>
        <time>2023-06-28T08:07:13Z</time>
      </trkpt>
      <trkpt lat="49.96241" lon="2.13065">
        <ele>16.2</ele>
        <time>2023-06-28T08:07:14Z</time>
      </trkpt>
      <trkpt lat="49.96241" lon="2.13067">
        <ele>16.2</ele>
        <time>2023-06-28T08:07:15Z</time>
      </trkpt>
      <trkpt lat="49.96242" lon="2.13069">
        <ele>16.2</ele>
        <time>2023-06-28T08:07:16Z</time>
      </trkpt>
      <trkpt lat="49.96242" lon="2.1307">
        <ele>16.3</ele>
        <time>2023-06-28T08:07:17Z</time>
      </trkpt>
      <trkpt lat="49.96243" lon="2.13072">
        <ele>16.3</ele>
        <time>2023-06-28T08:07:18Z</time>
      </trkpt>
      <trkpt lat="49.96244" lon="2.13075">
        <ele>16.3</ele>
        <time>2023-06-28T08:07:19Z</time>
      </trkpt>
      <trkpt lat="49.96244" lon="2.13076">
        <ele>16.3</ele>
        <time>2023-06-28T08:07:20Z</time>
      </trkpt>
      <trkpt lat="49.96245" lon="2.13077">
        <ele>16.3</ele>
        <time>2023-06-28T08:07:21Z</time>
      </trkpt>
      <trkpt lat="49.96246" lon="2.13079">
        <ele>16.4</ele>
        <time>2023-06-28T08:07:22Z</time>
      </trkpt>
      <trkpt lat="49.96247" lon="2.1308">
        <ele>16.4</ele>
        <time>2023-06-28T08:07:23Z</time>
      </trkpt>
      <trkpt lat="49.96247" lon="2.13081">
        <ele>16.4</ele>
        <time>2023-06-28T08:07:24Z</time>
      </trkpt>
      <trkpt lat="49.96248" lon="2.13082">
        <ele>16.4</ele>
        <time>2023-06-28T08:07:25Z</time>
      </trkpt>
      <trkpt lat="49.96249" lon="2.13084">
        <ele>16.4</ele>
        <time>2023-06-28T08:07:26Z</time>
      </trkpt>
      <trkpt lat="49.9625" lon="2.13085">
        <ele>16.4</ele>
        <time>2023-06-28T08:07:27Z</time>
      </trkpt>
      <trkpt lat="49.96251" lon="2.13086">
        <ele>16.4</ele>
        <time>2023-06-28T08:07:28Z</time>
      </trkpt>
      <trkpt lat="49.96252" lon="2.13087">
        <ele>16.5</ele>
        <time>2023-06-28T08:07:29Z</time>
      </trkpt>
      <trkpt lat="49.96253" lon="2.13088">
        <ele>16.5</ele>
        <time>2023-06-28T08:07:30Z</time>
      </trkpt>
      <trkpt lat="49.96254" lon="2.1309">
        <ele>16.5</ele>
        <time>2023-06-28T08:07:31Z</time>
      </trkpt>
      <trkpt lat="49.96255" lon="2.1309">
        <ele>16.5</ele>
        <time>2023-06-28T08:07:32Z</time>
      </trkpt>
      <trkpt lat="49.96256" lon="2.13091">
        <ele>16.5</ele>
        <time>2023-06-28T08:07:33Z</time>
      </trkpt>
      <trkpt lat="49.96257" lon="2.13092">
        <ele>16.5</ele>
        <time>2023-06-28T08:07:34Z</time>
      </trkpt>
      <trkpt lat="49.96258" lon="2.13093">
        <ele>16.5</ele>
        <time>2023-06-28T08:07:35Z</time>
      </trkpt>
      <trkpt lat="49.96259" lon="2.13093">
        <ele>16.6</ele>
        <time>2023-06-28T08:07:36Z</time>
      </trkpt>
      <trkpt lat="49.96261" lon="2.13094">
        <ele>16.6</ele>
        <time>2023-06-28T08:07:37Z</time>
      </trkpt>
      <trkpt lat="49.96262" lon="2.13095">
        <ele>16.6</ele>
        <time>2023-06-28T08:07:38Z</time>
      </trkpt>
      <trkpt lat="49.96263" lon="2.13095">
        <ele>16.6</ele>
        <time>2023-06-28T08:07:39Z</time>
      </trkpt>
      <trkpt lat="49.96264" lon="2.13096">
        <ele>16.6</ele>
        <time>2023-06-28T08:07:40Z</time>
      </trkpt>
      <trkpt lat="49.96265" lon="2.13097">
        <ele>16.7</ele>
        <time>2023-06-28T08:07:41Z</time>
      </trkpt>
      <trkpt lat="49.96266" lon="2.13098">
        <ele>16.7</ele>
        <time>2023-06-28T08:07:42Z</time>
      </trkpt>
      <trkpt lat="49.96267" lon="2.13098">
        <ele>16.7</ele>
        <time>2023-06-28T08:07:43Z</time>
      </trkpt>
      <trkpt lat="49.96268" lon="2.13099">
        <ele>16.7</ele>
        <time>2023-06-28T08:07:44Z</time>
      </trkpt>
      <trkpt lat="49.96269" lon="2.131">
        <ele>16.7</ele>
        <time>2023-06-28T08:07:45Z</time>
      </trkpt>
      <trkpt lat="49.9627" lon="2.13101">
        <ele>16.7</ele>
        <time>2023-06-28T08:07:46Z</time>
      </trkpt>
      <trkpt lat="49.96271" lon="2.13102">
        <ele>16.7</ele>
        <time>2023-06-28T08:07:47Z</time>
      </trkpt>
      <trkpt lat="49.96272" lon="2.13102">
        <ele>16.8</ele>
        <time>2023-06-28T08:07:48Z</time>
      </trkpt>
      <trkpt lat="49.96273" lon="2.13103">
        <ele>16.8</ele>
        <time>2023-06-28T08:07:49Z</time>
      </trkpt>
      <trkpt lat="49.96274" lon="2.13104">
        <ele>16.8</ele>
        <time>2023-06-28T08:07:50Z</time>
      </trkpt>
      <trkpt lat="49.96275" lon="2.13105">
        <ele>16.8</ele>
        <time>2023-06-28T08:07:51Z</time>
      </trkpt>
      <trkpt lat="49.96276" lon="2.13106">
        <ele>16.8</ele>
        <time>2023-06-28T08:07:52Z</time>
      </trkpt>
      <trkpt lat="49.96277" lon="2.13107">
        <ele>16.8</ele>
        <time>2023-06-28T08:07:53Z</time>
      </trkpt>
      <trkpt lat="49.96277" lon="2.13108">
        <ele>16.8</ele>
        <time>2023-06-28T08:07:54Z</time>
      </trkpt>
      <trkpt lat="49.96278" lon="2.13109">
        <ele>16.9</ele>
        <time>2023-06-28T08:07:55Z</time>
      </trkpt>
      <trkpt lat="49.96279" lon="2.13111">
        <ele>16.9</ele>
        <time>2023-06-28T08:07:56Z</time>
      </trkpt>
      <trkpt lat="49.9628" lon="2.13112">
        <ele>16.9</ele>
        <time>2023-06-28T08:07:57Z</time>
      </trkpt>
      <trkpt lat="49.96281" lon="2.13113">
        <ele>16.9</ele>
        <time>2023-06-28T08:07:58Z</time>
      </trkpt>
      <trkpt lat="49.96282" lon="2.13114">
        <ele>16.9</ele>
        <time>2023-06-28T08:07:59Z</time>
      </trkpt>
      <trkpt lat="49.96283" lon="2.13115">
        <ele>16.9</ele>
        <time>2023-06-28T08:08:00Z</time>
      </trkpt>
      <trkpt lat="49.96283" lon="2.13116">
        <ele>16.9</ele>
        <time>2023-06-28T08:08:01Z</time>
      </trkpt>
      <trkpt lat="49.96284" lon="2.13117">
        <ele>17</ele>
        <time>2023-06-28T08:08:02Z</time>
      </trkpt>
      <trkpt lat="49.96285" lon="2.13118">
        <ele>17</ele>
        <time>2023-06-28T08:08:03Z</time>
      </trkpt>
      <trkpt lat="49.96286" lon="2.13119">
        <ele>17</ele>
        <time>2023-06-28T08:08:04Z</time>
      </trkpt>
      <trkpt lat="49.96287" lon="2.1312">
        <ele>17</ele>
        <time>2023-06-28T08:08:05Z</time>
      </trkpt>
      <trkpt lat="49.96288" lon="2.13121">
        <ele>17</ele>
        <time>2023-06-28T08:08:06Z</time>
      </trkpt>
      <trkpt lat="49.96289" lon="2.13122">
        <ele>17</ele>
        <time>2023-06-28T08:08:07Z</time>
      </trkpt>
      <trkpt lat="49.9629" lon="2.13123">
        <ele>17</ele>
        <time>2023-06-28T08:08:08Z</time>
      </trkpt>
      <trkpt lat="49.9629" lon="2.13124">
        <ele>17.1</ele>
        <time>2023-06-28T08:08:09Z</time>
      </trkpt>
      <trkpt lat="49.96291" lon="2.13126">
        <ele>17.1</ele>
        <time>2023-06-28T08:08:10Z</time>
      </trkpt>
      <trkpt lat="49.96291" lon="2.13127">
        <ele>17.1</ele>
        <time>2023-06-28T08:08:11Z</time>
      </trkpt>
      <trkpt lat="49.96292" lon="2.13128">
        <ele>17.1</ele>
        <time>2023-06-28T08:08:12Z</time>
      </trkpt>
      <trkpt lat="49.96292" lon="2.1313">
        <ele>17.1</ele>
        <time>2023-06-28T08:08:13Z</time>
      </trkpt>
      <trkpt lat="49.96293" lon="2.13131">
        <ele>17.1</ele>
        <time>2023-06-28T08:08:14Z</time>
      </trkpt>
      <trkpt lat="49.96294" lon="2.13133">
        <ele>17.1</ele>
        <time>2023-06-28T08:08:15Z</time>
      </trkpt>
      <trkpt lat="49.96295" lon="2.13134">
        <ele>17.1</ele>
        <time>2023-06-28T08:08:16Z</time>
      </trkpt>
      <trkpt lat="49.96296" lon="2.13134">
        <ele>17.1</ele>
        <time>2023-06-28T08:08:17Z</time>
      </trkpt>
      <trkpt lat="49.96296" lon="2.13135">
        <ele>17.1</ele>
        <time>2023-06-28T08:08:18Z</time>
      </trkpt>
      <trkpt lat="49.96297" lon="2.13135">
        <ele>17</ele>
        <time>2023-06-28T08:08:19Z</time>
      </trkpt>
      <trkpt lat="49.96297" lon="2.13135">
        <ele>17</ele>
        <time>2023-06-28T08:08:20Z</time>
      </trkpt>
      <trkpt lat="49.96297" lon="2.13137">
        <ele>17</ele>
        <time>2023-06-28T08:08:21Z</time>
      </trkpt>
      <trkpt lat="49.96296" lon="2.13138">
        <ele>17</ele>
        <time>2023-06-28T08:08:22Z</time>
      </trkpt>
      <trkpt lat="49.96296" lon="2.13139">
        <ele>17</ele>
        <time>2023-06-28T08:08:23Z</time>
      </trkpt>
      <trkpt lat="49.96296" lon="2.1314">
        <ele>17</ele>
        <time>2023-06-28T08:08:24Z</time>
      </trkpt>
      <trkpt lat="49.96296" lon="2.13141">
        <ele>17</ele>
        <time>2023-06-28T08:08:25Z</time>
      </trkpt>
      <trkpt lat="49.96295" lon="2.13141">
        <ele>17</ele>
        <time>2023-06-28T08:08:26Z</time>
      </trkpt>
      <trkpt lat="49.96295" lon="2.13141">
        <ele>17</ele>
        <time>2023-06-28T08:08:27Z</time>
      </trkpt>
      <trkpt lat="49.96294" lon="2.13141">
        <ele>17</ele>
        <time>2023-06-28T08:08:28Z</time>
      </trkpt>
      <trkpt lat="49.96294" lon="2.1314">
        <ele>17</ele>
        <time>2023-06-28T08:08:29Z</time>
      </trkpt>
      <trkpt lat="49.96293" lon="2.1314">
        <ele>17</ele>
        <time>2023-06-28T08:08:30Z</time>
      </trkpt>
      <trkpt lat="49.96293" lon="2.13139">
        <ele>17</ele>
        <time>2023-06-28T08:08:31Z</time>
      </trkpt>
      <trkpt lat="49.96293" lon="2.13139">
        <ele>17</ele>
        <time>2023-06-28T08:08:32Z</time>
      </trkpt>
      <trkpt lat="49.96293" lon="2.13139">
        <ele>17</ele>
        <time>2023-06-28T08:08:33Z</time>
      </trkpt>
      <trkpt lat="49.96292" lon="2.13138">
        <ele>17</ele>
        <time>2023-06-28T08:08:34Z</time>
      </trkpt>
      <trkpt lat="49.96292" lon="2.13138">
        <ele>17</ele>
        <time>2023-06-28T08:08:35Z</time>
      </trkpt>
      <trkpt lat="49.96292" lon="2.13137">
        <ele>17</ele>
        <time>2023-06-28T08:08:36Z</time>
      </trkpt>
      <trkpt lat="49.96292" lon="2.13137">
        <ele>16.9</ele>
        <time>2023-06-28T08:08:37Z</time>
      </trkpt>
      <trkpt lat="49.96292" lon="2.13137">
        <ele>16.9</ele>
        <time>2023-06-28T08:08:38Z</time>
      </trkpt>
      <trkpt lat="49.96292" lon="2.13137">
        <ele>16.9</ele>
        <time>2023-06-28T08:08:39Z</time>
      </trkpt>
      <trkpt lat="49.96292" lon="2.13137">
        <ele>16.9</ele>
        <time>2023-06-28T08:08:40Z</time>
      </trkpt>
      <trkpt lat="49.96292" lon="2.13137">
        <ele>16.9</ele>
        <time>2023-06-28T08:08:41Z</time>
      </trkpt>
      <trkpt lat="49.96292" lon="2.13137">
        <ele>16.9</ele>
        <time>2023-06-28T08:08:42Z</time>
      </trkpt>
      <trkpt lat="49.96292" lon="2.13137">
        <ele>16.9</ele>
        <time>2023-06-28T08:08:43Z</time>
      </trkpt>
      <trkpt lat="49.96292" lon="2.13137">
        <ele>16.9</ele>
        <time>2023-06-28T08:08:44Z</time>
      </trkpt>
      <trkpt lat="49.96292" lon="2.13137">
        <ele>16.9</ele>
        <time>2023-06-28T08:08:45Z</time>
      </trkpt>
      <trkpt lat="49.96292" lon="2.13137">
        <ele>16.9</ele>
        <time>2023-06-28T08:08:46Z</time>
      </trkpt>
      <trkpt lat="49.96292" lon="2.13137">
        <ele>16.9</ele>
        <time>2023-06-28T08:08:47Z</time>
      </trkpt>
      <trkpt lat="49.96292" lon="2.13137">
        <ele>16.9</ele>
        <time>2023-06-28T08:08:48Z</time>
      </trkpt>
      <trkpt lat="49.96292" lon="2.13136">
        <ele>16.9</ele>
        <time>2023-06-28T08:08:49Z</time>
      </trkpt>
      <trkpt lat="49.96293" lon="2.13136">
        <ele>16.9</ele>
        <time>2023-06-28T08:08:50Z</time>
      </trkpt>
      <trkpt lat="49.96294" lon="2.13135">
        <ele>16.9</ele>
        <time>2023-06-28T08:08:51Z</time>
      </trkpt>
      <trkpt lat="49.96294" lon="2.13134">
        <ele>16.9</ele>
        <time>2023-06-28T08:08:52Z</time>
      </trkpt>
      <trkpt lat="49.96295" lon="2.13133">
        <ele>16.9</ele>
        <time>2023-06-28T08:08:53Z</time>
      </trkpt>
      <trkpt lat="49.96295" lon="2.13133">
        <ele>16.9</ele>
        <time>2023-06-28T08:08:54Z</time>
      </trkpt>
      <trkpt lat="49.96295" lon="2.13133">
        <ele>16.9</ele>
        <time>2023-06-28T08:08:55Z</time>
      </trkpt>
      <trkpt lat="49.96296" lon="2.13133">
        <ele>16.9</ele>
        <time>2023-06-28T08:08:56Z</time>
      </trkpt>
      <trkpt lat="49.96296" lon="2.13134">
        <ele>16.9</ele>
        <time>2023-06-28T08:08:57Z</time>
      </trkpt>
      <trkpt lat="49.96296" lon="2.13134">
        <ele>16.9</ele>
        <time>2023-06-28T08:08:58Z</time>
      </trkpt>
      <trkpt lat="49.96296" lon="2.13135">
        <ele>16.9</ele>
        <time>2023-06-28T08:08:59Z</time>
      </trkpt>
      <trkpt lat="49.96297" lon="2.13136">
        <ele>16.9</ele>
        <time>2023-06-28T08:09:00Z</time>
      </trkpt>
      <trkpt lat="49.96297" lon="2.13136">
        <ele>16.9</ele>
        <time>2023-06-28T08:09:01Z</time>
      </trkpt>
      <trkpt lat="49.96297" lon="2.13137">
        <ele>16.9</ele>
        <time>2023-06-28T08:09:02Z</time>
      </trkpt>
      <trkpt lat="49.96297" lon="2.13137">
        <ele>16.9</ele>
        <time>2023-06-28T08:09:03Z</time>
      </trkpt>
      <trkpt lat="49.96297" lon="2.13137">
        <ele>16.9</ele>
        <time>2023-06-28T08:09:04Z</time>
      </trkpt>
      <trkpt lat="49.96297" lon="2.13137">
        <ele>16.9</ele>
        <time>2023-06-28T08:09:05Z</time>
      </trkpt>
      <trkpt lat="49.96297" lon="2.13137">
        <ele>16.9</ele>
        <time>2023-06-28T08:09:06Z</time>
      </trkpt>
      <trkpt lat="49.96297" lon="2.13137">
        <ele>16.9</ele>
        <time>2023-06-28T08:09:07Z</time>
      </trkpt>
      <trkpt lat="49.96297" lon="2.13137">
        <ele>16.9</ele>
        <time>2023-06-28T08:09:08Z</time>
      </trkpt>
      <trkpt lat="49.96297" lon="2.13137">
        <ele>16.9</ele>
        <time>2023-06-28T08:09:09Z</time>
      </trkpt>
      <trkpt lat="49.96297" lon="2.13137">
        <ele>16.9</ele>
        <time>2023-06-28T08:09:10Z</time>
      </trkpt>
      <trkpt lat="49.96297" lon="2.13137">
        <ele>16.9</ele>
        <time>2023-06-28T08:09:11Z</time>
      </trkpt>
      <trkpt lat="49.96297" lon="2.13137">
        <ele>16.9</ele>
        <time>2023-06-28T08:09:12Z</time>
      </trkpt>
      <trkpt lat="49.96297" lon="2.13137">
        <ele>16.9</ele>
        <time>2023-06-28T08:09:13Z</time>
      </trkpt>
      <trkpt lat="49.96297" lon="2.13137">
        <ele>16.9</ele>
        <time>2023-06-28T08:09:14Z</time>
      </trkpt>
      <trkpt lat="49.96297" lon="2.13137">
        <ele>16.9</ele>
        <time>2023-06-28T08:09:15Z</time>
      </trkpt>
      <trkpt lat="49.96297" lon="2.13137">
        <ele>16.9</ele>
        <time>2023-06-28T08:09:16Z</time>
      </trkpt>
      <trkpt lat="49.96297" lon="2.13137">
        <ele>16.9</ele>
        <time>2023-06-28T08:09:17Z</time>
      </trkpt>
      <trkpt lat="49.96297" lon="2.13137">
        <ele>16.9</ele>
        <time>2023-06-28T08:09:18Z</time>
      </trkpt>
      <trkpt lat="49.96297" lon="2.13137">
        <ele>16.9</ele>
        <time>2023-06-28T08:09:19Z</time>
      </trkpt>
      <trkpt lat="49.96296" lon="2.13137">
        <ele>16.9</ele>
        <time>2023-06-28T08:09:20Z</time>
      </trkpt>
      <trkpt lat="49.96295" lon="2.13137">
        <ele>16.8</ele>
        <time>2023-06-28T08:09:21Z</time>
      </trkpt>
      <trkpt lat="49.96295" lon="2.13138">
        <ele>16.8</ele>
        <time>2023-06-28T08:09:22Z</time>
      </trkpt>
      <trkpt lat="49.96294" lon="2.13138">
        <ele>16.8</ele>
        <time>2023-06-28T08:09:23Z</time>
      </trkpt>
      <trkpt lat="49.96294" lon="2.13138">
        <ele>16.8</ele>
        <time>2023-06-28T08:09:24Z</time>
      </trkpt>
      <trkpt lat="49.96294" lon="2.13138">
        <ele>16.8</ele>
        <time>2023-06-28T08:09:25Z</time>
      </trkpt>
      <trkpt lat="49.96294" lon="2.13138">
        <ele>16.8</ele>
        <time>2023-06-28T08:09:26Z</time>
      </trkpt>
      <trkpt lat="49.96294" lon="2.13138">
        <ele>16.8</ele>
        <time>2023-06-28T08:09:27Z</time>
      </trkpt>
      <trkpt lat="49.96294" lon="2.13138">
        <ele>16.8</ele>
        <time>2023-06-28T08:09:28Z</time>
      </trkpt>
      <trkpt lat="49.96294" lon="2.13138">
        <ele>16.8</ele>
        <time>2023-06-28T08:09:29Z</time>
      </trkpt>
      <trkpt lat="49.96295" lon="2.13138">
        <ele>16.8</ele>
        <time>2023-06-28T08:09:30Z</time>
      </trkpt>
      <trkpt lat="49.96295" lon="2.13138">
        <ele>16.8</ele>
        <time>2023-06-28T08:09:31Z</time>
      </trkpt>
      <trkpt lat="49.96295" lon="2.13138">
        <ele>16.8</ele>
        <time>2023-06-28T08:09:32Z</time>
      </trkpt>
      <trkpt lat="49.96295" lon="2.13138">
        <ele>16.8</ele>
        <time>2023-06-28T08:09:33Z</time>
      </trkpt>
      <trkpt lat="49.96295" lon="2.13138">
        <ele>16.8</ele>
        <time>2023-06-28T08:09:34Z</time>
      </trkpt>
      <trkpt lat="49.96295" lon="2.13137">
        <ele>16.8</ele>
        <time>2023-06-28T08:09:35Z</time>
      </trkpt>
      <trkpt lat="49.96295" lon="2.13137">
        <ele>16.8</ele>
        <time>2023-06-28T08:09:36Z</time>
      </trkpt>
      <trkpt lat="49.96295" lon="2.13137">
        <ele>16.8</ele>
        <time>2023-06-28T08:09:37Z</time>
      </trkpt>
      <trkpt lat="49.96295" lon="2.13137">
        <ele>16.8</ele>
        <time>2023-06-28T08:09:38Z</time>
      </trkpt>
      <trkpt lat="49.96295" lon="2.13137">
        <ele>16.8</ele>
        <time>2023-06-28T08:09:39Z</time>
      </trkpt>
      <trkpt lat="49.96295" lon="2.13137">
        <ele>16.8</ele>
        <time>2023-06-28T08:09:40Z</time>
      </trkpt>
      <trkpt lat="49.96296" lon="2.13137">
        <ele>16.8</ele>
        <time>2023-06-28T08:09:41Z</time>
      </trkpt>
      <trkpt lat="49.96296" lon="2.13137">
        <ele>16.8</ele>
        <time>2023-06-28T08:09:42Z</time>
      </trkpt>
      <trkpt lat="49.96296" lon="2.13137">
        <ele>16.8</ele>
        <time>2023-06-28T08:09:43Z</time>
      </trkpt>
      <trkpt lat="49.96296" lon="2.13137">
        <ele>16.8</ele>
        <time>2023-06-28T08:09:44Z</time>
      </trkpt>
      <trkpt lat="49.96296" lon="2.13136">
        <ele>16.8</ele>
        <time>2023-06-28T08:09:45Z</time>
      </trkpt>
      <trkpt lat="49.96296" lon="2.13136">
        <ele>16.8</ele>
        <time>2023-06-28T08:09:46Z</time>
      </trkpt>
      <trkpt lat="49.96296" lon="2.13136">
        <ele>16.8</ele>
        <time>2023-06-28T08:09:47Z</time>
      </trkpt>
      <trkpt lat="49.96296" lon="2.13136">
        <ele>16.8</ele>
        <time>2023-06-28T08:09:48Z</time>
      </trkpt>
      <trkpt lat="49.96296" lon="2.13136">
        <ele>16.8</ele>
        <time>2023-06-28T08:09:49Z</time>
      </trkpt>
      <trkpt lat="49.96296" lon="2.13136">
        <ele>16.8</ele>
        <time>2023-06-28T08:09:50Z</time>
      </trkpt>
      <trkpt lat="49.96296" lon="2.13136">
        <ele>16.8</ele>
        <time>2023-06-28T08:09:51Z</time>
      </trkpt>
      <trkpt lat="49.96297" lon="2.13136">
        <ele>16.8</ele>
        <time>2023-06-28T08:09:52Z</time>
      </trkpt>
      <trkpt lat="49.96297" lon="2.13136">
        <ele>16.8</ele>
        <time>2023-06-28T08:09:53Z</time>
      </trkpt>
      <trkpt lat="49.96297" lon="2.13135">
        <ele>16.8</ele>
        <time>2023-06-28T08:09:54Z</time>
      </trkpt>
      <trkpt lat="49.96297" lon="2.13135">
        <ele>16.8</ele>
        <time>2023-06-28T08:09:55Z</time>
      </trkpt>
      <trkpt lat="49.96297" lon="2.13135">
        <ele>16.8</ele>
        <time>2023-06-28T08:09:56Z</time>
      </trkpt>
      <trkpt lat="49.96297" lon="2.13135">
        <ele>16.8</ele>
        <time>2023-06-28T08:09:57Z</time>
      </trkpt>
      <trkpt lat="49.96297" lon="2.13135">
        <ele>16.8</ele>
        <time>2023-06-28T08:09:58Z</time>
      </trkpt>
      <trkpt lat="49.96297" lon="2.13135">
        <ele>16.8</ele>
        <time>2023-06-28T08:09:59Z</time>
      </trkpt>
      <trkpt lat="49.96297" lon="2.13135">
        <ele>16.8</ele>
        <time>2023-06-28T08:10:00Z</time>
      </trkpt>
      <trkpt lat="49.96298" lon="2.13133">
        <ele>16.8</ele>
        <time>2023-06-28T08:10:01Z</time>
      </trkpt>
      <trkpt lat="49.96299" lon="2.13132">
        <ele>16.8</ele>
        <time>2023-06-28T08:10:02Z</time>
      </trkpt>
      <trkpt lat="49.96299" lon="2.13131">
        <ele>16.8</ele>
        <time>2023-06-28T08:10:03Z</time>
      </trkpt>
      <trkpt lat="49.96299" lon="2.13129">
        <ele>16.7</ele>
        <time>2023-06-28T08:10:04Z</time>
      </trkpt>
      <trkpt lat="49.96299" lon="2.13128">
        <ele>16.7</ele>
        <time>2023-06-28T08:10:05Z</time>
      </trkpt>
      <trkpt lat="49.963" lon="2.13126">
        <ele>16.7</ele>
        <time>2023-06-28T08:10:06Z</time>
      </trkpt>
      <trkpt lat="49.963" lon="2.13122">
        <ele>16.7</ele>
        <time>2023-06-28T08:10:07Z</time>
      </trkpt>
      <trkpt lat="49.963" lon="2.13121">
        <ele>16.7</ele>
        <time>2023-06-28T08:10:08Z</time>
      </trkpt>
      <trkpt lat="49.963" lon="2.1312">
        <ele>16.7</ele>
        <time>2023-06-28T08:10:09Z</time>
      </trkpt>
      <trkpt lat="49.963" lon="2.13118">
        <ele>16.7</ele>
        <time>2023-06-28T08:10:10Z</time>
      </trkpt>
      <trkpt lat="49.963" lon="2.13116">
        <ele>16.7</ele>
        <time>2023-06-28T08:10:11Z</time>
      </trkpt>
      <trkpt lat="49.963" lon="2.13115">
        <ele>16.7</ele>
        <time>2023-06-28T08:10:12Z</time>
      </trkpt>
      <trkpt lat="49.96301" lon="2.13113">
        <ele>16.7</ele>
        <time>2023-06-28T08:10:13Z</time>
      </trkpt>
      <trkpt lat="49.96301" lon="2.13112">
        <ele>16.7</ele>
        <time>2023-06-28T08:10:14Z</time>
      </trkpt>
      <trkpt lat="49.96301" lon="2.1311">
        <ele>16.7</ele>
        <time>2023-06-28T08:10:15Z</time>
      </trkpt>
      <trkpt lat="49.96301" lon="2.13109">
        <ele>16.7</ele>
        <time>2023-06-28T08:10:16Z</time>
      </trkpt>
      <trkpt lat="49.96302" lon="2.13107">
        <ele>16.7</ele>
        <time>2023-06-28T08:10:17Z</time>
      </trkpt>
      <trkpt lat="49.96302" lon="2.13105">
        <ele>16.7</ele>
        <time>2023-06-28T08:10:18Z</time>
      </trkpt>
      <trkpt lat="49.96302" lon="2.13104">
        <ele>16.6</ele>
        <time>2023-06-28T08:10:19Z</time>
      </trkpt>
      <trkpt lat="49.96303" lon="2.13102">
        <ele>16.6</ele>
        <time>2023-06-28T08:10:20Z</time>
      </trkpt>
      <trkpt lat="49.96303" lon="2.131">
        <ele>16.6</ele>
        <time>2023-06-28T08:10:21Z</time>
      </trkpt>
      <trkpt lat="49.96304" lon="2.13095">
        <ele>16.6</ele>
        <time>2023-06-28T08:10:22Z</time>
      </trkpt>
      <trkpt lat="49.96304" lon="2.13093">
        <ele>16.6</ele>
        <time>2023-06-28T08:10:23Z</time>
      </trkpt>
      <trkpt lat="49.96304" lon="2.1309">
        <ele>16.6</ele>
        <time>2023-06-28T08:10:24Z</time>
      </trkpt>
      <trkpt lat="49.96304" lon="2.13088">
        <ele>16.6</ele>
        <time>2023-06-28T08:10:25Z</time>
      </trkpt>
      <trkpt lat="49.96304" lon="2.13085">
        <ele>16.6</ele>
        <time>2023-06-28T08:10:26Z</time>
      </trkpt>
      <trkpt lat="49.96304" lon="2.13084">
        <ele>16.6</ele>
        <time>2023-06-28T08:10:27Z</time>
      </trkpt>
      <trkpt lat="49.96304" lon="2.13083">
        <ele>16.6</ele>
        <time>2023-06-28T08:10:28Z</time>
      </trkpt>
      <trkpt lat="49.96305" lon="2.13082">
        <ele>16.6</ele>
        <time>2023-06-28T08:10:29Z</time>
      </trkpt>
      <trkpt lat="49.96305" lon="2.13081">
        <ele>16.6</ele>
        <time>2023-06-28T08:10:30Z</time>
      </trkpt>
      <trkpt lat="49.96305" lon="2.13081">
        <ele>16.6</ele>
        <time>2023-06-28T08:10:31Z</time>
      </trkpt>
      <trkpt lat="49.96305" lon="2.13079">
        <ele>16.6</ele>
        <time>2023-06-28T08:10:32Z</time>
      </trkpt>
      <trkpt lat="49.96306" lon="2.13078">
        <ele>16.6</ele>
        <time>2023-06-28T08:10:33Z</time>
      </trkpt>
      <trkpt lat="49.96306" lon="2.13077">
        <ele>16.6</ele>
        <time>2023-06-28T08:10:34Z</time>
      </trkpt>
      <trkpt lat="49.96306" lon="2.13075">
        <ele>16.5</ele>
        <time>2023-06-28T08:10:35Z</time>
      </trkpt>
      <trkpt lat="49.96307" lon="2.13074">
        <ele>16.5</ele>
        <time>2023-06-28T08:10:36Z</time>
      </trkpt>
      <trkpt lat="49.96307" lon="2.13072">
        <ele>16.5</ele>
        <time>2023-06-28T08:10:37Z</time>
      </trkpt>
      <trkpt lat="49.96308" lon="2.13071">
        <ele>16.5</ele>
        <time>2023-06-28T08:10:38Z</time>
      </trkpt>
      <trkpt lat="49.96308" lon="2.1307">
        <ele>16.5</ele>
        <time>2023-06-28T08:10:39Z</time>
      </trkpt>
      <trkpt lat="49.96308" lon="2.13068">
        <ele>16.5</ele>
        <time>2023-06-28T08:10:40Z</time>
      </trkpt>
      <trkpt lat="49.96309" lon="2.13067">
        <ele>16.5</ele>
        <time>2023-06-28T08:10:41Z</time>
      </trkpt>
      <trkpt lat="49.96309" lon="2.13065">
        <ele>16.5</ele>
        <time>2023-06-28T08:10:42Z</time>
      </trkpt>
      <trkpt lat="49.9631" lon="2.13062">
        <ele>16.5</ele>
        <time>2023-06-28T08:10:43Z</time>
      </trkpt>
      <trkpt lat="49.9631" lon="2.13061">
        <ele>16.5</ele>
        <time>2023-06-28T08:10:44Z</time>
      </trkpt>
      <trkpt lat="49.9631" lon="2.13059">
        <ele>16.5</ele>
        <time>2023-06-28T08:10:45Z</time>
      </trkpt>
      <trkpt lat="49.96311" lon="2.13057">
        <ele>16.4</ele>
        <time>2023-06-28T08:10:46Z</time>
      </trkpt>
      <trkpt lat="49.96311" lon="2.13055">
        <ele>16.4</ele>
        <time>2023-06-28T08:10:47Z</time>
      </trkpt>
      <trkpt lat="49.96312" lon="2.13053">
        <ele>16.4</ele>
        <time>2023-06-28T08:10:48Z</time>
      </trkpt>
      <trkpt lat="49.96313" lon="2.13051">
        <ele>16.4</ele>
        <time>2023-06-28T08:10:49Z</time>
      </trkpt>
      <trkpt lat="49.96313" lon="2.13049">
        <ele>16.4</ele>
        <time>2023-06-28T08:10:50Z</time>
      </trkpt>
      <trkpt lat="49.96314" lon="2.13047">
        <ele>16.4</ele>
        <time>2023-06-28T08:10:51Z</time>
      </trkpt>
      <trkpt lat="49.96315" lon="2.13045">
        <ele>16.4</ele>
        <time>2023-06-28T08:10:52Z</time>
      </trkpt>
      <trkpt lat="49.96315" lon="2.13043">
        <ele>16.3</ele>
        <time>2023-06-28T08:10:53Z</time>
      </trkpt>
      <trkpt lat="49.96316" lon="2.13041">
        <ele>16.3</ele>
        <time>2023-06-28T08:10:54Z</time>
      </trkpt>
      <trkpt lat="49.96317" lon="2.13038">
        <ele>16.3</ele>
        <time>2023-06-28T08:10:55Z</time>
      </trkpt>
      <trkpt lat="49.96318" lon="2.13036">
        <ele>16.3</ele>
        <time>2023-06-28T08:10:56Z</time>
      </trkpt>
      <trkpt lat="49.96319" lon="2.13035">
        <ele>16.3</ele>
        <time>2023-06-28T08:10:57Z</time>
      </trkpt>
      <trkpt lat="49.9632" lon="2.13032">
        <ele>16.3</ele>
        <time>2023-06-28T08:10:58Z</time>
      </trkpt>
      <trkpt lat="49.96321" lon="2.13031">
        <ele>16.3</ele>
        <time>2023-06-28T08:10:59Z</time>
      </trkpt>
      <trkpt lat="49.96321" lon="2.13031">
        <ele>16.3</ele>
        <time>2023-06-28T08:11:00Z</time>
      </trkpt>
      <trkpt lat="49.96322" lon="2.13029">
        <ele>16.3</ele>
        <time>2023-06-28T08:11:01Z</time>
      </trkpt>
      <trkpt lat="49.96323" lon="2.13028">
        <ele>16.3</ele>
        <time>2023-06-28T08:11:02Z</time>
      </trkpt>
      <trkpt lat="49.96323" lon="2.13027">
        <ele>16.3</ele>
        <time>2023-06-28T08:11:03Z</time>
      </trkpt>
      <trkpt lat="49.96324" lon="2.13026">
        <ele>16.3</ele>
        <time>2023-06-28T08:11:04Z</time>
      </trkpt>
      <trkpt lat="49.96325" lon="2.13024">
        <ele>16.3</ele>
        <time>2023-06-28T08:11:05Z</time>
      </trkpt>
      <trkpt lat="49.96326" lon="2.13023">
        <ele>16.3</ele>
        <time>2023-06-28T08:11:06Z</time>
      </trkpt>
      <trkpt lat="49.96326" lon="2.13022">
        <ele>16.3</ele>
        <time>2023-06-28T08:11:07Z</time>
      </trkpt>
      <trkpt lat="49.96327" lon="2.13022">
        <ele>16.3</ele>
        <time>2023-06-28T08:11:08Z</time>
      </trkpt>
      <trkpt lat="49.96327" lon="2.13022">
        <ele>16.3</ele>
        <time>2023-06-28T08:11:09Z</time>
      </trkpt>
      <trkpt lat="49.96328" lon="2.13021">
        <ele>16.3</ele>
        <time>2023-06-28T08:11:10Z</time>
      </trkpt>
      <trkpt lat="49.96328" lon="2.1302">
        <ele>16.3</ele>
        <time>2023-06-28T08:11:11Z</time>
      </trkpt>
      <trkpt lat="49.96328" lon="2.1302">
        <ele>16.3</ele>
        <time>2023-06-28T08:11:12Z</time>
      </trkpt>
      <trkpt lat="49.96329" lon="2.13018">
        <ele>16.3</ele>
        <time>2023-06-28T08:11:13Z</time>
      </trkpt>
      <trkpt lat="49.96329" lon="2.13017">
        <ele>16.3</ele>
        <time>2023-06-28T08:11:14Z</time>
      </trkpt>
      <trkpt lat="49.96329" lon="2.13016">
        <ele>16.3</ele>
        <time>2023-06-28T08:11:15Z</time>
      </trkpt>
      <trkpt lat="49.9633" lon="2.13015">
        <ele>16.3</ele>
        <time>2023-06-28T08:11:16Z</time>
      </trkpt>
      <trkpt lat="49.9633" lon="2.13014">
        <ele>16.3</ele>
        <time>2023-06-28T08:11:17Z</time>
      </trkpt>
      <trkpt lat="49.96331" lon="2.13013">
        <ele>16.3</ele>
        <time>2023-06-28T08:11:18Z</time>
      </trkpt>
      <trkpt lat="49.96331" lon="2.13011">
        <ele>16.3</ele>
        <time>2023-06-28T08:11:19Z</time>
      </trkpt>
      <trkpt lat="49.96332" lon="2.1301">
        <ele>16.3</ele>
        <time>2023-06-28T08:11:20Z</time>
      </trkpt>
      <trkpt lat="49.96333" lon="2.13008">
        <ele>16.3</ele>
        <time>2023-06-28T08:11:21Z</time>
      </trkpt>
      <trkpt lat="49.96333" lon="2.13007">
        <ele>16.3</ele>
        <time>2023-06-28T08:11:22Z</time>
      </trkpt>
      <trkpt lat="49.96334" lon="2.13005">
        <ele>16.3</ele>
        <time>2023-06-28T08:11:23Z</time>
      </trkpt>
      <trkpt lat="49.96335" lon="2.13003">
        <ele>16.3</ele>
        <time>2023-06-28T08:11:24Z</time>
      </trkpt>
      <trkpt lat="49.96336" lon="2.13001">
        <ele>16.3</ele>
        <time>2023-06-28T08:11:25Z</time>
      </trkpt>
      <trkpt lat="49.96336" lon="2.12999">
        <ele>16.3</ele>
        <time>2023-06-28T08:11:26Z</time>
      </trkpt>
      <trkpt lat="49.96337" lon="2.12998">
        <ele>16.3</ele>
        <time>2023-06-28T08:11:27Z</time>
      </trkpt>
      <trkpt lat="49.96337" lon="2.12997">
        <ele>16.3</ele>
        <time>2023-06-28T08:11:28Z</time>
      </trkpt>
      <trkpt lat="49.96338" lon="2.12995">
        <ele>16.3</ele>
        <time>2023-06-28T08:11:29Z</time>
      </trkpt>
      <trkpt lat="49.96338" lon="2.12994">
        <ele>16.3</ele>
        <time>2023-06-28T08:11:30Z</time>
      </trkpt>
      <trkpt lat="49.9634" lon="2.12991">
        <ele>16.3</ele>
        <time>2023-06-28T08:11:31Z</time>
      </trkpt>
      <trkpt lat="49.9634" lon="2.1299">
        <ele>16.3</ele>
        <time>2023-06-28T08:11:32Z</time>
      </trkpt>
      <trkpt lat="49.96341" lon="2.12989">
        <ele>16.3</ele>
        <time>2023-06-28T08:11:33Z</time>
      </trkpt>
      <trkpt lat="49.96342" lon="2.12988">
        <ele>16.3</ele>
        <time>2023-06-28T08:11:34Z</time>
      </trkpt>
      <trkpt lat="49.96343" lon="2.12986">
        <ele>16.3</ele>
        <time>2023-06-28T08:11:35Z</time>
      </trkpt>
      <trkpt lat="49.96344" lon="2.12983">
        <ele>16.3</ele>
        <time>2023-06-28T08:11:36Z</time>
      </trkpt>
      <trkpt lat="49.96345" lon="2.12982">
        <ele>16.3</ele>
        <time>2023-06-28T08:11:37Z</time>
      </trkpt>
      <trkpt lat="49.96345" lon="2.12981">
        <ele>16.3</ele>
        <time>2023-06-28T08:11:38Z</time>
      </trkpt>
      <trkpt lat="49.96346" lon="2.1298">
        <ele>16.3</ele>
        <time>2023-06-28T08:11:39Z</time>
      </trkpt>
      <trkpt lat="49.96346" lon="2.12979">
        <ele>16.3</ele>
        <time>2023-06-28T08:11:40Z</time>
      </trkpt>
      <trkpt lat="49.96347" lon="2.12977">
        <ele>16.3</ele>
        <time>2023-06-28T08:11:41Z</time>
      </trkpt>
      <trkpt lat="49.96347" lon="2.12976">
        <ele>16.3</ele>
        <time>2023-06-28T08:11:42Z</time>
      </trkpt>
      <trkpt lat="49.96348" lon="2.12975">
        <ele>16.3</ele>
        <time>2023-06-28T08:11:43Z</time>
      </trkpt>
      <trkpt lat="49.96348" lon="2.12973">
        <ele>16.3</ele>
        <time>2023-06-28T08:11:44Z</time>
      </trkpt>
      <trkpt lat="49.96349" lon="2.12972">
        <ele>16.3</ele>
        <time>2023-06-28T08:11:45Z</time>
      </trkpt>
      <trkpt lat="49.96349" lon="2.12971">
        <ele>16.3</ele>
        <time>2023-06-28T08:11:46Z</time>
      </trkpt>
      <trkpt lat="49.9635" lon="2.1297">
        <ele>16.3</ele>
        <time>2023-06-28T08:11:47Z</time>
      </trkpt>
      <trkpt lat="49.9635" lon="2.12969">
        <ele>16.3</ele>
        <time>2023-06-28T08:11:48Z</time>
      </trkpt>
      <trkpt lat="49.96351" lon="2.12968">
        <ele>16.3</ele>
        <time>2023-06-28T08:11:49Z</time>
      </trkpt>
      <trkpt lat="49.96351" lon="2.12967">
        <ele>16.3</ele>
        <time>2023-06-28T08:11:50Z</time>
      </trkpt>
      <trkpt lat="49.96352" lon="2.12965">
        <ele>16.3</ele>
        <time>2023-06-28T08:11:51Z</time>
      </trkpt>
      <trkpt lat="49.96353" lon="2.12964">
        <ele>16.3</ele>
        <time>2023-06-28T08:11:52Z</time>
      </trkpt>
      <trkpt lat="49.96354" lon="2.12963">
        <ele>16.3</ele>
        <time>2023-06-28T08:11:53Z</time>
      </trkpt>
      <trkpt lat="49.96354" lon="2.12962">
        <ele>16.3</ele>
        <time>2023-06-28T08:11:54Z</time>
      </trkpt>
      <trkpt lat="49.96355" lon="2.12961">
        <ele>16.3</ele>
        <time>2023-06-28T08:11:55Z</time>
      </trkpt>
      <trkpt lat="49.96356" lon="2.12959">
        <ele>16.3</ele>
        <time>2023-06-28T08:11:56Z</time>
      </trkpt>
      <trkpt lat="49.96357" lon="2.12958">
        <ele>16.3</ele>
        <time>2023-06-28T08:11:57Z</time>
      </trkpt>
      <trkpt lat="49.96357" lon="2.12957">
        <ele>16.3</ele>
        <time>2023-06-28T08:11:58Z</time>
      </trkpt>
      <trkpt lat="49.96358" lon="2.12954">
        <ele>16.3</ele>
        <time>2023-06-28T08:11:59Z</time>
      </trkpt>
      <trkpt lat="49.96359" lon="2.12953">
        <ele>16.3</ele>
        <time>2023-06-28T08:12:00Z</time>
      </trkpt>
      <trkpt lat="49.96359" lon="2.12952">
        <ele>16.3</ele>
        <time>2023-06-28T08:12:01Z</time>
      </trkpt>
      <trkpt lat="49.9636" lon="2.12951">
        <ele>16.3</ele>
        <time>2023-06-28T08:12:02Z</time>
      </trkpt>
      <trkpt lat="49.9636" lon="2.12949">
        <ele>16.3</ele>
        <time>2023-06-28T08:12:03Z</time>
      </trkpt>
      <trkpt lat="49.96361" lon="2.12948">
        <ele>16.3</ele>
        <time>2023-06-28T08:12:04Z</time>
      </trkpt>
      <trkpt lat="49.96361" lon="2.12946">
        <ele>16.3</ele>
        <time>2023-06-28T08:12:05Z</time>
      </trkpt>
      <trkpt lat="49.96362" lon="2.12944">
        <ele>16.4</ele>
        <time>2023-06-28T08:12:06Z</time>
      </trkpt>
      <trkpt lat="49.96362" lon="2.12943">
        <ele>16.4</ele>
        <time>2023-06-28T08:12:07Z</time>
      </trkpt>
      <trkpt lat="49.96363" lon="2.12941">
        <ele>16.4</ele>
        <time>2023-06-28T08:12:08Z</time>
      </trkpt>
      <trkpt lat="49.96363" lon="2.1294">
        <ele>16.4</ele>
        <time>2023-06-28T08:12:09Z</time>
      </trkpt>
      <trkpt lat="49.96364" lon="2.12938">
        <ele>16.4</ele>
        <time>2023-06-28T08:12:10Z</time>
      </trkpt>
      <trkpt lat="49.96364" lon="2.12936">
        <ele>16.4</ele>
        <time>2023-06-28T08:12:11Z</time>
      </trkpt>
      <trkpt lat="49.96365" lon="2.12935">
        <ele>16.4</ele>
        <time>2023-06-28T08:12:12Z</time>
      </trkpt>
      <trkpt lat="49.96365" lon="2.12933">
        <ele>16.4</ele>
        <time>2023-06-28T08:12:13Z</time>
      </trkpt>
      <trkpt lat="49.96366" lon="2.12932">
        <ele>16.4</ele>
        <time>2023-06-28T08:12:14Z</time>
      </trkpt>
      <trkpt lat="49.96367" lon="2.1293">
        <ele>16.4</ele>
        <time>2023-06-28T08:12:15Z</time>
      </trkpt>
      <trkpt lat="49.96368" lon="2.12929">
        <ele>16.4</ele>
        <time>2023-06-28T08:12:16Z</time>
      </trkpt>
      <trkpt lat="49.96368" lon="2.12927">
        <ele>16.4</ele>
        <time>2023-06-28T08:12:17Z</time>
      </trkpt>
      <trkpt lat="49.96369" lon="2.12926">
        <ele>16.4</ele>
        <time>2023-06-28T08:12:18Z</time>
      </trkpt>
      <trkpt lat="49.9637" lon="2.12924">
        <ele>16.4</ele>
        <time>2023-06-28T08:12:19Z</time>
      </trkpt>
      <trkpt lat="49.96371" lon="2.12922">
        <ele>16.4</ele>
        <time>2023-06-28T08:12:20Z</time>
      </trkpt>
      <trkpt lat="49.96372" lon="2.12921">
        <ele>16.4</ele>
        <time>2023-06-28T08:12:21Z</time>
      </trkpt>
      <trkpt lat="49.96372" lon="2.12919">
        <ele>16.4</ele>
        <time>2023-06-28T08:12:22Z</time>
      </trkpt>
      <trkpt lat="49.96374" lon="2.12917">
        <ele>16.4</ele>
        <time>2023-06-28T08:12:23Z</time>
      </trkpt>
      <trkpt lat="49.96374" lon="2.12916">
        <ele>16.4</ele>
        <time>2023-06-28T08:12:24Z</time>
      </trkpt>
      <trkpt lat="49.96375" lon="2.12914">
        <ele>16.4</ele>
        <time>2023-06-28T08:12:25Z</time>
      </trkpt>
      <trkpt lat="49.96376" lon="2.12912">
        <ele>16.4</ele>
        <time>2023-06-28T08:12:26Z</time>
      </trkpt>
      <trkpt lat="49.96377" lon="2.12911">
        <ele>16.4</ele>
        <time>2023-06-28T08:12:27Z</time>
      </trkpt>
      <trkpt lat="49.96377" lon="2.12911">
        <ele>16.4</ele>
        <time>2023-06-28T08:12:28Z</time>
      </trkpt>
      <trkpt lat="49.96378" lon="2.12909">
        <ele>16.4</ele>
        <time>2023-06-28T08:12:29Z</time>
      </trkpt>
      <trkpt lat="49.96379" lon="2.12908">
        <ele>16.4</ele>
        <time>2023-06-28T08:12:30Z</time>
      </trkpt>
      <trkpt lat="49.96379" lon="2.12907">
        <ele>16.4</ele>
        <time>2023-06-28T08:12:31Z</time>
      </trkpt>
      <trkpt lat="49.9638" lon="2.12906">
        <ele>16.4</ele>
        <time>2023-06-28T08:12:32Z</time>
      </trkpt>
      <trkpt lat="49.96381" lon="2.12905">
        <ele>16.4</ele>
        <time>2023-06-28T08:12:33Z</time>
      </trkpt>
      <trkpt lat="49.96382" lon="2.12904">
        <ele>16.4</ele>
        <time>2023-06-28T08:12:34Z</time>
      </trkpt>
      <trkpt lat="49.96382" lon="2.12902">
        <ele>16.4</ele>
        <time>2023-06-28T08:12:35Z</time>
      </trkpt>
      <trkpt lat="49.96383" lon="2.12901">
        <ele>16.4</ele>
        <time>2023-06-28T08:12:36Z</time>
      </trkpt>
      <trkpt lat="49.96383" lon="2.129">
        <ele>16.4</ele>
        <time>2023-06-28T08:12:37Z</time>
      </trkpt>
      <trkpt lat="49.96384" lon="2.12898">
        <ele>16.4</ele>
        <time>2023-06-28T08:12:38Z</time>
      </trkpt>
      <trkpt lat="49.96385" lon="2.12897">
        <ele>16.4</ele>
        <time>2023-06-28T08:12:39Z</time>
      </trkpt>
      <trkpt lat="49.96385" lon="2.12896">
        <ele>16.4</ele>
        <time>2023-06-28T08:12:40Z</time>
      </trkpt>
      <trkpt lat="49.96386" lon="2.12894">
        <ele>16.4</ele>
        <time>2023-06-28T08:12:41Z</time>
      </trkpt>
      <trkpt lat="49.96386" lon="2.12893">
        <ele>16.4</ele>
        <time>2023-06-28T08:12:42Z</time>
      </trkpt>
      <trkpt lat="49.96386" lon="2.12892">
        <ele>16.4</ele>
        <time>2023-06-28T08:12:43Z</time>
      </trkpt>
      <trkpt lat="49.96387" lon="2.1289">
        <ele>16.4</ele>
        <time>2023-06-28T08:12:44Z</time>
      </trkpt>
      <trkpt lat="49.96387" lon="2.12889">
        <ele>16.4</ele>
        <time>2023-06-28T08:12:45Z</time>
      </trkpt>
      <trkpt lat="49.96387" lon="2.12888">
        <ele>16.4</ele>
        <time>2023-06-28T08:12:46Z</time>
      </trkpt>
      <trkpt lat="49.96388" lon="2.12886">
        <ele>16.4</ele>
        <time>2023-06-28T08:12:47Z</time>
      </trkpt>
      <trkpt lat="49.96388" lon="2.12884">
        <ele>16.4</ele>
        <time>2023-06-28T08:12:48Z</time>
      </trkpt>
      <trkpt lat="49.96389" lon="2.12882">
        <ele>16.3</ele>
        <time>2023-06-28T08:12:49Z</time>
      </trkpt>
      <trkpt lat="49.96389" lon="2.12881">
        <ele>16.3</ele>
        <time>2023-06-28T08:12:50Z</time>
      </trkpt>
      <trkpt lat="49.96389" lon="2.12879">
        <ele>16.3</ele>
        <time>2023-06-28T08:12:51Z</time>
      </trkpt>
      <trkpt lat="49.9639" lon="2.12877">
        <ele>16.3</ele>
        <time>2023-06-28T08:12:52Z</time>
      </trkpt>
      <trkpt lat="49.9639" lon="2.12876">
        <ele>16.3</ele>
        <time>2023-06-28T08:12:53Z</time>
      </trkpt>
      <trkpt lat="49.9639" lon="2.12874">
        <ele>16.3</ele>
        <time>2023-06-28T08:12:54Z</time>
      </trkpt>
      <trkpt lat="49.96391" lon="2.12873">
        <ele>16.3</ele>
        <time>2023-06-28T08:12:55Z</time>
      </trkpt>
      <trkpt lat="49.96392" lon="2.12869">
        <ele>16.3</ele>
        <time>2023-06-28T08:12:56Z</time>
      </trkpt>
      <trkpt lat="49.96392" lon="2.12868">
        <ele>16.3</ele>
        <time>2023-06-28T08:12:57Z</time>
      </trkpt>
      <trkpt lat="49.96393" lon="2.12867">
        <ele>16.3</ele>
        <time>2023-06-28T08:12:58Z</time>
      </trkpt>
      <trkpt lat="49.96393" lon="2.12865">
        <ele>16.3</ele>
        <time>2023-06-28T08:12:59Z</time>
      </trkpt>
      <trkpt lat="49.96394" lon="2.12863">
        <ele>16.3</ele>
        <time>2023-06-28T08:13:00Z</time>
      </trkpt>
      <trkpt lat="49.96395" lon="2.12861">
        <ele>16.4</ele>
        <time>2023-06-28T08:13:01Z</time>
      </trkpt>
      <trkpt lat="49.96396" lon="2.12859">
        <ele>16.4</ele>
        <time>2023-06-28T08:13:02Z</time>
      </trkpt>
      <trkpt lat="49.96396" lon="2.12858">
        <ele>16.4</ele>
        <time>2023-06-28T08:13:03Z</time>
      </trkpt>
      <trkpt lat="49.96397" lon="2.12856">
        <ele>16.4</ele>
        <time>2023-06-28T08:13:04Z</time>
      </trkpt>
      <trkpt lat="49.96398" lon="2.12855">
        <ele>16.4</ele>
        <time>2023-06-28T08:13:05Z</time>
      </trkpt>
      <trkpt lat="49.96398" lon="2.12854">
        <ele>16.4</ele>
        <time>2023-06-28T08:13:06Z</time>
      </trkpt>
      <trkpt lat="49.96399" lon="2.12852">
        <ele>16.4</ele>
        <time>2023-06-28T08:13:07Z</time>
      </trkpt>
      <trkpt lat="49.96399" lon="2.12851">
        <ele>16.4</ele>
        <time>2023-06-28T08:13:08Z</time>
      </trkpt>
      <trkpt lat="49.964" lon="2.12849">
        <ele>16.4</ele>
        <time>2023-06-28T08:13:09Z</time>
      </trkpt>
      <trkpt lat="49.964" lon="2.12848">
        <ele>16.4</ele>
        <time>2023-06-28T08:13:10Z</time>
      </trkpt>
      <trkpt lat="49.96401" lon="2.12847">
        <ele>16.4</ele>
        <time>2023-06-28T08:13:11Z</time>
      </trkpt>
      <trkpt lat="49.96401" lon="2.12845">
        <ele>16.3</ele>
        <time>2023-06-28T08:13:12Z</time>
      </trkpt>
      <trkpt lat="49.96402" lon="2.12844">
        <ele>16.3</ele>
        <time>2023-06-28T08:13:13Z</time>
      </trkpt>
      <trkpt lat="49.96402" lon="2.12842">
        <ele>16.3</ele>
        <time>2023-06-28T08:13:14Z</time>
      </trkpt>
      <trkpt lat="49.96403" lon="2.12841">
        <ele>16.3</ele>
        <time>2023-06-28T08:13:15Z</time>
      </trkpt>
      <trkpt lat="49.96403" lon="2.1284">
        <ele>16.3</ele>
        <time>2023-06-28T08:13:16Z</time>
      </trkpt>
      <trkpt lat="49.96404" lon="2.12839">
        <ele>16.3</ele>
        <time>2023-06-28T08:13:17Z</time>
      </trkpt>
      <trkpt lat="49.96404" lon="2.12838">
        <ele>16.3</ele>
        <time>2023-06-28T08:13:18Z</time>
      </trkpt>
      <trkpt lat="49.96405" lon="2.12837">
        <ele>16.3</ele>
        <time>2023-06-28T08:13:19Z</time>
      </trkpt>
      <trkpt lat="49.96405" lon="2.12836">
        <ele>16.3</ele>
        <time>2023-06-28T08:13:20Z</time>
      </trkpt>
      <trkpt lat="49.96406" lon="2.12834">
        <ele>16.3</ele>
        <time>2023-06-28T08:13:21Z</time>
      </trkpt>
      <trkpt lat="49.96406" lon="2.12833">
        <ele>16.3</ele>
        <time>2023-06-28T08:13:22Z</time>
      </trkpt>
      <trkpt lat="49.96407" lon="2.12832">
        <ele>16.3</ele>
        <time>2023-06-28T08:13:23Z</time>
      </trkpt>
      <trkpt lat="49.96407" lon="2.1283">
        <ele>16.3</ele>
        <time>2023-06-28T08:13:24Z</time>
      </trkpt>
      <trkpt lat="49.96408" lon="2.12829">
        <ele>16.3</ele>
        <time>2023-06-28T08:13:25Z</time>
      </trkpt>
      <trkpt lat="49.96408" lon="2.12828">
        <ele>16.3</ele>
        <time>2023-06-28T08:13:26Z</time>
      </trkpt>
      <trkpt lat="49.96409" lon="2.12826">
        <ele>16.2</ele>
        <time>2023-06-28T08:13:27Z</time>
      </trkpt>
      <trkpt lat="49.9641" lon="2.12825">
        <ele>16.2</ele>
        <time>2023-06-28T08:13:28Z</time>
      </trkpt>
      <trkpt lat="49.9641" lon="2.12823">
        <ele>16.2</ele>
        <time>2023-06-28T08:13:29Z</time>
      </trkpt>
      <trkpt lat="49.96411" lon="2.12822">
        <ele>16.2</ele>
        <time>2023-06-28T08:13:30Z</time>
      </trkpt>
      <trkpt lat="49.96412" lon="2.12819">
        <ele>16.2</ele>
        <time>2023-06-28T08:13:31Z</time>
      </trkpt>
      <trkpt lat="49.96413" lon="2.12818">
        <ele>16.2</ele>
        <time>2023-06-28T08:13:32Z</time>
      </trkpt>
      <trkpt lat="49.96413" lon="2.12816">
        <ele>16.2</ele>
        <time>2023-06-28T08:13:33Z</time>
      </trkpt>
      <trkpt lat="49.96414" lon="2.12814">
        <ele>16.2</ele>
        <time>2023-06-28T08:13:34Z</time>
      </trkpt>
      <trkpt lat="49.96415" lon="2.12813">
        <ele>16.2</ele>
        <time>2023-06-28T08:13:35Z</time>
      </trkpt>
      <trkpt lat="49.96416" lon="2.12811">
        <ele>16.1</ele>
        <time>2023-06-28T08:13:36Z</time>
      </trkpt>
      <trkpt lat="49.96417" lon="2.12809">
        <ele>16.1</ele>
        <time>2023-06-28T08:13:37Z</time>
      </trkpt>
      <trkpt lat="49.96419" lon="2.12807">
        <ele>16.1</ele>
        <time>2023-06-28T08:13:38Z</time>
      </trkpt>
      <trkpt lat="49.96419" lon="2.12806">
        <ele>16.1</ele>
        <time>2023-06-28T08:13:39Z</time>
      </trkpt>
      <trkpt lat="49.9642" lon="2.12805">
        <ele>16.1</ele>
        <time>2023-06-28T08:13:40Z</time>
      </trkpt>
      <trkpt lat="49.96422" lon="2.12803">
        <ele>16.1</ele>
        <time>2023-06-28T08:13:41Z</time>
      </trkpt>
      <trkpt lat="49.96422" lon="2.12802">
        <ele>16.1</ele>
        <time>2023-06-28T08:13:42Z</time>
      </trkpt>
      <trkpt lat="49.96423" lon="2.12801">
        <ele>16</ele>
        <time>2023-06-28T08:13:43Z</time>
      </trkpt>
      <trkpt lat="49.96424" lon="2.12799">
        <ele>16</ele>
        <time>2023-06-28T08:13:44Z</time>
      </trkpt>
      <trkpt lat="49.96425" lon="2.12797">
        <ele>16</ele>
        <time>2023-06-28T08:13:45Z</time>
      </trkpt>
      <trkpt lat="49.96426" lon="2.12795">
        <ele>16</ele>
        <time>2023-06-28T08:13:46Z</time>
      </trkpt>
      <trkpt lat="49.96427" lon="2.12794">
        <ele>16</ele>
        <time>2023-06-28T08:13:47Z</time>
      </trkpt>
      <trkpt lat="49.96427" lon="2.12792">
        <ele>16</ele>
        <time>2023-06-28T08:13:48Z</time>
      </trkpt>
      <trkpt lat="49.96428" lon="2.1279">
        <ele>16</ele>
        <time>2023-06-28T08:13:49Z</time>
      </trkpt>
      <trkpt lat="49.96428" lon="2.12789">
        <ele>15.9</ele>
        <time>2023-06-28T08:13:50Z</time>
      </trkpt>
      <trkpt lat="49.96429" lon="2.12787">
        <ele>15.9</ele>
        <time>2023-06-28T08:13:51Z</time>
      </trkpt>
      <trkpt lat="49.96429" lon="2.12786">
        <ele>15.9</ele>
        <time>2023-06-28T08:13:52Z</time>
      </trkpt>
      <trkpt lat="49.9643" lon="2.12784">
        <ele>15.9</ele>
        <time>2023-06-28T08:13:53Z</time>
      </trkpt>
      <trkpt lat="49.9643" lon="2.12781">
        <ele>15.9</ele>
        <time>2023-06-28T08:13:54Z</time>
      </trkpt>
      <trkpt lat="49.96431" lon="2.1278">
        <ele>15.9</ele>
        <time>2023-06-28T08:13:55Z</time>
      </trkpt>
      <trkpt lat="49.96431" lon="2.12778">
        <ele>15.8</ele>
        <time>2023-06-28T08:13:56Z</time>
      </trkpt>
      <trkpt lat="49.96432" lon="2.12776">
        <ele>15.8</ele>
        <time>2023-06-28T08:13:57Z</time>
      </trkpt>
      <trkpt lat="49.96432" lon="2.12774">
        <ele>15.8</ele>
        <time>2023-06-28T08:13:58Z</time>
      </trkpt>
      <trkpt lat="49.96433" lon="2.12772">
        <ele>15.8</ele>
        <time>2023-06-28T08:13:59Z</time>
      </trkpt>
      <trkpt lat="49.96433" lon="2.1277">
        <ele>15.7</ele>
        <time>2023-06-28T08:14:00Z</time>
      </trkpt>
      <trkpt lat="49.96434" lon="2.12767">
        <ele>15.7</ele>
        <time>2023-06-28T08:14:01Z</time>
      </trkpt>
      <trkpt lat="49.96435" lon="2.12766">
        <ele>15.7</ele>
        <time>2023-06-28T08:14:02Z</time>
      </trkpt>
      <trkpt lat="49.96435" lon="2.12765">
        <ele>15.7</ele>
        <time>2023-06-28T08:14:03Z</time>
      </trkpt>
      <trkpt lat="49.96436" lon="2.12762">
        <ele>15.6</ele>
        <time>2023-06-28T08:14:04Z</time>
      </trkpt>
      <trkpt lat="49.96436" lon="2.12761">
        <ele>15.6</ele>
        <time>2023-06-28T08:14:05Z</time>
      </trkpt>
      <trkpt lat="49.96437" lon="2.1276">
        <ele>15.6</ele>
        <time>2023-06-28T08:14:06Z</time>
      </trkpt>
      <trkpt lat="49.96437" lon="2.12758">
        <ele>15.6</ele>
        <time>2023-06-28T08:14:07Z</time>
      </trkpt>
      <trkpt lat="49.96438" lon="2.12756">
        <ele>15.5</ele>
        <time>2023-06-28T08:14:08Z</time>
      </trkpt>
      <trkpt lat="49.96439" lon="2.12753">
        <ele>15.5</ele>
        <time>2023-06-28T08:14:09Z</time>
      </trkpt>
      <trkpt lat="49.9644" lon="2.12752">
        <ele>15.5</ele>
        <time>2023-06-28T08:14:10Z</time>
      </trkpt>
      <trkpt lat="49.9644" lon="2.12751">
        <ele>15.5</ele>
        <time>2023-06-28T08:14:11Z</time>
      </trkpt>
      <trkpt lat="49.96441" lon="2.1275">
        <ele>15.4</ele>
        <time>2023-06-28T08:14:12Z</time>
      </trkpt>
      <trkpt lat="49.96441" lon="2.12748">
        <ele>15.4</ele>
        <time>2023-06-28T08:14:13Z</time>
      </trkpt>
      <trkpt lat="49.96441" lon="2.12747">
        <ele>15.4</ele>
        <time>2023-06-28T08:14:14Z</time>
      </trkpt>
      <trkpt lat="49.96442" lon="2.12745">
        <ele>15.4</ele>
        <time>2023-06-28T08:14:15Z</time>
      </trkpt>
      <trkpt lat="49.96442" lon="2.12744">
        <ele>15.3</ele>
        <time>2023-06-28T08:14:16Z</time>
      </trkpt>
      <trkpt lat="49.96443" lon="2.12743">
        <ele>15.3</ele>
        <time>2023-06-28T08:14:17Z</time>
      </trkpt>
      <trkpt lat="49.96443" lon="2.12741">
        <ele>15.3</ele>
        <time>2023-06-28T08:14:18Z</time>
      </trkpt>
      <trkpt lat="49.96444" lon="2.1274">
        <ele>15.2</ele>
        <time>2023-06-28T08:14:19Z</time>
      </trkpt>
      <trkpt lat="49.96444" lon="2.12738">
        <ele>15.2</ele>
        <time>2023-06-28T08:14:20Z</time>
      </trkpt>
      <trkpt lat="49.96445" lon="2.12737">
        <ele>15.2</ele>
        <time>2023-06-28T08:14:21Z</time>
      </trkpt>
      <trkpt lat="49.96445" lon="2.12735">
        <ele>15.2</ele>
        <time>2023-06-28T08:14:22Z</time>
      </trkpt>
      <trkpt lat="49.96446" lon="2.12733">
        <ele>15.1</ele>
        <time>2023-06-28T08:14:23Z</time>
      </trkpt>
      <trkpt lat="49.96446" lon="2.12732">
        <ele>15.1</ele>
        <time>2023-06-28T08:14:24Z</time>
      </trkpt>
      <trkpt lat="49.96447" lon="2.12731">
        <ele>15.1</ele>
        <time>2023-06-28T08:14:25Z</time>
      </trkpt>
      <trkpt lat="49.96447" lon="2.12729">
        <ele>15</ele>
        <time>2023-06-28T08:14:26Z</time>
      </trkpt>
      <trkpt lat="49.96447" lon="2.12728">
        <ele>15</ele>
        <time>2023-06-28T08:14:27Z</time>
      </trkpt>
      <trkpt lat="49.96448" lon="2.12727">
        <ele>15</ele>
        <time>2023-06-28T08:14:28Z</time>
      </trkpt>
      <trkpt lat="49.96448" lon="2.12725">
        <ele>15</ele>
        <time>2023-06-28T08:14:29Z</time>
      </trkpt>
      <trkpt lat="49.96449" lon="2.12724">
        <ele>14.9</ele>
        <time>2023-06-28T08:14:30Z</time>
      </trkpt>
      <trkpt lat="49.96449" lon="2.12722">
        <ele>14.9</ele>
        <time>2023-06-28T08:14:31Z</time>
      </trkpt>
      <trkpt lat="49.9645" lon="2.12721">
        <ele>14.9</ele>
        <time>2023-06-28T08:14:32Z</time>
      </trkpt>
      <trkpt lat="49.96451" lon="2.12717">
        <ele>14.8</ele>
        <time>2023-06-28T08:14:33Z</time>
      </trkpt>
      <trkpt lat="49.96451" lon="2.12716">
        <ele>14.8</ele>
        <time>2023-06-28T08:14:34Z</time>
      </trkpt>
      <trkpt lat="49.96451" lon="2.12715">
        <ele>14.7</ele>
        <time>2023-06-28T08:14:35Z</time>
      </trkpt>
      <trkpt lat="49.96452" lon="2.12712">
        <ele>14.7</ele>
        <time>2023-06-28T08:14:36Z</time>
      </trkpt>
      <trkpt lat="49.96452" lon="2.1271">
        <ele>14.6</ele>
        <time>2023-06-28T08:14:37Z</time>
      </trkpt>
      <trkpt lat="49.96452" lon="2.12709">
        <ele>14.6</ele>
        <time>2023-06-28T08:14:38Z</time>
      </trkpt>
      <trkpt lat="49.96453" lon="2.12707">
        <ele>14.5</ele>
        <time>2023-06-28T08:14:39Z</time>
      </trkpt>
      <trkpt lat="49.96453" lon="2.12705">
        <ele>14.5</ele>
        <time>2023-06-28T08:14:40Z</time>
      </trkpt>
      <trkpt lat="49.96453" lon="2.12704">
        <ele>14.5</ele>
        <time>2023-06-28T08:14:41Z</time>
      </trkpt>
      <trkpt lat="49.96453" lon="2.12702">
        <ele>14.5</ele>
        <time>2023-06-28T08:14:42Z</time>
      </trkpt>
      <trkpt lat="49.96454" lon="2.127">
        <ele>14.4</ele>
        <time>2023-06-28T08:14:43Z</time>
      </trkpt>
      <trkpt lat="49.96454" lon="2.12699">
        <ele>14.4</ele>
        <time>2023-06-28T08:14:44Z</time>
      </trkpt>
      <trkpt lat="49.96454" lon="2.12697">
        <ele>14.4</ele>
        <time>2023-06-28T08:14:45Z</time>
      </trkpt>
      <trkpt lat="49.96454" lon="2.12695">
        <ele>14.3</ele>
        <time>2023-06-28T08:14:46Z</time>
      </trkpt>
      <trkpt lat="49.96454" lon="2.12693">
        <ele>14.3</ele>
        <time>2023-06-28T08:14:47Z</time>
      </trkpt>
      <trkpt lat="49.96454" lon="2.12691">
        <ele>14.2</ele>
        <time>2023-06-28T08:14:48Z</time>
      </trkpt>
      <trkpt lat="49.96454" lon="2.12689">
        <ele>14.2</ele>
        <time>2023-06-28T08:14:49Z</time>
      </trkpt>
      <trkpt lat="49.96454" lon="2.12686">
        <ele>14.2</ele>
        <time>2023-06-28T08:14:50Z</time>
      </trkpt>
      <trkpt lat="49.96453" lon="2.12683">
        <ele>14.1</ele>
        <time>2023-06-28T08:14:51Z</time>
      </trkpt>
      <trkpt lat="49.96453" lon="2.12682">
        <ele>14.1</ele>
        <time>2023-06-28T08:14:52Z</time>
      </trkpt>
      <trkpt lat="49.96453" lon="2.12681">
        <ele>14</ele>
        <time>2023-06-28T08:14:53Z</time>
      </trkpt>
      <trkpt lat="49.96452" lon="2.12679">
        <ele>14</ele>
        <time>2023-06-28T08:14:54Z</time>
      </trkpt>
      <trkpt lat="49.96452" lon="2.12677">
        <ele>14</ele>
        <time>2023-06-28T08:14:55Z</time>
      </trkpt>
      <trkpt lat="49.96452" lon="2.12675">
        <ele>13.9</ele>
        <time>2023-06-28T08:14:56Z</time>
      </trkpt>
      <trkpt lat="49.96451" lon="2.12672">
        <ele>13.8</ele>
        <time>2023-06-28T08:14:57Z</time>
      </trkpt>
      <trkpt lat="49.96451" lon="2.12671">
        <ele>13.8</ele>
        <time>2023-06-28T08:14:58Z</time>
      </trkpt>
      <trkpt lat="49.96451" lon="2.1267">
        <ele>13.8</ele>
        <time>2023-06-28T08:14:59Z</time>
      </trkpt>
      <trkpt lat="49.9645" lon="2.12668">
        <ele>13.7</ele>
        <time>2023-06-28T08:15:00Z</time>
      </trkpt>
      <trkpt lat="49.96449" lon="2.12665">
        <ele>13.7</ele>
        <time>2023-06-28T08:15:01Z</time>
      </trkpt>
      <trkpt lat="49.96449" lon="2.12663">
        <ele>13.6</ele>
        <time>2023-06-28T08:15:02Z</time>
      </trkpt>
      <trkpt lat="49.96448" lon="2.12662">
        <ele>13.6</ele>
        <time>2023-06-28T08:15:03Z</time>
      </trkpt>
      <trkpt lat="49.96447" lon="2.1266">
        <ele>13.6</ele>
        <time>2023-06-28T08:15:04Z</time>
      </trkpt>
      <trkpt lat="49.96446" lon="2.12658">
        <ele>13.5</ele>
        <time>2023-06-28T08:15:05Z</time>
      </trkpt>
      <trkpt lat="49.96445" lon="2.12655">
        <ele>13.5</ele>
        <time>2023-06-28T08:15:06Z</time>
      </trkpt>
      <trkpt lat="49.96445" lon="2.12654">
        <ele>13.4</ele>
        <time>2023-06-28T08:15:07Z</time>
      </trkpt>
      <trkpt lat="49.96444" lon="2.12653">
        <ele>13.4</ele>
        <time>2023-06-28T08:15:08Z</time>
      </trkpt>
      <trkpt lat="49.96444" lon="2.12651">
        <ele>13.4</ele>
        <time>2023-06-28T08:15:09Z</time>
      </trkpt>
      <trkpt lat="49.96443" lon="2.12649">
        <ele>13.3</ele>
        <time>2023-06-28T08:15:10Z</time>
      </trkpt>
      <trkpt lat="49.96442" lon="2.12646">
        <ele>13.3</ele>
        <time>2023-06-28T08:15:11Z</time>
      </trkpt>
      <trkpt lat="49.96442" lon="2.12644">
        <ele>13.3</ele>
        <time>2023-06-28T08:15:12Z</time>
      </trkpt>
      <trkpt lat="49.96441" lon="2.12643">
        <ele>13.2</ele>
        <time>2023-06-28T08:15:13Z</time>
      </trkpt>
      <trkpt lat="49.96441" lon="2.12641">
        <ele>13.2</ele>
        <time>2023-06-28T08:15:14Z</time>
      </trkpt>
      <trkpt lat="49.9644" lon="2.12639">
        <ele>13.2</ele>
        <time>2023-06-28T08:15:15Z</time>
      </trkpt>
      <trkpt lat="49.96439" lon="2.12637">
        <ele>13.1</ele>
        <time>2023-06-28T08:15:16Z</time>
      </trkpt>
      <trkpt lat="49.96438" lon="2.12636">
        <ele>13.1</ele>
        <time>2023-06-28T08:15:17Z</time>
      </trkpt>
      <trkpt lat="49.96438" lon="2.12635">
        <ele>13.1</ele>
        <time>2023-06-28T08:15:18Z</time>
      </trkpt>
      <trkpt lat="49.96436" lon="2.12632">
        <ele>13</ele>
        <time>2023-06-28T08:15:19Z</time>
      </trkpt>
      <trkpt lat="49.96436" lon="2.12632">
        <ele>13</ele>
        <time>2023-06-28T08:15:20Z</time>
      </trkpt>
      <trkpt lat="49.96435" lon="2.12631">
        <ele>13</ele>
        <time>2023-06-28T08:15:21Z</time>
      </trkpt>
      <trkpt lat="49.96434" lon="2.12629">
        <ele>12.9</ele>
        <time>2023-06-28T08:15:22Z</time>
      </trkpt>
      <trkpt lat="49.96434" lon="2.12628">
        <ele>12.9</ele>
        <time>2023-06-28T08:15:23Z</time>
      </trkpt>
      <trkpt lat="49.96433" lon="2.12627">
        <ele>12.9</ele>
        <time>2023-06-28T08:15:24Z</time>
      </trkpt>
      <trkpt lat="49.96432" lon="2.12625">
        <ele>12.8</ele>
        <time>2023-06-28T08:15:25Z</time>
      </trkpt>
      <trkpt lat="49.96432" lon="2.12624">
        <ele>12.8</ele>
        <time>2023-06-28T08:15:26Z</time>
      </trkpt>
      <trkpt lat="49.96431" lon="2.12622">
        <ele>12.8</ele>
        <time>2023-06-28T08:15:27Z</time>
      </trkpt>
      <trkpt lat="49.96431" lon="2.12621">
        <ele>12.8</ele>
        <time>2023-06-28T08:15:28Z</time>
      </trkpt>
      <trkpt lat="49.9643" lon="2.1262">
        <ele>12.7</ele>
        <time>2023-06-28T08:15:29Z</time>
      </trkpt>
      <trkpt lat="49.9643" lon="2.12618">
        <ele>12.7</ele>
        <time>2023-06-28T08:15:30Z</time>
      </trkpt>
      <trkpt lat="49.9643" lon="2.12617">
        <ele>12.7</ele>
        <time>2023-06-28T08:15:31Z</time>
      </trkpt>
      <trkpt lat="49.96429" lon="2.12615">
        <ele>12.7</ele>
        <time>2023-06-28T08:15:32Z</time>
      </trkpt>
      <trkpt lat="49.96429" lon="2.12614">
        <ele>12.7</ele>
        <time>2023-06-28T08:15:33Z</time>
      </trkpt>
      <trkpt lat="49.96428" lon="2.12612">
        <ele>12.6</ele>
        <time>2023-06-28T08:15:34Z</time>
      </trkpt>
      <trkpt lat="49.96428" lon="2.12611">
        <ele>12.6</ele>
        <time>2023-06-28T08:15:35Z</time>
      </trkpt>
      <trkpt lat="49.96428" lon="2.12609">
        <ele>12.6</ele>
        <time>2023-06-28T08:15:36Z</time>
      </trkpt>
      <trkpt lat="49.96427" lon="2.12606">
        <ele>12.5</ele>
        <time>2023-06-28T08:15:37Z</time>
      </trkpt>
      <trkpt lat="49.96427" lon="2.12604">
        <ele>12.5</ele>
        <time>2023-06-28T08:15:38Z</time>
      </trkpt>
      <trkpt lat="49.96426" lon="2.12603">
        <ele>12.5</ele>
        <time>2023-06-28T08:15:39Z</time>
      </trkpt>
      <trkpt lat="49.96426" lon="2.12601">
        <ele>12.5</ele>
        <time>2023-06-28T08:15:40Z</time>
      </trkpt>
      <trkpt lat="49.96425" lon="2.12599">
        <ele>12.5</ele>
        <time>2023-06-28T08:15:41Z</time>
      </trkpt>
      <trkpt lat="49.96425" lon="2.12597">
        <ele>12.4</ele>
        <time>2023-06-28T08:15:42Z</time>
      </trkpt>
      <trkpt lat="49.96425" lon="2.12595">
        <ele>12.4</ele>
        <time>2023-06-28T08:15:43Z</time>
      </trkpt>
      <trkpt lat="49.96425" lon="2.12594">
        <ele>12.4</ele>
        <time>2023-06-28T08:15:44Z</time>
      </trkpt>
      <trkpt lat="49.96424" lon="2.12592">
        <ele>12.4</ele>
        <time>2023-06-28T08:15:45Z</time>
      </trkpt>
      <trkpt lat="49.96424" lon="2.12591">
        <ele>12.4</ele>
        <time>2023-06-28T08:15:46Z</time>
      </trkpt>
      <trkpt lat="49.96424" lon="2.1259">
        <ele>12.3</ele>
        <time>2023-06-28T08:15:47Z</time>
      </trkpt>
      <trkpt lat="49.96424" lon="2.12588">
        <ele>12.3</ele>
        <time>2023-06-28T08:15:48Z</time>
      </trkpt>
      <trkpt lat="49.96423" lon="2.12587">
        <ele>12.3</ele>
        <time>2023-06-28T08:15:49Z</time>
      </trkpt>
      <trkpt lat="49.96423" lon="2.12585">
        <ele>12.3</ele>
        <time>2023-06-28T08:15:50Z</time>
      </trkpt>
      <trkpt lat="49.96423" lon="2.12583">
        <ele>12.3</ele>
        <time>2023-06-28T08:15:51Z</time>
      </trkpt>
      <trkpt lat="49.96423" lon="2.12581">
        <ele>12.3</ele>
        <time>2023-06-28T08:15:52Z</time>
      </trkpt>
      <trkpt lat="49.96422" lon="2.1258">
        <ele>12.3</ele>
        <time>2023-06-28T08:15:53Z</time>
      </trkpt>
      <trkpt lat="49.96422" lon="2.12578">
        <ele>12.2</ele>
        <time>2023-06-28T08:15:54Z</time>
      </trkpt>
      <trkpt lat="49.96422" lon="2.12577">
        <ele>12.2</ele>
        <time>2023-06-28T08:15:55Z</time>
      </trkpt>
      <trkpt lat="49.96422" lon="2.12575">
        <ele>12.2</ele>
        <time>2023-06-28T08:15:56Z</time>
      </trkpt>
      <trkpt lat="49.96422" lon="2.12574">
        <ele>12.2</ele>
        <time>2023-06-28T08:15:57Z</time>
      </trkpt>
      <trkpt lat="49.96422" lon="2.12573">
        <ele>12.2</ele>
        <time>2023-06-28T08:15:58Z</time>
      </trkpt>
      <trkpt lat="49.96421" lon="2.12571">
        <ele>12.2</ele>
        <time>2023-06-28T08:15:59Z</time>
      </trkpt>
      <trkpt lat="49.96421" lon="2.12568">
        <ele>12.2</ele>
        <time>2023-06-28T08:16:00Z</time>
      </trkpt>
      <trkpt lat="49.96421" lon="2.12567">
        <ele>12.2</ele>
        <time>2023-06-28T08:16:01Z</time>
      </trkpt>
      <trkpt lat="49.96421" lon="2.12565">
        <ele>12.2</ele>
        <time>2023-06-28T08:16:02Z</time>
      </trkpt>
      <trkpt lat="49.96421" lon="2.12563">
        <ele>12.2</ele>
        <time>2023-06-28T08:16:03Z</time>
      </trkpt>
      <trkpt lat="49.96421" lon="2.12561">
        <ele>12.2</ele>
        <time>2023-06-28T08:16:04Z</time>
      </trkpt>
      <trkpt lat="49.96421" lon="2.12559">
        <ele>12.2</ele>
        <time>2023-06-28T08:16:05Z</time>
      </trkpt>
      <trkpt lat="49.96421" lon="2.12557">
        <ele>12.2</ele>
        <time>2023-06-28T08:16:06Z</time>
      </trkpt>
      <trkpt lat="49.96421" lon="2.12554">
        <ele>12.2</ele>
        <time>2023-06-28T08:16:07Z</time>
      </trkpt>
      <trkpt lat="49.9642" lon="2.12552">
        <ele>12.2</ele>
        <time>2023-06-28T08:16:08Z</time>
      </trkpt>
      <trkpt lat="49.9642" lon="2.12549">
        <ele>12.3</ele>
        <time>2023-06-28T08:16:09Z</time>
      </trkpt>
      <trkpt lat="49.96419" lon="2.12548">
        <ele>12.3</ele>
        <time>2023-06-28T08:16:10Z</time>
      </trkpt>
      <trkpt lat="49.96419" lon="2.12546">
        <ele>12.3</ele>
        <time>2023-06-28T08:16:11Z</time>
      </trkpt>
      <trkpt lat="49.96419" lon="2.12543">
        <ele>12.3</ele>
        <time>2023-06-28T08:16:12Z</time>
      </trkpt>
      <trkpt lat="49.96419" lon="2.12542">
        <ele>12.3</ele>
        <time>2023-06-28T08:16:13Z</time>
      </trkpt>
      <trkpt lat="49.96419" lon="2.12541">
        <ele>12.3</ele>
        <time>2023-06-28T08:16:14Z</time>
      </trkpt>
      <trkpt lat="49.96419" lon="2.12539">
        <ele>12.3</ele>
        <time>2023-06-28T08:16:15Z</time>
      </trkpt>
      <trkpt lat="49.96419" lon="2.12536">
        <ele>12.3</ele>
        <time>2023-06-28T08:16:16Z</time>
      </trkpt>
      <trkpt lat="49.96419" lon="2.12535">
        <ele>12.3</ele>
        <time>2023-06-28T08:16:17Z</time>
      </trkpt>
      <trkpt lat="49.96419" lon="2.12533">
        <ele>12.3</ele>
        <time>2023-06-28T08:16:18Z</time>
      </trkpt>
      <trkpt lat="49.96419" lon="2.12531">
        <ele>12.3</ele>
        <time>2023-06-28T08:16:19Z</time>
      </trkpt>
      <trkpt lat="49.96418" lon="2.1253">
        <ele>12.3</ele>
        <time>2023-06-28T08:16:20Z</time>
      </trkpt>
      <trkpt lat="49.96418" lon="2.12529">
        <ele>12.3</ele>
        <time>2023-06-28T08:16:21Z</time>
      </trkpt>
      <trkpt lat="49.96418" lon="2.12528">
        <ele>12.3</ele>
        <time>2023-06-28T08:16:22Z</time>
      </trkpt>
      <trkpt lat="49.96418" lon="2.12526">
        <ele>12.3</ele>
        <time>2023-06-28T08:16:23Z</time>
      </trkpt>
      <trkpt lat="49.96418" lon="2.12525">
        <ele>12.3</ele>
        <time>2023-06-28T08:16:24Z</time>
      </trkpt>
      <trkpt lat="49.96418" lon="2.12524">
        <ele>12.3</ele>
        <time>2023-06-28T08:16:25Z</time>
      </trkpt>
      <trkpt lat="49.96418" lon="2.12522">
        <ele>12.3</ele>
        <time>2023-06-28T08:16:26Z</time>
      </trkpt>
      <trkpt lat="49.96419" lon="2.1252">
        <ele>12.3</ele>
        <time>2023-06-28T08:16:27Z</time>
      </trkpt>
      <trkpt lat="49.96419" lon="2.12518">
        <ele>12.3</ele>
        <time>2023-06-28T08:16:28Z</time>
      </trkpt>
      <trkpt lat="49.96419" lon="2.12517">
        <ele>12.3</ele>
        <time>2023-06-28T08:16:29Z</time>
      </trkpt>
      <trkpt lat="49.96419" lon="2.12515">
        <ele>12.3</ele>
        <time>2023-06-28T08:16:30Z</time>
      </trkpt>
      <trkpt lat="49.96419" lon="2.12513">
        <ele>12.4</ele>
        <time>2023-06-28T08:16:31Z</time>
      </trkpt>
      <trkpt lat="49.96419" lon="2.12512">
        <ele>12.4</ele>
        <time>2023-06-28T08:16:32Z</time>
      </trkpt>
      <trkpt lat="49.96419" lon="2.1251">
        <ele>12.4</ele>
        <time>2023-06-28T08:16:33Z</time>
      </trkpt>
      <trkpt lat="49.96419" lon="2.12508">
        <ele>12.4</ele>
        <time>2023-06-28T08:16:34Z</time>
      </trkpt>
      <trkpt lat="49.96419" lon="2.12507">
        <ele>12.4</ele>
        <time>2023-06-28T08:16:35Z</time>
      </trkpt>
      <trkpt lat="49.96419" lon="2.12505">
        <ele>12.4</ele>
        <time>2023-06-28T08:16:36Z</time>
      </trkpt>
      <trkpt lat="49.9642" lon="2.12503">
        <ele>12.4</ele>
        <time>2023-06-28T08:16:37Z</time>
      </trkpt>
      <trkpt lat="49.9642" lon="2.12501">
        <ele>12.4</ele>
        <time>2023-06-28T08:16:38Z</time>
      </trkpt>
      <trkpt lat="49.9642" lon="2.12499">
        <ele>12.4</ele>
        <time>2023-06-28T08:16:39Z</time>
      </trkpt>
      <trkpt lat="49.9642" lon="2.12497">
        <ele>12.4</ele>
        <time>2023-06-28T08:16:40Z</time>
      </trkpt>
      <trkpt lat="49.9642" lon="2.12494">
        <ele>12.4</ele>
        <time>2023-06-28T08:16:41Z</time>
      </trkpt>
      <trkpt lat="49.9642" lon="2.12492">
        <ele>12.4</ele>
        <time>2023-06-28T08:16:42Z</time>
      </trkpt>
      <trkpt lat="49.9642" lon="2.12491">
        <ele>12.4</ele>
        <time>2023-06-28T08:16:43Z</time>
      </trkpt>
      <trkpt lat="49.9642" lon="2.12489">
        <ele>12.4</ele>
        <time>2023-06-28T08:16:44Z</time>
      </trkpt>
      <trkpt lat="49.9642" lon="2.12487">
        <ele>12.4</ele>
        <time>2023-06-28T08:16:45Z</time>
      </trkpt>
      <trkpt lat="49.9642" lon="2.12486">
        <ele>12.4</ele>
        <time>2023-06-28T08:16:46Z</time>
      </trkpt>
      <trkpt lat="49.9642" lon="2.12485">
        <ele>12.4</ele>
        <time>2023-06-28T08:16:47Z</time>
      </trkpt>
      <trkpt lat="49.9642" lon="2.12483">
        <ele>12.4</ele>
        <time>2023-06-28T08:16:48Z</time>
      </trkpt>
      <trkpt lat="49.96421" lon="2.1248">
        <ele>12.5</ele>
        <time>2023-06-28T08:16:49Z</time>
      </trkpt>
      <trkpt lat="49.96421" lon="2.12478">
        <ele>12.5</ele>
        <time>2023-06-28T08:16:50Z</time>
      </trkpt>
      <trkpt lat="49.96421" lon="2.12477">
        <ele>12.5</ele>
        <time>2023-06-28T08:16:51Z</time>
      </trkpt>
      <trkpt lat="49.96421" lon="2.12475">
        <ele>12.5</ele>
        <time>2023-06-28T08:16:52Z</time>
      </trkpt>
      <trkpt lat="49.96421" lon="2.12473">
        <ele>12.5</ele>
        <time>2023-06-28T08:16:53Z</time>
      </trkpt>
      <trkpt lat="49.96422" lon="2.12469">
        <ele>12.5</ele>
        <time>2023-06-28T08:16:54Z</time>
      </trkpt>
      <trkpt lat="49.96422" lon="2.12468">
        <ele>12.5</ele>
        <time>2023-06-28T08:16:55Z</time>
      </trkpt>
      <trkpt lat="49.96422" lon="2.12467">
        <ele>12.5</ele>
        <time>2023-06-28T08:16:56Z</time>
      </trkpt>
      <trkpt lat="49.96422" lon="2.12466">
        <ele>12.5</ele>
        <time>2023-06-28T08:16:57Z</time>
      </trkpt>
      <trkpt lat="49.96423" lon="2.12464">
        <ele>12.5</ele>
        <time>2023-06-28T08:16:58Z</time>
      </trkpt>
      <trkpt lat="49.96423" lon="2.12462">
        <ele>12.5</ele>
        <time>2023-06-28T08:16:59Z</time>
      </trkpt>
      <trkpt lat="49.96423" lon="2.12459">
        <ele>12.6</ele>
        <time>2023-06-28T08:17:00Z</time>
      </trkpt>
      <trkpt lat="49.96423" lon="2.12458">
        <ele>12.6</ele>
        <time>2023-06-28T08:17:01Z</time>
      </trkpt>
      <trkpt lat="49.96424" lon="2.12457">
        <ele>12.6</ele>
        <time>2023-06-28T08:17:02Z</time>
      </trkpt>
      <trkpt lat="49.96424" lon="2.12455">
        <ele>12.6</ele>
        <time>2023-06-28T08:17:03Z</time>
      </trkpt>
      <trkpt lat="49.96424" lon="2.12454">
        <ele>12.6</ele>
        <time>2023-06-28T08:17:04Z</time>
      </trkpt>
      <trkpt lat="49.96424" lon="2.12452">
        <ele>12.6</ele>
        <time>2023-06-28T08:17:05Z</time>
      </trkpt>
      <trkpt lat="49.96424" lon="2.12451">
        <ele>12.6</ele>
        <time>2023-06-28T08:17:06Z</time>
      </trkpt>
      <trkpt lat="49.96424" lon="2.12449">
        <ele>12.6</ele>
        <time>2023-06-28T08:17:07Z</time>
      </trkpt>
      <trkpt lat="49.96424" lon="2.12448">
        <ele>12.6</ele>
        <time>2023-06-28T08:17:08Z</time>
      </trkpt>
      <trkpt lat="49.96424" lon="2.12445">
        <ele>12.5</ele>
        <time>2023-06-28T08:17:09Z</time>
      </trkpt>
      <trkpt lat="49.96424" lon="2.12444">
        <ele>12.5</ele>
        <time>2023-06-28T08:17:10Z</time>
      </trkpt>
      <trkpt lat="49.96424" lon="2.12443">
        <ele>12.5</ele>
        <time>2023-06-28T08:17:11Z</time>
      </trkpt>
      <trkpt lat="49.96424" lon="2.12442">
        <ele>12.5</ele>
        <time>2023-06-28T08:17:12Z</time>
      </trkpt>
      <trkpt lat="49.96424" lon="2.12439">
        <ele>12.5</ele>
        <time>2023-06-28T08:17:13Z</time>
      </trkpt>
      <trkpt lat="49.96424" lon="2.12438">
        <ele>12.5</ele>
        <time>2023-06-28T08:17:14Z</time>
      </trkpt>
      <trkpt lat="49.96424" lon="2.12436">
        <ele>12.5</ele>
        <time>2023-06-28T08:17:15Z</time>
      </trkpt>
      <trkpt lat="49.96424" lon="2.12435">
        <ele>12.5</ele>
        <time>2023-06-28T08:17:16Z</time>
      </trkpt>
      <trkpt lat="49.96424" lon="2.12433">
        <ele>12.5</ele>
        <time>2023-06-28T08:17:17Z</time>
      </trkpt>
      <trkpt lat="49.96424" lon="2.12431">
        <ele>12.5</ele>
        <time>2023-06-28T08:17:18Z</time>
      </trkpt>
      <trkpt lat="49.96424" lon="2.12428">
        <ele>12.5</ele>
        <time>2023-06-28T08:17:19Z</time>
      </trkpt>
      <trkpt lat="49.96424" lon="2.12427">
        <ele>12.5</ele>
        <time>2023-06-28T08:17:20Z</time>
      </trkpt>
      <trkpt lat="49.96424" lon="2.12425">
        <ele>12.4</ele>
        <time>2023-06-28T08:17:21Z</time>
      </trkpt>
      <trkpt lat="49.96423" lon="2.12422">
        <ele>12.4</ele>
        <time>2023-06-28T08:17:22Z</time>
      </trkpt>
      <trkpt lat="49.96423" lon="2.1242">
        <ele>12.4</ele>
        <time>2023-06-28T08:17:23Z</time>
      </trkpt>
      <trkpt lat="49.96423" lon="2.12419">
        <ele>12.4</ele>
        <time>2023-06-28T08:17:24Z</time>
      </trkpt>
      <trkpt lat="49.96423" lon="2.12417">
        <ele>12.4</ele>
        <time>2023-06-28T08:17:25Z</time>
      </trkpt>
      <trkpt lat="49.96422" lon="2.12415">
        <ele>12.4</ele>
        <time>2023-06-28T08:17:26Z</time>
      </trkpt>
      <trkpt lat="49.96422" lon="2.12413">
        <ele>12.4</ele>
        <time>2023-06-28T08:17:27Z</time>
      </trkpt>
      <trkpt lat="49.96421" lon="2.12411">
        <ele>12.4</ele>
        <time>2023-06-28T08:17:28Z</time>
      </trkpt>
      <trkpt lat="49.96421" lon="2.1241">
        <ele>12.3</ele>
        <time>2023-06-28T08:17:29Z</time>
      </trkpt>
      <trkpt lat="49.96421" lon="2.12408">
        <ele>12.3</ele>
        <time>2023-06-28T08:17:30Z</time>
      </trkpt>
      <trkpt lat="49.96421" lon="2.12407">
        <ele>12.3</ele>
        <time>2023-06-28T08:17:31Z</time>
      </trkpt>
      <trkpt lat="49.9642" lon="2.12405">
        <ele>12.3</ele>
        <time>2023-06-28T08:17:32Z</time>
      </trkpt>
      <trkpt lat="49.96419" lon="2.12403">
        <ele>12.3</ele>
        <time>2023-06-28T08:17:33Z</time>
      </trkpt>
      <trkpt lat="49.96419" lon="2.12401">
        <ele>12.3</ele>
        <time>2023-06-28T08:17:34Z</time>
      </trkpt>
      <trkpt lat="49.96419" lon="2.124">
        <ele>12.3</ele>
        <time>2023-06-28T08:17:35Z</time>
      </trkpt>
      <trkpt lat="49.96418" lon="2.12397">
        <ele>12.3</ele>
        <time>2023-06-28T08:17:36Z</time>
      </trkpt>
      <trkpt lat="49.96417" lon="2.12396">
        <ele>12.3</ele>
        <time>2023-06-28T08:17:37Z</time>
      </trkpt>
      <trkpt lat="49.96417" lon="2.12395">
        <ele>12.2</ele>
        <time>2023-06-28T08:17:38Z</time>
      </trkpt>
      <trkpt lat="49.96416" lon="2.12393">
        <ele>12.2</ele>
        <time>2023-06-28T08:17:39Z</time>
      </trkpt>
      <trkpt lat="49.96416" lon="2.12392">
        <ele>12.2</ele>
        <time>2023-06-28T08:17:40Z</time>
      </trkpt>
      <trkpt lat="49.96416" lon="2.1239">
        <ele>12.2</ele>
        <time>2023-06-28T08:17:41Z</time>
      </trkpt>
      <trkpt lat="49.96415" lon="2.12389">
        <ele>12.2</ele>
        <time>2023-06-28T08:17:42Z</time>
      </trkpt>
      <trkpt lat="49.96415" lon="2.12387">
        <ele>12.2</ele>
        <time>2023-06-28T08:17:43Z</time>
      </trkpt>
      <trkpt lat="49.96414" lon="2.12385">
        <ele>12.2</ele>
        <time>2023-06-28T08:17:44Z</time>
      </trkpt>
      <trkpt lat="49.96414" lon="2.12384">
        <ele>12.2</ele>
        <time>2023-06-28T08:17:45Z</time>
      </trkpt>
      <trkpt lat="49.96413" lon="2.12381">
        <ele>12.2</ele>
        <time>2023-06-28T08:17:46Z</time>
      </trkpt>
      <trkpt lat="49.96412" lon="2.12379">
        <ele>12.2</ele>
        <time>2023-06-28T08:17:47Z</time>
      </trkpt>
      <trkpt lat="49.96412" lon="2.12377">
        <ele>12.2</ele>
        <time>2023-06-28T08:17:48Z</time>
      </trkpt>
      <trkpt lat="49.96411" lon="2.12374">
        <ele>12.2</ele>
        <time>2023-06-28T08:17:49Z</time>
      </trkpt>
      <trkpt lat="49.96411" lon="2.12373">
        <ele>12.2</ele>
        <time>2023-06-28T08:17:50Z</time>
      </trkpt>
      <trkpt lat="49.96411" lon="2.12372">
        <ele>12.2</ele>
        <time>2023-06-28T08:17:51Z</time>
      </trkpt>
      <trkpt lat="49.9641" lon="2.1237">
        <ele>12.2</ele>
        <time>2023-06-28T08:17:52Z</time>
      </trkpt>
      <trkpt lat="49.9641" lon="2.12368">
        <ele>12.2</ele>
        <time>2023-06-28T08:17:53Z</time>
      </trkpt>
      <trkpt lat="49.96409" lon="2.12367">
        <ele>12.2</ele>
        <time>2023-06-28T08:17:54Z</time>
      </trkpt>
      <trkpt lat="49.96408" lon="2.12363">
        <ele>12.2</ele>
        <time>2023-06-28T08:17:55Z</time>
      </trkpt>
      <trkpt lat="49.96408" lon="2.12362">
        <ele>12.2</ele>
        <time>2023-06-28T08:17:56Z</time>
      </trkpt>
      <trkpt lat="49.96408" lon="2.12361">
        <ele>12.2</ele>
        <time>2023-06-28T08:17:57Z</time>
      </trkpt>
      <trkpt lat="49.96407" lon="2.12358">
        <ele>12.2</ele>
        <time>2023-06-28T08:17:58Z</time>
      </trkpt>
      <trkpt lat="49.96407" lon="2.12356">
        <ele>12.2</ele>
        <time>2023-06-28T08:17:59Z</time>
      </trkpt>
      <trkpt lat="49.96407" lon="2.12355">
        <ele>12.2</ele>
        <time>2023-06-28T08:18:00Z</time>
      </trkpt>
      <trkpt lat="49.96406" lon="2.12353">
        <ele>12.2</ele>
        <time>2023-06-28T08:18:01Z</time>
      </trkpt>
      <trkpt lat="49.96406" lon="2.12352">
        <ele>12.2</ele>
        <time>2023-06-28T08:18:02Z</time>
      </trkpt>
      <trkpt lat="49.96406" lon="2.1235">
        <ele>12.2</ele>
        <time>2023-06-28T08:18:03Z</time>
      </trkpt>
      <trkpt lat="49.96406" lon="2.12349">
        <ele>12.2</ele>
        <time>2023-06-28T08:18:04Z</time>
      </trkpt>
      <trkpt lat="49.96406" lon="2.12347">
        <ele>12.2</ele>
        <time>2023-06-28T08:18:05Z</time>
      </trkpt>
      <trkpt lat="49.96405" lon="2.12346">
        <ele>12.2</ele>
        <time>2023-06-28T08:18:06Z</time>
      </trkpt>
      <trkpt lat="49.96405" lon="2.12344">
        <ele>12.2</ele>
        <time>2023-06-28T08:18:07Z</time>
      </trkpt>
      <trkpt lat="49.96405" lon="2.12342">
        <ele>12.2</ele>
        <time>2023-06-28T08:18:08Z</time>
      </trkpt>
      <trkpt lat="49.96404" lon="2.1234">
        <ele>12.2</ele>
        <time>2023-06-28T08:18:09Z</time>
      </trkpt>
      <trkpt lat="49.96404" lon="2.12339">
        <ele>12.2</ele>
        <time>2023-06-28T08:18:10Z</time>
      </trkpt>
      <trkpt lat="49.96403" lon="2.12338">
        <ele>12.2</ele>
        <time>2023-06-28T08:18:11Z</time>
      </trkpt>
      <trkpt lat="49.96403" lon="2.12336">
        <ele>12.2</ele>
        <time>2023-06-28T08:18:12Z</time>
      </trkpt>
      <trkpt lat="49.96402" lon="2.12335">
        <ele>12.2</ele>
        <time>2023-06-28T08:18:13Z</time>
      </trkpt>
      <trkpt lat="49.96402" lon="2.12333">
        <ele>12.2</ele>
        <time>2023-06-28T08:18:14Z</time>
      </trkpt>
      <trkpt lat="49.96401" lon="2.12332">
        <ele>12.2</ele>
        <time>2023-06-28T08:18:15Z</time>
      </trkpt>
      <trkpt lat="49.96401" lon="2.1233">
        <ele>12.2</ele>
        <time>2023-06-28T08:18:16Z</time>
      </trkpt>
      <trkpt lat="49.964" lon="2.12329">
        <ele>12.2</ele>
        <time>2023-06-28T08:18:17Z</time>
      </trkpt>
      <trkpt lat="49.96399" lon="2.12326">
        <ele>12.3</ele>
        <time>2023-06-28T08:18:18Z</time>
      </trkpt>
      <trkpt lat="49.96399" lon="2.12325">
        <ele>12.3</ele>
        <time>2023-06-28T08:18:19Z</time>
      </trkpt>
      <trkpt lat="49.96398" lon="2.12324">
        <ele>12.3</ele>
        <time>2023-06-28T08:18:20Z</time>
      </trkpt>
      <trkpt lat="49.96398" lon="2.12322">
        <ele>12.3</ele>
        <time>2023-06-28T08:18:21Z</time>
      </trkpt>
      <trkpt lat="49.96397" lon="2.12321">
        <ele>12.3</ele>
        <time>2023-06-28T08:18:22Z</time>
      </trkpt>
      <trkpt lat="49.96397" lon="2.1232">
        <ele>12.3</ele>
        <time>2023-06-28T08:18:23Z</time>
      </trkpt>
      <trkpt lat="49.96397" lon="2.12319">
        <ele>12.3</ele>
        <time>2023-06-28T08:18:24Z</time>
      </trkpt>
      <trkpt lat="49.96396" lon="2.12317">
        <ele>12.3</ele>
        <time>2023-06-28T08:18:25Z</time>
      </trkpt>
      <trkpt lat="49.96395" lon="2.12315">
        <ele>12.3</ele>
        <time>2023-06-28T08:18:26Z</time>
      </trkpt>
      <trkpt lat="49.96395" lon="2.12314">
        <ele>12.3</ele>
        <time>2023-06-28T08:18:27Z</time>
      </trkpt>
      <trkpt lat="49.96394" lon="2.12312">
        <ele>12.3</ele>
        <time>2023-06-28T08:18:28Z</time>
      </trkpt>
      <trkpt lat="49.96393" lon="2.12309">
        <ele>12.3</ele>
        <time>2023-06-28T08:18:29Z</time>
      </trkpt>
      <trkpt lat="49.96393" lon="2.12308">
        <ele>12.3</ele>
        <time>2023-06-28T08:18:30Z</time>
      </trkpt>
      <trkpt lat="49.96392" lon="2.12307">
        <ele>12.3</ele>
        <time>2023-06-28T08:18:31Z</time>
      </trkpt>
      <trkpt lat="49.96392" lon="2.12306">
        <ele>12.3</ele>
        <time>2023-06-28T08:18:32Z</time>
      </trkpt>
      <trkpt lat="49.96391" lon="2.12305">
        <ele>12.3</ele>
        <time>2023-06-28T08:18:33Z</time>
      </trkpt>
      <trkpt lat="49.9639" lon="2.12303">
        <ele>12.3</ele>
        <time>2023-06-28T08:18:34Z</time>
      </trkpt>
      <trkpt lat="49.9639" lon="2.12302">
        <ele>12.3</ele>
        <time>2023-06-28T08:18:35Z</time>
      </trkpt>
      <trkpt lat="49.96389" lon="2.12301">
        <ele>12.3</ele>
        <time>2023-06-28T08:18:36Z</time>
      </trkpt>
      <trkpt lat="49.96389" lon="2.12299">
        <ele>12.3</ele>
        <time>2023-06-28T08:18:37Z</time>
      </trkpt>
      <trkpt lat="49.96388" lon="2.12296">
        <ele>12.3</ele>
        <time>2023-06-28T08:18:38Z</time>
      </trkpt>
      <trkpt lat="49.96387" lon="2.12295">
        <ele>12.3</ele>
        <time>2023-06-28T08:18:39Z</time>
      </trkpt>
      <trkpt lat="49.96387" lon="2.12294">
        <ele>12.3</ele>
        <time>2023-06-28T08:18:40Z</time>
      </trkpt>
      <trkpt lat="49.96386" lon="2.12293">
        <ele>12.3</ele>
        <time>2023-06-28T08:18:41Z</time>
      </trkpt>
      <trkpt lat="49.96386" lon="2.12292">
        <ele>12.3</ele>
        <time>2023-06-28T08:18:42Z</time>
      </trkpt>
      <trkpt lat="49.96385" lon="2.12291">
        <ele>12.3</ele>
        <time>2023-06-28T08:18:43Z</time>
      </trkpt>
      <trkpt lat="49.96384" lon="2.12289">
        <ele>12.3</ele>
        <time>2023-06-28T08:18:44Z</time>
      </trkpt>
      <trkpt lat="49.96384" lon="2.12288">
        <ele>12.3</ele>
        <time>2023-06-28T08:18:45Z</time>
      </trkpt>
      <trkpt lat="49.96383" lon="2.12287">
        <ele>12.3</ele>
        <time>2023-06-28T08:18:46Z</time>
      </trkpt>
      <trkpt lat="49.96382" lon="2.12284">
        <ele>12.3</ele>
        <time>2023-06-28T08:18:47Z</time>
      </trkpt>
      <trkpt lat="49.96381" lon="2.12283">
        <ele>12.3</ele>
        <time>2023-06-28T08:18:48Z</time>
      </trkpt>
      <trkpt lat="49.96381" lon="2.12282">
        <ele>12.3</ele>
        <time>2023-06-28T08:18:49Z</time>
      </trkpt>
      <trkpt lat="49.96379" lon="2.1228">
        <ele>12.3</ele>
        <time>2023-06-28T08:18:50Z</time>
      </trkpt>
      <trkpt lat="49.96379" lon="2.12279">
        <ele>12.3</ele>
        <time>2023-06-28T08:18:51Z</time>
      </trkpt>
      <trkpt lat="49.96379" lon="2.12278">
        <ele>12.3</ele>
        <time>2023-06-28T08:18:52Z</time>
      </trkpt>
      <trkpt lat="49.96378" lon="2.12276">
        <ele>12.3</ele>
        <time>2023-06-28T08:18:53Z</time>
      </trkpt>
      <trkpt lat="49.96378" lon="2.12275">
        <ele>12.3</ele>
        <time>2023-06-28T08:18:54Z</time>
      </trkpt>
      <trkpt lat="49.96377" lon="2.12274">
        <ele>12.3</ele>
        <time>2023-06-28T08:18:55Z</time>
      </trkpt>
      <trkpt lat="49.96377" lon="2.12272">
        <ele>12.3</ele>
        <time>2023-06-28T08:18:56Z</time>
      </trkpt>
      <trkpt lat="49.96376" lon="2.12271">
        <ele>12.3</ele>
        <time>2023-06-28T08:18:57Z</time>
      </trkpt>
      <trkpt lat="49.96375" lon="2.12269">
        <ele>12.3</ele>
        <time>2023-06-28T08:18:58Z</time>
      </trkpt>
      <trkpt lat="49.96374" lon="2.12268">
        <ele>12.3</ele>
        <time>2023-06-28T08:18:59Z</time>
      </trkpt>
      <trkpt lat="49.96373" lon="2.12266">
        <ele>12.3</ele>
        <time>2023-06-28T08:19:00Z</time>
      </trkpt>
      <trkpt lat="49.96372" lon="2.12263">
        <ele>12.3</ele>
        <time>2023-06-28T08:19:01Z</time>
      </trkpt>
      <trkpt lat="49.96372" lon="2.12262">
        <ele>12.3</ele>
        <time>2023-06-28T08:19:02Z</time>
      </trkpt>
      <trkpt lat="49.96371" lon="2.12261">
        <ele>12.3</ele>
        <time>2023-06-28T08:19:03Z</time>
      </trkpt>
      <trkpt lat="49.96371" lon="2.1226">
        <ele>12.3</ele>
        <time>2023-06-28T08:19:04Z</time>
      </trkpt>
      <trkpt lat="49.9637" lon="2.12259">
        <ele>12.3</ele>
        <time>2023-06-28T08:19:05Z</time>
      </trkpt>
      <trkpt lat="49.96369" lon="2.12257">
        <ele>12.3</ele>
        <time>2023-06-28T08:19:06Z</time>
      </trkpt>
      <trkpt lat="49.96369" lon="2.12256">
        <ele>12.3</ele>
        <time>2023-06-28T08:19:07Z</time>
      </trkpt>
      <trkpt lat="49.96369" lon="2.12255">
        <ele>12.3</ele>
        <time>2023-06-28T08:19:08Z</time>
      </trkpt>
      <trkpt lat="49.96368" lon="2.12253">
        <ele>12.3</ele>
        <time>2023-06-28T08:19:09Z</time>
      </trkpt>
      <trkpt lat="49.96367" lon="2.12252">
        <ele>12.3</ele>
        <time>2023-06-28T08:19:10Z</time>
      </trkpt>
      <trkpt lat="49.96367" lon="2.1225">
        <ele>12.3</ele>
        <time>2023-06-28T08:19:11Z</time>
      </trkpt>
      <trkpt lat="49.96367" lon="2.12249">
        <ele>12.3</ele>
        <time>2023-06-28T08:19:12Z</time>
      </trkpt>
      <trkpt lat="49.96366" lon="2.12247">
        <ele>12.3</ele>
        <time>2023-06-28T08:19:13Z</time>
      </trkpt>
      <trkpt lat="49.96366" lon="2.12246">
        <ele>12.3</ele>
        <time>2023-06-28T08:19:14Z</time>
      </trkpt>
      <trkpt lat="49.96366" lon="2.12244">
        <ele>12.3</ele>
        <time>2023-06-28T08:19:15Z</time>
      </trkpt>
      <trkpt lat="49.96365" lon="2.12243">
        <ele>12.3</ele>
        <time>2023-06-28T08:19:16Z</time>
      </trkpt>
      <trkpt lat="49.96365" lon="2.12241">
        <ele>12.3</ele>
        <time>2023-06-28T08:19:17Z</time>
      </trkpt>
      <trkpt lat="49.96365" lon="2.1224">
        <ele>12.3</ele>
        <time>2023-06-28T08:19:18Z</time>
      </trkpt>
      <trkpt lat="49.96364" lon="2.12236">
        <ele>12.3</ele>
        <time>2023-06-28T08:19:19Z</time>
      </trkpt>
      <trkpt lat="49.96364" lon="2.12235">
        <ele>12.3</ele>
        <time>2023-06-28T08:19:20Z</time>
      </trkpt>
      <trkpt lat="49.96364" lon="2.12234">
        <ele>12.3</ele>
        <time>2023-06-28T08:19:21Z</time>
      </trkpt>
      <trkpt lat="49.96363" lon="2.12232">
        <ele>12.3</ele>
        <time>2023-06-28T08:19:22Z</time>
      </trkpt>
      <trkpt lat="49.96363" lon="2.1223">
        <ele>12.3</ele>
        <time>2023-06-28T08:19:23Z</time>
      </trkpt>
      <trkpt lat="49.96363" lon="2.12228">
        <ele>12.3</ele>
        <time>2023-06-28T08:19:24Z</time>
      </trkpt>
      <trkpt lat="49.96362" lon="2.12227">
        <ele>12.3</ele>
        <time>2023-06-28T08:19:25Z</time>
      </trkpt>
      <trkpt lat="49.96362" lon="2.12225">
        <ele>12.3</ele>
        <time>2023-06-28T08:19:26Z</time>
      </trkpt>
      <trkpt lat="49.96361" lon="2.12224">
        <ele>12.3</ele>
        <time>2023-06-28T08:19:27Z</time>
      </trkpt>
      <trkpt lat="49.9636" lon="2.12222">
        <ele>12.4</ele>
        <time>2023-06-28T08:19:28Z</time>
      </trkpt>
      <trkpt lat="49.9636" lon="2.1222">
        <ele>12.4</ele>
        <time>2023-06-28T08:19:29Z</time>
      </trkpt>
      <trkpt lat="49.96359" lon="2.12219">
        <ele>12.4</ele>
        <time>2023-06-28T08:19:30Z</time>
      </trkpt>
      <trkpt lat="49.96359" lon="2.12218">
        <ele>12.4</ele>
        <time>2023-06-28T08:19:31Z</time>
      </trkpt>
      <trkpt lat="49.96359" lon="2.12216">
        <ele>12.4</ele>
        <time>2023-06-28T08:19:32Z</time>
      </trkpt>
      <trkpt lat="49.96358" lon="2.12214">
        <ele>12.4</ele>
        <time>2023-06-28T08:19:33Z</time>
      </trkpt>
      <trkpt lat="49.96358" lon="2.12212">
        <ele>12.4</ele>
        <time>2023-06-28T08:19:34Z</time>
      </trkpt>
      <trkpt lat="49.96358" lon="2.12211">
        <ele>12.4</ele>
        <time>2023-06-28T08:19:35Z</time>
      </trkpt>
      <trkpt lat="49.96358" lon="2.1221">
        <ele>12.4</ele>
        <time>2023-06-28T08:19:36Z</time>
      </trkpt>
      <trkpt lat="49.96357" lon="2.12208">
        <ele>12.4</ele>
        <time>2023-06-28T08:19:37Z</time>
      </trkpt>
      <trkpt lat="49.96356" lon="2.12207">
        <ele>12.4</ele>
        <time>2023-06-28T08:19:38Z</time>
      </trkpt>
      <trkpt lat="49.96356" lon="2.12206">
        <ele>12.4</ele>
        <time>2023-06-28T08:19:39Z</time>
      </trkpt>
      <trkpt lat="49.96356" lon="2.12205">
        <ele>12.4</ele>
        <time>2023-06-28T08:19:40Z</time>
      </trkpt>
      <trkpt lat="49.96354" lon="2.12202">
        <ele>12.4</ele>
        <time>2023-06-28T08:19:41Z</time>
      </trkpt>
      <trkpt lat="49.96354" lon="2.12201">
        <ele>12.4</ele>
        <time>2023-06-28T08:19:42Z</time>
      </trkpt>
      <trkpt lat="49.96353" lon="2.122">
        <ele>12.4</ele>
        <time>2023-06-28T08:19:43Z</time>
      </trkpt>
      <trkpt lat="49.96352" lon="2.12199">
        <ele>12.4</ele>
        <time>2023-06-28T08:19:44Z</time>
      </trkpt>
      <trkpt lat="49.96352" lon="2.12197">
        <ele>12.4</ele>
        <time>2023-06-28T08:19:45Z</time>
      </trkpt>
      <trkpt lat="49.96352" lon="2.12196">
        <ele>12.4</ele>
        <time>2023-06-28T08:19:46Z</time>
      </trkpt>
      <trkpt lat="49.96351" lon="2.12195">
        <ele>12.4</ele>
        <time>2023-06-28T08:19:47Z</time>
      </trkpt>
      <trkpt lat="49.96351" lon="2.12193">
        <ele>12.4</ele>
        <time>2023-06-28T08:19:48Z</time>
      </trkpt>
      <trkpt lat="49.96351" lon="2.12192">
        <ele>12.4</ele>
        <time>2023-06-28T08:19:49Z</time>
      </trkpt>
      <trkpt lat="49.9635" lon="2.12189">
        <ele>12.4</ele>
        <time>2023-06-28T08:19:50Z</time>
      </trkpt>
      <trkpt lat="49.96349" lon="2.12188">
        <ele>12.4</ele>
        <time>2023-06-28T08:19:51Z</time>
      </trkpt>
      <trkpt lat="49.96349" lon="2.12186">
        <ele>12.4</ele>
        <time>2023-06-28T08:19:52Z</time>
      </trkpt>
      <trkpt lat="49.96349" lon="2.12185">
        <ele>12.4</ele>
        <time>2023-06-28T08:19:53Z</time>
      </trkpt>
      <trkpt lat="49.96348" lon="2.12183">
        <ele>12.4</ele>
        <time>2023-06-28T08:19:54Z</time>
      </trkpt>
      <trkpt lat="49.96348" lon="2.12182">
        <ele>12.4</ele>
        <time>2023-06-28T08:19:55Z</time>
      </trkpt>
      <trkpt lat="49.96347" lon="2.12181">
        <ele>12.4</ele>
        <time>2023-06-28T08:19:56Z</time>
      </trkpt>
      <trkpt lat="49.96347" lon="2.1218">
        <ele>12.4</ele>
        <time>2023-06-28T08:19:57Z</time>
      </trkpt>
      <trkpt lat="49.96346" lon="2.12178">
        <ele>12.3</ele>
        <time>2023-06-28T08:19:58Z</time>
      </trkpt>
      <trkpt lat="49.96345" lon="2.12175">
        <ele>12.3</ele>
        <time>2023-06-28T08:19:59Z</time>
      </trkpt>
      <trkpt lat="49.96345" lon="2.12174">
        <ele>12.3</ele>
        <time>2023-06-28T08:20:00Z</time>
      </trkpt>
      <trkpt lat="49.96344" lon="2.12173">
        <ele>12.3</ele>
        <time>2023-06-28T08:20:01Z</time>
      </trkpt>
      <trkpt lat="49.96344" lon="2.12171">
        <ele>12.3</ele>
        <time>2023-06-28T08:20:02Z</time>
      </trkpt>
      <trkpt lat="49.96343" lon="2.12169">
        <ele>12.3</ele>
        <time>2023-06-28T08:20:03Z</time>
      </trkpt>
      <trkpt lat="49.96342" lon="2.12167">
        <ele>12.3</ele>
        <time>2023-06-28T08:20:04Z</time>
      </trkpt>
      <trkpt lat="49.96341" lon="2.12166">
        <ele>12.3</ele>
        <time>2023-06-28T08:20:05Z</time>
      </trkpt>
      <trkpt lat="49.96341" lon="2.12165">
        <ele>12.3</ele>
        <time>2023-06-28T08:20:06Z</time>
      </trkpt>
      <trkpt lat="49.9634" lon="2.12164">
        <ele>12.2</ele>
        <time>2023-06-28T08:20:07Z</time>
      </trkpt>
      <trkpt lat="49.96339" lon="2.12163">
        <ele>12.2</ele>
        <time>2023-06-28T08:20:08Z</time>
      </trkpt>
      <trkpt lat="49.96339" lon="2.12162">
        <ele>12.2</ele>
        <time>2023-06-28T08:20:09Z</time>
      </trkpt>
      <trkpt lat="49.96338" lon="2.1216">
        <ele>12.2</ele>
        <time>2023-06-28T08:20:10Z</time>
      </trkpt>
      <trkpt lat="49.96337" lon="2.12159">
        <ele>12.2</ele>
        <time>2023-06-28T08:20:11Z</time>
      </trkpt>
      <trkpt lat="49.96337" lon="2.12158">
        <ele>12.2</ele>
        <time>2023-06-28T08:20:12Z</time>
      </trkpt>
      <trkpt lat="49.96335" lon="2.12156">
        <ele>12.2</ele>
        <time>2023-06-28T08:20:13Z</time>
      </trkpt>
      <trkpt lat="49.96334" lon="2.12155">
        <ele>12.2</ele>
        <time>2023-06-28T08:20:14Z</time>
      </trkpt>
      <trkpt lat="49.96334" lon="2.12154">
        <ele>12.2</ele>
        <time>2023-06-28T08:20:15Z</time>
      </trkpt>
      <trkpt lat="49.96333" lon="2.12153">
        <ele>12.2</ele>
        <time>2023-06-28T08:20:16Z</time>
      </trkpt>
      <trkpt lat="49.96332" lon="2.12152">
        <ele>12.1</ele>
        <time>2023-06-28T08:20:17Z</time>
      </trkpt>
      <trkpt lat="49.96331" lon="2.12152">
        <ele>12.1</ele>
        <time>2023-06-28T08:20:18Z</time>
      </trkpt>
      <trkpt lat="49.9633" lon="2.12151">
        <ele>12.1</ele>
        <time>2023-06-28T08:20:19Z</time>
      </trkpt>
      <trkpt lat="49.96329" lon="2.1215">
        <ele>12.1</ele>
        <time>2023-06-28T08:20:20Z</time>
      </trkpt>
      <trkpt lat="49.96328" lon="2.12149">
        <ele>12.1</ele>
        <time>2023-06-28T08:20:21Z</time>
      </trkpt>
      <trkpt lat="49.96327" lon="2.12148">
        <ele>12.1</ele>
        <time>2023-06-28T08:20:22Z</time>
      </trkpt>
      <trkpt lat="49.96327" lon="2.12147">
        <ele>12.1</ele>
        <time>2023-06-28T08:20:23Z</time>
      </trkpt>
      <trkpt lat="49.96326" lon="2.12146">
        <ele>12.1</ele>
        <time>2023-06-28T08:20:24Z</time>
      </trkpt>
      <trkpt lat="49.96324" lon="2.12145">
        <ele>12.1</ele>
        <time>2023-06-28T08:20:25Z</time>
      </trkpt>
      <trkpt lat="49.96323" lon="2.12144">
        <ele>12.1</ele>
        <time>2023-06-28T08:20:26Z</time>
      </trkpt>
      <trkpt lat="49.96322" lon="2.12142">
        <ele>12.1</ele>
        <time>2023-06-28T08:20:27Z</time>
      </trkpt>
      <trkpt lat="49.96321" lon="2.12141">
        <ele>12.1</ele>
        <time>2023-06-28T08:20:28Z</time>
      </trkpt>
      <trkpt lat="49.9632" lon="2.1214">
        <ele>12</ele>
        <time>2023-06-28T08:20:29Z</time>
      </trkpt>
      <trkpt lat="49.96319" lon="2.12139">
        <ele>12</ele>
        <time>2023-06-28T08:20:30Z</time>
      </trkpt>
      <trkpt lat="49.96318" lon="2.12138">
        <ele>12</ele>
        <time>2023-06-28T08:20:31Z</time>
      </trkpt>
      <trkpt lat="49.96316" lon="2.12136">
        <ele>12</ele>
        <time>2023-06-28T08:20:32Z</time>
      </trkpt>
      <trkpt lat="49.96316" lon="2.12136">
        <ele>12</ele>
        <time>2023-06-28T08:20:33Z</time>
      </trkpt>
      <trkpt lat="49.96315" lon="2.12135">
        <ele>12</ele>
        <time>2023-06-28T08:20:34Z</time>
      </trkpt>
      <trkpt lat="49.96313" lon="2.12133">
        <ele>12</ele>
        <time>2023-06-28T08:20:35Z</time>
      </trkpt>
      <trkpt lat="49.96313" lon="2.12132">
        <ele>12</ele>
        <time>2023-06-28T08:20:36Z</time>
      </trkpt>
      <trkpt lat="49.96312" lon="2.12131">
        <ele>12</ele>
        <time>2023-06-28T08:20:37Z</time>
      </trkpt>
      <trkpt lat="49.96311" lon="2.1213">
        <ele>12</ele>
        <time>2023-06-28T08:20:38Z</time>
      </trkpt>
      <trkpt lat="49.9631" lon="2.12128">
        <ele>12</ele>
        <time>2023-06-28T08:20:39Z</time>
      </trkpt>
      <trkpt lat="49.96309" lon="2.12127">
        <ele>12</ele>
        <time>2023-06-28T08:20:40Z</time>
      </trkpt>
      <trkpt lat="49.96308" lon="2.12126">
        <ele>12</ele>
        <time>2023-06-28T08:20:41Z</time>
      </trkpt>
      <trkpt lat="49.96307" lon="2.12125">
        <ele>12</ele>
        <time>2023-06-28T08:20:42Z</time>
      </trkpt>
      <trkpt lat="49.96307" lon="2.12124">
        <ele>11.9</ele>
        <time>2023-06-28T08:20:43Z</time>
      </trkpt>
      <trkpt lat="49.96306" lon="2.12123">
        <ele>11.9</ele>
        <time>2023-06-28T08:20:44Z</time>
      </trkpt>
      <trkpt lat="49.96305" lon="2.12121">
        <ele>11.9</ele>
        <time>2023-06-28T08:20:45Z</time>
      </trkpt>
      <trkpt lat="49.96304" lon="2.12119">
        <ele>11.9</ele>
        <time>2023-06-28T08:20:46Z</time>
      </trkpt>
      <trkpt lat="49.96303" lon="2.12118">
        <ele>11.9</ele>
        <time>2023-06-28T08:20:47Z</time>
      </trkpt>
      <trkpt lat="49.96303" lon="2.12117">
        <ele>11.9</ele>
        <time>2023-06-28T08:20:48Z</time>
      </trkpt>
      <trkpt lat="49.96301" lon="2.12115">
        <ele>11.9</ele>
        <time>2023-06-28T08:20:49Z</time>
      </trkpt>
      <trkpt lat="49.96301" lon="2.12113">
        <ele>11.9</ele>
        <time>2023-06-28T08:20:50Z</time>
      </trkpt>
      <trkpt lat="49.963" lon="2.12112">
        <ele>11.9</ele>
        <time>2023-06-28T08:20:51Z</time>
      </trkpt>
      <trkpt lat="49.96299" lon="2.12111">
        <ele>11.9</ele>
        <time>2023-06-28T08:20:52Z</time>
      </trkpt>
      <trkpt lat="49.96299" lon="2.1211">
        <ele>11.9</ele>
        <time>2023-06-28T08:20:53Z</time>
      </trkpt>
      <trkpt lat="49.96298" lon="2.12109">
        <ele>11.9</ele>
        <time>2023-06-28T08:20:54Z</time>
      </trkpt>
      <trkpt lat="49.96297" lon="2.12108">
        <ele>11.9</ele>
        <time>2023-06-28T08:20:55Z</time>
      </trkpt>
      <trkpt lat="49.96296" lon="2.12106">
        <ele>11.9</ele>
        <time>2023-06-28T08:20:56Z</time>
      </trkpt>
      <trkpt lat="49.96295" lon="2.12105">
        <ele>11.9</ele>
        <time>2023-06-28T08:20:57Z</time>
      </trkpt>
      <trkpt lat="49.96294" lon="2.12103">
        <ele>11.9</ele>
        <time>2023-06-28T08:20:58Z</time>
      </trkpt>
      <trkpt lat="49.96293" lon="2.12102">
        <ele>11.9</ele>
        <time>2023-06-28T08:20:59Z</time>
      </trkpt>
      <trkpt lat="49.96293" lon="2.12101">
        <ele>11.9</ele>
        <time>2023-06-28T08:21:00Z</time>
      </trkpt>
      <trkpt lat="49.96292" lon="2.121">
        <ele>11.9</ele>
        <time>2023-06-28T08:21:01Z</time>
      </trkpt>
      <trkpt lat="49.96291" lon="2.12099">
        <ele>11.9</ele>
        <time>2023-06-28T08:21:02Z</time>
      </trkpt>
      <trkpt lat="49.9629" lon="2.12098">
        <ele>11.9</ele>
        <time>2023-06-28T08:21:03Z</time>
      </trkpt>
      <trkpt lat="49.9629" lon="2.12097">
        <ele>11.9</ele>
        <time>2023-06-28T08:21:04Z</time>
      </trkpt>
      <trkpt lat="49.96289" lon="2.12097">
        <ele>11.9</ele>
        <time>2023-06-28T08:21:05Z</time>
      </trkpt>
      <trkpt lat="49.96288" lon="2.12096">
        <ele>11.9</ele>
        <time>2023-06-28T08:21:06Z</time>
      </trkpt>
      <trkpt lat="49.96288" lon="2.12095">
        <ele>11.9</ele>
        <time>2023-06-28T08:21:07Z</time>
      </trkpt>
      <trkpt lat="49.96287" lon="2.12093">
        <ele>11.9</ele>
        <time>2023-06-28T08:21:08Z</time>
      </trkpt>
      <trkpt lat="49.96286" lon="2.12092">
        <ele>11.9</ele>
        <time>2023-06-28T08:21:09Z</time>
      </trkpt>
      <trkpt lat="49.96285" lon="2.12091">
        <ele>11.9</ele>
        <time>2023-06-28T08:21:10Z</time>
      </trkpt>
      <trkpt lat="49.96284" lon="2.12089">
        <ele>11.9</ele>
        <time>2023-06-28T08:21:11Z</time>
      </trkpt>
      <trkpt lat="49.96284" lon="2.12089">
        <ele>11.9</ele>
        <time>2023-06-28T08:21:12Z</time>
      </trkpt>
      <trkpt lat="49.96283" lon="2.12087">
        <ele>11.9</ele>
        <time>2023-06-28T08:21:13Z</time>
      </trkpt>
      <trkpt lat="49.96282" lon="2.12086">
        <ele>11.9</ele>
        <time>2023-06-28T08:21:14Z</time>
      </trkpt>
      <trkpt lat="49.96281" lon="2.12085">
        <ele>11.9</ele>
        <time>2023-06-28T08:21:15Z</time>
      </trkpt>
      <trkpt lat="49.9628" lon="2.12085">
        <ele>11.9</ele>
        <time>2023-06-28T08:21:16Z</time>
      </trkpt>
      <trkpt lat="49.96279" lon="2.12083">
        <ele>11.9</ele>
        <time>2023-06-28T08:21:17Z</time>
      </trkpt>
      <trkpt lat="49.96279" lon="2.12082">
        <ele>11.9</ele>
        <time>2023-06-28T08:21:18Z</time>
      </trkpt>
      <trkpt lat="49.96277" lon="2.1208">
        <ele>11.9</ele>
        <time>2023-06-28T08:21:19Z</time>
      </trkpt>
      <trkpt lat="49.96276" lon="2.12079">
        <ele>11.9</ele>
        <time>2023-06-28T08:21:20Z</time>
      </trkpt>
      <trkpt lat="49.96276" lon="2.12078">
        <ele>11.9</ele>
        <time>2023-06-28T08:21:21Z</time>
      </trkpt>
      <trkpt lat="49.96274" lon="2.12075">
        <ele>11.9</ele>
        <time>2023-06-28T08:21:22Z</time>
      </trkpt>
      <trkpt lat="49.96274" lon="2.12075">
        <ele>11.9</ele>
        <time>2023-06-28T08:21:23Z</time>
      </trkpt>
      <trkpt lat="49.96273" lon="2.12074">
        <ele>12</ele>
        <time>2023-06-28T08:21:24Z</time>
      </trkpt>
      <trkpt lat="49.96273" lon="2.12073">
        <ele>12</ele>
        <time>2023-06-28T08:21:25Z</time>
      </trkpt>
      <trkpt lat="49.96272" lon="2.12072">
        <ele>12</ele>
        <time>2023-06-28T08:21:26Z</time>
      </trkpt>
      <trkpt lat="49.96271" lon="2.12071">
        <ele>12</ele>
        <time>2023-06-28T08:21:27Z</time>
      </trkpt>
      <trkpt lat="49.9627" lon="2.1207">
        <ele>12</ele>
        <time>2023-06-28T08:21:28Z</time>
      </trkpt>
      <trkpt lat="49.96269" lon="2.12069">
        <ele>12</ele>
        <time>2023-06-28T08:21:29Z</time>
      </trkpt>
      <trkpt lat="49.96268" lon="2.12068">
        <ele>12</ele>
        <time>2023-06-28T08:21:30Z</time>
      </trkpt>
      <trkpt lat="49.96267" lon="2.12066">
        <ele>12</ele>
        <time>2023-06-28T08:21:31Z</time>
      </trkpt>
      <trkpt lat="49.96266" lon="2.12065">
        <ele>12</ele>
        <time>2023-06-28T08:21:32Z</time>
      </trkpt>
      <trkpt lat="49.96265" lon="2.12064">
        <ele>12</ele>
        <time>2023-06-28T08:21:33Z</time>
      </trkpt>
      <trkpt lat="49.96264" lon="2.12062">
        <ele>12</ele>
        <time>2023-06-28T08:21:34Z</time>
      </trkpt>
      <trkpt lat="49.96264" lon="2.12061">
        <ele>12</ele>
        <time>2023-06-28T08:21:35Z</time>
      </trkpt>
      <trkpt lat="49.96263" lon="2.1206">
        <ele>12</ele>
        <time>2023-06-28T08:21:36Z</time>
      </trkpt>
      <trkpt lat="49.96262" lon="2.12059">
        <ele>12</ele>
        <time>2023-06-28T08:21:37Z</time>
      </trkpt>
      <trkpt lat="49.96261" lon="2.12058">
        <ele>12</ele>
        <time>2023-06-28T08:21:38Z</time>
      </trkpt>
      <trkpt lat="49.96261" lon="2.12057">
        <ele>12</ele>
        <time>2023-06-28T08:21:39Z</time>
      </trkpt>
      <trkpt lat="49.9626" lon="2.12055">
        <ele>12</ele>
        <time>2023-06-28T08:21:40Z</time>
      </trkpt>
      <trkpt lat="49.96259" lon="2.12054">
        <ele>12</ele>
        <time>2023-06-28T08:21:41Z</time>
      </trkpt>
      <trkpt lat="49.96258" lon="2.12052">
        <ele>12</ele>
        <time>2023-06-28T08:21:42Z</time>
      </trkpt>
      <trkpt lat="49.96258" lon="2.12051">
        <ele>12</ele>
        <time>2023-06-28T08:21:43Z</time>
      </trkpt>
      <trkpt lat="49.96257" lon="2.1205">
        <ele>12</ele>
        <time>2023-06-28T08:21:44Z</time>
      </trkpt>
      <trkpt lat="49.96256" lon="2.12049">
        <ele>12</ele>
        <time>2023-06-28T08:21:45Z</time>
      </trkpt>
      <trkpt lat="49.96256" lon="2.12048">
        <ele>12</ele>
        <time>2023-06-28T08:21:46Z</time>
      </trkpt>
      <trkpt lat="49.96255" lon="2.12047">
        <ele>12</ele>
        <time>2023-06-28T08:21:47Z</time>
      </trkpt>
      <trkpt lat="49.96254" lon="2.12046">
        <ele>12</ele>
        <time>2023-06-28T08:21:48Z</time>
      </trkpt>
      <trkpt lat="49.96253" lon="2.12045">
        <ele>12</ele>
        <time>2023-06-28T08:21:49Z</time>
      </trkpt>
      <trkpt lat="49.96252" lon="2.12044">
        <ele>12.1</ele>
        <time>2023-06-28T08:21:50Z</time>
      </trkpt>
      <trkpt lat="49.96251" lon="2.12043">
        <ele>12.1</ele>
        <time>2023-06-28T08:21:51Z</time>
      </trkpt>
      <trkpt lat="49.96251" lon="2.12042">
        <ele>12.1</ele>
        <time>2023-06-28T08:21:52Z</time>
      </trkpt>
      <trkpt lat="49.9625" lon="2.1204">
        <ele>12.1</ele>
        <time>2023-06-28T08:21:53Z</time>
      </trkpt>
      <trkpt lat="49.96249" lon="2.1204">
        <ele>12.1</ele>
        <time>2023-06-28T08:21:54Z</time>
      </trkpt>
      <trkpt lat="49.96248" lon="2.12038">
        <ele>12.1</ele>
        <time>2023-06-28T08:21:55Z</time>
      </trkpt>
      <trkpt lat="49.96248" lon="2.12037">
        <ele>12.1</ele>
        <time>2023-06-28T08:21:56Z</time>
      </trkpt>
      <trkpt lat="49.96247" lon="2.12036">
        <ele>12.1</ele>
        <time>2023-06-28T08:21:57Z</time>
      </trkpt>
      <trkpt lat="49.96246" lon="2.12035">
        <ele>12.1</ele>
        <time>2023-06-28T08:21:58Z</time>
      </trkpt>
      <trkpt lat="49.96245" lon="2.12034">
        <ele>12.1</ele>
        <time>2023-06-28T08:21:59Z</time>
      </trkpt>
      <trkpt lat="49.96244" lon="2.12032">
        <ele>12.2</ele>
        <time>2023-06-28T08:22:00Z</time>
      </trkpt>
      <trkpt lat="49.96243" lon="2.12031">
        <ele>12.2</ele>
        <time>2023-06-28T08:22:01Z</time>
      </trkpt>
      <trkpt lat="49.96243" lon="2.12029">
        <ele>12.2</ele>
        <time>2023-06-28T08:22:02Z</time>
      </trkpt>
      <trkpt lat="49.96242" lon="2.12028">
        <ele>12.2</ele>
        <time>2023-06-28T08:22:03Z</time>
      </trkpt>
      <trkpt lat="49.96241" lon="2.12027">
        <ele>12.2</ele>
        <time>2023-06-28T08:22:04Z</time>
      </trkpt>
      <trkpt lat="49.96241" lon="2.12026">
        <ele>12.2</ele>
        <time>2023-06-28T08:22:05Z</time>
      </trkpt>
      <trkpt lat="49.9624" lon="2.12025">
        <ele>12.2</ele>
        <time>2023-06-28T08:22:06Z</time>
      </trkpt>
      <trkpt lat="49.9624" lon="2.12024">
        <ele>12.2</ele>
        <time>2023-06-28T08:22:07Z</time>
      </trkpt>
      <trkpt lat="49.96239" lon="2.12022">
        <ele>12.2</ele>
        <time>2023-06-28T08:22:08Z</time>
      </trkpt>
      <trkpt lat="49.96238" lon="2.1202">
        <ele>12.2</ele>
        <time>2023-06-28T08:22:09Z</time>
      </trkpt>
      <trkpt lat="49.96238" lon="2.12019">
        <ele>12.3</ele>
        <time>2023-06-28T08:22:10Z</time>
      </trkpt>
      <trkpt lat="49.96238" lon="2.12017">
        <ele>12.3</ele>
        <time>2023-06-28T08:22:11Z</time>
      </trkpt>
      <trkpt lat="49.96238" lon="2.12016">
        <ele>12.3</ele>
        <time>2023-06-28T08:22:12Z</time>
      </trkpt>
      <trkpt lat="49.96238" lon="2.12014">
        <ele>12.3</ele>
        <time>2023-06-28T08:22:13Z</time>
      </trkpt>
      <trkpt lat="49.96238" lon="2.12013">
        <ele>12.3</ele>
        <time>2023-06-28T08:22:14Z</time>
      </trkpt>
      <trkpt lat="49.96238" lon="2.12011">
        <ele>12.3</ele>
        <time>2023-06-28T08:22:15Z</time>
      </trkpt>
      <trkpt lat="49.96239" lon="2.1201">
        <ele>12.3</ele>
        <time>2023-06-28T08:22:16Z</time>
      </trkpt>
      <trkpt lat="49.96239" lon="2.12008">
        <ele>12.3</ele>
        <time>2023-06-28T08:22:17Z</time>
      </trkpt>
      <trkpt lat="49.9624" lon="2.12006">
        <ele>12.3</ele>
        <time>2023-06-28T08:22:18Z</time>
      </trkpt>
      <trkpt lat="49.96241" lon="2.12003">
        <ele>12.3</ele>
        <time>2023-06-28T08:22:19Z</time>
      </trkpt>
      <trkpt lat="49.96242" lon="2.12002">
        <ele>12.3</ele>
        <time>2023-06-28T08:22:20Z</time>
      </trkpt>
      <trkpt lat="49.96242" lon="2.12001">
        <ele>12.3</ele>
        <time>2023-06-28T08:22:21Z</time>
      </trkpt>
      <trkpt lat="49.96243" lon="2.12">
        <ele>12.3</ele>
        <time>2023-06-28T08:22:22Z</time>
      </trkpt>
      <trkpt lat="49.96244" lon="2.11999">
        <ele>12.3</ele>
        <time>2023-06-28T08:22:23Z</time>
      </trkpt>
      <trkpt lat="49.96245" lon="2.11999">
        <ele>12.3</ele>
        <time>2023-06-28T08:22:24Z</time>
      </trkpt>
      <trkpt lat="49.96246" lon="2.11998">
        <ele>12.3</ele>
        <time>2023-06-28T08:22:25Z</time>
      </trkpt>
      <trkpt lat="49.96247" lon="2.11998">
        <ele>12.3</ele>
        <time>2023-06-28T08:22:26Z</time>
      </trkpt>
      <trkpt lat="49.96248" lon="2.11997">
        <ele>12.3</ele>
        <time>2023-06-28T08:22:27Z</time>
      </trkpt>
      <trkpt lat="49.9625" lon="2.11996">
        <ele>12.3</ele>
        <time>2023-06-28T08:22:28Z</time>
      </trkpt>
      <trkpt lat="49.96251" lon="2.11995">
        <ele>12.3</ele>
        <time>2023-06-28T08:22:29Z</time>
      </trkpt>
      <trkpt lat="49.96252" lon="2.11994">
        <ele>12.3</ele>
        <time>2023-06-28T08:22:30Z</time>
      </trkpt>
      <trkpt lat="49.96253" lon="2.11992">
        <ele>12.3</ele>
        <time>2023-06-28T08:22:31Z</time>
      </trkpt>
      <trkpt lat="49.96254" lon="2.11992">
        <ele>12.3</ele>
        <time>2023-06-28T08:22:32Z</time>
      </trkpt>
      <trkpt lat="49.96255" lon="2.11991">
        <ele>12.3</ele>
        <time>2023-06-28T08:22:33Z</time>
      </trkpt>
      <trkpt lat="49.96256" lon="2.11989">
        <ele>12.3</ele>
        <time>2023-06-28T08:22:34Z</time>
      </trkpt>
      <trkpt lat="49.96257" lon="2.11988">
        <ele>12.3</ele>
        <time>2023-06-28T08:22:35Z</time>
      </trkpt>
      <trkpt lat="49.96259" lon="2.11986">
        <ele>12.3</ele>
        <time>2023-06-28T08:22:36Z</time>
      </trkpt>
      <trkpt lat="49.96259" lon="2.11986">
        <ele>12.3</ele>
        <time>2023-06-28T08:22:37Z</time>
      </trkpt>
      <trkpt lat="49.9626" lon="2.11985">
        <ele>12.3</ele>
        <time>2023-06-28T08:22:38Z</time>
      </trkpt>
      <trkpt lat="49.96261" lon="2.11984">
        <ele>12.3</ele>
        <time>2023-06-28T08:22:39Z</time>
      </trkpt>
      <trkpt lat="49.96262" lon="2.11983">
        <ele>12.3</ele>
        <time>2023-06-28T08:22:40Z</time>
      </trkpt>
      <trkpt lat="49.96263" lon="2.11981">
        <ele>12.3</ele>
        <time>2023-06-28T08:22:41Z</time>
      </trkpt>
      <trkpt lat="49.96264" lon="2.1198">
        <ele>12.3</ele>
        <time>2023-06-28T08:22:42Z</time>
      </trkpt>
      <trkpt lat="49.96264" lon="2.11979">
        <ele>12.3</ele>
        <time>2023-06-28T08:22:43Z</time>
      </trkpt>
      <trkpt lat="49.96265" lon="2.11978">
        <ele>12.3</ele>
        <time>2023-06-28T08:22:44Z</time>
      </trkpt>
      <trkpt lat="49.96266" lon="2.11977">
        <ele>12.3</ele>
        <time>2023-06-28T08:22:45Z</time>
      </trkpt>
      <trkpt lat="49.96266" lon="2.11976">
        <ele>12.3</ele>
        <time>2023-06-28T08:22:46Z</time>
      </trkpt>
      <trkpt lat="49.96267" lon="2.11975">
        <ele>12.3</ele>
        <time>2023-06-28T08:22:47Z</time>
      </trkpt>
      <trkpt lat="49.96268" lon="2.11974">
        <ele>12.3</ele>
        <time>2023-06-28T08:22:48Z</time>
      </trkpt>
      <trkpt lat="49.96269" lon="2.11973">
        <ele>12.3</ele>
        <time>2023-06-28T08:22:49Z</time>
      </trkpt>
      <trkpt lat="49.9627" lon="2.11972">
        <ele>12.3</ele>
        <time>2023-06-28T08:22:50Z</time>
      </trkpt>
      <trkpt lat="49.96271" lon="2.11971">
        <ele>12.3</ele>
        <time>2023-06-28T08:22:51Z</time>
      </trkpt>
      <trkpt lat="49.96272" lon="2.1197">
        <ele>12.3</ele>
        <time>2023-06-28T08:22:52Z</time>
      </trkpt>
      <trkpt lat="49.96273" lon="2.11969">
        <ele>12.3</ele>
        <time>2023-06-28T08:22:53Z</time>
      </trkpt>
      <trkpt lat="49.96273" lon="2.11968">
        <ele>12.3</ele>
        <time>2023-06-28T08:22:54Z</time>
      </trkpt>
      <trkpt lat="49.96274" lon="2.11967">
        <ele>12.3</ele>
        <time>2023-06-28T08:22:55Z</time>
      </trkpt>
      <trkpt lat="49.96275" lon="2.11966">
        <ele>12.3</ele>
        <time>2023-06-28T08:22:56Z</time>
      </trkpt>
      <trkpt lat="49.96276" lon="2.11965">
        <ele>12.3</ele>
        <time>2023-06-28T08:22:57Z</time>
      </trkpt>
      <trkpt lat="49.96277" lon="2.11964">
        <ele>12.3</ele>
        <time>2023-06-28T08:22:58Z</time>
      </trkpt>
      <trkpt lat="49.96278" lon="2.11963">
        <ele>12.3</ele>
        <time>2023-06-28T08:22:59Z</time>
      </trkpt>
      <trkpt lat="49.96278" lon="2.11962">
        <ele>12.3</ele>
        <time>2023-06-28T08:23:00Z</time>
      </trkpt>
      <trkpt lat="49.96279" lon="2.11961">
        <ele>12.3</ele>
        <time>2023-06-28T08:23:01Z</time>
      </trkpt>
      <trkpt lat="49.9628" lon="2.1196">
        <ele>12.3</ele>
        <time>2023-06-28T08:23:02Z</time>
      </trkpt>
      <trkpt lat="49.96281" lon="2.1196">
        <ele>12.3</ele>
        <time>2023-06-28T08:23:03Z</time>
      </trkpt>
      <trkpt lat="49.96281" lon="2.11959">
        <ele>12.3</ele>
        <time>2023-06-28T08:23:04Z</time>
      </trkpt>
      <trkpt lat="49.96282" lon="2.11958">
        <ele>12.3</ele>
        <time>2023-06-28T08:23:05Z</time>
      </trkpt>
      <trkpt lat="49.96283" lon="2.11957">
        <ele>12.3</ele>
        <time>2023-06-28T08:23:06Z</time>
      </trkpt>
      <trkpt lat="49.96284" lon="2.11955">
        <ele>12.3</ele>
        <time>2023-06-28T08:23:07Z</time>
      </trkpt>
      <trkpt lat="49.96285" lon="2.11955">
        <ele>12.3</ele>
        <time>2023-06-28T08:23:08Z</time>
      </trkpt>
      <trkpt lat="49.96286" lon="2.11954">
        <ele>12.3</ele>
        <time>2023-06-28T08:23:09Z</time>
      </trkpt>
      <trkpt lat="49.96286" lon="2.11953">
        <ele>12.3</ele>
        <time>2023-06-28T08:23:10Z</time>
      </trkpt>
      <trkpt lat="49.96287" lon="2.11952">
        <ele>12.3</ele>
        <time>2023-06-28T08:23:11Z</time>
      </trkpt>
      <trkpt lat="49.96288" lon="2.11951">
        <ele>12.3</ele>
        <time>2023-06-28T08:23:12Z</time>
      </trkpt>
      <trkpt lat="49.96289" lon="2.11951">
        <ele>12.3</ele>
        <time>2023-06-28T08:23:13Z</time>
      </trkpt>
      <trkpt lat="49.9629" lon="2.1195">
        <ele>12.3</ele>
        <time>2023-06-28T08:23:14Z</time>
      </trkpt>
      <trkpt lat="49.9629" lon="2.11949">
        <ele>12.3</ele>
        <time>2023-06-28T08:23:15Z</time>
      </trkpt>
      <trkpt lat="49.96291" lon="2.11947">
        <ele>12.3</ele>
        <time>2023-06-28T08:23:16Z</time>
      </trkpt>
      <trkpt lat="49.96292" lon="2.11947">
        <ele>12.3</ele>
        <time>2023-06-28T08:23:17Z</time>
      </trkpt>
      <trkpt lat="49.96293" lon="2.11946">
        <ele>12.3</ele>
        <time>2023-06-28T08:23:18Z</time>
      </trkpt>
      <trkpt lat="49.96293" lon="2.11945">
        <ele>12.3</ele>
        <time>2023-06-28T08:23:19Z</time>
      </trkpt>
      <trkpt lat="49.96294" lon="2.11944">
        <ele>12.3</ele>
        <time>2023-06-28T08:23:20Z</time>
      </trkpt>
      <trkpt lat="49.96295" lon="2.11943">
        <ele>12.3</ele>
        <time>2023-06-28T08:23:21Z</time>
      </trkpt>
      <trkpt lat="49.96296" lon="2.11942">
        <ele>12.3</ele>
        <time>2023-06-28T08:23:22Z</time>
      </trkpt>
      <trkpt lat="49.96297" lon="2.11941">
        <ele>12.3</ele>
        <time>2023-06-28T08:23:23Z</time>
      </trkpt>
      <trkpt lat="49.96298" lon="2.1194">
        <ele>12.3</ele>
        <time>2023-06-28T08:23:24Z</time>
      </trkpt>
      <trkpt lat="49.96299" lon="2.11938">
        <ele>12.3</ele>
        <time>2023-06-28T08:23:25Z</time>
      </trkpt>
      <trkpt lat="49.96301" lon="2.11936">
        <ele>12.3</ele>
        <time>2023-06-28T08:23:26Z</time>
      </trkpt>
      <trkpt lat="49.96302" lon="2.11935">
        <ele>12.3</ele>
        <time>2023-06-28T08:23:27Z</time>
      </trkpt>
      <trkpt lat="49.96302" lon="2.11935">
        <ele>12.3</ele>
        <time>2023-06-28T08:23:28Z</time>
      </trkpt>
      <trkpt lat="49.96304" lon="2.11932">
        <ele>12.3</ele>
        <time>2023-06-28T08:23:29Z</time>
      </trkpt>
      <trkpt lat="49.96305" lon="2.11932">
        <ele>12.3</ele>
        <time>2023-06-28T08:23:30Z</time>
      </trkpt>
      <trkpt lat="49.96305" lon="2.11931">
        <ele>12.3</ele>
        <time>2023-06-28T08:23:31Z</time>
      </trkpt>
      <trkpt lat="49.96307" lon="2.11928">
        <ele>12.3</ele>
        <time>2023-06-28T08:23:32Z</time>
      </trkpt>
      <trkpt lat="49.96307" lon="2.11927">
        <ele>12.3</ele>
        <time>2023-06-28T08:23:33Z</time>
      </trkpt>
      <trkpt lat="49.96308" lon="2.11926">
        <ele>12.3</ele>
        <time>2023-06-28T08:23:34Z</time>
      </trkpt>
      <trkpt lat="49.96309" lon="2.11924">
        <ele>12.3</ele>
        <time>2023-06-28T08:23:35Z</time>
      </trkpt>
      <trkpt lat="49.9631" lon="2.11923">
        <ele>12.2</ele>
        <time>2023-06-28T08:23:36Z</time>
      </trkpt>
      <trkpt lat="49.96311" lon="2.11922">
        <ele>12.2</ele>
        <time>2023-06-28T08:23:37Z</time>
      </trkpt>
      <trkpt lat="49.96312" lon="2.1192">
        <ele>12.2</ele>
        <time>2023-06-28T08:23:38Z</time>
      </trkpt>
      <trkpt lat="49.96312" lon="2.11919">
        <ele>12.2</ele>
        <time>2023-06-28T08:23:39Z</time>
      </trkpt>
      <trkpt lat="49.96313" lon="2.11918">
        <ele>12.2</ele>
        <time>2023-06-28T08:23:40Z</time>
      </trkpt>
      <trkpt lat="49.96314" lon="2.11917">
        <ele>12.2</ele>
        <time>2023-06-28T08:23:41Z</time>
      </trkpt>
      <trkpt lat="49.96315" lon="2.11916">
        <ele>12.2</ele>
        <time>2023-06-28T08:23:42Z</time>
      </trkpt>
      <trkpt lat="49.96316" lon="2.11915">
        <ele>12.2</ele>
        <time>2023-06-28T08:23:43Z</time>
      </trkpt>
      <trkpt lat="49.96317" lon="2.11913">
        <ele>12.2</ele>
        <time>2023-06-28T08:23:44Z</time>
      </trkpt>
      <trkpt lat="49.96318" lon="2.11912">
        <ele>12.2</ele>
        <time>2023-06-28T08:23:45Z</time>
      </trkpt>
      <trkpt lat="49.96318" lon="2.11911">
        <ele>12.2</ele>
        <time>2023-06-28T08:23:46Z</time>
      </trkpt>
      <trkpt lat="49.96319" lon="2.1191">
        <ele>12.2</ele>
        <time>2023-06-28T08:23:47Z</time>
      </trkpt>
      <trkpt lat="49.9632" lon="2.11909">
        <ele>12.2</ele>
        <time>2023-06-28T08:23:48Z</time>
      </trkpt>
      <trkpt lat="49.9632" lon="2.11908">
        <ele>12.2</ele>
        <time>2023-06-28T08:23:49Z</time>
      </trkpt>
      <trkpt lat="49.9632" lon="2.11908">
        <ele>12.2</ele>
        <time>2023-06-28T08:23:50Z</time>
      </trkpt>
      <trkpt lat="49.96321" lon="2.11906">
        <ele>12.2</ele>
        <time>2023-06-28T08:23:51Z</time>
      </trkpt>
      <trkpt lat="49.96321" lon="2.11905">
        <ele>12.2</ele>
        <time>2023-06-28T08:23:52Z</time>
      </trkpt>
      <trkpt lat="49.96322" lon="2.11904">
        <ele>12.2</ele>
        <time>2023-06-28T08:23:53Z</time>
      </trkpt>
      <trkpt lat="49.96322" lon="2.11903">
        <ele>12.2</ele>
        <time>2023-06-28T08:23:54Z</time>
      </trkpt>
      <trkpt lat="49.96323" lon="2.11902">
        <ele>12.2</ele>
        <time>2023-06-28T08:23:55Z</time>
      </trkpt>
      <trkpt lat="49.96323" lon="2.11901">
        <ele>12.2</ele>
        <time>2023-06-28T08:23:56Z</time>
      </trkpt>
      <trkpt lat="49.96324" lon="2.119">
        <ele>12.2</ele>
        <time>2023-06-28T08:23:57Z</time>
      </trkpt>
      <trkpt lat="49.96324" lon="2.11899">
        <ele>12.1</ele>
        <time>2023-06-28T08:23:58Z</time>
      </trkpt>
      <trkpt lat="49.96325" lon="2.11898">
        <ele>12.1</ele>
        <time>2023-06-28T08:23:59Z</time>
      </trkpt>
      <trkpt lat="49.96325" lon="2.11897">
        <ele>12.1</ele>
        <time>2023-06-28T08:24:00Z</time>
      </trkpt>
      <trkpt lat="49.96326" lon="2.11895">
        <ele>12.1</ele>
        <time>2023-06-28T08:24:01Z</time>
      </trkpt>
      <trkpt lat="49.96327" lon="2.11894">
        <ele>12.1</ele>
        <time>2023-06-28T08:24:02Z</time>
      </trkpt>
      <trkpt lat="49.96327" lon="2.11892">
        <ele>12.1</ele>
        <time>2023-06-28T08:24:03Z</time>
      </trkpt>
      <trkpt lat="49.96328" lon="2.11891">
        <ele>12.1</ele>
        <time>2023-06-28T08:24:04Z</time>
      </trkpt>
      <trkpt lat="49.96329" lon="2.11889">
        <ele>12.1</ele>
        <time>2023-06-28T08:24:05Z</time>
      </trkpt>
      <trkpt lat="49.96329" lon="2.11888">
        <ele>12.1</ele>
        <time>2023-06-28T08:24:06Z</time>
      </trkpt>
      <trkpt lat="49.9633" lon="2.11886">
        <ele>12.1</ele>
        <time>2023-06-28T08:24:07Z</time>
      </trkpt>
      <trkpt lat="49.9633" lon="2.11885">
        <ele>12.1</ele>
        <time>2023-06-28T08:24:08Z</time>
      </trkpt>
      <trkpt lat="49.96331" lon="2.11884">
        <ele>12</ele>
        <time>2023-06-28T08:24:09Z</time>
      </trkpt>
      <trkpt lat="49.96332" lon="2.11882">
        <ele>12</ele>
        <time>2023-06-28T08:24:10Z</time>
      </trkpt>
      <trkpt lat="49.96332" lon="2.1188">
        <ele>12</ele>
        <time>2023-06-28T08:24:11Z</time>
      </trkpt>
      <trkpt lat="49.96333" lon="2.11878">
        <ele>12</ele>
        <time>2023-06-28T08:24:12Z</time>
      </trkpt>
      <trkpt lat="49.96334" lon="2.11877">
        <ele>12</ele>
        <time>2023-06-28T08:24:13Z</time>
      </trkpt>
      <trkpt lat="49.96335" lon="2.11876">
        <ele>12</ele>
        <time>2023-06-28T08:24:14Z</time>
      </trkpt>
      <trkpt lat="49.96335" lon="2.11874">
        <ele>12</ele>
        <time>2023-06-28T08:24:15Z</time>
      </trkpt>
      <trkpt lat="49.96336" lon="2.11873">
        <ele>12</ele>
        <time>2023-06-28T08:24:16Z</time>
      </trkpt>
      <trkpt lat="49.96336" lon="2.11872">
        <ele>12</ele>
        <time>2023-06-28T08:24:17Z</time>
      </trkpt>
      <trkpt lat="49.96337" lon="2.1187">
        <ele>12</ele>
        <time>2023-06-28T08:24:18Z</time>
      </trkpt>
      <trkpt lat="49.96338" lon="2.11869">
        <ele>12</ele>
        <time>2023-06-28T08:24:19Z</time>
      </trkpt>
      <trkpt lat="49.96339" lon="2.11868">
        <ele>11.9</ele>
        <time>2023-06-28T08:24:20Z</time>
      </trkpt>
      <trkpt lat="49.96339" lon="2.11866">
        <ele>11.9</ele>
        <time>2023-06-28T08:24:21Z</time>
      </trkpt>
      <trkpt lat="49.9634" lon="2.11866">
        <ele>11.9</ele>
        <time>2023-06-28T08:24:22Z</time>
      </trkpt>
      <trkpt lat="49.9634" lon="2.11864">
        <ele>11.9</ele>
        <time>2023-06-28T08:24:23Z</time>
      </trkpt>
      <trkpt lat="49.96341" lon="2.11863">
        <ele>11.9</ele>
        <time>2023-06-28T08:24:24Z</time>
      </trkpt>
      <trkpt lat="49.96341" lon="2.11862">
        <ele>11.9</ele>
        <time>2023-06-28T08:24:25Z</time>
      </trkpt>
      <trkpt lat="49.96342" lon="2.11861">
        <ele>11.9</ele>
        <time>2023-06-28T08:24:26Z</time>
      </trkpt>
      <trkpt lat="49.96342" lon="2.11859">
        <ele>11.9</ele>
        <time>2023-06-28T08:24:27Z</time>
      </trkpt>
      <trkpt lat="49.96343" lon="2.11858">
        <ele>11.9</ele>
        <time>2023-06-28T08:24:28Z</time>
      </trkpt>
      <trkpt lat="49.96343" lon="2.11856">
        <ele>11.9</ele>
        <time>2023-06-28T08:24:29Z</time>
      </trkpt>
      <trkpt lat="49.96344" lon="2.11854">
        <ele>11.9</ele>
        <time>2023-06-28T08:24:30Z</time>
      </trkpt>
      <trkpt lat="49.96345" lon="2.11852">
        <ele>11.9</ele>
        <time>2023-06-28T08:24:31Z</time>
      </trkpt>
      <trkpt lat="49.96346" lon="2.11851">
        <ele>11.9</ele>
        <time>2023-06-28T08:24:32Z</time>
      </trkpt>
      <trkpt lat="49.96346" lon="2.11849">
        <ele>11.9</ele>
        <time>2023-06-28T08:24:33Z</time>
      </trkpt>
      <trkpt lat="49.96347" lon="2.11848">
        <ele>11.9</ele>
        <time>2023-06-28T08:24:34Z</time>
      </trkpt>
      <trkpt lat="49.96347" lon="2.11847">
        <ele>11.9</ele>
        <time>2023-06-28T08:24:35Z</time>
      </trkpt>
      <trkpt lat="49.96348" lon="2.11846">
        <ele>11.9</ele>
        <time>2023-06-28T08:24:36Z</time>
      </trkpt>
      <trkpt lat="49.96348" lon="2.11844">
        <ele>11.9</ele>
        <time>2023-06-28T08:24:37Z</time>
      </trkpt>
      <trkpt lat="49.96349" lon="2.11843">
        <ele>11.8</ele>
        <time>2023-06-28T08:24:38Z</time>
      </trkpt>
      <trkpt lat="49.9635" lon="2.1184">
        <ele>11.8</ele>
        <time>2023-06-28T08:24:39Z</time>
      </trkpt>
      <trkpt lat="49.96351" lon="2.11839">
        <ele>11.8</ele>
        <time>2023-06-28T08:24:40Z</time>
      </trkpt>
      <trkpt lat="49.96351" lon="2.11838">
        <ele>11.8</ele>
        <time>2023-06-28T08:24:41Z</time>
      </trkpt>
      <trkpt lat="49.96352" lon="2.11837">
        <ele>11.8</ele>
        <time>2023-06-28T08:24:42Z</time>
      </trkpt>
      <trkpt lat="49.96353" lon="2.11836">
        <ele>11.8</ele>
        <time>2023-06-28T08:24:43Z</time>
      </trkpt>
      <trkpt lat="49.96353" lon="2.11835">
        <ele>11.8</ele>
        <time>2023-06-28T08:24:44Z</time>
      </trkpt>
      <trkpt lat="49.96354" lon="2.11834">
        <ele>11.8</ele>
        <time>2023-06-28T08:24:45Z</time>
      </trkpt>
      <trkpt lat="49.96355" lon="2.11833">
        <ele>11.8</ele>
        <time>2023-06-28T08:24:46Z</time>
      </trkpt>
      <trkpt lat="49.96356" lon="2.11831">
        <ele>11.8</ele>
        <time>2023-06-28T08:24:47Z</time>
      </trkpt>
      <trkpt lat="49.96357" lon="2.11829">
        <ele>11.8</ele>
        <time>2023-06-28T08:24:48Z</time>
      </trkpt>
      <trkpt lat="49.96357" lon="2.11828">
        <ele>11.8</ele>
        <time>2023-06-28T08:24:49Z</time>
      </trkpt>
      <trkpt lat="49.96359" lon="2.11825">
        <ele>11.8</ele>
        <time>2023-06-28T08:24:50Z</time>
      </trkpt>
      <trkpt lat="49.96359" lon="2.11824">
        <ele>11.8</ele>
        <time>2023-06-28T08:24:51Z</time>
      </trkpt>
      <trkpt lat="49.9636" lon="2.11823">
        <ele>11.8</ele>
        <time>2023-06-28T08:24:52Z</time>
      </trkpt>
      <trkpt lat="49.96361" lon="2.11822">
        <ele>11.8</ele>
        <time>2023-06-28T08:24:53Z</time>
      </trkpt>
      <trkpt lat="49.96361" lon="2.1182">
        <ele>11.8</ele>
        <time>2023-06-28T08:24:54Z</time>
      </trkpt>
      <trkpt lat="49.96362" lon="2.11819">
        <ele>11.8</ele>
        <time>2023-06-28T08:24:55Z</time>
      </trkpt>
      <trkpt lat="49.96363" lon="2.11818">
        <ele>11.8</ele>
        <time>2023-06-28T08:24:56Z</time>
      </trkpt>
      <trkpt lat="49.96363" lon="2.11817">
        <ele>11.7</ele>
        <time>2023-06-28T08:24:57Z</time>
      </trkpt>
      <trkpt lat="49.96364" lon="2.11815">
        <ele>11.7</ele>
        <time>2023-06-28T08:24:58Z</time>
      </trkpt>
      <trkpt lat="49.96365" lon="2.11814">
        <ele>11.7</ele>
        <time>2023-06-28T08:24:59Z</time>
      </trkpt>
      <trkpt lat="49.96365" lon="2.11813">
        <ele>11.7</ele>
        <time>2023-06-28T08:25:00Z</time>
      </trkpt>
      <trkpt lat="49.96366" lon="2.11811">
        <ele>11.7</ele>
        <time>2023-06-28T08:25:01Z</time>
      </trkpt>
      <trkpt lat="49.96367" lon="2.11809">
        <ele>11.7</ele>
        <time>2023-06-28T08:25:02Z</time>
      </trkpt>
      <trkpt lat="49.96367" lon="2.11808">
        <ele>11.7</ele>
        <time>2023-06-28T08:25:03Z</time>
      </trkpt>
      <trkpt lat="49.96368" lon="2.11807">
        <ele>11.7</ele>
        <time>2023-06-28T08:25:04Z</time>
      </trkpt>
      <trkpt lat="49.96369" lon="2.11804">
        <ele>11.7</ele>
        <time>2023-06-28T08:25:05Z</time>
      </trkpt>
      <trkpt lat="49.9637" lon="2.11803">
        <ele>11.7</ele>
        <time>2023-06-28T08:25:06Z</time>
      </trkpt>
      <trkpt lat="49.9637" lon="2.11802">
        <ele>11.7</ele>
        <time>2023-06-28T08:25:07Z</time>
      </trkpt>
      <trkpt lat="49.96371" lon="2.11801">
        <ele>11.7</ele>
        <time>2023-06-28T08:25:08Z</time>
      </trkpt>
      <trkpt lat="49.96372" lon="2.118">
        <ele>11.7</ele>
        <time>2023-06-28T08:25:09Z</time>
      </trkpt>
      <trkpt lat="49.96373" lon="2.11798">
        <ele>11.7</ele>
        <time>2023-06-28T08:25:10Z</time>
      </trkpt>
      <trkpt lat="49.96373" lon="2.11797">
        <ele>11.7</ele>
        <time>2023-06-28T08:25:11Z</time>
      </trkpt>
      <trkpt lat="49.96374" lon="2.11796">
        <ele>11.8</ele>
        <time>2023-06-28T08:25:12Z</time>
      </trkpt>
      <trkpt lat="49.96375" lon="2.11795">
        <ele>11.8</ele>
        <time>2023-06-28T08:25:13Z</time>
      </trkpt>
      <trkpt lat="49.96375" lon="2.11794">
        <ele>11.8</ele>
        <time>2023-06-28T08:25:14Z</time>
      </trkpt>
      <trkpt lat="49.96376" lon="2.11793">
        <ele>11.8</ele>
        <time>2023-06-28T08:25:15Z</time>
      </trkpt>
      <trkpt lat="49.96376" lon="2.11792">
        <ele>11.8</ele>
        <time>2023-06-28T08:25:16Z</time>
      </trkpt>
      <trkpt lat="49.96377" lon="2.11791">
        <ele>11.8</ele>
        <time>2023-06-28T08:25:17Z</time>
      </trkpt>
      <trkpt lat="49.96378" lon="2.1179">
        <ele>11.8</ele>
        <time>2023-06-28T08:25:18Z</time>
      </trkpt>
      <trkpt lat="49.96378" lon="2.11789">
        <ele>11.8</ele>
        <time>2023-06-28T08:25:19Z</time>
      </trkpt>
      <trkpt lat="49.96379" lon="2.11788">
        <ele>11.8</ele>
        <time>2023-06-28T08:25:20Z</time>
      </trkpt>
      <trkpt lat="49.9638" lon="2.11787">
        <ele>11.8</ele>
        <time>2023-06-28T08:25:21Z</time>
      </trkpt>
      <trkpt lat="49.9638" lon="2.11785">
        <ele>11.8</ele>
        <time>2023-06-28T08:25:22Z</time>
      </trkpt>
      <trkpt lat="49.96381" lon="2.11784">
        <ele>11.8</ele>
        <time>2023-06-28T08:25:23Z</time>
      </trkpt>
      <trkpt lat="49.96381" lon="2.11783">
        <ele>11.8</ele>
        <time>2023-06-28T08:25:24Z</time>
      </trkpt>
      <trkpt lat="49.96382" lon="2.11782">
        <ele>11.8</ele>
        <time>2023-06-28T08:25:25Z</time>
      </trkpt>
      <trkpt lat="49.96382" lon="2.11782">
        <ele>11.8</ele>
        <time>2023-06-28T08:25:26Z</time>
      </trkpt>
      <trkpt lat="49.96383" lon="2.11781">
        <ele>11.8</ele>
        <time>2023-06-28T08:25:27Z</time>
      </trkpt>
      <trkpt lat="49.96383" lon="2.1178">
        <ele>11.8</ele>
        <time>2023-06-28T08:25:28Z</time>
      </trkpt>
      <trkpt lat="49.96383" lon="2.1178">
        <ele>11.8</ele>
        <time>2023-06-28T08:25:29Z</time>
      </trkpt>
      <trkpt lat="49.96383" lon="2.1178">
        <ele>11.8</ele>
        <time>2023-06-28T08:25:30Z</time>
      </trkpt>
      <trkpt lat="49.96382" lon="2.1178">
        <ele>11.8</ele>
        <time>2023-06-28T08:25:31Z</time>
      </trkpt>
      <trkpt lat="49.96382" lon="2.1178">
        <ele>11.8</ele>
        <time>2023-06-28T08:25:32Z</time>
      </trkpt>
      <trkpt lat="49.96382" lon="2.1178">
        <ele>11.8</ele>
        <time>2023-06-28T08:25:33Z</time>
      </trkpt>
      <trkpt lat="49.96382" lon="2.1178">
        <ele>11.8</ele>
        <time>2023-06-28T08:25:34Z</time>
      </trkpt>
      <trkpt lat="49.96382" lon="2.11781">
        <ele>11.8</ele>
        <time>2023-06-28T08:25:35Z</time>
      </trkpt>
      <trkpt lat="49.96382" lon="2.11781">
        <ele>11.8</ele>
        <time>2023-06-28T08:25:36Z</time>
      </trkpt>
      <trkpt lat="49.96381" lon="2.11781">
        <ele>11.8</ele>
        <time>2023-06-28T08:25:37Z</time>
      </trkpt>
      <trkpt lat="49.96381" lon="2.11782">
        <ele>11.8</ele>
        <time>2023-06-28T08:25:38Z</time>
      </trkpt>
      <trkpt lat="49.96381" lon="2.11783">
        <ele>11.8</ele>
        <time>2023-06-28T08:25:39Z</time>
      </trkpt>
      <trkpt lat="49.96381" lon="2.11783">
        <ele>11.8</ele>
        <time>2023-06-28T08:25:40Z</time>
      </trkpt>
      <trkpt lat="49.96381" lon="2.11784">
        <ele>11.8</ele>
        <time>2023-06-28T08:25:41Z</time>
      </trkpt>
      <trkpt lat="49.9638" lon="2.11784">
        <ele>11.8</ele>
        <time>2023-06-28T08:25:42Z</time>
      </trkpt>
      <trkpt lat="49.9638" lon="2.11784">
        <ele>11.8</ele>
        <time>2023-06-28T08:25:43Z</time>
      </trkpt>
      <trkpt lat="49.9638" lon="2.11785">
        <ele>11.8</ele>
        <time>2023-06-28T08:25:44Z</time>
      </trkpt>
      <trkpt lat="49.9638" lon="2.11785">
        <ele>11.8</ele>
        <time>2023-06-28T08:25:45Z</time>
      </trkpt>
      <trkpt lat="49.9638" lon="2.11785">
        <ele>11.8</ele>
        <time>2023-06-28T08:25:46Z</time>
      </trkpt>
      <trkpt lat="49.9638" lon="2.11785">
        <ele>11.8</ele>
        <time>2023-06-28T08:25:47Z</time>
      </trkpt>
      <trkpt lat="49.9638" lon="2.11785">
        <ele>11.8</ele>
        <time>2023-06-28T08:25:48Z</time>
      </trkpt>
      <trkpt lat="49.9638" lon="2.11785">
        <ele>11.8</ele>
        <time>2023-06-28T08:25:49Z</time>
      </trkpt>
      <trkpt lat="49.9638" lon="2.11785">
        <ele>11.8</ele>
        <time>2023-06-28T08:25:50Z</time>
      </trkpt>
      <trkpt lat="49.9638" lon="2.11785">
        <ele>11.8</ele>
        <time>2023-06-28T08:25:51Z</time>
      </trkpt>
      <trkpt lat="49.9638" lon="2.11785">
        <ele>11.8</ele>
        <time>2023-06-28T08:25:52Z</time>
      </trkpt>
      <trkpt lat="49.9638" lon="2.11785">
        <ele>11.8</ele>
        <time>2023-06-28T08:25:53Z</time>
      </trkpt>
      <trkpt lat="49.9638" lon="2.11785">
        <ele>11.8</ele>
        <time>2023-06-28T08:25:54Z</time>
      </trkpt>
      <trkpt lat="49.9638" lon="2.11785">
        <ele>11.8</ele>
        <time>2023-06-28T08:25:55Z</time>
      </trkpt>
      <trkpt lat="49.9638" lon="2.11785">
        <ele>11.8</ele>
        <time>2023-06-28T08:25:56Z</time>
      </trkpt>
      <trkpt lat="49.9638" lon="2.11785">
        <ele>11.8</ele>
        <time>2023-06-28T08:25:57Z</time>
      </trkpt>
      <trkpt lat="49.9638" lon="2.11785">
        <ele>11.8</ele>
        <time>2023-06-28T08:25:58Z</time>
      </trkpt>
      <trkpt lat="49.9638" lon="2.11785">
        <ele>11.8</ele>
        <time>2023-06-28T08:25:59Z</time>
      </trkpt>
      <trkpt lat="49.9638" lon="2.11785">
        <ele>11.8</ele>
        <time>2023-06-28T08:26:00Z</time>
      </trkpt>
      <trkpt lat="49.9638" lon="2.11785">
        <ele>11.8</ele>
        <time>2023-06-28T08:26:01Z</time>
      </trkpt>
      <trkpt lat="49.9638" lon="2.11785">
        <ele>11.8</ele>
        <time>2023-06-28T08:26:02Z</time>
      </trkpt>
      <trkpt lat="49.9638" lon="2.11785">
        <ele>11.8</ele>
        <time>2023-06-28T08:26:03Z</time>
      </trkpt>
      <trkpt lat="49.9638" lon="2.11785">
        <ele>11.8</ele>
        <time>2023-06-28T08:26:04Z</time>
      </trkpt>
      <trkpt lat="49.9638" lon="2.11785">
        <ele>11.8</ele>
        <time>2023-06-28T08:26:05Z</time>
      </trkpt>
      <trkpt lat="49.9638" lon="2.11785">
        <ele>11.8</ele>
        <time>2023-06-28T08:26:06Z</time>
      </trkpt>
      <trkpt lat="49.9638" lon="2.11785">
        <ele>11.8</ele>
        <time>2023-06-28T08:26:07Z</time>
      </trkpt>
      <trkpt lat="49.9638" lon="2.11785">
        <ele>11.8</ele>
        <time>2023-06-28T08:26:08Z</time>
      </trkpt>
      <trkpt lat="49.9638" lon="2.11785">
        <ele>11.8</ele>
        <time>2023-06-28T08:26:09Z</time>
      </trkpt>
      <trkpt lat="49.9638" lon="2.11785">
        <ele>11.8</ele>
        <time>2023-06-28T08:26:10Z</time>
      </trkpt>
      <trkpt lat="49.9638" lon="2.11785">
        <ele>11.8</ele>
        <time>2023-06-28T08:26:11Z</time>
      </trkpt>
      <trkpt lat="49.9638" lon="2.11785">
        <ele>11.8</ele>
        <time>2023-06-28T08:26:12Z</time>
      </trkpt>
      <trkpt lat="49.9638" lon="2.11785">
        <ele>11.8</ele>
        <time>2023-06-28T08:26:13Z</time>
      </trkpt>
      <trkpt lat="49.9638" lon="2.11785">
        <ele>11.8</ele>
        <time>2023-06-28T08:26:14Z</time>
      </trkpt>
      <trkpt lat="49.9638" lon="2.11785">
        <ele>11.8</ele>
        <time>2023-06-28T08:26:15Z</time>
      </trkpt>
      <trkpt lat="49.9638" lon="2.11785">
        <ele>11.8</ele>
        <time>2023-06-28T08:26:16Z</time>
      </trkpt>
      <trkpt lat="49.9638" lon="2.11785">
        <ele>11.8</ele>
        <time>2023-06-28T08:26:17Z</time>
      </trkpt>
      <trkpt lat="49.9638" lon="2.11785">
        <ele>11.8</ele>
        <time>2023-06-28T08:26:18Z</time>
      </trkpt>
      <trkpt lat="49.9638" lon="2.11785">
        <ele>11.8</ele>
        <time>2023-06-28T08:26:19Z</time>
      </trkpt>
      <trkpt lat="49.9638" lon="2.11785">
        <ele>11.8</ele>
        <time>2023-06-28T08:26:20Z</time>
      </trkpt>
      <trkpt lat="49.9638" lon="2.11785">
        <ele>11.8</ele>
        <time>2023-06-28T08:26:21Z</time>
      </trkpt>
      <trkpt lat="49.9638" lon="2.11785">
        <ele>11.8</ele>
        <time>2023-06-28T08:26:22Z</time>
      </trkpt>
      <trkpt lat="49.9638" lon="2.11785">
        <ele>11.8</ele>
        <time>2023-06-28T08:26:23Z</time>
      </trkpt>
      <trkpt lat="49.9638" lon="2.11785">
        <ele>11.8</ele>
        <time>2023-06-28T08:26:24Z</time>
      </trkpt>
      <trkpt lat="49.9638" lon="2.11785">
        <ele>11.8</ele>
        <time>2023-06-28T08:26:25Z</time>
      </trkpt>
      <trkpt lat="49.9638" lon="2.11785">
        <ele>11.8</ele>
        <time>2023-06-28T08:26:26Z</time>
      </trkpt>
      <trkpt lat="49.9638" lon="2.11785">
        <ele>11.8</ele>
        <time>2023-06-28T08:26:27Z</time>
      </trkpt>
      <trkpt lat="49.9638" lon="2.11785">
        <ele>11.8</ele>
        <time>2023-06-28T08:26:28Z</time>
      </trkpt>
      <trkpt lat="49.9638" lon="2.11785">
        <ele>11.8</ele>
        <time>2023-06-28T08:26:29Z</time>
      </trkpt>
      <trkpt lat="49.9638" lon="2.11785">
        <ele>11.8</ele>
        <time>2023-06-28T08:26:30Z</time>
      </trkpt>
      <trkpt lat="49.9638" lon="2.11785">
        <ele>11.8</ele>
        <time>2023-06-28T08:26:31Z</time>
      </trkpt>
      <trkpt lat="49.9638" lon="2.11785">
        <ele>11.8</ele>
        <time>2023-06-28T08:26:32Z</time>
      </trkpt>
      <trkpt lat="49.9638" lon="2.11785">
        <ele>11.8</ele>
        <time>2023-06-28T08:26:33Z</time>
      </trkpt>
      <trkpt lat="49.9638" lon="2.11785">
        <ele>11.8</ele>
        <time>2023-06-28T08:26:34Z</time>
      </trkpt>
      <trkpt lat="49.9638" lon="2.11785">
        <ele>11.8</ele>
        <time>2023-06-28T08:26:35Z</time>
      </trkpt>
      <trkpt lat="49.9638" lon="2.11785">
        <ele>11.8</ele>
        <time>2023-06-28T08:26:36Z</time>
      </trkpt>
      <trkpt lat="49.9638" lon="2.11785">
        <ele>11.8</ele>
        <time>2023-06-28T08:26:37Z</time>
      </trkpt>
      <trkpt lat="49.9638" lon="2.11785">
        <ele>11.8</ele>
        <time>2023-06-28T08:26:38Z</time>
      </trkpt>
      <trkpt lat="49.9638" lon="2.11785">
        <ele>11.8</ele>
        <time>2023-06-28T08:26:39Z</time>
      </trkpt>
      <trkpt lat="49.9638" lon="2.11785">
        <ele>11.8</ele>
        <time>2023-06-28T08:26:40Z</time>
      </trkpt>
      <trkpt lat="49.9638" lon="2.11785">
        <ele>11.8</ele>
        <time>2023-06-28T08:26:41Z</time>
      </trkpt>
      <trkpt lat="49.9638" lon="2.11785">
        <ele>11.8</ele>
        <time>2023-06-28T08:26:42Z</time>
      </trkpt>
      <trkpt lat="49.9638" lon="2.11785">
        <ele>11.8</ele>
        <time>2023-06-28T08:26:43Z</time>
      </trkpt>
      <trkpt lat="49.9638" lon="2.11785">
        <ele>11.8</ele>
        <time>2023-06-28T08:26:44Z</time>
      </trkpt>
      <trkpt lat="49.9638" lon="2.11785">
        <ele>11.8</ele>
        <time>2023-06-28T08:26:45Z</time>
      </trkpt>
      <trkpt lat="49.9638" lon="2.11785">
        <ele>11.8</ele>
        <time>2023-06-28T08:26:46Z</time>
      </trkpt>
      <trkpt lat="49.9638" lon="2.11785">
        <ele>11.8</ele>
        <time>2023-06-28T08:26:47Z</time>
      </trkpt>
      <trkpt lat="49.9638" lon="2.11785">
        <ele>11.8</ele>
        <time>2023-06-28T08:26:48Z</time>
      </trkpt>
      <trkpt lat="49.9638" lon="2.11785">
        <ele>11.8</ele>
        <time>2023-06-28T08:26:49Z</time>
      </trkpt>
      <trkpt lat="49.9638" lon="2.11785">
        <ele>11.8</ele>
        <time>2023-06-28T08:26:50Z</time>
      </trkpt>
      <trkpt lat="49.9638" lon="2.11785">
        <ele>11.8</ele>
        <time>2023-06-28T08:26:51Z</time>
      </trkpt>
      <trkpt lat="49.9638" lon="2.11785">
        <ele>11.8</ele>
        <time>2023-06-28T08:26:52Z</time>
      </trkpt>
      <trkpt lat="49.9638" lon="2.11785">
        <ele>11.8</ele>
        <time>2023-06-28T08:26:53Z</time>
      </trkpt>
      <trkpt lat="49.9638" lon="2.11785">
        <ele>11.8</ele>
        <time>2023-06-28T08:26:54Z</time>
      </trkpt>
      <trkpt lat="49.9638" lon="2.11785">
        <ele>11.8</ele>
        <time>2023-06-28T08:26:55Z</time>
      </trkpt>
      <trkpt lat="49.9638" lon="2.11785">
        <ele>11.8</ele>
        <time>2023-06-28T08:26:56Z</time>
      </trkpt>
      <trkpt lat="49.9638" lon="2.11785">
        <ele>11.8</ele>
        <time>2023-06-28T08:26:57Z</time>
      </trkpt>
      <trkpt lat="49.9638" lon="2.11785">
        <ele>11.8</ele>
        <time>2023-06-28T08:26:58Z</time>
      </trkpt>
      <trkpt lat="49.9638" lon="2.11785">
        <ele>11.8</ele>
        <time>2023-06-28T08:26:59Z</time>
      </trkpt>
      <trkpt lat="49.9638" lon="2.11785">
        <ele>11.8</ele>
        <time>2023-06-28T08:27:00Z</time>
      </trkpt>
      <trkpt lat="49.9638" lon="2.11785">
        <ele>11.8</ele>
        <time>2023-06-28T08:27:01Z</time>
      </trkpt>
      <trkpt lat="49.9638" lon="2.11785">
        <ele>11.8</ele>
        <time>2023-06-28T08:27:02Z</time>
      </trkpt>
      <trkpt lat="49.9638" lon="2.11785">
        <ele>11.8</ele>
        <time>2023-06-28T08:27:03Z</time>
      </trkpt>
      <trkpt lat="49.9638" lon="2.11785">
        <ele>11.8</ele>
        <time>2023-06-28T08:27:04Z</time>
      </trkpt>
      <trkpt lat="49.9638" lon="2.11785">
        <ele>11.8</ele>
        <time>2023-06-28T08:27:05Z</time>
      </trkpt>
      <trkpt lat="49.9638" lon="2.11785">
        <ele>11.8</ele>
        <time>2023-06-28T08:27:06Z</time>
      </trkpt>
      <trkpt lat="49.9638" lon="2.11785">
        <ele>11.8</ele>
        <time>2023-06-28T08:27:07Z</time>
      </trkpt>
      <trkpt lat="49.9638" lon="2.11785">
        <ele>11.8</ele>
        <time>2023-06-28T08:27:08Z</time>
      </trkpt>
      <trkpt lat="49.9638" lon="2.11785">
        <ele>11.8</ele>
        <time>2023-06-28T08:27:09Z</time>
      </trkpt>
      <trkpt lat="49.9638" lon="2.11785">
        <ele>11.8</ele>
        <time>2023-06-28T08:27:10Z</time>
      </trkpt>
      <trkpt lat="49.9638" lon="2.11785">
        <ele>11.8</ele>
        <time>2023-06-28T08:27:11Z</time>
      </trkpt>
      <trkpt lat="49.9638" lon="2.11785">
        <ele>11.8</ele>
        <time>2023-06-28T08:27:12Z</time>
      </trkpt>
      <trkpt lat="49.9638" lon="2.11785">
        <ele>11.8</ele>
        <time>2023-06-28T08:27:13Z</time>
      </trkpt>
      <trkpt lat="49.9638" lon="2.11785">
        <ele>11.8</ele>
        <time>2023-06-28T08:27:14Z</time>
      </trkpt>
      <trkpt lat="49.9638" lon="2.11785">
        <ele>11.8</ele>
        <time>2023-06-28T08:27:15Z</time>
      </trkpt>
      <trkpt lat="49.9638" lon="2.11785">
        <ele>11.8</ele>
        <time>2023-06-28T08:27:16Z</time>
      </trkpt>
      <trkpt lat="49.9638" lon="2.11785">
        <ele>11.8</ele>
        <time>2023-06-28T08:27:17Z</time>
      </trkpt>
      <trkpt lat="49.9638" lon="2.11785">
        <ele>11.8</ele>
        <time>2023-06-28T08:27:18Z</time>
      </trkpt>
      <trkpt lat="49.9638" lon="2.11785">
        <ele>11.8</ele>
        <time>2023-06-28T08:27:19Z</time>
      </trkpt>
      <trkpt lat="49.9638" lon="2.11785">
        <ele>11.8</ele>
        <time>2023-06-28T08:27:20Z</time>
      </trkpt>
      <trkpt lat="49.9638" lon="2.11785">
        <ele>11.8</ele>
        <time>2023-06-28T08:27:21Z</time>
      </trkpt>
      <trkpt lat="49.9638" lon="2.11785">
        <ele>11.8</ele>
        <time>2023-06-28T08:27:22Z</time>
      </trkpt>
      <trkpt lat="49.9638" lon="2.11785">
        <ele>11.8</ele>
        <time>2023-06-28T08:27:23Z</time>
      </trkpt>
      <trkpt lat="49.9638" lon="2.11785">
        <ele>11.8</ele>
        <time>2023-06-28T08:27:24Z</time>
      </trkpt>
      <trkpt lat="49.9638" lon="2.11785">
        <ele>11.8</ele>
        <time>2023-06-28T08:27:25Z</time>
      </trkpt>
      <trkpt lat="49.9638" lon="2.11785">
        <ele>11.8</ele>
        <time>2023-06-28T08:27:26Z</time>
      </trkpt>
      <trkpt lat="49.9638" lon="2.11785">
        <ele>11.8</ele>
        <time>2023-06-28T08:27:27Z</time>
      </trkpt>
      <trkpt lat="49.9638" lon="2.11785">
        <ele>11.8</ele>
        <time>2023-06-28T08:27:28Z</time>
      </trkpt>
      <trkpt lat="49.9638" lon="2.11785">
        <ele>11.8</ele>
        <time>2023-06-28T08:27:29Z</time>
      </trkpt>
      <trkpt lat="49.9638" lon="2.11785">
        <ele>11.8</ele>
        <time>2023-06-28T08:27:30Z</time>
      </trkpt>
      <trkpt lat="49.9638" lon="2.11785">
        <ele>11.8</ele>
        <time>2023-06-28T08:27:31Z</time>
      </trkpt>
      <trkpt lat="49.9638" lon="2.11785">
        <ele>11.8</ele>
        <time>2023-06-28T08:27:32Z</time>
      </trkpt>
      <trkpt lat="49.9638" lon="2.11785">
        <ele>11.8</ele>
        <time>2023-06-28T08:27:33Z</time>
      </trkpt>
      <trkpt lat="49.9638" lon="2.11785">
        <ele>11.8</ele>
        <time>2023-06-28T08:27:34Z</time>
      </trkpt>
      <trkpt lat="49.9638" lon="2.11785">
        <ele>11.8</ele>
        <time>2023-06-28T08:27:35Z</time>
      </trkpt>
      <trkpt lat="49.9638" lon="2.11785">
        <ele>11.8</ele>
        <time>2023-06-28T08:27:36Z</time>
      </trkpt>
      <trkpt lat="49.9638" lon="2.11785">
        <ele>11.8</ele>
        <time>2023-06-28T08:27:37Z</time>
      </trkpt>
      <trkpt lat="49.9638" lon="2.11785">
        <ele>11.8</ele>
        <time>2023-06-28T08:27:38Z</time>
      </trkpt>
      <trkpt lat="49.9638" lon="2.11785">
        <ele>11.8</ele>
        <time>2023-06-28T08:27:39Z</time>
      </trkpt>
      <trkpt lat="49.9638" lon="2.11785">
        <ele>11.8</ele>
        <time>2023-06-28T08:27:40Z</time>
      </trkpt>
      <trkpt lat="49.9638" lon="2.11785">
        <ele>11.8</ele>
        <time>2023-06-28T08:27:41Z</time>
      </trkpt>
      <trkpt lat="49.9638" lon="2.11785">
        <ele>11.8</ele>
        <time>2023-06-28T08:27:42Z</time>
      </trkpt>
      <trkpt lat="49.9638" lon="2.11785">
        <ele>11.8</ele>
        <time>2023-06-28T08:27:43Z</time>
      </trkpt>
      <trkpt lat="49.9638" lon="2.11785">
        <ele>11.8</ele>
        <time>2023-06-28T08:27:44Z</time>
      </trkpt>
      <trkpt lat="49.9638" lon="2.11785">
        <ele>11.8</ele>
        <time>2023-06-28T08:27:45Z</time>
      </trkpt>
      <trkpt lat="49.9638" lon="2.11785">
        <ele>11.8</ele>
        <time>2023-06-28T08:27:46Z</time>
      </trkpt>
      <trkpt lat="49.9638" lon="2.11785">
        <ele>11.8</ele>
        <time>2023-06-28T08:27:47Z</time>
      </trkpt>
      <trkpt lat="49.9638" lon="2.11785">
        <ele>11.8</ele>
        <time>2023-06-28T08:27:48Z</time>
      </trkpt>
      <trkpt lat="49.9638" lon="2.11785">
        <ele>11.8</ele>
        <time>2023-06-28T08:27:49Z</time>
      </trkpt>
      <trkpt lat="49.9638" lon="2.11785">
        <ele>11.8</ele>
        <time>2023-06-28T08:27:50Z</time>
      </trkpt>
      <trkpt lat="49.9638" lon="2.11785">
        <ele>11.8</ele>
        <time>2023-06-28T08:27:51Z</time>
      </trkpt>
      <trkpt lat="49.9638" lon="2.11785">
        <ele>11.8</ele>
        <time>2023-06-28T08:27:52Z</time>
      </trkpt>
      <trkpt lat="49.9638" lon="2.11785">
        <ele>11.8</ele>
        <time>2023-06-28T08:27:53Z</time>
      </trkpt>
      <trkpt lat="49.9638" lon="2.11785">
        <ele>11.8</ele>
        <time>2023-06-28T08:27:54Z</time>
      </trkpt>
      <trkpt lat="49.9638" lon="2.11785">
        <ele>11.8</ele>
        <time>2023-06-28T08:27:55Z</time>
      </trkpt>
      <trkpt lat="49.9638" lon="2.11785">
        <ele>11.8</ele>
        <time>2023-06-28T08:27:56Z</time>
      </trkpt>
      <trkpt lat="49.9638" lon="2.11785">
        <ele>11.8</ele>
        <time>2023-06-28T08:27:57Z</time>
      </trkpt>
      <trkpt lat="49.9638" lon="2.11785">
        <ele>11.8</ele>
        <time>2023-06-28T08:27:58Z</time>
      </trkpt>
      <trkpt lat="49.9638" lon="2.11786">
        <ele>11.8</ele>
        <time>2023-06-28T08:27:59Z</time>
      </trkpt>
      <trkpt lat="49.96379" lon="2.11788">
        <ele>11.8</ele>
        <time>2023-06-28T08:28:00Z</time>
      </trkpt>
      <trkpt lat="49.96379" lon="2.11788">
        <ele>11.8</ele>
        <time>2023-06-28T08:28:01Z</time>
      </trkpt>
      <trkpt lat="49.96379" lon="2.11788">
        <ele>11.8</ele>
        <time>2023-06-28T08:28:02Z</time>
      </trkpt>
      <trkpt lat="49.96379" lon="2.11788">
        <ele>11.8</ele>
        <time>2023-06-28T08:28:03Z</time>
      </trkpt>
      <trkpt lat="49.96379" lon="2.11788">
        <ele>11.8</ele>
        <time>2023-06-28T08:28:04Z</time>
      </trkpt>
      <trkpt lat="49.96379" lon="2.11788">
        <ele>11.8</ele>
        <time>2023-06-28T08:28:05Z</time>
      </trkpt>
      <trkpt lat="49.96379" lon="2.11789">
        <ele>11.8</ele>
        <time>2023-06-28T08:28:06Z</time>
      </trkpt>
      <trkpt lat="49.96379" lon="2.11789">
        <ele>11.8</ele>
        <time>2023-06-28T08:28:07Z</time>
      </trkpt>
      <trkpt lat="49.96379" lon="2.11789">
        <ele>11.8</ele>
        <time>2023-06-28T08:28:08Z</time>
      </trkpt>
      <trkpt lat="49.96379" lon="2.11789">
        <ele>11.8</ele>
        <time>2023-06-28T08:28:09Z</time>
      </trkpt>
      <trkpt lat="49.96379" lon="2.11789">
        <ele>11.8</ele>
        <time>2023-06-28T08:28:10Z</time>
      </trkpt>
      <trkpt lat="49.96379" lon="2.11789">
        <ele>11.7</ele>
        <time>2023-06-28T08:28:11Z</time>
      </trkpt>
      <trkpt lat="49.96379" lon="2.11789">
        <ele>11.7</ele>
        <time>2023-06-28T08:28:12Z</time>
      </trkpt>
      <trkpt lat="49.96379" lon="2.11789">
        <ele>11.7</ele>
        <time>2023-06-28T08:28:13Z</time>
      </trkpt>
      <trkpt lat="49.96379" lon="2.11789">
        <ele>11.7</ele>
        <time>2023-06-28T08:28:14Z</time>
      </trkpt>
      <trkpt lat="49.96379" lon="2.1179">
        <ele>11.7</ele>
        <time>2023-06-28T08:28:15Z</time>
      </trkpt>
      <trkpt lat="49.96379" lon="2.1179">
        <ele>11.7</ele>
        <time>2023-06-28T08:28:16Z</time>
      </trkpt>
      <trkpt lat="49.96379" lon="2.1179">
        <ele>11.7</ele>
        <time>2023-06-28T08:28:17Z</time>
      </trkpt>
      <trkpt lat="49.96379" lon="2.1179">
        <ele>11.7</ele>
        <time>2023-06-28T08:28:18Z</time>
      </trkpt>
      <trkpt lat="49.96379" lon="2.1179">
        <ele>11.7</ele>
        <time>2023-06-28T08:28:19Z</time>
      </trkpt>
      <trkpt lat="49.96379" lon="2.1179">
        <ele>11.7</ele>
        <time>2023-06-28T08:28:20Z</time>
      </trkpt>
      <trkpt lat="49.96379" lon="2.1179">
        <ele>11.7</ele>
        <time>2023-06-28T08:28:21Z</time>
      </trkpt>
      <trkpt lat="49.96379" lon="2.1179">
        <ele>11.7</ele>
        <time>2023-06-28T08:28:22Z</time>
      </trkpt>
      <trkpt lat="49.96379" lon="2.1179">
        <ele>11.7</ele>
        <time>2023-06-28T08:28:23Z</time>
      </trkpt>
      <trkpt lat="49.96379" lon="2.1179">
        <ele>11.7</ele>
        <time>2023-06-28T08:28:24Z</time>
      </trkpt>
      <trkpt lat="49.96379" lon="2.1179">
        <ele>11.7</ele>
        <time>2023-06-28T08:28:25Z</time>
      </trkpt>
      <trkpt lat="49.96379" lon="2.1179">
        <ele>11.7</ele>
        <time>2023-06-28T08:28:26Z</time>
      </trkpt>
      <trkpt lat="49.96379" lon="2.1179">
        <ele>11.7</ele>
        <time>2023-06-28T08:28:27Z</time>
      </trkpt>
      <trkpt lat="49.96379" lon="2.1179">
        <ele>11.7</ele>
        <time>2023-06-28T08:28:28Z</time>
      </trkpt>
      <trkpt lat="49.96379" lon="2.1179">
        <ele>11.7</ele>
        <time>2023-06-28T08:28:29Z</time>
      </trkpt>
      <trkpt lat="49.96379" lon="2.1179">
        <ele>11.7</ele>
        <time>2023-06-28T08:28:30Z</time>
      </trkpt>
      <trkpt lat="49.96379" lon="2.1179">
        <ele>11.7</ele>
        <time>2023-06-28T08:28:31Z</time>
      </trkpt>
      <trkpt lat="49.96379" lon="2.1179">
        <ele>11.7</ele>
        <time>2023-06-28T08:28:32Z</time>
      </trkpt>
      <trkpt lat="49.96379" lon="2.1179">
        <ele>11.7</ele>
        <time>2023-06-28T08:28:33Z</time>
      </trkpt>
      <trkpt lat="49.96379" lon="2.1179">
        <ele>11.7</ele>
        <time>2023-06-28T08:28:34Z</time>
      </trkpt>
      <trkpt lat="49.96379" lon="2.1179">
        <ele>11.7</ele>
        <time>2023-06-28T08:28:35Z</time>
      </trkpt>
      <trkpt lat="49.96379" lon="2.1179">
        <ele>11.7</ele>
        <time>2023-06-28T08:28:36Z</time>
      </trkpt>
      <trkpt lat="49.96379" lon="2.1179">
        <ele>11.7</ele>
        <time>2023-06-28T08:28:37Z</time>
      </trkpt>
      <trkpt lat="49.96379" lon="2.1179">
        <ele>11.7</ele>
        <time>2023-06-28T08:28:38Z</time>
      </trkpt>
      <trkpt lat="49.96379" lon="2.1179">
        <ele>11.7</ele>
        <time>2023-06-28T08:28:39Z</time>
      </trkpt>
      <trkpt lat="49.96379" lon="2.1179">
        <ele>11.7</ele>
        <time>2023-06-28T08:28:40Z</time>
      </trkpt>
      <trkpt lat="49.96379" lon="2.1179">
        <ele>11.7</ele>
        <time>2023-06-28T08:28:41Z</time>
      </trkpt>
      <trkpt lat="49.96379" lon="2.1179">
        <ele>11.7</ele>
        <time>2023-06-28T08:28:42Z</time>
      </trkpt>
      <trkpt lat="49.96379" lon="2.11789">
        <ele>11.7</ele>
        <time>2023-06-28T08:28:43Z</time>
      </trkpt>
      <trkpt lat="49.96379" lon="2.11789">
        <ele>11.7</ele>
        <time>2023-06-28T08:28:44Z</time>
      </trkpt>
      <trkpt lat="49.96379" lon="2.11789">
        <ele>11.7</ele>
        <time>2023-06-28T08:28:45Z</time>
      </trkpt>
      <trkpt lat="49.96379" lon="2.11789">
        <ele>11.7</ele>
        <time>2023-06-28T08:28:46Z</time>
      </trkpt>
      <trkpt lat="49.96379" lon="2.11788">
        <ele>11.7</ele>
        <time>2023-06-28T08:28:47Z</time>
      </trkpt>
      <trkpt lat="49.96379" lon="2.11789">
        <ele>11.7</ele>
        <time>2023-06-28T08:28:48Z</time>
      </trkpt>
      <trkpt lat="49.96379" lon="2.11788">
        <ele>11.7</ele>
        <time>2023-06-28T08:28:49Z</time>
      </trkpt>
      <trkpt lat="49.96379" lon="2.11789">
        <ele>11.7</ele>
        <time>2023-06-28T08:28:50Z</time>
      </trkpt>
      <trkpt lat="49.96379" lon="2.11788">
        <ele>11.7</ele>
        <time>2023-06-28T08:28:51Z</time>
      </trkpt>
      <trkpt lat="49.96379" lon="2.11787">
        <ele>11.7</ele>
        <time>2023-06-28T08:28:52Z</time>
      </trkpt>
      <trkpt lat="49.96379" lon="2.11787">
        <ele>11.7</ele>
        <time>2023-06-28T08:28:53Z</time>
      </trkpt>
      <trkpt lat="49.96379" lon="2.11786">
        <ele>11.7</ele>
        <time>2023-06-28T08:28:54Z</time>
      </trkpt>
      <trkpt lat="49.96379" lon="2.11785">
        <ele>11.7</ele>
        <time>2023-06-28T08:28:55Z</time>
      </trkpt>
      <trkpt lat="49.96379" lon="2.11783">
        <ele>11.7</ele>
        <time>2023-06-28T08:28:56Z</time>
      </trkpt>
      <trkpt lat="49.96378" lon="2.1178">
        <ele>11.7</ele>
        <time>2023-06-28T08:28:57Z</time>
      </trkpt>
      <trkpt lat="49.96378" lon="2.11778">
        <ele>11.7</ele>
        <time>2023-06-28T08:28:58Z</time>
      </trkpt>
      <trkpt lat="49.96377" lon="2.11777">
        <ele>11.6</ele>
        <time>2023-06-28T08:28:59Z</time>
      </trkpt>
      <trkpt lat="49.96377" lon="2.11775">
        <ele>11.6</ele>
        <time>2023-06-28T08:29:00Z</time>
      </trkpt>
      <trkpt lat="49.96376" lon="2.11772">
        <ele>11.6</ele>
        <time>2023-06-28T08:29:01Z</time>
      </trkpt>
      <trkpt lat="49.96375" lon="2.11769">
        <ele>11.6</ele>
        <time>2023-06-28T08:29:02Z</time>
      </trkpt>
      <trkpt lat="49.96375" lon="2.11767">
        <ele>11.6</ele>
        <time>2023-06-28T08:29:03Z</time>
      </trkpt>
      <trkpt lat="49.96373" lon="2.11764">
        <ele>11.6</ele>
        <time>2023-06-28T08:29:04Z</time>
      </trkpt>
      <trkpt lat="49.96373" lon="2.11763">
        <ele>11.6</ele>
        <time>2023-06-28T08:29:05Z</time>
      </trkpt>
      <trkpt lat="49.96373" lon="2.11762">
        <ele>11.6</ele>
        <time>2023-06-28T08:29:06Z</time>
      </trkpt>
      <trkpt lat="49.96372" lon="2.11761">
        <ele>11.6</ele>
        <time>2023-06-28T08:29:07Z</time>
      </trkpt>
      <trkpt lat="49.96372" lon="2.1176">
        <ele>11.5</ele>
        <time>2023-06-28T08:29:08Z</time>
      </trkpt>
      <trkpt lat="49.96371" lon="2.11759">
        <ele>11.5</ele>
        <time>2023-06-28T08:29:09Z</time>
      </trkpt>
      <trkpt lat="49.96371" lon="2.11758">
        <ele>11.5</ele>
        <time>2023-06-28T08:29:10Z</time>
      </trkpt>
      <trkpt lat="49.96371" lon="2.11756">
        <ele>11.5</ele>
        <time>2023-06-28T08:29:11Z</time>
      </trkpt>
      <trkpt lat="49.96371" lon="2.11755">
        <ele>11.5</ele>
        <time>2023-06-28T08:29:12Z</time>
      </trkpt>
      <trkpt lat="49.9637" lon="2.11753">
        <ele>11.5</ele>
        <time>2023-06-28T08:29:13Z</time>
      </trkpt>
      <trkpt lat="49.96369" lon="2.11749">
        <ele>11.5</ele>
        <time>2023-06-28T08:29:14Z</time>
      </trkpt>
      <trkpt lat="49.96369" lon="2.11748">
        <ele>11.5</ele>
        <time>2023-06-28T08:29:15Z</time>
      </trkpt>
      <trkpt lat="49.96368" lon="2.11745">
        <ele>11.5</ele>
        <time>2023-06-28T08:29:16Z</time>
      </trkpt>
      <trkpt lat="49.96368" lon="2.11744">
        <ele>11.5</ele>
        <time>2023-06-28T08:29:17Z</time>
      </trkpt>
      <trkpt lat="49.96367" lon="2.11742">
        <ele>11.5</ele>
        <time>2023-06-28T08:29:18Z</time>
      </trkpt>
      <trkpt lat="49.96367" lon="2.1174">
        <ele>11.5</ele>
        <time>2023-06-28T08:29:19Z</time>
      </trkpt>
      <trkpt lat="49.96367" lon="2.11738">
        <ele>11.5</ele>
        <time>2023-06-28T08:29:20Z</time>
      </trkpt>
      <trkpt lat="49.96366" lon="2.11735">
        <ele>11.5</ele>
        <time>2023-06-28T08:29:21Z</time>
      </trkpt>
      <trkpt lat="49.96366" lon="2.11734">
        <ele>11.5</ele>
        <time>2023-06-28T08:29:22Z</time>
      </trkpt>
      <trkpt lat="49.96366" lon="2.11732">
        <ele>11.5</ele>
        <time>2023-06-28T08:29:23Z</time>
      </trkpt>
      <trkpt lat="49.96366" lon="2.1173">
        <ele>11.5</ele>
        <time>2023-06-28T08:29:24Z</time>
      </trkpt>
      <trkpt lat="49.96366" lon="2.11729">
        <ele>11.5</ele>
        <time>2023-06-28T08:29:25Z</time>
      </trkpt>
      <trkpt lat="49.96365" lon="2.11727">
        <ele>11.5</ele>
        <time>2023-06-28T08:29:26Z</time>
      </trkpt>
      <trkpt lat="49.96365" lon="2.11726">
        <ele>11.5</ele>
        <time>2023-06-28T08:29:27Z</time>
      </trkpt>
      <trkpt lat="49.96365" lon="2.11724">
        <ele>11.5</ele>
        <time>2023-06-28T08:29:28Z</time>
      </trkpt>
      <trkpt lat="49.96365" lon="2.11723">
        <ele>11.5</ele>
        <time>2023-06-28T08:29:29Z</time>
      </trkpt>
      <trkpt lat="49.96365" lon="2.11721">
        <ele>11.5</ele>
        <time>2023-06-28T08:29:30Z</time>
      </trkpt>
      <trkpt lat="49.96365" lon="2.11719">
        <ele>11.5</ele>
        <time>2023-06-28T08:29:31Z</time>
      </trkpt>
      <trkpt lat="49.96364" lon="2.11718">
        <ele>11.5</ele>
        <time>2023-06-28T08:29:32Z</time>
      </trkpt>
      <trkpt lat="49.96364" lon="2.11716">
        <ele>11.5</ele>
        <time>2023-06-28T08:29:33Z</time>
      </trkpt>
      <trkpt lat="49.96364" lon="2.11714">
        <ele>11.5</ele>
        <time>2023-06-28T08:29:34Z</time>
      </trkpt>
      <trkpt lat="49.96364" lon="2.11713">
        <ele>11.5</ele>
        <time>2023-06-28T08:29:35Z</time>
      </trkpt>
      <trkpt lat="49.96364" lon="2.11711">
        <ele>11.5</ele>
        <time>2023-06-28T08:29:36Z</time>
      </trkpt>
      <trkpt lat="49.96364" lon="2.11709">
        <ele>11.5</ele>
        <time>2023-06-28T08:29:37Z</time>
      </trkpt>
      <trkpt lat="49.96364" lon="2.11708">
        <ele>11.5</ele>
        <time>2023-06-28T08:29:38Z</time>
      </trkpt>
      <trkpt lat="49.96363" lon="2.11704">
        <ele>11.5</ele>
        <time>2023-06-28T08:29:39Z</time>
      </trkpt>
      <trkpt lat="49.96363" lon="2.11703">
        <ele>11.5</ele>
        <time>2023-06-28T08:29:40Z</time>
      </trkpt>
      <trkpt lat="49.96363" lon="2.11702">
        <ele>11.4</ele>
        <time>2023-06-28T08:29:41Z</time>
      </trkpt>
      <trkpt lat="49.96363" lon="2.11701">
        <ele>11.4</ele>
        <time>2023-06-28T08:29:42Z</time>
      </trkpt>
      <trkpt lat="49.96363" lon="2.11699">
        <ele>11.4</ele>
        <time>2023-06-28T08:29:43Z</time>
      </trkpt>
      <trkpt lat="49.96362" lon="2.11698">
        <ele>11.4</ele>
        <time>2023-06-28T08:29:44Z</time>
      </trkpt>
      <trkpt lat="49.96362" lon="2.11697">
        <ele>11.4</ele>
        <time>2023-06-28T08:29:45Z</time>
      </trkpt>
      <trkpt lat="49.96362" lon="2.11696">
        <ele>11.4</ele>
        <time>2023-06-28T08:29:46Z</time>
      </trkpt>
      <trkpt lat="49.96361" lon="2.11694">
        <ele>11.4</ele>
        <time>2023-06-28T08:29:47Z</time>
      </trkpt>
      <trkpt lat="49.96361" lon="2.11693">
        <ele>11.4</ele>
        <time>2023-06-28T08:29:48Z</time>
      </trkpt>
      <trkpt lat="49.96361" lon="2.11692">
        <ele>11.4</ele>
        <time>2023-06-28T08:29:49Z</time>
      </trkpt>
      <trkpt lat="49.9636" lon="2.11691">
        <ele>11.4</ele>
        <time>2023-06-28T08:29:50Z</time>
      </trkpt>
      <trkpt lat="49.9636" lon="2.11689">
        <ele>11.4</ele>
        <time>2023-06-28T08:29:51Z</time>
      </trkpt>
      <trkpt lat="49.96359" lon="2.11688">
        <ele>11.4</ele>
        <time>2023-06-28T08:29:52Z</time>
      </trkpt>
      <trkpt lat="49.96359" lon="2.11687">
        <ele>11.4</ele>
        <time>2023-06-28T08:29:53Z</time>
      </trkpt>
      <trkpt lat="49.96358" lon="2.11686">
        <ele>11.4</ele>
        <time>2023-06-28T08:29:54Z</time>
      </trkpt>
      <trkpt lat="49.96358" lon="2.11685">
        <ele>11.4</ele>
        <time>2023-06-28T08:29:55Z</time>
      </trkpt>
      <trkpt lat="49.96357" lon="2.11683">
        <ele>11.4</ele>
        <time>2023-06-28T08:29:56Z</time>
      </trkpt>
      <trkpt lat="49.96357" lon="2.11682">
        <ele>11.4</ele>
        <time>2023-06-28T08:29:57Z</time>
      </trkpt>
      <trkpt lat="49.96356" lon="2.1168">
        <ele>11.4</ele>
        <time>2023-06-28T08:29:58Z</time>
      </trkpt>
      <trkpt lat="49.96356" lon="2.11679">
        <ele>11.4</ele>
        <time>2023-06-28T08:29:59Z</time>
      </trkpt>
      <trkpt lat="49.96356" lon="2.11678">
        <ele>11.4</ele>
        <time>2023-06-28T08:30:00Z</time>
      </trkpt>
      <trkpt lat="49.96355" lon="2.11677">
        <ele>11.4</ele>
        <time>2023-06-28T08:30:01Z</time>
      </trkpt>
      <trkpt lat="49.96355" lon="2.11676">
        <ele>11.4</ele>
        <time>2023-06-28T08:30:02Z</time>
      </trkpt>
      <trkpt lat="49.96355" lon="2.11675">
        <ele>11.4</ele>
        <time>2023-06-28T08:30:03Z</time>
      </trkpt>
      <trkpt lat="49.96354" lon="2.11674">
        <ele>11.4</ele>
        <time>2023-06-28T08:30:04Z</time>
      </trkpt>
      <trkpt lat="49.96354" lon="2.11673">
        <ele>11.4</ele>
        <time>2023-06-28T08:30:05Z</time>
      </trkpt>
      <trkpt lat="49.96353" lon="2.11672">
        <ele>11.4</ele>
        <time>2023-06-28T08:30:06Z</time>
      </trkpt>
      <trkpt lat="49.96353" lon="2.1167">
        <ele>11.4</ele>
        <time>2023-06-28T08:30:07Z</time>
      </trkpt>
      <trkpt lat="49.96352" lon="2.11669">
        <ele>11.4</ele>
        <time>2023-06-28T08:30:08Z</time>
      </trkpt>
      <trkpt lat="49.96352" lon="2.11668">
        <ele>11.4</ele>
        <time>2023-06-28T08:30:09Z</time>
      </trkpt>
      <trkpt lat="49.96351" lon="2.11667">
        <ele>11.4</ele>
        <time>2023-06-28T08:30:10Z</time>
      </trkpt>
      <trkpt lat="49.96351" lon="2.11666">
        <ele>11.4</ele>
        <time>2023-06-28T08:30:11Z</time>
      </trkpt>
      <trkpt lat="49.96351" lon="2.11665">
        <ele>11.4</ele>
        <time>2023-06-28T08:30:12Z</time>
      </trkpt>
      <trkpt lat="49.9635" lon="2.11663">
        <ele>11.4</ele>
        <time>2023-06-28T08:30:13Z</time>
      </trkpt>
      <trkpt lat="49.9635" lon="2.11662">
        <ele>11.4</ele>
        <time>2023-06-28T08:30:14Z</time>
      </trkpt>
      <trkpt lat="49.96349" lon="2.11661">
        <ele>11.4</ele>
        <time>2023-06-28T08:30:15Z</time>
      </trkpt>
      <trkpt lat="49.96349" lon="2.1166">
        <ele>11.4</ele>
        <time>2023-06-28T08:30:16Z</time>
      </trkpt>
      <trkpt lat="49.96348" lon="2.11659">
        <ele>11.4</ele>
        <time>2023-06-28T08:30:17Z</time>
      </trkpt>
      <trkpt lat="49.96348" lon="2.11658">
        <ele>11.4</ele>
        <time>2023-06-28T08:30:18Z</time>
      </trkpt>
      <trkpt lat="49.96347" lon="2.11656">
        <ele>11.4</ele>
        <time>2023-06-28T08:30:19Z</time>
      </trkpt>
      <trkpt lat="49.96347" lon="2.11655">
        <ele>11.4</ele>
        <time>2023-06-28T08:30:20Z</time>
      </trkpt>
      <trkpt lat="49.96346" lon="2.11654">
        <ele>11.4</ele>
        <time>2023-06-28T08:30:21Z</time>
      </trkpt>
      <trkpt lat="49.96346" lon="2.11653">
        <ele>11.4</ele>
        <time>2023-06-28T08:30:22Z</time>
      </trkpt>
      <trkpt lat="49.96345" lon="2.11651">
        <ele>11.4</ele>
        <time>2023-06-28T08:30:23Z</time>
      </trkpt>
      <trkpt lat="49.96345" lon="2.1165">
        <ele>11.4</ele>
        <time>2023-06-28T08:30:24Z</time>
      </trkpt>
      <trkpt lat="49.96345" lon="2.11649">
        <ele>11.4</ele>
        <time>2023-06-28T08:30:25Z</time>
      </trkpt>
      <trkpt lat="49.96345" lon="2.11648">
        <ele>11.4</ele>
        <time>2023-06-28T08:30:26Z</time>
      </trkpt>
      <trkpt lat="49.96344" lon="2.11647">
        <ele>11.4</ele>
        <time>2023-06-28T08:30:27Z</time>
      </trkpt>
      <trkpt lat="49.96344" lon="2.11646">
        <ele>11.3</ele>
        <time>2023-06-28T08:30:28Z</time>
      </trkpt>
      <trkpt lat="49.96343" lon="2.11645">
        <ele>11.3</ele>
        <time>2023-06-28T08:30:29Z</time>
      </trkpt>
      <trkpt lat="49.96343" lon="2.11644">
        <ele>11.3</ele>
        <time>2023-06-28T08:30:30Z</time>
      </trkpt>
      <trkpt lat="49.96343" lon="2.11643">
        <ele>11.3</ele>
        <time>2023-06-28T08:30:31Z</time>
      </trkpt>
      <trkpt lat="49.96342" lon="2.11642">
        <ele>11.3</ele>
        <time>2023-06-28T08:30:32Z</time>
      </trkpt>
      <trkpt lat="49.96342" lon="2.11641">
        <ele>11.3</ele>
        <time>2023-06-28T08:30:33Z</time>
      </trkpt>
      <trkpt lat="49.96342" lon="2.1164">
        <ele>11.3</ele>
        <time>2023-06-28T08:30:34Z</time>
      </trkpt>
      <trkpt lat="49.96341" lon="2.11639">
        <ele>11.3</ele>
        <time>2023-06-28T08:30:35Z</time>
      </trkpt>
      <trkpt lat="49.96341" lon="2.11638">
        <ele>11.3</ele>
        <time>2023-06-28T08:30:36Z</time>
      </trkpt>
      <trkpt lat="49.96341" lon="2.11637">
        <ele>11.3</ele>
        <time>2023-06-28T08:30:37Z</time>
      </trkpt>
      <trkpt lat="49.96341" lon="2.11636">
        <ele>11.3</ele>
        <time>2023-06-28T08:30:38Z</time>
      </trkpt>
      <trkpt lat="49.96341" lon="2.11634">
        <ele>11.3</ele>
        <time>2023-06-28T08:30:39Z</time>
      </trkpt>
      <trkpt lat="49.96341" lon="2.11633">
        <ele>11.3</ele>
        <time>2023-06-28T08:30:40Z</time>
      </trkpt>
      <trkpt lat="49.96341" lon="2.11632">
        <ele>11.3</ele>
        <time>2023-06-28T08:30:41Z</time>
      </trkpt>
      <trkpt lat="49.96341" lon="2.11631">
        <ele>11.3</ele>
        <time>2023-06-28T08:30:42Z</time>
      </trkpt>
      <trkpt lat="49.9634" lon="2.1163">
        <ele>11.3</ele>
        <time>2023-06-28T08:30:43Z</time>
      </trkpt>
      <trkpt lat="49.9634" lon="2.11628">
        <ele>11.3</ele>
        <time>2023-06-28T08:30:44Z</time>
      </trkpt>
      <trkpt lat="49.9634" lon="2.11627">
        <ele>11.3</ele>
        <time>2023-06-28T08:30:45Z</time>
      </trkpt>
      <trkpt lat="49.9634" lon="2.11626">
        <ele>11.3</ele>
        <time>2023-06-28T08:30:46Z</time>
      </trkpt>
      <trkpt lat="49.96339" lon="2.11625">
        <ele>11.3</ele>
        <time>2023-06-28T08:30:47Z</time>
      </trkpt>
      <trkpt lat="49.96339" lon="2.11624">
        <ele>11.3</ele>
        <time>2023-06-28T08:30:48Z</time>
      </trkpt>
      <trkpt lat="49.96339" lon="2.11621">
        <ele>11.3</ele>
        <time>2023-06-28T08:30:49Z</time>
      </trkpt>
      <trkpt lat="49.96339" lon="2.1162">
        <ele>11.3</ele>
        <time>2023-06-28T08:30:50Z</time>
      </trkpt>
      <trkpt lat="49.96338" lon="2.11619">
        <ele>11.3</ele>
        <time>2023-06-28T08:30:51Z</time>
      </trkpt>
      <trkpt lat="49.96338" lon="2.11618">
        <ele>11.3</ele>
        <time>2023-06-28T08:30:52Z</time>
      </trkpt>
      <trkpt lat="49.96338" lon="2.11616">
        <ele>11.3</ele>
        <time>2023-06-28T08:30:53Z</time>
      </trkpt>
      <trkpt lat="49.96338" lon="2.11615">
        <ele>11.3</ele>
        <time>2023-06-28T08:30:54Z</time>
      </trkpt>
      <trkpt lat="49.96337" lon="2.11613">
        <ele>11.3</ele>
        <time>2023-06-28T08:30:55Z</time>
      </trkpt>
      <trkpt lat="49.96337" lon="2.11612">
        <ele>11.3</ele>
        <time>2023-06-28T08:30:56Z</time>
      </trkpt>
      <trkpt lat="49.96336" lon="2.1161">
        <ele>11.3</ele>
        <time>2023-06-28T08:30:57Z</time>
      </trkpt>
      <trkpt lat="49.96336" lon="2.11609">
        <ele>11.3</ele>
        <time>2023-06-28T08:30:58Z</time>
      </trkpt>
      <trkpt lat="49.96336" lon="2.11607">
        <ele>11.3</ele>
        <time>2023-06-28T08:30:59Z</time>
      </trkpt>
      <trkpt lat="49.96336" lon="2.11605">
        <ele>11.3</ele>
        <time>2023-06-28T08:31:00Z</time>
      </trkpt>
      <trkpt lat="49.96335" lon="2.11604">
        <ele>11.3</ele>
        <time>2023-06-28T08:31:01Z</time>
      </trkpt>
      <trkpt lat="49.96335" lon="2.11602">
        <ele>11.3</ele>
        <time>2023-06-28T08:31:02Z</time>
      </trkpt>
      <trkpt lat="49.96335" lon="2.116">
        <ele>11.3</ele>
        <time>2023-06-28T08:31:03Z</time>
      </trkpt>
      <trkpt lat="49.96335" lon="2.11599">
        <ele>11.3</ele>
        <time>2023-06-28T08:31:04Z</time>
      </trkpt>
      <trkpt lat="49.96335" lon="2.11597">
        <ele>11.3</ele>
        <time>2023-06-28T08:31:05Z</time>
      </trkpt>
      <trkpt lat="49.96334" lon="2.11595">
        <ele>11.3</ele>
        <time>2023-06-28T08:31:06Z</time>
      </trkpt>
      <trkpt lat="49.96334" lon="2.11593">
        <ele>11.3</ele>
        <time>2023-06-28T08:31:07Z</time>
      </trkpt>
      <trkpt lat="49.96334" lon="2.11592">
        <ele>11.3</ele>
        <time>2023-06-28T08:31:08Z</time>
      </trkpt>
      <trkpt lat="49.96334" lon="2.1159">
        <ele>11.3</ele>
        <time>2023-06-28T08:31:09Z</time>
      </trkpt>
      <trkpt lat="49.96334" lon="2.11589">
        <ele>11.3</ele>
        <time>2023-06-28T08:31:10Z</time>
      </trkpt>
      <trkpt lat="49.96334" lon="2.11587">
        <ele>11.3</ele>
        <time>2023-06-28T08:31:11Z</time>
      </trkpt>
      <trkpt lat="49.96334" lon="2.11586">
        <ele>11.3</ele>
        <time>2023-06-28T08:31:12Z</time>
      </trkpt>
      <trkpt lat="49.96333" lon="2.11584">
        <ele>11.3</ele>
        <time>2023-06-28T08:31:13Z</time>
      </trkpt>
      <trkpt lat="49.96333" lon="2.11583">
        <ele>11.3</ele>
        <time>2023-06-28T08:31:14Z</time>
      </trkpt>
      <trkpt lat="49.96333" lon="2.11581">
        <ele>11.3</ele>
        <time>2023-06-28T08:31:15Z</time>
      </trkpt>
      <trkpt lat="49.96333" lon="2.1158">
        <ele>11.3</ele>
        <time>2023-06-28T08:31:16Z</time>
      </trkpt>
      <trkpt lat="49.96333" lon="2.11578">
        <ele>11.3</ele>
        <time>2023-06-28T08:31:17Z</time>
      </trkpt>
      <trkpt lat="49.96333" lon="2.11577">
        <ele>11.3</ele>
        <time>2023-06-28T08:31:18Z</time>
      </trkpt>
      <trkpt lat="49.96333" lon="2.11576">
        <ele>11.3</ele>
        <time>2023-06-28T08:31:19Z</time>
      </trkpt>
      <trkpt lat="49.96332" lon="2.11574">
        <ele>11.3</ele>
        <time>2023-06-28T08:31:20Z</time>
      </trkpt>
      <trkpt lat="49.96332" lon="2.11573">
        <ele>11.3</ele>
        <time>2023-06-28T08:31:21Z</time>
      </trkpt>
      <trkpt lat="49.96332" lon="2.11572">
        <ele>11.3</ele>
        <time>2023-06-28T08:31:22Z</time>
      </trkpt>
      <trkpt lat="49.96332" lon="2.1157">
        <ele>11.3</ele>
        <time>2023-06-28T08:31:23Z</time>
      </trkpt>
      <trkpt lat="49.96331" lon="2.11569">
        <ele>11.3</ele>
        <time>2023-06-28T08:31:24Z</time>
      </trkpt>
      <trkpt lat="49.96331" lon="2.11567">
        <ele>11.3</ele>
        <time>2023-06-28T08:31:25Z</time>
      </trkpt>
      <trkpt lat="49.9633" lon="2.11566">
        <ele>11.3</ele>
        <time>2023-06-28T08:31:26Z</time>
      </trkpt>
      <trkpt lat="49.9633" lon="2.11565">
        <ele>11.3</ele>
        <time>2023-06-28T08:31:27Z</time>
      </trkpt>
      <trkpt lat="49.9633" lon="2.11564">
        <ele>11.3</ele>
        <time>2023-06-28T08:31:28Z</time>
      </trkpt>
      <trkpt lat="49.96329" lon="2.11562">
        <ele>11.3</ele>
        <time>2023-06-28T08:31:29Z</time>
      </trkpt>
      <trkpt lat="49.96329" lon="2.11561">
        <ele>11.3</ele>
        <time>2023-06-28T08:31:30Z</time>
      </trkpt>
      <trkpt lat="49.96328" lon="2.11559">
        <ele>11.3</ele>
        <time>2023-06-28T08:31:31Z</time>
      </trkpt>
      <trkpt lat="49.96328" lon="2.11557">
        <ele>11.3</ele>
        <time>2023-06-28T08:31:32Z</time>
      </trkpt>
      <trkpt lat="49.96328" lon="2.11556">
        <ele>11.3</ele>
        <time>2023-06-28T08:31:33Z</time>
      </trkpt>
      <trkpt lat="49.96327" lon="2.11554">
        <ele>11.3</ele>
        <time>2023-06-28T08:31:34Z</time>
      </trkpt>
      <trkpt lat="49.96327" lon="2.11553">
        <ele>11.3</ele>
        <time>2023-06-28T08:31:35Z</time>
      </trkpt>
      <trkpt lat="49.96327" lon="2.11551">
        <ele>11.3</ele>
        <time>2023-06-28T08:31:36Z</time>
      </trkpt>
      <trkpt lat="49.96326" lon="2.1155">
        <ele>11.3</ele>
        <time>2023-06-28T08:31:37Z</time>
      </trkpt>
      <trkpt lat="49.96326" lon="2.11549">
        <ele>11.3</ele>
        <time>2023-06-28T08:31:38Z</time>
      </trkpt>
      <trkpt lat="49.96325" lon="2.11547">
        <ele>11.3</ele>
        <time>2023-06-28T08:31:39Z</time>
      </trkpt>
      <trkpt lat="49.96325" lon="2.11546">
        <ele>11.3</ele>
        <time>2023-06-28T08:31:40Z</time>
      </trkpt>
      <trkpt lat="49.96325" lon="2.11545">
        <ele>11.3</ele>
        <time>2023-06-28T08:31:41Z</time>
      </trkpt>
      <trkpt lat="49.96324" lon="2.11544">
        <ele>11.3</ele>
        <time>2023-06-28T08:31:42Z</time>
      </trkpt>
      <trkpt lat="49.96324" lon="2.11543">
        <ele>11.3</ele>
        <time>2023-06-28T08:31:43Z</time>
      </trkpt>
      <trkpt lat="49.96324" lon="2.11542">
        <ele>11.3</ele>
        <time>2023-06-28T08:31:44Z</time>
      </trkpt>
      <trkpt lat="49.96323" lon="2.11541">
        <ele>11.3</ele>
        <time>2023-06-28T08:31:45Z</time>
      </trkpt>
      <trkpt lat="49.96323" lon="2.1154">
        <ele>11.3</ele>
        <time>2023-06-28T08:31:46Z</time>
      </trkpt>
      <trkpt lat="49.96323" lon="2.11539">
        <ele>11.3</ele>
        <time>2023-06-28T08:31:47Z</time>
      </trkpt>
      <trkpt lat="49.96323" lon="2.11538">
        <ele>11.3</ele>
        <time>2023-06-28T08:31:48Z</time>
      </trkpt>
      <trkpt lat="49.96322" lon="2.11537">
        <ele>11.3</ele>
        <time>2023-06-28T08:31:49Z</time>
      </trkpt>
      <trkpt lat="49.96322" lon="2.11535">
        <ele>11.3</ele>
        <time>2023-06-28T08:31:50Z</time>
      </trkpt>
      <trkpt lat="49.96322" lon="2.11534">
        <ele>11.3</ele>
        <time>2023-06-28T08:31:51Z</time>
      </trkpt>
      <trkpt lat="49.96321" lon="2.11533">
        <ele>11.3</ele>
        <time>2023-06-28T08:31:52Z</time>
      </trkpt>
      <trkpt lat="49.96321" lon="2.11531">
        <ele>11.3</ele>
        <time>2023-06-28T08:31:53Z</time>
      </trkpt>
      <trkpt lat="49.96321" lon="2.1153">
        <ele>11.3</ele>
        <time>2023-06-28T08:31:54Z</time>
      </trkpt>
      <trkpt lat="49.9632" lon="2.11529">
        <ele>11.3</ele>
        <time>2023-06-28T08:31:55Z</time>
      </trkpt>
      <trkpt lat="49.9632" lon="2.11528">
        <ele>11.3</ele>
        <time>2023-06-28T08:31:56Z</time>
      </trkpt>
      <trkpt lat="49.9632" lon="2.11526">
        <ele>11.3</ele>
        <time>2023-06-28T08:31:57Z</time>
      </trkpt>
      <trkpt lat="49.96319" lon="2.11525">
        <ele>11.3</ele>
        <time>2023-06-28T08:31:58Z</time>
      </trkpt>
      <trkpt lat="49.96318" lon="2.11523">
        <ele>11.3</ele>
        <time>2023-06-28T08:31:59Z</time>
      </trkpt>
      <trkpt lat="49.96318" lon="2.11521">
        <ele>11.3</ele>
        <time>2023-06-28T08:32:00Z</time>
      </trkpt>
      <trkpt lat="49.96317" lon="2.1152">
        <ele>11.3</ele>
        <time>2023-06-28T08:32:01Z</time>
      </trkpt>
      <trkpt lat="49.96317" lon="2.11518">
        <ele>11.3</ele>
        <time>2023-06-28T08:32:02Z</time>
      </trkpt>
      <trkpt lat="49.96317" lon="2.11516">
        <ele>11.3</ele>
        <time>2023-06-28T08:32:03Z</time>
      </trkpt>
      <trkpt lat="49.96316" lon="2.11514">
        <ele>11.3</ele>
        <time>2023-06-28T08:32:04Z</time>
      </trkpt>
      <trkpt lat="49.96316" lon="2.11512">
        <ele>11.3</ele>
        <time>2023-06-28T08:32:05Z</time>
      </trkpt>
      <trkpt lat="49.96316" lon="2.11511">
        <ele>11.3</ele>
        <time>2023-06-28T08:32:06Z</time>
      </trkpt>
      <trkpt lat="49.96315" lon="2.11509">
        <ele>11.3</ele>
        <time>2023-06-28T08:32:07Z</time>
      </trkpt>
      <trkpt lat="49.96315" lon="2.11506">
        <ele>11.3</ele>
        <time>2023-06-28T08:32:08Z</time>
      </trkpt>
      <trkpt lat="49.96314" lon="2.11505">
        <ele>11.3</ele>
        <time>2023-06-28T08:32:09Z</time>
      </trkpt>
      <trkpt lat="49.96314" lon="2.11504">
        <ele>11.3</ele>
        <time>2023-06-28T08:32:10Z</time>
      </trkpt>
      <trkpt lat="49.96314" lon="2.11502">
        <ele>11.3</ele>
        <time>2023-06-28T08:32:11Z</time>
      </trkpt>
      <trkpt lat="49.96313" lon="2.11501">
        <ele>11.3</ele>
        <time>2023-06-28T08:32:12Z</time>
      </trkpt>
      <trkpt lat="49.96313" lon="2.11499">
        <ele>11.3</ele>
        <time>2023-06-28T08:32:13Z</time>
      </trkpt>
      <trkpt lat="49.96313" lon="2.11497">
        <ele>11.3</ele>
        <time>2023-06-28T08:32:14Z</time>
      </trkpt>
      <trkpt lat="49.96312" lon="2.11495">
        <ele>11.2</ele>
        <time>2023-06-28T08:32:15Z</time>
      </trkpt>
      <trkpt lat="49.96312" lon="2.11494">
        <ele>11.2</ele>
        <time>2023-06-28T08:32:16Z</time>
      </trkpt>
      <trkpt lat="49.96312" lon="2.11492">
        <ele>11.2</ele>
        <time>2023-06-28T08:32:17Z</time>
      </trkpt>
      <trkpt lat="49.96312" lon="2.1149">
        <ele>11.2</ele>
        <time>2023-06-28T08:32:18Z</time>
      </trkpt>
      <trkpt lat="49.96312" lon="2.11488">
        <ele>11.2</ele>
        <time>2023-06-28T08:32:19Z</time>
      </trkpt>
      <trkpt lat="49.96311" lon="2.11487">
        <ele>11.2</ele>
        <time>2023-06-28T08:32:20Z</time>
      </trkpt>
      <trkpt lat="49.96311" lon="2.11485">
        <ele>11.2</ele>
        <time>2023-06-28T08:32:21Z</time>
      </trkpt>
      <trkpt lat="49.96311" lon="2.11483">
        <ele>11.2</ele>
        <time>2023-06-28T08:32:22Z</time>
      </trkpt>
      <trkpt lat="49.96311" lon="2.11482">
        <ele>11.2</ele>
        <time>2023-06-28T08:32:23Z</time>
      </trkpt>
      <trkpt lat="49.96311" lon="2.1148">
        <ele>11.2</ele>
        <time>2023-06-28T08:32:24Z</time>
      </trkpt>
      <trkpt lat="49.96312" lon="2.11479">
        <ele>11.2</ele>
        <time>2023-06-28T08:32:25Z</time>
      </trkpt>
      <trkpt lat="49.96312" lon="2.11477">
        <ele>11.2</ele>
        <time>2023-06-28T08:32:26Z</time>
      </trkpt>
      <trkpt lat="49.96312" lon="2.11476">
        <ele>11.2</ele>
        <time>2023-06-28T08:32:27Z</time>
      </trkpt>
      <trkpt lat="49.96313" lon="2.11474">
        <ele>11.2</ele>
        <time>2023-06-28T08:32:28Z</time>
      </trkpt>
      <trkpt lat="49.96314" lon="2.11473">
        <ele>11.2</ele>
        <time>2023-06-28T08:32:29Z</time>
      </trkpt>
      <trkpt lat="49.96314" lon="2.11472">
        <ele>11.2</ele>
        <time>2023-06-28T08:32:30Z</time>
      </trkpt>
      <trkpt lat="49.96315" lon="2.1147">
        <ele>11.2</ele>
        <time>2023-06-28T08:32:31Z</time>
      </trkpt>
      <trkpt lat="49.96315" lon="2.11469">
        <ele>11.2</ele>
        <time>2023-06-28T08:32:32Z</time>
      </trkpt>
      <trkpt lat="49.96316" lon="2.11468">
        <ele>11.2</ele>
        <time>2023-06-28T08:32:33Z</time>
      </trkpt>
      <trkpt lat="49.96317" lon="2.11466">
        <ele>11.2</ele>
        <time>2023-06-28T08:32:34Z</time>
      </trkpt>
      <trkpt lat="49.96318" lon="2.11465">
        <ele>11.2</ele>
        <time>2023-06-28T08:32:35Z</time>
      </trkpt>
      <trkpt lat="49.96318" lon="2.11463">
        <ele>11.2</ele>
        <time>2023-06-28T08:32:36Z</time>
      </trkpt>
      <trkpt lat="49.96319" lon="2.11462">
        <ele>11.2</ele>
        <time>2023-06-28T08:32:37Z</time>
      </trkpt>
      <trkpt lat="49.9632" lon="2.1146">
        <ele>11.2</ele>
        <time>2023-06-28T08:32:38Z</time>
      </trkpt>
      <trkpt lat="49.9632" lon="2.11459">
        <ele>11.2</ele>
        <time>2023-06-28T08:32:39Z</time>
      </trkpt>
      <trkpt lat="49.96321" lon="2.11457">
        <ele>11.2</ele>
        <time>2023-06-28T08:32:40Z</time>
      </trkpt>
      <trkpt lat="49.96321" lon="2.11456">
        <ele>11.2</ele>
        <time>2023-06-28T08:32:41Z</time>
      </trkpt>
      <trkpt lat="49.96322" lon="2.11455">
        <ele>11.2</ele>
        <time>2023-06-28T08:32:42Z</time>
      </trkpt>
      <trkpt lat="49.96322" lon="2.11454">
        <ele>11.2</ele>
        <time>2023-06-28T08:32:43Z</time>
      </trkpt>
      <trkpt lat="49.96323" lon="2.11452">
        <ele>11.2</ele>
        <time>2023-06-28T08:32:44Z</time>
      </trkpt>
      <trkpt lat="49.96324" lon="2.11451">
        <ele>11.2</ele>
        <time>2023-06-28T08:32:45Z</time>
      </trkpt>
      <trkpt lat="49.96325" lon="2.1145">
        <ele>11.2</ele>
        <time>2023-06-28T08:32:46Z</time>
      </trkpt>
      <trkpt lat="49.96325" lon="2.11449">
        <ele>11.2</ele>
        <time>2023-06-28T08:32:47Z</time>
      </trkpt>
      <trkpt lat="49.96326" lon="2.11448">
        <ele>11.2</ele>
        <time>2023-06-28T08:32:48Z</time>
      </trkpt>
      <trkpt lat="49.96327" lon="2.11446">
        <ele>11.2</ele>
        <time>2023-06-28T08:32:49Z</time>
      </trkpt>
      <trkpt lat="49.96327" lon="2.11445">
        <ele>11.2</ele>
        <time>2023-06-28T08:32:50Z</time>
      </trkpt>
      <trkpt lat="49.96328" lon="2.11444">
        <ele>11.2</ele>
        <time>2023-06-28T08:32:51Z</time>
      </trkpt>
      <trkpt lat="49.96329" lon="2.11443">
        <ele>11.2</ele>
        <time>2023-06-28T08:32:52Z</time>
      </trkpt>
      <trkpt lat="49.9633" lon="2.11441">
        <ele>11.2</ele>
        <time>2023-06-28T08:32:53Z</time>
      </trkpt>
      <trkpt lat="49.9633" lon="2.1144">
        <ele>11.2</ele>
        <time>2023-06-28T08:32:54Z</time>
      </trkpt>
      <trkpt lat="49.96331" lon="2.11439">
        <ele>11.2</ele>
        <time>2023-06-28T08:32:55Z</time>
      </trkpt>
      <trkpt lat="49.96332" lon="2.11437">
        <ele>11.2</ele>
        <time>2023-06-28T08:32:56Z</time>
      </trkpt>
      <trkpt lat="49.96333" lon="2.11436">
        <ele>11.2</ele>
        <time>2023-06-28T08:32:57Z</time>
      </trkpt>
      <trkpt lat="49.96334" lon="2.11435">
        <ele>11.2</ele>
        <time>2023-06-28T08:32:58Z</time>
      </trkpt>
      <trkpt lat="49.96334" lon="2.11434">
        <ele>11.2</ele>
        <time>2023-06-28T08:32:59Z</time>
      </trkpt>
      <trkpt lat="49.96335" lon="2.11433">
        <ele>11.2</ele>
        <time>2023-06-28T08:33:00Z</time>
      </trkpt>
      <trkpt lat="49.96336" lon="2.11432">
        <ele>11.2</ele>
        <time>2023-06-28T08:33:01Z</time>
      </trkpt>
      <trkpt lat="49.96336" lon="2.11431">
        <ele>11.2</ele>
        <time>2023-06-28T08:33:02Z</time>
      </trkpt>
      <trkpt lat="49.96337" lon="2.1143">
        <ele>11.2</ele>
        <time>2023-06-28T08:33:03Z</time>
      </trkpt>
      <trkpt lat="49.96338" lon="2.11429">
        <ele>11.2</ele>
        <time>2023-06-28T08:33:04Z</time>
      </trkpt>
      <trkpt lat="49.96338" lon="2.11428">
        <ele>11.2</ele>
        <time>2023-06-28T08:33:05Z</time>
      </trkpt>
      <trkpt lat="49.96339" lon="2.11427">
        <ele>11.2</ele>
        <time>2023-06-28T08:33:06Z</time>
      </trkpt>
      <trkpt lat="49.96339" lon="2.11426">
        <ele>11.2</ele>
        <time>2023-06-28T08:33:07Z</time>
      </trkpt>
      <trkpt lat="49.9634" lon="2.11425">
        <ele>11.2</ele>
        <time>2023-06-28T08:33:08Z</time>
      </trkpt>
      <trkpt lat="49.9634" lon="2.11423">
        <ele>11.2</ele>
        <time>2023-06-28T08:33:09Z</time>
      </trkpt>
      <trkpt lat="49.96341" lon="2.11422">
        <ele>11.1</ele>
        <time>2023-06-28T08:33:10Z</time>
      </trkpt>
      <trkpt lat="49.96342" lon="2.11421">
        <ele>11.1</ele>
        <time>2023-06-28T08:33:11Z</time>
      </trkpt>
      <trkpt lat="49.96342" lon="2.11419">
        <ele>11.1</ele>
        <time>2023-06-28T08:33:12Z</time>
      </trkpt>
      <trkpt lat="49.96343" lon="2.11417">
        <ele>11.1</ele>
        <time>2023-06-28T08:33:13Z</time>
      </trkpt>
      <trkpt lat="49.96343" lon="2.11416">
        <ele>11.1</ele>
        <time>2023-06-28T08:33:14Z</time>
      </trkpt>
      <trkpt lat="49.96344" lon="2.11414">
        <ele>11.1</ele>
        <time>2023-06-28T08:33:15Z</time>
      </trkpt>
      <trkpt lat="49.96344" lon="2.11412">
        <ele>11.1</ele>
        <time>2023-06-28T08:33:16Z</time>
      </trkpt>
      <trkpt lat="49.96345" lon="2.11411">
        <ele>11.1</ele>
        <time>2023-06-28T08:33:17Z</time>
      </trkpt>
      <trkpt lat="49.96345" lon="2.11408">
        <ele>11.1</ele>
        <time>2023-06-28T08:33:18Z</time>
      </trkpt>
      <trkpt lat="49.96346" lon="2.11407">
        <ele>11.1</ele>
        <time>2023-06-28T08:33:19Z</time>
      </trkpt>
      <trkpt lat="49.96346" lon="2.11405">
        <ele>11.1</ele>
        <time>2023-06-28T08:33:20Z</time>
      </trkpt>
      <trkpt lat="49.96347" lon="2.11404">
        <ele>11.1</ele>
        <time>2023-06-28T08:33:21Z</time>
      </trkpt>
      <trkpt lat="49.96347" lon="2.11402">
        <ele>11.1</ele>
        <time>2023-06-28T08:33:22Z</time>
      </trkpt>
      <trkpt lat="49.96347" lon="2.11401">
        <ele>11.1</ele>
        <time>2023-06-28T08:33:23Z</time>
      </trkpt>
      <trkpt lat="49.96348" lon="2.114">
        <ele>11.1</ele>
        <time>2023-06-28T08:33:24Z</time>
      </trkpt>
      <trkpt lat="49.96348" lon="2.11399">
        <ele>11.1</ele>
        <time>2023-06-28T08:33:25Z</time>
      </trkpt>
      <trkpt lat="49.96348" lon="2.11398">
        <ele>11.1</ele>
        <time>2023-06-28T08:33:26Z</time>
      </trkpt>
      <trkpt lat="49.96349" lon="2.11397">
        <ele>11.1</ele>
        <time>2023-06-28T08:33:27Z</time>
      </trkpt>
      <trkpt lat="49.96349" lon="2.11396">
        <ele>11.1</ele>
        <time>2023-06-28T08:33:28Z</time>
      </trkpt>
      <trkpt lat="49.9635" lon="2.11395">
        <ele>11.1</ele>
        <time>2023-06-28T08:33:29Z</time>
      </trkpt>
      <trkpt lat="49.96351" lon="2.11394">
        <ele>11.1</ele>
        <time>2023-06-28T08:33:30Z</time>
      </trkpt>
      <trkpt lat="49.96351" lon="2.11393">
        <ele>11.1</ele>
        <time>2023-06-28T08:33:31Z</time>
      </trkpt>
      <trkpt lat="49.96352" lon="2.11392">
        <ele>11.1</ele>
        <time>2023-06-28T08:33:32Z</time>
      </trkpt>
      <trkpt lat="49.96353" lon="2.11391">
        <ele>11.1</ele>
        <time>2023-06-28T08:33:33Z</time>
      </trkpt>
      <trkpt lat="49.96353" lon="2.1139">
        <ele>11.1</ele>
        <time>2023-06-28T08:33:34Z</time>
      </trkpt>
      <trkpt lat="49.96354" lon="2.11389">
        <ele>11.1</ele>
        <time>2023-06-28T08:33:35Z</time>
      </trkpt>
      <trkpt lat="49.96355" lon="2.11388">
        <ele>11.1</ele>
        <time>2023-06-28T08:33:36Z</time>
      </trkpt>
      <trkpt lat="49.96356" lon="2.11386">
        <ele>11</ele>
        <time>2023-06-28T08:33:37Z</time>
      </trkpt>
      <trkpt lat="49.96356" lon="2.11385">
        <ele>11</ele>
        <time>2023-06-28T08:33:38Z</time>
      </trkpt>
      <trkpt lat="49.96357" lon="2.11383">
        <ele>11</ele>
        <time>2023-06-28T08:33:39Z</time>
      </trkpt>
      <trkpt lat="49.96358" lon="2.11381">
        <ele>11</ele>
        <time>2023-06-28T08:33:40Z</time>
      </trkpt>
      <trkpt lat="49.96358" lon="2.1138">
        <ele>11</ele>
        <time>2023-06-28T08:33:41Z</time>
      </trkpt>
      <trkpt lat="49.96359" lon="2.11379">
        <ele>11</ele>
        <time>2023-06-28T08:33:42Z</time>
      </trkpt>
      <trkpt lat="49.9636" lon="2.11378">
        <ele>11</ele>
        <time>2023-06-28T08:33:43Z</time>
      </trkpt>
      <trkpt lat="49.96361" lon="2.11376">
        <ele>11</ele>
        <time>2023-06-28T08:33:44Z</time>
      </trkpt>
      <trkpt lat="49.96361" lon="2.11375">
        <ele>11</ele>
        <time>2023-06-28T08:33:45Z</time>
      </trkpt>
      <trkpt lat="49.96362" lon="2.11374">
        <ele>11</ele>
        <time>2023-06-28T08:33:46Z</time>
      </trkpt>
      <trkpt lat="49.96362" lon="2.11373">
        <ele>11</ele>
        <time>2023-06-28T08:33:47Z</time>
      </trkpt>
      <trkpt lat="49.96363" lon="2.11371">
        <ele>11</ele>
        <time>2023-06-28T08:33:48Z</time>
      </trkpt>
      <trkpt lat="49.96364" lon="2.1137">
        <ele>11</ele>
        <time>2023-06-28T08:33:49Z</time>
      </trkpt>
      <trkpt lat="49.96364" lon="2.1137">
        <ele>11</ele>
        <time>2023-06-28T08:33:50Z</time>
      </trkpt>
      <trkpt lat="49.96365" lon="2.11368">
        <ele>11</ele>
        <time>2023-06-28T08:33:51Z</time>
      </trkpt>
      <trkpt lat="49.96365" lon="2.11367">
        <ele>11</ele>
        <time>2023-06-28T08:33:52Z</time>
      </trkpt>
      <trkpt lat="49.96366" lon="2.11366">
        <ele>11</ele>
        <time>2023-06-28T08:33:53Z</time>
      </trkpt>
      <trkpt lat="49.96367" lon="2.11365">
        <ele>11</ele>
        <time>2023-06-28T08:33:54Z</time>
      </trkpt>
      <trkpt lat="49.96367" lon="2.11364">
        <ele>11</ele>
        <time>2023-06-28T08:33:55Z</time>
      </trkpt>
      <trkpt lat="49.96368" lon="2.11363">
        <ele>11</ele>
        <time>2023-06-28T08:33:56Z</time>
      </trkpt>
      <trkpt lat="49.96368" lon="2.11362">
        <ele>11</ele>
        <time>2023-06-28T08:33:57Z</time>
      </trkpt>
      <trkpt lat="49.96369" lon="2.11361">
        <ele>11</ele>
        <time>2023-06-28T08:33:58Z</time>
      </trkpt>
      <trkpt lat="49.96369" lon="2.11359">
        <ele>11</ele>
        <time>2023-06-28T08:33:59Z</time>
      </trkpt>
      <trkpt lat="49.9637" lon="2.11358">
        <ele>11</ele>
        <time>2023-06-28T08:34:00Z</time>
      </trkpt>
      <trkpt lat="49.96371" lon="2.11357">
        <ele>11</ele>
        <time>2023-06-28T08:34:01Z</time>
      </trkpt>
      <trkpt lat="49.96371" lon="2.11355">
        <ele>11</ele>
        <time>2023-06-28T08:34:02Z</time>
      </trkpt>
      <trkpt lat="49.96372" lon="2.11354">
        <ele>11</ele>
        <time>2023-06-28T08:34:03Z</time>
      </trkpt>
      <trkpt lat="49.96373" lon="2.11353">
        <ele>11</ele>
        <time>2023-06-28T08:34:04Z</time>
      </trkpt>
      <trkpt lat="49.96374" lon="2.11352">
        <ele>11</ele>
        <time>2023-06-28T08:34:05Z</time>
      </trkpt>
      <trkpt lat="49.96374" lon="2.11351">
        <ele>11</ele>
        <time>2023-06-28T08:34:06Z</time>
      </trkpt>
      <trkpt lat="49.96375" lon="2.1135">
        <ele>11</ele>
        <time>2023-06-28T08:34:07Z</time>
      </trkpt>
      <trkpt lat="49.96375" lon="2.11349">
        <ele>11</ele>
        <time>2023-06-28T08:34:08Z</time>
      </trkpt>
      <trkpt lat="49.96376" lon="2.11347">
        <ele>11</ele>
        <time>2023-06-28T08:34:09Z</time>
      </trkpt>
      <trkpt lat="49.96377" lon="2.11346">
        <ele>11</ele>
        <time>2023-06-28T08:34:10Z</time>
      </trkpt>
      <trkpt lat="49.96378" lon="2.11345">
        <ele>11</ele>
        <time>2023-06-28T08:34:11Z</time>
      </trkpt>
      <trkpt lat="49.96378" lon="2.11344">
        <ele>11</ele>
        <time>2023-06-28T08:34:12Z</time>
      </trkpt>
      <trkpt lat="49.96379" lon="2.11343">
        <ele>11</ele>
        <time>2023-06-28T08:34:13Z</time>
      </trkpt>
      <trkpt lat="49.9638" lon="2.11342">
        <ele>10.9</ele>
        <time>2023-06-28T08:34:14Z</time>
      </trkpt>
      <trkpt lat="49.9638" lon="2.11341">
        <ele>10.9</ele>
        <time>2023-06-28T08:34:15Z</time>
      </trkpt>
      <trkpt lat="49.96381" lon="2.11339">
        <ele>10.9</ele>
        <time>2023-06-28T08:34:16Z</time>
      </trkpt>
      <trkpt lat="49.96381" lon="2.11338">
        <ele>10.9</ele>
        <time>2023-06-28T08:34:17Z</time>
      </trkpt>
      <trkpt lat="49.96382" lon="2.11336">
        <ele>10.9</ele>
        <time>2023-06-28T08:34:18Z</time>
      </trkpt>
      <trkpt lat="49.96382" lon="2.11335">
        <ele>10.9</ele>
        <time>2023-06-28T08:34:19Z</time>
      </trkpt>
      <trkpt lat="49.96383" lon="2.11334">
        <ele>10.9</ele>
        <time>2023-06-28T08:34:20Z</time>
      </trkpt>
      <trkpt lat="49.96383" lon="2.11332">
        <ele>10.9</ele>
        <time>2023-06-28T08:34:21Z</time>
      </trkpt>
      <trkpt lat="49.96383" lon="2.11331">
        <ele>10.9</ele>
        <time>2023-06-28T08:34:22Z</time>
      </trkpt>
      <trkpt lat="49.96384" lon="2.11329">
        <ele>10.9</ele>
        <time>2023-06-28T08:34:23Z</time>
      </trkpt>
      <trkpt lat="49.96384" lon="2.11328">
        <ele>10.9</ele>
        <time>2023-06-28T08:34:24Z</time>
      </trkpt>
      <trkpt lat="49.96385" lon="2.11326">
        <ele>10.9</ele>
        <time>2023-06-28T08:34:25Z</time>
      </trkpt>
      <trkpt lat="49.96386" lon="2.11325">
        <ele>10.9</ele>
        <time>2023-06-28T08:34:26Z</time>
      </trkpt>
      <trkpt lat="49.96386" lon="2.11323">
        <ele>10.9</ele>
        <time>2023-06-28T08:34:27Z</time>
      </trkpt>
      <trkpt lat="49.96387" lon="2.11322">
        <ele>10.9</ele>
        <time>2023-06-28T08:34:28Z</time>
      </trkpt>
      <trkpt lat="49.96387" lon="2.11321">
        <ele>10.9</ele>
        <time>2023-06-28T08:34:29Z</time>
      </trkpt>
      <trkpt lat="49.96387" lon="2.11319">
        <ele>10.9</ele>
        <time>2023-06-28T08:34:30Z</time>
      </trkpt>
      <trkpt lat="49.96388" lon="2.11318">
        <ele>10.9</ele>
        <time>2023-06-28T08:34:31Z</time>
      </trkpt>
      <trkpt lat="49.96389" lon="2.11316">
        <ele>10.9</ele>
        <time>2023-06-28T08:34:32Z</time>
      </trkpt>
      <trkpt lat="49.96389" lon="2.11315">
        <ele>10.9</ele>
        <time>2023-06-28T08:34:33Z</time>
      </trkpt>
      <trkpt lat="49.9639" lon="2.11313">
        <ele>10.9</ele>
        <time>2023-06-28T08:34:34Z</time>
      </trkpt>
      <trkpt lat="49.96391" lon="2.11312">
        <ele>10.9</ele>
        <time>2023-06-28T08:34:35Z</time>
      </trkpt>
      <trkpt lat="49.96391" lon="2.11311">
        <ele>10.9</ele>
        <time>2023-06-28T08:34:36Z</time>
      </trkpt>
      <trkpt lat="49.96392" lon="2.1131">
        <ele>10.9</ele>
        <time>2023-06-28T08:34:37Z</time>
      </trkpt>
      <trkpt lat="49.96393" lon="2.11309">
        <ele>10.9</ele>
        <time>2023-06-28T08:34:38Z</time>
      </trkpt>
      <trkpt lat="49.96393" lon="2.11307">
        <ele>10.9</ele>
        <time>2023-06-28T08:34:39Z</time>
      </trkpt>
      <trkpt lat="49.96394" lon="2.11306">
        <ele>10.9</ele>
        <time>2023-06-28T08:34:40Z</time>
      </trkpt>
      <trkpt lat="49.96395" lon="2.11305">
        <ele>10.9</ele>
        <time>2023-06-28T08:34:41Z</time>
      </trkpt>
      <trkpt lat="49.96396" lon="2.11304">
        <ele>10.9</ele>
        <time>2023-06-28T08:34:42Z</time>
      </trkpt>
      <trkpt lat="49.96397" lon="2.11301">
        <ele>10.9</ele>
        <time>2023-06-28T08:34:43Z</time>
      </trkpt>
      <trkpt lat="49.96398" lon="2.11301">
        <ele>10.9</ele>
        <time>2023-06-28T08:34:44Z</time>
      </trkpt>
      <trkpt lat="49.96398" lon="2.113">
        <ele>10.9</ele>
        <time>2023-06-28T08:34:45Z</time>
      </trkpt>
      <trkpt lat="49.96399" lon="2.11299">
        <ele>10.9</ele>
        <time>2023-06-28T08:34:46Z</time>
      </trkpt>
      <trkpt lat="49.964" lon="2.11298">
        <ele>10.9</ele>
        <time>2023-06-28T08:34:47Z</time>
      </trkpt>
      <trkpt lat="49.96401" lon="2.11297">
        <ele>10.9</ele>
        <time>2023-06-28T08:34:48Z</time>
      </trkpt>
      <trkpt lat="49.96402" lon="2.11296">
        <ele>10.9</ele>
        <time>2023-06-28T08:34:49Z</time>
      </trkpt>
      <trkpt lat="49.96402" lon="2.11294">
        <ele>10.9</ele>
        <time>2023-06-28T08:34:50Z</time>
      </trkpt>
      <trkpt lat="49.96403" lon="2.11293">
        <ele>10.9</ele>
        <time>2023-06-28T08:34:51Z</time>
      </trkpt>
      <trkpt lat="49.96404" lon="2.11292">
        <ele>10.9</ele>
        <time>2023-06-28T08:34:52Z</time>
      </trkpt>
      <trkpt lat="49.96404" lon="2.11291">
        <ele>11</ele>
        <time>2023-06-28T08:34:53Z</time>
      </trkpt>
      <trkpt lat="49.96405" lon="2.1129">
        <ele>11</ele>
        <time>2023-06-28T08:34:54Z</time>
      </trkpt>
      <trkpt lat="49.96406" lon="2.11289">
        <ele>11</ele>
        <time>2023-06-28T08:34:55Z</time>
      </trkpt>
      <trkpt lat="49.96407" lon="2.11287">
        <ele>11</ele>
        <time>2023-06-28T08:34:56Z</time>
      </trkpt>
      <trkpt lat="49.96407" lon="2.11286">
        <ele>11</ele>
        <time>2023-06-28T08:34:57Z</time>
      </trkpt>
      <trkpt lat="49.96409" lon="2.11284">
        <ele>11</ele>
        <time>2023-06-28T08:34:58Z</time>
      </trkpt>
      <trkpt lat="49.96409" lon="2.11283">
        <ele>11</ele>
        <time>2023-06-28T08:34:59Z</time>
      </trkpt>
      <trkpt lat="49.9641" lon="2.11282">
        <ele>11</ele>
        <time>2023-06-28T08:35:00Z</time>
      </trkpt>
      <trkpt lat="49.96411" lon="2.1128">
        <ele>11</ele>
        <time>2023-06-28T08:35:01Z</time>
      </trkpt>
      <trkpt lat="49.96412" lon="2.11279">
        <ele>11</ele>
        <time>2023-06-28T08:35:02Z</time>
      </trkpt>
      <trkpt lat="49.96412" lon="2.11278">
        <ele>11</ele>
        <time>2023-06-28T08:35:03Z</time>
      </trkpt>
      <trkpt lat="49.96413" lon="2.11275">
        <ele>11</ele>
        <time>2023-06-28T08:35:04Z</time>
      </trkpt>
      <trkpt lat="49.96414" lon="2.11274">
        <ele>11</ele>
        <time>2023-06-28T08:35:05Z</time>
      </trkpt>
      <trkpt lat="49.96414" lon="2.11273">
        <ele>11</ele>
        <time>2023-06-28T08:35:06Z</time>
      </trkpt>
      <trkpt lat="49.96415" lon="2.11272">
        <ele>11</ele>
        <time>2023-06-28T08:35:07Z</time>
      </trkpt>
      <trkpt lat="49.96416" lon="2.1127">
        <ele>11</ele>
        <time>2023-06-28T08:35:08Z</time>
      </trkpt>
      <trkpt lat="49.96416" lon="2.11268">
        <ele>11</ele>
        <time>2023-06-28T08:35:09Z</time>
      </trkpt>
      <trkpt lat="49.96417" lon="2.11267">
        <ele>11</ele>
        <time>2023-06-28T08:35:10Z</time>
      </trkpt>
      <trkpt lat="49.96417" lon="2.11266">
        <ele>11</ele>
        <time>2023-06-28T08:35:11Z</time>
      </trkpt>
      <trkpt lat="49.96418" lon="2.11264">
        <ele>11.1</ele>
        <time>2023-06-28T08:35:12Z</time>
      </trkpt>
      <trkpt lat="49.96419" lon="2.11263">
        <ele>11.1</ele>
        <time>2023-06-28T08:35:13Z</time>
      </trkpt>
      <trkpt lat="49.9642" lon="2.11262">
        <ele>11.1</ele>
        <time>2023-06-28T08:35:14Z</time>
      </trkpt>
      <trkpt lat="49.9642" lon="2.1126">
        <ele>11.1</ele>
        <time>2023-06-28T08:35:15Z</time>
      </trkpt>
      <trkpt lat="49.96421" lon="2.11259">
        <ele>11.1</ele>
        <time>2023-06-28T08:35:16Z</time>
      </trkpt>
      <trkpt lat="49.96422" lon="2.11257">
        <ele>11.1</ele>
        <time>2023-06-28T08:35:17Z</time>
      </trkpt>
      <trkpt lat="49.96422" lon="2.11256">
        <ele>11.1</ele>
        <time>2023-06-28T08:35:18Z</time>
      </trkpt>
      <trkpt lat="49.96423" lon="2.11255">
        <ele>11.1</ele>
        <time>2023-06-28T08:35:19Z</time>
      </trkpt>
      <trkpt lat="49.96423" lon="2.11253">
        <ele>11.1</ele>
        <time>2023-06-28T08:35:20Z</time>
      </trkpt>
      <trkpt lat="49.96424" lon="2.11252">
        <ele>11.1</ele>
        <time>2023-06-28T08:35:21Z</time>
      </trkpt>
      <trkpt lat="49.96424" lon="2.11251">
        <ele>11.1</ele>
        <time>2023-06-28T08:35:22Z</time>
      </trkpt>
      <trkpt lat="49.96425" lon="2.1125">
        <ele>11.1</ele>
        <time>2023-06-28T08:35:23Z</time>
      </trkpt>
      <trkpt lat="49.96425" lon="2.11249">
        <ele>11.1</ele>
        <time>2023-06-28T08:35:24Z</time>
      </trkpt>
      <trkpt lat="49.96425" lon="2.11247">
        <ele>11.1</ele>
        <time>2023-06-28T08:35:25Z</time>
      </trkpt>
      <trkpt lat="49.96425" lon="2.11246">
        <ele>11.1</ele>
        <time>2023-06-28T08:35:26Z</time>
      </trkpt>
      <trkpt lat="49.96426" lon="2.11245">
        <ele>11.2</ele>
        <time>2023-06-28T08:35:27Z</time>
      </trkpt>
      <trkpt lat="49.96426" lon="2.11244">
        <ele>11.2</ele>
        <time>2023-06-28T08:35:28Z</time>
      </trkpt>
      <trkpt lat="49.96426" lon="2.11243">
        <ele>11.2</ele>
        <time>2023-06-28T08:35:29Z</time>
      </trkpt>
      <trkpt lat="49.96426" lon="2.11242">
        <ele>11.2</ele>
        <time>2023-06-28T08:35:30Z</time>
      </trkpt>
      <trkpt lat="49.96426" lon="2.11241">
        <ele>11.2</ele>
        <time>2023-06-28T08:35:31Z</time>
      </trkpt>
      <trkpt lat="49.96426" lon="2.1124">
        <ele>11.2</ele>
        <time>2023-06-28T08:35:32Z</time>
      </trkpt>
      <trkpt lat="49.96425" lon="2.11239">
        <ele>11.2</ele>
        <time>2023-06-28T08:35:33Z</time>
      </trkpt>
      <trkpt lat="49.96424" lon="2.11238">
        <ele>11.2</ele>
        <time>2023-06-28T08:35:34Z</time>
      </trkpt>
      <trkpt lat="49.96424" lon="2.11237">
        <ele>11.2</ele>
        <time>2023-06-28T08:35:35Z</time>
      </trkpt>
      <trkpt lat="49.96423" lon="2.11236">
        <ele>11.3</ele>
        <time>2023-06-28T08:35:36Z</time>
      </trkpt>
      <trkpt lat="49.96422" lon="2.11235">
        <ele>11.3</ele>
        <time>2023-06-28T08:35:37Z</time>
      </trkpt>
      <trkpt lat="49.96422" lon="2.11235">
        <ele>11.3</ele>
        <time>2023-06-28T08:35:38Z</time>
      </trkpt>
      <trkpt lat="49.96421" lon="2.11234">
        <ele>11.3</ele>
        <time>2023-06-28T08:35:39Z</time>
      </trkpt>
      <trkpt lat="49.9642" lon="2.11233">
        <ele>11.3</ele>
        <time>2023-06-28T08:35:40Z</time>
      </trkpt>
      <trkpt lat="49.96419" lon="2.11233">
        <ele>11.3</ele>
        <time>2023-06-28T08:35:41Z</time>
      </trkpt>
      <trkpt lat="49.96419" lon="2.11233">
        <ele>11.3</ele>
        <time>2023-06-28T08:35:42Z</time>
      </trkpt>
      <trkpt lat="49.96418" lon="2.11232">
        <ele>11.3</ele>
        <time>2023-06-28T08:35:43Z</time>
      </trkpt>
      <trkpt lat="49.96417" lon="2.11232">
        <ele>11.3</ele>
        <time>2023-06-28T08:35:44Z</time>
      </trkpt>
      <trkpt lat="49.96417" lon="2.11232">
        <ele>11.4</ele>
        <time>2023-06-28T08:35:45Z</time>
      </trkpt>
      <trkpt lat="49.96416" lon="2.11231">
        <ele>11.4</ele>
        <time>2023-06-28T08:35:46Z</time>
      </trkpt>
      <trkpt lat="49.96415" lon="2.11231">
        <ele>11.4</ele>
        <time>2023-06-28T08:35:47Z</time>
      </trkpt>
      <trkpt lat="49.96415" lon="2.11231">
        <ele>11.4</ele>
        <time>2023-06-28T08:35:48Z</time>
      </trkpt>
      <trkpt lat="49.96415" lon="2.11231">
        <ele>11.4</ele>
        <time>2023-06-28T08:35:49Z</time>
      </trkpt>
      <trkpt lat="49.96414" lon="2.1123">
        <ele>11.4</ele>
        <time>2023-06-28T08:35:50Z</time>
      </trkpt>
      <trkpt lat="49.96414" lon="2.1123">
        <ele>11.4</ele>
        <time>2023-06-28T08:35:51Z</time>
      </trkpt>
      <trkpt lat="49.96413" lon="2.1123">
        <ele>11.4</ele>
        <time>2023-06-28T08:35:52Z</time>
      </trkpt>
      <trkpt lat="49.96413" lon="2.11229">
        <ele>11.4</ele>
        <time>2023-06-28T08:35:53Z</time>
      </trkpt>
      <trkpt lat="49.96412" lon="2.11229">
        <ele>11.4</ele>
        <time>2023-06-28T08:35:54Z</time>
      </trkpt>
      <trkpt lat="49.96412" lon="2.11229">
        <ele>11.4</ele>
        <time>2023-06-28T08:35:55Z</time>
      </trkpt>
      <trkpt lat="49.96411" lon="2.11228">
        <ele>11.4</ele>
        <time>2023-06-28T08:35:56Z</time>
      </trkpt>
      <trkpt lat="49.9641" lon="2.11227">
        <ele>11.5</ele>
        <time>2023-06-28T08:35:57Z</time>
      </trkpt>
      <trkpt lat="49.9641" lon="2.11227">
        <ele>11.5</ele>
        <time>2023-06-28T08:35:58Z</time>
      </trkpt>
      <trkpt lat="49.96409" lon="2.11226">
        <ele>11.5</ele>
        <time>2023-06-28T08:35:59Z</time>
      </trkpt>
      <trkpt lat="49.96409" lon="2.11226">
        <ele>11.5</ele>
        <time>2023-06-28T08:36:00Z</time>
      </trkpt>
      <trkpt lat="49.96408" lon="2.11226">
        <ele>11.5</ele>
        <time>2023-06-28T08:36:01Z</time>
      </trkpt>
      <trkpt lat="49.96407" lon="2.11224">
        <ele>11.5</ele>
        <time>2023-06-28T08:36:02Z</time>
      </trkpt>
      <trkpt lat="49.96407" lon="2.11223">
        <ele>11.5</ele>
        <time>2023-06-28T08:36:03Z</time>
      </trkpt>
      <trkpt lat="49.96406" lon="2.11222">
        <ele>11.5</ele>
        <time>2023-06-28T08:36:04Z</time>
      </trkpt>
      <trkpt lat="49.96406" lon="2.1122">
        <ele>11.6</ele>
        <time>2023-06-28T08:36:05Z</time>
      </trkpt>
      <trkpt lat="49.96405" lon="2.11219">
        <ele>11.6</ele>
        <time>2023-06-28T08:36:06Z</time>
      </trkpt>
      <trkpt lat="49.96405" lon="2.11218">
        <ele>11.6</ele>
        <time>2023-06-28T08:36:07Z</time>
      </trkpt>
      <trkpt lat="49.96404" lon="2.11217">
        <ele>11.6</ele>
        <time>2023-06-28T08:36:08Z</time>
      </trkpt>
      <trkpt lat="49.96404" lon="2.11215">
        <ele>11.6</ele>
        <time>2023-06-28T08:36:09Z</time>
      </trkpt>
      <trkpt lat="49.96403" lon="2.11214">
        <ele>11.6</ele>
        <time>2023-06-28T08:36:10Z</time>
      </trkpt>
      <trkpt lat="49.96403" lon="2.11213">
        <ele>11.7</ele>
        <time>2023-06-28T08:36:11Z</time>
      </trkpt>
      <trkpt lat="49.96402" lon="2.11212">
        <ele>11.7</ele>
        <time>2023-06-28T08:36:12Z</time>
      </trkpt>
      <trkpt lat="49.96402" lon="2.11211">
        <ele>11.7</ele>
        <time>2023-06-28T08:36:13Z</time>
      </trkpt>
      <trkpt lat="49.96402" lon="2.11211">
        <ele>11.7</ele>
        <time>2023-06-28T08:36:14Z</time>
      </trkpt>
      <trkpt lat="49.96402" lon="2.11211">
        <ele>11.7</ele>
        <time>2023-06-28T08:36:15Z</time>
      </trkpt>
      <trkpt lat="49.96403" lon="2.1121">
        <ele>11.7</ele>
        <time>2023-06-28T08:36:16Z</time>
      </trkpt>
      <trkpt lat="49.96404" lon="2.1121">
        <ele>11.7</ele>
        <time>2023-06-28T08:36:17Z</time>
      </trkpt>
      <trkpt lat="49.96405" lon="2.1121">
        <ele>11.7</ele>
        <time>2023-06-28T08:36:18Z</time>
      </trkpt>
      <trkpt lat="49.96406" lon="2.1121">
        <ele>11.8</ele>
        <time>2023-06-28T08:36:19Z</time>
      </trkpt>
      <trkpt lat="49.96406" lon="2.11211">
        <ele>11.8</ele>
        <time>2023-06-28T08:36:20Z</time>
      </trkpt>
      <trkpt lat="49.96406" lon="2.11213">
        <ele>11.8</ele>
        <time>2023-06-28T08:36:22Z</time>
      </trkpt>
      <trkpt lat="49.96406" lon="2.11214">
        <ele>11.8</ele>
        <time>2023-06-28T08:36:23Z</time>
      </trkpt>
      <trkpt lat="49.96406" lon="2.11215">
        <ele>11.8</ele>
        <time>2023-06-28T08:36:24Z</time>
      </trkpt>
      <trkpt lat="49.96406" lon="2.11216">
        <ele>11.8</ele>
        <time>2023-06-28T08:36:25Z</time>
      </trkpt>
      <trkpt lat="49.96406" lon="2.11217">
        <ele>11.8</ele>
        <time>2023-06-28T08:36:26Z</time>
      </trkpt>
      <trkpt lat="49.96406" lon="2.11217">
        <ele>11.9</ele>
        <time>2023-06-28T08:36:27Z</time>
      </trkpt>
      <trkpt lat="49.96406" lon="2.11218">
        <ele>11.9</ele>
        <time>2023-06-28T08:36:28Z</time>
      </trkpt>
      <trkpt lat="49.96405" lon="2.11218">
        <ele>11.9</ele>
        <time>2023-06-28T08:36:29Z</time>
      </trkpt>
      <trkpt lat="49.96405" lon="2.11219">
        <ele>11.9</ele>
        <time>2023-06-28T08:36:30Z</time>
      </trkpt>
      <trkpt lat="49.96405" lon="2.11219">
        <ele>11.9</ele>
        <time>2023-06-28T08:36:31Z</time>
      </trkpt>
      <trkpt lat="49.96405" lon="2.11219">
        <ele>11.9</ele>
        <time>2023-06-28T08:36:32Z</time>
      </trkpt>
      <trkpt lat="49.96405" lon="2.1122">
        <ele>11.9</ele>
        <time>2023-06-28T08:36:33Z</time>
      </trkpt>
      <trkpt lat="49.96404" lon="2.1122">
        <ele>11.9</ele>
        <time>2023-06-28T08:36:34Z</time>
      </trkpt>
      <trkpt lat="49.96404" lon="2.1122">
        <ele>11.9</ele>
        <time>2023-06-28T08:36:35Z</time>
      </trkpt>
      <trkpt lat="49.96404" lon="2.1122">
        <ele>11.9</ele>
        <time>2023-06-28T08:36:36Z</time>
      </trkpt>
      <trkpt lat="49.96404" lon="2.1122">
        <ele>11.9</ele>
        <time>2023-06-28T08:36:37Z</time>
      </trkpt>
      <trkpt lat="49.96404" lon="2.1122">
        <ele>11.9</ele>
        <time>2023-06-28T08:36:38Z</time>
      </trkpt>
      <trkpt lat="49.96404" lon="2.1122">
        <ele>11.9</ele>
        <time>2023-06-28T08:36:39Z</time>
      </trkpt>
      <trkpt lat="49.96403" lon="2.1122">
        <ele>11.9</ele>
        <time>2023-06-28T08:36:40Z</time>
      </trkpt>
      <trkpt lat="49.96403" lon="2.1122">
        <ele>11.9</ele>
        <time>2023-06-28T08:36:41Z</time>
      </trkpt>
      <trkpt lat="49.96403" lon="2.1122">
        <ele>11.9</ele>
        <time>2023-06-28T08:36:42Z</time>
      </trkpt>
      <trkpt lat="49.96402" lon="2.1122">
        <ele>11.9</ele>
        <time>2023-06-28T08:36:43Z</time>
      </trkpt>
      <trkpt lat="49.96402" lon="2.11219">
        <ele>11.9</ele>
        <time>2023-06-28T08:36:44Z</time>
      </trkpt>
      <trkpt lat="49.96402" lon="2.11218">
        <ele>11.9</ele>
        <time>2023-06-28T08:36:45Z</time>
      </trkpt>
      <trkpt lat="49.96402" lon="2.11216">
        <ele>12</ele>
        <time>2023-06-28T08:36:46Z</time>
      </trkpt>
      <trkpt lat="49.96402" lon="2.11215">
        <ele>12</ele>
        <time>2023-06-28T08:36:47Z</time>
      </trkpt>
      <trkpt lat="49.96402" lon="2.11212">
        <ele>12</ele>
        <time>2023-06-28T08:36:48Z</time>
      </trkpt>
      <trkpt lat="49.96402" lon="2.1121">
        <ele>12</ele>
        <time>2023-06-28T08:36:49Z</time>
      </trkpt>
      <trkpt lat="49.96402" lon="2.11209">
        <ele>12.1</ele>
        <time>2023-06-28T08:36:50Z</time>
      </trkpt>
      <trkpt lat="49.96402" lon="2.11207">
        <ele>12.1</ele>
        <time>2023-06-28T08:36:51Z</time>
      </trkpt>
      <trkpt lat="49.96402" lon="2.11204">
        <ele>12.1</ele>
        <time>2023-06-28T08:36:52Z</time>
      </trkpt>
      <trkpt lat="49.96402" lon="2.112">
        <ele>12.2</ele>
        <time>2023-06-28T08:36:53Z</time>
      </trkpt>
      <trkpt lat="49.96402" lon="2.11198">
        <ele>12.2</ele>
        <time>2023-06-28T08:36:54Z</time>
      </trkpt>
      <trkpt lat="49.96401" lon="2.11196">
        <ele>12.2</ele>
        <time>2023-06-28T08:36:55Z</time>
      </trkpt>
      <trkpt lat="49.964" lon="2.11193">
        <ele>12.2</ele>
        <time>2023-06-28T08:36:56Z</time>
      </trkpt>
      <trkpt lat="49.96399" lon="2.11192">
        <ele>12.3</ele>
        <time>2023-06-28T08:36:57Z</time>
      </trkpt>
      <trkpt lat="49.96398" lon="2.11191">
        <ele>12.3</ele>
        <time>2023-06-28T08:36:58Z</time>
      </trkpt>
      <trkpt lat="49.96398" lon="2.1119">
        <ele>12.3</ele>
        <time>2023-06-28T08:36:59Z</time>
      </trkpt>
      <trkpt lat="49.96396" lon="2.11188">
        <ele>12.3</ele>
        <time>2023-06-28T08:37:00Z</time>
      </trkpt>
      <trkpt lat="49.96396" lon="2.11187">
        <ele>12.4</ele>
        <time>2023-06-28T08:37:01Z</time>
      </trkpt>
      <trkpt lat="49.96395" lon="2.11186">
        <ele>12.4</ele>
        <time>2023-06-28T08:37:02Z</time>
      </trkpt>
      <trkpt lat="49.96394" lon="2.11184">
        <ele>12.4</ele>
        <time>2023-06-28T08:37:03Z</time>
      </trkpt>
      <trkpt lat="49.96393" lon="2.11183">
        <ele>12.4</ele>
        <time>2023-06-28T08:37:04Z</time>
      </trkpt>
      <trkpt lat="49.96391" lon="2.11182">
        <ele>12.5</ele>
        <time>2023-06-28T08:37:05Z</time>
      </trkpt>
      <trkpt lat="49.96391" lon="2.11182">
        <ele>12.5</ele>
        <time>2023-06-28T08:37:06Z</time>
      </trkpt>
      <trkpt lat="49.9639" lon="2.11182">
        <ele>12.5</ele>
        <time>2023-06-28T08:37:07Z</time>
      </trkpt>
      <trkpt lat="49.9639" lon="2.11181">
        <ele>12.5</ele>
        <time>2023-06-28T08:37:08Z</time>
      </trkpt>
      <trkpt lat="49.9639" lon="2.1118">
        <ele>12.5</ele>
        <time>2023-06-28T08:37:09Z</time>
      </trkpt>
      <trkpt lat="49.96389" lon="2.1118">
        <ele>12.5</ele>
        <time>2023-06-28T08:37:10Z</time>
      </trkpt>
      <trkpt lat="49.96389" lon="2.11179">
        <ele>12.5</ele>
        <time>2023-06-28T08:37:11Z</time>
      </trkpt>
      <trkpt lat="49.96388" lon="2.11179">
        <ele>12.5</ele>
        <time>2023-06-28T08:37:12Z</time>
      </trkpt>
      <trkpt lat="49.96388" lon="2.11178">
        <ele>12.6</ele>
        <time>2023-06-28T08:37:13Z</time>
      </trkpt>
      <trkpt lat="49.96388" lon="2.11177">
        <ele>12.6</ele>
        <time>2023-06-28T08:37:14Z</time>
      </trkpt>
      <trkpt lat="49.96387" lon="2.11176">
        <ele>12.6</ele>
        <time>2023-06-28T08:37:15Z</time>
      </trkpt>
      <trkpt lat="49.96386" lon="2.11175">
        <ele>12.6</ele>
        <time>2023-06-28T08:37:16Z</time>
      </trkpt>
      <trkpt lat="49.96386" lon="2.11174">
        <ele>12.6</ele>
        <time>2023-06-28T08:37:17Z</time>
      </trkpt>
      <trkpt lat="49.96385" lon="2.11173">
        <ele>12.6</ele>
        <time>2023-06-28T08:37:18Z</time>
      </trkpt>
      <trkpt lat="49.96385" lon="2.11172">
        <ele>12.7</ele>
        <time>2023-06-28T08:37:19Z</time>
      </trkpt>
      <trkpt lat="49.96384" lon="2.11171">
        <ele>12.7</ele>
        <time>2023-06-28T08:37:20Z</time>
      </trkpt>
      <trkpt lat="49.96384" lon="2.11171">
        <ele>12.7</ele>
        <time>2023-06-28T08:37:21Z</time>
      </trkpt>
      <trkpt lat="49.96384" lon="2.1117">
        <ele>12.7</ele>
        <time>2023-06-28T08:37:22Z</time>
      </trkpt>
      <trkpt lat="49.96383" lon="2.1117">
        <ele>12.7</ele>
        <time>2023-06-28T08:37:23Z</time>
      </trkpt>
      <trkpt lat="49.96383" lon="2.11169">
        <ele>12.7</ele>
        <time>2023-06-28T08:37:24Z</time>
      </trkpt>
      <trkpt lat="49.96383" lon="2.11169">
        <ele>12.7</ele>
        <time>2023-06-28T08:37:25Z</time>
      </trkpt>
      <trkpt lat="49.96383" lon="2.11168">
        <ele>12.7</ele>
        <time>2023-06-28T08:37:26Z</time>
      </trkpt>
      <trkpt lat="49.96383" lon="2.11168">
        <ele>12.7</ele>
        <time>2023-06-28T08:37:27Z</time>
      </trkpt>
      <trkpt lat="49.96383" lon="2.11168">
        <ele>12.7</ele>
        <time>2023-06-28T08:37:28Z</time>
      </trkpt>
      <trkpt lat="49.96382" lon="2.11169">
        <ele>12.8</ele>
        <time>2023-06-28T08:37:29Z</time>
      </trkpt>
      <trkpt lat="49.96382" lon="2.11169">
        <ele>12.8</ele>
        <time>2023-06-28T08:37:30Z</time>
      </trkpt>
      <trkpt lat="49.96382" lon="2.11169">
        <ele>12.8</ele>
        <time>2023-06-28T08:37:31Z</time>
      </trkpt>
      <trkpt lat="49.96382" lon="2.11169">
        <ele>12.8</ele>
        <time>2023-06-28T08:37:32Z</time>
      </trkpt>
      <trkpt lat="49.96383" lon="2.11169">
        <ele>12.8</ele>
        <time>2023-06-28T08:37:33Z</time>
      </trkpt>
      <trkpt lat="49.96383" lon="2.11169">
        <ele>12.8</ele>
        <time>2023-06-28T08:37:34Z</time>
      </trkpt>
      <trkpt lat="49.96383" lon="2.11169">
        <ele>12.8</ele>
        <time>2023-06-28T08:37:35Z</time>
      </trkpt>
      <trkpt lat="49.96383" lon="2.11169">
        <ele>12.8</ele>
        <time>2023-06-28T08:37:36Z</time>
      </trkpt>
      <trkpt lat="49.96383" lon="2.11169">
        <ele>12.8</ele>
        <time>2023-06-28T08:37:37Z</time>
      </trkpt>
      <trkpt lat="49.96383" lon="2.11169">
        <ele>12.8</ele>
        <time>2023-06-28T08:37:38Z</time>
      </trkpt>
      <trkpt lat="49.96383" lon="2.11169">
        <ele>12.8</ele>
        <time>2023-06-28T08:37:39Z</time>
      </trkpt>
      <trkpt lat="49.96383" lon="2.11169">
        <ele>12.8</ele>
        <time>2023-06-28T08:37:40Z</time>
      </trkpt>
      <trkpt lat="49.96383" lon="2.11169">
        <ele>12.8</ele>
        <time>2023-06-28T08:37:41Z</time>
      </trkpt>
      <trkpt lat="49.96383" lon="2.11169">
        <ele>12.8</ele>
        <time>2023-06-28T08:37:42Z</time>
      </trkpt>
      <trkpt lat="49.96383" lon="2.11169">
        <ele>12.8</ele>
        <time>2023-06-28T08:37:43Z</time>
      </trkpt>
      <trkpt lat="49.96383" lon="2.11169">
        <ele>12.8</ele>
        <time>2023-06-28T08:37:44Z</time>
      </trkpt>
      <trkpt lat="49.96383" lon="2.11169">
        <ele>12.8</ele>
        <time>2023-06-28T08:37:45Z</time>
      </trkpt>
      <trkpt lat="49.96383" lon="2.11169">
        <ele>12.8</ele>
        <time>2023-06-28T08:37:46Z</time>
      </trkpt>
      <trkpt lat="49.96383" lon="2.11169">
        <ele>12.8</ele>
        <time>2023-06-28T08:37:47Z</time>
      </trkpt>
      <trkpt lat="49.96383" lon="2.11169">
        <ele>12.8</ele>
        <time>2023-06-28T08:37:48Z</time>
      </trkpt>
      <trkpt lat="49.96383" lon="2.11169">
        <ele>12.8</ele>
        <time>2023-06-28T08:37:49Z</time>
      </trkpt>
      <trkpt lat="49.96383" lon="2.11169">
        <ele>12.8</ele>
        <time>2023-06-28T08:37:50Z</time>
      </trkpt>
      <trkpt lat="49.96383" lon="2.11169">
        <ele>12.8</ele>
        <time>2023-06-28T08:37:51Z</time>
      </trkpt>
      <trkpt lat="49.96383" lon="2.11169">
        <ele>12.8</ele>
        <time>2023-06-28T08:37:52Z</time>
      </trkpt>
      <trkpt lat="49.96383" lon="2.11169">
        <ele>12.8</ele>
        <time>2023-06-28T08:37:53Z</time>
      </trkpt>
      <trkpt lat="49.96383" lon="2.11169">
        <ele>12.8</ele>
        <time>2023-06-28T08:37:54Z</time>
      </trkpt>
      <trkpt lat="49.96383" lon="2.11169">
        <ele>12.8</ele>
        <time>2023-06-28T08:37:55Z</time>
      </trkpt>
      <trkpt lat="49.96383" lon="2.11169">
        <ele>12.8</ele>
        <time>2023-06-28T08:37:56Z</time>
      </trkpt>
      <trkpt lat="49.96383" lon="2.11169">
        <ele>12.8</ele>
        <time>2023-06-28T08:37:57Z</time>
      </trkpt>
      <trkpt lat="49.96382" lon="2.11168">
        <ele>12.8</ele>
        <time>2023-06-28T08:37:58Z</time>
      </trkpt>
      <trkpt lat="49.96382" lon="2.11168">
        <ele>12.8</ele>
        <time>2023-06-28T08:37:59Z</time>
      </trkpt>
      <trkpt lat="49.96382" lon="2.11168">
        <ele>12.8</ele>
        <time>2023-06-28T08:38:00Z</time>
      </trkpt>
      <trkpt lat="49.96382" lon="2.11168">
        <ele>12.8</ele>
        <time>2023-06-28T08:38:01Z</time>
      </trkpt>
      <trkpt lat="49.96382" lon="2.11167">
        <ele>12.8</ele>
        <time>2023-06-28T08:38:02Z</time>
      </trkpt>
      <trkpt lat="49.96382" lon="2.11167">
        <ele>12.8</ele>
        <time>2023-06-28T08:38:03Z</time>
      </trkpt>
      <trkpt lat="49.96382" lon="2.11167">
        <ele>12.8</ele>
        <time>2023-06-28T08:38:04Z</time>
      </trkpt>
      <trkpt lat="49.96382" lon="2.11167">
        <ele>12.8</ele>
        <time>2023-06-28T08:38:05Z</time>
      </trkpt>
      <trkpt lat="49.96382" lon="2.11167">
        <ele>12.8</ele>
        <time>2023-06-28T08:38:06Z</time>
      </trkpt>
      <trkpt lat="49.96382" lon="2.11167">
        <ele>12.8</ele>
        <time>2023-06-28T08:38:07Z</time>
      </trkpt>
      <trkpt lat="49.96382" lon="2.11167">
        <ele>12.8</ele>
        <time>2023-06-28T08:38:08Z</time>
      </trkpt>
      <trkpt lat="49.96382" lon="2.11167">
        <ele>12.8</ele>
        <time>2023-06-28T08:38:09Z</time>
      </trkpt>
      <trkpt lat="49.96382" lon="2.11167">
        <ele>12.8</ele>
        <time>2023-06-28T08:38:10Z</time>
      </trkpt>
      <trkpt lat="49.96382" lon="2.11167">
        <ele>12.8</ele>
        <time>2023-06-28T08:38:11Z</time>
      </trkpt>
      <trkpt lat="49.96382" lon="2.11167">
        <ele>12.8</ele>
        <time>2023-06-28T08:38:12Z</time>
      </trkpt>
      <trkpt lat="49.96382" lon="2.11167">
        <ele>12.8</ele>
        <time>2023-06-28T08:38:13Z</time>
      </trkpt>
      <trkpt lat="49.96382" lon="2.11167">
        <ele>12.8</ele>
        <time>2023-06-28T08:38:14Z</time>
      </trkpt>
      <trkpt lat="49.96382" lon="2.11167">
        <ele>12.8</ele>
        <time>2023-06-28T08:38:15Z</time>
      </trkpt>
      <trkpt lat="49.96382" lon="2.11167">
        <ele>12.8</ele>
        <time>2023-06-28T08:38:16Z</time>
      </trkpt>
      <trkpt lat="49.96382" lon="2.11167">
        <ele>12.8</ele>
        <time>2023-06-28T08:38:17Z</time>
      </trkpt>
      <trkpt lat="49.96382" lon="2.11167">
        <ele>12.8</ele>
        <time>2023-06-28T08:38:18Z</time>
      </trkpt>
      <trkpt lat="49.96382" lon="2.11167">
        <ele>12.8</ele>
        <time>2023-06-28T08:38:19Z</time>
      </trkpt>
      <trkpt lat="49.96382" lon="2.11167">
        <ele>12.8</ele>
        <time>2023-06-28T08:38:20Z</time>
      </trkpt>
      <trkpt lat="49.96382" lon="2.11167">
        <ele>12.8</ele>
        <time>2023-06-28T08:38:21Z</time>
      </trkpt>
      <trkpt lat="49.96382" lon="2.11167">
        <ele>12.8</ele>
        <time>2023-06-28T08:38:22Z</time>
      </trkpt>
      <trkpt lat="49.96382" lon="2.11167">
        <ele>12.8</ele>
        <time>2023-06-28T08:38:23Z</time>
      </trkpt>
      <trkpt lat="49.96382" lon="2.11167">
        <ele>12.8</ele>
        <time>2023-06-28T08:38:24Z</time>
      </trkpt>
      <trkpt lat="49.96382" lon="2.11167">
        <ele>12.8</ele>
        <time>2023-06-28T08:38:25Z</time>
      </trkpt>
      <trkpt lat="49.96382" lon="2.11167">
        <ele>12.8</ele>
        <time>2023-06-28T08:38:26Z</time>
      </trkpt>
      <trkpt lat="49.96382" lon="2.11167">
        <ele>12.8</ele>
        <time>2023-06-28T08:38:27Z</time>
      </trkpt>
      <trkpt lat="49.96382" lon="2.11167">
        <ele>12.8</ele>
        <time>2023-06-28T08:38:28Z</time>
      </trkpt>
      <trkpt lat="49.96382" lon="2.11167">
        <ele>12.8</ele>
        <time>2023-06-28T08:38:29Z</time>
      </trkpt>
      <trkpt lat="49.96382" lon="2.11167">
        <ele>12.8</ele>
        <time>2023-06-28T08:38:30Z</time>
      </trkpt>
      <trkpt lat="49.96382" lon="2.11167">
        <ele>12.8</ele>
        <time>2023-06-28T08:38:31Z</time>
      </trkpt>
      <trkpt lat="49.96382" lon="2.11167">
        <ele>12.8</ele>
        <time>2023-06-28T08:38:32Z</time>
      </trkpt>
      <trkpt lat="49.96382" lon="2.11167">
        <ele>12.8</ele>
        <time>2023-06-28T08:38:33Z</time>
      </trkpt>
      <trkpt lat="49.96382" lon="2.11167">
        <ele>12.8</ele>
        <time>2023-06-28T08:38:34Z</time>
      </trkpt>
      <trkpt lat="49.96382" lon="2.11167">
        <ele>12.8</ele>
        <time>2023-06-28T08:38:35Z</time>
      </trkpt>
      <trkpt lat="49.96382" lon="2.11167">
        <ele>12.8</ele>
        <time>2023-06-28T08:38:36Z</time>
      </trkpt>
      <trkpt lat="49.96382" lon="2.11167">
        <ele>12.8</ele>
        <time>2023-06-28T08:38:37Z</time>
      </trkpt>
      <trkpt lat="49.96382" lon="2.11167">
        <ele>12.8</ele>
        <time>2023-06-28T08:38:38Z</time>
      </trkpt>
      <trkpt lat="49.96382" lon="2.11167">
        <ele>12.8</ele>
        <time>2023-06-28T08:38:39Z</time>
      </trkpt>
      <trkpt lat="49.96382" lon="2.11167">
        <ele>12.8</ele>
        <time>2023-06-28T08:38:40Z</time>
      </trkpt>
      <trkpt lat="49.96382" lon="2.11167">
        <ele>12.8</ele>
        <time>2023-06-28T08:38:41Z</time>
      </trkpt>
      <trkpt lat="49.96382" lon="2.11167">
        <ele>12.8</ele>
        <time>2023-06-28T08:38:42Z</time>
      </trkpt>
      <trkpt lat="49.96382" lon="2.11167">
        <ele>12.8</ele>
        <time>2023-06-28T08:38:43Z</time>
      </trkpt>
      <trkpt lat="49.96382" lon="2.11167">
        <ele>12.8</ele>
        <time>2023-06-28T08:38:44Z</time>
      </trkpt>
      <trkpt lat="49.96382" lon="2.11167">
        <ele>12.8</ele>
        <time>2023-06-28T08:38:45Z</time>
      </trkpt>
      <trkpt lat="49.96382" lon="2.11167">
        <ele>12.8</ele>
        <time>2023-06-28T08:38:46Z</time>
      </trkpt>
      <trkpt lat="49.96382" lon="2.11167">
        <ele>12.8</ele>
        <time>2023-06-28T08:38:47Z</time>
      </trkpt>
      <trkpt lat="49.96382" lon="2.11167">
        <ele>12.8</ele>
        <time>2023-06-28T08:38:48Z</time>
      </trkpt>
      <trkpt lat="49.96382" lon="2.11167">
        <ele>12.8</ele>
        <time>2023-06-28T08:38:49Z</time>
      </trkpt>
      <trkpt lat="49.96382" lon="2.11167">
        <ele>12.8</ele>
        <time>2023-06-28T08:38:50Z</time>
      </trkpt>
      <trkpt lat="49.96382" lon="2.11167">
        <ele>12.8</ele>
        <time>2023-06-28T08:38:51Z</time>
      </trkpt>
      <trkpt lat="49.96382" lon="2.11167">
        <ele>12.8</ele>
        <time>2023-06-28T08:38:52Z</time>
      </trkpt>
      <trkpt lat="49.96382" lon="2.11167">
        <ele>12.8</ele>
        <time>2023-06-28T08:38:53Z</time>
      </trkpt>
      <trkpt lat="49.96382" lon="2.11167">
        <ele>12.8</ele>
        <time>2023-06-28T08:38:54Z</time>
      </trkpt>
      <trkpt lat="49.96382" lon="2.11167">
        <ele>12.8</ele>
        <time>2023-06-28T08:38:55Z</time>
      </trkpt>
      <trkpt lat="49.96382" lon="2.11167">
        <ele>12.8</ele>
        <time>2023-06-28T08:38:56Z</time>
      </trkpt>
      <trkpt lat="49.96382" lon="2.11167">
        <ele>12.8</ele>
        <time>2023-06-28T08:38:57Z</time>
      </trkpt>
      <trkpt lat="49.96382" lon="2.11167">
        <ele>12.8</ele>
        <time>2023-06-28T08:38:58Z</time>
      </trkpt>
      <trkpt lat="49.96382" lon="2.11167">
        <ele>12.8</ele>
        <time>2023-06-28T08:38:59Z</time>
      </trkpt>
      <trkpt lat="49.96382" lon="2.11167">
        <ele>12.8</ele>
        <time>2023-06-28T08:39:00Z</time>
      </trkpt>
      <trkpt lat="49.96382" lon="2.11167">
        <ele>12.8</ele>
        <time>2023-06-28T08:39:01Z</time>
      </trkpt>
      <trkpt lat="49.96382" lon="2.11167">
        <ele>12.8</ele>
        <time>2023-06-28T08:39:02Z</time>
      </trkpt>
      <trkpt lat="49.96382" lon="2.11167">
        <ele>12.8</ele>
        <time>2023-06-28T08:39:03Z</time>
      </trkpt>
      <trkpt lat="49.96382" lon="2.11167">
        <ele>12.8</ele>
        <time>2023-06-28T08:39:04Z</time>
      </trkpt>
      <trkpt lat="49.96382" lon="2.11167">
        <ele>12.8</ele>
        <time>2023-06-28T08:39:05Z</time>
      </trkpt>
      <trkpt lat="49.96382" lon="2.11167">
        <ele>12.8</ele>
        <time>2023-06-28T08:39:06Z</time>
      </trkpt>
      <trkpt lat="49.96382" lon="2.11167">
        <ele>12.8</ele>
        <time>2023-06-28T08:39:07Z</time>
      </trkpt>
      <trkpt lat="49.96382" lon="2.11167">
        <ele>12.8</ele>
        <time>2023-06-28T08:39:08Z</time>
      </trkpt>
      <trkpt lat="49.96382" lon="2.11167">
        <ele>12.8</ele>
        <time>2023-06-28T08:39:09Z</time>
      </trkpt>
      <trkpt lat="49.96382" lon="2.11167">
        <ele>12.8</ele>
        <time>2023-06-28T08:39:10Z</time>
      </trkpt>
      <trkpt lat="49.96382" lon="2.11167">
        <ele>12.8</ele>
        <time>2023-06-28T08:39:11Z</time>
      </trkpt>
      <trkpt lat="49.96382" lon="2.11167">
        <ele>12.8</ele>
        <time>2023-06-28T08:39:12Z</time>
      </trkpt>
      <trkpt lat="49.96382" lon="2.11167">
        <ele>12.8</ele>
        <time>2023-06-28T08:39:13Z</time>
      </trkpt>
      <trkpt lat="49.96382" lon="2.11167">
        <ele>12.8</ele>
        <time>2023-06-28T08:39:14Z</time>
      </trkpt>
      <trkpt lat="49.96382" lon="2.11167">
        <ele>12.8</ele>
        <time>2023-06-28T08:39:15Z</time>
      </trkpt>
      <trkpt lat="49.96382" lon="2.11167">
        <ele>12.8</ele>
        <time>2023-06-28T08:39:16Z</time>
      </trkpt>
      <trkpt lat="49.96382" lon="2.11167">
        <ele>12.8</ele>
        <time>2023-06-28T08:39:17Z</time>
      </trkpt>
      <trkpt lat="49.96382" lon="2.11167">
        <ele>12.8</ele>
        <time>2023-06-28T08:39:18Z</time>
      </trkpt>
      <trkpt lat="49.96382" lon="2.11167">
        <ele>12.8</ele>
        <time>2023-06-28T08:39:19Z</time>
      </trkpt>
      <trkpt lat="49.96382" lon="2.11167">
        <ele>12.8</ele>
        <time>2023-06-28T08:39:20Z</time>
      </trkpt>
      <trkpt lat="49.96382" lon="2.11167">
        <ele>12.8</ele>
        <time>2023-06-28T08:39:21Z</time>
      </trkpt>
      <trkpt lat="49.96382" lon="2.11167">
        <ele>12.8</ele>
        <time>2023-06-28T08:39:22Z</time>
      </trkpt>
      <trkpt lat="49.96382" lon="2.11167">
        <ele>12.8</ele>
        <time>2023-06-28T08:39:23Z</time>
      </trkpt>
      <trkpt lat="49.96382" lon="2.11167">
        <ele>12.8</ele>
        <time>2023-06-28T08:39:24Z</time>
      </trkpt>
      <trkpt lat="49.96382" lon="2.11167">
        <ele>12.8</ele>
        <time>2023-06-28T08:39:25Z</time>
      </trkpt>
      <trkpt lat="49.96382" lon="2.11167">
        <ele>12.8</ele>
        <time>2023-06-28T08:39:26Z</time>
      </trkpt>
      <trkpt lat="49.96382" lon="2.11167">
        <ele>12.8</ele>
        <time>2023-06-28T08:39:27Z</time>
      </trkpt>
      <trkpt lat="49.96382" lon="2.11167">
        <ele>12.8</ele>
        <time>2023-06-28T08:39:28Z</time>
      </trkpt>
      <trkpt lat="49.96382" lon="2.11167">
        <ele>12.8</ele>
        <time>2023-06-28T08:39:29Z</time>
      </trkpt>
      <trkpt lat="49.96382" lon="2.11167">
        <ele>12.8</ele>
        <time>2023-06-28T08:39:30Z</time>
      </trkpt>
      <trkpt lat="49.96382" lon="2.11167">
        <ele>12.8</ele>
        <time>2023-06-28T08:39:31Z</time>
      </trkpt>
      <trkpt lat="49.96382" lon="2.11167">
        <ele>12.8</ele>
        <time>2023-06-28T08:39:32Z</time>
      </trkpt>
      <trkpt lat="49.96382" lon="2.11167">
        <ele>12.8</ele>
        <time>2023-06-28T08:39:33Z</time>
      </trkpt>
      <trkpt lat="49.96382" lon="2.11167">
        <ele>12.8</ele>
        <time>2023-06-28T08:39:34Z</time>
      </trkpt>
      <trkpt lat="49.96382" lon="2.11167">
        <ele>12.8</ele>
        <time>2023-06-28T08:39:35Z</time>
      </trkpt>
      <trkpt lat="49.96382" lon="2.11167">
        <ele>12.8</ele>
        <time>2023-06-28T08:39:36Z</time>
      </trkpt>
      <trkpt lat="49.96382" lon="2.11167">
        <ele>12.8</ele>
        <time>2023-06-28T08:39:37Z</time>
      </trkpt>
      <trkpt lat="49.96382" lon="2.11167">
        <ele>12.8</ele>
        <time>2023-06-28T08:39:38Z</time>
      </trkpt>
      <trkpt lat="49.96382" lon="2.11167">
        <ele>12.8</ele>
        <time>2023-06-28T08:39:39Z</time>
      </trkpt>
      <trkpt lat="49.96382" lon="2.11167">
        <ele>12.8</ele>
        <time>2023-06-28T08:39:40Z</time>
      </trkpt>
      <trkpt lat="49.96382" lon="2.11167">
        <ele>12.8</ele>
        <time>2023-06-28T08:39:41Z</time>
      </trkpt>
      <trkpt lat="49.96382" lon="2.11167">
        <ele>12.8</ele>
        <time>2023-06-28T08:39:42Z</time>
      </trkpt>
      <trkpt lat="49.96382" lon="2.11167">
        <ele>12.8</ele>
        <time>2023-06-28T08:39:43Z</time>
      </trkpt>
      <trkpt lat="49.96382" lon="2.11167">
        <ele>12.8</ele>
        <time>2023-06-28T08:39:44Z</time>
      </trkpt>
      <trkpt lat="49.96382" lon="2.11167">
        <ele>12.8</ele>
        <time>2023-06-28T08:39:45Z</time>
      </trkpt>
      <trkpt lat="49.96382" lon="2.11167">
        <ele>12.8</ele>
        <time>2023-06-28T08:39:46Z</time>
      </trkpt>
      <trkpt lat="49.96382" lon="2.11167">
        <ele>12.8</ele>
        <time>2023-06-28T08:39:47Z</time>
      </trkpt>
      <trkpt lat="49.96382" lon="2.11167">
        <ele>12.8</ele>
        <time>2023-06-28T08:39:48Z</time>
      </trkpt>
      <trkpt lat="49.96382" lon="2.11167">
        <ele>12.8</ele>
        <time>2023-06-28T08:39:49Z</time>
      </trkpt>
      <trkpt lat="49.96381" lon="2.11166">
        <ele>12.8</ele>
        <time>2023-06-28T08:39:50Z</time>
      </trkpt>
      <trkpt lat="49.9638" lon="2.11165">
        <ele>12.8</ele>
        <time>2023-06-28T08:39:51Z</time>
      </trkpt>
      <trkpt lat="49.96379" lon="2.11165">
        <ele>12.9</ele>
        <time>2023-06-28T08:39:52Z</time>
      </trkpt>
      <trkpt lat="49.96379" lon="2.11164">
        <ele>12.9</ele>
        <time>2023-06-28T08:39:53Z</time>
      </trkpt>
      <trkpt lat="49.96378" lon="2.11164">
        <ele>12.9</ele>
        <time>2023-06-28T08:39:54Z</time>
      </trkpt>
      <trkpt lat="49.96377" lon="2.11164">
        <ele>12.9</ele>
        <time>2023-06-28T08:39:55Z</time>
      </trkpt>
      <trkpt lat="49.96377" lon="2.11163">
        <ele>12.9</ele>
        <time>2023-06-28T08:39:56Z</time>
      </trkpt>
      <trkpt lat="49.96376" lon="2.11163">
        <ele>12.9</ele>
        <time>2023-06-28T08:39:57Z</time>
      </trkpt>
      <trkpt lat="49.96375" lon="2.11162">
        <ele>13</ele>
        <time>2023-06-28T08:39:58Z</time>
      </trkpt>
      <trkpt lat="49.96375" lon="2.11162">
        <ele>13</ele>
        <time>2023-06-28T08:39:59Z</time>
      </trkpt>
      <trkpt lat="49.96374" lon="2.11162">
        <ele>13</ele>
        <time>2023-06-28T08:40:00Z</time>
      </trkpt>
      <trkpt lat="49.96374" lon="2.11162">
        <ele>13</ele>
        <time>2023-06-28T08:40:01Z</time>
      </trkpt>
      <trkpt lat="49.96373" lon="2.11161">
        <ele>13</ele>
        <time>2023-06-28T08:40:02Z</time>
      </trkpt>
      <trkpt lat="49.96372" lon="2.11161">
        <ele>13</ele>
        <time>2023-06-28T08:40:03Z</time>
      </trkpt>
      <trkpt lat="49.96371" lon="2.11161">
        <ele>13.1</ele>
        <time>2023-06-28T08:40:04Z</time>
      </trkpt>
      <trkpt lat="49.96371" lon="2.11161">
        <ele>13.1</ele>
        <time>2023-06-28T08:40:05Z</time>
      </trkpt>
      <trkpt lat="49.9637" lon="2.1116">
        <ele>13.1</ele>
        <time>2023-06-28T08:40:06Z</time>
      </trkpt>
      <trkpt lat="49.96369" lon="2.1116">
        <ele>13.1</ele>
        <time>2023-06-28T08:40:07Z</time>
      </trkpt>
      <trkpt lat="49.96368" lon="2.1116">
        <ele>13.1</ele>
        <time>2023-06-28T08:40:08Z</time>
      </trkpt>
      <trkpt lat="49.96367" lon="2.1116">
        <ele>13.1</ele>
        <time>2023-06-28T08:40:09Z</time>
      </trkpt>
      <trkpt lat="49.96366" lon="2.11159">
        <ele>13.1</ele>
        <time>2023-06-28T08:40:10Z</time>
      </trkpt>
      <trkpt lat="49.96365" lon="2.11159">
        <ele>13.1</ele>
        <time>2023-06-28T08:40:11Z</time>
      </trkpt>
      <trkpt lat="49.96364" lon="2.11159">
        <ele>13.1</ele>
        <time>2023-06-28T08:40:12Z</time>
      </trkpt>
      <trkpt lat="49.96363" lon="2.1116">
        <ele>13.1</ele>
        <time>2023-06-28T08:40:13Z</time>
      </trkpt>
      <trkpt lat="49.96361" lon="2.11161">
        <ele>13.1</ele>
        <time>2023-06-28T08:40:14Z</time>
      </trkpt>
      <trkpt lat="49.9636" lon="2.11161">
        <ele>13.1</ele>
        <time>2023-06-28T08:40:15Z</time>
      </trkpt>
      <trkpt lat="49.96359" lon="2.11162">
        <ele>13.1</ele>
        <time>2023-06-28T08:40:16Z</time>
      </trkpt>
      <trkpt lat="49.96357" lon="2.11162">
        <ele>13.1</ele>
        <time>2023-06-28T08:40:17Z</time>
      </trkpt>
      <trkpt lat="49.96356" lon="2.11163">
        <ele>13.1</ele>
        <time>2023-06-28T08:40:18Z</time>
      </trkpt>
      <trkpt lat="49.96354" lon="2.11165">
        <ele>13.1</ele>
        <time>2023-06-28T08:40:19Z</time>
      </trkpt>
      <trkpt lat="49.96353" lon="2.11166">
        <ele>13.1</ele>
        <time>2023-06-28T08:40:20Z</time>
      </trkpt>
      <trkpt lat="49.96353" lon="2.11166">
        <ele>13.1</ele>
        <time>2023-06-28T08:40:21Z</time>
      </trkpt>
      <trkpt lat="49.96352" lon="2.11167">
        <ele>13.1</ele>
        <time>2023-06-28T08:40:22Z</time>
      </trkpt>
      <trkpt lat="49.96351" lon="2.11168">
        <ele>13.1</ele>
        <time>2023-06-28T08:40:23Z</time>
      </trkpt>
      <trkpt lat="49.9635" lon="2.11169">
        <ele>13.1</ele>
        <time>2023-06-28T08:40:24Z</time>
      </trkpt>
      <trkpt lat="49.96349" lon="2.1117">
        <ele>13.1</ele>
        <time>2023-06-28T08:40:25Z</time>
      </trkpt>
      <trkpt lat="49.96347" lon="2.11171">
        <ele>13.1</ele>
        <time>2023-06-28T08:40:26Z</time>
      </trkpt>
      <trkpt lat="49.96346" lon="2.11172">
        <ele>13.1</ele>
        <time>2023-06-28T08:40:27Z</time>
      </trkpt>
      <trkpt lat="49.96344" lon="2.11173">
        <ele>13.1</ele>
        <time>2023-06-28T08:40:28Z</time>
      </trkpt>
      <trkpt lat="49.96343" lon="2.11174">
        <ele>13.1</ele>
        <time>2023-06-28T08:40:29Z</time>
      </trkpt>
      <trkpt lat="49.96342" lon="2.11176">
        <ele>13.1</ele>
        <time>2023-06-28T08:40:30Z</time>
      </trkpt>
      <trkpt lat="49.96341" lon="2.11177">
        <ele>13.1</ele>
        <time>2023-06-28T08:40:31Z</time>
      </trkpt>
      <trkpt lat="49.96339" lon="2.11178">
        <ele>13.1</ele>
        <time>2023-06-28T08:40:32Z</time>
      </trkpt>
      <trkpt lat="49.96338" lon="2.1118">
        <ele>13.1</ele>
        <time>2023-06-28T08:40:33Z</time>
      </trkpt>
      <trkpt lat="49.96337" lon="2.11181">
        <ele>13.1</ele>
        <time>2023-06-28T08:40:34Z</time>
      </trkpt>
      <trkpt lat="49.96336" lon="2.11181">
        <ele>13.1</ele>
        <time>2023-06-28T08:40:35Z</time>
      </trkpt>
      <trkpt lat="49.96335" lon="2.11183">
        <ele>13.1</ele>
        <time>2023-06-28T08:40:36Z</time>
      </trkpt>
      <trkpt lat="49.96334" lon="2.11184">
        <ele>13.1</ele>
        <time>2023-06-28T08:40:37Z</time>
      </trkpt>
      <trkpt lat="49.96332" lon="2.11185">
        <ele>13.1</ele>
        <time>2023-06-28T08:40:38Z</time>
      </trkpt>
      <trkpt lat="49.96331" lon="2.11186">
        <ele>13.1</ele>
        <time>2023-06-28T08:40:39Z</time>
      </trkpt>
      <trkpt lat="49.96331" lon="2.11186">
        <ele>13.1</ele>
        <time>2023-06-28T08:40:40Z</time>
      </trkpt>
      <trkpt lat="49.9633" lon="2.11187">
        <ele>13.1</ele>
        <time>2023-06-28T08:40:41Z</time>
      </trkpt>
      <trkpt lat="49.96328" lon="2.11187">
        <ele>13.1</ele>
        <time>2023-06-28T08:40:42Z</time>
      </trkpt>
      <trkpt lat="49.96327" lon="2.11188">
        <ele>13.1</ele>
        <time>2023-06-28T08:40:43Z</time>
      </trkpt>
      <trkpt lat="49.96326" lon="2.11188">
        <ele>13.1</ele>
        <time>2023-06-28T08:40:44Z</time>
      </trkpt>
      <trkpt lat="49.96325" lon="2.11189">
        <ele>13.1</ele>
        <time>2023-06-28T08:40:45Z</time>
      </trkpt>
      <trkpt lat="49.96324" lon="2.11189">
        <ele>13.1</ele>
        <time>2023-06-28T08:40:46Z</time>
      </trkpt>
      <trkpt lat="49.96323" lon="2.11189">
        <ele>13</ele>
        <time>2023-06-28T08:40:47Z</time>
      </trkpt>
      <trkpt lat="49.96322" lon="2.1119">
        <ele>13</ele>
        <time>2023-06-28T08:40:48Z</time>
      </trkpt>
      <trkpt lat="49.96321" lon="2.1119">
        <ele>13</ele>
        <time>2023-06-28T08:40:49Z</time>
      </trkpt>
      <trkpt lat="49.9632" lon="2.1119">
        <ele>13</ele>
        <time>2023-06-28T08:40:50Z</time>
      </trkpt>
      <trkpt lat="49.96319" lon="2.11191">
        <ele>13</ele>
        <time>2023-06-28T08:40:51Z</time>
      </trkpt>
      <trkpt lat="49.96318" lon="2.11191">
        <ele>13</ele>
        <time>2023-06-28T08:40:52Z</time>
      </trkpt>
      <trkpt lat="49.96317" lon="2.11192">
        <ele>13</ele>
        <time>2023-06-28T08:40:53Z</time>
      </trkpt>
      <trkpt lat="49.96316" lon="2.11193">
        <ele>13</ele>
        <time>2023-06-28T08:40:54Z</time>
      </trkpt>
      <trkpt lat="49.96315" lon="2.11193">
        <ele>13</ele>
        <time>2023-06-28T08:40:55Z</time>
      </trkpt>
      <trkpt lat="49.96314" lon="2.11194">
        <ele>13</ele>
        <time>2023-06-28T08:40:56Z</time>
      </trkpt>
      <trkpt lat="49.96313" lon="2.11195">
        <ele>13</ele>
        <time>2023-06-28T08:40:57Z</time>
      </trkpt>
      <trkpt lat="49.96313" lon="2.11196">
        <ele>13</ele>
        <time>2023-06-28T08:40:58Z</time>
      </trkpt>
      <trkpt lat="49.96312" lon="2.11197">
        <ele>13</ele>
        <time>2023-06-28T08:40:59Z</time>
      </trkpt>
      <trkpt lat="49.96311" lon="2.11198">
        <ele>13</ele>
        <time>2023-06-28T08:41:00Z</time>
      </trkpt>
      <trkpt lat="49.9631" lon="2.11199">
        <ele>13</ele>
        <time>2023-06-28T08:41:01Z</time>
      </trkpt>
      <trkpt lat="49.96308" lon="2.11202">
        <ele>13</ele>
        <time>2023-06-28T08:41:02Z</time>
      </trkpt>
      <trkpt lat="49.96308" lon="2.11202">
        <ele>13</ele>
        <time>2023-06-28T08:41:03Z</time>
      </trkpt>
      <trkpt lat="49.96307" lon="2.11203">
        <ele>13</ele>
        <time>2023-06-28T08:41:04Z</time>
      </trkpt>
      <trkpt lat="49.96306" lon="2.11205">
        <ele>13</ele>
        <time>2023-06-28T08:41:05Z</time>
      </trkpt>
      <trkpt lat="49.96305" lon="2.11206">
        <ele>13</ele>
        <time>2023-06-28T08:41:06Z</time>
      </trkpt>
      <trkpt lat="49.96305" lon="2.11207">
        <ele>13</ele>
        <time>2023-06-28T08:41:07Z</time>
      </trkpt>
      <trkpt lat="49.96304" lon="2.11208">
        <ele>13</ele>
        <time>2023-06-28T08:41:08Z</time>
      </trkpt>
      <trkpt lat="49.96303" lon="2.11209">
        <ele>13</ele>
        <time>2023-06-28T08:41:09Z</time>
      </trkpt>
      <trkpt lat="49.96302" lon="2.1121">
        <ele>13.1</ele>
        <time>2023-06-28T08:41:10Z</time>
      </trkpt>
      <trkpt lat="49.96301" lon="2.11211">
        <ele>13.1</ele>
        <time>2023-06-28T08:41:11Z</time>
      </trkpt>
      <trkpt lat="49.963" lon="2.11212">
        <ele>13.1</ele>
        <time>2023-06-28T08:41:12Z</time>
      </trkpt>
      <trkpt lat="49.96299" lon="2.11213">
        <ele>13.1</ele>
        <time>2023-06-28T08:41:13Z</time>
      </trkpt>
      <trkpt lat="49.96297" lon="2.11215">
        <ele>13.1</ele>
        <time>2023-06-28T08:41:14Z</time>
      </trkpt>
      <trkpt lat="49.96297" lon="2.11216">
        <ele>13.1</ele>
        <time>2023-06-28T08:41:15Z</time>
      </trkpt>
      <trkpt lat="49.96296" lon="2.11217">
        <ele>13.1</ele>
        <time>2023-06-28T08:41:16Z</time>
      </trkpt>
      <trkpt lat="49.96295" lon="2.11218">
        <ele>13.1</ele>
        <time>2023-06-28T08:41:17Z</time>
      </trkpt>
      <trkpt lat="49.96294" lon="2.11219">
        <ele>13.1</ele>
        <time>2023-06-28T08:41:18Z</time>
      </trkpt>
      <trkpt lat="49.96292" lon="2.11221">
        <ele>13.1</ele>
        <time>2023-06-28T08:41:19Z</time>
      </trkpt>
      <trkpt lat="49.96291" lon="2.11221">
        <ele>13.1</ele>
        <time>2023-06-28T08:41:20Z</time>
      </trkpt>
      <trkpt lat="49.9629" lon="2.11222">
        <ele>13.1</ele>
        <time>2023-06-28T08:41:21Z</time>
      </trkpt>
      <trkpt lat="49.9629" lon="2.11223">
        <ele>13.1</ele>
        <time>2023-06-28T08:41:22Z</time>
      </trkpt>
      <trkpt lat="49.96289" lon="2.11223">
        <ele>13.1</ele>
        <time>2023-06-28T08:41:23Z</time>
      </trkpt>
      <trkpt lat="49.96288" lon="2.11224">
        <ele>13.1</ele>
        <time>2023-06-28T08:41:24Z</time>
      </trkpt>
      <trkpt lat="49.96286" lon="2.11225">
        <ele>13.1</ele>
        <time>2023-06-28T08:41:25Z</time>
      </trkpt>
      <trkpt lat="49.96286" lon="2.11225">
        <ele>13.1</ele>
        <time>2023-06-28T08:41:26Z</time>
      </trkpt>
      <trkpt lat="49.96285" lon="2.11226">
        <ele>13.1</ele>
        <time>2023-06-28T08:41:27Z</time>
      </trkpt>
      <trkpt lat="49.96284" lon="2.11226">
        <ele>13.1</ele>
        <time>2023-06-28T08:41:28Z</time>
      </trkpt>
      <trkpt lat="49.96283" lon="2.11227">
        <ele>13</ele>
        <time>2023-06-28T08:41:29Z</time>
      </trkpt>
      <trkpt lat="49.96282" lon="2.11227">
        <ele>13</ele>
        <time>2023-06-28T08:41:30Z</time>
      </trkpt>
      <trkpt lat="49.96281" lon="2.11227">
        <ele>13</ele>
        <time>2023-06-28T08:41:31Z</time>
      </trkpt>
      <trkpt lat="49.9628" lon="2.11227">
        <ele>13</ele>
        <time>2023-06-28T08:41:32Z</time>
      </trkpt>
      <trkpt lat="49.96279" lon="2.11227">
        <ele>13</ele>
        <time>2023-06-28T08:41:33Z</time>
      </trkpt>
      <trkpt lat="49.96278" lon="2.11228">
        <ele>13</ele>
        <time>2023-06-28T08:41:34Z</time>
      </trkpt>
      <trkpt lat="49.96277" lon="2.11228">
        <ele>13</ele>
        <time>2023-06-28T08:41:35Z</time>
      </trkpt>
      <trkpt lat="49.96276" lon="2.11228">
        <ele>13</ele>
        <time>2023-06-28T08:41:36Z</time>
      </trkpt>
      <trkpt lat="49.96275" lon="2.11228">
        <ele>13</ele>
        <time>2023-06-28T08:41:37Z</time>
      </trkpt>
      <trkpt lat="49.96273" lon="2.11229">
        <ele>13</ele>
        <time>2023-06-28T08:41:38Z</time>
      </trkpt>
      <trkpt lat="49.96272" lon="2.11229">
        <ele>13</ele>
        <time>2023-06-28T08:41:39Z</time>
      </trkpt>
      <trkpt lat="49.96271" lon="2.1123">
        <ele>13</ele>
        <time>2023-06-28T08:41:40Z</time>
      </trkpt>
      <trkpt lat="49.9627" lon="2.1123">
        <ele>13</ele>
        <time>2023-06-28T08:41:41Z</time>
      </trkpt>
      <trkpt lat="49.96269" lon="2.1123">
        <ele>13</ele>
        <time>2023-06-28T08:41:42Z</time>
      </trkpt>
      <trkpt lat="49.96269" lon="2.11231">
        <ele>13</ele>
        <time>2023-06-28T08:41:43Z</time>
      </trkpt>
      <trkpt lat="49.96268" lon="2.11232">
        <ele>13</ele>
        <time>2023-06-28T08:41:44Z</time>
      </trkpt>
      <trkpt lat="49.96267" lon="2.11232">
        <ele>13</ele>
        <time>2023-06-28T08:41:45Z</time>
      </trkpt>
      <trkpt lat="49.96266" lon="2.11232">
        <ele>13</ele>
        <time>2023-06-28T08:41:46Z</time>
      </trkpt>
      <trkpt lat="49.96265" lon="2.11233">
        <ele>13</ele>
        <time>2023-06-28T08:41:47Z</time>
      </trkpt>
      <trkpt lat="49.96264" lon="2.11233">
        <ele>13</ele>
        <time>2023-06-28T08:41:48Z</time>
      </trkpt>
      <trkpt lat="49.96263" lon="2.11233">
        <ele>13</ele>
        <time>2023-06-28T08:41:49Z</time>
      </trkpt>
      <trkpt lat="49.96262" lon="2.11233">
        <ele>13</ele>
        <time>2023-06-28T08:41:50Z</time>
      </trkpt>
      <trkpt lat="49.96261" lon="2.11234">
        <ele>13</ele>
        <time>2023-06-28T08:41:51Z</time>
      </trkpt>
      <trkpt lat="49.9626" lon="2.11234">
        <ele>13</ele>
        <time>2023-06-28T08:41:52Z</time>
      </trkpt>
      <trkpt lat="49.96259" lon="2.11234">
        <ele>13</ele>
        <time>2023-06-28T08:41:53Z</time>
      </trkpt>
      <trkpt lat="49.96258" lon="2.11234">
        <ele>13</ele>
        <time>2023-06-28T08:41:54Z</time>
      </trkpt>
      <trkpt lat="49.96258" lon="2.11234">
        <ele>13</ele>
        <time>2023-06-28T08:41:55Z</time>
      </trkpt>
      <trkpt lat="49.96257" lon="2.11234">
        <ele>13</ele>
        <time>2023-06-28T08:41:56Z</time>
      </trkpt>
      <trkpt lat="49.96256" lon="2.11235">
        <ele>13</ele>
        <time>2023-06-28T08:41:57Z</time>
      </trkpt>
      <trkpt lat="49.96255" lon="2.11235">
        <ele>13</ele>
        <time>2023-06-28T08:41:58Z</time>
      </trkpt>
      <trkpt lat="49.96254" lon="2.11235">
        <ele>13</ele>
        <time>2023-06-28T08:41:59Z</time>
      </trkpt>
      <trkpt lat="49.96254" lon="2.11235">
        <ele>13</ele>
        <time>2023-06-28T08:42:00Z</time>
      </trkpt>
      <trkpt lat="49.96252" lon="2.11235">
        <ele>13</ele>
        <time>2023-06-28T08:42:01Z</time>
      </trkpt>
      <trkpt lat="49.96251" lon="2.11235">
        <ele>13</ele>
        <time>2023-06-28T08:42:02Z</time>
      </trkpt>
      <trkpt lat="49.9625" lon="2.11235">
        <ele>13</ele>
        <time>2023-06-28T08:42:03Z</time>
      </trkpt>
      <trkpt lat="49.96249" lon="2.11235">
        <ele>13</ele>
        <time>2023-06-28T08:42:04Z</time>
      </trkpt>
      <trkpt lat="49.96248" lon="2.11235">
        <ele>13</ele>
        <time>2023-06-28T08:42:05Z</time>
      </trkpt>
      <trkpt lat="49.96247" lon="2.11235">
        <ele>13</ele>
        <time>2023-06-28T08:42:06Z</time>
      </trkpt>
      <trkpt lat="49.96246" lon="2.11235">
        <ele>13</ele>
        <time>2023-06-28T08:42:07Z</time>
      </trkpt>
      <trkpt lat="49.96245" lon="2.11235">
        <ele>13</ele>
        <time>2023-06-28T08:42:08Z</time>
      </trkpt>
      <trkpt lat="49.96244" lon="2.11235">
        <ele>13</ele>
        <time>2023-06-28T08:42:09Z</time>
      </trkpt>
      <trkpt lat="49.96242" lon="2.11236">
        <ele>13</ele>
        <time>2023-06-28T08:42:10Z</time>
      </trkpt>
      <trkpt lat="49.96241" lon="2.11236">
        <ele>13</ele>
        <time>2023-06-28T08:42:11Z</time>
      </trkpt>
      <trkpt lat="49.9624" lon="2.11236">
        <ele>13</ele>
        <time>2023-06-28T08:42:12Z</time>
      </trkpt>
      <trkpt lat="49.96238" lon="2.11236">
        <ele>13</ele>
        <time>2023-06-28T08:42:13Z</time>
      </trkpt>
      <trkpt lat="49.96237" lon="2.11237">
        <ele>13</ele>
        <time>2023-06-28T08:42:14Z</time>
      </trkpt>
      <trkpt lat="49.96235" lon="2.11237">
        <ele>13</ele>
        <time>2023-06-28T08:42:15Z</time>
      </trkpt>
      <trkpt lat="49.96234" lon="2.11238">
        <ele>13</ele>
        <time>2023-06-28T08:42:16Z</time>
      </trkpt>
      <trkpt lat="49.96233" lon="2.11238">
        <ele>13</ele>
        <time>2023-06-28T08:42:17Z</time>
      </trkpt>
      <trkpt lat="49.96232" lon="2.11238">
        <ele>13</ele>
        <time>2023-06-28T08:42:18Z</time>
      </trkpt>
      <trkpt lat="49.96231" lon="2.11238">
        <ele>13</ele>
        <time>2023-06-28T08:42:19Z</time>
      </trkpt>
      <trkpt lat="49.9623" lon="2.11239">
        <ele>13</ele>
        <time>2023-06-28T08:42:20Z</time>
      </trkpt>
      <trkpt lat="49.96229" lon="2.11239">
        <ele>13</ele>
        <time>2023-06-28T08:42:21Z</time>
      </trkpt>
      <trkpt lat="49.96227" lon="2.1124">
        <ele>13</ele>
        <time>2023-06-28T08:42:22Z</time>
      </trkpt>
      <trkpt lat="49.96226" lon="2.1124">
        <ele>13</ele>
        <time>2023-06-28T08:42:23Z</time>
      </trkpt>
      <trkpt lat="49.96224" lon="2.11241">
        <ele>13</ele>
        <time>2023-06-28T08:42:24Z</time>
      </trkpt>
      <trkpt lat="49.96224" lon="2.11242">
        <ele>13</ele>
        <time>2023-06-28T08:42:25Z</time>
      </trkpt>
      <trkpt lat="49.96223" lon="2.11242">
        <ele>13</ele>
        <time>2023-06-28T08:42:26Z</time>
      </trkpt>
      <trkpt lat="49.96221" lon="2.11244">
        <ele>13</ele>
        <time>2023-06-28T08:42:27Z</time>
      </trkpt>
      <trkpt lat="49.9622" lon="2.11244">
        <ele>13</ele>
        <time>2023-06-28T08:42:28Z</time>
      </trkpt>
      <trkpt lat="49.96219" lon="2.11245">
        <ele>13</ele>
        <time>2023-06-28T08:42:29Z</time>
      </trkpt>
      <trkpt lat="49.96217" lon="2.11246">
        <ele>13</ele>
        <time>2023-06-28T08:42:30Z</time>
      </trkpt>
      <trkpt lat="49.96217" lon="2.11247">
        <ele>13</ele>
        <time>2023-06-28T08:42:31Z</time>
      </trkpt>
      <trkpt lat="49.96216" lon="2.11247">
        <ele>13</ele>
        <time>2023-06-28T08:42:32Z</time>
      </trkpt>
      <trkpt lat="49.96214" lon="2.11249">
        <ele>13</ele>
        <time>2023-06-28T08:42:33Z</time>
      </trkpt>
      <trkpt lat="49.96213" lon="2.11249">
        <ele>13</ele>
        <time>2023-06-28T08:42:34Z</time>
      </trkpt>
      <trkpt lat="49.96213" lon="2.1125">
        <ele>13</ele>
        <time>2023-06-28T08:42:35Z</time>
      </trkpt>
      <trkpt lat="49.96211" lon="2.11251">
        <ele>13</ele>
        <time>2023-06-28T08:42:36Z</time>
      </trkpt>
      <trkpt lat="49.9621" lon="2.11252">
        <ele>13</ele>
        <time>2023-06-28T08:42:37Z</time>
      </trkpt>
      <trkpt lat="49.96209" lon="2.11252">
        <ele>13</ele>
        <time>2023-06-28T08:42:38Z</time>
      </trkpt>
      <trkpt lat="49.96208" lon="2.11253">
        <ele>13</ele>
        <time>2023-06-28T08:42:39Z</time>
      </trkpt>
      <trkpt lat="49.96207" lon="2.11254">
        <ele>13</ele>
        <time>2023-06-28T08:42:40Z</time>
      </trkpt>
      <trkpt lat="49.96207" lon="2.11255">
        <ele>13</ele>
        <time>2023-06-28T08:42:41Z</time>
      </trkpt>
      <trkpt lat="49.96206" lon="2.11256">
        <ele>13</ele>
        <time>2023-06-28T08:42:42Z</time>
      </trkpt>
      <trkpt lat="49.96205" lon="2.11257">
        <ele>13</ele>
        <time>2023-06-28T08:42:43Z</time>
      </trkpt>
      <trkpt lat="49.96205" lon="2.11258">
        <ele>13</ele>
        <time>2023-06-28T08:42:44Z</time>
      </trkpt>
      <trkpt lat="49.96204" lon="2.11259">
        <ele>13</ele>
        <time>2023-06-28T08:42:45Z</time>
      </trkpt>
      <trkpt lat="49.96203" lon="2.11261">
        <ele>13</ele>
        <time>2023-06-28T08:42:46Z</time>
      </trkpt>
      <trkpt lat="49.96202" lon="2.11262">
        <ele>13</ele>
        <time>2023-06-28T08:42:47Z</time>
      </trkpt>
      <trkpt lat="49.96201" lon="2.11263">
        <ele>13</ele>
        <time>2023-06-28T08:42:48Z</time>
      </trkpt>
      <trkpt lat="49.962" lon="2.11264">
        <ele>13</ele>
        <time>2023-06-28T08:42:49Z</time>
      </trkpt>
      <trkpt lat="49.962" lon="2.11265">
        <ele>13</ele>
        <time>2023-06-28T08:42:50Z</time>
      </trkpt>
      <trkpt lat="49.96199" lon="2.11266">
        <ele>13</ele>
        <time>2023-06-28T08:42:51Z</time>
      </trkpt>
      <trkpt lat="49.96198" lon="2.11267">
        <ele>13</ele>
        <time>2023-06-28T08:42:52Z</time>
      </trkpt>
      <trkpt lat="49.96197" lon="2.11268">
        <ele>13</ele>
        <time>2023-06-28T08:42:53Z</time>
      </trkpt>
      <trkpt lat="49.96195" lon="2.11269">
        <ele>13</ele>
        <time>2023-06-28T08:42:54Z</time>
      </trkpt>
      <trkpt lat="49.96194" lon="2.11269">
        <ele>13</ele>
        <time>2023-06-28T08:42:55Z</time>
      </trkpt>
      <trkpt lat="49.96193" lon="2.1127">
        <ele>13</ele>
        <time>2023-06-28T08:42:56Z</time>
      </trkpt>
      <trkpt lat="49.96192" lon="2.1127">
        <ele>13</ele>
        <time>2023-06-28T08:42:57Z</time>
      </trkpt>
      <trkpt lat="49.9619" lon="2.11271">
        <ele>13</ele>
        <time>2023-06-28T08:42:58Z</time>
      </trkpt>
      <trkpt lat="49.96189" lon="2.11272">
        <ele>13</ele>
        <time>2023-06-28T08:42:59Z</time>
      </trkpt>
      <trkpt lat="49.96187" lon="2.11273">
        <ele>13</ele>
        <time>2023-06-28T08:43:00Z</time>
      </trkpt>
      <trkpt lat="49.96186" lon="2.11273">
        <ele>13</ele>
        <time>2023-06-28T08:43:01Z</time>
      </trkpt>
      <trkpt lat="49.96184" lon="2.11273">
        <ele>13</ele>
        <time>2023-06-28T08:43:02Z</time>
      </trkpt>
      <trkpt lat="49.96182" lon="2.11274">
        <ele>13</ele>
        <time>2023-06-28T08:43:03Z</time>
      </trkpt>
      <trkpt lat="49.9618" lon="2.11274">
        <ele>13</ele>
        <time>2023-06-28T08:43:04Z</time>
      </trkpt>
      <trkpt lat="49.96178" lon="2.11274">
        <ele>13</ele>
        <time>2023-06-28T08:43:05Z</time>
      </trkpt>
      <trkpt lat="49.96177" lon="2.11274">
        <ele>13</ele>
        <time>2023-06-28T08:43:06Z</time>
      </trkpt>
      <trkpt lat="49.96175" lon="2.11274">
        <ele>13</ele>
        <time>2023-06-28T08:43:07Z</time>
      </trkpt>
      <trkpt lat="49.96174" lon="2.11275">
        <ele>13</ele>
        <time>2023-06-28T08:43:08Z</time>
      </trkpt>
      <trkpt lat="49.96173" lon="2.11276">
        <ele>13</ele>
        <time>2023-06-28T08:43:09Z</time>
      </trkpt>
      <trkpt lat="49.96172" lon="2.11276">
        <ele>13</ele>
        <time>2023-06-28T08:43:10Z</time>
      </trkpt>
      <trkpt lat="49.96171" lon="2.11277">
        <ele>13</ele>
        <time>2023-06-28T08:43:11Z</time>
      </trkpt>
      <trkpt lat="49.9617" lon="2.11277">
        <ele>13</ele>
        <time>2023-06-28T08:43:12Z</time>
      </trkpt>
      <trkpt lat="49.96169" lon="2.11278">
        <ele>13</ele>
        <time>2023-06-28T08:43:13Z</time>
      </trkpt>
      <trkpt lat="49.96168" lon="2.11279">
        <ele>13</ele>
        <time>2023-06-28T08:43:14Z</time>
      </trkpt>
      <trkpt lat="49.96167" lon="2.1128">
        <ele>13</ele>
        <time>2023-06-28T08:43:15Z</time>
      </trkpt>
      <trkpt lat="49.96166" lon="2.11281">
        <ele>13</ele>
        <time>2023-06-28T08:43:16Z</time>
      </trkpt>
      <trkpt lat="49.96165" lon="2.11281">
        <ele>13</ele>
        <time>2023-06-28T08:43:17Z</time>
      </trkpt>
      <trkpt lat="49.96164" lon="2.11282">
        <ele>13</ele>
        <time>2023-06-28T08:43:18Z</time>
      </trkpt>
      <trkpt lat="49.96162" lon="2.11283">
        <ele>13</ele>
        <time>2023-06-28T08:43:19Z</time>
      </trkpt>
      <trkpt lat="49.96161" lon="2.11284">
        <ele>13</ele>
        <time>2023-06-28T08:43:20Z</time>
      </trkpt>
      <trkpt lat="49.9616" lon="2.11285">
        <ele>13</ele>
        <time>2023-06-28T08:43:21Z</time>
      </trkpt>
      <trkpt lat="49.96159" lon="2.11285">
        <ele>13</ele>
        <time>2023-06-28T08:43:22Z</time>
      </trkpt>
      <trkpt lat="49.96158" lon="2.11286">
        <ele>13</ele>
        <time>2023-06-28T08:43:23Z</time>
      </trkpt>
      <trkpt lat="49.96157" lon="2.11286">
        <ele>13</ele>
        <time>2023-06-28T08:43:24Z</time>
      </trkpt>
      <trkpt lat="49.96155" lon="2.11286">
        <ele>13</ele>
        <time>2023-06-28T08:43:25Z</time>
      </trkpt>
      <trkpt lat="49.96155" lon="2.11287">
        <ele>13</ele>
        <time>2023-06-28T08:43:26Z</time>
      </trkpt>
      <trkpt lat="49.96154" lon="2.11287">
        <ele>13</ele>
        <time>2023-06-28T08:43:27Z</time>
      </trkpt>
      <trkpt lat="49.96153" lon="2.11287">
        <ele>13</ele>
        <time>2023-06-28T08:43:28Z</time>
      </trkpt>
      <trkpt lat="49.96151" lon="2.11288">
        <ele>13</ele>
        <time>2023-06-28T08:43:29Z</time>
      </trkpt>
      <trkpt lat="49.9615" lon="2.11288">
        <ele>13</ele>
        <time>2023-06-28T08:43:30Z</time>
      </trkpt>
      <trkpt lat="49.96149" lon="2.11289">
        <ele>13</ele>
        <time>2023-06-28T08:43:31Z</time>
      </trkpt>
      <trkpt lat="49.96148" lon="2.11289">
        <ele>13</ele>
        <time>2023-06-28T08:43:32Z</time>
      </trkpt>
      <trkpt lat="49.96148" lon="2.1129">
        <ele>13</ele>
        <time>2023-06-28T08:43:33Z</time>
      </trkpt>
      <trkpt lat="49.96147" lon="2.1129">
        <ele>13</ele>
        <time>2023-06-28T08:43:34Z</time>
      </trkpt>
      <trkpt lat="49.96146" lon="2.11291">
        <ele>13</ele>
        <time>2023-06-28T08:43:35Z</time>
      </trkpt>
      <trkpt lat="49.96146" lon="2.11291">
        <ele>13</ele>
        <time>2023-06-28T08:43:36Z</time>
      </trkpt>
      <trkpt lat="49.96146" lon="2.11292">
        <ele>13</ele>
        <time>2023-06-28T08:43:37Z</time>
      </trkpt>
      <trkpt lat="49.96145" lon="2.11292">
        <ele>13</ele>
        <time>2023-06-28T08:43:38Z</time>
      </trkpt>
      <trkpt lat="49.96145" lon="2.11293">
        <ele>13</ele>
        <time>2023-06-28T08:43:39Z</time>
      </trkpt>
      <trkpt lat="49.96144" lon="2.11294">
        <ele>13</ele>
        <time>2023-06-28T08:43:40Z</time>
      </trkpt>
      <trkpt lat="49.96143" lon="2.11295">
        <ele>13</ele>
        <time>2023-06-28T08:43:41Z</time>
      </trkpt>
      <trkpt lat="49.96142" lon="2.11295">
        <ele>13</ele>
        <time>2023-06-28T08:43:42Z</time>
      </trkpt>
      <trkpt lat="49.96142" lon="2.11296">
        <ele>13</ele>
        <time>2023-06-28T08:43:43Z</time>
      </trkpt>
      <trkpt lat="49.96141" lon="2.11296">
        <ele>13</ele>
        <time>2023-06-28T08:43:44Z</time>
      </trkpt>
      <trkpt lat="49.9614" lon="2.11297">
        <ele>13</ele>
        <time>2023-06-28T08:43:45Z</time>
      </trkpt>
      <trkpt lat="49.96139" lon="2.11297">
        <ele>13</ele>
        <time>2023-06-28T08:43:46Z</time>
      </trkpt>
      <trkpt lat="49.96139" lon="2.11297">
        <ele>13</ele>
        <time>2023-06-28T08:43:47Z</time>
      </trkpt>
      <trkpt lat="49.96138" lon="2.11298">
        <ele>13</ele>
        <time>2023-06-28T08:43:48Z</time>
      </trkpt>
      <trkpt lat="49.96138" lon="2.11298">
        <ele>13</ele>
        <time>2023-06-28T08:43:49Z</time>
      </trkpt>
      <trkpt lat="49.96137" lon="2.11299">
        <ele>13</ele>
        <time>2023-06-28T08:43:50Z</time>
      </trkpt>
      <trkpt lat="49.96136" lon="2.11299">
        <ele>13</ele>
        <time>2023-06-28T08:43:51Z</time>
      </trkpt>
      <trkpt lat="49.96136" lon="2.113">
        <ele>13</ele>
        <time>2023-06-28T08:43:52Z</time>
      </trkpt>
      <trkpt lat="49.96135" lon="2.113">
        <ele>13</ele>
        <time>2023-06-28T08:43:53Z</time>
      </trkpt>
      <trkpt lat="49.96133" lon="2.11301">
        <ele>13</ele>
        <time>2023-06-28T08:43:54Z</time>
      </trkpt>
      <trkpt lat="49.96132" lon="2.11301">
        <ele>13</ele>
        <time>2023-06-28T08:43:55Z</time>
      </trkpt>
      <trkpt lat="49.96131" lon="2.11302">
        <ele>13</ele>
        <time>2023-06-28T08:43:56Z</time>
      </trkpt>
      <trkpt lat="49.96129" lon="2.11302">
        <ele>13</ele>
        <time>2023-06-28T08:43:57Z</time>
      </trkpt>
      <trkpt lat="49.96128" lon="2.11303">
        <ele>13</ele>
        <time>2023-06-28T08:43:58Z</time>
      </trkpt>
      <trkpt lat="49.96127" lon="2.11303">
        <ele>13</ele>
        <time>2023-06-28T08:43:59Z</time>
      </trkpt>
      <trkpt lat="49.96126" lon="2.11304">
        <ele>13</ele>
        <time>2023-06-28T08:44:00Z</time>
      </trkpt>
      <trkpt lat="49.96125" lon="2.11304">
        <ele>13</ele>
        <time>2023-06-28T08:44:01Z</time>
      </trkpt>
      <trkpt lat="49.96123" lon="2.11305">
        <ele>13</ele>
        <time>2023-06-28T08:44:02Z</time>
      </trkpt>
      <trkpt lat="49.96122" lon="2.11305">
        <ele>13</ele>
        <time>2023-06-28T08:44:03Z</time>
      </trkpt>
      <trkpt lat="49.96121" lon="2.11306">
        <ele>13</ele>
        <time>2023-06-28T08:44:04Z</time>
      </trkpt>
      <trkpt lat="49.96119" lon="2.11307">
        <ele>13</ele>
        <time>2023-06-28T08:44:05Z</time>
      </trkpt>
      <trkpt lat="49.96117" lon="2.11308">
        <ele>13</ele>
        <time>2023-06-28T08:44:06Z</time>
      </trkpt>
      <trkpt lat="49.96116" lon="2.11308">
        <ele>13</ele>
        <time>2023-06-28T08:44:07Z</time>
      </trkpt>
      <trkpt lat="49.96115" lon="2.11309">
        <ele>13</ele>
        <time>2023-06-28T08:44:08Z</time>
      </trkpt>
      <trkpt lat="49.96114" lon="2.1131">
        <ele>13</ele>
        <time>2023-06-28T08:44:09Z</time>
      </trkpt>
      <trkpt lat="49.96113" lon="2.11311">
        <ele>13</ele>
        <time>2023-06-28T08:44:10Z</time>
      </trkpt>
      <trkpt lat="49.96112" lon="2.11311">
        <ele>13</ele>
        <time>2023-06-28T08:44:11Z</time>
      </trkpt>
      <trkpt lat="49.96111" lon="2.11313">
        <ele>13</ele>
        <time>2023-06-28T08:44:12Z</time>
      </trkpt>
      <trkpt lat="49.9611" lon="2.11314">
        <ele>13</ele>
        <time>2023-06-28T08:44:13Z</time>
      </trkpt>
      <trkpt lat="49.96109" lon="2.11315">
        <ele>13</ele>
        <time>2023-06-28T08:44:14Z</time>
      </trkpt>
      <trkpt lat="49.96107" lon="2.11317">
        <ele>13</ele>
        <time>2023-06-28T08:44:15Z</time>
      </trkpt>
      <trkpt lat="49.96107" lon="2.11318">
        <ele>13</ele>
        <time>2023-06-28T08:44:16Z</time>
      </trkpt>
      <trkpt lat="49.96106" lon="2.11319">
        <ele>13</ele>
        <time>2023-06-28T08:44:17Z</time>
      </trkpt>
      <trkpt lat="49.96105" lon="2.1132">
        <ele>13</ele>
        <time>2023-06-28T08:44:18Z</time>
      </trkpt>
      <trkpt lat="49.96105" lon="2.11321">
        <ele>13</ele>
        <time>2023-06-28T08:44:19Z</time>
      </trkpt>
      <trkpt lat="49.96104" lon="2.11322">
        <ele>13</ele>
        <time>2023-06-28T08:44:20Z</time>
      </trkpt>
      <trkpt lat="49.96103" lon="2.11323">
        <ele>13</ele>
        <time>2023-06-28T08:44:21Z</time>
      </trkpt>
      <trkpt lat="49.96102" lon="2.11324">
        <ele>13</ele>
        <time>2023-06-28T08:44:22Z</time>
      </trkpt>
      <trkpt lat="49.96101" lon="2.11325">
        <ele>13</ele>
        <time>2023-06-28T08:44:23Z</time>
      </trkpt>
      <trkpt lat="49.961" lon="2.11326">
        <ele>13</ele>
        <time>2023-06-28T08:44:24Z</time>
      </trkpt>
      <trkpt lat="49.96099" lon="2.11327">
        <ele>13</ele>
        <time>2023-06-28T08:44:25Z</time>
      </trkpt>
      <trkpt lat="49.96099" lon="2.11328">
        <ele>13</ele>
        <time>2023-06-28T08:44:26Z</time>
      </trkpt>
      <trkpt lat="49.96098" lon="2.11328">
        <ele>13</ele>
        <time>2023-06-28T08:44:27Z</time>
      </trkpt>
      <trkpt lat="49.96097" lon="2.11329">
        <ele>13</ele>
        <time>2023-06-28T08:44:28Z</time>
      </trkpt>
      <trkpt lat="49.96096" lon="2.1133">
        <ele>13</ele>
        <time>2023-06-28T08:44:29Z</time>
      </trkpt>
      <trkpt lat="49.96096" lon="2.11331">
        <ele>13</ele>
        <time>2023-06-28T08:44:30Z</time>
      </trkpt>
      <trkpt lat="49.96095" lon="2.11332">
        <ele>13</ele>
        <time>2023-06-28T08:44:31Z</time>
      </trkpt>
      <trkpt lat="49.96094" lon="2.11333">
        <ele>13</ele>
        <time>2023-06-28T08:44:32Z</time>
      </trkpt>
      <trkpt lat="49.96093" lon="2.11335">
        <ele>13</ele>
        <time>2023-06-28T08:44:33Z</time>
      </trkpt>
      <trkpt lat="49.96092" lon="2.11336">
        <ele>13</ele>
        <time>2023-06-28T08:44:34Z</time>
      </trkpt>
      <trkpt lat="49.96091" lon="2.11337">
        <ele>13</ele>
        <time>2023-06-28T08:44:35Z</time>
      </trkpt>
      <trkpt lat="49.96091" lon="2.11338">
        <ele>13</ele>
        <time>2023-06-28T08:44:36Z</time>
      </trkpt>
      <trkpt lat="49.9609" lon="2.11339">
        <ele>13</ele>
        <time>2023-06-28T08:44:37Z</time>
      </trkpt>
      <trkpt lat="49.96089" lon="2.11339">
        <ele>13</ele>
        <time>2023-06-28T08:44:38Z</time>
      </trkpt>
      <trkpt lat="49.96089" lon="2.1134">
        <ele>13</ele>
        <time>2023-06-28T08:44:39Z</time>
      </trkpt>
      <trkpt lat="49.96088" lon="2.11341">
        <ele>13</ele>
        <time>2023-06-28T08:44:40Z</time>
      </trkpt>
      <trkpt lat="49.96086" lon="2.11342">
        <ele>13</ele>
        <time>2023-06-28T08:44:41Z</time>
      </trkpt>
      <trkpt lat="49.96085" lon="2.11344">
        <ele>13</ele>
        <time>2023-06-28T08:44:42Z</time>
      </trkpt>
      <trkpt lat="49.96084" lon="2.11345">
        <ele>13</ele>
        <time>2023-06-28T08:44:43Z</time>
      </trkpt>
      <trkpt lat="49.96083" lon="2.11346">
        <ele>13</ele>
        <time>2023-06-28T08:44:44Z</time>
      </trkpt>
      <trkpt lat="49.96082" lon="2.11346">
        <ele>13</ele>
        <time>2023-06-28T08:44:45Z</time>
      </trkpt>
      <trkpt lat="49.9608" lon="2.11348">
        <ele>13</ele>
        <time>2023-06-28T08:44:46Z</time>
      </trkpt>
      <trkpt lat="49.96079" lon="2.11349">
        <ele>13</ele>
        <time>2023-06-28T08:44:47Z</time>
      </trkpt>
      <trkpt lat="49.96078" lon="2.1135">
        <ele>13</ele>
        <time>2023-06-28T08:44:48Z</time>
      </trkpt>
      <trkpt lat="49.96076" lon="2.11351">
        <ele>13</ele>
        <time>2023-06-28T08:44:49Z</time>
      </trkpt>
      <trkpt lat="49.96075" lon="2.11351">
        <ele>13.1</ele>
        <time>2023-06-28T08:44:50Z</time>
      </trkpt>
      <trkpt lat="49.96074" lon="2.11352">
        <ele>13.1</ele>
        <time>2023-06-28T08:44:51Z</time>
      </trkpt>
      <trkpt lat="49.96073" lon="2.11353">
        <ele>13.1</ele>
        <time>2023-06-28T08:44:52Z</time>
      </trkpt>
      <trkpt lat="49.96071" lon="2.11354">
        <ele>13.1</ele>
        <time>2023-06-28T08:44:53Z</time>
      </trkpt>
      <trkpt lat="49.9607" lon="2.11354">
        <ele>13.1</ele>
        <time>2023-06-28T08:44:54Z</time>
      </trkpt>
      <trkpt lat="49.96069" lon="2.11354">
        <ele>13.1</ele>
        <time>2023-06-28T08:44:55Z</time>
      </trkpt>
      <trkpt lat="49.96068" lon="2.11354">
        <ele>13.1</ele>
        <time>2023-06-28T08:44:56Z</time>
      </trkpt>
      <trkpt lat="49.96066" lon="2.11355">
        <ele>13.1</ele>
        <time>2023-06-28T08:44:57Z</time>
      </trkpt>
      <trkpt lat="49.96065" lon="2.11355">
        <ele>13.1</ele>
        <time>2023-06-28T08:44:58Z</time>
      </trkpt>
      <trkpt lat="49.96064" lon="2.11356">
        <ele>13.1</ele>
        <time>2023-06-28T08:44:59Z</time>
      </trkpt>
      <trkpt lat="49.96062" lon="2.11356">
        <ele>13.1</ele>
        <time>2023-06-28T08:45:00Z</time>
      </trkpt>
      <trkpt lat="49.96061" lon="2.11356">
        <ele>13.1</ele>
        <time>2023-06-28T08:45:01Z</time>
      </trkpt>
      <trkpt lat="49.9606" lon="2.11356">
        <ele>13.1</ele>
        <time>2023-06-28T08:45:02Z</time>
      </trkpt>
      <trkpt lat="49.96059" lon="2.11357">
        <ele>13.1</ele>
        <time>2023-06-28T08:45:03Z</time>
      </trkpt>
      <trkpt lat="49.96058" lon="2.11357">
        <ele>13.1</ele>
        <time>2023-06-28T08:45:04Z</time>
      </trkpt>
      <trkpt lat="49.96057" lon="2.11358">
        <ele>13.1</ele>
        <time>2023-06-28T08:45:05Z</time>
      </trkpt>
      <trkpt lat="49.96056" lon="2.11358">
        <ele>13.1</ele>
        <time>2023-06-28T08:45:06Z</time>
      </trkpt>
      <trkpt lat="49.96055" lon="2.11359">
        <ele>13.1</ele>
        <time>2023-06-28T08:45:07Z</time>
      </trkpt>
      <trkpt lat="49.96054" lon="2.1136">
        <ele>13.1</ele>
        <time>2023-06-28T08:45:08Z</time>
      </trkpt>
      <trkpt lat="49.96053" lon="2.1136">
        <ele>13.1</ele>
        <time>2023-06-28T08:45:09Z</time>
      </trkpt>
      <trkpt lat="49.96052" lon="2.11361">
        <ele>13</ele>
        <time>2023-06-28T08:45:10Z</time>
      </trkpt>
      <trkpt lat="49.96051" lon="2.11361">
        <ele>13</ele>
        <time>2023-06-28T08:45:11Z</time>
      </trkpt>
      <trkpt lat="49.9605" lon="2.11362">
        <ele>13</ele>
        <time>2023-06-28T08:45:12Z</time>
      </trkpt>
      <trkpt lat="49.96049" lon="2.11363">
        <ele>13</ele>
        <time>2023-06-28T08:45:13Z</time>
      </trkpt>
      <trkpt lat="49.96048" lon="2.11364">
        <ele>13</ele>
        <time>2023-06-28T08:45:14Z</time>
      </trkpt>
      <trkpt lat="49.96047" lon="2.11365">
        <ele>13</ele>
        <time>2023-06-28T08:45:15Z</time>
      </trkpt>
      <trkpt lat="49.96047" lon="2.11366">
        <ele>13</ele>
        <time>2023-06-28T08:45:16Z</time>
      </trkpt>
      <trkpt lat="49.96046" lon="2.11367">
        <ele>13</ele>
        <time>2023-06-28T08:45:17Z</time>
      </trkpt>
      <trkpt lat="49.96045" lon="2.11368">
        <ele>13</ele>
        <time>2023-06-28T08:45:18Z</time>
      </trkpt>
      <trkpt lat="49.96044" lon="2.11369">
        <ele>13</ele>
        <time>2023-06-28T08:45:19Z</time>
      </trkpt>
      <trkpt lat="49.96043" lon="2.1137">
        <ele>13</ele>
        <time>2023-06-28T08:45:20Z</time>
      </trkpt>
      <trkpt lat="49.96042" lon="2.11371">
        <ele>13</ele>
        <time>2023-06-28T08:45:21Z</time>
      </trkpt>
      <trkpt lat="49.96041" lon="2.11372">
        <ele>13</ele>
        <time>2023-06-28T08:45:22Z</time>
      </trkpt>
      <trkpt lat="49.96041" lon="2.11373">
        <ele>13</ele>
        <time>2023-06-28T08:45:23Z</time>
      </trkpt>
      <trkpt lat="49.9604" lon="2.11374">
        <ele>13</ele>
        <time>2023-06-28T08:45:24Z</time>
      </trkpt>
      <trkpt lat="49.96039" lon="2.11375">
        <ele>13</ele>
        <time>2023-06-28T08:45:25Z</time>
      </trkpt>
      <trkpt lat="49.96038" lon="2.11376">
        <ele>13</ele>
        <time>2023-06-28T08:45:26Z</time>
      </trkpt>
      <trkpt lat="49.96037" lon="2.11377">
        <ele>13</ele>
        <time>2023-06-28T08:45:27Z</time>
      </trkpt>
      <trkpt lat="49.96036" lon="2.11378">
        <ele>13</ele>
        <time>2023-06-28T08:45:28Z</time>
      </trkpt>
      <trkpt lat="49.96036" lon="2.11378">
        <ele>13</ele>
        <time>2023-06-28T08:45:29Z</time>
      </trkpt>
      <trkpt lat="49.96035" lon="2.11379">
        <ele>13</ele>
        <time>2023-06-28T08:45:30Z</time>
      </trkpt>
      <trkpt lat="49.96034" lon="2.1138">
        <ele>13</ele>
        <time>2023-06-28T08:45:31Z</time>
      </trkpt>
      <trkpt lat="49.96033" lon="2.11381">
        <ele>13</ele>
        <time>2023-06-28T08:45:32Z</time>
      </trkpt>
      <trkpt lat="49.96032" lon="2.11382">
        <ele>13</ele>
        <time>2023-06-28T08:45:33Z</time>
      </trkpt>
      <trkpt lat="49.96031" lon="2.11384">
        <ele>13</ele>
        <time>2023-06-28T08:45:34Z</time>
      </trkpt>
      <trkpt lat="49.9603" lon="2.11384">
        <ele>13</ele>
        <time>2023-06-28T08:45:35Z</time>
      </trkpt>
      <trkpt lat="49.96029" lon="2.11385">
        <ele>13</ele>
        <time>2023-06-28T08:45:36Z</time>
      </trkpt>
      <trkpt lat="49.96028" lon="2.11387">
        <ele>13</ele>
        <time>2023-06-28T08:45:37Z</time>
      </trkpt>
      <trkpt lat="49.96027" lon="2.11388">
        <ele>13</ele>
        <time>2023-06-28T08:45:38Z</time>
      </trkpt>
      <trkpt lat="49.96026" lon="2.11388">
        <ele>13</ele>
        <time>2023-06-28T08:45:39Z</time>
      </trkpt>
      <trkpt lat="49.96025" lon="2.1139">
        <ele>13</ele>
        <time>2023-06-28T08:45:40Z</time>
      </trkpt>
      <trkpt lat="49.96024" lon="2.11391">
        <ele>13</ele>
        <time>2023-06-28T08:45:41Z</time>
      </trkpt>
      <trkpt lat="49.96023" lon="2.11393">
        <ele>13</ele>
        <time>2023-06-28T08:45:42Z</time>
      </trkpt>
      <trkpt lat="49.96022" lon="2.11395">
        <ele>13</ele>
        <time>2023-06-28T08:45:43Z</time>
      </trkpt>
      <trkpt lat="49.9602" lon="2.11397">
        <ele>13</ele>
        <time>2023-06-28T08:45:44Z</time>
      </trkpt>
      <trkpt lat="49.96019" lon="2.11398">
        <ele>13</ele>
        <time>2023-06-28T08:45:45Z</time>
      </trkpt>
      <trkpt lat="49.96018" lon="2.114">
        <ele>13</ele>
        <time>2023-06-28T08:45:46Z</time>
      </trkpt>
      <trkpt lat="49.96017" lon="2.11401">
        <ele>13</ele>
        <time>2023-06-28T08:45:47Z</time>
      </trkpt>
      <trkpt lat="49.96017" lon="2.11403">
        <ele>13</ele>
        <time>2023-06-28T08:45:48Z</time>
      </trkpt>
      <trkpt lat="49.96016" lon="2.11404">
        <ele>13</ele>
        <time>2023-06-28T08:45:49Z</time>
      </trkpt>
      <trkpt lat="49.96015" lon="2.11405">
        <ele>13</ele>
        <time>2023-06-28T08:45:50Z</time>
      </trkpt>
      <trkpt lat="49.96014" lon="2.11406">
        <ele>13</ele>
        <time>2023-06-28T08:45:51Z</time>
      </trkpt>
      <trkpt lat="49.96014" lon="2.11407">
        <ele>13</ele>
        <time>2023-06-28T08:45:52Z</time>
      </trkpt>
      <trkpt lat="49.96013" lon="2.11408">
        <ele>13</ele>
        <time>2023-06-28T08:45:53Z</time>
      </trkpt>
      <trkpt lat="49.96013" lon="2.11409">
        <ele>13</ele>
        <time>2023-06-28T08:45:54Z</time>
      </trkpt>
      <trkpt lat="49.96012" lon="2.1141">
        <ele>13</ele>
        <time>2023-06-28T08:45:55Z</time>
      </trkpt>
      <trkpt lat="49.96011" lon="2.11411">
        <ele>13</ele>
        <time>2023-06-28T08:45:56Z</time>
      </trkpt>
      <trkpt lat="49.9601" lon="2.11412">
        <ele>13</ele>
        <time>2023-06-28T08:45:57Z</time>
      </trkpt>
      <trkpt lat="49.96009" lon="2.11413">
        <ele>13</ele>
        <time>2023-06-28T08:45:58Z</time>
      </trkpt>
      <trkpt lat="49.96008" lon="2.11414">
        <ele>13</ele>
        <time>2023-06-28T08:45:59Z</time>
      </trkpt>
      <trkpt lat="49.96007" lon="2.11415">
        <ele>13</ele>
        <time>2023-06-28T08:46:00Z</time>
      </trkpt>
      <trkpt lat="49.96006" lon="2.11416">
        <ele>13</ele>
        <time>2023-06-28T08:46:01Z</time>
      </trkpt>
      <trkpt lat="49.96005" lon="2.11417">
        <ele>13</ele>
        <time>2023-06-28T08:46:02Z</time>
      </trkpt>
      <trkpt lat="49.96004" lon="2.11419">
        <ele>13</ele>
        <time>2023-06-28T08:46:03Z</time>
      </trkpt>
      <trkpt lat="49.96003" lon="2.1142">
        <ele>13</ele>
        <time>2023-06-28T08:46:04Z</time>
      </trkpt>
      <trkpt lat="49.96002" lon="2.11421">
        <ele>13</ele>
        <time>2023-06-28T08:46:05Z</time>
      </trkpt>
      <trkpt lat="49.96002" lon="2.11422">
        <ele>13</ele>
        <time>2023-06-28T08:46:06Z</time>
      </trkpt>
      <trkpt lat="49.96001" lon="2.11424">
        <ele>13</ele>
        <time>2023-06-28T08:46:07Z</time>
      </trkpt>
      <trkpt lat="49.96" lon="2.11425">
        <ele>13</ele>
        <time>2023-06-28T08:46:08Z</time>
      </trkpt>
      <trkpt lat="49.95999" lon="2.11426">
        <ele>13</ele>
        <time>2023-06-28T08:46:09Z</time>
      </trkpt>
      <trkpt lat="49.95998" lon="2.11427">
        <ele>13</ele>
        <time>2023-06-28T08:46:10Z</time>
      </trkpt>
      <trkpt lat="49.95998" lon="2.11429">
        <ele>13</ele>
        <time>2023-06-28T08:46:11Z</time>
      </trkpt>
      <trkpt lat="49.95997" lon="2.1143">
        <ele>13</ele>
        <time>2023-06-28T08:46:12Z</time>
      </trkpt>
      <trkpt lat="49.95996" lon="2.11432">
        <ele>13</ele>
        <time>2023-06-28T08:46:13Z</time>
      </trkpt>
      <trkpt lat="49.95996" lon="2.11433">
        <ele>13</ele>
        <time>2023-06-28T08:46:14Z</time>
      </trkpt>
      <trkpt lat="49.95995" lon="2.11434">
        <ele>13</ele>
        <time>2023-06-28T08:46:15Z</time>
      </trkpt>
      <trkpt lat="49.95994" lon="2.11435">
        <ele>13</ele>
        <time>2023-06-28T08:46:16Z</time>
      </trkpt>
      <trkpt lat="49.95994" lon="2.11437">
        <ele>13</ele>
        <time>2023-06-28T08:46:17Z</time>
      </trkpt>
      <trkpt lat="49.95993" lon="2.11438">
        <ele>13.1</ele>
        <time>2023-06-28T08:46:18Z</time>
      </trkpt>
      <trkpt lat="49.95992" lon="2.11439">
        <ele>13.1</ele>
        <time>2023-06-28T08:46:19Z</time>
      </trkpt>
      <trkpt lat="49.95991" lon="2.11441">
        <ele>13.1</ele>
        <time>2023-06-28T08:46:20Z</time>
      </trkpt>
      <trkpt lat="49.9599" lon="2.11442">
        <ele>13.1</ele>
        <time>2023-06-28T08:46:21Z</time>
      </trkpt>
      <trkpt lat="49.95989" lon="2.11443">
        <ele>13.1</ele>
        <time>2023-06-28T08:46:22Z</time>
      </trkpt>
      <trkpt lat="49.95989" lon="2.11444">
        <ele>13.1</ele>
        <time>2023-06-28T08:46:23Z</time>
      </trkpt>
      <trkpt lat="49.95988" lon="2.11445">
        <ele>13.1</ele>
        <time>2023-06-28T08:46:24Z</time>
      </trkpt>
      <trkpt lat="49.95987" lon="2.11446">
        <ele>13.1</ele>
        <time>2023-06-28T08:46:25Z</time>
      </trkpt>
      <trkpt lat="49.95986" lon="2.11447">
        <ele>13.1</ele>
        <time>2023-06-28T08:46:26Z</time>
      </trkpt>
      <trkpt lat="49.95985" lon="2.11449">
        <ele>13.1</ele>
        <time>2023-06-28T08:46:27Z</time>
      </trkpt>
      <trkpt lat="49.95984" lon="2.1145">
        <ele>13.1</ele>
        <time>2023-06-28T08:46:28Z</time>
      </trkpt>
      <trkpt lat="49.95983" lon="2.1145">
        <ele>13.1</ele>
        <time>2023-06-28T08:46:29Z</time>
      </trkpt>
      <trkpt lat="49.95982" lon="2.11451">
        <ele>13.1</ele>
        <time>2023-06-28T08:46:30Z</time>
      </trkpt>
      <trkpt lat="49.95982" lon="2.11452">
        <ele>13.1</ele>
        <time>2023-06-28T08:46:31Z</time>
      </trkpt>
      <trkpt lat="49.95981" lon="2.11453">
        <ele>13.1</ele>
        <time>2023-06-28T08:46:32Z</time>
      </trkpt>
      <trkpt lat="49.9598" lon="2.11454">
        <ele>13.1</ele>
        <time>2023-06-28T08:46:33Z</time>
      </trkpt>
      <trkpt lat="49.95979" lon="2.11454">
        <ele>13.1</ele>
        <time>2023-06-28T08:46:34Z</time>
      </trkpt>
      <trkpt lat="49.95978" lon="2.11455">
        <ele>13.1</ele>
        <time>2023-06-28T08:46:35Z</time>
      </trkpt>
      <trkpt lat="49.95978" lon="2.11456">
        <ele>13.1</ele>
        <time>2023-06-28T08:46:36Z</time>
      </trkpt>
      <trkpt lat="49.95977" lon="2.11457">
        <ele>13.1</ele>
        <time>2023-06-28T08:46:37Z</time>
      </trkpt>
      <trkpt lat="49.95976" lon="2.11458">
        <ele>13.1</ele>
        <time>2023-06-28T08:46:38Z</time>
      </trkpt>
      <trkpt lat="49.95975" lon="2.11459">
        <ele>13.1</ele>
        <time>2023-06-28T08:46:39Z</time>
      </trkpt>
      <trkpt lat="49.95974" lon="2.1146">
        <ele>13.1</ele>
        <time>2023-06-28T08:46:40Z</time>
      </trkpt>
      <trkpt lat="49.95973" lon="2.11461">
        <ele>13.1</ele>
        <time>2023-06-28T08:46:41Z</time>
      </trkpt>
      <trkpt lat="49.95972" lon="2.11462">
        <ele>13.1</ele>
        <time>2023-06-28T08:46:42Z</time>
      </trkpt>
      <trkpt lat="49.95971" lon="2.11463">
        <ele>13.1</ele>
        <time>2023-06-28T08:46:43Z</time>
      </trkpt>
      <trkpt lat="49.9597" lon="2.11464">
        <ele>13.2</ele>
        <time>2023-06-28T08:46:44Z</time>
      </trkpt>
      <trkpt lat="49.9597" lon="2.11465">
        <ele>13.2</ele>
        <time>2023-06-28T08:46:45Z</time>
      </trkpt>
      <trkpt lat="49.95969" lon="2.11466">
        <ele>13.2</ele>
        <time>2023-06-28T08:46:46Z</time>
      </trkpt>
      <trkpt lat="49.95968" lon="2.11467">
        <ele>13.2</ele>
        <time>2023-06-28T08:46:47Z</time>
      </trkpt>
      <trkpt lat="49.95966" lon="2.11468">
        <ele>13.2</ele>
        <time>2023-06-28T08:46:48Z</time>
      </trkpt>
      <trkpt lat="49.95965" lon="2.11468">
        <ele>13.2</ele>
        <time>2023-06-28T08:46:49Z</time>
      </trkpt>
      <trkpt lat="49.95964" lon="2.11468">
        <ele>13.2</ele>
        <time>2023-06-28T08:46:50Z</time>
      </trkpt>
      <trkpt lat="49.95962" lon="2.11469">
        <ele>13.2</ele>
        <time>2023-06-28T08:46:51Z</time>
      </trkpt>
      <trkpt lat="49.95961" lon="2.11469">
        <ele>13.2</ele>
        <time>2023-06-28T08:46:52Z</time>
      </trkpt>
      <trkpt lat="49.95959" lon="2.11469">
        <ele>13.2</ele>
        <time>2023-06-28T08:46:53Z</time>
      </trkpt>
      <trkpt lat="49.95957" lon="2.1147">
        <ele>13.2</ele>
        <time>2023-06-28T08:46:54Z</time>
      </trkpt>
      <trkpt lat="49.95955" lon="2.1147">
        <ele>13.2</ele>
        <time>2023-06-28T08:46:55Z</time>
      </trkpt>
      <trkpt lat="49.95954" lon="2.1147">
        <ele>13.2</ele>
        <time>2023-06-28T08:46:56Z</time>
      </trkpt>
      <trkpt lat="49.95952" lon="2.1147">
        <ele>13.2</ele>
        <time>2023-06-28T08:46:57Z</time>
      </trkpt>
      <trkpt lat="49.9595" lon="2.11471">
        <ele>13.2</ele>
        <time>2023-06-28T08:46:58Z</time>
      </trkpt>
      <trkpt lat="49.95949" lon="2.11471">
        <ele>13.2</ele>
        <time>2023-06-28T08:46:59Z</time>
      </trkpt>
      <trkpt lat="49.95947" lon="2.11471">
        <ele>13.2</ele>
        <time>2023-06-28T08:47:00Z</time>
      </trkpt>
      <trkpt lat="49.95946" lon="2.11471">
        <ele>13.2</ele>
        <time>2023-06-28T08:47:01Z</time>
      </trkpt>
      <trkpt lat="49.95945" lon="2.11471">
        <ele>13.2</ele>
        <time>2023-06-28T08:47:02Z</time>
      </trkpt>
      <trkpt lat="49.95943" lon="2.11472">
        <ele>13.2</ele>
        <time>2023-06-28T08:47:03Z</time>
      </trkpt>
      <trkpt lat="49.95942" lon="2.11472">
        <ele>13.2</ele>
        <time>2023-06-28T08:47:04Z</time>
      </trkpt>
      <trkpt lat="49.9594" lon="2.11473">
        <ele>13.2</ele>
        <time>2023-06-28T08:47:05Z</time>
      </trkpt>
      <trkpt lat="49.95939" lon="2.11474">
        <ele>13.2</ele>
        <time>2023-06-28T08:47:06Z</time>
      </trkpt>
      <trkpt lat="49.95938" lon="2.11474">
        <ele>13.2</ele>
        <time>2023-06-28T08:47:07Z</time>
      </trkpt>
      <trkpt lat="49.95937" lon="2.11475">
        <ele>13.2</ele>
        <time>2023-06-28T08:47:08Z</time>
      </trkpt>
      <trkpt lat="49.95936" lon="2.11476">
        <ele>13.2</ele>
        <time>2023-06-28T08:47:09Z</time>
      </trkpt>
      <trkpt lat="49.95935" lon="2.11477">
        <ele>13.1</ele>
        <time>2023-06-28T08:47:10Z</time>
      </trkpt>
      <trkpt lat="49.95934" lon="2.11478">
        <ele>13.1</ele>
        <time>2023-06-28T08:47:11Z</time>
      </trkpt>
      <trkpt lat="49.95933" lon="2.11479">
        <ele>13.1</ele>
        <time>2023-06-28T08:47:12Z</time>
      </trkpt>
      <trkpt lat="49.95933" lon="2.1148">
        <ele>13.1</ele>
        <time>2023-06-28T08:47:13Z</time>
      </trkpt>
      <trkpt lat="49.95932" lon="2.11481">
        <ele>13.1</ele>
        <time>2023-06-28T08:47:14Z</time>
      </trkpt>
      <trkpt lat="49.95931" lon="2.11482">
        <ele>13.1</ele>
        <time>2023-06-28T08:47:15Z</time>
      </trkpt>
      <trkpt lat="49.9593" lon="2.11483">
        <ele>13.1</ele>
        <time>2023-06-28T08:47:16Z</time>
      </trkpt>
      <trkpt lat="49.9593" lon="2.11484">
        <ele>13.1</ele>
        <time>2023-06-28T08:47:17Z</time>
      </trkpt>
      <trkpt lat="49.95929" lon="2.11485">
        <ele>13.1</ele>
        <time>2023-06-28T08:47:18Z</time>
      </trkpt>
      <trkpt lat="49.95928" lon="2.11486">
        <ele>13.1</ele>
        <time>2023-06-28T08:47:19Z</time>
      </trkpt>
      <trkpt lat="49.95927" lon="2.11487">
        <ele>13.1</ele>
        <time>2023-06-28T08:47:20Z</time>
      </trkpt>
      <trkpt lat="49.95926" lon="2.11488">
        <ele>13.1</ele>
        <time>2023-06-28T08:47:21Z</time>
      </trkpt>
      <trkpt lat="49.95926" lon="2.1149">
        <ele>13.1</ele>
        <time>2023-06-28T08:47:22Z</time>
      </trkpt>
      <trkpt lat="49.95924" lon="2.11492">
        <ele>13</ele>
        <time>2023-06-28T08:47:23Z</time>
      </trkpt>
      <trkpt lat="49.95923" lon="2.11492">
        <ele>13</ele>
        <time>2023-06-28T08:47:24Z</time>
      </trkpt>
      <trkpt lat="49.95923" lon="2.11493">
        <ele>13</ele>
        <time>2023-06-28T08:47:25Z</time>
      </trkpt>
      <trkpt lat="49.95922" lon="2.11494">
        <ele>13</ele>
        <time>2023-06-28T08:47:26Z</time>
      </trkpt>
      <trkpt lat="49.95921" lon="2.11495">
        <ele>13</ele>
        <time>2023-06-28T08:47:27Z</time>
      </trkpt>
      <trkpt lat="49.9592" lon="2.11497">
        <ele>13</ele>
        <time>2023-06-28T08:47:28Z</time>
      </trkpt>
      <trkpt lat="49.95918" lon="2.11499">
        <ele>13</ele>
        <time>2023-06-28T08:47:29Z</time>
      </trkpt>
      <trkpt lat="49.95917" lon="2.11499">
        <ele>13</ele>
        <time>2023-06-28T08:47:30Z</time>
      </trkpt>
      <trkpt lat="49.95917" lon="2.115">
        <ele>13</ele>
        <time>2023-06-28T08:47:31Z</time>
      </trkpt>
      <trkpt lat="49.95916" lon="2.11502">
        <ele>13</ele>
        <time>2023-06-28T08:47:32Z</time>
      </trkpt>
      <trkpt lat="49.95915" lon="2.11503">
        <ele>13</ele>
        <time>2023-06-28T08:47:33Z</time>
      </trkpt>
      <trkpt lat="49.95914" lon="2.11504">
        <ele>13</ele>
        <time>2023-06-28T08:47:34Z</time>
      </trkpt>
      <trkpt lat="49.95912" lon="2.11506">
        <ele>12.9</ele>
        <time>2023-06-28T08:47:35Z</time>
      </trkpt>
      <trkpt lat="49.95911" lon="2.11508">
        <ele>12.9</ele>
        <time>2023-06-28T08:47:36Z</time>
      </trkpt>
      <trkpt lat="49.9591" lon="2.11509">
        <ele>12.9</ele>
        <time>2023-06-28T08:47:37Z</time>
      </trkpt>
      <trkpt lat="49.9591" lon="2.1151">
        <ele>12.9</ele>
        <time>2023-06-28T08:47:38Z</time>
      </trkpt>
      <trkpt lat="49.95908" lon="2.11512">
        <ele>12.9</ele>
        <time>2023-06-28T08:47:39Z</time>
      </trkpt>
      <trkpt lat="49.95908" lon="2.11513">
        <ele>12.9</ele>
        <time>2023-06-28T08:47:40Z</time>
      </trkpt>
      <trkpt lat="49.95907" lon="2.11514">
        <ele>12.9</ele>
        <time>2023-06-28T08:47:41Z</time>
      </trkpt>
      <trkpt lat="49.95906" lon="2.11517">
        <ele>12.9</ele>
        <time>2023-06-28T08:47:42Z</time>
      </trkpt>
      <trkpt lat="49.95906" lon="2.11518">
        <ele>12.9</ele>
        <time>2023-06-28T08:47:43Z</time>
      </trkpt>
      <trkpt lat="49.95905" lon="2.11519">
        <ele>12.9</ele>
        <time>2023-06-28T08:47:44Z</time>
      </trkpt>
      <trkpt lat="49.95904" lon="2.11521">
        <ele>12.9</ele>
        <time>2023-06-28T08:47:45Z</time>
      </trkpt>
      <trkpt lat="49.95904" lon="2.11523">
        <ele>12.9</ele>
        <time>2023-06-28T08:47:46Z</time>
      </trkpt>
      <trkpt lat="49.95903" lon="2.11525">
        <ele>12.9</ele>
        <time>2023-06-28T08:47:47Z</time>
      </trkpt>
      <trkpt lat="49.95903" lon="2.11527">
        <ele>12.9</ele>
        <time>2023-06-28T08:47:48Z</time>
      </trkpt>
      <trkpt lat="49.95902" lon="2.1153">
        <ele>12.9</ele>
        <time>2023-06-28T08:47:49Z</time>
      </trkpt>
      <trkpt lat="49.95902" lon="2.11531">
        <ele>12.9</ele>
        <time>2023-06-28T08:47:50Z</time>
      </trkpt>
      <trkpt lat="49.95901" lon="2.11533">
        <ele>12.9</ele>
        <time>2023-06-28T08:47:51Z</time>
      </trkpt>
      <trkpt lat="49.95901" lon="2.11534">
        <ele>12.9</ele>
        <time>2023-06-28T08:47:52Z</time>
      </trkpt>
      <trkpt lat="49.95901" lon="2.11536">
        <ele>12.9</ele>
        <time>2023-06-28T08:47:53Z</time>
      </trkpt>
      <trkpt lat="49.95901" lon="2.11538">
        <ele>12.9</ele>
        <time>2023-06-28T08:47:54Z</time>
      </trkpt>
      <trkpt lat="49.959" lon="2.1154">
        <ele>12.9</ele>
        <time>2023-06-28T08:47:55Z</time>
      </trkpt>
      <trkpt lat="49.959" lon="2.11541">
        <ele>12.9</ele>
        <time>2023-06-28T08:47:56Z</time>
      </trkpt>
      <trkpt lat="49.959" lon="2.11543">
        <ele>12.9</ele>
        <time>2023-06-28T08:47:57Z</time>
      </trkpt>
      <trkpt lat="49.959" lon="2.11545">
        <ele>12.9</ele>
        <time>2023-06-28T08:47:58Z</time>
      </trkpt>
      <trkpt lat="49.95899" lon="2.11547">
        <ele>12.9</ele>
        <time>2023-06-28T08:47:59Z</time>
      </trkpt>
      <trkpt lat="49.95899" lon="2.11548">
        <ele>12.9</ele>
        <time>2023-06-28T08:48:00Z</time>
      </trkpt>
      <trkpt lat="49.95898" lon="2.1155">
        <ele>12.9</ele>
        <time>2023-06-28T08:48:01Z</time>
      </trkpt>
      <trkpt lat="49.95898" lon="2.11552">
        <ele>12.9</ele>
        <time>2023-06-28T08:48:02Z</time>
      </trkpt>
      <trkpt lat="49.95897" lon="2.11556">
        <ele>12.9</ele>
        <time>2023-06-28T08:48:03Z</time>
      </trkpt>
      <trkpt lat="49.95897" lon="2.11557">
        <ele>12.9</ele>
        <time>2023-06-28T08:48:04Z</time>
      </trkpt>
      <trkpt lat="49.95897" lon="2.11558">
        <ele>12.9</ele>
        <time>2023-06-28T08:48:05Z</time>
      </trkpt>
      <trkpt lat="49.95896" lon="2.1156">
        <ele>12.9</ele>
        <time>2023-06-28T08:48:06Z</time>
      </trkpt>
      <trkpt lat="49.95896" lon="2.11562">
        <ele>12.9</ele>
        <time>2023-06-28T08:48:07Z</time>
      </trkpt>
      <trkpt lat="49.95895" lon="2.11563">
        <ele>12.9</ele>
        <time>2023-06-28T08:48:08Z</time>
      </trkpt>
      <trkpt lat="49.95895" lon="2.11565">
        <ele>12.9</ele>
        <time>2023-06-28T08:48:09Z</time>
      </trkpt>
      <trkpt lat="49.95894" lon="2.11567">
        <ele>12.9</ele>
        <time>2023-06-28T08:48:10Z</time>
      </trkpt>
      <trkpt lat="49.95894" lon="2.11568">
        <ele>12.9</ele>
        <time>2023-06-28T08:48:11Z</time>
      </trkpt>
      <trkpt lat="49.95893" lon="2.11571">
        <ele>12.9</ele>
        <time>2023-06-28T08:48:12Z</time>
      </trkpt>
      <trkpt lat="49.95892" lon="2.11572">
        <ele>12.9</ele>
        <time>2023-06-28T08:48:13Z</time>
      </trkpt>
      <trkpt lat="49.95892" lon="2.11573">
        <ele>12.9</ele>
        <time>2023-06-28T08:48:14Z</time>
      </trkpt>
      <trkpt lat="49.95891" lon="2.11576">
        <ele>12.9</ele>
        <time>2023-06-28T08:48:15Z</time>
      </trkpt>
      <trkpt lat="49.9589" lon="2.11577">
        <ele>12.9</ele>
        <time>2023-06-28T08:48:16Z</time>
      </trkpt>
      <trkpt lat="49.9589" lon="2.11578">
        <ele>12.9</ele>
        <time>2023-06-28T08:48:17Z</time>
      </trkpt>
      <trkpt lat="49.95889" lon="2.11579">
        <ele>12.9</ele>
        <time>2023-06-28T08:48:18Z</time>
      </trkpt>
      <trkpt lat="49.95889" lon="2.1158">
        <ele>12.9</ele>
        <time>2023-06-28T08:48:19Z</time>
      </trkpt>
      <trkpt lat="49.95888" lon="2.11582">
        <ele>12.9</ele>
        <time>2023-06-28T08:48:20Z</time>
      </trkpt>
      <trkpt lat="49.95887" lon="2.11583">
        <ele>12.9</ele>
        <time>2023-06-28T08:48:21Z</time>
      </trkpt>
      <trkpt lat="49.95887" lon="2.11584">
        <ele>12.9</ele>
        <time>2023-06-28T08:48:22Z</time>
      </trkpt>
      <trkpt lat="49.95886" lon="2.11586">
        <ele>12.9</ele>
        <time>2023-06-28T08:48:23Z</time>
      </trkpt>
      <trkpt lat="49.95885" lon="2.11587">
        <ele>12.9</ele>
        <time>2023-06-28T08:48:24Z</time>
      </trkpt>
      <trkpt lat="49.95885" lon="2.11588">
        <ele>12.9</ele>
        <time>2023-06-28T08:48:25Z</time>
      </trkpt>
      <trkpt lat="49.95884" lon="2.1159">
        <ele>12.9</ele>
        <time>2023-06-28T08:48:26Z</time>
      </trkpt>
      <trkpt lat="49.95882" lon="2.11592">
        <ele>12.9</ele>
        <time>2023-06-28T08:48:27Z</time>
      </trkpt>
      <trkpt lat="49.95882" lon="2.11593">
        <ele>12.9</ele>
        <time>2023-06-28T08:48:28Z</time>
      </trkpt>
      <trkpt lat="49.95881" lon="2.11594">
        <ele>12.9</ele>
        <time>2023-06-28T08:48:29Z</time>
      </trkpt>
      <trkpt lat="49.9588" lon="2.11595">
        <ele>12.9</ele>
        <time>2023-06-28T08:48:30Z</time>
      </trkpt>
      <trkpt lat="49.95879" lon="2.11596">
        <ele>12.9</ele>
        <time>2023-06-28T08:48:31Z</time>
      </trkpt>
      <trkpt lat="49.95878" lon="2.11597">
        <ele>12.9</ele>
        <time>2023-06-28T08:48:32Z</time>
      </trkpt>
      <trkpt lat="49.95877" lon="2.11597">
        <ele>12.9</ele>
        <time>2023-06-28T08:48:33Z</time>
      </trkpt>
      <trkpt lat="49.95876" lon="2.11598">
        <ele>12.9</ele>
        <time>2023-06-28T08:48:34Z</time>
      </trkpt>
      <trkpt lat="49.95875" lon="2.11599">
        <ele>12.9</ele>
        <time>2023-06-28T08:48:35Z</time>
      </trkpt>
      <trkpt lat="49.95873" lon="2.11599">
        <ele>12.9</ele>
        <time>2023-06-28T08:48:36Z</time>
      </trkpt>
      <trkpt lat="49.95872" lon="2.116">
        <ele>12.9</ele>
        <time>2023-06-28T08:48:37Z</time>
      </trkpt>
      <trkpt lat="49.95871" lon="2.116">
        <ele>12.9</ele>
        <time>2023-06-28T08:48:38Z</time>
      </trkpt>
      <trkpt lat="49.95869" lon="2.11601">
        <ele>12.9</ele>
        <time>2023-06-28T08:48:39Z</time>
      </trkpt>
      <trkpt lat="49.95868" lon="2.11601">
        <ele>12.9</ele>
        <time>2023-06-28T08:48:40Z</time>
      </trkpt>
      <trkpt lat="49.95866" lon="2.11601">
        <ele>12.9</ele>
        <time>2023-06-28T08:48:41Z</time>
      </trkpt>
      <trkpt lat="49.95865" lon="2.11602">
        <ele>12.9</ele>
        <time>2023-06-28T08:48:42Z</time>
      </trkpt>
      <trkpt lat="49.95864" lon="2.11603">
        <ele>12.9</ele>
        <time>2023-06-28T08:48:43Z</time>
      </trkpt>
      <trkpt lat="49.95863" lon="2.11603">
        <ele>12.9</ele>
        <time>2023-06-28T08:48:44Z</time>
      </trkpt>
      <trkpt lat="49.95862" lon="2.11604">
        <ele>12.9</ele>
        <time>2023-06-28T08:48:45Z</time>
      </trkpt>
      <trkpt lat="49.9586" lon="2.11604">
        <ele>12.9</ele>
        <time>2023-06-28T08:48:46Z</time>
      </trkpt>
      <trkpt lat="49.95859" lon="2.11605">
        <ele>12.9</ele>
        <time>2023-06-28T08:48:47Z</time>
      </trkpt>
      <trkpt lat="49.95858" lon="2.11605">
        <ele>12.9</ele>
        <time>2023-06-28T08:48:48Z</time>
      </trkpt>
      <trkpt lat="49.95857" lon="2.11607">
        <ele>12.9</ele>
        <time>2023-06-28T08:48:49Z</time>
      </trkpt>
      <trkpt lat="49.95856" lon="2.11608">
        <ele>12.9</ele>
        <time>2023-06-28T08:48:50Z</time>
      </trkpt>
      <trkpt lat="49.95855" lon="2.11608">
        <ele>12.9</ele>
        <time>2023-06-28T08:48:51Z</time>
      </trkpt>
      <trkpt lat="49.95854" lon="2.11609">
        <ele>12.9</ele>
        <time>2023-06-28T08:48:52Z</time>
      </trkpt>
      <trkpt lat="49.95853" lon="2.1161">
        <ele>12.9</ele>
        <time>2023-06-28T08:48:53Z</time>
      </trkpt>
      <trkpt lat="49.95852" lon="2.11611">
        <ele>12.9</ele>
        <time>2023-06-28T08:48:54Z</time>
      </trkpt>
      <trkpt lat="49.95851" lon="2.11611">
        <ele>12.9</ele>
        <time>2023-06-28T08:48:55Z</time>
      </trkpt>
      <trkpt lat="49.95851" lon="2.11612">
        <ele>12.9</ele>
        <time>2023-06-28T08:48:56Z</time>
      </trkpt>
      <trkpt lat="49.9585" lon="2.11613">
        <ele>12.9</ele>
        <time>2023-06-28T08:48:57Z</time>
      </trkpt>
      <trkpt lat="49.95849" lon="2.11615">
        <ele>12.9</ele>
        <time>2023-06-28T08:48:58Z</time>
      </trkpt>
      <trkpt lat="49.95848" lon="2.11616">
        <ele>12.9</ele>
        <time>2023-06-28T08:48:59Z</time>
      </trkpt>
      <trkpt lat="49.95847" lon="2.11617">
        <ele>12.9</ele>
        <time>2023-06-28T08:49:00Z</time>
      </trkpt>
      <trkpt lat="49.95846" lon="2.11619">
        <ele>12.9</ele>
        <time>2023-06-28T08:49:01Z</time>
      </trkpt>
      <trkpt lat="49.95845" lon="2.1162">
        <ele>12.9</ele>
        <time>2023-06-28T08:49:02Z</time>
      </trkpt>
      <trkpt lat="49.95844" lon="2.11621">
        <ele>12.9</ele>
        <time>2023-06-28T08:49:03Z</time>
      </trkpt>
      <trkpt lat="49.95843" lon="2.11624">
        <ele>12.9</ele>
        <time>2023-06-28T08:49:04Z</time>
      </trkpt>
      <trkpt lat="49.95842" lon="2.11625">
        <ele>12.9</ele>
        <time>2023-06-28T08:49:05Z</time>
      </trkpt>
      <trkpt lat="49.95842" lon="2.11626">
        <ele>13</ele>
        <time>2023-06-28T08:49:06Z</time>
      </trkpt>
      <trkpt lat="49.95841" lon="2.11627">
        <ele>13</ele>
        <time>2023-06-28T08:49:07Z</time>
      </trkpt>
      <trkpt lat="49.9584" lon="2.11628">
        <ele>13</ele>
        <time>2023-06-28T08:49:08Z</time>
      </trkpt>
      <trkpt lat="49.95839" lon="2.1163">
        <ele>13</ele>
        <time>2023-06-28T08:49:09Z</time>
      </trkpt>
      <trkpt lat="49.95839" lon="2.11631">
        <ele>13</ele>
        <time>2023-06-28T08:49:10Z</time>
      </trkpt>
      <trkpt lat="49.95838" lon="2.11633">
        <ele>13</ele>
        <time>2023-06-28T08:49:11Z</time>
      </trkpt>
      <trkpt lat="49.95837" lon="2.11634">
        <ele>13</ele>
        <time>2023-06-28T08:49:12Z</time>
      </trkpt>
      <trkpt lat="49.95836" lon="2.11637">
        <ele>13</ele>
        <time>2023-06-28T08:49:13Z</time>
      </trkpt>
      <trkpt lat="49.95835" lon="2.11638">
        <ele>13</ele>
        <time>2023-06-28T08:49:14Z</time>
      </trkpt>
      <trkpt lat="49.95835" lon="2.11639">
        <ele>13</ele>
        <time>2023-06-28T08:49:15Z</time>
      </trkpt>
      <trkpt lat="49.95834" lon="2.11641">
        <ele>13</ele>
        <time>2023-06-28T08:49:16Z</time>
      </trkpt>
      <trkpt lat="49.95833" lon="2.11642">
        <ele>13</ele>
        <time>2023-06-28T08:49:17Z</time>
      </trkpt>
      <trkpt lat="49.95832" lon="2.11643">
        <ele>13</ele>
        <time>2023-06-28T08:49:18Z</time>
      </trkpt>
      <trkpt lat="49.95832" lon="2.11645">
        <ele>13</ele>
        <time>2023-06-28T08:49:19Z</time>
      </trkpt>
      <trkpt lat="49.95831" lon="2.11646">
        <ele>13</ele>
        <time>2023-06-28T08:49:20Z</time>
      </trkpt>
      <trkpt lat="49.9583" lon="2.11647">
        <ele>13</ele>
        <time>2023-06-28T08:49:21Z</time>
      </trkpt>
      <trkpt lat="49.9583" lon="2.11648">
        <ele>13</ele>
        <time>2023-06-28T08:49:22Z</time>
      </trkpt>
      <trkpt lat="49.95829" lon="2.11649">
        <ele>13</ele>
        <time>2023-06-28T08:49:23Z</time>
      </trkpt>
      <trkpt lat="49.95829" lon="2.1165">
        <ele>13</ele>
        <time>2023-06-28T08:49:24Z</time>
      </trkpt>
      <trkpt lat="49.95828" lon="2.11651">
        <ele>13</ele>
        <time>2023-06-28T08:49:25Z</time>
      </trkpt>
      <trkpt lat="49.95827" lon="2.11652">
        <ele>13</ele>
        <time>2023-06-28T08:49:26Z</time>
      </trkpt>
      <trkpt lat="49.95827" lon="2.11653">
        <ele>13</ele>
        <time>2023-06-28T08:49:27Z</time>
      </trkpt>
      <trkpt lat="49.95826" lon="2.11654">
        <ele>13</ele>
        <time>2023-06-28T08:49:28Z</time>
      </trkpt>
      <trkpt lat="49.95825" lon="2.11655">
        <ele>13</ele>
        <time>2023-06-28T08:49:29Z</time>
      </trkpt>
      <trkpt lat="49.95824" lon="2.11657">
        <ele>13</ele>
        <time>2023-06-28T08:49:30Z</time>
      </trkpt>
      <trkpt lat="49.95823" lon="2.11658">
        <ele>13</ele>
        <time>2023-06-28T08:49:31Z</time>
      </trkpt>
      <trkpt lat="49.95823" lon="2.11659">
        <ele>13</ele>
        <time>2023-06-28T08:49:32Z</time>
      </trkpt>
      <trkpt lat="49.95822" lon="2.1166">
        <ele>13</ele>
        <time>2023-06-28T08:49:33Z</time>
      </trkpt>
      <trkpt lat="49.95821" lon="2.11661">
        <ele>13</ele>
        <time>2023-06-28T08:49:34Z</time>
      </trkpt>
      <trkpt lat="49.9582" lon="2.11662">
        <ele>13</ele>
        <time>2023-06-28T08:49:35Z</time>
      </trkpt>
      <trkpt lat="49.95819" lon="2.11663">
        <ele>13</ele>
        <time>2023-06-28T08:49:36Z</time>
      </trkpt>
      <trkpt lat="49.95818" lon="2.11664">
        <ele>13</ele>
        <time>2023-06-28T08:49:37Z</time>
      </trkpt>
      <trkpt lat="49.95816" lon="2.11665">
        <ele>13</ele>
        <time>2023-06-28T08:49:38Z</time>
      </trkpt>
      <trkpt lat="49.95816" lon="2.11666">
        <ele>13</ele>
        <time>2023-06-28T08:49:39Z</time>
      </trkpt>
      <trkpt lat="49.95815" lon="2.11667">
        <ele>13</ele>
        <time>2023-06-28T08:49:40Z</time>
      </trkpt>
      <trkpt lat="49.95814" lon="2.11667">
        <ele>13</ele>
        <time>2023-06-28T08:49:41Z</time>
      </trkpt>
      <trkpt lat="49.95813" lon="2.11668">
        <ele>13</ele>
        <time>2023-06-28T08:49:42Z</time>
      </trkpt>
      <trkpt lat="49.95812" lon="2.11669">
        <ele>13</ele>
        <time>2023-06-28T08:49:43Z</time>
      </trkpt>
      <trkpt lat="49.95809" lon="2.1167">
        <ele>13</ele>
        <time>2023-06-28T08:49:44Z</time>
      </trkpt>
      <trkpt lat="49.95809" lon="2.1167">
        <ele>13</ele>
        <time>2023-06-28T08:49:45Z</time>
      </trkpt>
      <trkpt lat="49.95808" lon="2.1167">
        <ele>13</ele>
        <time>2023-06-28T08:49:46Z</time>
      </trkpt>
      <trkpt lat="49.95806" lon="2.11671">
        <ele>13</ele>
        <time>2023-06-28T08:49:47Z</time>
      </trkpt>
      <trkpt lat="49.95805" lon="2.11671">
        <ele>13</ele>
        <time>2023-06-28T08:49:48Z</time>
      </trkpt>
      <trkpt lat="49.95804" lon="2.11672">
        <ele>13</ele>
        <time>2023-06-28T08:49:49Z</time>
      </trkpt>
      <trkpt lat="49.95802" lon="2.11673">
        <ele>13</ele>
        <time>2023-06-28T08:49:50Z</time>
      </trkpt>
      <trkpt lat="49.958" lon="2.11674">
        <ele>13</ele>
        <time>2023-06-28T08:49:51Z</time>
      </trkpt>
      <trkpt lat="49.95799" lon="2.11675">
        <ele>13</ele>
        <time>2023-06-28T08:49:52Z</time>
      </trkpt>
      <trkpt lat="49.95799" lon="2.11676">
        <ele>13</ele>
        <time>2023-06-28T08:49:53Z</time>
      </trkpt>
      <trkpt lat="49.95797" lon="2.11677">
        <ele>13</ele>
        <time>2023-06-28T08:49:54Z</time>
      </trkpt>
      <trkpt lat="49.95796" lon="2.11678">
        <ele>13</ele>
        <time>2023-06-28T08:49:55Z</time>
      </trkpt>
      <trkpt lat="49.95795" lon="2.11678">
        <ele>13</ele>
        <time>2023-06-28T08:49:56Z</time>
      </trkpt>
      <trkpt lat="49.95794" lon="2.11679">
        <ele>13</ele>
        <time>2023-06-28T08:49:57Z</time>
      </trkpt>
      <trkpt lat="49.95793" lon="2.1168">
        <ele>13</ele>
        <time>2023-06-28T08:49:58Z</time>
      </trkpt>
      <trkpt lat="49.95792" lon="2.11681">
        <ele>13</ele>
        <time>2023-06-28T08:49:59Z</time>
      </trkpt>
      <trkpt lat="49.95791" lon="2.11682">
        <ele>13</ele>
        <time>2023-06-28T08:50:00Z</time>
      </trkpt>
      <trkpt lat="49.9579" lon="2.11683">
        <ele>13</ele>
        <time>2023-06-28T08:50:01Z</time>
      </trkpt>
      <trkpt lat="49.9579" lon="2.11684">
        <ele>13</ele>
        <time>2023-06-28T08:50:02Z</time>
      </trkpt>
      <trkpt lat="49.95788" lon="2.11685">
        <ele>13</ele>
        <time>2023-06-28T08:50:03Z</time>
      </trkpt>
      <trkpt lat="49.95787" lon="2.11686">
        <ele>13</ele>
        <time>2023-06-28T08:50:04Z</time>
      </trkpt>
      <trkpt lat="49.95786" lon="2.11687">
        <ele>13</ele>
        <time>2023-06-28T08:50:05Z</time>
      </trkpt>
      <trkpt lat="49.95784" lon="2.11688">
        <ele>13</ele>
        <time>2023-06-28T08:50:06Z</time>
      </trkpt>
      <trkpt lat="49.95783" lon="2.11688">
        <ele>13</ele>
        <time>2023-06-28T08:50:07Z</time>
      </trkpt>
      <trkpt lat="49.95782" lon="2.11689">
        <ele>13</ele>
        <time>2023-06-28T08:50:08Z</time>
      </trkpt>
      <trkpt lat="49.9578" lon="2.1169">
        <ele>13</ele>
        <time>2023-06-28T08:50:09Z</time>
      </trkpt>
      <trkpt lat="49.9578" lon="2.11691">
        <ele>13</ele>
        <time>2023-06-28T08:50:10Z</time>
      </trkpt>
      <trkpt lat="49.95779" lon="2.11691">
        <ele>13</ele>
        <time>2023-06-28T08:50:11Z</time>
      </trkpt>
      <trkpt lat="49.95778" lon="2.11692">
        <ele>13</ele>
        <time>2023-06-28T08:50:12Z</time>
      </trkpt>
      <trkpt lat="49.95777" lon="2.11693">
        <ele>13</ele>
        <time>2023-06-28T08:50:13Z</time>
      </trkpt>
      <trkpt lat="49.95777" lon="2.11694">
        <ele>13</ele>
        <time>2023-06-28T08:50:14Z</time>
      </trkpt>
      <trkpt lat="49.95776" lon="2.11694">
        <ele>13</ele>
        <time>2023-06-28T08:50:15Z</time>
      </trkpt>
      <trkpt lat="49.95775" lon="2.11695">
        <ele>13</ele>
        <time>2023-06-28T08:50:16Z</time>
      </trkpt>
      <trkpt lat="49.95774" lon="2.11696">
        <ele>13</ele>
        <time>2023-06-28T08:50:17Z</time>
      </trkpt>
      <trkpt lat="49.95773" lon="2.11697">
        <ele>13</ele>
        <time>2023-06-28T08:50:18Z</time>
      </trkpt>
      <trkpt lat="49.95773" lon="2.11698">
        <ele>13</ele>
        <time>2023-06-28T08:50:19Z</time>
      </trkpt>
      <trkpt lat="49.95772" lon="2.11699">
        <ele>13</ele>
        <time>2023-06-28T08:50:20Z</time>
      </trkpt>
      <trkpt lat="49.95771" lon="2.117">
        <ele>13</ele>
        <time>2023-06-28T08:50:21Z</time>
      </trkpt>
      <trkpt lat="49.9577" lon="2.11701">
        <ele>13</ele>
        <time>2023-06-28T08:50:22Z</time>
      </trkpt>
      <trkpt lat="49.9577" lon="2.11702">
        <ele>13</ele>
        <time>2023-06-28T08:50:23Z</time>
      </trkpt>
      <trkpt lat="49.95769" lon="2.11703">
        <ele>13</ele>
        <time>2023-06-28T08:50:24Z</time>
      </trkpt>
      <trkpt lat="49.95768" lon="2.11705">
        <ele>13</ele>
        <time>2023-06-28T08:50:25Z</time>
      </trkpt>
      <trkpt lat="49.95768" lon="2.11706">
        <ele>13</ele>
        <time>2023-06-28T08:50:26Z</time>
      </trkpt>
      <trkpt lat="49.95767" lon="2.11708">
        <ele>13</ele>
        <time>2023-06-28T08:50:27Z</time>
      </trkpt>
      <trkpt lat="49.95766" lon="2.11709">
        <ele>13</ele>
        <time>2023-06-28T08:50:28Z</time>
      </trkpt>
      <trkpt lat="49.95766" lon="2.11711">
        <ele>13</ele>
        <time>2023-06-28T08:50:29Z</time>
      </trkpt>
      <trkpt lat="49.95764" lon="2.11713">
        <ele>13</ele>
        <time>2023-06-28T08:50:30Z</time>
      </trkpt>
      <trkpt lat="49.95764" lon="2.11714">
        <ele>13</ele>
        <time>2023-06-28T08:50:31Z</time>
      </trkpt>
      <trkpt lat="49.95763" lon="2.11715">
        <ele>13</ele>
        <time>2023-06-28T08:50:32Z</time>
      </trkpt>
      <trkpt lat="49.95762" lon="2.11717">
        <ele>13</ele>
        <time>2023-06-28T08:50:33Z</time>
      </trkpt>
      <trkpt lat="49.95761" lon="2.11718">
        <ele>13</ele>
        <time>2023-06-28T08:50:34Z</time>
      </trkpt>
      <trkpt lat="49.95761" lon="2.11719">
        <ele>13</ele>
        <time>2023-06-28T08:50:35Z</time>
      </trkpt>
      <trkpt lat="49.9576" lon="2.11721">
        <ele>13</ele>
        <time>2023-06-28T08:50:36Z</time>
      </trkpt>
      <trkpt lat="49.95759" lon="2.11722">
        <ele>13</ele>
        <time>2023-06-28T08:50:37Z</time>
      </trkpt>
      <trkpt lat="49.95759" lon="2.11723">
        <ele>13</ele>
        <time>2023-06-28T08:50:38Z</time>
      </trkpt>
      <trkpt lat="49.95758" lon="2.11724">
        <ele>13</ele>
        <time>2023-06-28T08:50:39Z</time>
      </trkpt>
      <trkpt lat="49.95757" lon="2.11726">
        <ele>13</ele>
        <time>2023-06-28T08:50:40Z</time>
      </trkpt>
      <trkpt lat="49.95757" lon="2.11727">
        <ele>13</ele>
        <time>2023-06-28T08:50:41Z</time>
      </trkpt>
      <trkpt lat="49.95756" lon="2.1173">
        <ele>13</ele>
        <time>2023-06-28T08:50:42Z</time>
      </trkpt>
      <trkpt lat="49.95755" lon="2.11731">
        <ele>13</ele>
        <time>2023-06-28T08:50:43Z</time>
      </trkpt>
      <trkpt lat="49.95755" lon="2.11732">
        <ele>13</ele>
        <time>2023-06-28T08:50:44Z</time>
      </trkpt>
      <trkpt lat="49.95754" lon="2.11734">
        <ele>13</ele>
        <time>2023-06-28T08:50:45Z</time>
      </trkpt>
      <trkpt lat="49.95753" lon="2.11735">
        <ele>13</ele>
        <time>2023-06-28T08:50:46Z</time>
      </trkpt>
      <trkpt lat="49.95752" lon="2.11736">
        <ele>13</ele>
        <time>2023-06-28T08:50:47Z</time>
      </trkpt>
      <trkpt lat="49.95752" lon="2.11737">
        <ele>13</ele>
        <time>2023-06-28T08:50:48Z</time>
      </trkpt>
      <trkpt lat="49.95751" lon="2.11738">
        <ele>13</ele>
        <time>2023-06-28T08:50:49Z</time>
      </trkpt>
      <trkpt lat="49.9575" lon="2.11739">
        <ele>13</ele>
        <time>2023-06-28T08:50:50Z</time>
      </trkpt>
      <trkpt lat="49.95749" lon="2.1174">
        <ele>13</ele>
        <time>2023-06-28T08:50:51Z</time>
      </trkpt>
      <trkpt lat="49.95748" lon="2.11741">
        <ele>13</ele>
        <time>2023-06-28T08:50:52Z</time>
      </trkpt>
      <trkpt lat="49.95747" lon="2.11742">
        <ele>13</ele>
        <time>2023-06-28T08:50:53Z</time>
      </trkpt>
      <trkpt lat="49.95745" lon="2.11744">
        <ele>13</ele>
        <time>2023-06-28T08:50:54Z</time>
      </trkpt>
      <trkpt lat="49.95745" lon="2.11745">
        <ele>13</ele>
        <time>2023-06-28T08:50:55Z</time>
      </trkpt>
      <trkpt lat="49.95744" lon="2.11746">
        <ele>13</ele>
        <time>2023-06-28T08:50:56Z</time>
      </trkpt>
      <trkpt lat="49.95742" lon="2.11748">
        <ele>13</ele>
        <time>2023-06-28T08:50:57Z</time>
      </trkpt>
      <trkpt lat="49.95742" lon="2.11749">
        <ele>13</ele>
        <time>2023-06-28T08:50:58Z</time>
      </trkpt>
      <trkpt lat="49.95741" lon="2.11749">
        <ele>13</ele>
        <time>2023-06-28T08:50:59Z</time>
      </trkpt>
      <trkpt lat="49.95739" lon="2.11752">
        <ele>13</ele>
        <time>2023-06-28T08:51:00Z</time>
      </trkpt>
      <trkpt lat="49.95738" lon="2.11752">
        <ele>13</ele>
        <time>2023-06-28T08:51:01Z</time>
      </trkpt>
      <trkpt lat="49.95738" lon="2.11753">
        <ele>13</ele>
        <time>2023-06-28T08:51:02Z</time>
      </trkpt>
      <trkpt lat="49.95736" lon="2.11755">
        <ele>13</ele>
        <time>2023-06-28T08:51:03Z</time>
      </trkpt>
      <trkpt lat="49.95735" lon="2.11756">
        <ele>13</ele>
        <time>2023-06-28T08:51:04Z</time>
      </trkpt>
      <trkpt lat="49.95734" lon="2.11757">
        <ele>13</ele>
        <time>2023-06-28T08:51:05Z</time>
      </trkpt>
      <trkpt lat="49.95734" lon="2.11758">
        <ele>13</ele>
        <time>2023-06-28T08:51:06Z</time>
      </trkpt>
      <trkpt lat="49.95733" lon="2.11759">
        <ele>13</ele>
        <time>2023-06-28T08:51:07Z</time>
      </trkpt>
      <trkpt lat="49.95732" lon="2.1176">
        <ele>13</ele>
        <time>2023-06-28T08:51:08Z</time>
      </trkpt>
      <trkpt lat="49.95731" lon="2.11761">
        <ele>13</ele>
        <time>2023-06-28T08:51:09Z</time>
      </trkpt>
      <trkpt lat="49.9573" lon="2.11762">
        <ele>13</ele>
        <time>2023-06-28T08:51:10Z</time>
      </trkpt>
      <trkpt lat="49.95729" lon="2.11763">
        <ele>13</ele>
        <time>2023-06-28T08:51:11Z</time>
      </trkpt>
      <trkpt lat="49.95728" lon="2.11764">
        <ele>13</ele>
        <time>2023-06-28T08:51:12Z</time>
      </trkpt>
      <trkpt lat="49.95728" lon="2.11765">
        <ele>13</ele>
        <time>2023-06-28T08:51:13Z</time>
      </trkpt>
      <trkpt lat="49.95726" lon="2.11767">
        <ele>13</ele>
        <time>2023-06-28T08:51:14Z</time>
      </trkpt>
      <trkpt lat="49.95725" lon="2.11768">
        <ele>13</ele>
        <time>2023-06-28T08:51:15Z</time>
      </trkpt>
      <trkpt lat="49.95724" lon="2.11768">
        <ele>13</ele>
        <time>2023-06-28T08:51:16Z</time>
      </trkpt>
      <trkpt lat="49.95722" lon="2.1177">
        <ele>13</ele>
        <time>2023-06-28T08:51:17Z</time>
      </trkpt>
      <trkpt lat="49.95722" lon="2.11771">
        <ele>13</ele>
        <time>2023-06-28T08:51:18Z</time>
      </trkpt>
      <trkpt lat="49.95721" lon="2.11771">
        <ele>13</ele>
        <time>2023-06-28T08:51:19Z</time>
      </trkpt>
      <trkpt lat="49.9572" lon="2.11772">
        <ele>13</ele>
        <time>2023-06-28T08:51:20Z</time>
      </trkpt>
      <trkpt lat="49.95719" lon="2.11773">
        <ele>13</ele>
        <time>2023-06-28T08:51:21Z</time>
      </trkpt>
      <trkpt lat="49.95718" lon="2.11774">
        <ele>13</ele>
        <time>2023-06-28T08:51:22Z</time>
      </trkpt>
      <trkpt lat="49.95717" lon="2.11775">
        <ele>13</ele>
        <time>2023-06-28T08:51:23Z</time>
      </trkpt>
      <trkpt lat="49.95716" lon="2.11776">
        <ele>13</ele>
        <time>2023-06-28T08:51:24Z</time>
      </trkpt>
      <trkpt lat="49.95715" lon="2.11777">
        <ele>13</ele>
        <time>2023-06-28T08:51:25Z</time>
      </trkpt>
      <trkpt lat="49.95714" lon="2.11777">
        <ele>13</ele>
        <time>2023-06-28T08:51:26Z</time>
      </trkpt>
      <trkpt lat="49.95713" lon="2.11778">
        <ele>13</ele>
        <time>2023-06-28T08:51:27Z</time>
      </trkpt>
      <trkpt lat="49.95712" lon="2.11779">
        <ele>13</ele>
        <time>2023-06-28T08:51:28Z</time>
      </trkpt>
      <trkpt lat="49.95711" lon="2.1178">
        <ele>13</ele>
        <time>2023-06-28T08:51:29Z</time>
      </trkpt>
      <trkpt lat="49.9571" lon="2.11781">
        <ele>13</ele>
        <time>2023-06-28T08:51:30Z</time>
      </trkpt>
      <trkpt lat="49.95709" lon="2.11782">
        <ele>13</ele>
        <time>2023-06-28T08:51:31Z</time>
      </trkpt>
      <trkpt lat="49.95708" lon="2.11783">
        <ele>13</ele>
        <time>2023-06-28T08:51:32Z</time>
      </trkpt>
      <trkpt lat="49.95707" lon="2.11784">
        <ele>13</ele>
        <time>2023-06-28T08:51:33Z</time>
      </trkpt>
      <trkpt lat="49.95706" lon="2.11784">
        <ele>13</ele>
        <time>2023-06-28T08:51:34Z</time>
      </trkpt>
      <trkpt lat="49.95705" lon="2.11785">
        <ele>13</ele>
        <time>2023-06-28T08:51:35Z</time>
      </trkpt>
      <trkpt lat="49.95704" lon="2.11786">
        <ele>13</ele>
        <time>2023-06-28T08:51:36Z</time>
      </trkpt>
      <trkpt lat="49.95704" lon="2.11787">
        <ele>13</ele>
        <time>2023-06-28T08:51:37Z</time>
      </trkpt>
      <trkpt lat="49.95703" lon="2.11788">
        <ele>13</ele>
        <time>2023-06-28T08:51:38Z</time>
      </trkpt>
      <trkpt lat="49.95702" lon="2.11789">
        <ele>13</ele>
        <time>2023-06-28T08:51:39Z</time>
      </trkpt>
      <trkpt lat="49.95701" lon="2.1179">
        <ele>13</ele>
        <time>2023-06-28T08:51:40Z</time>
      </trkpt>
      <trkpt lat="49.957" lon="2.11791">
        <ele>13</ele>
        <time>2023-06-28T08:51:41Z</time>
      </trkpt>
      <trkpt lat="49.95699" lon="2.11792">
        <ele>13</ele>
        <time>2023-06-28T08:51:42Z</time>
      </trkpt>
      <trkpt lat="49.95698" lon="2.11793">
        <ele>13</ele>
        <time>2023-06-28T08:51:43Z</time>
      </trkpt>
      <trkpt lat="49.95697" lon="2.11794">
        <ele>13</ele>
        <time>2023-06-28T08:51:44Z</time>
      </trkpt>
      <trkpt lat="49.95696" lon="2.11795">
        <ele>13</ele>
        <time>2023-06-28T08:51:45Z</time>
      </trkpt>
      <trkpt lat="49.95695" lon="2.11796">
        <ele>13</ele>
        <time>2023-06-28T08:51:46Z</time>
      </trkpt>
      <trkpt lat="49.95694" lon="2.11798">
        <ele>13</ele>
        <time>2023-06-28T08:51:47Z</time>
      </trkpt>
      <trkpt lat="49.95693" lon="2.11799">
        <ele>13</ele>
        <time>2023-06-28T08:51:48Z</time>
      </trkpt>
      <trkpt lat="49.95692" lon="2.118">
        <ele>13</ele>
        <time>2023-06-28T08:51:49Z</time>
      </trkpt>
      <trkpt lat="49.95691" lon="2.11802">
        <ele>13</ele>
        <time>2023-06-28T08:51:50Z</time>
      </trkpt>
      <trkpt lat="49.9569" lon="2.11803">
        <ele>13</ele>
        <time>2023-06-28T08:51:51Z</time>
      </trkpt>
      <trkpt lat="49.95689" lon="2.11804">
        <ele>13</ele>
        <time>2023-06-28T08:51:52Z</time>
      </trkpt>
      <trkpt lat="49.95688" lon="2.11805">
        <ele>13</ele>
        <time>2023-06-28T08:51:53Z</time>
      </trkpt>
      <trkpt lat="49.95687" lon="2.11807">
        <ele>13</ele>
        <time>2023-06-28T08:51:54Z</time>
      </trkpt>
      <trkpt lat="49.95686" lon="2.11809">
        <ele>13</ele>
        <time>2023-06-28T08:51:55Z</time>
      </trkpt>
      <trkpt lat="49.95685" lon="2.1181">
        <ele>13</ele>
        <time>2023-06-28T08:51:56Z</time>
      </trkpt>
      <trkpt lat="49.95685" lon="2.11811">
        <ele>13</ele>
        <time>2023-06-28T08:51:57Z</time>
      </trkpt>
      <trkpt lat="49.95684" lon="2.11813">
        <ele>13</ele>
        <time>2023-06-28T08:51:58Z</time>
      </trkpt>
      <trkpt lat="49.95683" lon="2.11814">
        <ele>13</ele>
        <time>2023-06-28T08:51:59Z</time>
      </trkpt>
      <trkpt lat="49.95683" lon="2.11816">
        <ele>13</ele>
        <time>2023-06-28T08:52:00Z</time>
      </trkpt>
      <trkpt lat="49.95681" lon="2.11818">
        <ele>13</ele>
        <time>2023-06-28T08:52:01Z</time>
      </trkpt>
      <trkpt lat="49.95681" lon="2.11819">
        <ele>13</ele>
        <time>2023-06-28T08:52:02Z</time>
      </trkpt>
      <trkpt lat="49.9568" lon="2.1182">
        <ele>13</ele>
        <time>2023-06-28T08:52:03Z</time>
      </trkpt>
      <trkpt lat="49.95679" lon="2.11822">
        <ele>13</ele>
        <time>2023-06-28T08:52:04Z</time>
      </trkpt>
      <trkpt lat="49.95678" lon="2.11823">
        <ele>13</ele>
        <time>2023-06-28T08:52:05Z</time>
      </trkpt>
      <trkpt lat="49.95678" lon="2.11824">
        <ele>13</ele>
        <time>2023-06-28T08:52:06Z</time>
      </trkpt>
      <trkpt lat="49.95676" lon="2.11826">
        <ele>13</ele>
        <time>2023-06-28T08:52:07Z</time>
      </trkpt>
      <trkpt lat="49.95676" lon="2.11828">
        <ele>13</ele>
        <time>2023-06-28T08:52:08Z</time>
      </trkpt>
      <trkpt lat="49.95675" lon="2.11829">
        <ele>13</ele>
        <time>2023-06-28T08:52:09Z</time>
      </trkpt>
      <trkpt lat="49.95675" lon="2.11832">
        <ele>13</ele>
        <time>2023-06-28T08:52:10Z</time>
      </trkpt>
      <trkpt lat="49.95674" lon="2.11833">
        <ele>13</ele>
        <time>2023-06-28T08:52:11Z</time>
      </trkpt>
      <trkpt lat="49.95674" lon="2.11834">
        <ele>13</ele>
        <time>2023-06-28T08:52:12Z</time>
      </trkpt>
      <trkpt lat="49.95674" lon="2.11836">
        <ele>13</ele>
        <time>2023-06-28T08:52:13Z</time>
      </trkpt>
      <trkpt lat="49.95674" lon="2.11838">
        <ele>13</ele>
        <time>2023-06-28T08:52:14Z</time>
      </trkpt>
      <trkpt lat="49.95674" lon="2.1184">
        <ele>13</ele>
        <time>2023-06-28T08:52:15Z</time>
      </trkpt>
      <trkpt lat="49.95673" lon="2.11841">
        <ele>13</ele>
        <time>2023-06-28T08:52:16Z</time>
      </trkpt>
      <trkpt lat="49.95673" lon="2.11843">
        <ele>13</ele>
        <time>2023-06-28T08:52:17Z</time>
      </trkpt>
      <trkpt lat="49.95673" lon="2.11844">
        <ele>13</ele>
        <time>2023-06-28T08:52:18Z</time>
      </trkpt>
      <trkpt lat="49.95673" lon="2.11846">
        <ele>13</ele>
        <time>2023-06-28T08:52:19Z</time>
      </trkpt>
      <trkpt lat="49.95672" lon="2.11847">
        <ele>13.1</ele>
        <time>2023-06-28T08:52:20Z</time>
      </trkpt>
      <trkpt lat="49.95671" lon="2.11849">
        <ele>13.1</ele>
        <time>2023-06-28T08:52:21Z</time>
      </trkpt>
      <trkpt lat="49.95671" lon="2.11851">
        <ele>13.1</ele>
        <time>2023-06-28T08:52:22Z</time>
      </trkpt>
      <trkpt lat="49.9567" lon="2.11853">
        <ele>13.1</ele>
        <time>2023-06-28T08:52:23Z</time>
      </trkpt>
      <trkpt lat="49.95669" lon="2.11854">
        <ele>13.1</ele>
        <time>2023-06-28T08:52:24Z</time>
      </trkpt>
      <trkpt lat="49.95668" lon="2.11856">
        <ele>13.1</ele>
        <time>2023-06-28T08:52:25Z</time>
      </trkpt>
      <trkpt lat="49.95667" lon="2.11859">
        <ele>13.1</ele>
        <time>2023-06-28T08:52:26Z</time>
      </trkpt>
      <trkpt lat="49.95667" lon="2.1186">
        <ele>13.1</ele>
        <time>2023-06-28T08:52:27Z</time>
      </trkpt>
      <trkpt lat="49.95666" lon="2.11861">
        <ele>13.1</ele>
        <time>2023-06-28T08:52:28Z</time>
      </trkpt>
      <trkpt lat="49.95665" lon="2.11863">
        <ele>13.1</ele>
        <time>2023-06-28T08:52:29Z</time>
      </trkpt>
      <trkpt lat="49.95664" lon="2.11864">
        <ele>13.1</ele>
        <time>2023-06-28T08:52:30Z</time>
      </trkpt>
      <trkpt lat="49.95663" lon="2.11865">
        <ele>13.1</ele>
        <time>2023-06-28T08:52:31Z</time>
      </trkpt>
      <trkpt lat="49.95662" lon="2.11867">
        <ele>13.1</ele>
        <time>2023-06-28T08:52:32Z</time>
      </trkpt>
      <trkpt lat="49.95661" lon="2.11868">
        <ele>13.1</ele>
        <time>2023-06-28T08:52:33Z</time>
      </trkpt>
      <trkpt lat="49.9566" lon="2.1187">
        <ele>13.1</ele>
        <time>2023-06-28T08:52:34Z</time>
      </trkpt>
      <trkpt lat="49.95659" lon="2.11871">
        <ele>13.1</ele>
        <time>2023-06-28T08:52:35Z</time>
      </trkpt>
      <trkpt lat="49.95658" lon="2.11872">
        <ele>13.1</ele>
        <time>2023-06-28T08:52:36Z</time>
      </trkpt>
      <trkpt lat="49.95656" lon="2.11874">
        <ele>13.1</ele>
        <time>2023-06-28T08:52:37Z</time>
      </trkpt>
      <trkpt lat="49.95655" lon="2.11875">
        <ele>13.1</ele>
        <time>2023-06-28T08:52:38Z</time>
      </trkpt>
      <trkpt lat="49.95654" lon="2.11877">
        <ele>13.1</ele>
        <time>2023-06-28T08:52:39Z</time>
      </trkpt>
      <trkpt lat="49.95653" lon="2.11878">
        <ele>13.1</ele>
        <time>2023-06-28T08:52:40Z</time>
      </trkpt>
      <trkpt lat="49.95652" lon="2.1188">
        <ele>13.1</ele>
        <time>2023-06-28T08:52:41Z</time>
      </trkpt>
      <trkpt lat="49.95651" lon="2.11881">
        <ele>13.1</ele>
        <time>2023-06-28T08:52:42Z</time>
      </trkpt>
      <trkpt lat="49.9565" lon="2.11882">
        <ele>13.1</ele>
        <time>2023-06-28T08:52:43Z</time>
      </trkpt>
      <trkpt lat="49.95649" lon="2.11883">
        <ele>13.1</ele>
        <time>2023-06-28T08:52:44Z</time>
      </trkpt>
      <trkpt lat="49.95649" lon="2.11885">
        <ele>13.2</ele>
        <time>2023-06-28T08:52:45Z</time>
      </trkpt>
      <trkpt lat="49.95648" lon="2.11886">
        <ele>13.2</ele>
        <time>2023-06-28T08:52:46Z</time>
      </trkpt>
      <trkpt lat="49.95647" lon="2.11887">
        <ele>13.2</ele>
        <time>2023-06-28T08:52:47Z</time>
      </trkpt>
      <trkpt lat="49.95646" lon="2.1189">
        <ele>13.2</ele>
        <time>2023-06-28T08:52:48Z</time>
      </trkpt>
      <trkpt lat="49.95645" lon="2.11891">
        <ele>13.2</ele>
        <time>2023-06-28T08:52:49Z</time>
      </trkpt>
      <trkpt lat="49.95645" lon="2.11892">
        <ele>13.2</ele>
        <time>2023-06-28T08:52:50Z</time>
      </trkpt>
      <trkpt lat="49.95643" lon="2.11895">
        <ele>13.2</ele>
        <time>2023-06-28T08:52:51Z</time>
      </trkpt>
      <trkpt lat="49.95643" lon="2.11896">
        <ele>13.2</ele>
        <time>2023-06-28T08:52:52Z</time>
      </trkpt>
      <trkpt lat="49.95642" lon="2.11897">
        <ele>13.2</ele>
        <time>2023-06-28T08:52:53Z</time>
      </trkpt>
      <trkpt lat="49.95641" lon="2.11899">
        <ele>13.2</ele>
        <time>2023-06-28T08:52:54Z</time>
      </trkpt>
      <trkpt lat="49.95641" lon="2.119">
        <ele>13.2</ele>
        <time>2023-06-28T08:52:55Z</time>
      </trkpt>
      <trkpt lat="49.9564" lon="2.11901">
        <ele>13.2</ele>
        <time>2023-06-28T08:52:56Z</time>
      </trkpt>
      <trkpt lat="49.95639" lon="2.11903">
        <ele>13.2</ele>
        <time>2023-06-28T08:52:57Z</time>
      </trkpt>
      <trkpt lat="49.95638" lon="2.11904">
        <ele>13.2</ele>
        <time>2023-06-28T08:52:58Z</time>
      </trkpt>
      <trkpt lat="49.95638" lon="2.11905">
        <ele>13.2</ele>
        <time>2023-06-28T08:52:59Z</time>
      </trkpt>
      <trkpt lat="49.95637" lon="2.11907">
        <ele>13.2</ele>
        <time>2023-06-28T08:53:00Z</time>
      </trkpt>
      <trkpt lat="49.95636" lon="2.11908">
        <ele>13.2</ele>
        <time>2023-06-28T08:53:01Z</time>
      </trkpt>
      <trkpt lat="49.95635" lon="2.11909">
        <ele>13.2</ele>
        <time>2023-06-28T08:53:02Z</time>
      </trkpt>
      <trkpt lat="49.95634" lon="2.1191">
        <ele>13.2</ele>
        <time>2023-06-28T08:53:03Z</time>
      </trkpt>
      <trkpt lat="49.95634" lon="2.11911">
        <ele>13.2</ele>
        <time>2023-06-28T08:53:04Z</time>
      </trkpt>
      <trkpt lat="49.95633" lon="2.11912">
        <ele>13.2</ele>
        <time>2023-06-28T08:53:05Z</time>
      </trkpt>
      <trkpt lat="49.95632" lon="2.11913">
        <ele>13.2</ele>
        <time>2023-06-28T08:53:06Z</time>
      </trkpt>
      <trkpt lat="49.95631" lon="2.11915">
        <ele>13.2</ele>
        <time>2023-06-28T08:53:07Z</time>
      </trkpt>
      <trkpt lat="49.9563" lon="2.11916">
        <ele>13.2</ele>
        <time>2023-06-28T08:53:08Z</time>
      </trkpt>
      <trkpt lat="49.95629" lon="2.11917">
        <ele>13.2</ele>
        <time>2023-06-28T08:53:09Z</time>
      </trkpt>
      <trkpt lat="49.95628" lon="2.11918">
        <ele>13.2</ele>
        <time>2023-06-28T08:53:10Z</time>
      </trkpt>
      <trkpt lat="49.95627" lon="2.11919">
        <ele>13.2</ele>
        <time>2023-06-28T08:53:11Z</time>
      </trkpt>
      <trkpt lat="49.95626" lon="2.1192">
        <ele>13.2</ele>
        <time>2023-06-28T08:53:12Z</time>
      </trkpt>
      <trkpt lat="49.95625" lon="2.11921">
        <ele>13.2</ele>
        <time>2023-06-28T08:53:13Z</time>
      </trkpt>
      <trkpt lat="49.95624" lon="2.11922">
        <ele>13.2</ele>
        <time>2023-06-28T08:53:14Z</time>
      </trkpt>
      <trkpt lat="49.95624" lon="2.11923">
        <ele>13.2</ele>
        <time>2023-06-28T08:53:15Z</time>
      </trkpt>
      <trkpt lat="49.95623" lon="2.11924">
        <ele>13.2</ele>
        <time>2023-06-28T08:53:16Z</time>
      </trkpt>
      <trkpt lat="49.95622" lon="2.11925">
        <ele>13.2</ele>
        <time>2023-06-28T08:53:17Z</time>
      </trkpt>
      <trkpt lat="49.95621" lon="2.11926">
        <ele>13.3</ele>
        <time>2023-06-28T08:53:18Z</time>
      </trkpt>
      <trkpt lat="49.9562" lon="2.11927">
        <ele>13.3</ele>
        <time>2023-06-28T08:53:19Z</time>
      </trkpt>
      <trkpt lat="49.95619" lon="2.11928">
        <ele>13.3</ele>
        <time>2023-06-28T08:53:20Z</time>
      </trkpt>
      <trkpt lat="49.95618" lon="2.11928">
        <ele>13.3</ele>
        <time>2023-06-28T08:53:21Z</time>
      </trkpt>
      <trkpt lat="49.95617" lon="2.11929">
        <ele>13.3</ele>
        <time>2023-06-28T08:53:22Z</time>
      </trkpt>
      <trkpt lat="49.95616" lon="2.1193">
        <ele>13.3</ele>
        <time>2023-06-28T08:53:23Z</time>
      </trkpt>
      <trkpt lat="49.95615" lon="2.11932">
        <ele>13.3</ele>
        <time>2023-06-28T08:53:24Z</time>
      </trkpt>
      <trkpt lat="49.95614" lon="2.11932">
        <ele>13.3</ele>
        <time>2023-06-28T08:53:25Z</time>
      </trkpt>
      <trkpt lat="49.95613" lon="2.11933">
        <ele>13.3</ele>
        <time>2023-06-28T08:53:26Z</time>
      </trkpt>
      <trkpt lat="49.95611" lon="2.11934">
        <ele>13.3</ele>
        <time>2023-06-28T08:53:27Z</time>
      </trkpt>
      <trkpt lat="49.9561" lon="2.11934">
        <ele>13.3</ele>
        <time>2023-06-28T08:53:28Z</time>
      </trkpt>
      <trkpt lat="49.95609" lon="2.11934">
        <ele>13.3</ele>
        <time>2023-06-28T08:53:29Z</time>
      </trkpt>
      <trkpt lat="49.95607" lon="2.11935">
        <ele>13.3</ele>
        <time>2023-06-28T08:53:30Z</time>
      </trkpt>
      <trkpt lat="49.95606" lon="2.11935">
        <ele>13.3</ele>
        <time>2023-06-28T08:53:31Z</time>
      </trkpt>
      <trkpt lat="49.95605" lon="2.11935">
        <ele>13.3</ele>
        <time>2023-06-28T08:53:32Z</time>
      </trkpt>
      <trkpt lat="49.95604" lon="2.11935">
        <ele>13.3</ele>
        <time>2023-06-28T08:53:33Z</time>
      </trkpt>
      <trkpt lat="49.95602" lon="2.11935">
        <ele>13.3</ele>
        <time>2023-06-28T08:53:34Z</time>
      </trkpt>
      <trkpt lat="49.95601" lon="2.11935">
        <ele>13.3</ele>
        <time>2023-06-28T08:53:35Z</time>
      </trkpt>
      <trkpt lat="49.95599" lon="2.11936">
        <ele>13.3</ele>
        <time>2023-06-28T08:53:36Z</time>
      </trkpt>
      <trkpt lat="49.95597" lon="2.11936">
        <ele>13.3</ele>
        <time>2023-06-28T08:53:37Z</time>
      </trkpt>
      <trkpt lat="49.95596" lon="2.11937">
        <ele>13.3</ele>
        <time>2023-06-28T08:53:38Z</time>
      </trkpt>
      <trkpt lat="49.95595" lon="2.11937">
        <ele>13.3</ele>
        <time>2023-06-28T08:53:39Z</time>
      </trkpt>
      <trkpt lat="49.95594" lon="2.11937">
        <ele>13.3</ele>
        <time>2023-06-28T08:53:40Z</time>
      </trkpt>
      <trkpt lat="49.95593" lon="2.11938">
        <ele>13.3</ele>
        <time>2023-06-28T08:53:41Z</time>
      </trkpt>
      <trkpt lat="49.9559" lon="2.11939">
        <ele>13.3</ele>
        <time>2023-06-28T08:53:42Z</time>
      </trkpt>
      <trkpt lat="49.9559" lon="2.11939">
        <ele>13.3</ele>
        <time>2023-06-28T08:53:43Z</time>
      </trkpt>
      <trkpt lat="49.95589" lon="2.1194">
        <ele>13.3</ele>
        <time>2023-06-28T08:53:44Z</time>
      </trkpt>
      <trkpt lat="49.95587" lon="2.1194">
        <ele>13.3</ele>
        <time>2023-06-28T08:53:45Z</time>
      </trkpt>
      <trkpt lat="49.95586" lon="2.11941">
        <ele>13.3</ele>
        <time>2023-06-28T08:53:46Z</time>
      </trkpt>
      <trkpt lat="49.95584" lon="2.11942">
        <ele>13.3</ele>
        <time>2023-06-28T08:53:47Z</time>
      </trkpt>
      <trkpt lat="49.95583" lon="2.11942">
        <ele>13.3</ele>
        <time>2023-06-28T08:53:48Z</time>
      </trkpt>
      <trkpt lat="49.95582" lon="2.11942">
        <ele>13.3</ele>
        <time>2023-06-28T08:53:49Z</time>
      </trkpt>
      <trkpt lat="49.95581" lon="2.11943">
        <ele>13.3</ele>
        <time>2023-06-28T08:53:50Z</time>
      </trkpt>
      <trkpt lat="49.9558" lon="2.11944">
        <ele>13.3</ele>
        <time>2023-06-28T08:53:51Z</time>
      </trkpt>
      <trkpt lat="49.95579" lon="2.11944">
        <ele>13.3</ele>
        <time>2023-06-28T08:53:52Z</time>
      </trkpt>
      <trkpt lat="49.95578" lon="2.11945">
        <ele>13.3</ele>
        <time>2023-06-28T08:53:53Z</time>
      </trkpt>
      <trkpt lat="49.95577" lon="2.11946">
        <ele>13.3</ele>
        <time>2023-06-28T08:53:54Z</time>
      </trkpt>
      <trkpt lat="49.95576" lon="2.11947">
        <ele>13.3</ele>
        <time>2023-06-28T08:53:55Z</time>
      </trkpt>
      <trkpt lat="49.95575" lon="2.11948">
        <ele>13.3</ele>
        <time>2023-06-28T08:53:56Z</time>
      </trkpt>
      <trkpt lat="49.95574" lon="2.11949">
        <ele>13.3</ele>
        <time>2023-06-28T08:53:57Z</time>
      </trkpt>
      <trkpt lat="49.95573" lon="2.11951">
        <ele>13.3</ele>
        <time>2023-06-28T08:53:58Z</time>
      </trkpt>
      <trkpt lat="49.95572" lon="2.11952">
        <ele>13.3</ele>
        <time>2023-06-28T08:53:59Z</time>
      </trkpt>
      <trkpt lat="49.95572" lon="2.11953">
        <ele>13.2</ele>
        <time>2023-06-28T08:54:00Z</time>
      </trkpt>
      <trkpt lat="49.95571" lon="2.11954">
        <ele>13.2</ele>
        <time>2023-06-28T08:54:01Z</time>
      </trkpt>
      <trkpt lat="49.95571" lon="2.11956">
        <ele>13.2</ele>
        <time>2023-06-28T08:54:02Z</time>
      </trkpt>
      <trkpt lat="49.9557" lon="2.11958">
        <ele>13.2</ele>
        <time>2023-06-28T08:54:03Z</time>
      </trkpt>
      <trkpt lat="49.9557" lon="2.1196">
        <ele>13.2</ele>
        <time>2023-06-28T08:54:04Z</time>
      </trkpt>
      <trkpt lat="49.95569" lon="2.11961">
        <ele>13.2</ele>
        <time>2023-06-28T08:54:05Z</time>
      </trkpt>
      <trkpt lat="49.95569" lon="2.11963">
        <ele>13.2</ele>
        <time>2023-06-28T08:54:06Z</time>
      </trkpt>
      <trkpt lat="49.95568" lon="2.11965">
        <ele>13.2</ele>
        <time>2023-06-28T08:54:07Z</time>
      </trkpt>
      <trkpt lat="49.95567" lon="2.11967">
        <ele>13.2</ele>
        <time>2023-06-28T08:54:08Z</time>
      </trkpt>
      <trkpt lat="49.95566" lon="2.11969">
        <ele>13.2</ele>
        <time>2023-06-28T08:54:09Z</time>
      </trkpt>
      <trkpt lat="49.95566" lon="2.1197">
        <ele>13.2</ele>
        <time>2023-06-28T08:54:10Z</time>
      </trkpt>
      <trkpt lat="49.95565" lon="2.11973">
        <ele>13.2</ele>
        <time>2023-06-28T08:54:11Z</time>
      </trkpt>
      <trkpt lat="49.95564" lon="2.11975">
        <ele>13.2</ele>
        <time>2023-06-28T08:54:12Z</time>
      </trkpt>
      <trkpt lat="49.95563" lon="2.11977">
        <ele>13.2</ele>
        <time>2023-06-28T08:54:13Z</time>
      </trkpt>
      <trkpt lat="49.95563" lon="2.11979">
        <ele>13.2</ele>
        <time>2023-06-28T08:54:14Z</time>
      </trkpt>
      <trkpt lat="49.95562" lon="2.11981">
        <ele>13.2</ele>
        <time>2023-06-28T08:54:15Z</time>
      </trkpt>
      <trkpt lat="49.95561" lon="2.11984">
        <ele>13.2</ele>
        <time>2023-06-28T08:54:16Z</time>
      </trkpt>
      <trkpt lat="49.95561" lon="2.11987">
        <ele>13.2</ele>
        <time>2023-06-28T08:54:17Z</time>
      </trkpt>
      <trkpt lat="49.95561" lon="2.11989">
        <ele>13.2</ele>
        <time>2023-06-28T08:54:18Z</time>
      </trkpt>
      <trkpt lat="49.9556" lon="2.11991">
        <ele>13.2</ele>
        <time>2023-06-28T08:54:19Z</time>
      </trkpt>
      <trkpt lat="49.9556" lon="2.11993">
        <ele>13.2</ele>
        <time>2023-06-28T08:54:20Z</time>
      </trkpt>
      <trkpt lat="49.9556" lon="2.11996">
        <ele>13.2</ele>
        <time>2023-06-28T08:54:21Z</time>
      </trkpt>
      <trkpt lat="49.9556" lon="2.11998">
        <ele>13.2</ele>
        <time>2023-06-28T08:54:22Z</time>
      </trkpt>
      <trkpt lat="49.95559" lon="2.12001">
        <ele>13.2</ele>
        <time>2023-06-28T08:54:23Z</time>
      </trkpt>
      <trkpt lat="49.95559" lon="2.12002">
        <ele>13.2</ele>
        <time>2023-06-28T08:54:24Z</time>
      </trkpt>
      <trkpt lat="49.95559" lon="2.12004">
        <ele>13.2</ele>
        <time>2023-06-28T08:54:25Z</time>
      </trkpt>
      <trkpt lat="49.95559" lon="2.12005">
        <ele>13.2</ele>
        <time>2023-06-28T08:54:26Z</time>
      </trkpt>
      <trkpt lat="49.95559" lon="2.12007">
        <ele>13.2</ele>
        <time>2023-06-28T08:54:27Z</time>
      </trkpt>
      <trkpt lat="49.95559" lon="2.12009">
        <ele>13.2</ele>
        <time>2023-06-28T08:54:28Z</time>
      </trkpt>
      <trkpt lat="49.95559" lon="2.12011">
        <ele>13.2</ele>
        <time>2023-06-28T08:54:29Z</time>
      </trkpt>
      <trkpt lat="49.95559" lon="2.12012">
        <ele>13.2</ele>
        <time>2023-06-28T08:54:30Z</time>
      </trkpt>
      <trkpt lat="49.95559" lon="2.12014">
        <ele>13.2</ele>
        <time>2023-06-28T08:54:31Z</time>
      </trkpt>
      <trkpt lat="49.95559" lon="2.12016">
        <ele>13.2</ele>
        <time>2023-06-28T08:54:32Z</time>
      </trkpt>
      <trkpt lat="49.95559" lon="2.12018">
        <ele>13.2</ele>
        <time>2023-06-28T08:54:33Z</time>
      </trkpt>
      <trkpt lat="49.95559" lon="2.1202">
        <ele>13.2</ele>
        <time>2023-06-28T08:54:34Z</time>
      </trkpt>
      <trkpt lat="49.95559" lon="2.12022">
        <ele>13.2</ele>
        <time>2023-06-28T08:54:35Z</time>
      </trkpt>
      <trkpt lat="49.95559" lon="2.12023">
        <ele>13.2</ele>
        <time>2023-06-28T08:54:36Z</time>
      </trkpt>
      <trkpt lat="49.95559" lon="2.12025">
        <ele>13.2</ele>
        <time>2023-06-28T08:54:37Z</time>
      </trkpt>
      <trkpt lat="49.95559" lon="2.12027">
        <ele>13.2</ele>
        <time>2023-06-28T08:54:38Z</time>
      </trkpt>
      <trkpt lat="49.95559" lon="2.12028">
        <ele>13.2</ele>
        <time>2023-06-28T08:54:39Z</time>
      </trkpt>
      <trkpt lat="49.95559" lon="2.1203">
        <ele>13.2</ele>
        <time>2023-06-28T08:54:40Z</time>
      </trkpt>
      <trkpt lat="49.95559" lon="2.12032">
        <ele>13.3</ele>
        <time>2023-06-28T08:54:41Z</time>
      </trkpt>
      <trkpt lat="49.95559" lon="2.12034">
        <ele>13.3</ele>
        <time>2023-06-28T08:54:42Z</time>
      </trkpt>
      <trkpt lat="49.95559" lon="2.12035">
        <ele>13.3</ele>
        <time>2023-06-28T08:54:43Z</time>
      </trkpt>
      <trkpt lat="49.95559" lon="2.12037">
        <ele>13.3</ele>
        <time>2023-06-28T08:54:44Z</time>
      </trkpt>
      <trkpt lat="49.95559" lon="2.12039">
        <ele>13.3</ele>
        <time>2023-06-28T08:54:45Z</time>
      </trkpt>
      <trkpt lat="49.95559" lon="2.12041">
        <ele>13.3</ele>
        <time>2023-06-28T08:54:46Z</time>
      </trkpt>
      <trkpt lat="49.95558" lon="2.12043">
        <ele>13.3</ele>
        <time>2023-06-28T08:54:47Z</time>
      </trkpt>
      <trkpt lat="49.95558" lon="2.12045">
        <ele>13.3</ele>
        <time>2023-06-28T08:54:48Z</time>
      </trkpt>
      <trkpt lat="49.95558" lon="2.12046">
        <ele>13.3</ele>
        <time>2023-06-28T08:54:49Z</time>
      </trkpt>
      <trkpt lat="49.95558" lon="2.12049">
        <ele>13.3</ele>
        <time>2023-06-28T08:54:50Z</time>
      </trkpt>
      <trkpt lat="49.95558" lon="2.12051">
        <ele>13.3</ele>
        <time>2023-06-28T08:54:51Z</time>
      </trkpt>
      <trkpt lat="49.95558" lon="2.12052">
        <ele>13.3</ele>
        <time>2023-06-28T08:54:52Z</time>
      </trkpt>
      <trkpt lat="49.95558" lon="2.12055">
        <ele>13.3</ele>
        <time>2023-06-28T08:54:53Z</time>
      </trkpt>
      <trkpt lat="49.95557" lon="2.12056">
        <ele>13.3</ele>
        <time>2023-06-28T08:54:54Z</time>
      </trkpt>
      <trkpt lat="49.95557" lon="2.12058">
        <ele>13.3</ele>
        <time>2023-06-28T08:54:55Z</time>
      </trkpt>
      <trkpt lat="49.95557" lon="2.1206">
        <ele>13.3</ele>
        <time>2023-06-28T08:54:56Z</time>
      </trkpt>
      <trkpt lat="49.95557" lon="2.12061">
        <ele>13.3</ele>
        <time>2023-06-28T08:54:57Z</time>
      </trkpt>
      <trkpt lat="49.95557" lon="2.12063">
        <ele>13.3</ele>
        <time>2023-06-28T08:54:58Z</time>
      </trkpt>
      <trkpt lat="49.95557" lon="2.12064">
        <ele>13.3</ele>
        <time>2023-06-28T08:54:59Z</time>
      </trkpt>
      <trkpt lat="49.95557" lon="2.12066">
        <ele>13.3</ele>
        <time>2023-06-28T08:55:00Z</time>
      </trkpt>
      <trkpt lat="49.95557" lon="2.12068">
        <ele>13.3</ele>
        <time>2023-06-28T08:55:01Z</time>
      </trkpt>
      <trkpt lat="49.95557" lon="2.12069">
        <ele>13.3</ele>
        <time>2023-06-28T08:55:02Z</time>
      </trkpt>
      <trkpt lat="49.95557" lon="2.12071">
        <ele>13.4</ele>
        <time>2023-06-28T08:55:03Z</time>
      </trkpt>
      <trkpt lat="49.95556" lon="2.12073">
        <ele>13.4</ele>
        <time>2023-06-28T08:55:04Z</time>
      </trkpt>
      <trkpt lat="49.95556" lon="2.12075">
        <ele>13.4</ele>
        <time>2023-06-28T08:55:05Z</time>
      </trkpt>
      <trkpt lat="49.95555" lon="2.12076">
        <ele>13.4</ele>
        <time>2023-06-28T08:55:06Z</time>
      </trkpt>
      <trkpt lat="49.95555" lon="2.12078">
        <ele>13.4</ele>
        <time>2023-06-28T08:55:07Z</time>
      </trkpt>
      <trkpt lat="49.95555" lon="2.12081">
        <ele>13.4</ele>
        <time>2023-06-28T08:55:08Z</time>
      </trkpt>
      <trkpt lat="49.95555" lon="2.12082">
        <ele>13.4</ele>
        <time>2023-06-28T08:55:09Z</time>
      </trkpt>
      <trkpt lat="49.95554" lon="2.12083">
        <ele>13.4</ele>
        <time>2023-06-28T08:55:10Z</time>
      </trkpt>
      <trkpt lat="49.95554" lon="2.12086">
        <ele>13.4</ele>
        <time>2023-06-28T08:55:11Z</time>
      </trkpt>
      <trkpt lat="49.95554" lon="2.12088">
        <ele>13.4</ele>
        <time>2023-06-28T08:55:12Z</time>
      </trkpt>
      <trkpt lat="49.95553" lon="2.12089">
        <ele>13.4</ele>
        <time>2023-06-28T08:55:13Z</time>
      </trkpt>
      <trkpt lat="49.95553" lon="2.12091">
        <ele>13.4</ele>
        <time>2023-06-28T08:55:14Z</time>
      </trkpt>
      <trkpt lat="49.95553" lon="2.12093">
        <ele>13.4</ele>
        <time>2023-06-28T08:55:15Z</time>
      </trkpt>
      <trkpt lat="49.95553" lon="2.12094">
        <ele>13.4</ele>
        <time>2023-06-28T08:55:16Z</time>
      </trkpt>
      <trkpt lat="49.95552" lon="2.12096">
        <ele>13.4</ele>
        <time>2023-06-28T08:55:17Z</time>
      </trkpt>
      <trkpt lat="49.95552" lon="2.12099">
        <ele>13.4</ele>
        <time>2023-06-28T08:55:18Z</time>
      </trkpt>
      <trkpt lat="49.95552" lon="2.12102">
        <ele>13.4</ele>
        <time>2023-06-28T08:55:19Z</time>
      </trkpt>
      <trkpt lat="49.95551" lon="2.12103">
        <ele>13.4</ele>
        <time>2023-06-28T08:55:20Z</time>
      </trkpt>
      <trkpt lat="49.95551" lon="2.12105">
        <ele>13.4</ele>
        <time>2023-06-28T08:55:21Z</time>
      </trkpt>
      <trkpt lat="49.95551" lon="2.12107">
        <ele>13.4</ele>
        <time>2023-06-28T08:55:22Z</time>
      </trkpt>
      <trkpt lat="49.95551" lon="2.12109">
        <ele>13.4</ele>
        <time>2023-06-28T08:55:23Z</time>
      </trkpt>
      <trkpt lat="49.9555" lon="2.12111">
        <ele>13.4</ele>
        <time>2023-06-28T08:55:24Z</time>
      </trkpt>
      <trkpt lat="49.9555" lon="2.12113">
        <ele>13.4</ele>
        <time>2023-06-28T08:55:25Z</time>
      </trkpt>
      <trkpt lat="49.95549" lon="2.12116">
        <ele>13.4</ele>
        <time>2023-06-28T08:55:26Z</time>
      </trkpt>
      <trkpt lat="49.95548" lon="2.12117">
        <ele>13.4</ele>
        <time>2023-06-28T08:55:27Z</time>
      </trkpt>
      <trkpt lat="49.95548" lon="2.12119">
        <ele>13.4</ele>
        <time>2023-06-28T08:55:28Z</time>
      </trkpt>
      <trkpt lat="49.95547" lon="2.12121">
        <ele>13.4</ele>
        <time>2023-06-28T08:55:29Z</time>
      </trkpt>
      <trkpt lat="49.95547" lon="2.12123">
        <ele>13.4</ele>
        <time>2023-06-28T08:55:30Z</time>
      </trkpt>
      <trkpt lat="49.95546" lon="2.12124">
        <ele>13.4</ele>
        <time>2023-06-28T08:55:31Z</time>
      </trkpt>
      <trkpt lat="49.95546" lon="2.12126">
        <ele>13.4</ele>
        <time>2023-06-28T08:55:32Z</time>
      </trkpt>
      <trkpt lat="49.95545" lon="2.12128">
        <ele>13.4</ele>
        <time>2023-06-28T08:55:33Z</time>
      </trkpt>
      <trkpt lat="49.95545" lon="2.1213">
        <ele>13.4</ele>
        <time>2023-06-28T08:55:34Z</time>
      </trkpt>
      <trkpt lat="49.95544" lon="2.12131">
        <ele>13.4</ele>
        <time>2023-06-28T08:55:35Z</time>
      </trkpt>
      <trkpt lat="49.95544" lon="2.12133">
        <ele>13.4</ele>
        <time>2023-06-28T08:55:36Z</time>
      </trkpt>
      <trkpt lat="49.95543" lon="2.12134">
        <ele>13.4</ele>
        <time>2023-06-28T08:55:37Z</time>
      </trkpt>
      <trkpt lat="49.95543" lon="2.12135">
        <ele>13.4</ele>
        <time>2023-06-28T08:55:38Z</time>
      </trkpt>
      <trkpt lat="49.95542" lon="2.12136">
        <ele>13.4</ele>
        <time>2023-06-28T08:55:39Z</time>
      </trkpt>
      <trkpt lat="49.95541" lon="2.12139">
        <ele>13.4</ele>
        <time>2023-06-28T08:55:40Z</time>
      </trkpt>
      <trkpt lat="49.95541" lon="2.1214">
        <ele>13.4</ele>
        <time>2023-06-28T08:55:41Z</time>
      </trkpt>
      <trkpt lat="49.9554" lon="2.12141">
        <ele>13.4</ele>
        <time>2023-06-28T08:55:42Z</time>
      </trkpt>
      <trkpt lat="49.9554" lon="2.12143">
        <ele>13.4</ele>
        <time>2023-06-28T08:55:43Z</time>
      </trkpt>
      <trkpt lat="49.95539" lon="2.12145">
        <ele>13.4</ele>
        <time>2023-06-28T08:55:44Z</time>
      </trkpt>
      <trkpt lat="49.95539" lon="2.12146">
        <ele>13.4</ele>
        <time>2023-06-28T08:55:45Z</time>
      </trkpt>
      <trkpt lat="49.95539" lon="2.12148">
        <ele>13.4</ele>
        <time>2023-06-28T08:55:46Z</time>
      </trkpt>
      <trkpt lat="49.95538" lon="2.1215">
        <ele>13.4</ele>
        <time>2023-06-28T08:55:47Z</time>
      </trkpt>
      <trkpt lat="49.95538" lon="2.12151">
        <ele>13.4</ele>
        <time>2023-06-28T08:55:48Z</time>
      </trkpt>
      <trkpt lat="49.95538" lon="2.12152">
        <ele>13.4</ele>
        <time>2023-06-28T08:55:49Z</time>
      </trkpt>
      <trkpt lat="49.95538" lon="2.12153">
        <ele>13.4</ele>
        <time>2023-06-28T08:55:50Z</time>
      </trkpt>
      <trkpt lat="49.95538" lon="2.12155">
        <ele>13.4</ele>
        <time>2023-06-28T08:55:51Z</time>
      </trkpt>
      <trkpt lat="49.95537" lon="2.12156">
        <ele>13.4</ele>
        <time>2023-06-28T08:55:52Z</time>
      </trkpt>
      <trkpt lat="49.95537" lon="2.12158">
        <ele>13.4</ele>
        <time>2023-06-28T08:55:53Z</time>
      </trkpt>
      <trkpt lat="49.95537" lon="2.12159">
        <ele>13.4</ele>
        <time>2023-06-28T08:55:54Z</time>
      </trkpt>
      <trkpt lat="49.95537" lon="2.12161">
        <ele>13.4</ele>
        <time>2023-06-28T08:55:55Z</time>
      </trkpt>
      <trkpt lat="49.95536" lon="2.12163">
        <ele>13.4</ele>
        <time>2023-06-28T08:55:56Z</time>
      </trkpt>
      <trkpt lat="49.95536" lon="2.12164">
        <ele>13.4</ele>
        <time>2023-06-28T08:55:57Z</time>
      </trkpt>
      <trkpt lat="49.95536" lon="2.12165">
        <ele>13.4</ele>
        <time>2023-06-28T08:55:58Z</time>
      </trkpt>
      <trkpt lat="49.95535" lon="2.12167">
        <ele>13.4</ele>
        <time>2023-06-28T08:55:59Z</time>
      </trkpt>
      <trkpt lat="49.95535" lon="2.12168">
        <ele>13.4</ele>
        <time>2023-06-28T08:56:00Z</time>
      </trkpt>
      <trkpt lat="49.95534" lon="2.1217">
        <ele>13.4</ele>
        <time>2023-06-28T08:56:01Z</time>
      </trkpt>
      <trkpt lat="49.95534" lon="2.12171">
        <ele>13.4</ele>
        <time>2023-06-28T08:56:02Z</time>
      </trkpt>
      <trkpt lat="49.95533" lon="2.12172">
        <ele>13.3</ele>
        <time>2023-06-28T08:56:03Z</time>
      </trkpt>
      <trkpt lat="49.95533" lon="2.12173">
        <ele>13.3</ele>
        <time>2023-06-28T08:56:04Z</time>
      </trkpt>
      <trkpt lat="49.95532" lon="2.12175">
        <ele>13.3</ele>
        <time>2023-06-28T08:56:05Z</time>
      </trkpt>
      <trkpt lat="49.95531" lon="2.12176">
        <ele>13.3</ele>
        <time>2023-06-28T08:56:06Z</time>
      </trkpt>
      <trkpt lat="49.9553" lon="2.12177">
        <ele>13.3</ele>
        <time>2023-06-28T08:56:07Z</time>
      </trkpt>
      <trkpt lat="49.9553" lon="2.12177">
        <ele>13.3</ele>
        <time>2023-06-28T08:56:08Z</time>
      </trkpt>
      <trkpt lat="49.95529" lon="2.12178">
        <ele>13.3</ele>
        <time>2023-06-28T08:56:09Z</time>
      </trkpt>
      <trkpt lat="49.95528" lon="2.12179">
        <ele>13.3</ele>
        <time>2023-06-28T08:56:10Z</time>
      </trkpt>
      <trkpt lat="49.95527" lon="2.1218">
        <ele>13.3</ele>
        <time>2023-06-28T08:56:11Z</time>
      </trkpt>
      <trkpt lat="49.95527" lon="2.12181">
        <ele>13.3</ele>
        <time>2023-06-28T08:56:12Z</time>
      </trkpt>
      <trkpt lat="49.95526" lon="2.12182">
        <ele>13.3</ele>
        <time>2023-06-28T08:56:13Z</time>
      </trkpt>
      <trkpt lat="49.95525" lon="2.12184">
        <ele>13.2</ele>
        <time>2023-06-28T08:56:14Z</time>
      </trkpt>
      <trkpt lat="49.95525" lon="2.12185">
        <ele>13.2</ele>
        <time>2023-06-28T08:56:15Z</time>
      </trkpt>
      <trkpt lat="49.95524" lon="2.12186">
        <ele>13.2</ele>
        <time>2023-06-28T08:56:16Z</time>
      </trkpt>
      <trkpt lat="49.95524" lon="2.12187">
        <ele>13.2</ele>
        <time>2023-06-28T08:56:17Z</time>
      </trkpt>
      <trkpt lat="49.95523" lon="2.12189">
        <ele>13.2</ele>
        <time>2023-06-28T08:56:18Z</time>
      </trkpt>
      <trkpt lat="49.95523" lon="2.1219">
        <ele>13.2</ele>
        <time>2023-06-28T08:56:19Z</time>
      </trkpt>
      <trkpt lat="49.95522" lon="2.12192">
        <ele>13.2</ele>
        <time>2023-06-28T08:56:20Z</time>
      </trkpt>
      <trkpt lat="49.95522" lon="2.12193">
        <ele>13.2</ele>
        <time>2023-06-28T08:56:21Z</time>
      </trkpt>
      <trkpt lat="49.95521" lon="2.12196">
        <ele>13.1</ele>
        <time>2023-06-28T08:56:22Z</time>
      </trkpt>
      <trkpt lat="49.95521" lon="2.12198">
        <ele>13.1</ele>
        <time>2023-06-28T08:56:23Z</time>
      </trkpt>
      <trkpt lat="49.95521" lon="2.12199">
        <ele>13.1</ele>
        <time>2023-06-28T08:56:24Z</time>
      </trkpt>
      <trkpt lat="49.9552" lon="2.12202">
        <ele>13.1</ele>
        <time>2023-06-28T08:56:25Z</time>
      </trkpt>
      <trkpt lat="49.95519" lon="2.12203">
        <ele>13.1</ele>
        <time>2023-06-28T08:56:26Z</time>
      </trkpt>
      <trkpt lat="49.95519" lon="2.12205">
        <ele>13.1</ele>
        <time>2023-06-28T08:56:27Z</time>
      </trkpt>
      <trkpt lat="49.95518" lon="2.12207">
        <ele>13</ele>
        <time>2023-06-28T08:56:28Z</time>
      </trkpt>
      <trkpt lat="49.95518" lon="2.12209">
        <ele>13</ele>
        <time>2023-06-28T08:56:29Z</time>
      </trkpt>
      <trkpt lat="49.95517" lon="2.12211">
        <ele>13</ele>
        <time>2023-06-28T08:56:30Z</time>
      </trkpt>
      <trkpt lat="49.95516" lon="2.12212">
        <ele>13</ele>
        <time>2023-06-28T08:56:31Z</time>
      </trkpt>
      <trkpt lat="49.95515" lon="2.12215">
        <ele>13</ele>
        <time>2023-06-28T08:56:32Z</time>
      </trkpt>
      <trkpt lat="49.95514" lon="2.12216">
        <ele>13</ele>
        <time>2023-06-28T08:56:33Z</time>
      </trkpt>
      <trkpt lat="49.95514" lon="2.12217">
        <ele>13</ele>
        <time>2023-06-28T08:56:34Z</time>
      </trkpt>
      <trkpt lat="49.95513" lon="2.12219">
        <ele>13</ele>
        <time>2023-06-28T08:56:35Z</time>
      </trkpt>
      <trkpt lat="49.95513" lon="2.1222">
        <ele>13</ele>
        <time>2023-06-28T08:56:36Z</time>
      </trkpt>
      <trkpt lat="49.95512" lon="2.12222">
        <ele>12.9</ele>
        <time>2023-06-28T08:56:37Z</time>
      </trkpt>
      <trkpt lat="49.95511" lon="2.12225">
        <ele>12.9</ele>
        <time>2023-06-28T08:56:38Z</time>
      </trkpt>
      <trkpt lat="49.9551" lon="2.12226">
        <ele>12.9</ele>
        <time>2023-06-28T08:56:39Z</time>
      </trkpt>
      <trkpt lat="49.9551" lon="2.12227">
        <ele>12.9</ele>
        <time>2023-06-28T08:56:40Z</time>
      </trkpt>
      <trkpt lat="49.95509" lon="2.12229">
        <ele>12.9</ele>
        <time>2023-06-28T08:56:41Z</time>
      </trkpt>
      <trkpt lat="49.95509" lon="2.1223">
        <ele>12.9</ele>
        <time>2023-06-28T08:56:42Z</time>
      </trkpt>
      <trkpt lat="49.95508" lon="2.12231">
        <ele>12.9</ele>
        <time>2023-06-28T08:56:43Z</time>
      </trkpt>
      <trkpt lat="49.95508" lon="2.12232">
        <ele>12.9</ele>
        <time>2023-06-28T08:56:44Z</time>
      </trkpt>
      <trkpt lat="49.95508" lon="2.12233">
        <ele>12.9</ele>
        <time>2023-06-28T08:56:45Z</time>
      </trkpt>
      <trkpt lat="49.95507" lon="2.12234">
        <ele>12.9</ele>
        <time>2023-06-28T08:56:46Z</time>
      </trkpt>
      <trkpt lat="49.95507" lon="2.12235">
        <ele>12.9</ele>
        <time>2023-06-28T08:56:47Z</time>
      </trkpt>
      <trkpt lat="49.95506" lon="2.12236">
        <ele>12.9</ele>
        <time>2023-06-28T08:56:48Z</time>
      </trkpt>
      <trkpt lat="49.95506" lon="2.12237">
        <ele>12.9</ele>
        <time>2023-06-28T08:56:49Z</time>
      </trkpt>
      <trkpt lat="49.95505" lon="2.12238">
        <ele>12.9</ele>
        <time>2023-06-28T08:56:50Z</time>
      </trkpt>
      <trkpt lat="49.95505" lon="2.12238">
        <ele>12.9</ele>
        <time>2023-06-28T08:56:51Z</time>
      </trkpt>
      <trkpt lat="49.95504" lon="2.12239">
        <ele>12.9</ele>
        <time>2023-06-28T08:56:52Z</time>
      </trkpt>
      <trkpt lat="49.95504" lon="2.1224">
        <ele>12.9</ele>
        <time>2023-06-28T08:56:53Z</time>
      </trkpt>
      <trkpt lat="49.95503" lon="2.12242">
        <ele>12.9</ele>
        <time>2023-06-28T08:56:54Z</time>
      </trkpt>
      <trkpt lat="49.95502" lon="2.12243">
        <ele>12.9</ele>
        <time>2023-06-28T08:56:55Z</time>
      </trkpt>
      <trkpt lat="49.95501" lon="2.12244">
        <ele>12.9</ele>
        <time>2023-06-28T08:56:56Z</time>
      </trkpt>
      <trkpt lat="49.955" lon="2.12245">
        <ele>12.9</ele>
        <time>2023-06-28T08:56:57Z</time>
      </trkpt>
      <trkpt lat="49.95499" lon="2.12245">
        <ele>12.9</ele>
        <time>2023-06-28T08:56:58Z</time>
      </trkpt>
      <trkpt lat="49.95498" lon="2.12246">
        <ele>12.9</ele>
        <time>2023-06-28T08:56:59Z</time>
      </trkpt>
      <trkpt lat="49.95498" lon="2.12247">
        <ele>12.9</ele>
        <time>2023-06-28T08:57:00Z</time>
      </trkpt>
      <trkpt lat="49.95497" lon="2.12248">
        <ele>12.9</ele>
        <time>2023-06-28T08:57:01Z</time>
      </trkpt>
      <trkpt lat="49.95496" lon="2.12249">
        <ele>12.9</ele>
        <time>2023-06-28T08:57:02Z</time>
      </trkpt>
      <trkpt lat="49.95495" lon="2.12249">
        <ele>12.9</ele>
        <time>2023-06-28T08:57:03Z</time>
      </trkpt>
      <trkpt lat="49.95494" lon="2.1225">
        <ele>12.9</ele>
        <time>2023-06-28T08:57:04Z</time>
      </trkpt>
      <trkpt lat="49.95493" lon="2.1225">
        <ele>12.9</ele>
        <time>2023-06-28T08:57:05Z</time>
      </trkpt>
      <trkpt lat="49.95492" lon="2.12251">
        <ele>12.9</ele>
        <time>2023-06-28T08:57:06Z</time>
      </trkpt>
      <trkpt lat="49.95491" lon="2.12251">
        <ele>12.9</ele>
        <time>2023-06-28T08:57:07Z</time>
      </trkpt>
      <trkpt lat="49.9549" lon="2.12252">
        <ele>12.9</ele>
        <time>2023-06-28T08:57:08Z</time>
      </trkpt>
      <trkpt lat="49.95489" lon="2.12252">
        <ele>12.9</ele>
        <time>2023-06-28T08:57:09Z</time>
      </trkpt>
      <trkpt lat="49.95488" lon="2.12253">
        <ele>12.9</ele>
        <time>2023-06-28T08:57:10Z</time>
      </trkpt>
      <trkpt lat="49.95487" lon="2.12254">
        <ele>12.9</ele>
        <time>2023-06-28T08:57:11Z</time>
      </trkpt>
      <trkpt lat="49.95486" lon="2.12255">
        <ele>12.9</ele>
        <time>2023-06-28T08:57:12Z</time>
      </trkpt>
      <trkpt lat="49.95485" lon="2.12255">
        <ele>12.9</ele>
        <time>2023-06-28T08:57:13Z</time>
      </trkpt>
      <trkpt lat="49.95484" lon="2.12256">
        <ele>12.9</ele>
        <time>2023-06-28T08:57:14Z</time>
      </trkpt>
      <trkpt lat="49.95483" lon="2.12257">
        <ele>12.9</ele>
        <time>2023-06-28T08:57:15Z</time>
      </trkpt>
      <trkpt lat="49.95482" lon="2.12258">
        <ele>12.9</ele>
        <time>2023-06-28T08:57:16Z</time>
      </trkpt>
      <trkpt lat="49.95481" lon="2.12258">
        <ele>12.9</ele>
        <time>2023-06-28T08:57:17Z</time>
      </trkpt>
      <trkpt lat="49.9548" lon="2.12259">
        <ele>12.9</ele>
        <time>2023-06-28T08:57:18Z</time>
      </trkpt>
      <trkpt lat="49.95479" lon="2.12259">
        <ele>12.9</ele>
        <time>2023-06-28T08:57:19Z</time>
      </trkpt>
      <trkpt lat="49.95479" lon="2.1226">
        <ele>12.9</ele>
        <time>2023-06-28T08:57:20Z</time>
      </trkpt>
      <trkpt lat="49.95478" lon="2.12261">
        <ele>12.9</ele>
        <time>2023-06-28T08:57:21Z</time>
      </trkpt>
      <trkpt lat="49.95477" lon="2.12261">
        <ele>12.9</ele>
        <time>2023-06-28T08:57:22Z</time>
      </trkpt>
      <trkpt lat="49.95476" lon="2.12262">
        <ele>12.9</ele>
        <time>2023-06-28T08:57:23Z</time>
      </trkpt>
      <trkpt lat="49.95475" lon="2.12263">
        <ele>12.9</ele>
        <time>2023-06-28T08:57:24Z</time>
      </trkpt>
      <trkpt lat="49.95474" lon="2.12264">
        <ele>12.9</ele>
        <time>2023-06-28T08:57:25Z</time>
      </trkpt>
      <trkpt lat="49.95473" lon="2.12265">
        <ele>12.9</ele>
        <time>2023-06-28T08:57:26Z</time>
      </trkpt>
      <trkpt lat="49.95472" lon="2.12266">
        <ele>12.9</ele>
        <time>2023-06-28T08:57:27Z</time>
      </trkpt>
      <trkpt lat="49.95471" lon="2.12267">
        <ele>12.9</ele>
        <time>2023-06-28T08:57:28Z</time>
      </trkpt>
      <trkpt lat="49.9547" lon="2.12268">
        <ele>12.9</ele>
        <time>2023-06-28T08:57:29Z</time>
      </trkpt>
      <trkpt lat="49.95469" lon="2.12269">
        <ele>12.9</ele>
        <time>2023-06-28T08:57:30Z</time>
      </trkpt>
      <trkpt lat="49.95468" lon="2.1227">
        <ele>12.9</ele>
        <time>2023-06-28T08:57:31Z</time>
      </trkpt>
      <trkpt lat="49.95467" lon="2.1227">
        <ele>12.9</ele>
        <time>2023-06-28T08:57:32Z</time>
      </trkpt>
      <trkpt lat="49.95466" lon="2.12271">
        <ele>12.9</ele>
        <time>2023-06-28T08:57:33Z</time>
      </trkpt>
      <trkpt lat="49.95465" lon="2.12272">
        <ele>12.9</ele>
        <time>2023-06-28T08:57:34Z</time>
      </trkpt>
      <trkpt lat="49.95463" lon="2.12274">
        <ele>12.9</ele>
        <time>2023-06-28T08:57:35Z</time>
      </trkpt>
      <trkpt lat="49.95463" lon="2.12274">
        <ele>12.9</ele>
        <time>2023-06-28T08:57:36Z</time>
      </trkpt>
      <trkpt lat="49.95462" lon="2.12275">
        <ele>12.9</ele>
        <time>2023-06-28T08:57:37Z</time>
      </trkpt>
      <trkpt lat="49.95461" lon="2.12276">
        <ele>12.9</ele>
        <time>2023-06-28T08:57:38Z</time>
      </trkpt>
      <trkpt lat="49.9546" lon="2.12277">
        <ele>12.9</ele>
        <time>2023-06-28T08:57:39Z</time>
      </trkpt>
      <trkpt lat="49.95459" lon="2.12278">
        <ele>12.9</ele>
        <time>2023-06-28T08:57:40Z</time>
      </trkpt>
      <trkpt lat="49.95459" lon="2.12279">
        <ele>12.9</ele>
        <time>2023-06-28T08:57:41Z</time>
      </trkpt>
      <trkpt lat="49.95458" lon="2.12279">
        <ele>12.9</ele>
        <time>2023-06-28T08:57:42Z</time>
      </trkpt>
      <trkpt lat="49.95457" lon="2.1228">
        <ele>12.9</ele>
        <time>2023-06-28T08:57:43Z</time>
      </trkpt>
      <trkpt lat="49.95456" lon="2.12281">
        <ele>12.9</ele>
        <time>2023-06-28T08:57:44Z</time>
      </trkpt>
      <trkpt lat="49.95455" lon="2.12282">
        <ele>13</ele>
        <time>2023-06-28T08:57:45Z</time>
      </trkpt>
      <trkpt lat="49.95454" lon="2.12283">
        <ele>13</ele>
        <time>2023-06-28T08:57:46Z</time>
      </trkpt>
      <trkpt lat="49.95453" lon="2.12284">
        <ele>13</ele>
        <time>2023-06-28T08:57:47Z</time>
      </trkpt>
      <trkpt lat="49.95452" lon="2.12285">
        <ele>13</ele>
        <time>2023-06-28T08:57:48Z</time>
      </trkpt>
      <trkpt lat="49.95451" lon="2.12286">
        <ele>13</ele>
        <time>2023-06-28T08:57:49Z</time>
      </trkpt>
      <trkpt lat="49.9545" lon="2.12286">
        <ele>13</ele>
        <time>2023-06-28T08:57:50Z</time>
      </trkpt>
      <trkpt lat="49.9545" lon="2.12287">
        <ele>13</ele>
        <time>2023-06-28T08:57:51Z</time>
      </trkpt>
      <trkpt lat="49.95449" lon="2.12288">
        <ele>13</ele>
        <time>2023-06-28T08:57:52Z</time>
      </trkpt>
      <trkpt lat="49.95448" lon="2.12289">
        <ele>13</ele>
        <time>2023-06-28T08:57:53Z</time>
      </trkpt>
      <trkpt lat="49.95447" lon="2.12289">
        <ele>13</ele>
        <time>2023-06-28T08:57:54Z</time>
      </trkpt>
      <trkpt lat="49.95447" lon="2.1229">
        <ele>13</ele>
        <time>2023-06-28T08:57:55Z</time>
      </trkpt>
      <trkpt lat="49.95446" lon="2.12291">
        <ele>13</ele>
        <time>2023-06-28T08:57:56Z</time>
      </trkpt>
      <trkpt lat="49.95445" lon="2.12292">
        <ele>13</ele>
        <time>2023-06-28T08:57:57Z</time>
      </trkpt>
      <trkpt lat="49.95444" lon="2.12292">
        <ele>13</ele>
        <time>2023-06-28T08:57:58Z</time>
      </trkpt>
      <trkpt lat="49.95443" lon="2.12293">
        <ele>13</ele>
        <time>2023-06-28T08:57:59Z</time>
      </trkpt>
      <trkpt lat="49.95442" lon="2.12293">
        <ele>13</ele>
        <time>2023-06-28T08:58:00Z</time>
      </trkpt>
      <trkpt lat="49.95441" lon="2.12294">
        <ele>13</ele>
        <time>2023-06-28T08:58:01Z</time>
      </trkpt>
      <trkpt lat="49.95439" lon="2.12295">
        <ele>13</ele>
        <time>2023-06-28T08:58:02Z</time>
      </trkpt>
      <trkpt lat="49.95437" lon="2.12296">
        <ele>13</ele>
        <time>2023-06-28T08:58:03Z</time>
      </trkpt>
      <trkpt lat="49.95437" lon="2.12297">
        <ele>13</ele>
        <time>2023-06-28T08:58:04Z</time>
      </trkpt>
      <trkpt lat="49.95436" lon="2.12297">
        <ele>13</ele>
        <time>2023-06-28T08:58:05Z</time>
      </trkpt>
      <trkpt lat="49.95434" lon="2.12298">
        <ele>13</ele>
        <time>2023-06-28T08:58:06Z</time>
      </trkpt>
      <trkpt lat="49.95433" lon="2.12299">
        <ele>13</ele>
        <time>2023-06-28T08:58:07Z</time>
      </trkpt>
      <trkpt lat="49.95431" lon="2.123">
        <ele>13</ele>
        <time>2023-06-28T08:58:08Z</time>
      </trkpt>
      <trkpt lat="49.95429" lon="2.12301">
        <ele>13</ele>
        <time>2023-06-28T08:58:09Z</time>
      </trkpt>
      <trkpt lat="49.95428" lon="2.12302">
        <ele>13</ele>
        <time>2023-06-28T08:58:10Z</time>
      </trkpt>
      <trkpt lat="49.95427" lon="2.12303">
        <ele>13</ele>
        <time>2023-06-28T08:58:11Z</time>
      </trkpt>
      <trkpt lat="49.95425" lon="2.12304">
        <ele>13</ele>
        <time>2023-06-28T08:58:12Z</time>
      </trkpt>
      <trkpt lat="49.95424" lon="2.12305">
        <ele>13</ele>
        <time>2023-06-28T08:58:13Z</time>
      </trkpt>
      <trkpt lat="49.95424" lon="2.12306">
        <ele>13</ele>
        <time>2023-06-28T08:58:14Z</time>
      </trkpt>
      <trkpt lat="49.95422" lon="2.12307">
        <ele>13</ele>
        <time>2023-06-28T08:58:15Z</time>
      </trkpt>
      <trkpt lat="49.95422" lon="2.12308">
        <ele>13</ele>
        <time>2023-06-28T08:58:16Z</time>
      </trkpt>
      <trkpt lat="49.95421" lon="2.12309">
        <ele>13</ele>
        <time>2023-06-28T08:58:17Z</time>
      </trkpt>
      <trkpt lat="49.95419" lon="2.12311">
        <ele>13</ele>
        <time>2023-06-28T08:58:18Z</time>
      </trkpt>
      <trkpt lat="49.95418" lon="2.12311">
        <ele>13</ele>
        <time>2023-06-28T08:58:19Z</time>
      </trkpt>
      <trkpt lat="49.95418" lon="2.12312">
        <ele>13</ele>
        <time>2023-06-28T08:58:20Z</time>
      </trkpt>
      <trkpt lat="49.95416" lon="2.12314">
        <ele>13</ele>
        <time>2023-06-28T08:58:21Z</time>
      </trkpt>
      <trkpt lat="49.95416" lon="2.12315">
        <ele>13</ele>
        <time>2023-06-28T08:58:22Z</time>
      </trkpt>
      <trkpt lat="49.95415" lon="2.12316">
        <ele>13</ele>
        <time>2023-06-28T08:58:23Z</time>
      </trkpt>
      <trkpt lat="49.95413" lon="2.12318">
        <ele>13</ele>
        <time>2023-06-28T08:58:24Z</time>
      </trkpt>
      <trkpt lat="49.95412" lon="2.12319">
        <ele>13</ele>
        <time>2023-06-28T08:58:25Z</time>
      </trkpt>
      <trkpt lat="49.95412" lon="2.1232">
        <ele>13</ele>
        <time>2023-06-28T08:58:26Z</time>
      </trkpt>
      <trkpt lat="49.95411" lon="2.12321">
        <ele>13</ele>
        <time>2023-06-28T08:58:27Z</time>
      </trkpt>
      <trkpt lat="49.9541" lon="2.12322">
        <ele>13</ele>
        <time>2023-06-28T08:58:28Z</time>
      </trkpt>
      <trkpt lat="49.95408" lon="2.12323">
        <ele>13</ele>
        <time>2023-06-28T08:58:29Z</time>
      </trkpt>
      <trkpt lat="49.95407" lon="2.12325">
        <ele>13</ele>
        <time>2023-06-28T08:58:30Z</time>
      </trkpt>
      <trkpt lat="49.95405" lon="2.12326">
        <ele>13</ele>
        <time>2023-06-28T08:58:31Z</time>
      </trkpt>
      <trkpt lat="49.95404" lon="2.12327">
        <ele>13</ele>
        <time>2023-06-28T08:58:32Z</time>
      </trkpt>
      <trkpt lat="49.95403" lon="2.12328">
        <ele>13</ele>
        <time>2023-06-28T08:58:33Z</time>
      </trkpt>
      <trkpt lat="49.95402" lon="2.12329">
        <ele>13</ele>
        <time>2023-06-28T08:58:34Z</time>
      </trkpt>
      <trkpt lat="49.954" lon="2.1233">
        <ele>13</ele>
        <time>2023-06-28T08:58:35Z</time>
      </trkpt>
      <trkpt lat="49.954" lon="2.1233">
        <ele>13</ele>
        <time>2023-06-28T08:58:36Z</time>
      </trkpt>
      <trkpt lat="49.95399" lon="2.12331">
        <ele>13</ele>
        <time>2023-06-28T08:58:37Z</time>
      </trkpt>
      <trkpt lat="49.95398" lon="2.12331">
        <ele>13</ele>
        <time>2023-06-28T08:58:38Z</time>
      </trkpt>
      <trkpt lat="49.95398" lon="2.12332">
        <ele>13</ele>
        <time>2023-06-28T08:58:39Z</time>
      </trkpt>
      <trkpt lat="49.95397" lon="2.12333">
        <ele>13</ele>
        <time>2023-06-28T08:58:40Z</time>
      </trkpt>
      <trkpt lat="49.95396" lon="2.12333">
        <ele>13</ele>
        <time>2023-06-28T08:58:41Z</time>
      </trkpt>
      <trkpt lat="49.95396" lon="2.12334">
        <ele>13</ele>
        <time>2023-06-28T08:58:42Z</time>
      </trkpt>
      <trkpt lat="49.95395" lon="2.12334">
        <ele>13</ele>
        <time>2023-06-28T08:58:43Z</time>
      </trkpt>
      <trkpt lat="49.95395" lon="2.12335">
        <ele>13</ele>
        <time>2023-06-28T08:58:44Z</time>
      </trkpt>
      <trkpt lat="49.95394" lon="2.12335">
        <ele>13</ele>
        <time>2023-06-28T08:58:45Z</time>
      </trkpt>
      <trkpt lat="49.95394" lon="2.12336">
        <ele>13</ele>
        <time>2023-06-28T08:58:46Z</time>
      </trkpt>
      <trkpt lat="49.95393" lon="2.12337">
        <ele>13</ele>
        <time>2023-06-28T08:58:47Z</time>
      </trkpt>
      <trkpt lat="49.95392" lon="2.12337">
        <ele>13</ele>
        <time>2023-06-28T08:58:48Z</time>
      </trkpt>
      <trkpt lat="49.95392" lon="2.12338">
        <ele>13</ele>
        <time>2023-06-28T08:58:49Z</time>
      </trkpt>
      <trkpt lat="49.95391" lon="2.12339">
        <ele>13</ele>
        <time>2023-06-28T08:58:50Z</time>
      </trkpt>
      <trkpt lat="49.9539" lon="2.12339">
        <ele>13</ele>
        <time>2023-06-28T08:58:51Z</time>
      </trkpt>
      <trkpt lat="49.95389" lon="2.1234">
        <ele>13</ele>
        <time>2023-06-28T08:58:52Z</time>
      </trkpt>
      <trkpt lat="49.95388" lon="2.12341">
        <ele>13</ele>
        <time>2023-06-28T08:58:53Z</time>
      </trkpt>
      <trkpt lat="49.95388" lon="2.12342">
        <ele>13</ele>
        <time>2023-06-28T08:58:54Z</time>
      </trkpt>
      <trkpt lat="49.95387" lon="2.12343">
        <ele>13</ele>
        <time>2023-06-28T08:58:55Z</time>
      </trkpt>
      <trkpt lat="49.95385" lon="2.12344">
        <ele>13</ele>
        <time>2023-06-28T08:58:56Z</time>
      </trkpt>
      <trkpt lat="49.95384" lon="2.12346">
        <ele>13</ele>
        <time>2023-06-28T08:58:57Z</time>
      </trkpt>
      <trkpt lat="49.95383" lon="2.12347">
        <ele>13</ele>
        <time>2023-06-28T08:58:58Z</time>
      </trkpt>
      <trkpt lat="49.95382" lon="2.12347">
        <ele>13</ele>
        <time>2023-06-28T08:58:59Z</time>
      </trkpt>
      <trkpt lat="49.95381" lon="2.12349">
        <ele>13</ele>
        <time>2023-06-28T08:59:00Z</time>
      </trkpt>
      <trkpt lat="49.9538" lon="2.1235">
        <ele>13</ele>
        <time>2023-06-28T08:59:01Z</time>
      </trkpt>
      <trkpt lat="49.95379" lon="2.12351">
        <ele>13</ele>
        <time>2023-06-28T08:59:02Z</time>
      </trkpt>
      <trkpt lat="49.95379" lon="2.12352">
        <ele>13</ele>
        <time>2023-06-28T08:59:03Z</time>
      </trkpt>
      <trkpt lat="49.95378" lon="2.12353">
        <ele>13</ele>
        <time>2023-06-28T08:59:04Z</time>
      </trkpt>
      <trkpt lat="49.95377" lon="2.12353">
        <ele>13</ele>
        <time>2023-06-28T08:59:05Z</time>
      </trkpt>
      <trkpt lat="49.95375" lon="2.12355">
        <ele>13</ele>
        <time>2023-06-28T08:59:06Z</time>
      </trkpt>
      <trkpt lat="49.95374" lon="2.12356">
        <ele>13</ele>
        <time>2023-06-28T08:59:07Z</time>
      </trkpt>
      <trkpt lat="49.95373" lon="2.12356">
        <ele>13</ele>
        <time>2023-06-28T08:59:08Z</time>
      </trkpt>
      <trkpt lat="49.95371" lon="2.12358">
        <ele>13</ele>
        <time>2023-06-28T08:59:09Z</time>
      </trkpt>
      <trkpt lat="49.9537" lon="2.12358">
        <ele>13</ele>
        <time>2023-06-28T08:59:10Z</time>
      </trkpt>
      <trkpt lat="49.9537" lon="2.12359">
        <ele>13</ele>
        <time>2023-06-28T08:59:11Z</time>
      </trkpt>
      <trkpt lat="49.95368" lon="2.12359">
        <ele>13</ele>
        <time>2023-06-28T08:59:12Z</time>
      </trkpt>
      <trkpt lat="49.95367" lon="2.1236">
        <ele>13</ele>
        <time>2023-06-28T08:59:13Z</time>
      </trkpt>
      <trkpt lat="49.95366" lon="2.12361">
        <ele>13</ele>
        <time>2023-06-28T08:59:14Z</time>
      </trkpt>
      <trkpt lat="49.95364" lon="2.12362">
        <ele>13</ele>
        <time>2023-06-28T08:59:15Z</time>
      </trkpt>
      <trkpt lat="49.95363" lon="2.12363">
        <ele>13</ele>
        <time>2023-06-28T08:59:16Z</time>
      </trkpt>
      <trkpt lat="49.95362" lon="2.12364">
        <ele>13</ele>
        <time>2023-06-28T08:59:17Z</time>
      </trkpt>
      <trkpt lat="49.95361" lon="2.12365">
        <ele>13</ele>
        <time>2023-06-28T08:59:18Z</time>
      </trkpt>
      <trkpt lat="49.95359" lon="2.12366">
        <ele>13</ele>
        <time>2023-06-28T08:59:19Z</time>
      </trkpt>
      <trkpt lat="49.95359" lon="2.12367">
        <ele>13</ele>
        <time>2023-06-28T08:59:20Z</time>
      </trkpt>
      <trkpt lat="49.95358" lon="2.12368">
        <ele>13</ele>
        <time>2023-06-28T08:59:21Z</time>
      </trkpt>
      <trkpt lat="49.95356" lon="2.1237">
        <ele>13</ele>
        <time>2023-06-28T08:59:22Z</time>
      </trkpt>
      <trkpt lat="49.95355" lon="2.12371">
        <ele>13</ele>
        <time>2023-06-28T08:59:23Z</time>
      </trkpt>
      <trkpt lat="49.95355" lon="2.12372">
        <ele>13</ele>
        <time>2023-06-28T08:59:24Z</time>
      </trkpt>
      <trkpt lat="49.95354" lon="2.12373">
        <ele>13</ele>
        <time>2023-06-28T08:59:25Z</time>
      </trkpt>
      <trkpt lat="49.95353" lon="2.12374">
        <ele>13.1</ele>
        <time>2023-06-28T08:59:26Z</time>
      </trkpt>
      <trkpt lat="49.95352" lon="2.12375">
        <ele>13.1</ele>
        <time>2023-06-28T08:59:27Z</time>
      </trkpt>
      <trkpt lat="49.95351" lon="2.12376">
        <ele>13.1</ele>
        <time>2023-06-28T08:59:28Z</time>
      </trkpt>
      <trkpt lat="49.9535" lon="2.12377">
        <ele>13.1</ele>
        <time>2023-06-28T08:59:29Z</time>
      </trkpt>
      <trkpt lat="49.95349" lon="2.12378">
        <ele>13.1</ele>
        <time>2023-06-28T08:59:30Z</time>
      </trkpt>
      <trkpt lat="49.95348" lon="2.12379">
        <ele>13.1</ele>
        <time>2023-06-28T08:59:31Z</time>
      </trkpt>
      <trkpt lat="49.95347" lon="2.1238">
        <ele>13.1</ele>
        <time>2023-06-28T08:59:32Z</time>
      </trkpt>
      <trkpt lat="49.95346" lon="2.12381">
        <ele>13.1</ele>
        <time>2023-06-28T08:59:33Z</time>
      </trkpt>
      <trkpt lat="49.95345" lon="2.12383">
        <ele>13.1</ele>
        <time>2023-06-28T08:59:34Z</time>
      </trkpt>
      <trkpt lat="49.95344" lon="2.12384">
        <ele>13.1</ele>
        <time>2023-06-28T08:59:35Z</time>
      </trkpt>
      <trkpt lat="49.95343" lon="2.12385">
        <ele>13.1</ele>
        <time>2023-06-28T08:59:36Z</time>
      </trkpt>
      <trkpt lat="49.95343" lon="2.12386">
        <ele>13.1</ele>
        <time>2023-06-28T08:59:37Z</time>
      </trkpt>
      <trkpt lat="49.95342" lon="2.12387">
        <ele>13.1</ele>
        <time>2023-06-28T08:59:38Z</time>
      </trkpt>
      <trkpt lat="49.95341" lon="2.12388">
        <ele>13.1</ele>
        <time>2023-06-28T08:59:39Z</time>
      </trkpt>
      <trkpt lat="49.9534" lon="2.12389">
        <ele>13.1</ele>
        <time>2023-06-28T08:59:40Z</time>
      </trkpt>
      <trkpt lat="49.95339" lon="2.1239">
        <ele>13.1</ele>
        <time>2023-06-28T08:59:41Z</time>
      </trkpt>
      <trkpt lat="49.95339" lon="2.12391">
        <ele>13.1</ele>
        <time>2023-06-28T08:59:42Z</time>
      </trkpt>
      <trkpt lat="49.95337" lon="2.12393">
        <ele>13.1</ele>
        <time>2023-06-28T08:59:43Z</time>
      </trkpt>
      <trkpt lat="49.95337" lon="2.12394">
        <ele>13.1</ele>
        <time>2023-06-28T08:59:44Z</time>
      </trkpt>
      <trkpt lat="49.95336" lon="2.12395">
        <ele>13.1</ele>
        <time>2023-06-28T08:59:45Z</time>
      </trkpt>
      <trkpt lat="49.95335" lon="2.12396">
        <ele>13.1</ele>
        <time>2023-06-28T08:59:46Z</time>
      </trkpt>
      <trkpt lat="49.95334" lon="2.12398">
        <ele>13.1</ele>
        <time>2023-06-28T08:59:47Z</time>
      </trkpt>
      <trkpt lat="49.95334" lon="2.12399">
        <ele>13.1</ele>
        <time>2023-06-28T08:59:48Z</time>
      </trkpt>
      <trkpt lat="49.95333" lon="2.12401">
        <ele>13.2</ele>
        <time>2023-06-28T08:59:49Z</time>
      </trkpt>
      <trkpt lat="49.95332" lon="2.12402">
        <ele>13.2</ele>
        <time>2023-06-28T08:59:50Z</time>
      </trkpt>
      <trkpt lat="49.95332" lon="2.12403">
        <ele>13.2</ele>
        <time>2023-06-28T08:59:51Z</time>
      </trkpt>
      <trkpt lat="49.95331" lon="2.12405">
        <ele>13.2</ele>
        <time>2023-06-28T08:59:52Z</time>
      </trkpt>
      <trkpt lat="49.95331" lon="2.12406">
        <ele>13.2</ele>
        <time>2023-06-28T08:59:53Z</time>
      </trkpt>
      <trkpt lat="49.9533" lon="2.12408">
        <ele>13.2</ele>
        <time>2023-06-28T08:59:54Z</time>
      </trkpt>
      <trkpt lat="49.95329" lon="2.12411">
        <ele>13.2</ele>
        <time>2023-06-28T08:59:55Z</time>
      </trkpt>
      <trkpt lat="49.95329" lon="2.12412">
        <ele>13.2</ele>
        <time>2023-06-28T08:59:56Z</time>
      </trkpt>
      <trkpt lat="49.95329" lon="2.12413">
        <ele>13.2</ele>
        <time>2023-06-28T08:59:57Z</time>
      </trkpt>
      <trkpt lat="49.95328" lon="2.12415">
        <ele>13.2</ele>
        <time>2023-06-28T08:59:58Z</time>
      </trkpt>
      <trkpt lat="49.95328" lon="2.12416">
        <ele>13.2</ele>
        <time>2023-06-28T08:59:59Z</time>
      </trkpt>
      <trkpt lat="49.95327" lon="2.12418">
        <ele>13.3</ele>
        <time>2023-06-28T09:00:00Z</time>
      </trkpt>
      <trkpt lat="49.95327" lon="2.12419">
        <ele>13.3</ele>
        <time>2023-06-28T09:00:01Z</time>
      </trkpt>
      <trkpt lat="49.95326" lon="2.12421">
        <ele>13.3</ele>
        <time>2023-06-28T09:00:02Z</time>
      </trkpt>
      <trkpt lat="49.95326" lon="2.12422">
        <ele>13.3</ele>
        <time>2023-06-28T09:00:03Z</time>
      </trkpt>
      <trkpt lat="49.95325" lon="2.12426">
        <ele>13.3</ele>
        <time>2023-06-28T09:00:04Z</time>
      </trkpt>
      <trkpt lat="49.95325" lon="2.12427">
        <ele>13.3</ele>
        <time>2023-06-28T09:00:05Z</time>
      </trkpt>
      <trkpt lat="49.95325" lon="2.12428">
        <ele>13.3</ele>
        <time>2023-06-28T09:00:06Z</time>
      </trkpt>
      <trkpt lat="49.95325" lon="2.1243">
        <ele>13.3</ele>
        <time>2023-06-28T09:00:07Z</time>
      </trkpt>
      <trkpt lat="49.95324" lon="2.12432">
        <ele>13.3</ele>
        <time>2023-06-28T09:00:08Z</time>
      </trkpt>
      <trkpt lat="49.95324" lon="2.12433">
        <ele>13.3</ele>
        <time>2023-06-28T09:00:09Z</time>
      </trkpt>
      <trkpt lat="49.95324" lon="2.12436">
        <ele>13.3</ele>
        <time>2023-06-28T09:00:10Z</time>
      </trkpt>
      <trkpt lat="49.95323" lon="2.12438">
        <ele>13.3</ele>
        <time>2023-06-28T09:00:11Z</time>
      </trkpt>
      <trkpt lat="49.95323" lon="2.12439">
        <ele>13.3</ele>
        <time>2023-06-28T09:00:12Z</time>
      </trkpt>
      <trkpt lat="49.95323" lon="2.12442">
        <ele>13.3</ele>
        <time>2023-06-28T09:00:13Z</time>
      </trkpt>
      <trkpt lat="49.95322" lon="2.12444">
        <ele>13.3</ele>
        <time>2023-06-28T09:00:14Z</time>
      </trkpt>
      <trkpt lat="49.95322" lon="2.12446">
        <ele>13.3</ele>
        <time>2023-06-28T09:00:15Z</time>
      </trkpt>
      <trkpt lat="49.95322" lon="2.12449">
        <ele>13.3</ele>
        <time>2023-06-28T09:00:16Z</time>
      </trkpt>
      <trkpt lat="49.95321" lon="2.12451">
        <ele>13.3</ele>
        <time>2023-06-28T09:00:17Z</time>
      </trkpt>
      <trkpt lat="49.95321" lon="2.12453">
        <ele>13.3</ele>
        <time>2023-06-28T09:00:18Z</time>
      </trkpt>
      <trkpt lat="49.95321" lon="2.12456">
        <ele>13.3</ele>
        <time>2023-06-28T09:00:19Z</time>
      </trkpt>
      <trkpt lat="49.95321" lon="2.12459">
        <ele>13.3</ele>
        <time>2023-06-28T09:00:20Z</time>
      </trkpt>
      <trkpt lat="49.95321" lon="2.12461">
        <ele>13.3</ele>
        <time>2023-06-28T09:00:21Z</time>
      </trkpt>
      <trkpt lat="49.95321" lon="2.12464">
        <ele>13.3</ele>
        <time>2023-06-28T09:00:22Z</time>
      </trkpt>
      <trkpt lat="49.95321" lon="2.12467">
        <ele>13.3</ele>
        <time>2023-06-28T09:00:23Z</time>
      </trkpt>
      <trkpt lat="49.95321" lon="2.12469">
        <ele>13.3</ele>
        <time>2023-06-28T09:00:24Z</time>
      </trkpt>
      <trkpt lat="49.95321" lon="2.12472">
        <ele>13.3</ele>
        <time>2023-06-28T09:00:25Z</time>
      </trkpt>
      <trkpt lat="49.95321" lon="2.12474">
        <ele>13.3</ele>
        <time>2023-06-28T09:00:26Z</time>
      </trkpt>
      <trkpt lat="49.95321" lon="2.12478">
        <ele>13.3</ele>
        <time>2023-06-28T09:00:27Z</time>
      </trkpt>
      <trkpt lat="49.95321" lon="2.1248">
        <ele>13.3</ele>
        <time>2023-06-28T09:00:28Z</time>
      </trkpt>
      <trkpt lat="49.95321" lon="2.12484">
        <ele>13.3</ele>
        <time>2023-06-28T09:00:29Z</time>
      </trkpt>
      <trkpt lat="49.95321" lon="2.12486">
        <ele>13.3</ele>
        <time>2023-06-28T09:00:30Z</time>
      </trkpt>
      <trkpt lat="49.95321" lon="2.1249">
        <ele>13.3</ele>
        <time>2023-06-28T09:00:31Z</time>
      </trkpt>
      <trkpt lat="49.95321" lon="2.12492">
        <ele>13.2</ele>
        <time>2023-06-28T09:00:32Z</time>
      </trkpt>
      <trkpt lat="49.95321" lon="2.12494">
        <ele>13.2</ele>
        <time>2023-06-28T09:00:33Z</time>
      </trkpt>
      <trkpt lat="49.95321" lon="2.12496">
        <ele>13.2</ele>
        <time>2023-06-28T09:00:34Z</time>
      </trkpt>
      <trkpt lat="49.95321" lon="2.12498">
        <ele>13.2</ele>
        <time>2023-06-28T09:00:35Z</time>
      </trkpt>
      <trkpt lat="49.95321" lon="2.125">
        <ele>13.2</ele>
        <time>2023-06-28T09:00:36Z</time>
      </trkpt>
      <trkpt lat="49.95321" lon="2.12501">
        <ele>13.2</ele>
        <time>2023-06-28T09:00:37Z</time>
      </trkpt>
      <trkpt lat="49.95321" lon="2.12502">
        <ele>13.2</ele>
        <time>2023-06-28T09:00:38Z</time>
      </trkpt>
      <trkpt lat="49.95321" lon="2.12503">
        <ele>13.2</ele>
        <time>2023-06-28T09:00:39Z</time>
      </trkpt>
      <trkpt lat="49.95321" lon="2.12505">
        <ele>13.2</ele>
        <time>2023-06-28T09:00:40Z</time>
      </trkpt>
      <trkpt lat="49.95321" lon="2.12506">
        <ele>13.2</ele>
        <time>2023-06-28T09:00:41Z</time>
      </trkpt>
      <trkpt lat="49.95321" lon="2.12508">
        <ele>13.2</ele>
        <time>2023-06-28T09:00:42Z</time>
      </trkpt>
      <trkpt lat="49.95321" lon="2.12509">
        <ele>13.2</ele>
        <time>2023-06-28T09:00:43Z</time>
      </trkpt>
      <trkpt lat="49.95321" lon="2.1251">
        <ele>13.2</ele>
        <time>2023-06-28T09:00:44Z</time>
      </trkpt>
      <trkpt lat="49.9532" lon="2.12511">
        <ele>13.2</ele>
        <time>2023-06-28T09:00:45Z</time>
      </trkpt>
      <trkpt lat="49.9532" lon="2.12515">
        <ele>13.2</ele>
        <time>2023-06-28T09:00:46Z</time>
      </trkpt>
      <trkpt lat="49.9532" lon="2.12516">
        <ele>13.2</ele>
        <time>2023-06-28T09:00:47Z</time>
      </trkpt>
      <trkpt lat="49.95319" lon="2.12517">
        <ele>13.2</ele>
        <time>2023-06-28T09:00:48Z</time>
      </trkpt>
      <trkpt lat="49.95319" lon="2.12519">
        <ele>13.2</ele>
        <time>2023-06-28T09:00:49Z</time>
      </trkpt>
      <trkpt lat="49.95319" lon="2.12521">
        <ele>13.2</ele>
        <time>2023-06-28T09:00:50Z</time>
      </trkpt>
      <trkpt lat="49.95318" lon="2.12522">
        <ele>13.2</ele>
        <time>2023-06-28T09:00:51Z</time>
      </trkpt>
      <trkpt lat="49.95318" lon="2.12522">
        <ele>13.2</ele>
        <time>2023-06-28T09:00:52Z</time>
      </trkpt>
      <trkpt lat="49.95318" lon="2.12522">
        <ele>13.2</ele>
        <time>2023-06-28T09:00:53Z</time>
      </trkpt>
      <trkpt lat="49.95317" lon="2.12522">
        <ele>13.2</ele>
        <time>2023-06-28T09:00:54Z</time>
      </trkpt>
      <trkpt lat="49.95317" lon="2.12522">
        <ele>13.2</ele>
        <time>2023-06-28T09:00:55Z</time>
      </trkpt>
      <trkpt lat="49.95316" lon="2.12521">
        <ele>13.2</ele>
        <time>2023-06-28T09:00:56Z</time>
      </trkpt>
      <trkpt lat="49.95316" lon="2.12521">
        <ele>13.2</ele>
        <time>2023-06-28T09:00:57Z</time>
      </trkpt>
      <trkpt lat="49.95315" lon="2.12522">
        <ele>13.2</ele>
        <time>2023-06-28T09:00:58Z</time>
      </trkpt>
      <trkpt lat="49.95314" lon="2.12522">
        <ele>13.2</ele>
        <time>2023-06-28T09:00:59Z</time>
      </trkpt>
      <trkpt lat="49.95314" lon="2.12523">
        <ele>13.2</ele>
        <time>2023-06-28T09:01:00Z</time>
      </trkpt>
      <trkpt lat="49.95313" lon="2.12524">
        <ele>13.2</ele>
        <time>2023-06-28T09:01:01Z</time>
      </trkpt>
      <trkpt lat="49.95312" lon="2.12524">
        <ele>13.3</ele>
        <time>2023-06-28T09:01:02Z</time>
      </trkpt>
      <trkpt lat="49.95311" lon="2.12525">
        <ele>13.3</ele>
        <time>2023-06-28T09:01:03Z</time>
      </trkpt>
      <trkpt lat="49.95311" lon="2.12526">
        <ele>13.3</ele>
        <time>2023-06-28T09:01:04Z</time>
      </trkpt>
      <trkpt lat="49.9531" lon="2.12526">
        <ele>13.3</ele>
        <time>2023-06-28T09:01:05Z</time>
      </trkpt>
      <trkpt lat="49.95309" lon="2.12527">
        <ele>13.3</ele>
        <time>2023-06-28T09:01:06Z</time>
      </trkpt>
      <trkpt lat="49.95308" lon="2.12528">
        <ele>13.3</ele>
        <time>2023-06-28T09:01:07Z</time>
      </trkpt>
      <trkpt lat="49.95307" lon="2.12529">
        <ele>13.3</ele>
        <time>2023-06-28T09:01:08Z</time>
      </trkpt>
      <trkpt lat="49.95306" lon="2.1253">
        <ele>13.3</ele>
        <time>2023-06-28T09:01:09Z</time>
      </trkpt>
      <trkpt lat="49.95306" lon="2.12531">
        <ele>13.3</ele>
        <time>2023-06-28T09:01:10Z</time>
      </trkpt>
      <trkpt lat="49.95305" lon="2.12532">
        <ele>13.3</ele>
        <time>2023-06-28T09:01:11Z</time>
      </trkpt>
      <trkpt lat="49.95304" lon="2.12533">
        <ele>13.3</ele>
        <time>2023-06-28T09:01:12Z</time>
      </trkpt>
      <trkpt lat="49.95303" lon="2.12535">
        <ele>13.3</ele>
        <time>2023-06-28T09:01:13Z</time>
      </trkpt>
      <trkpt lat="49.95302" lon="2.12535">
        <ele>13.3</ele>
        <time>2023-06-28T09:01:14Z</time>
      </trkpt>
      <trkpt lat="49.95301" lon="2.12536">
        <ele>13.4</ele>
        <time>2023-06-28T09:01:15Z</time>
      </trkpt>
      <trkpt lat="49.95299" lon="2.12538">
        <ele>13.4</ele>
        <time>2023-06-28T09:01:16Z</time>
      </trkpt>
      <trkpt lat="49.95298" lon="2.12538">
        <ele>13.4</ele>
        <time>2023-06-28T09:01:17Z</time>
      </trkpt>
      <trkpt lat="49.95298" lon="2.12539">
        <ele>13.4</ele>
        <time>2023-06-28T09:01:18Z</time>
      </trkpt>
      <trkpt lat="49.95297" lon="2.1254">
        <ele>13.4</ele>
        <time>2023-06-28T09:01:19Z</time>
      </trkpt>
      <trkpt lat="49.95296" lon="2.12541">
        <ele>13.4</ele>
        <time>2023-06-28T09:01:20Z</time>
      </trkpt>
      <trkpt lat="49.95295" lon="2.12542">
        <ele>13.4</ele>
        <time>2023-06-28T09:01:21Z</time>
      </trkpt>
      <trkpt lat="49.95294" lon="2.12543">
        <ele>13.4</ele>
        <time>2023-06-28T09:01:22Z</time>
      </trkpt>
      <trkpt lat="49.95293" lon="2.12543">
        <ele>13.4</ele>
        <time>2023-06-28T09:01:23Z</time>
      </trkpt>
      <trkpt lat="49.95292" lon="2.12543">
        <ele>13.4</ele>
        <time>2023-06-28T09:01:24Z</time>
      </trkpt>
      <trkpt lat="49.95291" lon="2.12544">
        <ele>13.4</ele>
        <time>2023-06-28T09:01:25Z</time>
      </trkpt>
      <trkpt lat="49.9529" lon="2.12545">
        <ele>13.4</ele>
        <time>2023-06-28T09:01:26Z</time>
      </trkpt>
      <trkpt lat="49.95289" lon="2.12545">
        <ele>13.4</ele>
        <time>2023-06-28T09:01:27Z</time>
      </trkpt>
      <trkpt lat="49.95289" lon="2.12545">
        <ele>13.4</ele>
        <time>2023-06-28T09:01:28Z</time>
      </trkpt>
      <trkpt lat="49.95288" lon="2.12546">
        <ele>13.4</ele>
        <time>2023-06-28T09:01:29Z</time>
      </trkpt>
      <trkpt lat="49.95287" lon="2.12546">
        <ele>13.4</ele>
        <time>2023-06-28T09:01:30Z</time>
      </trkpt>
      <trkpt lat="49.95286" lon="2.12546">
        <ele>13.4</ele>
        <time>2023-06-28T09:01:31Z</time>
      </trkpt>
      <trkpt lat="49.95286" lon="2.12546">
        <ele>13.4</ele>
        <time>2023-06-28T09:01:32Z</time>
      </trkpt>
      <trkpt lat="49.95286" lon="2.12547">
        <ele>13.4</ele>
        <time>2023-06-28T09:01:33Z</time>
      </trkpt>
      <trkpt lat="49.95285" lon="2.12547">
        <ele>13.4</ele>
        <time>2023-06-28T09:01:34Z</time>
      </trkpt>
      <trkpt lat="49.95285" lon="2.12547">
        <ele>13.4</ele>
        <time>2023-06-28T09:01:35Z</time>
      </trkpt>
      <trkpt lat="49.95285" lon="2.12546">
        <ele>13.4</ele>
        <time>2023-06-28T09:01:36Z</time>
      </trkpt>
      <trkpt lat="49.95285" lon="2.12546">
        <ele>13.4</ele>
        <time>2023-06-28T09:01:37Z</time>
      </trkpt>
      <trkpt lat="49.95285" lon="2.12546">
        <ele>13.4</ele>
        <time>2023-06-28T09:01:38Z</time>
      </trkpt>
      <trkpt lat="49.95285" lon="2.12546">
        <ele>13.4</ele>
        <time>2023-06-28T09:01:39Z</time>
      </trkpt>
      <trkpt lat="49.95285" lon="2.12546">
        <ele>13.4</ele>
        <time>2023-06-28T09:01:40Z</time>
      </trkpt>
      <trkpt lat="49.95285" lon="2.12546">
        <ele>13.4</ele>
        <time>2023-06-28T09:01:41Z</time>
      </trkpt>
      <trkpt lat="49.95285" lon="2.12546">
        <ele>13.4</ele>
        <time>2023-06-28T09:01:42Z</time>
      </trkpt>
      <trkpt lat="49.95285" lon="2.12546">
        <ele>13.4</ele>
        <time>2023-06-28T09:01:43Z</time>
      </trkpt>
      <trkpt lat="49.95285" lon="2.12546">
        <ele>13.4</ele>
        <time>2023-06-28T09:01:44Z</time>
      </trkpt>
      <trkpt lat="49.95285" lon="2.12546">
        <ele>13.4</ele>
        <time>2023-06-28T09:01:45Z</time>
      </trkpt>
      <trkpt lat="49.95285" lon="2.12546">
        <ele>13.4</ele>
        <time>2023-06-28T09:01:46Z</time>
      </trkpt>
      <trkpt lat="49.95285" lon="2.12546">
        <ele>13.4</ele>
        <time>2023-06-28T09:01:47Z</time>
      </trkpt>
      <trkpt lat="49.95285" lon="2.12546">
        <ele>13.4</ele>
        <time>2023-06-28T09:01:48Z</time>
      </trkpt>
      <trkpt lat="49.95285" lon="2.12546">
        <ele>13.4</ele>
        <time>2023-06-28T09:01:49Z</time>
      </trkpt>
      <trkpt lat="49.95285" lon="2.12546">
        <ele>13.4</ele>
        <time>2023-06-28T09:01:50Z</time>
      </trkpt>
      <trkpt lat="49.95285" lon="2.12546">
        <ele>13.4</ele>
        <time>2023-06-28T09:01:51Z</time>
      </trkpt>
      <trkpt lat="49.95285" lon="2.12546">
        <ele>13.4</ele>
        <time>2023-06-28T09:01:52Z</time>
      </trkpt>
      <trkpt lat="49.95285" lon="2.12546">
        <ele>13.4</ele>
        <time>2023-06-28T09:01:53Z</time>
      </trkpt>
      <trkpt lat="49.95285" lon="2.12546">
        <ele>13.4</ele>
        <time>2023-06-28T09:01:54Z</time>
      </trkpt>
      <trkpt lat="49.95285" lon="2.12546">
        <ele>13.4</ele>
        <time>2023-06-28T09:01:55Z</time>
      </trkpt>
      <trkpt lat="49.95285" lon="2.12546">
        <ele>13.4</ele>
        <time>2023-06-28T09:01:56Z</time>
      </trkpt>
      <trkpt lat="49.95285" lon="2.12546">
        <ele>13.4</ele>
        <time>2023-06-28T09:01:57Z</time>
      </trkpt>
      <trkpt lat="49.95285" lon="2.12546">
        <ele>13.4</ele>
        <time>2023-06-28T09:01:58Z</time>
      </trkpt>
      <trkpt lat="49.95285" lon="2.12546">
        <ele>13.4</ele>
        <time>2023-06-28T09:01:59Z</time>
      </trkpt>
      <trkpt lat="49.95285" lon="2.12546">
        <ele>13.4</ele>
        <time>2023-06-28T09:02:00Z</time>
      </trkpt>
      <trkpt lat="49.95285" lon="2.12546">
        <ele>13.4</ele>
        <time>2023-06-28T09:02:01Z</time>
      </trkpt>
      <trkpt lat="49.95285" lon="2.12546">
        <ele>13.4</ele>
        <time>2023-06-28T09:02:02Z</time>
      </trkpt>
      <trkpt lat="49.95285" lon="2.12546">
        <ele>13.4</ele>
        <time>2023-06-28T09:02:03Z</time>
      </trkpt>
      <trkpt lat="49.95285" lon="2.12546">
        <ele>13.4</ele>
        <time>2023-06-28T09:02:04Z</time>
      </trkpt>
      <trkpt lat="49.95285" lon="2.12546">
        <ele>13.4</ele>
        <time>2023-06-28T09:02:05Z</time>
      </trkpt>
      <trkpt lat="49.95285" lon="2.12546">
        <ele>13.4</ele>
        <time>2023-06-28T09:02:06Z</time>
      </trkpt>
      <trkpt lat="49.95285" lon="2.12546">
        <ele>13.4</ele>
        <time>2023-06-28T09:02:07Z</time>
      </trkpt>
      <trkpt lat="49.95285" lon="2.12546">
        <ele>13.4</ele>
        <time>2023-06-28T09:02:08Z</time>
      </trkpt>
      <trkpt lat="49.95285" lon="2.12546">
        <ele>13.4</ele>
        <time>2023-06-28T09:02:09Z</time>
      </trkpt>
      <trkpt lat="49.95285" lon="2.12546">
        <ele>13.4</ele>
        <time>2023-06-28T09:02:10Z</time>
      </trkpt>
      <trkpt lat="49.95285" lon="2.12546">
        <ele>13.4</ele>
        <time>2023-06-28T09:02:11Z</time>
      </trkpt>
      <trkpt lat="49.95285" lon="2.12546">
        <ele>13.4</ele>
        <time>2023-06-28T09:02:12Z</time>
      </trkpt>
      <trkpt lat="49.95285" lon="2.12546">
        <ele>13.4</ele>
        <time>2023-06-28T09:02:13Z</time>
      </trkpt>
      <trkpt lat="49.95285" lon="2.12546">
        <ele>13.4</ele>
        <time>2023-06-28T09:02:14Z</time>
      </trkpt>
      <trkpt lat="49.95285" lon="2.12546">
        <ele>13.4</ele>
        <time>2023-06-28T09:02:15Z</time>
      </trkpt>
      <trkpt lat="49.95285" lon="2.12546">
        <ele>13.4</ele>
        <time>2023-06-28T09:02:16Z</time>
      </trkpt>
      <trkpt lat="49.95285" lon="2.12546">
        <ele>13.4</ele>
        <time>2023-06-28T09:02:17Z</time>
      </trkpt>
      <trkpt lat="49.95285" lon="2.12546">
        <ele>13.4</ele>
        <time>2023-06-28T09:02:18Z</time>
      </trkpt>
      <trkpt lat="49.95285" lon="2.12546">
        <ele>13.4</ele>
        <time>2023-06-28T09:02:19Z</time>
      </trkpt>
      <trkpt lat="49.95285" lon="2.12546">
        <ele>13.4</ele>
        <time>2023-06-28T09:02:20Z</time>
      </trkpt>
      <trkpt lat="49.95285" lon="2.12546">
        <ele>13.4</ele>
        <time>2023-06-28T09:02:21Z</time>
      </trkpt>
      <trkpt lat="49.95285" lon="2.12546">
        <ele>13.4</ele>
        <time>2023-06-28T09:02:22Z</time>
      </trkpt>
      <trkpt lat="49.95285" lon="2.12546">
        <ele>13.4</ele>
        <time>2023-06-28T09:02:23Z</time>
      </trkpt>
      <trkpt lat="49.95285" lon="2.12546">
        <ele>13.4</ele>
        <time>2023-06-28T09:02:24Z</time>
      </trkpt>
      <trkpt lat="49.95285" lon="2.12546">
        <ele>13.4</ele>
        <time>2023-06-28T09:02:25Z</time>
      </trkpt>
      <trkpt lat="49.95285" lon="2.12546">
        <ele>13.4</ele>
        <time>2023-06-28T09:02:26Z</time>
      </trkpt>
      <trkpt lat="49.95285" lon="2.12546">
        <ele>13.4</ele>
        <time>2023-06-28T09:02:27Z</time>
      </trkpt>
      <trkpt lat="49.95285" lon="2.12546">
        <ele>13.4</ele>
        <time>2023-06-28T09:02:28Z</time>
      </trkpt>
      <trkpt lat="49.95285" lon="2.12546">
        <ele>13.4</ele>
        <time>2023-06-28T09:02:29Z</time>
      </trkpt>
      <trkpt lat="49.95285" lon="2.12546">
        <ele>13.4</ele>
        <time>2023-06-28T09:02:30Z</time>
      </trkpt>
      <trkpt lat="49.95285" lon="2.12546">
        <ele>13.4</ele>
        <time>2023-06-28T09:02:31Z</time>
      </trkpt>
      <trkpt lat="49.95285" lon="2.12546">
        <ele>13.4</ele>
        <time>2023-06-28T09:02:32Z</time>
      </trkpt>
      <trkpt lat="49.95285" lon="2.12546">
        <ele>13.4</ele>
        <time>2023-06-28T09:02:33Z</time>
      </trkpt>
      <trkpt lat="49.95285" lon="2.12546">
        <ele>13.4</ele>
        <time>2023-06-28T09:02:34Z</time>
      </trkpt>
      <trkpt lat="49.95285" lon="2.12546">
        <ele>13.4</ele>
        <time>2023-06-28T09:02:35Z</time>
      </trkpt>
      <trkpt lat="49.95285" lon="2.12546">
        <ele>13.4</ele>
        <time>2023-06-28T09:02:36Z</time>
      </trkpt>
      <trkpt lat="49.95285" lon="2.12546">
        <ele>13.4</ele>
        <time>2023-06-28T09:02:37Z</time>
      </trkpt>
      <trkpt lat="49.95285" lon="2.12546">
        <ele>13.4</ele>
        <time>2023-06-28T09:02:38Z</time>
      </trkpt>
      <trkpt lat="49.95285" lon="2.12546">
        <ele>13.4</ele>
        <time>2023-06-28T09:02:39Z</time>
      </trkpt>
      <trkpt lat="49.95285" lon="2.12546">
        <ele>13.4</ele>
        <time>2023-06-28T09:02:40Z</time>
      </trkpt>
      <trkpt lat="49.95285" lon="2.12546">
        <ele>13.4</ele>
        <time>2023-06-28T09:02:41Z</time>
      </trkpt>
      <trkpt lat="49.95285" lon="2.12546">
        <ele>13.4</ele>
        <time>2023-06-28T09:02:42Z</time>
      </trkpt>
      <trkpt lat="49.95285" lon="2.12546">
        <ele>13.4</ele>
        <time>2023-06-28T09:02:43Z</time>
      </trkpt>
      <trkpt lat="49.95285" lon="2.12546">
        <ele>13.4</ele>
        <time>2023-06-28T09:02:44Z</time>
      </trkpt>
      <trkpt lat="49.95285" lon="2.12546">
        <ele>13.4</ele>
        <time>2023-06-28T09:02:45Z</time>
      </trkpt>
      <trkpt lat="49.95285" lon="2.12546">
        <ele>13.4</ele>
        <time>2023-06-28T09:02:46Z</time>
      </trkpt>
      <trkpt lat="49.95285" lon="2.12546">
        <ele>13.4</ele>
        <time>2023-06-28T09:02:47Z</time>
      </trkpt>
      <trkpt lat="49.95285" lon="2.12546">
        <ele>13.4</ele>
        <time>2023-06-28T09:02:48Z</time>
      </trkpt>
      <trkpt lat="49.95285" lon="2.12546">
        <ele>13.4</ele>
        <time>2023-06-28T09:02:49Z</time>
      </trkpt>
      <trkpt lat="49.95285" lon="2.12546">
        <ele>13.4</ele>
        <time>2023-06-28T09:02:50Z</time>
      </trkpt>
      <trkpt lat="49.95285" lon="2.12546">
        <ele>13.4</ele>
        <time>2023-06-28T09:02:51Z</time>
      </trkpt>
      <trkpt lat="49.95285" lon="2.12546">
        <ele>13.4</ele>
        <time>2023-06-28T09:02:52Z</time>
      </trkpt>
      <trkpt lat="49.95285" lon="2.12546">
        <ele>13.4</ele>
        <time>2023-06-28T09:02:53Z</time>
      </trkpt>
      <trkpt lat="49.95285" lon="2.12546">
        <ele>13.4</ele>
        <time>2023-06-28T09:02:54Z</time>
      </trkpt>
      <trkpt lat="49.95285" lon="2.12546">
        <ele>13.4</ele>
        <time>2023-06-28T09:02:55Z</time>
      </trkpt>
      <trkpt lat="49.95285" lon="2.12546">
        <ele>13.4</ele>
        <time>2023-06-28T09:02:56Z</time>
      </trkpt>
      <trkpt lat="49.95285" lon="2.12546">
        <ele>13.4</ele>
        <time>2023-06-28T09:02:57Z</time>
      </trkpt>
      <trkpt lat="49.95285" lon="2.12546">
        <ele>13.4</ele>
        <time>2023-06-28T09:02:58Z</time>
      </trkpt>
      <trkpt lat="49.95285" lon="2.12546">
        <ele>13.4</ele>
        <time>2023-06-28T09:02:59Z</time>
      </trkpt>
      <trkpt lat="49.95285" lon="2.12546">
        <ele>13.4</ele>
        <time>2023-06-28T09:03:00Z</time>
      </trkpt>
      <trkpt lat="49.95285" lon="2.12546">
        <ele>13.4</ele>
        <time>2023-06-28T09:03:01Z</time>
      </trkpt>
      <trkpt lat="49.95285" lon="2.12546">
        <ele>13.4</ele>
        <time>2023-06-28T09:03:02Z</time>
      </trkpt>
      <trkpt lat="49.95285" lon="2.12546">
        <ele>13.4</ele>
        <time>2023-06-28T09:03:03Z</time>
      </trkpt>
      <trkpt lat="49.95285" lon="2.12546">
        <ele>13.4</ele>
        <time>2023-06-28T09:03:04Z</time>
      </trkpt>
      <trkpt lat="49.95285" lon="2.12546">
        <ele>13.4</ele>
        <time>2023-06-28T09:03:05Z</time>
      </trkpt>
      <trkpt lat="49.95285" lon="2.12546">
        <ele>13.4</ele>
        <time>2023-06-28T09:03:06Z</time>
      </trkpt>
      <trkpt lat="49.95285" lon="2.12546">
        <ele>13.4</ele>
        <time>2023-06-28T09:03:07Z</time>
      </trkpt>
      <trkpt lat="49.95285" lon="2.12546">
        <ele>13.4</ele>
        <time>2023-06-28T09:03:08Z</time>
      </trkpt>
      <trkpt lat="49.95285" lon="2.12546">
        <ele>13.4</ele>
        <time>2023-06-28T09:03:09Z</time>
      </trkpt>
      <trkpt lat="49.95285" lon="2.12546">
        <ele>13.4</ele>
        <time>2023-06-28T09:03:10Z</time>
      </trkpt>
      <trkpt lat="49.95285" lon="2.12546">
        <ele>13.4</ele>
        <time>2023-06-28T09:03:11Z</time>
      </trkpt>
      <trkpt lat="49.95285" lon="2.12546">
        <ele>13.4</ele>
        <time>2023-06-28T09:03:12Z</time>
      </trkpt>
      <trkpt lat="49.95285" lon="2.12546">
        <ele>13.4</ele>
        <time>2023-06-28T09:03:13Z</time>
      </trkpt>
      <trkpt lat="49.95285" lon="2.12546">
        <ele>13.4</ele>
        <time>2023-06-28T09:03:14Z</time>
      </trkpt>
      <trkpt lat="49.95285" lon="2.12546">
        <ele>13.4</ele>
        <time>2023-06-28T09:03:15Z</time>
      </trkpt>
      <trkpt lat="49.95285" lon="2.12546">
        <ele>13.4</ele>
        <time>2023-06-28T09:03:16Z</time>
      </trkpt>
      <trkpt lat="49.95285" lon="2.12546">
        <ele>13.4</ele>
        <time>2023-06-28T09:03:17Z</time>
      </trkpt>
      <trkpt lat="49.95285" lon="2.12546">
        <ele>13.4</ele>
        <time>2023-06-28T09:03:18Z</time>
      </trkpt>
      <trkpt lat="49.95285" lon="2.12546">
        <ele>13.4</ele>
        <time>2023-06-28T09:03:19Z</time>
      </trkpt>
      <trkpt lat="49.95285" lon="2.12546">
        <ele>13.4</ele>
        <time>2023-06-28T09:03:20Z</time>
      </trkpt>
      <trkpt lat="49.95285" lon="2.12546">
        <ele>13.4</ele>
        <time>2023-06-28T09:03:21Z</time>
      </trkpt>
      <trkpt lat="49.95285" lon="2.12546">
        <ele>13.4</ele>
        <time>2023-06-28T09:03:22Z</time>
      </trkpt>
      <trkpt lat="49.95285" lon="2.12546">
        <ele>13.4</ele>
        <time>2023-06-28T09:03:23Z</time>
      </trkpt>
      <trkpt lat="49.95285" lon="2.12546">
        <ele>13.4</ele>
        <time>2023-06-28T09:03:24Z</time>
      </trkpt>
      <trkpt lat="49.95285" lon="2.12546">
        <ele>13.4</ele>
        <time>2023-06-28T09:03:25Z</time>
      </trkpt>
      <trkpt lat="49.95285" lon="2.12546">
        <ele>13.4</ele>
        <time>2023-06-28T09:03:26Z</time>
      </trkpt>
      <trkpt lat="49.95285" lon="2.12546">
        <ele>13.4</ele>
        <time>2023-06-28T09:03:27Z</time>
      </trkpt>
      <trkpt lat="49.95285" lon="2.12546">
        <ele>13.4</ele>
        <time>2023-06-28T09:03:28Z</time>
      </trkpt>
      <trkpt lat="49.95285" lon="2.12546">
        <ele>13.4</ele>
        <time>2023-06-28T09:03:29Z</time>
      </trkpt>
      <trkpt lat="49.95285" lon="2.12546">
        <ele>13.4</ele>
        <time>2023-06-28T09:03:30Z</time>
      </trkpt>
      <trkpt lat="49.95287" lon="2.12544">
        <ele>13.4</ele>
        <time>2023-06-28T09:03:31Z</time>
      </trkpt>
      <trkpt lat="49.95288" lon="2.12543">
        <ele>13.4</ele>
        <time>2023-06-28T09:03:32Z</time>
      </trkpt>
      <trkpt lat="49.95288" lon="2.12543">
        <ele>13.4</ele>
        <time>2023-06-28T09:03:33Z</time>
      </trkpt>
      <trkpt lat="49.95288" lon="2.12543">
        <ele>13.4</ele>
        <time>2023-06-28T09:03:34Z</time>
      </trkpt>
      <trkpt lat="49.95288" lon="2.12543">
        <ele>13.4</ele>
        <time>2023-06-28T09:03:35Z</time>
      </trkpt>
      <trkpt lat="49.95288" lon="2.12543">
        <ele>13.4</ele>
        <time>2023-06-28T09:03:36Z</time>
      </trkpt>
      <trkpt lat="49.95288" lon="2.12543">
        <ele>13.4</ele>
        <time>2023-06-28T09:03:37Z</time>
      </trkpt>
      <trkpt lat="49.95288" lon="2.12543">
        <ele>13.4</ele>
        <time>2023-06-28T09:03:38Z</time>
      </trkpt>
      <trkpt lat="49.95288" lon="2.12543">
        <ele>13.4</ele>
        <time>2023-06-28T09:03:39Z</time>
      </trkpt>
      <trkpt lat="49.95288" lon="2.12543">
        <ele>13.4</ele>
        <time>2023-06-28T09:03:40Z</time>
      </trkpt>
      <trkpt lat="49.95288" lon="2.12542">
        <ele>13.4</ele>
        <time>2023-06-28T09:03:41Z</time>
      </trkpt>
      <trkpt lat="49.95288" lon="2.12542">
        <ele>13.4</ele>
        <time>2023-06-28T09:03:42Z</time>
      </trkpt>
      <trkpt lat="49.95288" lon="2.12542">
        <ele>13.4</ele>
        <time>2023-06-28T09:03:43Z</time>
      </trkpt>
      <trkpt lat="49.95288" lon="2.12542">
        <ele>13.4</ele>
        <time>2023-06-28T09:03:44Z</time>
      </trkpt>
      <trkpt lat="49.95288" lon="2.12542">
        <ele>13.4</ele>
        <time>2023-06-28T09:03:45Z</time>
      </trkpt>
      <trkpt lat="49.95288" lon="2.12542">
        <ele>13.4</ele>
        <time>2023-06-28T09:03:46Z</time>
      </trkpt>
      <trkpt lat="49.95288" lon="2.12542">
        <ele>13.4</ele>
        <time>2023-06-28T09:03:47Z</time>
      </trkpt>
      <trkpt lat="49.95288" lon="2.12542">
        <ele>13.4</ele>
        <time>2023-06-28T09:03:48Z</time>
      </trkpt>
      <trkpt lat="49.95288" lon="2.12542">
        <ele>13.4</ele>
        <time>2023-06-28T09:03:49Z</time>
      </trkpt>
      <trkpt lat="49.95288" lon="2.12542">
        <ele>13.4</ele>
        <time>2023-06-28T09:03:50Z</time>
      </trkpt>
      <trkpt lat="49.95288" lon="2.12542">
        <ele>13.4</ele>
        <time>2023-06-28T09:03:51Z</time>
      </trkpt>
      <trkpt lat="49.95288" lon="2.12542">
        <ele>13.4</ele>
        <time>2023-06-28T09:03:52Z</time>
      </trkpt>
      <trkpt lat="49.95288" lon="2.12542">
        <ele>13.4</ele>
        <time>2023-06-28T09:03:53Z</time>
      </trkpt>
      <trkpt lat="49.95288" lon="2.12542">
        <ele>13.4</ele>
        <time>2023-06-28T09:03:54Z</time>
      </trkpt>
      <trkpt lat="49.95288" lon="2.12542">
        <ele>13.4</ele>
        <time>2023-06-28T09:03:55Z</time>
      </trkpt>
      <trkpt lat="49.95288" lon="2.12542">
        <ele>13.4</ele>
        <time>2023-06-28T09:03:56Z</time>
      </trkpt>
      <trkpt lat="49.95288" lon="2.12542">
        <ele>13.4</ele>
        <time>2023-06-28T09:03:57Z</time>
      </trkpt>
      <trkpt lat="49.95288" lon="2.12542">
        <ele>13.4</ele>
        <time>2023-06-28T09:03:58Z</time>
      </trkpt>
      <trkpt lat="49.95288" lon="2.12542">
        <ele>13.4</ele>
        <time>2023-06-28T09:03:59Z</time>
      </trkpt>
      <trkpt lat="49.95288" lon="2.12542">
        <ele>13.4</ele>
        <time>2023-06-28T09:04:00Z</time>
      </trkpt>
      <trkpt lat="49.95288" lon="2.12542">
        <ele>13.4</ele>
        <time>2023-06-28T09:04:01Z</time>
      </trkpt>
      <trkpt lat="49.95288" lon="2.12542">
        <ele>13.4</ele>
        <time>2023-06-28T09:04:02Z</time>
      </trkpt>
      <trkpt lat="49.95288" lon="2.12542">
        <ele>13.4</ele>
        <time>2023-06-28T09:04:03Z</time>
      </trkpt>
      <trkpt lat="49.95288" lon="2.12542">
        <ele>13.4</ele>
        <time>2023-06-28T09:04:04Z</time>
      </trkpt>
      <trkpt lat="49.95288" lon="2.12542">
        <ele>13.4</ele>
        <time>2023-06-28T09:04:05Z</time>
      </trkpt>
      <trkpt lat="49.95288" lon="2.12542">
        <ele>13.4</ele>
        <time>2023-06-28T09:04:06Z</time>
      </trkpt>
      <trkpt lat="49.95288" lon="2.12542">
        <ele>13.4</ele>
        <time>2023-06-28T09:04:07Z</time>
      </trkpt>
      <trkpt lat="49.95288" lon="2.12542">
        <ele>13.4</ele>
        <time>2023-06-28T09:04:08Z</time>
      </trkpt>
      <trkpt lat="49.95288" lon="2.12542">
        <ele>13.4</ele>
        <time>2023-06-28T09:04:09Z</time>
      </trkpt>
      <trkpt lat="49.95288" lon="2.12542">
        <ele>13.4</ele>
        <time>2023-06-28T09:04:10Z</time>
      </trkpt>
      <trkpt lat="49.95288" lon="2.12542">
        <ele>13.4</ele>
        <time>2023-06-28T09:04:11Z</time>
      </trkpt>
      <trkpt lat="49.95288" lon="2.12542">
        <ele>13.4</ele>
        <time>2023-06-28T09:04:12Z</time>
      </trkpt>
      <trkpt lat="49.95288" lon="2.12542">
        <ele>13.4</ele>
        <time>2023-06-28T09:04:13Z</time>
      </trkpt>
      <trkpt lat="49.95288" lon="2.12542">
        <ele>13.4</ele>
        <time>2023-06-28T09:04:14Z</time>
      </trkpt>
      <trkpt lat="49.95288" lon="2.12542">
        <ele>13.4</ele>
        <time>2023-06-28T09:04:15Z</time>
      </trkpt>
      <trkpt lat="49.95288" lon="2.12542">
        <ele>13.4</ele>
        <time>2023-06-28T09:04:16Z</time>
      </trkpt>
      <trkpt lat="49.95288" lon="2.12542">
        <ele>13.4</ele>
        <time>2023-06-28T09:04:17Z</time>
      </trkpt>
      <trkpt lat="49.95288" lon="2.12542">
        <ele>13.4</ele>
        <time>2023-06-28T09:04:18Z</time>
      </trkpt>
      <trkpt lat="49.95288" lon="2.12542">
        <ele>13.4</ele>
        <time>2023-06-28T09:04:19Z</time>
      </trkpt>
      <trkpt lat="49.95288" lon="2.12542">
        <ele>13.4</ele>
        <time>2023-06-28T09:04:20Z</time>
      </trkpt>
      <trkpt lat="49.95288" lon="2.12542">
        <ele>13.4</ele>
        <time>2023-06-28T09:04:21Z</time>
      </trkpt>
      <trkpt lat="49.95288" lon="2.12542">
        <ele>13.4</ele>
        <time>2023-06-28T09:04:22Z</time>
      </trkpt>
      <trkpt lat="49.95288" lon="2.12542">
        <ele>13.4</ele>
        <time>2023-06-28T09:04:23Z</time>
      </trkpt>
      <trkpt lat="49.95288" lon="2.12542">
        <ele>13.4</ele>
        <time>2023-06-28T09:04:24Z</time>
      </trkpt>
      <trkpt lat="49.95288" lon="2.12542">
        <ele>13.4</ele>
        <time>2023-06-28T09:04:25Z</time>
      </trkpt>
      <trkpt lat="49.95288" lon="2.12542">
        <ele>13.4</ele>
        <time>2023-06-28T09:04:26Z</time>
      </trkpt>
      <trkpt lat="49.95288" lon="2.12542">
        <ele>13.4</ele>
        <time>2023-06-28T09:04:27Z</time>
      </trkpt>
      <trkpt lat="49.95288" lon="2.12542">
        <ele>13.4</ele>
        <time>2023-06-28T09:04:28Z</time>
      </trkpt>
      <trkpt lat="49.95288" lon="2.12542">
        <ele>13.4</ele>
        <time>2023-06-28T09:04:29Z</time>
      </trkpt>
      <trkpt lat="49.95288" lon="2.12542">
        <ele>13.4</ele>
        <time>2023-06-28T09:04:30Z</time>
      </trkpt>
      <trkpt lat="49.95288" lon="2.12542">
        <ele>13.4</ele>
        <time>2023-06-28T09:04:31Z</time>
      </trkpt>
      <trkpt lat="49.95288" lon="2.12542">
        <ele>13.4</ele>
        <time>2023-06-28T09:04:32Z</time>
      </trkpt>
      <trkpt lat="49.95288" lon="2.12542">
        <ele>13.4</ele>
        <time>2023-06-28T09:04:33Z</time>
      </trkpt>
      <trkpt lat="49.95288" lon="2.12542">
        <ele>13.4</ele>
        <time>2023-06-28T09:04:34Z</time>
      </trkpt>
      <trkpt lat="49.95288" lon="2.12542">
        <ele>13.4</ele>
        <time>2023-06-28T09:04:35Z</time>
      </trkpt>
      <trkpt lat="49.95288" lon="2.12542">
        <ele>13.4</ele>
        <time>2023-06-28T09:04:36Z</time>
      </trkpt>
      <trkpt lat="49.95288" lon="2.12542">
        <ele>13.4</ele>
        <time>2023-06-28T09:04:37Z</time>
      </trkpt>
      <trkpt lat="49.95288" lon="2.12542">
        <ele>13.4</ele>
        <time>2023-06-28T09:04:38Z</time>
      </trkpt>
      <trkpt lat="49.95288" lon="2.12542">
        <ele>13.4</ele>
        <time>2023-06-28T09:04:39Z</time>
      </trkpt>
      <trkpt lat="49.95288" lon="2.12542">
        <ele>13.4</ele>
        <time>2023-06-28T09:04:40Z</time>
      </trkpt>
      <trkpt lat="49.95288" lon="2.12542">
        <ele>13.4</ele>
        <time>2023-06-28T09:04:41Z</time>
      </trkpt>
      <trkpt lat="49.95288" lon="2.12542">
        <ele>13.4</ele>
        <time>2023-06-28T09:04:42Z</time>
      </trkpt>
      <trkpt lat="49.95288" lon="2.12542">
        <ele>13.4</ele>
        <time>2023-06-28T09:04:43Z</time>
      </trkpt>
      <trkpt lat="49.95288" lon="2.12542">
        <ele>13.4</ele>
        <time>2023-06-28T09:04:44Z</time>
      </trkpt>
      <trkpt lat="49.95288" lon="2.12542">
        <ele>13.4</ele>
        <time>2023-06-28T09:04:45Z</time>
      </trkpt>
      <trkpt lat="49.95288" lon="2.12542">
        <ele>13.4</ele>
        <time>2023-06-28T09:04:46Z</time>
      </trkpt>
      <trkpt lat="49.95288" lon="2.12542">
        <ele>13.4</ele>
        <time>2023-06-28T09:04:47Z</time>
      </trkpt>
      <trkpt lat="49.95288" lon="2.12542">
        <ele>13.4</ele>
        <time>2023-06-28T09:04:48Z</time>
      </trkpt>
      <trkpt lat="49.95288" lon="2.12542">
        <ele>13.4</ele>
        <time>2023-06-28T09:04:49Z</time>
      </trkpt>
      <trkpt lat="49.95288" lon="2.12542">
        <ele>13.4</ele>
        <time>2023-06-28T09:04:50Z</time>
      </trkpt>
      <trkpt lat="49.95288" lon="2.12542">
        <ele>13.4</ele>
        <time>2023-06-28T09:04:51Z</time>
      </trkpt>
      <trkpt lat="49.95288" lon="2.12542">
        <ele>13.4</ele>
        <time>2023-06-28T09:04:52Z</time>
      </trkpt>
      <trkpt lat="49.95288" lon="2.12542">
        <ele>13.4</ele>
        <time>2023-06-28T09:04:53Z</time>
      </trkpt>
      <trkpt lat="49.95288" lon="2.12542">
        <ele>13.4</ele>
        <time>2023-06-28T09:04:54Z</time>
      </trkpt>
      <trkpt lat="49.95288" lon="2.12542">
        <ele>13.4</ele>
        <time>2023-06-28T09:04:55Z</time>
      </trkpt>
      <trkpt lat="49.95288" lon="2.12542">
        <ele>13.4</ele>
        <time>2023-06-28T09:04:56Z</time>
      </trkpt>
      <trkpt lat="49.95288" lon="2.12542">
        <ele>13.4</ele>
        <time>2023-06-28T09:04:57Z</time>
      </trkpt>
      <trkpt lat="49.95288" lon="2.12542">
        <ele>13.4</ele>
        <time>2023-06-28T09:04:58Z</time>
      </trkpt>
      <trkpt lat="49.95288" lon="2.12542">
        <ele>13.4</ele>
        <time>2023-06-28T09:04:59Z</time>
      </trkpt>
      <trkpt lat="49.95288" lon="2.12542">
        <ele>13.4</ele>
        <time>2023-06-28T09:05:00Z</time>
      </trkpt>
      <trkpt lat="49.95288" lon="2.12542">
        <ele>13.4</ele>
        <time>2023-06-28T09:05:01Z</time>
      </trkpt>
      <trkpt lat="49.95288" lon="2.12543">
        <ele>13.4</ele>
        <time>2023-06-28T09:05:02Z</time>
      </trkpt>
      <trkpt lat="49.95289" lon="2.12543">
        <ele>13.4</ele>
        <time>2023-06-28T09:05:03Z</time>
      </trkpt>
      <trkpt lat="49.95289" lon="2.12544">
        <ele>13.4</ele>
        <time>2023-06-28T09:05:04Z</time>
      </trkpt>
      <trkpt lat="49.95289" lon="2.12544">
        <ele>13.4</ele>
        <time>2023-06-28T09:05:05Z</time>
      </trkpt>
      <trkpt lat="49.95289" lon="2.12544">
        <ele>13.4</ele>
        <time>2023-06-28T09:05:06Z</time>
      </trkpt>
      <trkpt lat="49.9529" lon="2.12545">
        <ele>13.4</ele>
        <time>2023-06-28T09:05:07Z</time>
      </trkpt>
      <trkpt lat="49.95289" lon="2.12546">
        <ele>13.4</ele>
        <time>2023-06-28T09:05:08Z</time>
      </trkpt>
      <trkpt lat="49.95289" lon="2.12547">
        <ele>13.4</ele>
        <time>2023-06-28T09:05:09Z</time>
      </trkpt>
      <trkpt lat="49.95289" lon="2.12548">
        <ele>13.4</ele>
        <time>2023-06-28T09:05:10Z</time>
      </trkpt>
      <trkpt lat="49.95288" lon="2.1255">
        <ele>13.4</ele>
        <time>2023-06-28T09:05:11Z</time>
      </trkpt>
      <trkpt lat="49.95287" lon="2.12552">
        <ele>13.4</ele>
        <time>2023-06-28T09:05:12Z</time>
      </trkpt>
      <trkpt lat="49.95286" lon="2.12554">
        <ele>13.4</ele>
        <time>2023-06-28T09:05:13Z</time>
      </trkpt>
      <trkpt lat="49.95286" lon="2.12555">
        <ele>13.4</ele>
        <time>2023-06-28T09:05:14Z</time>
      </trkpt>
      <trkpt lat="49.95286" lon="2.12557">
        <ele>13.4</ele>
        <time>2023-06-28T09:05:15Z</time>
      </trkpt>
      <trkpt lat="49.95286" lon="2.12558">
        <ele>13.4</ele>
        <time>2023-06-28T09:05:16Z</time>
      </trkpt>
      <trkpt lat="49.95286" lon="2.12559">
        <ele>13.4</ele>
        <time>2023-06-28T09:05:17Z</time>
      </trkpt>
      <trkpt lat="49.95286" lon="2.12561">
        <ele>13.4</ele>
        <time>2023-06-28T09:05:18Z</time>
      </trkpt>
      <trkpt lat="49.95286" lon="2.12562">
        <ele>13.4</ele>
        <time>2023-06-28T09:05:19Z</time>
      </trkpt>
      <trkpt lat="49.95286" lon="2.12565">
        <ele>13.4</ele>
        <time>2023-06-28T09:05:20Z</time>
      </trkpt>
      <trkpt lat="49.95286" lon="2.12567">
        <ele>13.4</ele>
        <time>2023-06-28T09:05:21Z</time>
      </trkpt>
      <trkpt lat="49.95285" lon="2.12568">
        <ele>13.4</ele>
        <time>2023-06-28T09:05:22Z</time>
      </trkpt>
      <trkpt lat="49.95285" lon="2.1257">
        <ele>13.4</ele>
        <time>2023-06-28T09:05:23Z</time>
      </trkpt>
      <trkpt lat="49.95285" lon="2.12571">
        <ele>13.4</ele>
        <time>2023-06-28T09:05:24Z</time>
      </trkpt>
      <trkpt lat="49.95284" lon="2.12572">
        <ele>13.4</ele>
        <time>2023-06-28T09:05:25Z</time>
      </trkpt>
      <trkpt lat="49.95284" lon="2.12573">
        <ele>13.4</ele>
        <time>2023-06-28T09:05:26Z</time>
      </trkpt>
      <trkpt lat="49.95284" lon="2.12573">
        <ele>13.4</ele>
        <time>2023-06-28T09:05:27Z</time>
      </trkpt>
      <trkpt lat="49.95284" lon="2.12574">
        <ele>13.4</ele>
        <time>2023-06-28T09:05:28Z</time>
      </trkpt>
      <trkpt lat="49.95284" lon="2.12575">
        <ele>13.4</ele>
        <time>2023-06-28T09:05:29Z</time>
      </trkpt>
      <trkpt lat="49.95283" lon="2.12576">
        <ele>13.4</ele>
        <time>2023-06-28T09:05:30Z</time>
      </trkpt>
      <trkpt lat="49.95283" lon="2.12577">
        <ele>13.4</ele>
        <time>2023-06-28T09:05:31Z</time>
      </trkpt>
      <trkpt lat="49.95282" lon="2.1258">
        <ele>13.3</ele>
        <time>2023-06-28T09:05:32Z</time>
      </trkpt>
      <trkpt lat="49.95281" lon="2.12582">
        <ele>13.3</ele>
        <time>2023-06-28T09:05:33Z</time>
      </trkpt>
      <trkpt lat="49.9528" lon="2.12586">
        <ele>13.3</ele>
        <time>2023-06-28T09:05:34Z</time>
      </trkpt>
      <trkpt lat="49.9528" lon="2.12587">
        <ele>13.3</ele>
        <time>2023-06-28T09:05:35Z</time>
      </trkpt>
      <trkpt lat="49.95279" lon="2.1259">
        <ele>13.3</ele>
        <time>2023-06-28T09:05:36Z</time>
      </trkpt>
      <trkpt lat="49.95278" lon="2.12592">
        <ele>13.3</ele>
        <time>2023-06-28T09:05:37Z</time>
      </trkpt>
      <trkpt lat="49.95277" lon="2.12594">
        <ele>13.3</ele>
        <time>2023-06-28T09:05:38Z</time>
      </trkpt>
      <trkpt lat="49.95276" lon="2.12596">
        <ele>13.3</ele>
        <time>2023-06-28T09:05:39Z</time>
      </trkpt>
      <trkpt lat="49.95276" lon="2.12597">
        <ele>13.3</ele>
        <time>2023-06-28T09:05:40Z</time>
      </trkpt>
      <trkpt lat="49.95275" lon="2.12598">
        <ele>13.3</ele>
        <time>2023-06-28T09:05:41Z</time>
      </trkpt>
      <trkpt lat="49.95274" lon="2.126">
        <ele>13.3</ele>
        <time>2023-06-28T09:05:42Z</time>
      </trkpt>
      <trkpt lat="49.95274" lon="2.12602">
        <ele>13.3</ele>
        <time>2023-06-28T09:05:43Z</time>
      </trkpt>
      <trkpt lat="49.95273" lon="2.12603">
        <ele>13.3</ele>
        <time>2023-06-28T09:05:44Z</time>
      </trkpt>
      <trkpt lat="49.95272" lon="2.12604">
        <ele>13.3</ele>
        <time>2023-06-28T09:05:45Z</time>
      </trkpt>
      <trkpt lat="49.95271" lon="2.12605">
        <ele>13.3</ele>
        <time>2023-06-28T09:05:46Z</time>
      </trkpt>
      <trkpt lat="49.9527" lon="2.12606">
        <ele>13.3</ele>
        <time>2023-06-28T09:05:47Z</time>
      </trkpt>
      <trkpt lat="49.95269" lon="2.12606">
        <ele>13.3</ele>
        <time>2023-06-28T09:05:48Z</time>
      </trkpt>
      <trkpt lat="49.95268" lon="2.12606">
        <ele>13.3</ele>
        <time>2023-06-28T09:05:49Z</time>
      </trkpt>
      <trkpt lat="49.95266" lon="2.12606">
        <ele>13.3</ele>
        <time>2023-06-28T09:05:50Z</time>
      </trkpt>
      <trkpt lat="49.95265" lon="2.12606">
        <ele>13.3</ele>
        <time>2023-06-28T09:05:51Z</time>
      </trkpt>
      <trkpt lat="49.95264" lon="2.12606">
        <ele>13.3</ele>
        <time>2023-06-28T09:05:52Z</time>
      </trkpt>
      <trkpt lat="49.95263" lon="2.12607">
        <ele>13.3</ele>
        <time>2023-06-28T09:05:53Z</time>
      </trkpt>
      <trkpt lat="49.95262" lon="2.12609">
        <ele>13.3</ele>
        <time>2023-06-28T09:05:54Z</time>
      </trkpt>
      <trkpt lat="49.95261" lon="2.12611">
        <ele>13.3</ele>
        <time>2023-06-28T09:05:55Z</time>
      </trkpt>
      <trkpt lat="49.9526" lon="2.12613">
        <ele>13.3</ele>
        <time>2023-06-28T09:05:56Z</time>
      </trkpt>
      <trkpt lat="49.95259" lon="2.12614">
        <ele>13.3</ele>
        <time>2023-06-28T09:05:57Z</time>
      </trkpt>
      <trkpt lat="49.95259" lon="2.12615">
        <ele>13.3</ele>
        <time>2023-06-28T09:05:58Z</time>
      </trkpt>
      <trkpt lat="49.95258" lon="2.12617">
        <ele>13.3</ele>
        <time>2023-06-28T09:05:59Z</time>
      </trkpt>
      <trkpt lat="49.95257" lon="2.12618">
        <ele>13.3</ele>
        <time>2023-06-28T09:06:00Z</time>
      </trkpt>
      <trkpt lat="49.95257" lon="2.12619">
        <ele>13.3</ele>
        <time>2023-06-28T09:06:01Z</time>
      </trkpt>
      <trkpt lat="49.95256" lon="2.12621">
        <ele>13.3</ele>
        <time>2023-06-28T09:06:02Z</time>
      </trkpt>
      <trkpt lat="49.95255" lon="2.12622">
        <ele>13.3</ele>
        <time>2023-06-28T09:06:03Z</time>
      </trkpt>
      <trkpt lat="49.95255" lon="2.12622">
        <ele>13.3</ele>
        <time>2023-06-28T09:06:04Z</time>
      </trkpt>
      <trkpt lat="49.95253" lon="2.12624">
        <ele>13.3</ele>
        <time>2023-06-28T09:06:05Z</time>
      </trkpt>
      <trkpt lat="49.95253" lon="2.12625">
        <ele>13.3</ele>
        <time>2023-06-28T09:06:06Z</time>
      </trkpt>
      <trkpt lat="49.95252" lon="2.12626">
        <ele>13.3</ele>
        <time>2023-06-28T09:06:07Z</time>
      </trkpt>
      <trkpt lat="49.95252" lon="2.12626">
        <ele>13.3</ele>
        <time>2023-06-28T09:06:08Z</time>
      </trkpt>
      <trkpt lat="49.95251" lon="2.12627">
        <ele>13.3</ele>
        <time>2023-06-28T09:06:09Z</time>
      </trkpt>
      <trkpt lat="49.95251" lon="2.12628">
        <ele>13.3</ele>
        <time>2023-06-28T09:06:10Z</time>
      </trkpt>
      <trkpt lat="49.9525" lon="2.12628">
        <ele>13.3</ele>
        <time>2023-06-28T09:06:11Z</time>
      </trkpt>
      <trkpt lat="49.95249" lon="2.12628">
        <ele>13.3</ele>
        <time>2023-06-28T09:06:12Z</time>
      </trkpt>
      <trkpt lat="49.95248" lon="2.12629">
        <ele>13.3</ele>
        <time>2023-06-28T09:06:13Z</time>
      </trkpt>
      <trkpt lat="49.95247" lon="2.12629">
        <ele>13.3</ele>
        <time>2023-06-28T09:06:14Z</time>
      </trkpt>
      <trkpt lat="49.95246" lon="2.1263">
        <ele>13.3</ele>
        <time>2023-06-28T09:06:15Z</time>
      </trkpt>
      <trkpt lat="49.95245" lon="2.12631">
        <ele>13.3</ele>
        <time>2023-06-28T09:06:16Z</time>
      </trkpt>
      <trkpt lat="49.95244" lon="2.12632">
        <ele>13.3</ele>
        <time>2023-06-28T09:06:17Z</time>
      </trkpt>
      <trkpt lat="49.95244" lon="2.12633">
        <ele>13.3</ele>
        <time>2023-06-28T09:06:18Z</time>
      </trkpt>
      <trkpt lat="49.95243" lon="2.12634">
        <ele>13.3</ele>
        <time>2023-06-28T09:06:19Z</time>
      </trkpt>
      <trkpt lat="49.95243" lon="2.12635">
        <ele>13.3</ele>
        <time>2023-06-28T09:06:20Z</time>
      </trkpt>
      <trkpt lat="49.95243" lon="2.12636">
        <ele>13.3</ele>
        <time>2023-06-28T09:06:21Z</time>
      </trkpt>
      <trkpt lat="49.95243" lon="2.12637">
        <ele>13.3</ele>
        <time>2023-06-28T09:06:22Z</time>
      </trkpt>
      <trkpt lat="49.95243" lon="2.12638">
        <ele>13.3</ele>
        <time>2023-06-28T09:06:23Z</time>
      </trkpt>
      <trkpt lat="49.95242" lon="2.12639">
        <ele>13.3</ele>
        <time>2023-06-28T09:06:24Z</time>
      </trkpt>
      <trkpt lat="49.95242" lon="2.1264">
        <ele>13.3</ele>
        <time>2023-06-28T09:06:25Z</time>
      </trkpt>
      <trkpt lat="49.95242" lon="2.12641">
        <ele>13.3</ele>
        <time>2023-06-28T09:06:26Z</time>
      </trkpt>
      <trkpt lat="49.95241" lon="2.12642">
        <ele>13.3</ele>
        <time>2023-06-28T09:06:27Z</time>
      </trkpt>
      <trkpt lat="49.95241" lon="2.12643">
        <ele>13.3</ele>
        <time>2023-06-28T09:06:28Z</time>
      </trkpt>
      <trkpt lat="49.95241" lon="2.12643">
        <ele>13.3</ele>
        <time>2023-06-28T09:06:29Z</time>
      </trkpt>
      <trkpt lat="49.9524" lon="2.12643">
        <ele>13.3</ele>
        <time>2023-06-28T09:06:30Z</time>
      </trkpt>
      <trkpt lat="49.9524" lon="2.12644">
        <ele>13.3</ele>
        <time>2023-06-28T09:06:31Z</time>
      </trkpt>
      <trkpt lat="49.95239" lon="2.12645">
        <ele>13.3</ele>
        <time>2023-06-28T09:06:32Z</time>
      </trkpt>
      <trkpt lat="49.95239" lon="2.12645">
        <ele>13.3</ele>
        <time>2023-06-28T09:06:33Z</time>
      </trkpt>
      <trkpt lat="49.95238" lon="2.12646">
        <ele>13.3</ele>
        <time>2023-06-28T09:06:34Z</time>
      </trkpt>
      <trkpt lat="49.95238" lon="2.12647">
        <ele>13.3</ele>
        <time>2023-06-28T09:06:35Z</time>
      </trkpt>
      <trkpt lat="49.95237" lon="2.1265">
        <ele>13.3</ele>
        <time>2023-06-28T09:06:36Z</time>
      </trkpt>
      <trkpt lat="49.95236" lon="2.12651">
        <ele>13.3</ele>
        <time>2023-06-28T09:06:37Z</time>
      </trkpt>
      <trkpt lat="49.95236" lon="2.12652">
        <ele>13.3</ele>
        <time>2023-06-28T09:06:38Z</time>
      </trkpt>
      <trkpt lat="49.95235" lon="2.12654">
        <ele>13.3</ele>
        <time>2023-06-28T09:06:39Z</time>
      </trkpt>
      <trkpt lat="49.95234" lon="2.12656">
        <ele>13.3</ele>
        <time>2023-06-28T09:06:40Z</time>
      </trkpt>
      <trkpt lat="49.95234" lon="2.12658">
        <ele>13.3</ele>
        <time>2023-06-28T09:06:41Z</time>
      </trkpt>
      <trkpt lat="49.95233" lon="2.1266">
        <ele>13.3</ele>
        <time>2023-06-28T09:06:42Z</time>
      </trkpt>
      <trkpt lat="49.95232" lon="2.12662">
        <ele>13.3</ele>
        <time>2023-06-28T09:06:43Z</time>
      </trkpt>
      <trkpt lat="49.95232" lon="2.12665">
        <ele>13.3</ele>
        <time>2023-06-28T09:06:44Z</time>
      </trkpt>
      <trkpt lat="49.95231" lon="2.12667">
        <ele>13.3</ele>
        <time>2023-06-28T09:06:45Z</time>
      </trkpt>
      <trkpt lat="49.95231" lon="2.12669">
        <ele>13.3</ele>
        <time>2023-06-28T09:06:46Z</time>
      </trkpt>
      <trkpt lat="49.9523" lon="2.12671">
        <ele>13.3</ele>
        <time>2023-06-28T09:06:47Z</time>
      </trkpt>
      <trkpt lat="49.9523" lon="2.12673">
        <ele>13.2</ele>
        <time>2023-06-28T09:06:48Z</time>
      </trkpt>
      <trkpt lat="49.95229" lon="2.12675">
        <ele>13.2</ele>
        <time>2023-06-28T09:06:49Z</time>
      </trkpt>
      <trkpt lat="49.95228" lon="2.12677">
        <ele>13.2</ele>
        <time>2023-06-28T09:06:50Z</time>
      </trkpt>
      <trkpt lat="49.95228" lon="2.12679">
        <ele>13.2</ele>
        <time>2023-06-28T09:06:51Z</time>
      </trkpt>
      <trkpt lat="49.95227" lon="2.12681">
        <ele>13.2</ele>
        <time>2023-06-28T09:06:52Z</time>
      </trkpt>
      <trkpt lat="49.95226" lon="2.12682">
        <ele>13.2</ele>
        <time>2023-06-28T09:06:53Z</time>
      </trkpt>
      <trkpt lat="49.95226" lon="2.12684">
        <ele>13.2</ele>
        <time>2023-06-28T09:06:54Z</time>
      </trkpt>
      <trkpt lat="49.95225" lon="2.12685">
        <ele>13.2</ele>
        <time>2023-06-28T09:06:55Z</time>
      </trkpt>
      <trkpt lat="49.95225" lon="2.12686">
        <ele>13.2</ele>
        <time>2023-06-28T09:06:56Z</time>
      </trkpt>
      <trkpt lat="49.95224" lon="2.12687">
        <ele>13.2</ele>
        <time>2023-06-28T09:06:57Z</time>
      </trkpt>
      <trkpt lat="49.95224" lon="2.12688">
        <ele>13.2</ele>
        <time>2023-06-28T09:06:58Z</time>
      </trkpt>
      <trkpt lat="49.95223" lon="2.12688">
        <ele>13.2</ele>
        <time>2023-06-28T09:06:59Z</time>
      </trkpt>
      <trkpt lat="49.95222" lon="2.12689">
        <ele>13.2</ele>
        <time>2023-06-28T09:07:00Z</time>
      </trkpt>
      <trkpt lat="49.95222" lon="2.12689">
        <ele>13.2</ele>
        <time>2023-06-28T09:07:01Z</time>
      </trkpt>
      <trkpt lat="49.95221" lon="2.12689">
        <ele>13.2</ele>
        <time>2023-06-28T09:07:02Z</time>
      </trkpt>
      <trkpt lat="49.95221" lon="2.12689">
        <ele>13.2</ele>
        <time>2023-06-28T09:07:03Z</time>
      </trkpt>
      <trkpt lat="49.9522" lon="2.1269">
        <ele>13.2</ele>
        <time>2023-06-28T09:07:04Z</time>
      </trkpt>
      <trkpt lat="49.95219" lon="2.12692">
        <ele>13.2</ele>
        <time>2023-06-28T09:07:05Z</time>
      </trkpt>
      <trkpt lat="49.95219" lon="2.12693">
        <ele>13.2</ele>
        <time>2023-06-28T09:07:06Z</time>
      </trkpt>
      <trkpt lat="49.95218" lon="2.12694">
        <ele>13.2</ele>
        <time>2023-06-28T09:07:07Z</time>
      </trkpt>
      <trkpt lat="49.95218" lon="2.12695">
        <ele>13.2</ele>
        <time>2023-06-28T09:07:08Z</time>
      </trkpt>
      <trkpt lat="49.95218" lon="2.12697">
        <ele>13.2</ele>
        <time>2023-06-28T09:07:09Z</time>
      </trkpt>
      <trkpt lat="49.95217" lon="2.12698">
        <ele>13.2</ele>
        <time>2023-06-28T09:07:10Z</time>
      </trkpt>
      <trkpt lat="49.95217" lon="2.127">
        <ele>13.2</ele>
        <time>2023-06-28T09:07:11Z</time>
      </trkpt>
      <trkpt lat="49.95216" lon="2.12703">
        <ele>13.2</ele>
        <time>2023-06-28T09:07:12Z</time>
      </trkpt>
      <trkpt lat="49.95215" lon="2.12704">
        <ele>13.2</ele>
        <time>2023-06-28T09:07:13Z</time>
      </trkpt>
      <trkpt lat="49.95215" lon="2.12706">
        <ele>13.2</ele>
        <time>2023-06-28T09:07:14Z</time>
      </trkpt>
      <trkpt lat="49.95214" lon="2.12708">
        <ele>13.2</ele>
        <time>2023-06-28T09:07:15Z</time>
      </trkpt>
      <trkpt lat="49.95214" lon="2.1271">
        <ele>13.2</ele>
        <time>2023-06-28T09:07:16Z</time>
      </trkpt>
      <trkpt lat="49.95213" lon="2.12712">
        <ele>13.2</ele>
        <time>2023-06-28T09:07:17Z</time>
      </trkpt>
      <trkpt lat="49.95213" lon="2.12714">
        <ele>13.2</ele>
        <time>2023-06-28T09:07:18Z</time>
      </trkpt>
      <trkpt lat="49.95212" lon="2.12716">
        <ele>13.2</ele>
        <time>2023-06-28T09:07:19Z</time>
      </trkpt>
      <trkpt lat="49.95212" lon="2.12717">
        <ele>13.2</ele>
        <time>2023-06-28T09:07:20Z</time>
      </trkpt>
      <trkpt lat="49.95211" lon="2.12719">
        <ele>13.2</ele>
        <time>2023-06-28T09:07:21Z</time>
      </trkpt>
      <trkpt lat="49.9521" lon="2.12722">
        <ele>13.2</ele>
        <time>2023-06-28T09:07:22Z</time>
      </trkpt>
      <trkpt lat="49.9521" lon="2.12723">
        <ele>13.2</ele>
        <time>2023-06-28T09:07:23Z</time>
      </trkpt>
      <trkpt lat="49.95209" lon="2.12724">
        <ele>13.2</ele>
        <time>2023-06-28T09:07:24Z</time>
      </trkpt>
      <trkpt lat="49.95208" lon="2.12725">
        <ele>13.2</ele>
        <time>2023-06-28T09:07:25Z</time>
      </trkpt>
      <trkpt lat="49.95208" lon="2.12727">
        <ele>13.2</ele>
        <time>2023-06-28T09:07:26Z</time>
      </trkpt>
      <trkpt lat="49.95207" lon="2.12728">
        <ele>13.2</ele>
        <time>2023-06-28T09:07:27Z</time>
      </trkpt>
      <trkpt lat="49.95206" lon="2.12729">
        <ele>13.2</ele>
        <time>2023-06-28T09:07:28Z</time>
      </trkpt>
      <trkpt lat="49.95205" lon="2.12731">
        <ele>13.2</ele>
        <time>2023-06-28T09:07:29Z</time>
      </trkpt>
      <trkpt lat="49.95205" lon="2.12732">
        <ele>13.2</ele>
        <time>2023-06-28T09:07:30Z</time>
      </trkpt>
      <trkpt lat="49.95204" lon="2.12733">
        <ele>13.2</ele>
        <time>2023-06-28T09:07:31Z</time>
      </trkpt>
      <trkpt lat="49.95203" lon="2.12734">
        <ele>13.2</ele>
        <time>2023-06-28T09:07:32Z</time>
      </trkpt>
      <trkpt lat="49.95203" lon="2.12735">
        <ele>13.2</ele>
        <time>2023-06-28T09:07:33Z</time>
      </trkpt>
      <trkpt lat="49.95202" lon="2.12736">
        <ele>13.2</ele>
        <time>2023-06-28T09:07:34Z</time>
      </trkpt>
      <trkpt lat="49.95201" lon="2.12737">
        <ele>13.2</ele>
        <time>2023-06-28T09:07:35Z</time>
      </trkpt>
      <trkpt lat="49.95201" lon="2.12738">
        <ele>13.2</ele>
        <time>2023-06-28T09:07:36Z</time>
      </trkpt>
      <trkpt lat="49.952" lon="2.12739">
        <ele>13.2</ele>
        <time>2023-06-28T09:07:37Z</time>
      </trkpt>
      <trkpt lat="49.95199" lon="2.1274">
        <ele>13.2</ele>
        <time>2023-06-28T09:07:38Z</time>
      </trkpt>
      <trkpt lat="49.95199" lon="2.12742">
        <ele>13.2</ele>
        <time>2023-06-28T09:07:39Z</time>
      </trkpt>
      <trkpt lat="49.95198" lon="2.12743">
        <ele>13.2</ele>
        <time>2023-06-28T09:07:40Z</time>
      </trkpt>
      <trkpt lat="49.95197" lon="2.12744">
        <ele>13.2</ele>
        <time>2023-06-28T09:07:41Z</time>
      </trkpt>
      <trkpt lat="49.95197" lon="2.12745">
        <ele>13.2</ele>
        <time>2023-06-28T09:07:42Z</time>
      </trkpt>
      <trkpt lat="49.95196" lon="2.12746">
        <ele>13.2</ele>
        <time>2023-06-28T09:07:43Z</time>
      </trkpt>
      <trkpt lat="49.95196" lon="2.12747">
        <ele>13.2</ele>
        <time>2023-06-28T09:07:44Z</time>
      </trkpt>
      <trkpt lat="49.95195" lon="2.12749">
        <ele>13.2</ele>
        <time>2023-06-28T09:07:45Z</time>
      </trkpt>
      <trkpt lat="49.95195" lon="2.1275">
        <ele>13.2</ele>
        <time>2023-06-28T09:07:46Z</time>
      </trkpt>
      <trkpt lat="49.95195" lon="2.12752">
        <ele>13.2</ele>
        <time>2023-06-28T09:07:47Z</time>
      </trkpt>
      <trkpt lat="49.95194" lon="2.12753">
        <ele>13.2</ele>
        <time>2023-06-28T09:07:48Z</time>
      </trkpt>
      <trkpt lat="49.95193" lon="2.12755">
        <ele>13.2</ele>
        <time>2023-06-28T09:07:49Z</time>
      </trkpt>
      <trkpt lat="49.95193" lon="2.12757">
        <ele>13.2</ele>
        <time>2023-06-28T09:07:50Z</time>
      </trkpt>
      <trkpt lat="49.95192" lon="2.12759">
        <ele>13.2</ele>
        <time>2023-06-28T09:07:51Z</time>
      </trkpt>
      <trkpt lat="49.95191" lon="2.12761">
        <ele>13.2</ele>
        <time>2023-06-28T09:07:52Z</time>
      </trkpt>
      <trkpt lat="49.9519" lon="2.12763">
        <ele>13.2</ele>
        <time>2023-06-28T09:07:53Z</time>
      </trkpt>
      <trkpt lat="49.9519" lon="2.12765">
        <ele>13.2</ele>
        <time>2023-06-28T09:07:54Z</time>
      </trkpt>
      <trkpt lat="49.95189" lon="2.12768">
        <ele>13.2</ele>
        <time>2023-06-28T09:07:55Z</time>
      </trkpt>
      <trkpt lat="49.95188" lon="2.1277">
        <ele>13.2</ele>
        <time>2023-06-28T09:07:56Z</time>
      </trkpt>
      <trkpt lat="49.95187" lon="2.12772">
        <ele>13.2</ele>
        <time>2023-06-28T09:07:57Z</time>
      </trkpt>
      <trkpt lat="49.95187" lon="2.12774">
        <ele>13.2</ele>
        <time>2023-06-28T09:07:58Z</time>
      </trkpt>
      <trkpt lat="49.95186" lon="2.12776">
        <ele>13.2</ele>
        <time>2023-06-28T09:07:59Z</time>
      </trkpt>
      <trkpt lat="49.95186" lon="2.12778">
        <ele>13.2</ele>
        <time>2023-06-28T09:08:00Z</time>
      </trkpt>
      <trkpt lat="49.95185" lon="2.12779">
        <ele>13.2</ele>
        <time>2023-06-28T09:08:01Z</time>
      </trkpt>
      <trkpt lat="49.95185" lon="2.12781">
        <ele>13.2</ele>
        <time>2023-06-28T09:08:02Z</time>
      </trkpt>
      <trkpt lat="49.95185" lon="2.12782">
        <ele>13.2</ele>
        <time>2023-06-28T09:08:03Z</time>
      </trkpt>
      <trkpt lat="49.95184" lon="2.12784">
        <ele>13.2</ele>
        <time>2023-06-28T09:08:04Z</time>
      </trkpt>
      <trkpt lat="49.95184" lon="2.12787">
        <ele>13.2</ele>
        <time>2023-06-28T09:08:05Z</time>
      </trkpt>
      <trkpt lat="49.95184" lon="2.12788">
        <ele>13.2</ele>
        <time>2023-06-28T09:08:06Z</time>
      </trkpt>
      <trkpt lat="49.95184" lon="2.12789">
        <ele>13.2</ele>
        <time>2023-06-28T09:08:07Z</time>
      </trkpt>
      <trkpt lat="49.95183" lon="2.12792">
        <ele>13.2</ele>
        <time>2023-06-28T09:08:08Z</time>
      </trkpt>
      <trkpt lat="49.95183" lon="2.12794">
        <ele>13.2</ele>
        <time>2023-06-28T09:08:09Z</time>
      </trkpt>
      <trkpt lat="49.95183" lon="2.12795">
        <ele>13.3</ele>
        <time>2023-06-28T09:08:10Z</time>
      </trkpt>
      <trkpt lat="49.95183" lon="2.12799">
        <ele>13.3</ele>
        <time>2023-06-28T09:08:11Z</time>
      </trkpt>
      <trkpt lat="49.95183" lon="2.128">
        <ele>13.3</ele>
        <time>2023-06-28T09:08:12Z</time>
      </trkpt>
      <trkpt lat="49.95182" lon="2.12801">
        <ele>13.3</ele>
        <time>2023-06-28T09:08:13Z</time>
      </trkpt>
      <trkpt lat="49.95182" lon="2.12803">
        <ele>13.3</ele>
        <time>2023-06-28T09:08:14Z</time>
      </trkpt>
      <trkpt lat="49.95182" lon="2.12804">
        <ele>13.3</ele>
        <time>2023-06-28T09:08:15Z</time>
      </trkpt>
      <trkpt lat="49.95182" lon="2.12806">
        <ele>13.3</ele>
        <time>2023-06-28T09:08:16Z</time>
      </trkpt>
      <trkpt lat="49.95181" lon="2.12808">
        <ele>13.3</ele>
        <time>2023-06-28T09:08:17Z</time>
      </trkpt>
      <trkpt lat="49.95181" lon="2.12809">
        <ele>13.3</ele>
        <time>2023-06-28T09:08:18Z</time>
      </trkpt>
      <trkpt lat="49.95181" lon="2.1281">
        <ele>13.3</ele>
        <time>2023-06-28T09:08:19Z</time>
      </trkpt>
      <trkpt lat="49.95181" lon="2.12811">
        <ele>13.3</ele>
        <time>2023-06-28T09:08:20Z</time>
      </trkpt>
      <trkpt lat="49.9518" lon="2.12812">
        <ele>13.3</ele>
        <time>2023-06-28T09:08:21Z</time>
      </trkpt>
      <trkpt lat="49.9518" lon="2.12814">
        <ele>13.3</ele>
        <time>2023-06-28T09:08:22Z</time>
      </trkpt>
      <trkpt lat="49.9518" lon="2.12815">
        <ele>13.3</ele>
        <time>2023-06-28T09:08:23Z</time>
      </trkpt>
      <trkpt lat="49.9518" lon="2.12816">
        <ele>13.3</ele>
        <time>2023-06-28T09:08:24Z</time>
      </trkpt>
      <trkpt lat="49.95179" lon="2.12818">
        <ele>13.3</ele>
        <time>2023-06-28T09:08:25Z</time>
      </trkpt>
      <trkpt lat="49.95179" lon="2.12819">
        <ele>13.3</ele>
        <time>2023-06-28T09:08:26Z</time>
      </trkpt>
      <trkpt lat="49.95179" lon="2.1282">
        <ele>13.3</ele>
        <time>2023-06-28T09:08:27Z</time>
      </trkpt>
      <trkpt lat="49.95179" lon="2.12822">
        <ele>13.3</ele>
        <time>2023-06-28T09:08:28Z</time>
      </trkpt>
      <trkpt lat="49.95179" lon="2.12823">
        <ele>13.3</ele>
        <time>2023-06-28T09:08:29Z</time>
      </trkpt>
      <trkpt lat="49.95179" lon="2.12825">
        <ele>13.3</ele>
        <time>2023-06-28T09:08:30Z</time>
      </trkpt>
      <trkpt lat="49.95178" lon="2.12826">
        <ele>13.3</ele>
        <time>2023-06-28T09:08:31Z</time>
      </trkpt>
      <trkpt lat="49.95178" lon="2.12828">
        <ele>13.3</ele>
        <time>2023-06-28T09:08:32Z</time>
      </trkpt>
      <trkpt lat="49.95178" lon="2.12829">
        <ele>13.3</ele>
        <time>2023-06-28T09:08:33Z</time>
      </trkpt>
      <trkpt lat="49.95178" lon="2.12833">
        <ele>13.3</ele>
        <time>2023-06-28T09:08:34Z</time>
      </trkpt>
      <trkpt lat="49.95178" lon="2.12834">
        <ele>13.3</ele>
        <time>2023-06-28T09:08:35Z</time>
      </trkpt>
      <trkpt lat="49.95178" lon="2.12835">
        <ele>13.3</ele>
        <time>2023-06-28T09:08:36Z</time>
      </trkpt>
      <trkpt lat="49.95177" lon="2.12837">
        <ele>13.3</ele>
        <time>2023-06-28T09:08:37Z</time>
      </trkpt>
      <trkpt lat="49.95177" lon="2.12839">
        <ele>13.3</ele>
        <time>2023-06-28T09:08:38Z</time>
      </trkpt>
      <trkpt lat="49.95177" lon="2.12841">
        <ele>13.3</ele>
        <time>2023-06-28T09:08:39Z</time>
      </trkpt>
      <trkpt lat="49.95177" lon="2.12843">
        <ele>13.3</ele>
        <time>2023-06-28T09:08:40Z</time>
      </trkpt>
      <trkpt lat="49.95177" lon="2.12844">
        <ele>13.3</ele>
        <time>2023-06-28T09:08:41Z</time>
      </trkpt>
      <trkpt lat="49.95177" lon="2.12846">
        <ele>13.3</ele>
        <time>2023-06-28T09:08:42Z</time>
      </trkpt>
      <trkpt lat="49.95177" lon="2.12848">
        <ele>13.3</ele>
        <time>2023-06-28T09:08:43Z</time>
      </trkpt>
      <trkpt lat="49.95176" lon="2.12849">
        <ele>13.3</ele>
        <time>2023-06-28T09:08:44Z</time>
      </trkpt>
      <trkpt lat="49.95176" lon="2.12851">
        <ele>13.3</ele>
        <time>2023-06-28T09:08:45Z</time>
      </trkpt>
      <trkpt lat="49.95175" lon="2.12853">
        <ele>13.3</ele>
        <time>2023-06-28T09:08:46Z</time>
      </trkpt>
      <trkpt lat="49.95175" lon="2.12854">
        <ele>13.3</ele>
        <time>2023-06-28T09:08:47Z</time>
      </trkpt>
      <trkpt lat="49.95174" lon="2.12856">
        <ele>13.3</ele>
        <time>2023-06-28T09:08:48Z</time>
      </trkpt>
      <trkpt lat="49.95173" lon="2.12859">
        <ele>13.3</ele>
        <time>2023-06-28T09:08:49Z</time>
      </trkpt>
      <trkpt lat="49.95173" lon="2.1286">
        <ele>13.3</ele>
        <time>2023-06-28T09:08:50Z</time>
      </trkpt>
      <trkpt lat="49.95172" lon="2.12861">
        <ele>13.3</ele>
        <time>2023-06-28T09:08:51Z</time>
      </trkpt>
      <trkpt lat="49.95172" lon="2.12863">
        <ele>13.3</ele>
        <time>2023-06-28T09:08:52Z</time>
      </trkpt>
      <trkpt lat="49.95171" lon="2.12864">
        <ele>13.3</ele>
        <time>2023-06-28T09:08:53Z</time>
      </trkpt>
      <trkpt lat="49.95171" lon="2.12866">
        <ele>13.3</ele>
        <time>2023-06-28T09:08:54Z</time>
      </trkpt>
      <trkpt lat="49.95171" lon="2.12867">
        <ele>13.3</ele>
        <time>2023-06-28T09:08:55Z</time>
      </trkpt>
      <trkpt lat="49.9517" lon="2.12869">
        <ele>13.3</ele>
        <time>2023-06-28T09:08:56Z</time>
      </trkpt>
      <trkpt lat="49.9517" lon="2.12871">
        <ele>13.3</ele>
        <time>2023-06-28T09:08:57Z</time>
      </trkpt>
      <trkpt lat="49.95169" lon="2.12874">
        <ele>13.3</ele>
        <time>2023-06-28T09:08:58Z</time>
      </trkpt>
      <trkpt lat="49.95169" lon="2.12875">
        <ele>13.3</ele>
        <time>2023-06-28T09:08:59Z</time>
      </trkpt>
      <trkpt lat="49.95168" lon="2.12876">
        <ele>13.3</ele>
        <time>2023-06-28T09:09:00Z</time>
      </trkpt>
      <trkpt lat="49.95167" lon="2.12878">
        <ele>13.3</ele>
        <time>2023-06-28T09:09:01Z</time>
      </trkpt>
      <trkpt lat="49.95167" lon="2.1288">
        <ele>13.3</ele>
        <time>2023-06-28T09:09:02Z</time>
      </trkpt>
      <trkpt lat="49.95166" lon="2.12882">
        <ele>13.3</ele>
        <time>2023-06-28T09:09:03Z</time>
      </trkpt>
      <trkpt lat="49.95165" lon="2.12884">
        <ele>13.3</ele>
        <time>2023-06-28T09:09:04Z</time>
      </trkpt>
      <trkpt lat="49.95164" lon="2.12885">
        <ele>13.3</ele>
        <time>2023-06-28T09:09:05Z</time>
      </trkpt>
      <trkpt lat="49.95164" lon="2.12886">
        <ele>13.3</ele>
        <time>2023-06-28T09:09:06Z</time>
      </trkpt>
      <trkpt lat="49.95163" lon="2.12888">
        <ele>13.3</ele>
        <time>2023-06-28T09:09:07Z</time>
      </trkpt>
      <trkpt lat="49.95162" lon="2.12889">
        <ele>13.2</ele>
        <time>2023-06-28T09:09:08Z</time>
      </trkpt>
      <trkpt lat="49.95162" lon="2.12891">
        <ele>13.2</ele>
        <time>2023-06-28T09:09:09Z</time>
      </trkpt>
      <trkpt lat="49.95161" lon="2.12892">
        <ele>13.2</ele>
        <time>2023-06-28T09:09:10Z</time>
      </trkpt>
      <trkpt lat="49.9516" lon="2.12894">
        <ele>13.2</ele>
        <time>2023-06-28T09:09:11Z</time>
      </trkpt>
      <trkpt lat="49.9516" lon="2.12896">
        <ele>13.2</ele>
        <time>2023-06-28T09:09:12Z</time>
      </trkpt>
      <trkpt lat="49.9516" lon="2.12897">
        <ele>13.2</ele>
        <time>2023-06-28T09:09:13Z</time>
      </trkpt>
      <trkpt lat="49.95159" lon="2.12898">
        <ele>13.2</ele>
        <time>2023-06-28T09:09:14Z</time>
      </trkpt>
      <trkpt lat="49.95158" lon="2.129">
        <ele>13.2</ele>
        <time>2023-06-28T09:09:15Z</time>
      </trkpt>
      <trkpt lat="49.95158" lon="2.12901">
        <ele>13.2</ele>
        <time>2023-06-28T09:09:16Z</time>
      </trkpt>
      <trkpt lat="49.95157" lon="2.12902">
        <ele>13.2</ele>
        <time>2023-06-28T09:09:17Z</time>
      </trkpt>
      <trkpt lat="49.95157" lon="2.12904">
        <ele>13.2</ele>
        <time>2023-06-28T09:09:18Z</time>
      </trkpt>
      <trkpt lat="49.95156" lon="2.12905">
        <ele>13.2</ele>
        <time>2023-06-28T09:09:19Z</time>
      </trkpt>
      <trkpt lat="49.95155" lon="2.12908">
        <ele>13.2</ele>
        <time>2023-06-28T09:09:20Z</time>
      </trkpt>
      <trkpt lat="49.95155" lon="2.12908">
        <ele>13.2</ele>
        <time>2023-06-28T09:09:21Z</time>
      </trkpt>
      <trkpt lat="49.95154" lon="2.12909">
        <ele>13.2</ele>
        <time>2023-06-28T09:09:22Z</time>
      </trkpt>
      <trkpt lat="49.95154" lon="2.1291">
        <ele>13.2</ele>
        <time>2023-06-28T09:09:23Z</time>
      </trkpt>
      <trkpt lat="49.95153" lon="2.12911">
        <ele>13.2</ele>
        <time>2023-06-28T09:09:24Z</time>
      </trkpt>
      <trkpt lat="49.95153" lon="2.12913">
        <ele>13.2</ele>
        <time>2023-06-28T09:09:25Z</time>
      </trkpt>
      <trkpt lat="49.95152" lon="2.12914">
        <ele>13.2</ele>
        <time>2023-06-28T09:09:26Z</time>
      </trkpt>
      <trkpt lat="49.95151" lon="2.12916">
        <ele>13.2</ele>
        <time>2023-06-28T09:09:27Z</time>
      </trkpt>
      <trkpt lat="49.9515" lon="2.12917">
        <ele>13.2</ele>
        <time>2023-06-28T09:09:28Z</time>
      </trkpt>
      <trkpt lat="49.9515" lon="2.12918">
        <ele>13.2</ele>
        <time>2023-06-28T09:09:29Z</time>
      </trkpt>
      <trkpt lat="49.95149" lon="2.1292">
        <ele>13.2</ele>
        <time>2023-06-28T09:09:30Z</time>
      </trkpt>
      <trkpt lat="49.95148" lon="2.12921">
        <ele>13.2</ele>
        <time>2023-06-28T09:09:31Z</time>
      </trkpt>
      <trkpt lat="49.95147" lon="2.12922">
        <ele>13.2</ele>
        <time>2023-06-28T09:09:32Z</time>
      </trkpt>
      <trkpt lat="49.95147" lon="2.12923">
        <ele>13.2</ele>
        <time>2023-06-28T09:09:33Z</time>
      </trkpt>
      <trkpt lat="49.95146" lon="2.12923">
        <ele>13.2</ele>
        <time>2023-06-28T09:09:34Z</time>
      </trkpt>
      <trkpt lat="49.95146" lon="2.12924">
        <ele>13.2</ele>
        <time>2023-06-28T09:09:35Z</time>
      </trkpt>
      <trkpt lat="49.95145" lon="2.12925">
        <ele>13.2</ele>
        <time>2023-06-28T09:09:36Z</time>
      </trkpt>
      <trkpt lat="49.95144" lon="2.12926">
        <ele>13.2</ele>
        <time>2023-06-28T09:09:37Z</time>
      </trkpt>
      <trkpt lat="49.95144" lon="2.12926">
        <ele>13.2</ele>
        <time>2023-06-28T09:09:38Z</time>
      </trkpt>
      <trkpt lat="49.95143" lon="2.12927">
        <ele>13.2</ele>
        <time>2023-06-28T09:09:39Z</time>
      </trkpt>
      <trkpt lat="49.95143" lon="2.12928">
        <ele>13.2</ele>
        <time>2023-06-28T09:09:40Z</time>
      </trkpt>
      <trkpt lat="49.95142" lon="2.1293">
        <ele>13.3</ele>
        <time>2023-06-28T09:09:41Z</time>
      </trkpt>
      <trkpt lat="49.95141" lon="2.12931">
        <ele>13.3</ele>
        <time>2023-06-28T09:09:42Z</time>
      </trkpt>
      <trkpt lat="49.95141" lon="2.12932">
        <ele>13.3</ele>
        <time>2023-06-28T09:09:43Z</time>
      </trkpt>
      <trkpt lat="49.9514" lon="2.12933">
        <ele>13.3</ele>
        <time>2023-06-28T09:09:44Z</time>
      </trkpt>
      <trkpt lat="49.95139" lon="2.12934">
        <ele>13.3</ele>
        <time>2023-06-28T09:09:45Z</time>
      </trkpt>
      <trkpt lat="49.95139" lon="2.12936">
        <ele>13.3</ele>
        <time>2023-06-28T09:09:46Z</time>
      </trkpt>
      <trkpt lat="49.95137" lon="2.12938">
        <ele>13.3</ele>
        <time>2023-06-28T09:09:47Z</time>
      </trkpt>
      <trkpt lat="49.95136" lon="2.12939">
        <ele>13.3</ele>
        <time>2023-06-28T09:09:48Z</time>
      </trkpt>
      <trkpt lat="49.95135" lon="2.12939">
        <ele>13.3</ele>
        <time>2023-06-28T09:09:49Z</time>
      </trkpt>
      <trkpt lat="49.95135" lon="2.1294">
        <ele>13.3</ele>
        <time>2023-06-28T09:09:50Z</time>
      </trkpt>
      <trkpt lat="49.95134" lon="2.12941">
        <ele>13.3</ele>
        <time>2023-06-28T09:09:51Z</time>
      </trkpt>
      <trkpt lat="49.95133" lon="2.12942">
        <ele>13.3</ele>
        <time>2023-06-28T09:09:52Z</time>
      </trkpt>
      <trkpt lat="49.95132" lon="2.12944">
        <ele>13.3</ele>
        <time>2023-06-28T09:09:53Z</time>
      </trkpt>
      <trkpt lat="49.95132" lon="2.12944">
        <ele>13.3</ele>
        <time>2023-06-28T09:09:54Z</time>
      </trkpt>
      <trkpt lat="49.95131" lon="2.12946">
        <ele>13.3</ele>
        <time>2023-06-28T09:09:55Z</time>
      </trkpt>
      <trkpt lat="49.9513" lon="2.12947">
        <ele>13.3</ele>
        <time>2023-06-28T09:09:56Z</time>
      </trkpt>
      <trkpt lat="49.9513" lon="2.12948">
        <ele>13.3</ele>
        <time>2023-06-28T09:09:57Z</time>
      </trkpt>
      <trkpt lat="49.95129" lon="2.12949">
        <ele>13.3</ele>
        <time>2023-06-28T09:09:58Z</time>
      </trkpt>
      <trkpt lat="49.95128" lon="2.1295">
        <ele>13.3</ele>
        <time>2023-06-28T09:09:59Z</time>
      </trkpt>
      <trkpt lat="49.95127" lon="2.1295">
        <ele>13.3</ele>
        <time>2023-06-28T09:10:00Z</time>
      </trkpt>
      <trkpt lat="49.95127" lon="2.12951">
        <ele>13.3</ele>
        <time>2023-06-28T09:10:01Z</time>
      </trkpt>
      <trkpt lat="49.95126" lon="2.12952">
        <ele>13.3</ele>
        <time>2023-06-28T09:10:02Z</time>
      </trkpt>
      <trkpt lat="49.95125" lon="2.12953">
        <ele>13.3</ele>
        <time>2023-06-28T09:10:03Z</time>
      </trkpt>
      <trkpt lat="49.95124" lon="2.12954">
        <ele>13.3</ele>
        <time>2023-06-28T09:10:04Z</time>
      </trkpt>
      <trkpt lat="49.95123" lon="2.12955">
        <ele>13.3</ele>
        <time>2023-06-28T09:10:05Z</time>
      </trkpt>
      <trkpt lat="49.95122" lon="2.12957">
        <ele>13.3</ele>
        <time>2023-06-28T09:10:06Z</time>
      </trkpt>
      <trkpt lat="49.95122" lon="2.12958">
        <ele>13.3</ele>
        <time>2023-06-28T09:10:07Z</time>
      </trkpt>
      <trkpt lat="49.9512" lon="2.1296">
        <ele>13.3</ele>
        <time>2023-06-28T09:10:08Z</time>
      </trkpt>
      <trkpt lat="49.9512" lon="2.12961">
        <ele>13.3</ele>
        <time>2023-06-28T09:10:09Z</time>
      </trkpt>
      <trkpt lat="49.95119" lon="2.12962">
        <ele>13.3</ele>
        <time>2023-06-28T09:10:10Z</time>
      </trkpt>
      <trkpt lat="49.95117" lon="2.12964">
        <ele>13.3</ele>
        <time>2023-06-28T09:10:11Z</time>
      </trkpt>
      <trkpt lat="49.95117" lon="2.12965">
        <ele>13.3</ele>
        <time>2023-06-28T09:10:12Z</time>
      </trkpt>
      <trkpt lat="49.95116" lon="2.12966">
        <ele>13.3</ele>
        <time>2023-06-28T09:10:13Z</time>
      </trkpt>
      <trkpt lat="49.95115" lon="2.12967">
        <ele>13.3</ele>
        <time>2023-06-28T09:10:14Z</time>
      </trkpt>
      <trkpt lat="49.95115" lon="2.12968">
        <ele>13.3</ele>
        <time>2023-06-28T09:10:15Z</time>
      </trkpt>
      <trkpt lat="49.95114" lon="2.1297">
        <ele>13.3</ele>
        <time>2023-06-28T09:10:16Z</time>
      </trkpt>
      <trkpt lat="49.95113" lon="2.12971">
        <ele>13.3</ele>
        <time>2023-06-28T09:10:17Z</time>
      </trkpt>
      <trkpt lat="49.95112" lon="2.12972">
        <ele>13.3</ele>
        <time>2023-06-28T09:10:18Z</time>
      </trkpt>
      <trkpt lat="49.95112" lon="2.12974">
        <ele>13.3</ele>
        <time>2023-06-28T09:10:19Z</time>
      </trkpt>
      <trkpt lat="49.95111" lon="2.12975">
        <ele>13.3</ele>
        <time>2023-06-28T09:10:20Z</time>
      </trkpt>
      <trkpt lat="49.9511" lon="2.12976">
        <ele>13.3</ele>
        <time>2023-06-28T09:10:21Z</time>
      </trkpt>
      <trkpt lat="49.9511" lon="2.12977">
        <ele>13.3</ele>
        <time>2023-06-28T09:10:22Z</time>
      </trkpt>
      <trkpt lat="49.95109" lon="2.12979">
        <ele>13.3</ele>
        <time>2023-06-28T09:10:23Z</time>
      </trkpt>
      <trkpt lat="49.95108" lon="2.1298">
        <ele>13.3</ele>
        <time>2023-06-28T09:10:24Z</time>
      </trkpt>
      <trkpt lat="49.95107" lon="2.12981">
        <ele>13.3</ele>
        <time>2023-06-28T09:10:25Z</time>
      </trkpt>
      <trkpt lat="49.95107" lon="2.12983">
        <ele>13.3</ele>
        <time>2023-06-28T09:10:26Z</time>
      </trkpt>
      <trkpt lat="49.95106" lon="2.12984">
        <ele>13.3</ele>
        <time>2023-06-28T09:10:27Z</time>
      </trkpt>
      <trkpt lat="49.95105" lon="2.12985">
        <ele>13.3</ele>
        <time>2023-06-28T09:10:28Z</time>
      </trkpt>
      <trkpt lat="49.95104" lon="2.12986">
        <ele>13.3</ele>
        <time>2023-06-28T09:10:29Z</time>
      </trkpt>
      <trkpt lat="49.95103" lon="2.12988">
        <ele>13.3</ele>
        <time>2023-06-28T09:10:30Z</time>
      </trkpt>
      <trkpt lat="49.95102" lon="2.12989">
        <ele>13.3</ele>
        <time>2023-06-28T09:10:31Z</time>
      </trkpt>
      <trkpt lat="49.95101" lon="2.12991">
        <ele>13.3</ele>
        <time>2023-06-28T09:10:32Z</time>
      </trkpt>
      <trkpt lat="49.951" lon="2.12992">
        <ele>13.3</ele>
        <time>2023-06-28T09:10:33Z</time>
      </trkpt>
      <trkpt lat="49.95099" lon="2.12993">
        <ele>13.3</ele>
        <time>2023-06-28T09:10:34Z</time>
      </trkpt>
      <trkpt lat="49.95098" lon="2.12994">
        <ele>13.3</ele>
        <time>2023-06-28T09:10:35Z</time>
      </trkpt>
      <trkpt lat="49.95097" lon="2.12995">
        <ele>13.3</ele>
        <time>2023-06-28T09:10:36Z</time>
      </trkpt>
      <trkpt lat="49.95097" lon="2.12996">
        <ele>13.3</ele>
        <time>2023-06-28T09:10:37Z</time>
      </trkpt>
      <trkpt lat="49.95096" lon="2.12997">
        <ele>13.3</ele>
        <time>2023-06-28T09:10:38Z</time>
      </trkpt>
      <trkpt lat="49.95095" lon="2.12998">
        <ele>13.3</ele>
        <time>2023-06-28T09:10:39Z</time>
      </trkpt>
      <trkpt lat="49.95094" lon="2.12999">
        <ele>13.3</ele>
        <time>2023-06-28T09:10:40Z</time>
      </trkpt>
      <trkpt lat="49.95093" lon="2.13001">
        <ele>13.3</ele>
        <time>2023-06-28T09:10:41Z</time>
      </trkpt>
      <trkpt lat="49.95093" lon="2.13002">
        <ele>13.3</ele>
        <time>2023-06-28T09:10:42Z</time>
      </trkpt>
      <trkpt lat="49.95092" lon="2.13003">
        <ele>13.3</ele>
        <time>2023-06-28T09:10:43Z</time>
      </trkpt>
      <trkpt lat="49.95092" lon="2.13004">
        <ele>13.3</ele>
        <time>2023-06-28T09:10:44Z</time>
      </trkpt>
      <trkpt lat="49.9509" lon="2.13007">
        <ele>13.3</ele>
        <time>2023-06-28T09:10:45Z</time>
      </trkpt>
      <trkpt lat="49.9509" lon="2.13008">
        <ele>13.3</ele>
        <time>2023-06-28T09:10:46Z</time>
      </trkpt>
      <trkpt lat="49.95089" lon="2.13009">
        <ele>13.3</ele>
        <time>2023-06-28T09:10:47Z</time>
      </trkpt>
      <trkpt lat="49.95088" lon="2.1301">
        <ele>13.3</ele>
        <time>2023-06-28T09:10:48Z</time>
      </trkpt>
      <trkpt lat="49.95088" lon="2.13011">
        <ele>13.3</ele>
        <time>2023-06-28T09:10:49Z</time>
      </trkpt>
      <trkpt lat="49.95087" lon="2.13012">
        <ele>13.3</ele>
        <time>2023-06-28T09:10:50Z</time>
      </trkpt>
      <trkpt lat="49.95085" lon="2.13015">
        <ele>13.3</ele>
        <time>2023-06-28T09:10:51Z</time>
      </trkpt>
      <trkpt lat="49.95085" lon="2.13015">
        <ele>13.3</ele>
        <time>2023-06-28T09:10:52Z</time>
      </trkpt>
      <trkpt lat="49.95084" lon="2.13016">
        <ele>13.3</ele>
        <time>2023-06-28T09:10:53Z</time>
      </trkpt>
      <trkpt lat="49.95083" lon="2.13017">
        <ele>13.3</ele>
        <time>2023-06-28T09:10:54Z</time>
      </trkpt>
      <trkpt lat="49.95082" lon="2.13018">
        <ele>13.3</ele>
        <time>2023-06-28T09:10:55Z</time>
      </trkpt>
      <trkpt lat="49.95081" lon="2.1302">
        <ele>13.3</ele>
        <time>2023-06-28T09:10:56Z</time>
      </trkpt>
      <trkpt lat="49.9508" lon="2.13022">
        <ele>13.3</ele>
        <time>2023-06-28T09:10:57Z</time>
      </trkpt>
      <trkpt lat="49.95079" lon="2.13023">
        <ele>13.3</ele>
        <time>2023-06-28T09:10:58Z</time>
      </trkpt>
      <trkpt lat="49.95078" lon="2.13024">
        <ele>13.3</ele>
        <time>2023-06-28T09:10:59Z</time>
      </trkpt>
      <trkpt lat="49.95078" lon="2.13025">
        <ele>13.3</ele>
        <time>2023-06-28T09:11:00Z</time>
      </trkpt>
      <trkpt lat="49.95077" lon="2.13025">
        <ele>13.3</ele>
        <time>2023-06-28T09:11:01Z</time>
      </trkpt>
      <trkpt lat="49.95076" lon="2.13026">
        <ele>13.3</ele>
        <time>2023-06-28T09:11:02Z</time>
      </trkpt>
      <trkpt lat="49.95075" lon="2.13027">
        <ele>13.3</ele>
        <time>2023-06-28T09:11:03Z</time>
      </trkpt>
      <trkpt lat="49.95074" lon="2.13028">
        <ele>13.3</ele>
        <time>2023-06-28T09:11:04Z</time>
      </trkpt>
      <trkpt lat="49.95073" lon="2.13029">
        <ele>13.3</ele>
        <time>2023-06-28T09:11:05Z</time>
      </trkpt>
      <trkpt lat="49.95073" lon="2.1303">
        <ele>13.3</ele>
        <time>2023-06-28T09:11:06Z</time>
      </trkpt>
      <trkpt lat="49.95072" lon="2.13031">
        <ele>13.3</ele>
        <time>2023-06-28T09:11:07Z</time>
      </trkpt>
      <trkpt lat="49.95071" lon="2.13032">
        <ele>13.3</ele>
        <time>2023-06-28T09:11:08Z</time>
      </trkpt>
      <trkpt lat="49.9507" lon="2.13033">
        <ele>13.3</ele>
        <time>2023-06-28T09:11:09Z</time>
      </trkpt>
      <trkpt lat="49.95068" lon="2.13034">
        <ele>13.3</ele>
        <time>2023-06-28T09:11:10Z</time>
      </trkpt>
      <trkpt lat="49.95068" lon="2.13035">
        <ele>13.3</ele>
        <time>2023-06-28T09:11:11Z</time>
      </trkpt>
      <trkpt lat="49.95067" lon="2.13035">
        <ele>13.3</ele>
        <time>2023-06-28T09:11:12Z</time>
      </trkpt>
      <trkpt lat="49.95066" lon="2.13036">
        <ele>13.3</ele>
        <time>2023-06-28T09:11:13Z</time>
      </trkpt>
      <trkpt lat="49.95065" lon="2.13037">
        <ele>13.3</ele>
        <time>2023-06-28T09:11:14Z</time>
      </trkpt>
      <trkpt lat="49.95064" lon="2.13037">
        <ele>13.3</ele>
        <time>2023-06-28T09:11:15Z</time>
      </trkpt>
      <trkpt lat="49.95063" lon="2.13038">
        <ele>13.3</ele>
        <time>2023-06-28T09:11:16Z</time>
      </trkpt>
      <trkpt lat="49.95062" lon="2.13039">
        <ele>13.3</ele>
        <time>2023-06-28T09:11:17Z</time>
      </trkpt>
      <trkpt lat="49.95061" lon="2.1304">
        <ele>13.3</ele>
        <time>2023-06-28T09:11:18Z</time>
      </trkpt>
      <trkpt lat="49.9506" lon="2.13041">
        <ele>13.3</ele>
        <time>2023-06-28T09:11:19Z</time>
      </trkpt>
      <trkpt lat="49.95059" lon="2.13042">
        <ele>13.3</ele>
        <time>2023-06-28T09:11:20Z</time>
      </trkpt>
      <trkpt lat="49.95058" lon="2.13044">
        <ele>13.3</ele>
        <time>2023-06-28T09:11:21Z</time>
      </trkpt>
      <trkpt lat="49.95057" lon="2.13045">
        <ele>13.3</ele>
        <time>2023-06-28T09:11:22Z</time>
      </trkpt>
      <trkpt lat="49.95056" lon="2.13046">
        <ele>13.3</ele>
        <time>2023-06-28T09:11:23Z</time>
      </trkpt>
      <trkpt lat="49.95055" lon="2.13046">
        <ele>13.3</ele>
        <time>2023-06-28T09:11:24Z</time>
      </trkpt>
      <trkpt lat="49.95054" lon="2.13047">
        <ele>13.3</ele>
        <time>2023-06-28T09:11:25Z</time>
      </trkpt>
      <trkpt lat="49.95054" lon="2.13048">
        <ele>13.4</ele>
        <time>2023-06-28T09:11:26Z</time>
      </trkpt>
      <trkpt lat="49.95052" lon="2.13049">
        <ele>13.4</ele>
        <time>2023-06-28T09:11:27Z</time>
      </trkpt>
      <trkpt lat="49.95051" lon="2.1305">
        <ele>13.4</ele>
        <time>2023-06-28T09:11:28Z</time>
      </trkpt>
      <trkpt lat="49.9505" lon="2.1305">
        <ele>13.4</ele>
        <time>2023-06-28T09:11:29Z</time>
      </trkpt>
      <trkpt lat="49.95048" lon="2.13052">
        <ele>13.4</ele>
        <time>2023-06-28T09:11:30Z</time>
      </trkpt>
      <trkpt lat="49.95047" lon="2.13052">
        <ele>13.4</ele>
        <time>2023-06-28T09:11:31Z</time>
      </trkpt>
      <trkpt lat="49.95047" lon="2.13052">
        <ele>13.4</ele>
        <time>2023-06-28T09:11:32Z</time>
      </trkpt>
      <trkpt lat="49.95044" lon="2.13054">
        <ele>13.4</ele>
        <time>2023-06-28T09:11:33Z</time>
      </trkpt>
      <trkpt lat="49.95044" lon="2.13054">
        <ele>13.4</ele>
        <time>2023-06-28T09:11:34Z</time>
      </trkpt>
      <trkpt lat="49.95043" lon="2.13054">
        <ele>13.4</ele>
        <time>2023-06-28T09:11:35Z</time>
      </trkpt>
      <trkpt lat="49.95042" lon="2.13055">
        <ele>13.4</ele>
        <time>2023-06-28T09:11:36Z</time>
      </trkpt>
      <trkpt lat="49.9504" lon="2.13055">
        <ele>13.4</ele>
        <time>2023-06-28T09:11:37Z</time>
      </trkpt>
      <trkpt lat="49.95039" lon="2.13056">
        <ele>13.4</ele>
        <time>2023-06-28T09:11:38Z</time>
      </trkpt>
      <trkpt lat="49.95038" lon="2.13057">
        <ele>13.4</ele>
        <time>2023-06-28T09:11:39Z</time>
      </trkpt>
      <trkpt lat="49.95037" lon="2.13057">
        <ele>13.4</ele>
        <time>2023-06-28T09:11:40Z</time>
      </trkpt>
      <trkpt lat="49.95036" lon="2.13058">
        <ele>13.4</ele>
        <time>2023-06-28T09:11:41Z</time>
      </trkpt>
      <trkpt lat="49.95036" lon="2.13059">
        <ele>13.4</ele>
        <time>2023-06-28T09:11:42Z</time>
      </trkpt>
      <trkpt lat="49.95035" lon="2.1306">
        <ele>13.4</ele>
        <time>2023-06-28T09:11:43Z</time>
      </trkpt>
      <trkpt lat="49.95034" lon="2.13061">
        <ele>13.4</ele>
        <time>2023-06-28T09:11:44Z</time>
      </trkpt>
      <trkpt lat="49.95033" lon="2.13062">
        <ele>13.4</ele>
        <time>2023-06-28T09:11:45Z</time>
      </trkpt>
      <trkpt lat="49.95032" lon="2.13063">
        <ele>13.4</ele>
        <time>2023-06-28T09:11:46Z</time>
      </trkpt>
      <trkpt lat="49.95031" lon="2.13063">
        <ele>13.4</ele>
        <time>2023-06-28T09:11:47Z</time>
      </trkpt>
      <trkpt lat="49.9503" lon="2.13065">
        <ele>13.4</ele>
        <time>2023-06-28T09:11:48Z</time>
      </trkpt>
      <trkpt lat="49.95029" lon="2.13066">
        <ele>13.4</ele>
        <time>2023-06-28T09:11:49Z</time>
      </trkpt>
      <trkpt lat="49.95028" lon="2.13067">
        <ele>13.4</ele>
        <time>2023-06-28T09:11:50Z</time>
      </trkpt>
      <trkpt lat="49.95028" lon="2.13068">
        <ele>13.4</ele>
        <time>2023-06-28T09:11:51Z</time>
      </trkpt>
      <trkpt lat="49.95027" lon="2.13069">
        <ele>13.4</ele>
        <time>2023-06-28T09:11:52Z</time>
      </trkpt>
      <trkpt lat="49.95026" lon="2.1307">
        <ele>13.4</ele>
        <time>2023-06-28T09:11:53Z</time>
      </trkpt>
      <trkpt lat="49.95025" lon="2.13072">
        <ele>13.4</ele>
        <time>2023-06-28T09:11:54Z</time>
      </trkpt>
      <trkpt lat="49.95025" lon="2.13073">
        <ele>13.4</ele>
        <time>2023-06-28T09:11:55Z</time>
      </trkpt>
      <trkpt lat="49.95024" lon="2.13074">
        <ele>13.4</ele>
        <time>2023-06-28T09:11:56Z</time>
      </trkpt>
      <trkpt lat="49.95023" lon="2.13075">
        <ele>13.4</ele>
        <time>2023-06-28T09:11:57Z</time>
      </trkpt>
      <trkpt lat="49.95022" lon="2.13076">
        <ele>13.4</ele>
        <time>2023-06-28T09:11:58Z</time>
      </trkpt>
      <trkpt lat="49.95022" lon="2.13078">
        <ele>13.4</ele>
        <time>2023-06-28T09:11:59Z</time>
      </trkpt>
      <trkpt lat="49.9502" lon="2.1308">
        <ele>13.4</ele>
        <time>2023-06-28T09:12:00Z</time>
      </trkpt>
      <trkpt lat="49.95019" lon="2.13081">
        <ele>13.4</ele>
        <time>2023-06-28T09:12:01Z</time>
      </trkpt>
      <trkpt lat="49.95019" lon="2.13082">
        <ele>13.4</ele>
        <time>2023-06-28T09:12:02Z</time>
      </trkpt>
      <trkpt lat="49.95018" lon="2.13083">
        <ele>13.4</ele>
        <time>2023-06-28T09:12:03Z</time>
      </trkpt>
      <trkpt lat="49.95017" lon="2.13084">
        <ele>13.4</ele>
        <time>2023-06-28T09:12:04Z</time>
      </trkpt>
      <trkpt lat="49.95016" lon="2.13085">
        <ele>13.4</ele>
        <time>2023-06-28T09:12:05Z</time>
      </trkpt>
      <trkpt lat="49.95015" lon="2.13086">
        <ele>13.4</ele>
        <time>2023-06-28T09:12:06Z</time>
      </trkpt>
      <trkpt lat="49.95014" lon="2.13087">
        <ele>13.4</ele>
        <time>2023-06-28T09:12:07Z</time>
      </trkpt>
      <trkpt lat="49.95013" lon="2.13088">
        <ele>13.3</ele>
        <time>2023-06-28T09:12:08Z</time>
      </trkpt>
      <trkpt lat="49.95012" lon="2.13089">
        <ele>13.3</ele>
        <time>2023-06-28T09:12:09Z</time>
      </trkpt>
      <trkpt lat="49.95011" lon="2.1309">
        <ele>13.3</ele>
        <time>2023-06-28T09:12:10Z</time>
      </trkpt>
      <trkpt lat="49.95011" lon="2.13091">
        <ele>13.3</ele>
        <time>2023-06-28T09:12:11Z</time>
      </trkpt>
      <trkpt lat="49.9501" lon="2.13092">
        <ele>13.3</ele>
        <time>2023-06-28T09:12:12Z</time>
      </trkpt>
      <trkpt lat="49.95009" lon="2.13093">
        <ele>13.3</ele>
        <time>2023-06-28T09:12:13Z</time>
      </trkpt>
      <trkpt lat="49.95008" lon="2.13094">
        <ele>13.3</ele>
        <time>2023-06-28T09:12:14Z</time>
      </trkpt>
      <trkpt lat="49.95007" lon="2.13094">
        <ele>13.3</ele>
        <time>2023-06-28T09:12:15Z</time>
      </trkpt>
      <trkpt lat="49.95007" lon="2.13095">
        <ele>13.3</ele>
        <time>2023-06-28T09:12:16Z</time>
      </trkpt>
      <trkpt lat="49.95006" lon="2.13096">
        <ele>13.3</ele>
        <time>2023-06-28T09:12:17Z</time>
      </trkpt>
      <trkpt lat="49.95005" lon="2.13097">
        <ele>13.3</ele>
        <time>2023-06-28T09:12:18Z</time>
      </trkpt>
      <trkpt lat="49.95004" lon="2.13098">
        <ele>13.3</ele>
        <time>2023-06-28T09:12:19Z</time>
      </trkpt>
      <trkpt lat="49.95003" lon="2.13099">
        <ele>13.3</ele>
        <time>2023-06-28T09:12:20Z</time>
      </trkpt>
      <trkpt lat="49.95002" lon="2.131">
        <ele>13.3</ele>
        <time>2023-06-28T09:12:21Z</time>
      </trkpt>
      <trkpt lat="49.95001" lon="2.13101">
        <ele>13.3</ele>
        <time>2023-06-28T09:12:22Z</time>
      </trkpt>
      <trkpt lat="49.95001" lon="2.13102">
        <ele>13.3</ele>
        <time>2023-06-28T09:12:23Z</time>
      </trkpt>
      <trkpt lat="49.95" lon="2.13103">
        <ele>13.3</ele>
        <time>2023-06-28T09:12:24Z</time>
      </trkpt>
      <trkpt lat="49.94999" lon="2.13104">
        <ele>13.3</ele>
        <time>2023-06-28T09:12:25Z</time>
      </trkpt>
      <trkpt lat="49.94999" lon="2.13105">
        <ele>13.3</ele>
        <time>2023-06-28T09:12:26Z</time>
      </trkpt>
      <trkpt lat="49.94998" lon="2.13107">
        <ele>13.3</ele>
        <time>2023-06-28T09:12:27Z</time>
      </trkpt>
      <trkpt lat="49.94997" lon="2.13107">
        <ele>13.3</ele>
        <time>2023-06-28T09:12:28Z</time>
      </trkpt>
      <trkpt lat="49.94997" lon="2.13108">
        <ele>13.3</ele>
        <time>2023-06-28T09:12:29Z</time>
      </trkpt>
      <trkpt lat="49.94996" lon="2.13109">
        <ele>13.3</ele>
        <time>2023-06-28T09:12:30Z</time>
      </trkpt>
      <trkpt lat="49.94996" lon="2.1311">
        <ele>13.3</ele>
        <time>2023-06-28T09:12:31Z</time>
      </trkpt>
      <trkpt lat="49.94995" lon="2.13111">
        <ele>13.3</ele>
        <time>2023-06-28T09:12:32Z</time>
      </trkpt>
      <trkpt lat="49.94994" lon="2.13113">
        <ele>13.2</ele>
        <time>2023-06-28T09:12:33Z</time>
      </trkpt>
      <trkpt lat="49.94992" lon="2.13115">
        <ele>13.2</ele>
        <time>2023-06-28T09:12:34Z</time>
      </trkpt>
      <trkpt lat="49.94992" lon="2.13116">
        <ele>13.2</ele>
        <time>2023-06-28T09:12:35Z</time>
      </trkpt>
      <trkpt lat="49.94991" lon="2.13117">
        <ele>13.2</ele>
        <time>2023-06-28T09:12:36Z</time>
      </trkpt>
      <trkpt lat="49.94989" lon="2.13119">
        <ele>13.2</ele>
        <time>2023-06-28T09:12:37Z</time>
      </trkpt>
      <trkpt lat="49.94989" lon="2.1312">
        <ele>13.2</ele>
        <time>2023-06-28T09:12:38Z</time>
      </trkpt>
      <trkpt lat="49.94988" lon="2.13121">
        <ele>13.2</ele>
        <time>2023-06-28T09:12:39Z</time>
      </trkpt>
      <trkpt lat="49.94987" lon="2.13122">
        <ele>13.2</ele>
        <time>2023-06-28T09:12:40Z</time>
      </trkpt>
      <trkpt lat="49.94986" lon="2.13124">
        <ele>13.2</ele>
        <time>2023-06-28T09:12:41Z</time>
      </trkpt>
      <trkpt lat="49.94985" lon="2.13125">
        <ele>13.2</ele>
        <time>2023-06-28T09:12:42Z</time>
      </trkpt>
      <trkpt lat="49.94984" lon="2.13127">
        <ele>13.2</ele>
        <time>2023-06-28T09:12:43Z</time>
      </trkpt>
      <trkpt lat="49.94983" lon="2.13128">
        <ele>13.2</ele>
        <time>2023-06-28T09:12:44Z</time>
      </trkpt>
      <trkpt lat="49.94982" lon="2.13129">
        <ele>13.2</ele>
        <time>2023-06-28T09:12:45Z</time>
      </trkpt>
      <trkpt lat="49.94981" lon="2.1313">
        <ele>13.2</ele>
        <time>2023-06-28T09:12:46Z</time>
      </trkpt>
      <trkpt lat="49.9498" lon="2.1313">
        <ele>13.2</ele>
        <time>2023-06-28T09:12:47Z</time>
      </trkpt>
      <trkpt lat="49.94979" lon="2.13131">
        <ele>13.2</ele>
        <time>2023-06-28T09:12:48Z</time>
      </trkpt>
      <trkpt lat="49.94978" lon="2.13131">
        <ele>13.2</ele>
        <time>2023-06-28T09:12:49Z</time>
      </trkpt>
      <trkpt lat="49.94977" lon="2.13132">
        <ele>13.2</ele>
        <time>2023-06-28T09:12:50Z</time>
      </trkpt>
      <trkpt lat="49.94976" lon="2.13133">
        <ele>13.2</ele>
        <time>2023-06-28T09:12:51Z</time>
      </trkpt>
      <trkpt lat="49.94975" lon="2.13133">
        <ele>13.3</ele>
        <time>2023-06-28T09:12:52Z</time>
      </trkpt>
      <trkpt lat="49.94974" lon="2.13134">
        <ele>13.3</ele>
        <time>2023-06-28T09:12:53Z</time>
      </trkpt>
      <trkpt lat="49.94973" lon="2.13134">
        <ele>13.3</ele>
        <time>2023-06-28T09:12:54Z</time>
      </trkpt>
      <trkpt lat="49.94971" lon="2.13135">
        <ele>13.3</ele>
        <time>2023-06-28T09:12:55Z</time>
      </trkpt>
      <trkpt lat="49.94969" lon="2.13136">
        <ele>13.3</ele>
        <time>2023-06-28T09:12:56Z</time>
      </trkpt>
      <trkpt lat="49.94969" lon="2.13136">
        <ele>13.3</ele>
        <time>2023-06-28T09:12:57Z</time>
      </trkpt>
      <trkpt lat="49.94968" lon="2.13137">
        <ele>13.3</ele>
        <time>2023-06-28T09:12:58Z</time>
      </trkpt>
      <trkpt lat="49.94966" lon="2.13138">
        <ele>13.3</ele>
        <time>2023-06-28T09:12:59Z</time>
      </trkpt>
      <trkpt lat="49.94965" lon="2.13139">
        <ele>13.3</ele>
        <time>2023-06-28T09:13:00Z</time>
      </trkpt>
      <trkpt lat="49.94964" lon="2.13139">
        <ele>13.3</ele>
        <time>2023-06-28T09:13:01Z</time>
      </trkpt>
      <trkpt lat="49.94963" lon="2.1314">
        <ele>13.3</ele>
        <time>2023-06-28T09:13:02Z</time>
      </trkpt>
      <trkpt lat="49.94962" lon="2.13141">
        <ele>13.3</ele>
        <time>2023-06-28T09:13:03Z</time>
      </trkpt>
      <trkpt lat="49.94961" lon="2.13142">
        <ele>13.3</ele>
        <time>2023-06-28T09:13:04Z</time>
      </trkpt>
      <trkpt lat="49.9496" lon="2.13143">
        <ele>13.3</ele>
        <time>2023-06-28T09:13:05Z</time>
      </trkpt>
      <trkpt lat="49.9496" lon="2.13144">
        <ele>13.3</ele>
        <time>2023-06-28T09:13:06Z</time>
      </trkpt>
      <trkpt lat="49.94959" lon="2.13145">
        <ele>13.3</ele>
        <time>2023-06-28T09:13:07Z</time>
      </trkpt>
      <trkpt lat="49.94958" lon="2.13146">
        <ele>13.3</ele>
        <time>2023-06-28T09:13:08Z</time>
      </trkpt>
      <trkpt lat="49.94958" lon="2.13146">
        <ele>13.3</ele>
        <time>2023-06-28T09:13:09Z</time>
      </trkpt>
      <trkpt lat="49.94957" lon="2.13147">
        <ele>13.3</ele>
        <time>2023-06-28T09:13:10Z</time>
      </trkpt>
      <trkpt lat="49.94956" lon="2.13149">
        <ele>13.3</ele>
        <time>2023-06-28T09:13:11Z</time>
      </trkpt>
      <trkpt lat="49.94955" lon="2.1315">
        <ele>13.3</ele>
        <time>2023-06-28T09:13:12Z</time>
      </trkpt>
      <trkpt lat="49.94954" lon="2.13151">
        <ele>13.3</ele>
        <time>2023-06-28T09:13:13Z</time>
      </trkpt>
      <trkpt lat="49.94953" lon="2.13152">
        <ele>13.3</ele>
        <time>2023-06-28T09:13:14Z</time>
      </trkpt>
      <trkpt lat="49.94952" lon="2.13152">
        <ele>13.3</ele>
        <time>2023-06-28T09:13:15Z</time>
      </trkpt>
      <trkpt lat="49.94951" lon="2.13154">
        <ele>13.3</ele>
        <time>2023-06-28T09:13:16Z</time>
      </trkpt>
      <trkpt lat="49.9495" lon="2.13155">
        <ele>13.3</ele>
        <time>2023-06-28T09:13:17Z</time>
      </trkpt>
      <trkpt lat="49.9495" lon="2.13156">
        <ele>13.3</ele>
        <time>2023-06-28T09:13:18Z</time>
      </trkpt>
      <trkpt lat="49.94949" lon="2.13157">
        <ele>13.3</ele>
        <time>2023-06-28T09:13:19Z</time>
      </trkpt>
      <trkpt lat="49.94948" lon="2.13158">
        <ele>13.3</ele>
        <time>2023-06-28T09:13:20Z</time>
      </trkpt>
      <trkpt lat="49.94948" lon="2.13159">
        <ele>13.3</ele>
        <time>2023-06-28T09:13:21Z</time>
      </trkpt>
      <trkpt lat="49.94947" lon="2.1316">
        <ele>13.3</ele>
        <time>2023-06-28T09:13:22Z</time>
      </trkpt>
      <trkpt lat="49.94946" lon="2.13162">
        <ele>13.3</ele>
        <time>2023-06-28T09:13:23Z</time>
      </trkpt>
      <trkpt lat="49.94945" lon="2.13163">
        <ele>13.3</ele>
        <time>2023-06-28T09:13:24Z</time>
      </trkpt>
      <trkpt lat="49.94944" lon="2.13166">
        <ele>13.3</ele>
        <time>2023-06-28T09:13:25Z</time>
      </trkpt>
      <trkpt lat="49.94943" lon="2.13167">
        <ele>13.3</ele>
        <time>2023-06-28T09:13:26Z</time>
      </trkpt>
      <trkpt lat="49.94943" lon="2.13168">
        <ele>13.3</ele>
        <time>2023-06-28T09:13:27Z</time>
      </trkpt>
      <trkpt lat="49.94942" lon="2.1317">
        <ele>13.3</ele>
        <time>2023-06-28T09:13:28Z</time>
      </trkpt>
      <trkpt lat="49.94941" lon="2.13172">
        <ele>13.3</ele>
        <time>2023-06-28T09:13:29Z</time>
      </trkpt>
      <trkpt lat="49.94941" lon="2.13174">
        <ele>13.3</ele>
        <time>2023-06-28T09:13:30Z</time>
      </trkpt>
      <trkpt lat="49.9494" lon="2.13177">
        <ele>13.3</ele>
        <time>2023-06-28T09:13:31Z</time>
      </trkpt>
      <trkpt lat="49.94939" lon="2.13179">
        <ele>13.3</ele>
        <time>2023-06-28T09:13:32Z</time>
      </trkpt>
      <trkpt lat="49.94938" lon="2.13181">
        <ele>13.3</ele>
        <time>2023-06-28T09:13:33Z</time>
      </trkpt>
      <trkpt lat="49.94938" lon="2.13183">
        <ele>13.3</ele>
        <time>2023-06-28T09:13:34Z</time>
      </trkpt>
      <trkpt lat="49.94937" lon="2.13185">
        <ele>13.3</ele>
        <time>2023-06-28T09:13:35Z</time>
      </trkpt>
      <trkpt lat="49.94936" lon="2.13187">
        <ele>13.3</ele>
        <time>2023-06-28T09:13:36Z</time>
      </trkpt>
      <trkpt lat="49.94936" lon="2.13189">
        <ele>13.3</ele>
        <time>2023-06-28T09:13:37Z</time>
      </trkpt>
      <trkpt lat="49.94935" lon="2.13191">
        <ele>13.3</ele>
        <time>2023-06-28T09:13:38Z</time>
      </trkpt>
      <trkpt lat="49.94935" lon="2.13193">
        <ele>13.3</ele>
        <time>2023-06-28T09:13:39Z</time>
      </trkpt>
      <trkpt lat="49.94935" lon="2.13195">
        <ele>13.3</ele>
        <time>2023-06-28T09:13:40Z</time>
      </trkpt>
      <trkpt lat="49.94934" lon="2.13197">
        <ele>13.3</ele>
        <time>2023-06-28T09:13:41Z</time>
      </trkpt>
      <trkpt lat="49.94934" lon="2.13199">
        <ele>13.3</ele>
        <time>2023-06-28T09:13:42Z</time>
      </trkpt>
      <trkpt lat="49.94934" lon="2.132">
        <ele>13.3</ele>
        <time>2023-06-28T09:13:43Z</time>
      </trkpt>
      <trkpt lat="49.94933" lon="2.13202">
        <ele>13.3</ele>
        <time>2023-06-28T09:13:44Z</time>
      </trkpt>
      <trkpt lat="49.94933" lon="2.13204">
        <ele>13.3</ele>
        <time>2023-06-28T09:13:45Z</time>
      </trkpt>
      <trkpt lat="49.94932" lon="2.13205">
        <ele>13.3</ele>
        <time>2023-06-28T09:13:46Z</time>
      </trkpt>
      <trkpt lat="49.94932" lon="2.13207">
        <ele>13.3</ele>
        <time>2023-06-28T09:13:47Z</time>
      </trkpt>
      <trkpt lat="49.94931" lon="2.13209">
        <ele>13.3</ele>
        <time>2023-06-28T09:13:48Z</time>
      </trkpt>
      <trkpt lat="49.9493" lon="2.13211">
        <ele>13.3</ele>
        <time>2023-06-28T09:13:49Z</time>
      </trkpt>
      <trkpt lat="49.94929" lon="2.13212">
        <ele>13.3</ele>
        <time>2023-06-28T09:13:50Z</time>
      </trkpt>
      <trkpt lat="49.94929" lon="2.13213">
        <ele>13.3</ele>
        <time>2023-06-28T09:13:51Z</time>
      </trkpt>
      <trkpt lat="49.94928" lon="2.13216">
        <ele>13.3</ele>
        <time>2023-06-28T09:13:52Z</time>
      </trkpt>
      <trkpt lat="49.94927" lon="2.13217">
        <ele>13.3</ele>
        <time>2023-06-28T09:13:53Z</time>
      </trkpt>
      <trkpt lat="49.94927" lon="2.13218">
        <ele>13.3</ele>
        <time>2023-06-28T09:13:54Z</time>
      </trkpt>
      <trkpt lat="49.94926" lon="2.1322">
        <ele>13.3</ele>
        <time>2023-06-28T09:13:55Z</time>
      </trkpt>
      <trkpt lat="49.94925" lon="2.13221">
        <ele>13.3</ele>
        <time>2023-06-28T09:13:56Z</time>
      </trkpt>
      <trkpt lat="49.94923" lon="2.13224">
        <ele>13.3</ele>
        <time>2023-06-28T09:13:57Z</time>
      </trkpt>
      <trkpt lat="49.94923" lon="2.13225">
        <ele>13.3</ele>
        <time>2023-06-28T09:13:58Z</time>
      </trkpt>
      <trkpt lat="49.94922" lon="2.13226">
        <ele>13.3</ele>
        <time>2023-06-28T09:13:59Z</time>
      </trkpt>
      <trkpt lat="49.94921" lon="2.13227">
        <ele>13.3</ele>
        <time>2023-06-28T09:14:00Z</time>
      </trkpt>
      <trkpt lat="49.94921" lon="2.13228">
        <ele>13.3</ele>
        <time>2023-06-28T09:14:01Z</time>
      </trkpt>
      <trkpt lat="49.9492" lon="2.13229">
        <ele>13.3</ele>
        <time>2023-06-28T09:14:02Z</time>
      </trkpt>
      <trkpt lat="49.94919" lon="2.1323">
        <ele>13.3</ele>
        <time>2023-06-28T09:14:03Z</time>
      </trkpt>
      <trkpt lat="49.94919" lon="2.13231">
        <ele>13.3</ele>
        <time>2023-06-28T09:14:04Z</time>
      </trkpt>
      <trkpt lat="49.94918" lon="2.13232">
        <ele>13.3</ele>
        <time>2023-06-28T09:14:05Z</time>
      </trkpt>
      <trkpt lat="49.94918" lon="2.13233">
        <ele>13.3</ele>
        <time>2023-06-28T09:14:06Z</time>
      </trkpt>
      <trkpt lat="49.94918" lon="2.13234">
        <ele>13.3</ele>
        <time>2023-06-28T09:14:07Z</time>
      </trkpt>
      <trkpt lat="49.94918" lon="2.13235">
        <ele>13.3</ele>
        <time>2023-06-28T09:14:08Z</time>
      </trkpt>
      <trkpt lat="49.94917" lon="2.13237">
        <ele>13.3</ele>
        <time>2023-06-28T09:14:09Z</time>
      </trkpt>
      <trkpt lat="49.94917" lon="2.13238">
        <ele>13.3</ele>
        <time>2023-06-28T09:14:10Z</time>
      </trkpt>
      <trkpt lat="49.94917" lon="2.1324">
        <ele>13.3</ele>
        <time>2023-06-28T09:14:11Z</time>
      </trkpt>
      <trkpt lat="49.94916" lon="2.13241">
        <ele>13.3</ele>
        <time>2023-06-28T09:14:12Z</time>
      </trkpt>
      <trkpt lat="49.94916" lon="2.13243">
        <ele>13.3</ele>
        <time>2023-06-28T09:14:13Z</time>
      </trkpt>
      <trkpt lat="49.94915" lon="2.13246">
        <ele>13.3</ele>
        <time>2023-06-28T09:14:14Z</time>
      </trkpt>
      <trkpt lat="49.94914" lon="2.13247">
        <ele>13.3</ele>
        <time>2023-06-28T09:14:15Z</time>
      </trkpt>
      <trkpt lat="49.94914" lon="2.13248">
        <ele>13.3</ele>
        <time>2023-06-28T09:14:16Z</time>
      </trkpt>
      <trkpt lat="49.94913" lon="2.1325">
        <ele>13.3</ele>
        <time>2023-06-28T09:14:17Z</time>
      </trkpt>
      <trkpt lat="49.94912" lon="2.13252">
        <ele>13.3</ele>
        <time>2023-06-28T09:14:18Z</time>
      </trkpt>
      <trkpt lat="49.94911" lon="2.13254">
        <ele>13.3</ele>
        <time>2023-06-28T09:14:19Z</time>
      </trkpt>
      <trkpt lat="49.9491" lon="2.13255">
        <ele>13.3</ele>
        <time>2023-06-28T09:14:20Z</time>
      </trkpt>
      <trkpt lat="49.9491" lon="2.13256">
        <ele>13.3</ele>
        <time>2023-06-28T09:14:21Z</time>
      </trkpt>
      <trkpt lat="49.94909" lon="2.13257">
        <ele>13.3</ele>
        <time>2023-06-28T09:14:22Z</time>
      </trkpt>
      <trkpt lat="49.94907" lon="2.13258">
        <ele>13.3</ele>
        <time>2023-06-28T09:14:23Z</time>
      </trkpt>
      <trkpt lat="49.94906" lon="2.13258">
        <ele>13.3</ele>
        <time>2023-06-28T09:14:24Z</time>
      </trkpt>
      <trkpt lat="49.94905" lon="2.13259">
        <ele>13.3</ele>
        <time>2023-06-28T09:14:25Z</time>
      </trkpt>
      <trkpt lat="49.94904" lon="2.1326">
        <ele>13.3</ele>
        <time>2023-06-28T09:14:26Z</time>
      </trkpt>
      <trkpt lat="49.94904" lon="2.13261">
        <ele>13.3</ele>
        <time>2023-06-28T09:14:27Z</time>
      </trkpt>
      <trkpt lat="49.94903" lon="2.13262">
        <ele>13.3</ele>
        <time>2023-06-28T09:14:28Z</time>
      </trkpt>
      <trkpt lat="49.94902" lon="2.13262">
        <ele>13.3</ele>
        <time>2023-06-28T09:14:29Z</time>
      </trkpt>
      <trkpt lat="49.94901" lon="2.13264">
        <ele>13.3</ele>
        <time>2023-06-28T09:14:30Z</time>
      </trkpt>
      <trkpt lat="49.949" lon="2.13264">
        <ele>13.3</ele>
        <time>2023-06-28T09:14:31Z</time>
      </trkpt>
      <trkpt lat="49.949" lon="2.13265">
        <ele>13.3</ele>
        <time>2023-06-28T09:14:32Z</time>
      </trkpt>
      <trkpt lat="49.94899" lon="2.13266">
        <ele>13.3</ele>
        <time>2023-06-28T09:14:33Z</time>
      </trkpt>
      <trkpt lat="49.94898" lon="2.13267">
        <ele>13.3</ele>
        <time>2023-06-28T09:14:34Z</time>
      </trkpt>
      <trkpt lat="49.94898" lon="2.13268">
        <ele>13.3</ele>
        <time>2023-06-28T09:14:35Z</time>
      </trkpt>
      <trkpt lat="49.94897" lon="2.13269">
        <ele>13.3</ele>
        <time>2023-06-28T09:14:36Z</time>
      </trkpt>
      <trkpt lat="49.94897" lon="2.1327">
        <ele>13.3</ele>
        <time>2023-06-28T09:14:37Z</time>
      </trkpt>
      <trkpt lat="49.94896" lon="2.13271">
        <ele>13.3</ele>
        <time>2023-06-28T09:14:38Z</time>
      </trkpt>
      <trkpt lat="49.94896" lon="2.13272">
        <ele>13.3</ele>
        <time>2023-06-28T09:14:39Z</time>
      </trkpt>
      <trkpt lat="49.94896" lon="2.13274">
        <ele>13.3</ele>
        <time>2023-06-28T09:14:40Z</time>
      </trkpt>
      <trkpt lat="49.94895" lon="2.13275">
        <ele>13.3</ele>
        <time>2023-06-28T09:14:41Z</time>
      </trkpt>
      <trkpt lat="49.94895" lon="2.13276">
        <ele>13.3</ele>
        <time>2023-06-28T09:14:42Z</time>
      </trkpt>
      <trkpt lat="49.94895" lon="2.13277">
        <ele>13.3</ele>
        <time>2023-06-28T09:14:43Z</time>
      </trkpt>
      <trkpt lat="49.94894" lon="2.13279">
        <ele>13.3</ele>
        <time>2023-06-28T09:14:44Z</time>
      </trkpt>
      <trkpt lat="49.94893" lon="2.1328">
        <ele>13.3</ele>
        <time>2023-06-28T09:14:45Z</time>
      </trkpt>
      <trkpt lat="49.94893" lon="2.13282">
        <ele>13.3</ele>
        <time>2023-06-28T09:14:46Z</time>
      </trkpt>
      <trkpt lat="49.94892" lon="2.13283">
        <ele>13.3</ele>
        <time>2023-06-28T09:14:47Z</time>
      </trkpt>
      <trkpt lat="49.94891" lon="2.13285">
        <ele>13.3</ele>
        <time>2023-06-28T09:14:48Z</time>
      </trkpt>
      <trkpt lat="49.94891" lon="2.13287">
        <ele>13.3</ele>
        <time>2023-06-28T09:14:49Z</time>
      </trkpt>
      <trkpt lat="49.9489" lon="2.13288">
        <ele>13.3</ele>
        <time>2023-06-28T09:14:50Z</time>
      </trkpt>
      <trkpt lat="49.94889" lon="2.1329">
        <ele>13.3</ele>
        <time>2023-06-28T09:14:51Z</time>
      </trkpt>
      <trkpt lat="49.94888" lon="2.13292">
        <ele>13.3</ele>
        <time>2023-06-28T09:14:52Z</time>
      </trkpt>
      <trkpt lat="49.94887" lon="2.13294">
        <ele>13.3</ele>
        <time>2023-06-28T09:14:53Z</time>
      </trkpt>
      <trkpt lat="49.94886" lon="2.13296">
        <ele>13.4</ele>
        <time>2023-06-28T09:14:54Z</time>
      </trkpt>
      <trkpt lat="49.94885" lon="2.13297">
        <ele>13.4</ele>
        <time>2023-06-28T09:14:55Z</time>
      </trkpt>
      <trkpt lat="49.94884" lon="2.13299">
        <ele>13.4</ele>
        <time>2023-06-28T09:14:56Z</time>
      </trkpt>
      <trkpt lat="49.94884" lon="2.133">
        <ele>13.4</ele>
        <time>2023-06-28T09:14:57Z</time>
      </trkpt>
      <trkpt lat="49.94883" lon="2.13301">
        <ele>13.4</ele>
        <time>2023-06-28T09:14:58Z</time>
      </trkpt>
      <trkpt lat="49.94881" lon="2.13303">
        <ele>13.4</ele>
        <time>2023-06-28T09:14:59Z</time>
      </trkpt>
      <trkpt lat="49.94881" lon="2.13304">
        <ele>13.4</ele>
        <time>2023-06-28T09:15:00Z</time>
      </trkpt>
      <trkpt lat="49.9488" lon="2.13305">
        <ele>13.4</ele>
        <time>2023-06-28T09:15:01Z</time>
      </trkpt>
      <trkpt lat="49.94879" lon="2.13307">
        <ele>13.4</ele>
        <time>2023-06-28T09:15:02Z</time>
      </trkpt>
      <trkpt lat="49.94878" lon="2.13308">
        <ele>13.4</ele>
        <time>2023-06-28T09:15:03Z</time>
      </trkpt>
      <trkpt lat="49.94877" lon="2.13309">
        <ele>13.4</ele>
        <time>2023-06-28T09:15:04Z</time>
      </trkpt>
      <trkpt lat="49.94877" lon="2.1331">
        <ele>13.4</ele>
        <time>2023-06-28T09:15:05Z</time>
      </trkpt>
      <trkpt lat="49.94876" lon="2.13312">
        <ele>13.4</ele>
        <time>2023-06-28T09:15:06Z</time>
      </trkpt>
      <trkpt lat="49.94876" lon="2.13313">
        <ele>13.4</ele>
        <time>2023-06-28T09:15:07Z</time>
      </trkpt>
      <trkpt lat="49.94875" lon="2.13314">
        <ele>13.4</ele>
        <time>2023-06-28T09:15:08Z</time>
      </trkpt>
      <trkpt lat="49.94875" lon="2.13316">
        <ele>13.4</ele>
        <time>2023-06-28T09:15:09Z</time>
      </trkpt>
      <trkpt lat="49.94874" lon="2.13318">
        <ele>13.5</ele>
        <time>2023-06-28T09:15:10Z</time>
      </trkpt>
      <trkpt lat="49.94873" lon="2.13321">
        <ele>13.5</ele>
        <time>2023-06-28T09:15:11Z</time>
      </trkpt>
      <trkpt lat="49.94873" lon="2.13322">
        <ele>13.5</ele>
        <time>2023-06-28T09:15:12Z</time>
      </trkpt>
      <trkpt lat="49.94873" lon="2.13323">
        <ele>13.5</ele>
        <time>2023-06-28T09:15:13Z</time>
      </trkpt>
      <trkpt lat="49.94872" lon="2.13325">
        <ele>13.5</ele>
        <time>2023-06-28T09:15:14Z</time>
      </trkpt>
      <trkpt lat="49.94872" lon="2.13326">
        <ele>13.5</ele>
        <time>2023-06-28T09:15:15Z</time>
      </trkpt>
      <trkpt lat="49.94871" lon="2.13328">
        <ele>13.5</ele>
        <time>2023-06-28T09:15:16Z</time>
      </trkpt>
      <trkpt lat="49.94871" lon="2.13329">
        <ele>13.5</ele>
        <time>2023-06-28T09:15:17Z</time>
      </trkpt>
      <trkpt lat="49.94871" lon="2.13331">
        <ele>13.5</ele>
        <time>2023-06-28T09:15:18Z</time>
      </trkpt>
      <trkpt lat="49.9487" lon="2.13333">
        <ele>13.5</ele>
        <time>2023-06-28T09:15:19Z</time>
      </trkpt>
      <trkpt lat="49.9487" lon="2.13334">
        <ele>13.5</ele>
        <time>2023-06-28T09:15:20Z</time>
      </trkpt>
      <trkpt lat="49.94869" lon="2.13336">
        <ele>13.5</ele>
        <time>2023-06-28T09:15:21Z</time>
      </trkpt>
      <trkpt lat="49.94868" lon="2.13337">
        <ele>13.5</ele>
        <time>2023-06-28T09:15:22Z</time>
      </trkpt>
      <trkpt lat="49.94868" lon="2.13338">
        <ele>13.5</ele>
        <time>2023-06-28T09:15:23Z</time>
      </trkpt>
      <trkpt lat="49.94868" lon="2.1334">
        <ele>13.5</ele>
        <time>2023-06-28T09:15:24Z</time>
      </trkpt>
      <trkpt lat="49.94867" lon="2.13341">
        <ele>13.5</ele>
        <time>2023-06-28T09:15:25Z</time>
      </trkpt>
      <trkpt lat="49.94867" lon="2.13342">
        <ele>13.5</ele>
        <time>2023-06-28T09:15:26Z</time>
      </trkpt>
      <trkpt lat="49.94866" lon="2.13344">
        <ele>13.5</ele>
        <time>2023-06-28T09:15:27Z</time>
      </trkpt>
      <trkpt lat="49.94866" lon="2.13345">
        <ele>13.5</ele>
        <time>2023-06-28T09:15:28Z</time>
      </trkpt>
      <trkpt lat="49.94865" lon="2.13346">
        <ele>13.5</ele>
        <time>2023-06-28T09:15:29Z</time>
      </trkpt>
      <trkpt lat="49.94865" lon="2.13347">
        <ele>13.5</ele>
        <time>2023-06-28T09:15:30Z</time>
      </trkpt>
      <trkpt lat="49.94864" lon="2.13349">
        <ele>13.5</ele>
        <time>2023-06-28T09:15:31Z</time>
      </trkpt>
      <trkpt lat="49.94864" lon="2.1335">
        <ele>13.5</ele>
        <time>2023-06-28T09:15:32Z</time>
      </trkpt>
      <trkpt lat="49.94863" lon="2.13351">
        <ele>13.5</ele>
        <time>2023-06-28T09:15:33Z</time>
      </trkpt>
      <trkpt lat="49.94863" lon="2.13353">
        <ele>13.5</ele>
        <time>2023-06-28T09:15:34Z</time>
      </trkpt>
      <trkpt lat="49.94862" lon="2.13354">
        <ele>13.5</ele>
        <time>2023-06-28T09:15:35Z</time>
      </trkpt>
      <trkpt lat="49.94862" lon="2.13356">
        <ele>13.5</ele>
        <time>2023-06-28T09:15:36Z</time>
      </trkpt>
      <trkpt lat="49.94861" lon="2.13358">
        <ele>13.5</ele>
        <time>2023-06-28T09:15:37Z</time>
      </trkpt>
      <trkpt lat="49.9486" lon="2.1336">
        <ele>13.5</ele>
        <time>2023-06-28T09:15:38Z</time>
      </trkpt>
      <trkpt lat="49.9486" lon="2.13361">
        <ele>13.5</ele>
        <time>2023-06-28T09:15:39Z</time>
      </trkpt>
      <trkpt lat="49.94859" lon="2.13364">
        <ele>13.5</ele>
        <time>2023-06-28T09:15:40Z</time>
      </trkpt>
      <trkpt lat="49.94858" lon="2.13365">
        <ele>13.5</ele>
        <time>2023-06-28T09:15:41Z</time>
      </trkpt>
      <trkpt lat="49.94858" lon="2.13366">
        <ele>13.5</ele>
        <time>2023-06-28T09:15:42Z</time>
      </trkpt>
      <trkpt lat="49.94857" lon="2.13369">
        <ele>13.5</ele>
        <time>2023-06-28T09:15:43Z</time>
      </trkpt>
      <trkpt lat="49.94857" lon="2.1337">
        <ele>13.5</ele>
        <time>2023-06-28T09:15:44Z</time>
      </trkpt>
      <trkpt lat="49.94856" lon="2.13371">
        <ele>13.5</ele>
        <time>2023-06-28T09:15:45Z</time>
      </trkpt>
      <trkpt lat="49.94856" lon="2.13373">
        <ele>13.5</ele>
        <time>2023-06-28T09:15:46Z</time>
      </trkpt>
      <trkpt lat="49.94855" lon="2.13374">
        <ele>13.5</ele>
        <time>2023-06-28T09:15:47Z</time>
      </trkpt>
      <trkpt lat="49.94855" lon="2.13376">
        <ele>13.5</ele>
        <time>2023-06-28T09:15:48Z</time>
      </trkpt>
      <trkpt lat="49.94855" lon="2.13378">
        <ele>13.5</ele>
        <time>2023-06-28T09:15:49Z</time>
      </trkpt>
      <trkpt lat="49.94854" lon="2.1338">
        <ele>13.5</ele>
        <time>2023-06-28T09:15:50Z</time>
      </trkpt>
      <trkpt lat="49.94854" lon="2.13381">
        <ele>13.5</ele>
        <time>2023-06-28T09:15:51Z</time>
      </trkpt>
      <trkpt lat="49.94853" lon="2.13383">
        <ele>13.5</ele>
        <time>2023-06-28T09:15:52Z</time>
      </trkpt>
      <trkpt lat="49.94853" lon="2.13384">
        <ele>13.5</ele>
        <time>2023-06-28T09:15:53Z</time>
      </trkpt>
      <trkpt lat="49.94853" lon="2.13386">
        <ele>13.5</ele>
        <time>2023-06-28T09:15:54Z</time>
      </trkpt>
      <trkpt lat="49.94852" lon="2.13387">
        <ele>13.5</ele>
        <time>2023-06-28T09:15:55Z</time>
      </trkpt>
      <trkpt lat="49.94852" lon="2.13389">
        <ele>13.5</ele>
        <time>2023-06-28T09:15:56Z</time>
      </trkpt>
      <trkpt lat="49.94852" lon="2.13391">
        <ele>13.5</ele>
        <time>2023-06-28T09:15:57Z</time>
      </trkpt>
      <trkpt lat="49.94852" lon="2.13392">
        <ele>13.5</ele>
        <time>2023-06-28T09:15:58Z</time>
      </trkpt>
      <trkpt lat="49.94852" lon="2.13394">
        <ele>13.5</ele>
        <time>2023-06-28T09:15:59Z</time>
      </trkpt>
      <trkpt lat="49.94852" lon="2.13396">
        <ele>13.5</ele>
        <time>2023-06-28T09:16:00Z</time>
      </trkpt>
      <trkpt lat="49.94852" lon="2.13398">
        <ele>13.5</ele>
        <time>2023-06-28T09:16:01Z</time>
      </trkpt>
      <trkpt lat="49.94852" lon="2.13399">
        <ele>13.5</ele>
        <time>2023-06-28T09:16:02Z</time>
      </trkpt>
      <trkpt lat="49.94853" lon="2.13401">
        <ele>13.5</ele>
        <time>2023-06-28T09:16:03Z</time>
      </trkpt>
      <trkpt lat="49.94853" lon="2.13404">
        <ele>13.5</ele>
        <time>2023-06-28T09:16:04Z</time>
      </trkpt>
      <trkpt lat="49.94853" lon="2.13406">
        <ele>13.5</ele>
        <time>2023-06-28T09:16:05Z</time>
      </trkpt>
      <trkpt lat="49.94853" lon="2.13407">
        <ele>13.5</ele>
        <time>2023-06-28T09:16:06Z</time>
      </trkpt>
      <trkpt lat="49.94854" lon="2.13409">
        <ele>13.5</ele>
        <time>2023-06-28T09:16:07Z</time>
      </trkpt>
      <trkpt lat="49.94854" lon="2.1341">
        <ele>13.5</ele>
        <time>2023-06-28T09:16:08Z</time>
      </trkpt>
      <trkpt lat="49.94854" lon="2.13412">
        <ele>13.4</ele>
        <time>2023-06-28T09:16:09Z</time>
      </trkpt>
      <trkpt lat="49.94854" lon="2.13414">
        <ele>13.4</ele>
        <time>2023-06-28T09:16:10Z</time>
      </trkpt>
      <trkpt lat="49.94854" lon="2.13416">
        <ele>13.4</ele>
        <time>2023-06-28T09:16:11Z</time>
      </trkpt>
      <trkpt lat="49.94854" lon="2.13417">
        <ele>13.4</ele>
        <time>2023-06-28T09:16:12Z</time>
      </trkpt>
      <trkpt lat="49.94854" lon="2.13418">
        <ele>13.4</ele>
        <time>2023-06-28T09:16:13Z</time>
      </trkpt>
      <trkpt lat="49.94855" lon="2.1342">
        <ele>13.4</ele>
        <time>2023-06-28T09:16:14Z</time>
      </trkpt>
      <trkpt lat="49.94855" lon="2.13422">
        <ele>13.4</ele>
        <time>2023-06-28T09:16:15Z</time>
      </trkpt>
      <trkpt lat="49.94855" lon="2.13425">
        <ele>13.4</ele>
        <time>2023-06-28T09:16:16Z</time>
      </trkpt>
      <trkpt lat="49.94856" lon="2.13427">
        <ele>13.4</ele>
        <time>2023-06-28T09:16:17Z</time>
      </trkpt>
      <trkpt lat="49.94856" lon="2.13429">
        <ele>13.4</ele>
        <time>2023-06-28T09:16:18Z</time>
      </trkpt>
      <trkpt lat="49.94856" lon="2.13432">
        <ele>13.4</ele>
        <time>2023-06-28T09:16:19Z</time>
      </trkpt>
      <trkpt lat="49.94857" lon="2.13435">
        <ele>13.4</ele>
        <time>2023-06-28T09:16:20Z</time>
      </trkpt>
      <trkpt lat="49.94857" lon="2.13437">
        <ele>13.4</ele>
        <time>2023-06-28T09:16:21Z</time>
      </trkpt>
      <trkpt lat="49.94857" lon="2.13438">
        <ele>13.4</ele>
        <time>2023-06-28T09:16:22Z</time>
      </trkpt>
      <trkpt lat="49.94858" lon="2.1344">
        <ele>13.4</ele>
        <time>2023-06-28T09:16:23Z</time>
      </trkpt>
      <trkpt lat="49.94858" lon="2.13442">
        <ele>13.4</ele>
        <time>2023-06-28T09:16:24Z</time>
      </trkpt>
      <trkpt lat="49.94858" lon="2.13446">
        <ele>13.4</ele>
        <time>2023-06-28T09:16:25Z</time>
      </trkpt>
      <trkpt lat="49.94859" lon="2.13447">
        <ele>13.4</ele>
        <time>2023-06-28T09:16:26Z</time>
      </trkpt>
      <trkpt lat="49.94859" lon="2.13448">
        <ele>13.4</ele>
        <time>2023-06-28T09:16:27Z</time>
      </trkpt>
      <trkpt lat="49.94859" lon="2.13452">
        <ele>13.5</ele>
        <time>2023-06-28T09:16:28Z</time>
      </trkpt>
      <trkpt lat="49.94859" lon="2.13453">
        <ele>13.5</ele>
        <time>2023-06-28T09:16:29Z</time>
      </trkpt>
      <trkpt lat="49.94859" lon="2.13455">
        <ele>13.5</ele>
        <time>2023-06-28T09:16:30Z</time>
      </trkpt>
      <trkpt lat="49.94859" lon="2.13457">
        <ele>13.5</ele>
        <time>2023-06-28T09:16:31Z</time>
      </trkpt>
      <trkpt lat="49.94859" lon="2.13458">
        <ele>13.5</ele>
        <time>2023-06-28T09:16:32Z</time>
      </trkpt>
      <trkpt lat="49.94859" lon="2.1346">
        <ele>13.5</ele>
        <time>2023-06-28T09:16:33Z</time>
      </trkpt>
      <trkpt lat="49.94859" lon="2.13462">
        <ele>13.5</ele>
        <time>2023-06-28T09:16:34Z</time>
      </trkpt>
      <trkpt lat="49.9486" lon="2.13463">
        <ele>13.5</ele>
        <time>2023-06-28T09:16:35Z</time>
      </trkpt>
      <trkpt lat="49.9486" lon="2.13465">
        <ele>13.5</ele>
        <time>2023-06-28T09:16:36Z</time>
      </trkpt>
      <trkpt lat="49.9486" lon="2.13469">
        <ele>13.5</ele>
        <time>2023-06-28T09:16:37Z</time>
      </trkpt>
      <trkpt lat="49.9486" lon="2.1347">
        <ele>13.5</ele>
        <time>2023-06-28T09:16:38Z</time>
      </trkpt>
      <trkpt lat="49.9486" lon="2.13471">
        <ele>13.5</ele>
        <time>2023-06-28T09:16:39Z</time>
      </trkpt>
      <trkpt lat="49.9486" lon="2.13473">
        <ele>13.5</ele>
        <time>2023-06-28T09:16:40Z</time>
      </trkpt>
      <trkpt lat="49.9486" lon="2.13475">
        <ele>13.5</ele>
        <time>2023-06-28T09:16:41Z</time>
      </trkpt>
      <trkpt lat="49.9486" lon="2.13479">
        <ele>13.5</ele>
        <time>2023-06-28T09:16:42Z</time>
      </trkpt>
      <trkpt lat="49.9486" lon="2.1348">
        <ele>13.5</ele>
        <time>2023-06-28T09:16:43Z</time>
      </trkpt>
      <trkpt lat="49.9486" lon="2.13481">
        <ele>13.5</ele>
        <time>2023-06-28T09:16:44Z</time>
      </trkpt>
      <trkpt lat="49.9486" lon="2.13485">
        <ele>13.5</ele>
        <time>2023-06-28T09:16:45Z</time>
      </trkpt>
      <trkpt lat="49.9486" lon="2.13486">
        <ele>13.5</ele>
        <time>2023-06-28T09:16:46Z</time>
      </trkpt>
      <trkpt lat="49.9486" lon="2.13487">
        <ele>13.5</ele>
        <time>2023-06-28T09:16:47Z</time>
      </trkpt>
      <trkpt lat="49.9486" lon="2.13489">
        <ele>13.5</ele>
        <time>2023-06-28T09:16:48Z</time>
      </trkpt>
      <trkpt lat="49.94861" lon="2.13492">
        <ele>13.5</ele>
        <time>2023-06-28T09:16:49Z</time>
      </trkpt>
      <trkpt lat="49.94861" lon="2.13494">
        <ele>13.5</ele>
        <time>2023-06-28T09:16:50Z</time>
      </trkpt>
      <trkpt lat="49.94861" lon="2.13496">
        <ele>13.5</ele>
        <time>2023-06-28T09:16:51Z</time>
      </trkpt>
      <trkpt lat="49.94861" lon="2.13498">
        <ele>13.5</ele>
        <time>2023-06-28T09:16:52Z</time>
      </trkpt>
      <trkpt lat="49.94861" lon="2.135">
        <ele>13.5</ele>
        <time>2023-06-28T09:16:53Z</time>
      </trkpt>
      <trkpt lat="49.94861" lon="2.13502">
        <ele>13.5</ele>
        <time>2023-06-28T09:16:54Z</time>
      </trkpt>
      <trkpt lat="49.9486" lon="2.13504">
        <ele>13.5</ele>
        <time>2023-06-28T09:16:55Z</time>
      </trkpt>
      <trkpt lat="49.9486" lon="2.13506">
        <ele>13.5</ele>
        <time>2023-06-28T09:16:56Z</time>
      </trkpt>
      <trkpt lat="49.9486" lon="2.13509">
        <ele>13.5</ele>
        <time>2023-06-28T09:16:57Z</time>
      </trkpt>
      <trkpt lat="49.9486" lon="2.13511">
        <ele>13.5</ele>
        <time>2023-06-28T09:16:58Z</time>
      </trkpt>
      <trkpt lat="49.9486" lon="2.13512">
        <ele>13.5</ele>
        <time>2023-06-28T09:16:59Z</time>
      </trkpt>
      <trkpt lat="49.94859" lon="2.13515">
        <ele>13.5</ele>
        <time>2023-06-28T09:17:00Z</time>
      </trkpt>
      <trkpt lat="49.94859" lon="2.13516">
        <ele>13.5</ele>
        <time>2023-06-28T09:17:01Z</time>
      </trkpt>
      <trkpt lat="49.94859" lon="2.13518">
        <ele>13.5</ele>
        <time>2023-06-28T09:17:02Z</time>
      </trkpt>
      <trkpt lat="49.94859" lon="2.13523">
        <ele>13.5</ele>
        <time>2023-06-28T09:17:04Z</time>
      </trkpt>
      <trkpt lat="49.94859" lon="2.13524">
        <ele>13.5</ele>
        <time>2023-06-28T09:17:05Z</time>
      </trkpt>
      <trkpt lat="49.94858" lon="2.13526">
        <ele>13.5</ele>
        <time>2023-06-28T09:17:06Z</time>
      </trkpt>
      <trkpt lat="49.94858" lon="2.13528">
        <ele>13.5</ele>
        <time>2023-06-28T09:17:07Z</time>
      </trkpt>
      <trkpt lat="49.94857" lon="2.13531">
        <ele>13.5</ele>
        <time>2023-06-28T09:17:08Z</time>
      </trkpt>
      <trkpt lat="49.94856" lon="2.13532">
        <ele>13.5</ele>
        <time>2023-06-28T09:17:09Z</time>
      </trkpt>
      <trkpt lat="49.94856" lon="2.13534">
        <ele>13.5</ele>
        <time>2023-06-28T09:17:10Z</time>
      </trkpt>
      <trkpt lat="49.94856" lon="2.13535">
        <ele>13.5</ele>
        <time>2023-06-28T09:17:11Z</time>
      </trkpt>
      <trkpt lat="49.94855" lon="2.13536">
        <ele>13.5</ele>
        <time>2023-06-28T09:17:12Z</time>
      </trkpt>
      <trkpt lat="49.94855" lon="2.13537">
        <ele>13.5</ele>
        <time>2023-06-28T09:17:13Z</time>
      </trkpt>
      <trkpt lat="49.94854" lon="2.13539">
        <ele>13.5</ele>
        <time>2023-06-28T09:17:14Z</time>
      </trkpt>
      <trkpt lat="49.94854" lon="2.13541">
        <ele>13.5</ele>
        <time>2023-06-28T09:17:15Z</time>
      </trkpt>
      <trkpt lat="49.94853" lon="2.13542">
        <ele>13.5</ele>
        <time>2023-06-28T09:17:16Z</time>
      </trkpt>
      <trkpt lat="49.94853" lon="2.13543">
        <ele>13.5</ele>
        <time>2023-06-28T09:17:17Z</time>
      </trkpt>
      <trkpt lat="49.94853" lon="2.13545">
        <ele>13.5</ele>
        <time>2023-06-28T09:17:18Z</time>
      </trkpt>
      <trkpt lat="49.94852" lon="2.13546">
        <ele>13.5</ele>
        <time>2023-06-28T09:17:19Z</time>
      </trkpt>
      <trkpt lat="49.94852" lon="2.13549">
        <ele>13.5</ele>
        <time>2023-06-28T09:17:20Z</time>
      </trkpt>
      <trkpt lat="49.94852" lon="2.13551">
        <ele>13.5</ele>
        <time>2023-06-28T09:17:21Z</time>
      </trkpt>
      <trkpt lat="49.94851" lon="2.13552">
        <ele>13.5</ele>
        <time>2023-06-28T09:17:22Z</time>
      </trkpt>
      <trkpt lat="49.94851" lon="2.13555">
        <ele>13.5</ele>
        <time>2023-06-28T09:17:23Z</time>
      </trkpt>
      <trkpt lat="49.94851" lon="2.13556">
        <ele>13.5</ele>
        <time>2023-06-28T09:17:24Z</time>
      </trkpt>
      <trkpt lat="49.94851" lon="2.13558">
        <ele>13.5</ele>
        <time>2023-06-28T09:17:25Z</time>
      </trkpt>
      <trkpt lat="49.94851" lon="2.1356">
        <ele>13.5</ele>
        <time>2023-06-28T09:17:26Z</time>
      </trkpt>
      <trkpt lat="49.9485" lon="2.13561">
        <ele>13.5</ele>
        <time>2023-06-28T09:17:27Z</time>
      </trkpt>
      <trkpt lat="49.9485" lon="2.13563">
        <ele>13.5</ele>
        <time>2023-06-28T09:17:28Z</time>
      </trkpt>
      <trkpt lat="49.9485" lon="2.13565">
        <ele>13.5</ele>
        <time>2023-06-28T09:17:29Z</time>
      </trkpt>
      <trkpt lat="49.9485" lon="2.13566">
        <ele>13.5</ele>
        <time>2023-06-28T09:17:30Z</time>
      </trkpt>
      <trkpt lat="49.94849" lon="2.13567">
        <ele>13.5</ele>
        <time>2023-06-28T09:17:31Z</time>
      </trkpt>
      <trkpt lat="49.94849" lon="2.13569">
        <ele>13.5</ele>
        <time>2023-06-28T09:17:32Z</time>
      </trkpt>
      <trkpt lat="49.94849" lon="2.1357">
        <ele>13.5</ele>
        <time>2023-06-28T09:17:33Z</time>
      </trkpt>
      <trkpt lat="49.94849" lon="2.13571">
        <ele>13.5</ele>
        <time>2023-06-28T09:17:34Z</time>
      </trkpt>
      <trkpt lat="49.94849" lon="2.13573">
        <ele>13.5</ele>
        <time>2023-06-28T09:17:35Z</time>
      </trkpt>
      <trkpt lat="49.94849" lon="2.13574">
        <ele>13.5</ele>
        <time>2023-06-28T09:17:36Z</time>
      </trkpt>
      <trkpt lat="49.94848" lon="2.13575">
        <ele>13.5</ele>
        <time>2023-06-28T09:17:37Z</time>
      </trkpt>
      <trkpt lat="49.94848" lon="2.13576">
        <ele>13.5</ele>
        <time>2023-06-28T09:17:38Z</time>
      </trkpt>
      <trkpt lat="49.94848" lon="2.13578">
        <ele>13.5</ele>
        <time>2023-06-28T09:17:39Z</time>
      </trkpt>
      <trkpt lat="49.94848" lon="2.13579">
        <ele>13.5</ele>
        <time>2023-06-28T09:17:40Z</time>
      </trkpt>
      <trkpt lat="49.94847" lon="2.13581">
        <ele>13.5</ele>
        <time>2023-06-28T09:17:41Z</time>
      </trkpt>
      <trkpt lat="49.94847" lon="2.13583">
        <ele>13.5</ele>
        <time>2023-06-28T09:17:42Z</time>
      </trkpt>
      <trkpt lat="49.94847" lon="2.13585">
        <ele>13.5</ele>
        <time>2023-06-28T09:17:43Z</time>
      </trkpt>
      <trkpt lat="49.94847" lon="2.13586">
        <ele>13.5</ele>
        <time>2023-06-28T09:17:44Z</time>
      </trkpt>
      <trkpt lat="49.94846" lon="2.13588">
        <ele>13.5</ele>
        <time>2023-06-28T09:17:45Z</time>
      </trkpt>
      <trkpt lat="49.94846" lon="2.1359">
        <ele>13.5</ele>
        <time>2023-06-28T09:17:46Z</time>
      </trkpt>
      <trkpt lat="49.94846" lon="2.13591">
        <ele>13.5</ele>
        <time>2023-06-28T09:17:47Z</time>
      </trkpt>
      <trkpt lat="49.94846" lon="2.13593">
        <ele>13.5</ele>
        <time>2023-06-28T09:17:48Z</time>
      </trkpt>
      <trkpt lat="49.94846" lon="2.13596">
        <ele>13.5</ele>
        <time>2023-06-28T09:17:49Z</time>
      </trkpt>
      <trkpt lat="49.94845" lon="2.13598">
        <ele>13.5</ele>
        <time>2023-06-28T09:17:50Z</time>
      </trkpt>
      <trkpt lat="49.94845" lon="2.13599">
        <ele>13.5</ele>
        <time>2023-06-28T09:17:51Z</time>
      </trkpt>
      <trkpt lat="49.94845" lon="2.13601">
        <ele>13.5</ele>
        <time>2023-06-28T09:17:52Z</time>
      </trkpt>
      <trkpt lat="49.94845" lon="2.13603">
        <ele>13.5</ele>
        <time>2023-06-28T09:17:53Z</time>
      </trkpt>
      <trkpt lat="49.94845" lon="2.13604">
        <ele>13.5</ele>
        <time>2023-06-28T09:17:54Z</time>
      </trkpt>
      <trkpt lat="49.94844" lon="2.13606">
        <ele>13.5</ele>
        <time>2023-06-28T09:17:55Z</time>
      </trkpt>
      <trkpt lat="49.94844" lon="2.13607">
        <ele>13.5</ele>
        <time>2023-06-28T09:17:56Z</time>
      </trkpt>
      <trkpt lat="49.94844" lon="2.13609">
        <ele>13.5</ele>
        <time>2023-06-28T09:17:57Z</time>
      </trkpt>
      <trkpt lat="49.94844" lon="2.13611">
        <ele>13.5</ele>
        <time>2023-06-28T09:17:58Z</time>
      </trkpt>
      <trkpt lat="49.94844" lon="2.13612">
        <ele>13.5</ele>
        <time>2023-06-28T09:17:59Z</time>
      </trkpt>
      <trkpt lat="49.94843" lon="2.13614">
        <ele>13.5</ele>
        <time>2023-06-28T09:18:00Z</time>
      </trkpt>
      <trkpt lat="49.94843" lon="2.13615">
        <ele>13.5</ele>
        <time>2023-06-28T09:18:01Z</time>
      </trkpt>
      <trkpt lat="49.94843" lon="2.13616">
        <ele>13.5</ele>
        <time>2023-06-28T09:18:02Z</time>
      </trkpt>
      <trkpt lat="49.94843" lon="2.13618">
        <ele>13.5</ele>
        <time>2023-06-28T09:18:03Z</time>
      </trkpt>
      <trkpt lat="49.94842" lon="2.1362">
        <ele>13.5</ele>
        <time>2023-06-28T09:18:04Z</time>
      </trkpt>
      <trkpt lat="49.94842" lon="2.13622">
        <ele>13.5</ele>
        <time>2023-06-28T09:18:05Z</time>
      </trkpt>
      <trkpt lat="49.94842" lon="2.13624">
        <ele>13.5</ele>
        <time>2023-06-28T09:18:06Z</time>
      </trkpt>
      <trkpt lat="49.94841" lon="2.13625">
        <ele>13.5</ele>
        <time>2023-06-28T09:18:07Z</time>
      </trkpt>
      <trkpt lat="49.94841" lon="2.13627">
        <ele>13.5</ele>
        <time>2023-06-28T09:18:08Z</time>
      </trkpt>
      <trkpt lat="49.94841" lon="2.13629">
        <ele>13.4</ele>
        <time>2023-06-28T09:18:09Z</time>
      </trkpt>
      <trkpt lat="49.94841" lon="2.13631">
        <ele>13.4</ele>
        <time>2023-06-28T09:18:10Z</time>
      </trkpt>
      <trkpt lat="49.94841" lon="2.13632">
        <ele>13.4</ele>
        <time>2023-06-28T09:18:11Z</time>
      </trkpt>
      <trkpt lat="49.9484" lon="2.13634">
        <ele>13.4</ele>
        <time>2023-06-28T09:18:12Z</time>
      </trkpt>
      <trkpt lat="49.9484" lon="2.13635">
        <ele>13.4</ele>
        <time>2023-06-28T09:18:13Z</time>
      </trkpt>
      <trkpt lat="49.9484" lon="2.13637">
        <ele>13.4</ele>
        <time>2023-06-28T09:18:14Z</time>
      </trkpt>
      <trkpt lat="49.9484" lon="2.13638">
        <ele>13.4</ele>
        <time>2023-06-28T09:18:15Z</time>
      </trkpt>
      <trkpt lat="49.9484" lon="2.1364">
        <ele>13.4</ele>
        <time>2023-06-28T09:18:16Z</time>
      </trkpt>
      <trkpt lat="49.94839" lon="2.13641">
        <ele>13.4</ele>
        <time>2023-06-28T09:18:17Z</time>
      </trkpt>
      <trkpt lat="49.94839" lon="2.13642">
        <ele>13.4</ele>
        <time>2023-06-28T09:18:18Z</time>
      </trkpt>
      <trkpt lat="49.94839" lon="2.13644">
        <ele>13.4</ele>
        <time>2023-06-28T09:18:19Z</time>
      </trkpt>
      <trkpt lat="49.94839" lon="2.13645">
        <ele>13.4</ele>
        <time>2023-06-28T09:18:20Z</time>
      </trkpt>
      <trkpt lat="49.94839" lon="2.13647">
        <ele>13.4</ele>
        <time>2023-06-28T09:18:21Z</time>
      </trkpt>
      <trkpt lat="49.94839" lon="2.13648">
        <ele>13.4</ele>
        <time>2023-06-28T09:18:22Z</time>
      </trkpt>
      <trkpt lat="49.94839" lon="2.1365">
        <ele>13.4</ele>
        <time>2023-06-28T09:18:23Z</time>
      </trkpt>
      <trkpt lat="49.94839" lon="2.13651">
        <ele>13.4</ele>
        <time>2023-06-28T09:18:24Z</time>
      </trkpt>
      <trkpt lat="49.94839" lon="2.13653">
        <ele>13.4</ele>
        <time>2023-06-28T09:18:25Z</time>
      </trkpt>
      <trkpt lat="49.94839" lon="2.13656">
        <ele>13.4</ele>
        <time>2023-06-28T09:18:26Z</time>
      </trkpt>
      <trkpt lat="49.94838" lon="2.13658">
        <ele>13.4</ele>
        <time>2023-06-28T09:18:27Z</time>
      </trkpt>
      <trkpt lat="49.94838" lon="2.13659">
        <ele>13.4</ele>
        <time>2023-06-28T09:18:28Z</time>
      </trkpt>
      <trkpt lat="49.94838" lon="2.13662">
        <ele>13.4</ele>
        <time>2023-06-28T09:18:29Z</time>
      </trkpt>
      <trkpt lat="49.94838" lon="2.13664">
        <ele>13.4</ele>
        <time>2023-06-28T09:18:30Z</time>
      </trkpt>
      <trkpt lat="49.94838" lon="2.13666">
        <ele>13.4</ele>
        <time>2023-06-28T09:18:31Z</time>
      </trkpt>
      <trkpt lat="49.94838" lon="2.13668">
        <ele>13.4</ele>
        <time>2023-06-28T09:18:32Z</time>
      </trkpt>
      <trkpt lat="49.94838" lon="2.1367">
        <ele>13.4</ele>
        <time>2023-06-28T09:18:33Z</time>
      </trkpt>
      <trkpt lat="49.94838" lon="2.13672">
        <ele>13.4</ele>
        <time>2023-06-28T09:18:34Z</time>
      </trkpt>
      <trkpt lat="49.94838" lon="2.13674">
        <ele>13.4</ele>
        <time>2023-06-28T09:18:35Z</time>
      </trkpt>
      <trkpt lat="49.94838" lon="2.13677">
        <ele>13.4</ele>
        <time>2023-06-28T09:18:36Z</time>
      </trkpt>
      <trkpt lat="49.94837" lon="2.13678">
        <ele>13.4</ele>
        <time>2023-06-28T09:18:37Z</time>
      </trkpt>
      <trkpt lat="49.94837" lon="2.13679">
        <ele>13.4</ele>
        <time>2023-06-28T09:18:38Z</time>
      </trkpt>
      <trkpt lat="49.94837" lon="2.13683">
        <ele>13.4</ele>
        <time>2023-06-28T09:18:39Z</time>
      </trkpt>
      <trkpt lat="49.94837" lon="2.13684">
        <ele>13.4</ele>
        <time>2023-06-28T09:18:40Z</time>
      </trkpt>
      <trkpt lat="49.94837" lon="2.13685">
        <ele>13.4</ele>
        <time>2023-06-28T09:18:41Z</time>
      </trkpt>
      <trkpt lat="49.94837" lon="2.13688">
        <ele>13.4</ele>
        <time>2023-06-28T09:18:42Z</time>
      </trkpt>
      <trkpt lat="49.94837" lon="2.13691">
        <ele>13.4</ele>
        <time>2023-06-28T09:18:43Z</time>
      </trkpt>
      <trkpt lat="49.94836" lon="2.13693">
        <ele>13.4</ele>
        <time>2023-06-28T09:18:44Z</time>
      </trkpt>
      <trkpt lat="49.94836" lon="2.13696">
        <ele>13.4</ele>
        <time>2023-06-28T09:18:45Z</time>
      </trkpt>
      <trkpt lat="49.94836" lon="2.13698">
        <ele>13.4</ele>
        <time>2023-06-28T09:18:46Z</time>
      </trkpt>
      <trkpt lat="49.94835" lon="2.137">
        <ele>13.4</ele>
        <time>2023-06-28T09:18:47Z</time>
      </trkpt>
      <trkpt lat="49.94835" lon="2.13702">
        <ele>13.4</ele>
        <time>2023-06-28T09:18:48Z</time>
      </trkpt>
      <trkpt lat="49.94835" lon="2.13703">
        <ele>13.4</ele>
        <time>2023-06-28T09:18:49Z</time>
      </trkpt>
      <trkpt lat="49.94835" lon="2.13704">
        <ele>13.4</ele>
        <time>2023-06-28T09:18:50Z</time>
      </trkpt>
      <trkpt lat="49.94834" lon="2.13705">
        <ele>13.4</ele>
        <time>2023-06-28T09:18:51Z</time>
      </trkpt>
      <trkpt lat="49.94834" lon="2.13707">
        <ele>13.4</ele>
        <time>2023-06-28T09:18:52Z</time>
      </trkpt>
      <trkpt lat="49.94834" lon="2.13708">
        <ele>13.4</ele>
        <time>2023-06-28T09:18:53Z</time>
      </trkpt>
      <trkpt lat="49.94834" lon="2.1371">
        <ele>13.4</ele>
        <time>2023-06-28T09:18:54Z</time>
      </trkpt>
      <trkpt lat="49.94834" lon="2.13711">
        <ele>13.4</ele>
        <time>2023-06-28T09:18:55Z</time>
      </trkpt>
      <trkpt lat="49.94834" lon="2.13713">
        <ele>13.4</ele>
        <time>2023-06-28T09:18:56Z</time>
      </trkpt>
      <trkpt lat="49.94834" lon="2.13715">
        <ele>13.4</ele>
        <time>2023-06-28T09:18:57Z</time>
      </trkpt>
      <trkpt lat="49.94834" lon="2.13716">
        <ele>13.4</ele>
        <time>2023-06-28T09:18:58Z</time>
      </trkpt>
      <trkpt lat="49.94833" lon="2.13718">
        <ele>13.4</ele>
        <time>2023-06-28T09:18:59Z</time>
      </trkpt>
      <trkpt lat="49.94833" lon="2.1372">
        <ele>13.4</ele>
        <time>2023-06-28T09:19:00Z</time>
      </trkpt>
      <trkpt lat="49.94833" lon="2.13721">
        <ele>13.4</ele>
        <time>2023-06-28T09:19:01Z</time>
      </trkpt>
      <trkpt lat="49.94833" lon="2.13722">
        <ele>13.4</ele>
        <time>2023-06-28T09:19:02Z</time>
      </trkpt>
      <trkpt lat="49.94833" lon="2.13723">
        <ele>13.4</ele>
        <time>2023-06-28T09:19:03Z</time>
      </trkpt>
      <trkpt lat="49.94833" lon="2.13725">
        <ele>13.4</ele>
        <time>2023-06-28T09:19:04Z</time>
      </trkpt>
      <trkpt lat="49.94833" lon="2.13726">
        <ele>13.4</ele>
        <time>2023-06-28T09:19:05Z</time>
      </trkpt>
      <trkpt lat="49.94833" lon="2.13727">
        <ele>13.4</ele>
        <time>2023-06-28T09:19:06Z</time>
      </trkpt>
      <trkpt lat="49.94833" lon="2.13729">
        <ele>13.4</ele>
        <time>2023-06-28T09:19:07Z</time>
      </trkpt>
      <trkpt lat="49.94833" lon="2.1373">
        <ele>13.4</ele>
        <time>2023-06-28T09:19:08Z</time>
      </trkpt>
      <trkpt lat="49.94833" lon="2.13731">
        <ele>13.4</ele>
        <time>2023-06-28T09:19:09Z</time>
      </trkpt>
      <trkpt lat="49.94833" lon="2.13732">
        <ele>13.4</ele>
        <time>2023-06-28T09:19:10Z</time>
      </trkpt>
      <trkpt lat="49.94832" lon="2.13734">
        <ele>13.4</ele>
        <time>2023-06-28T09:19:11Z</time>
      </trkpt>
      <trkpt lat="49.94832" lon="2.13736">
        <ele>13.3</ele>
        <time>2023-06-28T09:19:12Z</time>
      </trkpt>
      <trkpt lat="49.94832" lon="2.13737">
        <ele>13.3</ele>
        <time>2023-06-28T09:19:13Z</time>
      </trkpt>
      <trkpt lat="49.94832" lon="2.13739">
        <ele>13.3</ele>
        <time>2023-06-28T09:19:14Z</time>
      </trkpt>
      <trkpt lat="49.94831" lon="2.1374">
        <ele>13.3</ele>
        <time>2023-06-28T09:19:15Z</time>
      </trkpt>
      <trkpt lat="49.94831" lon="2.13742">
        <ele>13.3</ele>
        <time>2023-06-28T09:19:16Z</time>
      </trkpt>
      <trkpt lat="49.94831" lon="2.13743">
        <ele>13.3</ele>
        <time>2023-06-28T09:19:17Z</time>
      </trkpt>
      <trkpt lat="49.9483" lon="2.13744">
        <ele>13.3</ele>
        <time>2023-06-28T09:19:18Z</time>
      </trkpt>
      <trkpt lat="49.9483" lon="2.13745">
        <ele>13.3</ele>
        <time>2023-06-28T09:19:19Z</time>
      </trkpt>
      <trkpt lat="49.9483" lon="2.13746">
        <ele>13.3</ele>
        <time>2023-06-28T09:19:20Z</time>
      </trkpt>
      <trkpt lat="49.94829" lon="2.13747">
        <ele>13.3</ele>
        <time>2023-06-28T09:19:21Z</time>
      </trkpt>
      <trkpt lat="49.94829" lon="2.13749">
        <ele>13.3</ele>
        <time>2023-06-28T09:19:22Z</time>
      </trkpt>
      <trkpt lat="49.94828" lon="2.1375">
        <ele>13.3</ele>
        <time>2023-06-28T09:19:23Z</time>
      </trkpt>
      <trkpt lat="49.94828" lon="2.13752">
        <ele>13.3</ele>
        <time>2023-06-28T09:19:24Z</time>
      </trkpt>
      <trkpt lat="49.94828" lon="2.13753">
        <ele>13.3</ele>
        <time>2023-06-28T09:19:25Z</time>
      </trkpt>
      <trkpt lat="49.94827" lon="2.13755">
        <ele>13.3</ele>
        <time>2023-06-28T09:19:26Z</time>
      </trkpt>
      <trkpt lat="49.94827" lon="2.13756">
        <ele>13.3</ele>
        <time>2023-06-28T09:19:27Z</time>
      </trkpt>
      <trkpt lat="49.94827" lon="2.13757">
        <ele>13.3</ele>
        <time>2023-06-28T09:19:28Z</time>
      </trkpt>
      <trkpt lat="49.94827" lon="2.13759">
        <ele>13.3</ele>
        <time>2023-06-28T09:19:29Z</time>
      </trkpt>
      <trkpt lat="49.94827" lon="2.1376">
        <ele>13.3</ele>
        <time>2023-06-28T09:19:30Z</time>
      </trkpt>
      <trkpt lat="49.94826" lon="2.13762">
        <ele>13.3</ele>
        <time>2023-06-28T09:19:31Z</time>
      </trkpt>
      <trkpt lat="49.94826" lon="2.13763">
        <ele>13.3</ele>
        <time>2023-06-28T09:19:32Z</time>
      </trkpt>
      <trkpt lat="49.94826" lon="2.13765">
        <ele>13.3</ele>
        <time>2023-06-28T09:19:33Z</time>
      </trkpt>
      <trkpt lat="49.94826" lon="2.13766">
        <ele>13.3</ele>
        <time>2023-06-28T09:19:34Z</time>
      </trkpt>
      <trkpt lat="49.94825" lon="2.13768">
        <ele>13.3</ele>
        <time>2023-06-28T09:19:35Z</time>
      </trkpt>
      <trkpt lat="49.94825" lon="2.1377">
        <ele>13.3</ele>
        <time>2023-06-28T09:19:36Z</time>
      </trkpt>
      <trkpt lat="49.94824" lon="2.13772">
        <ele>13.3</ele>
        <time>2023-06-28T09:19:37Z</time>
      </trkpt>
      <trkpt lat="49.94824" lon="2.13773">
        <ele>13.3</ele>
        <time>2023-06-28T09:19:38Z</time>
      </trkpt>
      <trkpt lat="49.94823" lon="2.13775">
        <ele>13.3</ele>
        <time>2023-06-28T09:19:39Z</time>
      </trkpt>
      <trkpt lat="49.94823" lon="2.13777">
        <ele>13.3</ele>
        <time>2023-06-28T09:19:40Z</time>
      </trkpt>
      <trkpt lat="49.94822" lon="2.13778">
        <ele>13.3</ele>
        <time>2023-06-28T09:19:41Z</time>
      </trkpt>
      <trkpt lat="49.94822" lon="2.13779">
        <ele>13.3</ele>
        <time>2023-06-28T09:19:42Z</time>
      </trkpt>
      <trkpt lat="49.94822" lon="2.1378">
        <ele>13.3</ele>
        <time>2023-06-28T09:19:43Z</time>
      </trkpt>
      <trkpt lat="49.94821" lon="2.13781">
        <ele>13.4</ele>
        <time>2023-06-28T09:19:44Z</time>
      </trkpt>
      <trkpt lat="49.94821" lon="2.13783">
        <ele>13.4</ele>
        <time>2023-06-28T09:19:45Z</time>
      </trkpt>
      <trkpt lat="49.9482" lon="2.13784">
        <ele>13.4</ele>
        <time>2023-06-28T09:19:46Z</time>
      </trkpt>
      <trkpt lat="49.9482" lon="2.13787">
        <ele>13.4</ele>
        <time>2023-06-28T09:19:47Z</time>
      </trkpt>
      <trkpt lat="49.94819" lon="2.13788">
        <ele>13.4</ele>
        <time>2023-06-28T09:19:48Z</time>
      </trkpt>
      <trkpt lat="49.94819" lon="2.13789">
        <ele>13.4</ele>
        <time>2023-06-28T09:19:49Z</time>
      </trkpt>
      <trkpt lat="49.94818" lon="2.13792">
        <ele>13.4</ele>
        <time>2023-06-28T09:19:50Z</time>
      </trkpt>
      <trkpt lat="49.94818" lon="2.13794">
        <ele>13.4</ele>
        <time>2023-06-28T09:19:51Z</time>
      </trkpt>
      <trkpt lat="49.94817" lon="2.13795">
        <ele>13.4</ele>
        <time>2023-06-28T09:19:52Z</time>
      </trkpt>
      <trkpt lat="49.94817" lon="2.13796">
        <ele>13.4</ele>
        <time>2023-06-28T09:19:53Z</time>
      </trkpt>
      <trkpt lat="49.94817" lon="2.13798">
        <ele>13.4</ele>
        <time>2023-06-28T09:19:54Z</time>
      </trkpt>
      <trkpt lat="49.94816" lon="2.138">
        <ele>13.4</ele>
        <time>2023-06-28T09:19:55Z</time>
      </trkpt>
      <trkpt lat="49.94816" lon="2.13803">
        <ele>13.4</ele>
        <time>2023-06-28T09:19:56Z</time>
      </trkpt>
      <trkpt lat="49.94816" lon="2.13804">
        <ele>13.4</ele>
        <time>2023-06-28T09:19:57Z</time>
      </trkpt>
      <trkpt lat="49.94816" lon="2.13805">
        <ele>13.4</ele>
        <time>2023-06-28T09:19:58Z</time>
      </trkpt>
      <trkpt lat="49.94816" lon="2.13809">
        <ele>13.4</ele>
        <time>2023-06-28T09:19:59Z</time>
      </trkpt>
      <trkpt lat="49.94815" lon="2.1381">
        <ele>13.4</ele>
        <time>2023-06-28T09:20:00Z</time>
      </trkpt>
      <trkpt lat="49.94815" lon="2.13811">
        <ele>13.4</ele>
        <time>2023-06-28T09:20:01Z</time>
      </trkpt>
      <trkpt lat="49.94815" lon="2.13814">
        <ele>13.4</ele>
        <time>2023-06-28T09:20:02Z</time>
      </trkpt>
      <trkpt lat="49.94815" lon="2.13816">
        <ele>13.4</ele>
        <time>2023-06-28T09:20:03Z</time>
      </trkpt>
      <trkpt lat="49.94815" lon="2.13818">
        <ele>13.4</ele>
        <time>2023-06-28T09:20:04Z</time>
      </trkpt>
      <trkpt lat="49.94814" lon="2.13819">
        <ele>13.5</ele>
        <time>2023-06-28T09:20:05Z</time>
      </trkpt>
      <trkpt lat="49.94814" lon="2.13821">
        <ele>13.5</ele>
        <time>2023-06-28T09:20:06Z</time>
      </trkpt>
      <trkpt lat="49.94814" lon="2.13823">
        <ele>13.5</ele>
        <time>2023-06-28T09:20:07Z</time>
      </trkpt>
      <trkpt lat="49.94814" lon="2.13824">
        <ele>13.5</ele>
        <time>2023-06-28T09:20:08Z</time>
      </trkpt>
      <trkpt lat="49.94814" lon="2.13825">
        <ele>13.5</ele>
        <time>2023-06-28T09:20:09Z</time>
      </trkpt>
      <trkpt lat="49.94813" lon="2.13829">
        <ele>13.5</ele>
        <time>2023-06-28T09:20:10Z</time>
      </trkpt>
      <trkpt lat="49.94813" lon="2.1383">
        <ele>13.5</ele>
        <time>2023-06-28T09:20:11Z</time>
      </trkpt>
      <trkpt lat="49.94813" lon="2.13831">
        <ele>13.5</ele>
        <time>2023-06-28T09:20:12Z</time>
      </trkpt>
      <trkpt lat="49.94812" lon="2.13835">
        <ele>13.5</ele>
        <time>2023-06-28T09:20:13Z</time>
      </trkpt>
      <trkpt lat="49.94812" lon="2.13836">
        <ele>13.5</ele>
        <time>2023-06-28T09:20:14Z</time>
      </trkpt>
      <trkpt lat="49.94812" lon="2.13838">
        <ele>13.5</ele>
        <time>2023-06-28T09:20:15Z</time>
      </trkpt>
      <trkpt lat="49.94811" lon="2.1384">
        <ele>13.5</ele>
        <time>2023-06-28T09:20:16Z</time>
      </trkpt>
      <trkpt lat="49.94811" lon="2.13841">
        <ele>13.5</ele>
        <time>2023-06-28T09:20:17Z</time>
      </trkpt>
      <trkpt lat="49.94811" lon="2.13842">
        <ele>13.5</ele>
        <time>2023-06-28T09:20:18Z</time>
      </trkpt>
      <trkpt lat="49.94811" lon="2.13845">
        <ele>13.5</ele>
        <time>2023-06-28T09:20:19Z</time>
      </trkpt>
      <trkpt lat="49.94811" lon="2.13846">
        <ele>13.5</ele>
        <time>2023-06-28T09:20:20Z</time>
      </trkpt>
      <trkpt lat="49.94811" lon="2.13847">
        <ele>13.5</ele>
        <time>2023-06-28T09:20:21Z</time>
      </trkpt>
      <trkpt lat="49.94811" lon="2.13848">
        <ele>13.5</ele>
        <time>2023-06-28T09:20:22Z</time>
      </trkpt>
      <trkpt lat="49.94811" lon="2.1385">
        <ele>13.5</ele>
        <time>2023-06-28T09:20:23Z</time>
      </trkpt>
      <trkpt lat="49.94811" lon="2.13852">
        <ele>13.5</ele>
        <time>2023-06-28T09:20:24Z</time>
      </trkpt>
      <trkpt lat="49.94811" lon="2.13854">
        <ele>13.6</ele>
        <time>2023-06-28T09:20:25Z</time>
      </trkpt>
      <trkpt lat="49.94811" lon="2.13857">
        <ele>13.6</ele>
        <time>2023-06-28T09:20:26Z</time>
      </trkpt>
      <trkpt lat="49.94811" lon="2.13859">
        <ele>13.6</ele>
        <time>2023-06-28T09:20:27Z</time>
      </trkpt>
      <trkpt lat="49.94811" lon="2.1386">
        <ele>13.6</ele>
        <time>2023-06-28T09:20:28Z</time>
      </trkpt>
      <trkpt lat="49.9481" lon="2.13862">
        <ele>13.6</ele>
        <time>2023-06-28T09:20:29Z</time>
      </trkpt>
      <trkpt lat="49.9481" lon="2.13863">
        <ele>13.6</ele>
        <time>2023-06-28T09:20:30Z</time>
      </trkpt>
      <trkpt lat="49.9481" lon="2.13865">
        <ele>13.6</ele>
        <time>2023-06-28T09:20:31Z</time>
      </trkpt>
      <trkpt lat="49.9481" lon="2.13866">
        <ele>13.6</ele>
        <time>2023-06-28T09:20:32Z</time>
      </trkpt>
      <trkpt lat="49.9481" lon="2.13868">
        <ele>13.6</ele>
        <time>2023-06-28T09:20:33Z</time>
      </trkpt>
      <trkpt lat="49.94809" lon="2.1387">
        <ele>13.6</ele>
        <time>2023-06-28T09:20:34Z</time>
      </trkpt>
      <trkpt lat="49.94809" lon="2.13871">
        <ele>13.6</ele>
        <time>2023-06-28T09:20:35Z</time>
      </trkpt>
      <trkpt lat="49.94809" lon="2.13873">
        <ele>13.6</ele>
        <time>2023-06-28T09:20:36Z</time>
      </trkpt>
      <trkpt lat="49.94808" lon="2.13874">
        <ele>13.6</ele>
        <time>2023-06-28T09:20:37Z</time>
      </trkpt>
      <trkpt lat="49.94808" lon="2.13878">
        <ele>13.6</ele>
        <time>2023-06-28T09:20:38Z</time>
      </trkpt>
      <trkpt lat="49.94807" lon="2.13879">
        <ele>13.6</ele>
        <time>2023-06-28T09:20:39Z</time>
      </trkpt>
      <trkpt lat="49.94807" lon="2.1388">
        <ele>13.6</ele>
        <time>2023-06-28T09:20:40Z</time>
      </trkpt>
      <trkpt lat="49.94807" lon="2.13882">
        <ele>13.6</ele>
        <time>2023-06-28T09:20:41Z</time>
      </trkpt>
      <trkpt lat="49.94806" lon="2.13884">
        <ele>13.6</ele>
        <time>2023-06-28T09:20:42Z</time>
      </trkpt>
      <trkpt lat="49.94806" lon="2.13886">
        <ele>13.6</ele>
        <time>2023-06-28T09:20:43Z</time>
      </trkpt>
      <trkpt lat="49.94806" lon="2.13889">
        <ele>13.6</ele>
        <time>2023-06-28T09:20:44Z</time>
      </trkpt>
      <trkpt lat="49.94806" lon="2.13891">
        <ele>13.6</ele>
        <time>2023-06-28T09:20:45Z</time>
      </trkpt>
      <trkpt lat="49.94805" lon="2.13892">
        <ele>13.6</ele>
        <time>2023-06-28T09:20:46Z</time>
      </trkpt>
      <trkpt lat="49.94805" lon="2.13894">
        <ele>13.6</ele>
        <time>2023-06-28T09:20:47Z</time>
      </trkpt>
      <trkpt lat="49.94805" lon="2.13896">
        <ele>13.6</ele>
        <time>2023-06-28T09:20:48Z</time>
      </trkpt>
      <trkpt lat="49.94805" lon="2.13897">
        <ele>13.6</ele>
        <time>2023-06-28T09:20:49Z</time>
      </trkpt>
      <trkpt lat="49.94805" lon="2.13898">
        <ele>13.6</ele>
        <time>2023-06-28T09:20:50Z</time>
      </trkpt>
      <trkpt lat="49.94804" lon="2.13902">
        <ele>13.6</ele>
        <time>2023-06-28T09:20:51Z</time>
      </trkpt>
      <trkpt lat="49.94804" lon="2.13903">
        <ele>13.6</ele>
        <time>2023-06-28T09:20:52Z</time>
      </trkpt>
      <trkpt lat="49.94804" lon="2.13904">
        <ele>13.6</ele>
        <time>2023-06-28T09:20:53Z</time>
      </trkpt>
      <trkpt lat="49.94804" lon="2.13906">
        <ele>13.6</ele>
        <time>2023-06-28T09:20:54Z</time>
      </trkpt>
      <trkpt lat="49.94804" lon="2.13907">
        <ele>13.6</ele>
        <time>2023-06-28T09:20:55Z</time>
      </trkpt>
      <trkpt lat="49.94803" lon="2.13909">
        <ele>13.6</ele>
        <time>2023-06-28T09:20:56Z</time>
      </trkpt>
      <trkpt lat="49.94803" lon="2.13911">
        <ele>13.6</ele>
        <time>2023-06-28T09:20:57Z</time>
      </trkpt>
      <trkpt lat="49.94803" lon="2.13912">
        <ele>13.6</ele>
        <time>2023-06-28T09:20:58Z</time>
      </trkpt>
      <trkpt lat="49.94803" lon="2.13914">
        <ele>13.6</ele>
        <time>2023-06-28T09:20:59Z</time>
      </trkpt>
      <trkpt lat="49.94802" lon="2.13916">
        <ele>13.6</ele>
        <time>2023-06-28T09:21:00Z</time>
      </trkpt>
      <trkpt lat="49.94802" lon="2.13917">
        <ele>13.6</ele>
        <time>2023-06-28T09:21:01Z</time>
      </trkpt>
      <trkpt lat="49.94801" lon="2.13919">
        <ele>13.6</ele>
        <time>2023-06-28T09:21:02Z</time>
      </trkpt>
      <trkpt lat="49.94801" lon="2.13921">
        <ele>13.6</ele>
        <time>2023-06-28T09:21:03Z</time>
      </trkpt>
      <trkpt lat="49.94801" lon="2.13922">
        <ele>13.6</ele>
        <time>2023-06-28T09:21:04Z</time>
      </trkpt>
      <trkpt lat="49.94801" lon="2.13924">
        <ele>13.6</ele>
        <time>2023-06-28T09:21:05Z</time>
      </trkpt>
      <trkpt lat="49.94801" lon="2.13926">
        <ele>13.6</ele>
        <time>2023-06-28T09:21:06Z</time>
      </trkpt>
      <trkpt lat="49.94801" lon="2.13927">
        <ele>13.6</ele>
        <time>2023-06-28T09:21:07Z</time>
      </trkpt>
      <trkpt lat="49.94801" lon="2.13928">
        <ele>13.6</ele>
        <time>2023-06-28T09:21:08Z</time>
      </trkpt>
      <trkpt lat="49.94802" lon="2.13929">
        <ele>13.6</ele>
        <time>2023-06-28T09:21:09Z</time>
      </trkpt>
      <trkpt lat="49.94802" lon="2.13929">
        <ele>13.6</ele>
        <time>2023-06-28T09:21:10Z</time>
      </trkpt>
      <trkpt lat="49.94802" lon="2.13929">
        <ele>13.6</ele>
        <time>2023-06-28T09:21:11Z</time>
      </trkpt>
      <trkpt lat="49.94802" lon="2.13929">
        <ele>13.6</ele>
        <time>2023-06-28T09:21:12Z</time>
      </trkpt>
      <trkpt lat="49.94802" lon="2.13929">
        <ele>13.6</ele>
        <time>2023-06-28T09:21:13Z</time>
      </trkpt>
      <trkpt lat="49.94801" lon="2.13928">
        <ele>13.6</ele>
        <time>2023-06-28T09:21:14Z</time>
      </trkpt>
      <trkpt lat="49.94801" lon="2.13928">
        <ele>13.6</ele>
        <time>2023-06-28T09:21:15Z</time>
      </trkpt>
      <trkpt lat="49.948" lon="2.13928">
        <ele>13.6</ele>
        <time>2023-06-28T09:21:16Z</time>
      </trkpt>
      <trkpt lat="49.948" lon="2.13928">
        <ele>13.6</ele>
        <time>2023-06-28T09:21:17Z</time>
      </trkpt>
      <trkpt lat="49.94799" lon="2.13929">
        <ele>13.6</ele>
        <time>2023-06-28T09:21:18Z</time>
      </trkpt>
      <trkpt lat="49.94799" lon="2.1393">
        <ele>13.6</ele>
        <time>2023-06-28T09:21:19Z</time>
      </trkpt>
      <trkpt lat="49.94799" lon="2.13931">
        <ele>13.6</ele>
        <time>2023-06-28T09:21:20Z</time>
      </trkpt>
      <trkpt lat="49.94798" lon="2.13932">
        <ele>13.6</ele>
        <time>2023-06-28T09:21:21Z</time>
      </trkpt>
      <trkpt lat="49.94798" lon="2.13933">
        <ele>13.6</ele>
        <time>2023-06-28T09:21:22Z</time>
      </trkpt>
      <trkpt lat="49.94798" lon="2.13935">
        <ele>13.6</ele>
        <time>2023-06-28T09:21:23Z</time>
      </trkpt>
      <trkpt lat="49.94798" lon="2.13936">
        <ele>13.6</ele>
        <time>2023-06-28T09:21:24Z</time>
      </trkpt>
      <trkpt lat="49.94798" lon="2.13937">
        <ele>13.6</ele>
        <time>2023-06-28T09:21:25Z</time>
      </trkpt>
      <trkpt lat="49.94797" lon="2.13939">
        <ele>13.6</ele>
        <time>2023-06-28T09:21:26Z</time>
      </trkpt>
      <trkpt lat="49.94797" lon="2.1394">
        <ele>13.6</ele>
        <time>2023-06-28T09:21:27Z</time>
      </trkpt>
      <trkpt lat="49.94797" lon="2.13941">
        <ele>13.6</ele>
        <time>2023-06-28T09:21:28Z</time>
      </trkpt>
      <trkpt lat="49.94797" lon="2.13943">
        <ele>13.6</ele>
        <time>2023-06-28T09:21:29Z</time>
      </trkpt>
      <trkpt lat="49.94796" lon="2.13943">
        <ele>13.6</ele>
        <time>2023-06-28T09:21:30Z</time>
      </trkpt>
      <trkpt lat="49.94796" lon="2.13944">
        <ele>13.6</ele>
        <time>2023-06-28T09:21:31Z</time>
      </trkpt>
      <trkpt lat="49.94796" lon="2.13945">
        <ele>13.6</ele>
        <time>2023-06-28T09:21:32Z</time>
      </trkpt>
      <trkpt lat="49.94795" lon="2.13946">
        <ele>13.6</ele>
        <time>2023-06-28T09:21:33Z</time>
      </trkpt>
      <trkpt lat="49.94794" lon="2.13948">
        <ele>13.6</ele>
        <time>2023-06-28T09:21:34Z</time>
      </trkpt>
      <trkpt lat="49.94793" lon="2.1395">
        <ele>13.6</ele>
        <time>2023-06-28T09:21:35Z</time>
      </trkpt>
      <trkpt lat="49.94793" lon="2.13952">
        <ele>13.6</ele>
        <time>2023-06-28T09:21:36Z</time>
      </trkpt>
      <trkpt lat="49.94792" lon="2.13954">
        <ele>13.6</ele>
        <time>2023-06-28T09:21:37Z</time>
      </trkpt>
      <trkpt lat="49.94791" lon="2.13956">
        <ele>13.6</ele>
        <time>2023-06-28T09:21:38Z</time>
      </trkpt>
      <trkpt lat="49.9479" lon="2.13958">
        <ele>13.6</ele>
        <time>2023-06-28T09:21:39Z</time>
      </trkpt>
      <trkpt lat="49.9479" lon="2.1396">
        <ele>13.6</ele>
        <time>2023-06-28T09:21:40Z</time>
      </trkpt>
      <trkpt lat="49.94789" lon="2.13961">
        <ele>13.6</ele>
        <time>2023-06-28T09:21:41Z</time>
      </trkpt>
      <trkpt lat="49.94788" lon="2.13963">
        <ele>13.6</ele>
        <time>2023-06-28T09:21:42Z</time>
      </trkpt>
      <trkpt lat="49.94787" lon="2.13966">
        <ele>13.6</ele>
        <time>2023-06-28T09:21:43Z</time>
      </trkpt>
      <trkpt lat="49.94786" lon="2.13967">
        <ele>13.6</ele>
        <time>2023-06-28T09:21:44Z</time>
      </trkpt>
      <trkpt lat="49.94786" lon="2.13968">
        <ele>13.6</ele>
        <time>2023-06-28T09:21:45Z</time>
      </trkpt>
      <trkpt lat="49.94785" lon="2.13969">
        <ele>13.5</ele>
        <time>2023-06-28T09:21:46Z</time>
      </trkpt>
      <trkpt lat="49.94784" lon="2.13971">
        <ele>13.5</ele>
        <time>2023-06-28T09:21:47Z</time>
      </trkpt>
      <trkpt lat="49.94783" lon="2.13972">
        <ele>13.5</ele>
        <time>2023-06-28T09:21:48Z</time>
      </trkpt>
      <trkpt lat="49.94783" lon="2.13975">
        <ele>13.5</ele>
        <time>2023-06-28T09:21:49Z</time>
      </trkpt>
      <trkpt lat="49.94782" lon="2.13976">
        <ele>13.5</ele>
        <time>2023-06-28T09:21:50Z</time>
      </trkpt>
      <trkpt lat="49.94782" lon="2.13978">
        <ele>13.5</ele>
        <time>2023-06-28T09:21:51Z</time>
      </trkpt>
      <trkpt lat="49.94781" lon="2.13981">
        <ele>13.5</ele>
        <time>2023-06-28T09:21:52Z</time>
      </trkpt>
      <trkpt lat="49.94781" lon="2.13982">
        <ele>13.5</ele>
        <time>2023-06-28T09:21:53Z</time>
      </trkpt>
      <trkpt lat="49.94781" lon="2.13983">
        <ele>13.5</ele>
        <time>2023-06-28T09:21:54Z</time>
      </trkpt>
      <trkpt lat="49.9478" lon="2.13987">
        <ele>13.5</ele>
        <time>2023-06-28T09:21:55Z</time>
      </trkpt>
      <trkpt lat="49.9478" lon="2.13988">
        <ele>13.5</ele>
        <time>2023-06-28T09:21:56Z</time>
      </trkpt>
      <trkpt lat="49.94779" lon="2.1399">
        <ele>13.5</ele>
        <time>2023-06-28T09:21:57Z</time>
      </trkpt>
      <trkpt lat="49.94779" lon="2.13992">
        <ele>13.5</ele>
        <time>2023-06-28T09:21:58Z</time>
      </trkpt>
      <trkpt lat="49.94779" lon="2.13994">
        <ele>13.5</ele>
        <time>2023-06-28T09:21:59Z</time>
      </trkpt>
      <trkpt lat="49.94778" lon="2.13996">
        <ele>13.5</ele>
        <time>2023-06-28T09:22:00Z</time>
      </trkpt>
      <trkpt lat="49.94778" lon="2.13998">
        <ele>13.5</ele>
        <time>2023-06-28T09:22:01Z</time>
      </trkpt>
      <trkpt lat="49.94778" lon="2.13999">
        <ele>13.5</ele>
        <time>2023-06-28T09:22:02Z</time>
      </trkpt>
      <trkpt lat="49.94778" lon="2.14001">
        <ele>13.5</ele>
        <time>2023-06-28T09:22:03Z</time>
      </trkpt>
      <trkpt lat="49.94777" lon="2.14002">
        <ele>13.5</ele>
        <time>2023-06-28T09:22:04Z</time>
      </trkpt>
      <trkpt lat="49.94777" lon="2.14004">
        <ele>13.5</ele>
        <time>2023-06-28T09:22:05Z</time>
      </trkpt>
      <trkpt lat="49.94777" lon="2.14006">
        <ele>13.5</ele>
        <time>2023-06-28T09:22:06Z</time>
      </trkpt>
      <trkpt lat="49.94776" lon="2.14007">
        <ele>13.5</ele>
        <time>2023-06-28T09:22:07Z</time>
      </trkpt>
      <trkpt lat="49.94776" lon="2.14009">
        <ele>13.5</ele>
        <time>2023-06-28T09:22:08Z</time>
      </trkpt>
      <trkpt lat="49.94776" lon="2.14011">
        <ele>13.5</ele>
        <time>2023-06-28T09:22:09Z</time>
      </trkpt>
      <trkpt lat="49.94776" lon="2.14013">
        <ele>13.5</ele>
        <time>2023-06-28T09:22:10Z</time>
      </trkpt>
      <trkpt lat="49.94776" lon="2.14014">
        <ele>13.5</ele>
        <time>2023-06-28T09:22:11Z</time>
      </trkpt>
      <trkpt lat="49.94775" lon="2.14016">
        <ele>13.5</ele>
        <time>2023-06-28T09:22:12Z</time>
      </trkpt>
      <trkpt lat="49.94775" lon="2.14018">
        <ele>13.5</ele>
        <time>2023-06-28T09:22:13Z</time>
      </trkpt>
      <trkpt lat="49.94775" lon="2.14019">
        <ele>13.5</ele>
        <time>2023-06-28T09:22:14Z</time>
      </trkpt>
      <trkpt lat="49.94775" lon="2.1402">
        <ele>13.5</ele>
        <time>2023-06-28T09:22:15Z</time>
      </trkpt>
      <trkpt lat="49.94774" lon="2.14022">
        <ele>13.5</ele>
        <time>2023-06-28T09:22:16Z</time>
      </trkpt>
      <trkpt lat="49.94774" lon="2.14024">
        <ele>13.5</ele>
        <time>2023-06-28T09:22:17Z</time>
      </trkpt>
      <trkpt lat="49.94774" lon="2.14025">
        <ele>13.5</ele>
        <time>2023-06-28T09:22:18Z</time>
      </trkpt>
      <trkpt lat="49.94774" lon="2.14027">
        <ele>13.5</ele>
        <time>2023-06-28T09:22:19Z</time>
      </trkpt>
      <trkpt lat="49.94773" lon="2.14028">
        <ele>13.5</ele>
        <time>2023-06-28T09:22:20Z</time>
      </trkpt>
      <trkpt lat="49.94773" lon="2.14029">
        <ele>13.5</ele>
        <time>2023-06-28T09:22:21Z</time>
      </trkpt>
      <trkpt lat="49.94772" lon="2.14031">
        <ele>13.5</ele>
        <time>2023-06-28T09:22:22Z</time>
      </trkpt>
      <trkpt lat="49.94772" lon="2.14032">
        <ele>13.5</ele>
        <time>2023-06-28T09:22:23Z</time>
      </trkpt>
      <trkpt lat="49.94772" lon="2.14033">
        <ele>13.5</ele>
        <time>2023-06-28T09:22:24Z</time>
      </trkpt>
      <trkpt lat="49.94771" lon="2.14035">
        <ele>13.5</ele>
        <time>2023-06-28T09:22:25Z</time>
      </trkpt>
      <trkpt lat="49.94771" lon="2.14036">
        <ele>13.5</ele>
        <time>2023-06-28T09:22:26Z</time>
      </trkpt>
      <trkpt lat="49.94771" lon="2.14037">
        <ele>13.5</ele>
        <time>2023-06-28T09:22:27Z</time>
      </trkpt>
      <trkpt lat="49.9477" lon="2.14039">
        <ele>13.5</ele>
        <time>2023-06-28T09:22:28Z</time>
      </trkpt>
      <trkpt lat="49.9477" lon="2.1404">
        <ele>13.5</ele>
        <time>2023-06-28T09:22:29Z</time>
      </trkpt>
      <trkpt lat="49.94769" lon="2.14042">
        <ele>13.5</ele>
        <time>2023-06-28T09:22:30Z</time>
      </trkpt>
      <trkpt lat="49.94769" lon="2.14043">
        <ele>13.5</ele>
        <time>2023-06-28T09:22:31Z</time>
      </trkpt>
      <trkpt lat="49.94768" lon="2.14045">
        <ele>13.5</ele>
        <time>2023-06-28T09:22:32Z</time>
      </trkpt>
      <trkpt lat="49.94768" lon="2.14046">
        <ele>13.5</ele>
        <time>2023-06-28T09:22:33Z</time>
      </trkpt>
      <trkpt lat="49.94767" lon="2.14048">
        <ele>13.5</ele>
        <time>2023-06-28T09:22:34Z</time>
      </trkpt>
      <trkpt lat="49.94767" lon="2.14049">
        <ele>13.5</ele>
        <time>2023-06-28T09:22:35Z</time>
      </trkpt>
      <trkpt lat="49.94766" lon="2.1405">
        <ele>13.5</ele>
        <time>2023-06-28T09:22:36Z</time>
      </trkpt>
      <trkpt lat="49.94766" lon="2.14052">
        <ele>13.5</ele>
        <time>2023-06-28T09:22:37Z</time>
      </trkpt>
      <trkpt lat="49.94765" lon="2.14053">
        <ele>13.5</ele>
        <time>2023-06-28T09:22:38Z</time>
      </trkpt>
      <trkpt lat="49.94765" lon="2.14054">
        <ele>13.5</ele>
        <time>2023-06-28T09:22:39Z</time>
      </trkpt>
      <trkpt lat="49.94764" lon="2.14056">
        <ele>13.5</ele>
        <time>2023-06-28T09:22:40Z</time>
      </trkpt>
      <trkpt lat="49.94764" lon="2.14058">
        <ele>13.5</ele>
        <time>2023-06-28T09:22:41Z</time>
      </trkpt>
      <trkpt lat="49.94763" lon="2.14059">
        <ele>13.4</ele>
        <time>2023-06-28T09:22:42Z</time>
      </trkpt>
      <trkpt lat="49.94763" lon="2.14061">
        <ele>13.4</ele>
        <time>2023-06-28T09:22:43Z</time>
      </trkpt>
      <trkpt lat="49.94761" lon="2.14063">
        <ele>13.4</ele>
        <time>2023-06-28T09:22:44Z</time>
      </trkpt>
      <trkpt lat="49.94761" lon="2.14065">
        <ele>13.4</ele>
        <time>2023-06-28T09:22:45Z</time>
      </trkpt>
      <trkpt lat="49.94761" lon="2.14066">
        <ele>13.4</ele>
        <time>2023-06-28T09:22:46Z</time>
      </trkpt>
      <trkpt lat="49.9476" lon="2.14068">
        <ele>13.4</ele>
        <time>2023-06-28T09:22:47Z</time>
      </trkpt>
      <trkpt lat="49.94759" lon="2.1407">
        <ele>13.4</ele>
        <time>2023-06-28T09:22:48Z</time>
      </trkpt>
      <trkpt lat="49.94759" lon="2.14071">
        <ele>13.4</ele>
        <time>2023-06-28T09:22:49Z</time>
      </trkpt>
      <trkpt lat="49.94758" lon="2.14073">
        <ele>13.4</ele>
        <time>2023-06-28T09:22:50Z</time>
      </trkpt>
      <trkpt lat="49.94757" lon="2.14075">
        <ele>13.4</ele>
        <time>2023-06-28T09:22:51Z</time>
      </trkpt>
      <trkpt lat="49.94756" lon="2.14077">
        <ele>13.4</ele>
        <time>2023-06-28T09:22:52Z</time>
      </trkpt>
      <trkpt lat="49.94756" lon="2.14079">
        <ele>13.4</ele>
        <time>2023-06-28T09:22:53Z</time>
      </trkpt>
      <trkpt lat="49.94755" lon="2.1408">
        <ele>13.4</ele>
        <time>2023-06-28T09:22:54Z</time>
      </trkpt>
      <trkpt lat="49.94754" lon="2.14083">
        <ele>13.4</ele>
        <time>2023-06-28T09:22:55Z</time>
      </trkpt>
      <trkpt lat="49.94754" lon="2.14084">
        <ele>13.4</ele>
        <time>2023-06-28T09:22:56Z</time>
      </trkpt>
      <trkpt lat="49.94753" lon="2.14085">
        <ele>13.4</ele>
        <time>2023-06-28T09:22:57Z</time>
      </trkpt>
      <trkpt lat="49.94752" lon="2.14087">
        <ele>13.4</ele>
        <time>2023-06-28T09:22:58Z</time>
      </trkpt>
      <trkpt lat="49.94752" lon="2.14088">
        <ele>13.4</ele>
        <time>2023-06-28T09:22:59Z</time>
      </trkpt>
      <trkpt lat="49.94751" lon="2.14089">
        <ele>13.4</ele>
        <time>2023-06-28T09:23:00Z</time>
      </trkpt>
      <trkpt lat="49.9475" lon="2.14092">
        <ele>13.4</ele>
        <time>2023-06-28T09:23:01Z</time>
      </trkpt>
      <trkpt lat="49.9475" lon="2.14093">
        <ele>13.4</ele>
        <time>2023-06-28T09:23:02Z</time>
      </trkpt>
      <trkpt lat="49.94749" lon="2.14094">
        <ele>13.4</ele>
        <time>2023-06-28T09:23:03Z</time>
      </trkpt>
      <trkpt lat="49.94748" lon="2.14097">
        <ele>13.4</ele>
        <time>2023-06-28T09:23:04Z</time>
      </trkpt>
      <trkpt lat="49.94747" lon="2.14098">
        <ele>13.4</ele>
        <time>2023-06-28T09:23:05Z</time>
      </trkpt>
      <trkpt lat="49.94747" lon="2.14099">
        <ele>13.4</ele>
        <time>2023-06-28T09:23:06Z</time>
      </trkpt>
      <trkpt lat="49.94746" lon="2.141">
        <ele>13.4</ele>
        <time>2023-06-28T09:23:07Z</time>
      </trkpt>
      <trkpt lat="49.94746" lon="2.14101">
        <ele>13.4</ele>
        <time>2023-06-28T09:23:08Z</time>
      </trkpt>
      <trkpt lat="49.94745" lon="2.14103">
        <ele>13.4</ele>
        <time>2023-06-28T09:23:09Z</time>
      </trkpt>
      <trkpt lat="49.94744" lon="2.14104">
        <ele>13.4</ele>
        <time>2023-06-28T09:23:10Z</time>
      </trkpt>
      <trkpt lat="49.94744" lon="2.14105">
        <ele>13.4</ele>
        <time>2023-06-28T09:23:11Z</time>
      </trkpt>
      <trkpt lat="49.94743" lon="2.14107">
        <ele>13.4</ele>
        <time>2023-06-28T09:23:12Z</time>
      </trkpt>
      <trkpt lat="49.94743" lon="2.14108">
        <ele>13.4</ele>
        <time>2023-06-28T09:23:13Z</time>
      </trkpt>
      <trkpt lat="49.94742" lon="2.14109">
        <ele>13.4</ele>
        <time>2023-06-28T09:23:14Z</time>
      </trkpt>
      <trkpt lat="49.94742" lon="2.14111">
        <ele>13.4</ele>
        <time>2023-06-28T09:23:15Z</time>
      </trkpt>
      <trkpt lat="49.94741" lon="2.14112">
        <ele>13.4</ele>
        <time>2023-06-28T09:23:16Z</time>
      </trkpt>
      <trkpt lat="49.94741" lon="2.14113">
        <ele>13.4</ele>
        <time>2023-06-28T09:23:17Z</time>
      </trkpt>
      <trkpt lat="49.9474" lon="2.14115">
        <ele>13.5</ele>
        <time>2023-06-28T09:23:18Z</time>
      </trkpt>
      <trkpt lat="49.9474" lon="2.14116">
        <ele>13.5</ele>
        <time>2023-06-28T09:23:19Z</time>
      </trkpt>
      <trkpt lat="49.94739" lon="2.14118">
        <ele>13.5</ele>
        <time>2023-06-28T09:23:20Z</time>
      </trkpt>
      <trkpt lat="49.94739" lon="2.14119">
        <ele>13.5</ele>
        <time>2023-06-28T09:23:21Z</time>
      </trkpt>
      <trkpt lat="49.94738" lon="2.14121">
        <ele>13.5</ele>
        <time>2023-06-28T09:23:22Z</time>
      </trkpt>
      <trkpt lat="49.94738" lon="2.14122">
        <ele>13.5</ele>
        <time>2023-06-28T09:23:23Z</time>
      </trkpt>
      <trkpt lat="49.94737" lon="2.14123">
        <ele>13.5</ele>
        <time>2023-06-28T09:23:24Z</time>
      </trkpt>
      <trkpt lat="49.94736" lon="2.14125">
        <ele>13.5</ele>
        <time>2023-06-28T09:23:25Z</time>
      </trkpt>
      <trkpt lat="49.94736" lon="2.14126">
        <ele>13.5</ele>
        <time>2023-06-28T09:23:26Z</time>
      </trkpt>
      <trkpt lat="49.94735" lon="2.14127">
        <ele>13.5</ele>
        <time>2023-06-28T09:23:27Z</time>
      </trkpt>
      <trkpt lat="49.94735" lon="2.14128">
        <ele>13.5</ele>
        <time>2023-06-28T09:23:28Z</time>
      </trkpt>
      <trkpt lat="49.94734" lon="2.14129">
        <ele>13.5</ele>
        <time>2023-06-28T09:23:29Z</time>
      </trkpt>
      <trkpt lat="49.94733" lon="2.1413">
        <ele>13.5</ele>
        <time>2023-06-28T09:23:30Z</time>
      </trkpt>
      <trkpt lat="49.94733" lon="2.14132">
        <ele>13.5</ele>
        <time>2023-06-28T09:23:31Z</time>
      </trkpt>
      <trkpt lat="49.94732" lon="2.14133">
        <ele>13.5</ele>
        <time>2023-06-28T09:23:32Z</time>
      </trkpt>
      <trkpt lat="49.94732" lon="2.14134">
        <ele>13.5</ele>
        <time>2023-06-28T09:23:33Z</time>
      </trkpt>
      <trkpt lat="49.94731" lon="2.14135">
        <ele>13.5</ele>
        <time>2023-06-28T09:23:34Z</time>
      </trkpt>
      <trkpt lat="49.94731" lon="2.14135">
        <ele>13.5</ele>
        <time>2023-06-28T09:23:35Z</time>
      </trkpt>
      <trkpt lat="49.9473" lon="2.14137">
        <ele>13.6</ele>
        <time>2023-06-28T09:23:36Z</time>
      </trkpt>
      <trkpt lat="49.94729" lon="2.14138">
        <ele>13.6</ele>
        <time>2023-06-28T09:23:37Z</time>
      </trkpt>
      <trkpt lat="49.94729" lon="2.14139">
        <ele>13.6</ele>
        <time>2023-06-28T09:23:38Z</time>
      </trkpt>
      <trkpt lat="49.94729" lon="2.14139">
        <ele>13.6</ele>
        <time>2023-06-28T09:23:39Z</time>
      </trkpt>
      <trkpt lat="49.94728" lon="2.1414">
        <ele>13.6</ele>
        <time>2023-06-28T09:23:40Z</time>
      </trkpt>
      <trkpt lat="49.94728" lon="2.14141">
        <ele>13.6</ele>
        <time>2023-06-28T09:23:41Z</time>
      </trkpt>
      <trkpt lat="49.94727" lon="2.14143">
        <ele>13.6</ele>
        <time>2023-06-28T09:23:42Z</time>
      </trkpt>
      <trkpt lat="49.94727" lon="2.14144">
        <ele>13.6</ele>
        <time>2023-06-28T09:23:43Z</time>
      </trkpt>
      <trkpt lat="49.94726" lon="2.14145">
        <ele>13.6</ele>
        <time>2023-06-28T09:23:44Z</time>
      </trkpt>
      <trkpt lat="49.94726" lon="2.14147">
        <ele>13.6</ele>
        <time>2023-06-28T09:23:45Z</time>
      </trkpt>
      <trkpt lat="49.94725" lon="2.14149">
        <ele>13.7</ele>
        <time>2023-06-28T09:23:46Z</time>
      </trkpt>
      <trkpt lat="49.94725" lon="2.1415">
        <ele>13.7</ele>
        <time>2023-06-28T09:23:47Z</time>
      </trkpt>
      <trkpt lat="49.94724" lon="2.14151">
        <ele>13.7</ele>
        <time>2023-06-28T09:23:48Z</time>
      </trkpt>
      <trkpt lat="49.94724" lon="2.14152">
        <ele>13.7</ele>
        <time>2023-06-28T09:23:49Z</time>
      </trkpt>
      <trkpt lat="49.94724" lon="2.14153">
        <ele>13.7</ele>
        <time>2023-06-28T09:23:50Z</time>
      </trkpt>
      <trkpt lat="49.94723" lon="2.14155">
        <ele>13.7</ele>
        <time>2023-06-28T09:23:51Z</time>
      </trkpt>
      <trkpt lat="49.94723" lon="2.14156">
        <ele>13.7</ele>
        <time>2023-06-28T09:23:52Z</time>
      </trkpt>
      <trkpt lat="49.94722" lon="2.14157">
        <ele>13.8</ele>
        <time>2023-06-28T09:23:53Z</time>
      </trkpt>
      <trkpt lat="49.94722" lon="2.14158">
        <ele>13.8</ele>
        <time>2023-06-28T09:23:54Z</time>
      </trkpt>
      <trkpt lat="49.94722" lon="2.14159">
        <ele>13.8</ele>
        <time>2023-06-28T09:23:55Z</time>
      </trkpt>
      <trkpt lat="49.94721" lon="2.14161">
        <ele>13.8</ele>
        <time>2023-06-28T09:23:56Z</time>
      </trkpt>
      <trkpt lat="49.94721" lon="2.14162">
        <ele>13.8</ele>
        <time>2023-06-28T09:23:57Z</time>
      </trkpt>
      <trkpt lat="49.94721" lon="2.14164">
        <ele>13.8</ele>
        <time>2023-06-28T09:23:58Z</time>
      </trkpt>
      <trkpt lat="49.94721" lon="2.14165">
        <ele>13.8</ele>
        <time>2023-06-28T09:23:59Z</time>
      </trkpt>
      <trkpt lat="49.94721" lon="2.14166">
        <ele>13.9</ele>
        <time>2023-06-28T09:24:00Z</time>
      </trkpt>
      <trkpt lat="49.9472" lon="2.14167">
        <ele>13.9</ele>
        <time>2023-06-28T09:24:01Z</time>
      </trkpt>
      <trkpt lat="49.9472" lon="2.14168">
        <ele>13.9</ele>
        <time>2023-06-28T09:24:02Z</time>
      </trkpt>
      <trkpt lat="49.94719" lon="2.14169">
        <ele>13.9</ele>
        <time>2023-06-28T09:24:03Z</time>
      </trkpt>
      <trkpt lat="49.94719" lon="2.1417">
        <ele>13.9</ele>
        <time>2023-06-28T09:24:04Z</time>
      </trkpt>
      <trkpt lat="49.94719" lon="2.14171">
        <ele>13.9</ele>
        <time>2023-06-28T09:24:05Z</time>
      </trkpt>
      <trkpt lat="49.94718" lon="2.14173">
        <ele>13.9</ele>
        <time>2023-06-28T09:24:06Z</time>
      </trkpt>
      <trkpt lat="49.94718" lon="2.14174">
        <ele>14</ele>
        <time>2023-06-28T09:24:07Z</time>
      </trkpt>
      <trkpt lat="49.94717" lon="2.14175">
        <ele>14</ele>
        <time>2023-06-28T09:24:08Z</time>
      </trkpt>
      <trkpt lat="49.94716" lon="2.14176">
        <ele>14</ele>
        <time>2023-06-28T09:24:09Z</time>
      </trkpt>
      <trkpt lat="49.94715" lon="2.14177">
        <ele>14</ele>
        <time>2023-06-28T09:24:10Z</time>
      </trkpt>
      <trkpt lat="49.94715" lon="2.14178">
        <ele>14</ele>
        <time>2023-06-28T09:24:11Z</time>
      </trkpt>
      <trkpt lat="49.94714" lon="2.14179">
        <ele>14.1</ele>
        <time>2023-06-28T09:24:12Z</time>
      </trkpt>
      <trkpt lat="49.94713" lon="2.14181">
        <ele>14.1</ele>
        <time>2023-06-28T09:24:13Z</time>
      </trkpt>
      <trkpt lat="49.94713" lon="2.14182">
        <ele>14.1</ele>
        <time>2023-06-28T09:24:14Z</time>
      </trkpt>
      <trkpt lat="49.94712" lon="2.14183">
        <ele>14.1</ele>
        <time>2023-06-28T09:24:15Z</time>
      </trkpt>
      <trkpt lat="49.94712" lon="2.14183">
        <ele>14.1</ele>
        <time>2023-06-28T09:24:16Z</time>
      </trkpt>
      <trkpt lat="49.94711" lon="2.14184">
        <ele>14.1</ele>
        <time>2023-06-28T09:24:17Z</time>
      </trkpt>
      <trkpt lat="49.94711" lon="2.14186">
        <ele>14.2</ele>
        <time>2023-06-28T09:24:18Z</time>
      </trkpt>
      <trkpt lat="49.94711" lon="2.14187">
        <ele>14.2</ele>
        <time>2023-06-28T09:24:19Z</time>
      </trkpt>
      <trkpt lat="49.9471" lon="2.14188">
        <ele>14.2</ele>
        <time>2023-06-28T09:24:20Z</time>
      </trkpt>
      <trkpt lat="49.9471" lon="2.14189">
        <ele>14.2</ele>
        <time>2023-06-28T09:24:21Z</time>
      </trkpt>
      <trkpt lat="49.94709" lon="2.1419">
        <ele>14.2</ele>
        <time>2023-06-28T09:24:22Z</time>
      </trkpt>
      <trkpt lat="49.94709" lon="2.14191">
        <ele>14.2</ele>
        <time>2023-06-28T09:24:23Z</time>
      </trkpt>
      <trkpt lat="49.94709" lon="2.14192">
        <ele>14.3</ele>
        <time>2023-06-28T09:24:24Z</time>
      </trkpt>
      <trkpt lat="49.94709" lon="2.14193">
        <ele>14.3</ele>
        <time>2023-06-28T09:24:25Z</time>
      </trkpt>
      <trkpt lat="49.94708" lon="2.14194">
        <ele>14.3</ele>
        <time>2023-06-28T09:24:26Z</time>
      </trkpt>
      <trkpt lat="49.94708" lon="2.14195">
        <ele>14.3</ele>
        <time>2023-06-28T09:24:27Z</time>
      </trkpt>
      <trkpt lat="49.94708" lon="2.14196">
        <ele>14.3</ele>
        <time>2023-06-28T09:24:28Z</time>
      </trkpt>
      <trkpt lat="49.94708" lon="2.14196">
        <ele>14.3</ele>
        <time>2023-06-28T09:24:29Z</time>
      </trkpt>
      <trkpt lat="49.94708" lon="2.14197">
        <ele>14.3</ele>
        <time>2023-06-28T09:24:30Z</time>
      </trkpt>
      <trkpt lat="49.94707" lon="2.14197">
        <ele>14.3</ele>
        <time>2023-06-28T09:24:31Z</time>
      </trkpt>
      <trkpt lat="49.94707" lon="2.14198">
        <ele>14.3</ele>
        <time>2023-06-28T09:24:32Z</time>
      </trkpt>
      <trkpt lat="49.94707" lon="2.14198">
        <ele>14.3</ele>
        <time>2023-06-28T09:24:33Z</time>
      </trkpt>
      <trkpt lat="49.94707" lon="2.14199">
        <ele>14.4</ele>
        <time>2023-06-28T09:24:34Z</time>
      </trkpt>
      <trkpt lat="49.94708" lon="2.14199">
        <ele>14.4</ele>
        <time>2023-06-28T09:24:35Z</time>
      </trkpt>
      <trkpt lat="49.94708" lon="2.14199">
        <ele>14.4</ele>
        <time>2023-06-28T09:24:36Z</time>
      </trkpt>
      <trkpt lat="49.94708" lon="2.14199">
        <ele>14.4</ele>
        <time>2023-06-28T09:24:37Z</time>
      </trkpt>
      <trkpt lat="49.94708" lon="2.142">
        <ele>14.4</ele>
        <time>2023-06-28T09:24:38Z</time>
      </trkpt>
      <trkpt lat="49.94708" lon="2.142">
        <ele>14.4</ele>
        <time>2023-06-28T09:24:39Z</time>
      </trkpt>
      <trkpt lat="49.94709" lon="2.142">
        <ele>14.4</ele>
        <time>2023-06-28T09:24:40Z</time>
      </trkpt>
      <trkpt lat="49.94709" lon="2.142">
        <ele>14.4</ele>
        <time>2023-06-28T09:24:41Z</time>
      </trkpt>
      <trkpt lat="49.94709" lon="2.142">
        <ele>14.4</ele>
        <time>2023-06-28T09:24:42Z</time>
      </trkpt>
      <trkpt lat="49.94709" lon="2.142">
        <ele>14.4</ele>
        <time>2023-06-28T09:24:43Z</time>
      </trkpt>
      <trkpt lat="49.94709" lon="2.142">
        <ele>14.4</ele>
        <time>2023-06-28T09:24:44Z</time>
      </trkpt>
      <trkpt lat="49.94709" lon="2.142">
        <ele>14.4</ele>
        <time>2023-06-28T09:24:45Z</time>
      </trkpt>
      <trkpt lat="49.94709" lon="2.142">
        <ele>14.4</ele>
        <time>2023-06-28T09:24:46Z</time>
      </trkpt>
      <trkpt lat="49.94709" lon="2.142">
        <ele>14.4</ele>
        <time>2023-06-28T09:24:47Z</time>
      </trkpt>
      <trkpt lat="49.94709" lon="2.142">
        <ele>14.4</ele>
        <time>2023-06-28T09:24:48Z</time>
      </trkpt>
      <trkpt lat="49.94709" lon="2.14199">
        <ele>14.4</ele>
        <time>2023-06-28T09:24:49Z</time>
      </trkpt>
      <trkpt lat="49.94709" lon="2.14199">
        <ele>14.4</ele>
        <time>2023-06-28T09:24:50Z</time>
      </trkpt>
      <trkpt lat="49.94709" lon="2.14198">
        <ele>14.4</ele>
        <time>2023-06-28T09:24:51Z</time>
      </trkpt>
      <trkpt lat="49.94709" lon="2.14198">
        <ele>14.4</ele>
        <time>2023-06-28T09:24:52Z</time>
      </trkpt>
      <trkpt lat="49.94709" lon="2.14198">
        <ele>14.5</ele>
        <time>2023-06-28T09:24:53Z</time>
      </trkpt>
      <trkpt lat="49.94709" lon="2.14198">
        <ele>14.5</ele>
        <time>2023-06-28T09:24:54Z</time>
      </trkpt>
      <trkpt lat="49.94709" lon="2.14198">
        <ele>14.5</ele>
        <time>2023-06-28T09:24:55Z</time>
      </trkpt>
      <trkpt lat="49.94709" lon="2.14197">
        <ele>14.5</ele>
        <time>2023-06-28T09:24:56Z</time>
      </trkpt>
      <trkpt lat="49.94708" lon="2.14195">
        <ele>14.5</ele>
        <time>2023-06-28T09:24:57Z</time>
      </trkpt>
      <trkpt lat="49.94707" lon="2.14194">
        <ele>14.5</ele>
        <time>2023-06-28T09:24:59Z</time>
      </trkpt>
      <trkpt lat="49.94708" lon="2.14193">
        <ele>14.5</ele>
        <time>2023-06-28T09:25:01Z</time>
      </trkpt>
      <trkpt lat="49.94708" lon="2.14193">
        <ele>14.5</ele>
        <time>2023-06-28T09:25:03Z</time>
      </trkpt>
      <trkpt lat="49.94708" lon="2.14193">
        <ele>14.5</ele>
        <time>2023-06-28T09:25:04Z</time>
      </trkpt>
      <trkpt lat="49.94708" lon="2.14193">
        <ele>14.6</ele>
        <time>2023-06-28T09:25:05Z</time>
      </trkpt>
      <trkpt lat="49.94708" lon="2.14193">
        <ele>14.6</ele>
        <time>2023-06-28T09:25:06Z</time>
      </trkpt>
      <trkpt lat="49.94708" lon="2.14193">
        <ele>14.6</ele>
        <time>2023-06-28T09:25:07Z</time>
      </trkpt>
      <trkpt lat="49.94708" lon="2.14193">
        <ele>14.6</ele>
        <time>2023-06-28T09:25:08Z</time>
      </trkpt>
      <trkpt lat="49.94708" lon="2.14193">
        <ele>14.6</ele>
        <time>2023-06-28T09:25:09Z</time>
      </trkpt>
      <trkpt lat="49.94708" lon="2.14193">
        <ele>14.6</ele>
        <time>2023-06-28T09:25:10Z</time>
      </trkpt>
      <trkpt lat="49.94708" lon="2.14193">
        <ele>14.6</ele>
        <time>2023-06-28T09:25:11Z</time>
      </trkpt>
      <trkpt lat="49.94708" lon="2.14193">
        <ele>14.6</ele>
        <time>2023-06-28T09:25:12Z</time>
      </trkpt>
      <trkpt lat="49.94708" lon="2.14193">
        <ele>14.6</ele>
        <time>2023-06-28T09:25:13Z</time>
      </trkpt>
      <trkpt lat="49.94708" lon="2.14193">
        <ele>14.6</ele>
        <time>2023-06-28T09:25:14Z</time>
      </trkpt>
      <trkpt lat="49.94708" lon="2.14193">
        <ele>14.6</ele>
        <time>2023-06-28T09:25:15Z</time>
      </trkpt>
      <trkpt lat="49.94708" lon="2.14193">
        <ele>14.6</ele>
        <time>2023-06-28T09:25:16Z</time>
      </trkpt>
      <trkpt lat="49.94708" lon="2.14193">
        <ele>14.6</ele>
        <time>2023-06-28T09:25:17Z</time>
      </trkpt>
      <trkpt lat="49.94708" lon="2.14193">
        <ele>14.6</ele>
        <time>2023-06-28T09:25:18Z</time>
      </trkpt>
      <trkpt lat="49.94708" lon="2.14193">
        <ele>14.6</ele>
        <time>2023-06-28T09:25:19Z</time>
      </trkpt>
      <trkpt lat="49.94708" lon="2.14193">
        <ele>14.6</ele>
        <time>2023-06-28T09:25:20Z</time>
      </trkpt>
      <trkpt lat="49.94708" lon="2.14193">
        <ele>14.6</ele>
        <time>2023-06-28T09:25:21Z</time>
      </trkpt>
      <trkpt lat="49.94708" lon="2.14193">
        <ele>14.6</ele>
        <time>2023-06-28T09:25:22Z</time>
      </trkpt>
      <trkpt lat="49.94708" lon="2.14193">
        <ele>14.6</ele>
        <time>2023-06-28T09:25:23Z</time>
      </trkpt>
      <trkpt lat="49.94708" lon="2.14193">
        <ele>14.6</ele>
        <time>2023-06-28T09:25:24Z</time>
      </trkpt>
      <trkpt lat="49.94708" lon="2.14193">
        <ele>14.6</ele>
        <time>2023-06-28T09:25:25Z</time>
      </trkpt>
      <trkpt lat="49.94708" lon="2.14193">
        <ele>14.6</ele>
        <time>2023-06-28T09:25:26Z</time>
      </trkpt>
      <trkpt lat="49.94708" lon="2.14193">
        <ele>14.6</ele>
        <time>2023-06-28T09:25:27Z</time>
      </trkpt>
      <trkpt lat="49.94708" lon="2.14193">
        <ele>14.6</ele>
        <time>2023-06-28T09:25:28Z</time>
      </trkpt>
      <trkpt lat="49.94708" lon="2.14193">
        <ele>14.6</ele>
        <time>2023-06-28T09:25:29Z</time>
      </trkpt>
      <trkpt lat="49.94708" lon="2.14193">
        <ele>14.6</ele>
        <time>2023-06-28T09:25:30Z</time>
      </trkpt>
      <trkpt lat="49.94708" lon="2.14193">
        <ele>14.6</ele>
        <time>2023-06-28T09:25:31Z</time>
      </trkpt>
      <trkpt lat="49.94708" lon="2.14193">
        <ele>14.6</ele>
        <time>2023-06-28T09:25:32Z</time>
      </trkpt>
      <trkpt lat="49.94708" lon="2.14193">
        <ele>14.6</ele>
        <time>2023-06-28T09:25:33Z</time>
      </trkpt>
      <trkpt lat="49.94708" lon="2.14193">
        <ele>14.6</ele>
        <time>2023-06-28T09:25:34Z</time>
      </trkpt>
      <trkpt lat="49.94708" lon="2.14193">
        <ele>14.6</ele>
        <time>2023-06-28T09:25:35Z</time>
      </trkpt>
      <trkpt lat="49.94708" lon="2.14193">
        <ele>14.6</ele>
        <time>2023-06-28T09:25:36Z</time>
      </trkpt>
      <trkpt lat="49.94708" lon="2.14193">
        <ele>14.6</ele>
        <time>2023-06-28T09:25:37Z</time>
      </trkpt>
      <trkpt lat="49.94708" lon="2.14193">
        <ele>14.6</ele>
        <time>2023-06-28T09:25:38Z</time>
      </trkpt>
      <trkpt lat="49.9471" lon="2.14194">
        <ele>14.6</ele>
        <time>2023-06-28T09:25:39Z</time>
      </trkpt>
      <trkpt lat="49.94711" lon="2.14195">
        <ele>14.6</ele>
        <time>2023-06-28T09:25:40Z</time>
      </trkpt>
      <trkpt lat="49.94712" lon="2.14195">
        <ele>14.7</ele>
        <time>2023-06-28T09:25:41Z</time>
      </trkpt>
      <trkpt lat="49.94712" lon="2.14195">
        <ele>14.7</ele>
        <time>2023-06-28T09:25:42Z</time>
      </trkpt>
      <trkpt lat="49.94712" lon="2.14195">
        <ele>14.7</ele>
        <time>2023-06-28T09:25:43Z</time>
      </trkpt>
      <trkpt lat="49.94712" lon="2.14195">
        <ele>14.7</ele>
        <time>2023-06-28T09:25:44Z</time>
      </trkpt>
      <trkpt lat="49.94712" lon="2.14195">
        <ele>14.7</ele>
        <time>2023-06-28T09:25:45Z</time>
      </trkpt>
      <trkpt lat="49.94712" lon="2.14195">
        <ele>14.7</ele>
        <time>2023-06-28T09:25:46Z</time>
      </trkpt>
      <trkpt lat="49.94712" lon="2.14195">
        <ele>14.7</ele>
        <time>2023-06-28T09:25:47Z</time>
      </trkpt>
      <trkpt lat="49.94712" lon="2.14195">
        <ele>14.7</ele>
        <time>2023-06-28T09:25:48Z</time>
      </trkpt>
      <trkpt lat="49.94712" lon="2.14195">
        <ele>14.7</ele>
        <time>2023-06-28T09:25:49Z</time>
      </trkpt>
      <trkpt lat="49.94712" lon="2.14195">
        <ele>14.7</ele>
        <time>2023-06-28T09:25:50Z</time>
      </trkpt>
      <trkpt lat="49.94712" lon="2.14195">
        <ele>14.7</ele>
        <time>2023-06-28T09:25:51Z</time>
      </trkpt>
      <trkpt lat="49.94712" lon="2.14195">
        <ele>14.7</ele>
        <time>2023-06-28T09:25:52Z</time>
      </trkpt>
      <trkpt lat="49.94712" lon="2.14195">
        <ele>14.7</ele>
        <time>2023-06-28T09:25:53Z</time>
      </trkpt>
      <trkpt lat="49.94712" lon="2.14195">
        <ele>14.7</ele>
        <time>2023-06-28T09:25:54Z</time>
      </trkpt>
      <trkpt lat="49.94712" lon="2.14195">
        <ele>14.7</ele>
        <time>2023-06-28T09:25:55Z</time>
      </trkpt>
      <trkpt lat="49.94712" lon="2.14195">
        <ele>14.7</ele>
        <time>2023-06-28T09:25:56Z</time>
      </trkpt>
      <trkpt lat="49.94712" lon="2.14195">
        <ele>14.7</ele>
        <time>2023-06-28T09:25:57Z</time>
      </trkpt>
      <trkpt lat="49.94712" lon="2.14195">
        <ele>14.7</ele>
        <time>2023-06-28T09:25:58Z</time>
      </trkpt>
      <trkpt lat="49.94712" lon="2.14195">
        <ele>14.7</ele>
        <time>2023-06-28T09:25:59Z</time>
      </trkpt>
      <trkpt lat="49.94712" lon="2.14195">
        <ele>14.7</ele>
        <time>2023-06-28T09:26:00Z</time>
      </trkpt>
      <trkpt lat="49.94712" lon="2.14195">
        <ele>14.7</ele>
        <time>2023-06-28T09:26:01Z</time>
      </trkpt>
      <trkpt lat="49.94712" lon="2.14195">
        <ele>14.7</ele>
        <time>2023-06-28T09:26:02Z</time>
      </trkpt>
      <trkpt lat="49.94712" lon="2.14195">
        <ele>14.7</ele>
        <time>2023-06-28T09:26:03Z</time>
      </trkpt>
      <trkpt lat="49.94712" lon="2.14195">
        <ele>14.7</ele>
        <time>2023-06-28T09:26:04Z</time>
      </trkpt>
      <trkpt lat="49.94712" lon="2.14195">
        <ele>14.7</ele>
        <time>2023-06-28T09:26:05Z</time>
      </trkpt>
      <trkpt lat="49.94712" lon="2.14195">
        <ele>14.7</ele>
        <time>2023-06-28T09:26:06Z</time>
      </trkpt>
      <trkpt lat="49.94712" lon="2.14195">
        <ele>14.7</ele>
        <time>2023-06-28T09:26:07Z</time>
      </trkpt>
      <trkpt lat="49.94712" lon="2.14195">
        <ele>14.7</ele>
        <time>2023-06-28T09:26:08Z</time>
      </trkpt>
      <trkpt lat="49.94712" lon="2.14195">
        <ele>14.7</ele>
        <time>2023-06-28T09:26:09Z</time>
      </trkpt>
      <trkpt lat="49.94712" lon="2.14195">
        <ele>14.7</ele>
        <time>2023-06-28T09:26:10Z</time>
      </trkpt>
      <trkpt lat="49.94712" lon="2.14195">
        <ele>14.7</ele>
        <time>2023-06-28T09:26:11Z</time>
      </trkpt>
      <trkpt lat="49.94712" lon="2.14195">
        <ele>14.7</ele>
        <time>2023-06-28T09:26:12Z</time>
      </trkpt>
      <trkpt lat="49.94712" lon="2.14195">
        <ele>14.7</ele>
        <time>2023-06-28T09:26:13Z</time>
      </trkpt>
      <trkpt lat="49.94712" lon="2.14195">
        <ele>14.7</ele>
        <time>2023-06-28T09:26:14Z</time>
      </trkpt>
      <trkpt lat="49.94712" lon="2.14195">
        <ele>14.7</ele>
        <time>2023-06-28T09:26:15Z</time>
      </trkpt>
      <trkpt lat="49.94712" lon="2.14195">
        <ele>14.7</ele>
        <time>2023-06-28T09:26:16Z</time>
      </trkpt>
      <trkpt lat="49.94712" lon="2.14195">
        <ele>14.7</ele>
        <time>2023-06-28T09:26:17Z</time>
      </trkpt>
      <trkpt lat="49.94712" lon="2.14195">
        <ele>14.7</ele>
        <time>2023-06-28T09:26:18Z</time>
      </trkpt>
      <trkpt lat="49.94712" lon="2.14195">
        <ele>14.7</ele>
        <time>2023-06-28T09:26:19Z</time>
      </trkpt>
      <trkpt lat="49.94712" lon="2.14195">
        <ele>14.7</ele>
        <time>2023-06-28T09:26:20Z</time>
      </trkpt>
      <trkpt lat="49.94712" lon="2.14195">
        <ele>14.7</ele>
        <time>2023-06-28T09:26:21Z</time>
      </trkpt>
      <trkpt lat="49.94712" lon="2.14195">
        <ele>14.7</ele>
        <time>2023-06-28T09:26:22Z</time>
      </trkpt>
      <trkpt lat="49.94712" lon="2.14195">
        <ele>14.7</ele>
        <time>2023-06-28T09:26:23Z</time>
      </trkpt>
      <trkpt lat="49.94712" lon="2.14195">
        <ele>14.7</ele>
        <time>2023-06-28T09:26:24Z</time>
      </trkpt>
      <trkpt lat="49.94712" lon="2.14195">
        <ele>14.7</ele>
        <time>2023-06-28T09:26:25Z</time>
      </trkpt>
      <trkpt lat="49.94712" lon="2.14195">
        <ele>14.7</ele>
        <time>2023-06-28T09:26:26Z</time>
      </trkpt>
      <trkpt lat="49.94712" lon="2.14195">
        <ele>14.7</ele>
        <time>2023-06-28T09:26:27Z</time>
      </trkpt>
      <trkpt lat="49.94712" lon="2.14195">
        <ele>14.7</ele>
        <time>2023-06-28T09:26:28Z</time>
      </trkpt>
      <trkpt lat="49.94712" lon="2.14195">
        <ele>14.7</ele>
        <time>2023-06-28T09:26:29Z</time>
      </trkpt>
      <trkpt lat="49.94712" lon="2.14195">
        <ele>14.7</ele>
        <time>2023-06-28T09:26:30Z</time>
      </trkpt>
      <trkpt lat="49.94712" lon="2.14195">
        <ele>14.7</ele>
        <time>2023-06-28T09:26:31Z</time>
      </trkpt>
      <trkpt lat="49.94712" lon="2.14195">
        <ele>14.7</ele>
        <time>2023-06-28T09:26:32Z</time>
      </trkpt>
      <trkpt lat="49.94712" lon="2.14195">
        <ele>14.7</ele>
        <time>2023-06-28T09:26:33Z</time>
      </trkpt>
      <trkpt lat="49.94712" lon="2.14195">
        <ele>14.7</ele>
        <time>2023-06-28T09:26:34Z</time>
      </trkpt>
      <trkpt lat="49.94712" lon="2.14195">
        <ele>14.7</ele>
        <time>2023-06-28T09:26:35Z</time>
      </trkpt>
      <trkpt lat="49.94712" lon="2.14195">
        <ele>14.7</ele>
        <time>2023-06-28T09:26:36Z</time>
      </trkpt>
      <trkpt lat="49.94712" lon="2.14195">
        <ele>14.7</ele>
        <time>2023-06-28T09:26:37Z</time>
      </trkpt>
      <trkpt lat="49.94712" lon="2.14195">
        <ele>14.7</ele>
        <time>2023-06-28T09:26:38Z</time>
      </trkpt>
      <trkpt lat="49.94712" lon="2.14195">
        <ele>14.7</ele>
        <time>2023-06-28T09:26:39Z</time>
      </trkpt>
      <trkpt lat="49.94712" lon="2.14195">
        <ele>14.7</ele>
        <time>2023-06-28T09:26:40Z</time>
      </trkpt>
      <trkpt lat="49.94712" lon="2.14195">
        <ele>14.7</ele>
        <time>2023-06-28T09:26:41Z</time>
      </trkpt>
      <trkpt lat="49.94712" lon="2.14195">
        <ele>14.7</ele>
        <time>2023-06-28T09:26:42Z</time>
      </trkpt>
      <trkpt lat="49.94712" lon="2.14195">
        <ele>14.7</ele>
        <time>2023-06-28T09:26:43Z</time>
      </trkpt>
      <trkpt lat="49.94712" lon="2.14195">
        <ele>14.7</ele>
        <time>2023-06-28T09:26:44Z</time>
      </trkpt>
      <trkpt lat="49.94712" lon="2.14195">
        <ele>14.7</ele>
        <time>2023-06-28T09:26:45Z</time>
      </trkpt>
      <trkpt lat="49.94712" lon="2.14195">
        <ele>14.7</ele>
        <time>2023-06-28T09:26:46Z</time>
      </trkpt>
      <trkpt lat="49.94712" lon="2.14195">
        <ele>14.7</ele>
        <time>2023-06-28T09:26:47Z</time>
      </trkpt>
      <trkpt lat="49.94712" lon="2.14195">
        <ele>14.7</ele>
        <time>2023-06-28T09:26:48Z</time>
      </trkpt>
      <trkpt lat="49.94712" lon="2.14195">
        <ele>14.7</ele>
        <time>2023-06-28T09:26:49Z</time>
      </trkpt>
      <trkpt lat="49.94712" lon="2.14195">
        <ele>14.7</ele>
        <time>2023-06-28T09:26:50Z</time>
      </trkpt>
      <trkpt lat="49.94712" lon="2.14195">
        <ele>14.7</ele>
        <time>2023-06-28T09:26:51Z</time>
      </trkpt>
      <trkpt lat="49.94712" lon="2.14195">
        <ele>14.7</ele>
        <time>2023-06-28T09:26:52Z</time>
      </trkpt>
      <trkpt lat="49.94712" lon="2.14195">
        <ele>14.7</ele>
        <time>2023-06-28T09:26:53Z</time>
      </trkpt>
      <trkpt lat="49.94712" lon="2.14195">
        <ele>14.7</ele>
        <time>2023-06-28T09:26:54Z</time>
      </trkpt>
      <trkpt lat="49.94712" lon="2.14195">
        <ele>14.7</ele>
        <time>2023-06-28T09:26:55Z</time>
      </trkpt>
      <trkpt lat="49.94712" lon="2.14196">
        <ele>14.7</ele>
        <time>2023-06-28T09:26:56Z</time>
      </trkpt>
      <trkpt lat="49.94712" lon="2.14196">
        <ele>14.7</ele>
        <time>2023-06-28T09:26:57Z</time>
      </trkpt>
      <trkpt lat="49.94712" lon="2.14196">
        <ele>14.7</ele>
        <time>2023-06-28T09:26:58Z</time>
      </trkpt>
      <trkpt lat="49.94712" lon="2.14196">
        <ele>14.7</ele>
        <time>2023-06-28T09:26:59Z</time>
      </trkpt>
      <trkpt lat="49.94712" lon="2.14196">
        <ele>14.7</ele>
        <time>2023-06-28T09:27:00Z</time>
      </trkpt>
      <trkpt lat="49.94712" lon="2.14196">
        <ele>14.7</ele>
        <time>2023-06-28T09:27:01Z</time>
      </trkpt>
      <trkpt lat="49.94712" lon="2.14196">
        <ele>14.7</ele>
        <time>2023-06-28T09:27:02Z</time>
      </trkpt>
      <trkpt lat="49.94712" lon="2.14196">
        <ele>14.7</ele>
        <time>2023-06-28T09:27:03Z</time>
      </trkpt>
      <trkpt lat="49.94712" lon="2.14196">
        <ele>14.7</ele>
        <time>2023-06-28T09:27:04Z</time>
      </trkpt>
      <trkpt lat="49.94712" lon="2.14195">
        <ele>14.7</ele>
        <time>2023-06-28T09:27:05Z</time>
      </trkpt>
      <trkpt lat="49.94712" lon="2.14195">
        <ele>14.7</ele>
        <time>2023-06-28T09:27:06Z</time>
      </trkpt>
      <trkpt lat="49.94712" lon="2.14195">
        <ele>14.7</ele>
        <time>2023-06-28T09:27:07Z</time>
      </trkpt>
      <trkpt lat="49.94712" lon="2.14195">
        <ele>14.7</ele>
        <time>2023-06-28T09:27:08Z</time>
      </trkpt>
      <trkpt lat="49.94712" lon="2.14195">
        <ele>14.7</ele>
        <time>2023-06-28T09:27:09Z</time>
      </trkpt>
      <trkpt lat="49.94712" lon="2.14195">
        <ele>14.7</ele>
        <time>2023-06-28T09:27:10Z</time>
      </trkpt>
      <trkpt lat="49.94712" lon="2.14195">
        <ele>14.7</ele>
        <time>2023-06-28T09:27:11Z</time>
      </trkpt>
      <trkpt lat="49.94712" lon="2.14195">
        <ele>14.7</ele>
        <time>2023-06-28T09:27:12Z</time>
      </trkpt>
      <trkpt lat="49.94712" lon="2.14195">
        <ele>14.7</ele>
        <time>2023-06-28T09:27:13Z</time>
      </trkpt>
      <trkpt lat="49.94712" lon="2.14195">
        <ele>14.7</ele>
        <time>2023-06-28T09:27:14Z</time>
      </trkpt>
      <trkpt lat="49.94712" lon="2.14195">
        <ele>14.7</ele>
        <time>2023-06-28T09:27:15Z</time>
      </trkpt>
      <trkpt lat="49.94712" lon="2.14195">
        <ele>14.7</ele>
        <time>2023-06-28T09:27:16Z</time>
      </trkpt>
      <trkpt lat="49.94712" lon="2.14195">
        <ele>14.7</ele>
        <time>2023-06-28T09:27:17Z</time>
      </trkpt>
      <trkpt lat="49.94712" lon="2.14195">
        <ele>14.7</ele>
        <time>2023-06-28T09:27:18Z</time>
      </trkpt>
      <trkpt lat="49.94712" lon="2.14195">
        <ele>14.7</ele>
        <time>2023-06-28T09:27:19Z</time>
      </trkpt>
      <trkpt lat="49.94712" lon="2.14195">
        <ele>14.7</ele>
        <time>2023-06-28T09:27:20Z</time>
      </trkpt>
      <trkpt lat="49.94712" lon="2.14195">
        <ele>14.7</ele>
        <time>2023-06-28T09:27:21Z</time>
      </trkpt>
      <trkpt lat="49.94712" lon="2.14195">
        <ele>14.7</ele>
        <time>2023-06-28T09:27:22Z</time>
      </trkpt>
      <trkpt lat="49.94712" lon="2.14195">
        <ele>14.7</ele>
        <time>2023-06-28T09:27:23Z</time>
      </trkpt>
      <trkpt lat="49.94712" lon="2.14195">
        <ele>14.7</ele>
        <time>2023-06-28T09:27:24Z</time>
      </trkpt>
      <trkpt lat="49.94712" lon="2.14195">
        <ele>14.7</ele>
        <time>2023-06-28T09:27:25Z</time>
      </trkpt>
      <trkpt lat="49.94712" lon="2.14195">
        <ele>14.7</ele>
        <time>2023-06-28T09:27:26Z</time>
      </trkpt>
      <trkpt lat="49.94712" lon="2.14195">
        <ele>14.7</ele>
        <time>2023-06-28T09:27:27Z</time>
      </trkpt>
      <trkpt lat="49.94712" lon="2.14195">
        <ele>14.7</ele>
        <time>2023-06-28T09:27:28Z</time>
      </trkpt>
      <trkpt lat="49.94712" lon="2.14195">
        <ele>14.7</ele>
        <time>2023-06-28T09:27:29Z</time>
      </trkpt>
      <trkpt lat="49.94712" lon="2.14195">
        <ele>14.7</ele>
        <time>2023-06-28T09:27:30Z</time>
      </trkpt>
      <trkpt lat="49.94712" lon="2.14195">
        <ele>14.7</ele>
        <time>2023-06-28T09:27:31Z</time>
      </trkpt>
      <trkpt lat="49.94712" lon="2.14195">
        <ele>14.7</ele>
        <time>2023-06-28T09:27:32Z</time>
      </trkpt>
      <trkpt lat="49.94712" lon="2.14195">
        <ele>14.7</ele>
        <time>2023-06-28T09:27:33Z</time>
      </trkpt>
      <trkpt lat="49.94712" lon="2.14195">
        <ele>14.7</ele>
        <time>2023-06-28T09:27:34Z</time>
      </trkpt>
      <trkpt lat="49.94712" lon="2.14195">
        <ele>14.7</ele>
        <time>2023-06-28T09:27:35Z</time>
      </trkpt>
      <trkpt lat="49.94712" lon="2.14195">
        <ele>14.7</ele>
        <time>2023-06-28T09:27:36Z</time>
      </trkpt>
      <trkpt lat="49.94712" lon="2.14195">
        <ele>14.7</ele>
        <time>2023-06-28T09:27:37Z</time>
      </trkpt>
      <trkpt lat="49.94712" lon="2.14195">
        <ele>14.7</ele>
        <time>2023-06-28T09:27:38Z</time>
      </trkpt>
      <trkpt lat="49.94712" lon="2.14195">
        <ele>14.7</ele>
        <time>2023-06-28T09:27:39Z</time>
      </trkpt>
      <trkpt lat="49.94712" lon="2.14195">
        <ele>14.7</ele>
        <time>2023-06-28T09:27:40Z</time>
      </trkpt>
      <trkpt lat="49.94712" lon="2.14195">
        <ele>14.7</ele>
        <time>2023-06-28T09:27:41Z</time>
      </trkpt>
      <trkpt lat="49.94712" lon="2.14195">
        <ele>14.7</ele>
        <time>2023-06-28T09:27:42Z</time>
      </trkpt>
      <trkpt lat="49.94712" lon="2.14195">
        <ele>14.7</ele>
        <time>2023-06-28T09:27:43Z</time>
      </trkpt>
      <trkpt lat="49.94712" lon="2.14195">
        <ele>14.7</ele>
        <time>2023-06-28T09:27:44Z</time>
      </trkpt>
      <trkpt lat="49.94712" lon="2.14195">
        <ele>14.7</ele>
        <time>2023-06-28T09:27:45Z</time>
      </trkpt>
      <trkpt lat="49.94712" lon="2.14195">
        <ele>14.7</ele>
        <time>2023-06-28T09:27:46Z</time>
      </trkpt>
      <trkpt lat="49.94712" lon="2.14195">
        <ele>14.7</ele>
        <time>2023-06-28T09:27:47Z</time>
      </trkpt>
      <trkpt lat="49.94712" lon="2.14195">
        <ele>14.7</ele>
        <time>2023-06-28T09:27:48Z</time>
      </trkpt>
      <trkpt lat="49.94712" lon="2.14195">
        <ele>14.7</ele>
        <time>2023-06-28T09:27:49Z</time>
      </trkpt>
      <trkpt lat="49.94712" lon="2.14195">
        <ele>14.7</ele>
        <time>2023-06-28T09:27:50Z</time>
      </trkpt>
      <trkpt lat="49.94712" lon="2.14195">
        <ele>14.7</ele>
        <time>2023-06-28T09:27:51Z</time>
      </trkpt>
      <trkpt lat="49.94712" lon="2.14195">
        <ele>14.7</ele>
        <time>2023-06-28T09:27:52Z</time>
      </trkpt>
      <trkpt lat="49.94712" lon="2.14195">
        <ele>14.7</ele>
        <time>2023-06-28T09:27:53Z</time>
      </trkpt>
      <trkpt lat="49.94712" lon="2.14195">
        <ele>14.7</ele>
        <time>2023-06-28T09:27:54Z</time>
      </trkpt>
      <trkpt lat="49.94712" lon="2.14195">
        <ele>14.7</ele>
        <time>2023-06-28T09:27:55Z</time>
      </trkpt>
      <trkpt lat="49.94712" lon="2.14195">
        <ele>14.7</ele>
        <time>2023-06-28T09:27:56Z</time>
      </trkpt>
      <trkpt lat="49.94712" lon="2.14195">
        <ele>14.7</ele>
        <time>2023-06-28T09:27:57Z</time>
      </trkpt>
      <trkpt lat="49.94712" lon="2.14196">
        <ele>14.7</ele>
        <time>2023-06-28T09:27:58Z</time>
      </trkpt>
      <trkpt lat="49.94712" lon="2.14197">
        <ele>14.8</ele>
        <time>2023-06-28T09:27:59Z</time>
      </trkpt>
      <trkpt lat="49.94711" lon="2.14198">
        <ele>14.8</ele>
        <time>2023-06-28T09:28:00Z</time>
      </trkpt>
      <trkpt lat="49.94711" lon="2.142">
        <ele>14.8</ele>
        <time>2023-06-28T09:28:01Z</time>
      </trkpt>
      <trkpt lat="49.94711" lon="2.14202">
        <ele>14.9</ele>
        <time>2023-06-28T09:28:02Z</time>
      </trkpt>
      <trkpt lat="49.94711" lon="2.14203">
        <ele>14.9</ele>
        <time>2023-06-28T09:28:03Z</time>
      </trkpt>
      <trkpt lat="49.94711" lon="2.14204">
        <ele>14.9</ele>
        <time>2023-06-28T09:28:04Z</time>
      </trkpt>
      <trkpt lat="49.94711" lon="2.14205">
        <ele>14.9</ele>
        <time>2023-06-28T09:28:05Z</time>
      </trkpt>
      <trkpt lat="49.94711" lon="2.14206">
        <ele>14.9</ele>
        <time>2023-06-28T09:28:06Z</time>
      </trkpt>
      <trkpt lat="49.94711" lon="2.14206">
        <ele>15</ele>
        <time>2023-06-28T09:28:07Z</time>
      </trkpt>
      <trkpt lat="49.94711" lon="2.14207">
        <ele>15</ele>
        <time>2023-06-28T09:28:08Z</time>
      </trkpt>
      <trkpt lat="49.94711" lon="2.14208">
        <ele>15</ele>
        <time>2023-06-28T09:28:09Z</time>
      </trkpt>
      <trkpt lat="49.94711" lon="2.14208">
        <ele>15</ele>
        <time>2023-06-28T09:28:10Z</time>
      </trkpt>
      <trkpt lat="49.94711" lon="2.14208">
        <ele>15</ele>
        <time>2023-06-28T09:28:11Z</time>
      </trkpt>
      <trkpt lat="49.94711" lon="2.14209">
        <ele>15</ele>
        <time>2023-06-28T09:28:12Z</time>
      </trkpt>
      <trkpt lat="49.94711" lon="2.14209">
        <ele>15</ele>
        <time>2023-06-28T09:28:13Z</time>
      </trkpt>
      <trkpt lat="49.94711" lon="2.14208">
        <ele>15</ele>
        <time>2023-06-28T09:28:14Z</time>
      </trkpt>
      <trkpt lat="49.94711" lon="2.14208">
        <ele>15</ele>
        <time>2023-06-28T09:28:15Z</time>
      </trkpt>
      <trkpt lat="49.94711" lon="2.14208">
        <ele>15</ele>
        <time>2023-06-28T09:28:16Z</time>
      </trkpt>
      <trkpt lat="49.94711" lon="2.14208">
        <ele>15</ele>
        <time>2023-06-28T09:28:17Z</time>
      </trkpt>
      <trkpt lat="49.94711" lon="2.14208">
        <ele>15</ele>
        <time>2023-06-28T09:28:18Z</time>
      </trkpt>
      <trkpt lat="49.94711" lon="2.14208">
        <ele>15</ele>
        <time>2023-06-28T09:28:19Z</time>
      </trkpt>
      <trkpt lat="49.94711" lon="2.14208">
        <ele>15</ele>
        <time>2023-06-28T09:28:20Z</time>
      </trkpt>
      <trkpt lat="49.94711" lon="2.14208">
        <ele>15</ele>
        <time>2023-06-28T09:28:21Z</time>
      </trkpt>
      <trkpt lat="49.94711" lon="2.14208">
        <ele>15</ele>
        <time>2023-06-28T09:28:22Z</time>
      </trkpt>
      <trkpt lat="49.94711" lon="2.14208">
        <ele>15</ele>
        <time>2023-06-28T09:28:23Z</time>
      </trkpt>
      <trkpt lat="49.94711" lon="2.14208">
        <ele>15</ele>
        <time>2023-06-28T09:28:24Z</time>
      </trkpt>
      <trkpt lat="49.94711" lon="2.14208">
        <ele>15</ele>
        <time>2023-06-28T09:28:25Z</time>
      </trkpt>
      <trkpt lat="49.94711" lon="2.14208">
        <ele>15</ele>
        <time>2023-06-28T09:28:26Z</time>
      </trkpt>
      <trkpt lat="49.94711" lon="2.14208">
        <ele>15</ele>
        <time>2023-06-28T09:28:27Z</time>
      </trkpt>
      <trkpt lat="49.94711" lon="2.14208">
        <ele>15</ele>
        <time>2023-06-28T09:28:28Z</time>
      </trkpt>
      <trkpt lat="49.94711" lon="2.14208">
        <ele>15</ele>
        <time>2023-06-28T09:28:29Z</time>
      </trkpt>
      <trkpt lat="49.94711" lon="2.14208">
        <ele>15</ele>
        <time>2023-06-28T09:28:30Z</time>
      </trkpt>
      <trkpt lat="49.94711" lon="2.14208">
        <ele>15</ele>
        <time>2023-06-28T09:28:31Z</time>
      </trkpt>
      <trkpt lat="49.94711" lon="2.14208">
        <ele>15</ele>
        <time>2023-06-28T09:28:32Z</time>
      </trkpt>
      <trkpt lat="49.94711" lon="2.14208">
        <ele>15</ele>
        <time>2023-06-28T09:28:33Z</time>
      </trkpt>
      <trkpt lat="49.94711" lon="2.14208">
        <ele>15</ele>
        <time>2023-06-28T09:28:34Z</time>
      </trkpt>
      <trkpt lat="49.94711" lon="2.14208">
        <ele>15</ele>
        <time>2023-06-28T09:28:35Z</time>
      </trkpt>
      <trkpt lat="49.94711" lon="2.14208">
        <ele>15</ele>
        <time>2023-06-28T09:28:36Z</time>
      </trkpt>
      <trkpt lat="49.94711" lon="2.14208">
        <ele>15</ele>
        <time>2023-06-28T09:28:37Z</time>
      </trkpt>
      <trkpt lat="49.94711" lon="2.14208">
        <ele>15</ele>
        <time>2023-06-28T09:28:38Z</time>
      </trkpt>
      <trkpt lat="49.94711" lon="2.14208">
        <ele>15</ele>
        <time>2023-06-28T09:28:39Z</time>
      </trkpt>
      <trkpt lat="49.94711" lon="2.14208">
        <ele>15</ele>
        <time>2023-06-28T09:28:40Z</time>
      </trkpt>
      <trkpt lat="49.94711" lon="2.14208">
        <ele>15</ele>
        <time>2023-06-28T09:28:41Z</time>
      </trkpt>
      <trkpt lat="49.94711" lon="2.14208">
        <ele>15</ele>
        <time>2023-06-28T09:28:42Z</time>
      </trkpt>
      <trkpt lat="49.94711" lon="2.14208">
        <ele>15</ele>
        <time>2023-06-28T09:28:43Z</time>
      </trkpt>
      <trkpt lat="49.94711" lon="2.14208">
        <ele>15</ele>
        <time>2023-06-28T09:28:44Z</time>
      </trkpt>
      <trkpt lat="49.94711" lon="2.14208">
        <ele>15</ele>
        <time>2023-06-28T09:28:45Z</time>
      </trkpt>
      <trkpt lat="49.94711" lon="2.14208">
        <ele>15</ele>
        <time>2023-06-28T09:28:46Z</time>
      </trkpt>
      <trkpt lat="49.94711" lon="2.14208">
        <ele>15</ele>
        <time>2023-06-28T09:28:47Z</time>
      </trkpt>
      <trkpt lat="49.94711" lon="2.14208">
        <ele>15</ele>
        <time>2023-06-28T09:28:48Z</time>
      </trkpt>
      <trkpt lat="49.94711" lon="2.14208">
        <ele>15</ele>
        <time>2023-06-28T09:28:49Z</time>
      </trkpt>
      <trkpt lat="49.94711" lon="2.14208">
        <ele>15</ele>
        <time>2023-06-28T09:28:50Z</time>
      </trkpt>
      <trkpt lat="49.94711" lon="2.14208">
        <ele>15</ele>
        <time>2023-06-28T09:28:51Z</time>
      </trkpt>
      <trkpt lat="49.94711" lon="2.14208">
        <ele>15</ele>
        <time>2023-06-28T09:28:52Z</time>
      </trkpt>
      <trkpt lat="49.94711" lon="2.14208">
        <ele>15</ele>
        <time>2023-06-28T09:28:53Z</time>
      </trkpt>
      <trkpt lat="49.94711" lon="2.14208">
        <ele>15</ele>
        <time>2023-06-28T09:28:54Z</time>
      </trkpt>
      <trkpt lat="49.94711" lon="2.14208">
        <ele>15</ele>
        <time>2023-06-28T09:28:55Z</time>
      </trkpt>
      <trkpt lat="49.94711" lon="2.14208">
        <ele>15</ele>
        <time>2023-06-28T09:28:56Z</time>
      </trkpt>
      <trkpt lat="49.94711" lon="2.14208">
        <ele>15</ele>
        <time>2023-06-28T09:28:57Z</time>
      </trkpt>
      <trkpt lat="49.94711" lon="2.14208">
        <ele>15</ele>
        <time>2023-06-28T09:28:58Z</time>
      </trkpt>
      <trkpt lat="49.94711" lon="2.14208">
        <ele>15</ele>
        <time>2023-06-28T09:28:59Z</time>
      </trkpt>
      <trkpt lat="49.94711" lon="2.14208">
        <ele>15</ele>
        <time>2023-06-28T09:29:00Z</time>
      </trkpt>
      <trkpt lat="49.94711" lon="2.14208">
        <ele>15</ele>
        <time>2023-06-28T09:29:01Z</time>
      </trkpt>
      <trkpt lat="49.94711" lon="2.14208">
        <ele>15</ele>
        <time>2023-06-28T09:29:02Z</time>
      </trkpt>
      <trkpt lat="49.94711" lon="2.14208">
        <ele>15</ele>
        <time>2023-06-28T09:29:03Z</time>
      </trkpt>
      <trkpt lat="49.94711" lon="2.14208">
        <ele>15</ele>
        <time>2023-06-28T09:29:04Z</time>
      </trkpt>
      <trkpt lat="49.94711" lon="2.14208">
        <ele>15</ele>
        <time>2023-06-28T09:29:05Z</time>
      </trkpt>
      <trkpt lat="49.94711" lon="2.14208">
        <ele>15</ele>
        <time>2023-06-28T09:29:06Z</time>
      </trkpt>
      <trkpt lat="49.94711" lon="2.14208">
        <ele>15</ele>
        <time>2023-06-28T09:29:07Z</time>
      </trkpt>
      <trkpt lat="49.94711" lon="2.14208">
        <ele>15</ele>
        <time>2023-06-28T09:29:08Z</time>
      </trkpt>
      <trkpt lat="49.94711" lon="2.14208">
        <ele>15</ele>
        <time>2023-06-28T09:29:09Z</time>
      </trkpt>
      <trkpt lat="49.94711" lon="2.14208">
        <ele>15</ele>
        <time>2023-06-28T09:29:10Z</time>
      </trkpt>
      <trkpt lat="49.94711" lon="2.14208">
        <ele>15</ele>
        <time>2023-06-28T09:29:11Z</time>
      </trkpt>
      <trkpt lat="49.94711" lon="2.14208">
        <ele>15</ele>
        <time>2023-06-28T09:29:12Z</time>
      </trkpt>
      <trkpt lat="49.94711" lon="2.14208">
        <ele>15</ele>
        <time>2023-06-28T09:29:13Z</time>
      </trkpt>
      <trkpt lat="49.94711" lon="2.14208">
        <ele>15</ele>
        <time>2023-06-28T09:29:14Z</time>
      </trkpt>
      <trkpt lat="49.94711" lon="2.14208">
        <ele>15</ele>
        <time>2023-06-28T09:29:15Z</time>
      </trkpt>
      <trkpt lat="49.94711" lon="2.14208">
        <ele>15</ele>
        <time>2023-06-28T09:29:16Z</time>
      </trkpt>
      <trkpt lat="49.94711" lon="2.14208">
        <ele>15</ele>
        <time>2023-06-28T09:29:17Z</time>
      </trkpt>
      <trkpt lat="49.94711" lon="2.14208">
        <ele>15</ele>
        <time>2023-06-28T09:29:18Z</time>
      </trkpt>
      <trkpt lat="49.94711" lon="2.14208">
        <ele>15</ele>
        <time>2023-06-28T09:29:19Z</time>
      </trkpt>
      <trkpt lat="49.94711" lon="2.14208">
        <ele>15</ele>
        <time>2023-06-28T09:29:20Z</time>
      </trkpt>
      <trkpt lat="49.94711" lon="2.14208">
        <ele>15</ele>
        <time>2023-06-28T09:29:21Z</time>
      </trkpt>
      <trkpt lat="49.94711" lon="2.14208">
        <ele>15</ele>
        <time>2023-06-28T09:29:22Z</time>
      </trkpt>
      <trkpt lat="49.94711" lon="2.14208">
        <ele>15</ele>
        <time>2023-06-28T09:29:23Z</time>
      </trkpt>
      <trkpt lat="49.94711" lon="2.14208">
        <ele>15</ele>
        <time>2023-06-28T09:29:24Z</time>
      </trkpt>
      <trkpt lat="49.94711" lon="2.14208">
        <ele>15</ele>
        <time>2023-06-28T09:29:25Z</time>
      </trkpt>
      <trkpt lat="49.94711" lon="2.14208">
        <ele>15</ele>
        <time>2023-06-28T09:29:26Z</time>
      </trkpt>
      <trkpt lat="49.94711" lon="2.14208">
        <ele>15</ele>
        <time>2023-06-28T09:29:27Z</time>
      </trkpt>
      <trkpt lat="49.94711" lon="2.14208">
        <ele>15</ele>
        <time>2023-06-28T09:29:28Z</time>
      </trkpt>
      <trkpt lat="49.94711" lon="2.14208">
        <ele>15</ele>
        <time>2023-06-28T09:29:29Z</time>
      </trkpt>
      <trkpt lat="49.94711" lon="2.14208">
        <ele>15</ele>
        <time>2023-06-28T09:29:30Z</time>
      </trkpt>
      <trkpt lat="49.94711" lon="2.14208">
        <ele>15</ele>
        <time>2023-06-28T09:29:31Z</time>
      </trkpt>
      <trkpt lat="49.94711" lon="2.14208">
        <ele>15</ele>
        <time>2023-06-28T09:29:32Z</time>
      </trkpt>
      <trkpt lat="49.94711" lon="2.14208">
        <ele>15</ele>
        <time>2023-06-28T09:29:33Z</time>
      </trkpt>
      <trkpt lat="49.94711" lon="2.14208">
        <ele>15</ele>
        <time>2023-06-28T09:29:34Z</time>
      </trkpt>
      <trkpt lat="49.94711" lon="2.14208">
        <ele>15</ele>
        <time>2023-06-28T09:29:35Z</time>
      </trkpt>
      <trkpt lat="49.94711" lon="2.14208">
        <ele>15</ele>
        <time>2023-06-28T09:29:36Z</time>
      </trkpt>
      <trkpt lat="49.94711" lon="2.14208">
        <ele>15</ele>
        <time>2023-06-28T09:29:37Z</time>
      </trkpt>
      <trkpt lat="49.94711" lon="2.14208">
        <ele>15</ele>
        <time>2023-06-28T09:29:38Z</time>
      </trkpt>
      <trkpt lat="49.94711" lon="2.14208">
        <ele>15</ele>
        <time>2023-06-28T09:29:39Z</time>
      </trkpt>
      <trkpt lat="49.94711" lon="2.14208">
        <ele>15</ele>
        <time>2023-06-28T09:29:40Z</time>
      </trkpt>
      <trkpt lat="49.94711" lon="2.14208">
        <ele>15</ele>
        <time>2023-06-28T09:29:41Z</time>
      </trkpt>
      <trkpt lat="49.94711" lon="2.14208">
        <ele>15</ele>
        <time>2023-06-28T09:29:42Z</time>
      </trkpt>
      <trkpt lat="49.94711" lon="2.14208">
        <ele>15</ele>
        <time>2023-06-28T09:29:43Z</time>
      </trkpt>
      <trkpt lat="49.94711" lon="2.14208">
        <ele>15</ele>
        <time>2023-06-28T09:29:44Z</time>
      </trkpt>
      <trkpt lat="49.94711" lon="2.14208">
        <ele>15</ele>
        <time>2023-06-28T09:29:45Z</time>
      </trkpt>
      <trkpt lat="49.94711" lon="2.14208">
        <ele>15</ele>
        <time>2023-06-28T09:29:46Z</time>
      </trkpt>
      <trkpt lat="49.94711" lon="2.14208">
        <ele>15</ele>
        <time>2023-06-28T09:29:47Z</time>
      </trkpt>
      <trkpt lat="49.94711" lon="2.14208">
        <ele>15</ele>
        <time>2023-06-28T09:29:48Z</time>
      </trkpt>
      <trkpt lat="49.94711" lon="2.14208">
        <ele>15</ele>
        <time>2023-06-28T09:29:49Z</time>
      </trkpt>
      <trkpt lat="49.94711" lon="2.14208">
        <ele>15</ele>
        <time>2023-06-28T09:29:50Z</time>
      </trkpt>
      <trkpt lat="49.94711" lon="2.14208">
        <ele>15</ele>
        <time>2023-06-28T09:29:51Z</time>
      </trkpt>
      <trkpt lat="49.94711" lon="2.14208">
        <ele>15</ele>
        <time>2023-06-28T09:29:52Z</time>
      </trkpt>
      <trkpt lat="49.94711" lon="2.14208">
        <ele>15</ele>
        <time>2023-06-28T09:29:53Z</time>
      </trkpt>
      <trkpt lat="49.94711" lon="2.14208">
        <ele>15</ele>
        <time>2023-06-28T09:29:54Z</time>
      </trkpt>
      <trkpt lat="49.94711" lon="2.14208">
        <ele>15</ele>
        <time>2023-06-28T09:29:55Z</time>
      </trkpt>
      <trkpt lat="49.94711" lon="2.14208">
        <ele>15</ele>
        <time>2023-06-28T09:29:56Z</time>
      </trkpt>
      <trkpt lat="49.94711" lon="2.14208">
        <ele>15</ele>
        <time>2023-06-28T09:29:57Z</time>
      </trkpt>
      <trkpt lat="49.94711" lon="2.14208">
        <ele>15</ele>
        <time>2023-06-28T09:29:58Z</time>
      </trkpt>
      <trkpt lat="49.94711" lon="2.14209">
        <ele>15.1</ele>
        <time>2023-06-28T09:29:59Z</time>
      </trkpt>
      <trkpt lat="49.94711" lon="2.14209">
        <ele>15.1</ele>
        <time>2023-06-28T09:30:00Z</time>
      </trkpt>
      <trkpt lat="49.94711" lon="2.14209">
        <ele>15.1</ele>
        <time>2023-06-28T09:30:01Z</time>
      </trkpt>
      <trkpt lat="49.94711" lon="2.14209">
        <ele>15.1</ele>
        <time>2023-06-28T09:30:02Z</time>
      </trkpt>
      <trkpt lat="49.94711" lon="2.14209">
        <ele>15.1</ele>
        <time>2023-06-28T09:30:03Z</time>
      </trkpt>
      <trkpt lat="49.94711" lon="2.14209">
        <ele>15.1</ele>
        <time>2023-06-28T09:30:04Z</time>
      </trkpt>
      <trkpt lat="49.94711" lon="2.14209">
        <ele>15.1</ele>
        <time>2023-06-28T09:30:05Z</time>
      </trkpt>
      <trkpt lat="49.94711" lon="2.14209">
        <ele>15.1</ele>
        <time>2023-06-28T09:30:06Z</time>
      </trkpt>
      <trkpt lat="49.94711" lon="2.14209">
        <ele>15.1</ele>
        <time>2023-06-28T09:30:07Z</time>
      </trkpt>
      <trkpt lat="49.94711" lon="2.14209">
        <ele>15.1</ele>
        <time>2023-06-28T09:30:08Z</time>
      </trkpt>
      <trkpt lat="49.94711" lon="2.14209">
        <ele>15.1</ele>
        <time>2023-06-28T09:30:09Z</time>
      </trkpt>
      <trkpt lat="49.94711" lon="2.14209">
        <ele>15.1</ele>
        <time>2023-06-28T09:30:10Z</time>
      </trkpt>
      <trkpt lat="49.94711" lon="2.14209">
        <ele>15.1</ele>
        <time>2023-06-28T09:30:11Z</time>
      </trkpt>
      <trkpt lat="49.94711" lon="2.14209">
        <ele>15.1</ele>
        <time>2023-06-28T09:30:12Z</time>
      </trkpt>
      <trkpt lat="49.94711" lon="2.14209">
        <ele>15.1</ele>
        <time>2023-06-28T09:30:13Z</time>
      </trkpt>
      <trkpt lat="49.94711" lon="2.14209">
        <ele>15.1</ele>
        <time>2023-06-28T09:30:14Z</time>
      </trkpt>
      <trkpt lat="49.94711" lon="2.14209">
        <ele>15.1</ele>
        <time>2023-06-28T09:30:15Z</time>
      </trkpt>
      <trkpt lat="49.94711" lon="2.14209">
        <ele>15.1</ele>
        <time>2023-06-28T09:30:16Z</time>
      </trkpt>
      <trkpt lat="49.94711" lon="2.14209">
        <ele>15.1</ele>
        <time>2023-06-28T09:30:17Z</time>
      </trkpt>
      <trkpt lat="49.94711" lon="2.14209">
        <ele>15.1</ele>
        <time>2023-06-28T09:30:18Z</time>
      </trkpt>
      <trkpt lat="49.94711" lon="2.14209">
        <ele>15.1</ele>
        <time>2023-06-28T09:30:19Z</time>
      </trkpt>
      <trkpt lat="49.94711" lon="2.14209">
        <ele>15.1</ele>
        <time>2023-06-28T09:30:20Z</time>
      </trkpt>
      <trkpt lat="49.94711" lon="2.14209">
        <ele>15.1</ele>
        <time>2023-06-28T09:30:21Z</time>
      </trkpt>
      <trkpt lat="49.94711" lon="2.14209">
        <ele>15.1</ele>
        <time>2023-06-28T09:30:22Z</time>
      </trkpt>
      <trkpt lat="49.94711" lon="2.14209">
        <ele>15.1</ele>
        <time>2023-06-28T09:30:23Z</time>
      </trkpt>
      <trkpt lat="49.94711" lon="2.14209">
        <ele>15.1</ele>
        <time>2023-06-28T09:30:24Z</time>
      </trkpt>
      <trkpt lat="49.94711" lon="2.14209">
        <ele>15.1</ele>
        <time>2023-06-28T09:30:25Z</time>
      </trkpt>
      <trkpt lat="49.94711" lon="2.14209">
        <ele>15.1</ele>
        <time>2023-06-28T09:30:26Z</time>
      </trkpt>
      <trkpt lat="49.94711" lon="2.14209">
        <ele>15.1</ele>
        <time>2023-06-28T09:30:27Z</time>
      </trkpt>
      <trkpt lat="49.94711" lon="2.14209">
        <ele>15.1</ele>
        <time>2023-06-28T09:30:28Z</time>
      </trkpt>
      <trkpt lat="49.94711" lon="2.14209">
        <ele>15.1</ele>
        <time>2023-06-28T09:30:29Z</time>
      </trkpt>
      <trkpt lat="49.94711" lon="2.14209">
        <ele>15.1</ele>
        <time>2023-06-28T09:30:30Z</time>
      </trkpt>
      <trkpt lat="49.94711" lon="2.14209">
        <ele>15.1</ele>
        <time>2023-06-28T09:30:31Z</time>
      </trkpt>
      <trkpt lat="49.94711" lon="2.14209">
        <ele>15.1</ele>
        <time>2023-06-28T09:30:32Z</time>
      </trkpt>
      <trkpt lat="49.94711" lon="2.14209">
        <ele>15.1</ele>
        <time>2023-06-28T09:30:33Z</time>
      </trkpt>
      <trkpt lat="49.94711" lon="2.14209">
        <ele>15.1</ele>
        <time>2023-06-28T09:30:34Z</time>
      </trkpt>
      <trkpt lat="49.94711" lon="2.14209">
        <ele>15.1</ele>
        <time>2023-06-28T09:30:35Z</time>
      </trkpt>
      <trkpt lat="49.94711" lon="2.14209">
        <ele>15.1</ele>
        <time>2023-06-28T09:30:36Z</time>
      </trkpt>
      <trkpt lat="49.94711" lon="2.14209">
        <ele>15.1</ele>
        <time>2023-06-28T09:30:37Z</time>
      </trkpt>
      <trkpt lat="49.94711" lon="2.14209">
        <ele>15.1</ele>
        <time>2023-06-28T09:30:38Z</time>
      </trkpt>
      <trkpt lat="49.94711" lon="2.14209">
        <ele>15.1</ele>
        <time>2023-06-28T09:30:39Z</time>
      </trkpt>
      <trkpt lat="49.94711" lon="2.14209">
        <ele>15.1</ele>
        <time>2023-06-28T09:30:40Z</time>
      </trkpt>
      <trkpt lat="49.94711" lon="2.14209">
        <ele>15.1</ele>
        <time>2023-06-28T09:30:41Z</time>
      </trkpt>
      <trkpt lat="49.94711" lon="2.14209">
        <ele>15.1</ele>
        <time>2023-06-28T09:30:42Z</time>
      </trkpt>
      <trkpt lat="49.94711" lon="2.14209">
        <ele>15.1</ele>
        <time>2023-06-28T09:30:43Z</time>
      </trkpt>
      <trkpt lat="49.94711" lon="2.14209">
        <ele>15.1</ele>
        <time>2023-06-28T09:30:44Z</time>
      </trkpt>
      <trkpt lat="49.94711" lon="2.14209">
        <ele>15.1</ele>
        <time>2023-06-28T09:30:45Z</time>
      </trkpt>
      <trkpt lat="49.94711" lon="2.14209">
        <ele>15.1</ele>
        <time>2023-06-28T09:30:46Z</time>
      </trkpt>
      <trkpt lat="49.94711" lon="2.14209">
        <ele>15.1</ele>
        <time>2023-06-28T09:30:47Z</time>
      </trkpt>
      <trkpt lat="49.94711" lon="2.14209">
        <ele>15.1</ele>
        <time>2023-06-28T09:30:48Z</time>
      </trkpt>
      <trkpt lat="49.94711" lon="2.14209">
        <ele>15.1</ele>
        <time>2023-06-28T09:30:49Z</time>
      </trkpt>
      <trkpt lat="49.94711" lon="2.14209">
        <ele>15.1</ele>
        <time>2023-06-28T09:30:50Z</time>
      </trkpt>
      <trkpt lat="49.94711" lon="2.14209">
        <ele>15.1</ele>
        <time>2023-06-28T09:30:51Z</time>
      </trkpt>
      <trkpt lat="49.94711" lon="2.14209">
        <ele>15.1</ele>
        <time>2023-06-28T09:30:52Z</time>
      </trkpt>
      <trkpt lat="49.94711" lon="2.14209">
        <ele>15.1</ele>
        <time>2023-06-28T09:30:53Z</time>
      </trkpt>
      <trkpt lat="49.94711" lon="2.14209">
        <ele>15.1</ele>
        <time>2023-06-28T09:30:54Z</time>
      </trkpt>
      <trkpt lat="49.94711" lon="2.14209">
        <ele>15.1</ele>
        <time>2023-06-28T09:30:55Z</time>
      </trkpt>
      <trkpt lat="49.94711" lon="2.14209">
        <ele>15.1</ele>
        <time>2023-06-28T09:30:56Z</time>
      </trkpt>
      <trkpt lat="49.94711" lon="2.14209">
        <ele>15.1</ele>
        <time>2023-06-28T09:30:57Z</time>
      </trkpt>
      <trkpt lat="49.94711" lon="2.14209">
        <ele>15.1</ele>
        <time>2023-06-28T09:30:58Z</time>
      </trkpt>
      <trkpt lat="49.94711" lon="2.14209">
        <ele>15.1</ele>
        <time>2023-06-28T09:30:59Z</time>
      </trkpt>
      <trkpt lat="49.94711" lon="2.14209">
        <ele>15.1</ele>
        <time>2023-06-28T09:31:00Z</time>
      </trkpt>
      <trkpt lat="49.94711" lon="2.14209">
        <ele>15.1</ele>
        <time>2023-06-28T09:31:01Z</time>
      </trkpt>
      <trkpt lat="49.94711" lon="2.14209">
        <ele>15.1</ele>
        <time>2023-06-28T09:31:02Z</time>
      </trkpt>
      <trkpt lat="49.94711" lon="2.14209">
        <ele>15.1</ele>
        <time>2023-06-28T09:31:03Z</time>
      </trkpt>
      <trkpt lat="49.94711" lon="2.14209">
        <ele>15.1</ele>
        <time>2023-06-28T09:31:04Z</time>
      </trkpt>
      <trkpt lat="49.94711" lon="2.14209">
        <ele>15.1</ele>
        <time>2023-06-28T09:31:05Z</time>
      </trkpt>
      <trkpt lat="49.94711" lon="2.14209">
        <ele>15.1</ele>
        <time>2023-06-28T09:31:06Z</time>
      </trkpt>
      <trkpt lat="49.94711" lon="2.14209">
        <ele>15.1</ele>
        <time>2023-06-28T09:31:07Z</time>
      </trkpt>
      <trkpt lat="49.94711" lon="2.14209">
        <ele>15.1</ele>
        <time>2023-06-28T09:31:08Z</time>
      </trkpt>
      <trkpt lat="49.94711" lon="2.14209">
        <ele>15.1</ele>
        <time>2023-06-28T09:31:09Z</time>
      </trkpt>
      <trkpt lat="49.94711" lon="2.14209">
        <ele>15.1</ele>
        <time>2023-06-28T09:31:10Z</time>
      </trkpt>
      <trkpt lat="49.94711" lon="2.14209">
        <ele>15.1</ele>
        <time>2023-06-28T09:31:11Z</time>
      </trkpt>
      <trkpt lat="49.94711" lon="2.14209">
        <ele>15.1</ele>
        <time>2023-06-28T09:31:12Z</time>
      </trkpt>
      <trkpt lat="49.94711" lon="2.14209">
        <ele>15.1</ele>
        <time>2023-06-28T09:31:13Z</time>
      </trkpt>
      <trkpt lat="49.94711" lon="2.14209">
        <ele>15.1</ele>
        <time>2023-06-28T09:31:14Z</time>
      </trkpt>
      <trkpt lat="49.94711" lon="2.14209">
        <ele>15.1</ele>
        <time>2023-06-28T09:31:15Z</time>
      </trkpt>
      <trkpt lat="49.94711" lon="2.14209">
        <ele>15.1</ele>
        <time>2023-06-28T09:31:16Z</time>
      </trkpt>
      <trkpt lat="49.94711" lon="2.14209">
        <ele>15.1</ele>
        <time>2023-06-28T09:31:17Z</time>
      </trkpt>
      <trkpt lat="49.94711" lon="2.14209">
        <ele>15.1</ele>
        <time>2023-06-28T09:31:18Z</time>
      </trkpt>
      <trkpt lat="49.94711" lon="2.14209">
        <ele>15.1</ele>
        <time>2023-06-28T09:31:19Z</time>
      </trkpt>
      <trkpt lat="49.94711" lon="2.14209">
        <ele>15.1</ele>
        <time>2023-06-28T09:31:20Z</time>
      </trkpt>
      <trkpt lat="49.94711" lon="2.14209">
        <ele>15.1</ele>
        <time>2023-06-28T09:31:21Z</time>
      </trkpt>
      <trkpt lat="49.94711" lon="2.14209">
        <ele>15.1</ele>
        <time>2023-06-28T09:31:22Z</time>
      </trkpt>
      <trkpt lat="49.94711" lon="2.14209">
        <ele>15.1</ele>
        <time>2023-06-28T09:31:23Z</time>
      </trkpt>
      <trkpt lat="49.94711" lon="2.14209">
        <ele>15.1</ele>
        <time>2023-06-28T09:31:24Z</time>
      </trkpt>
      <trkpt lat="49.94711" lon="2.14209">
        <ele>15.1</ele>
        <time>2023-06-28T09:31:25Z</time>
      </trkpt>
      <trkpt lat="49.94711" lon="2.14209">
        <ele>15.1</ele>
        <time>2023-06-28T09:31:26Z</time>
      </trkpt>
      <trkpt lat="49.94711" lon="2.14209">
        <ele>15.1</ele>
        <time>2023-06-28T09:31:27Z</time>
      </trkpt>
      <trkpt lat="49.94711" lon="2.14209">
        <ele>15.1</ele>
        <time>2023-06-28T09:31:28Z</time>
      </trkpt>
      <trkpt lat="49.94711" lon="2.14209">
        <ele>15.1</ele>
        <time>2023-06-28T09:31:29Z</time>
      </trkpt>
      <trkpt lat="49.94711" lon="2.1421">
        <ele>15.1</ele>
        <time>2023-06-28T09:31:30Z</time>
      </trkpt>
      <trkpt lat="49.9471" lon="2.14211">
        <ele>15.1</ele>
        <time>2023-06-28T09:31:31Z</time>
      </trkpt>
      <trkpt lat="49.94709" lon="2.14212">
        <ele>15.2</ele>
        <time>2023-06-28T09:31:32Z</time>
      </trkpt>
      <trkpt lat="49.94708" lon="2.14214">
        <ele>15.3</ele>
        <time>2023-06-28T09:31:33Z</time>
      </trkpt>
      <trkpt lat="49.94707" lon="2.14215">
        <ele>15.3</ele>
        <time>2023-06-28T09:31:34Z</time>
      </trkpt>
      <trkpt lat="49.94706" lon="2.14216">
        <ele>15.3</ele>
        <time>2023-06-28T09:31:35Z</time>
      </trkpt>
      <trkpt lat="49.94706" lon="2.14217">
        <ele>15.4</ele>
        <time>2023-06-28T09:31:36Z</time>
      </trkpt>
      <trkpt lat="49.94705" lon="2.14218">
        <ele>15.4</ele>
        <time>2023-06-28T09:31:37Z</time>
      </trkpt>
      <trkpt lat="49.94704" lon="2.1422">
        <ele>15.5</ele>
        <time>2023-06-28T09:31:38Z</time>
      </trkpt>
      <trkpt lat="49.94704" lon="2.14222">
        <ele>15.5</ele>
        <time>2023-06-28T09:31:39Z</time>
      </trkpt>
      <trkpt lat="49.94704" lon="2.14223">
        <ele>15.5</ele>
        <time>2023-06-28T09:31:40Z</time>
      </trkpt>
      <trkpt lat="49.94703" lon="2.14225">
        <ele>15.6</ele>
        <time>2023-06-28T09:31:41Z</time>
      </trkpt>
      <trkpt lat="49.94703" lon="2.14226">
        <ele>15.6</ele>
        <time>2023-06-28T09:31:42Z</time>
      </trkpt>
      <trkpt lat="49.94702" lon="2.14227">
        <ele>15.6</ele>
        <time>2023-06-28T09:31:43Z</time>
      </trkpt>
      <trkpt lat="49.94702" lon="2.14228">
        <ele>15.7</ele>
        <time>2023-06-28T09:31:44Z</time>
      </trkpt>
      <trkpt lat="49.94702" lon="2.14228">
        <ele>15.7</ele>
        <time>2023-06-28T09:31:45Z</time>
      </trkpt>
      <trkpt lat="49.94701" lon="2.14229">
        <ele>15.7</ele>
        <time>2023-06-28T09:31:46Z</time>
      </trkpt>
      <trkpt lat="49.94701" lon="2.1423">
        <ele>15.7</ele>
        <time>2023-06-28T09:31:47Z</time>
      </trkpt>
      <trkpt lat="49.94701" lon="2.1423">
        <ele>15.7</ele>
        <time>2023-06-28T09:31:48Z</time>
      </trkpt>
      <trkpt lat="49.947" lon="2.14231">
        <ele>15.8</ele>
        <time>2023-06-28T09:31:49Z</time>
      </trkpt>
      <trkpt lat="49.947" lon="2.14231">
        <ele>15.8</ele>
        <time>2023-06-28T09:31:50Z</time>
      </trkpt>
      <trkpt lat="49.94699" lon="2.14232">
        <ele>15.8</ele>
        <time>2023-06-28T09:31:51Z</time>
      </trkpt>
      <trkpt lat="49.94699" lon="2.14232">
        <ele>15.8</ele>
        <time>2023-06-28T09:31:52Z</time>
      </trkpt>
      <trkpt lat="49.94698" lon="2.14232">
        <ele>15.8</ele>
        <time>2023-06-28T09:31:53Z</time>
      </trkpt>
      <trkpt lat="49.94698" lon="2.14232">
        <ele>15.8</ele>
        <time>2023-06-28T09:31:54Z</time>
      </trkpt>
      <trkpt lat="49.94698" lon="2.14232">
        <ele>15.8</ele>
        <time>2023-06-28T09:31:55Z</time>
      </trkpt>
      <trkpt lat="49.94698" lon="2.14232">
        <ele>15.9</ele>
        <time>2023-06-28T09:31:56Z</time>
      </trkpt>
      <trkpt lat="49.94698" lon="2.14232">
        <ele>15.9</ele>
        <time>2023-06-28T09:31:57Z</time>
      </trkpt>
      <trkpt lat="49.94698" lon="2.14232">
        <ele>15.9</ele>
        <time>2023-06-28T09:31:58Z</time>
      </trkpt>
      <trkpt lat="49.94697" lon="2.14232">
        <ele>15.9</ele>
        <time>2023-06-28T09:31:59Z</time>
      </trkpt>
      <trkpt lat="49.94697" lon="2.14233">
        <ele>15.9</ele>
        <time>2023-06-28T09:32:00Z</time>
      </trkpt>
      <trkpt lat="49.94697" lon="2.14233">
        <ele>15.9</ele>
        <time>2023-06-28T09:32:01Z</time>
      </trkpt>
      <trkpt lat="49.94697" lon="2.14233">
        <ele>15.9</ele>
        <time>2023-06-28T09:32:02Z</time>
      </trkpt>
      <trkpt lat="49.94697" lon="2.14233">
        <ele>15.9</ele>
        <time>2023-06-28T09:32:03Z</time>
      </trkpt>
      <trkpt lat="49.94697" lon="2.14233">
        <ele>15.9</ele>
        <time>2023-06-28T09:32:04Z</time>
      </trkpt>
      <trkpt lat="49.94697" lon="2.14233">
        <ele>15.9</ele>
        <time>2023-06-28T09:32:05Z</time>
      </trkpt>
      <trkpt lat="49.94697" lon="2.14233">
        <ele>15.9</ele>
        <time>2023-06-28T09:32:06Z</time>
      </trkpt>
      <trkpt lat="49.94697" lon="2.14233">
        <ele>15.9</ele>
        <time>2023-06-28T09:32:07Z</time>
      </trkpt>
      <trkpt lat="49.94697" lon="2.14233">
        <ele>15.9</ele>
        <time>2023-06-28T09:32:08Z</time>
      </trkpt>
      <trkpt lat="49.94697" lon="2.14233">
        <ele>15.9</ele>
        <time>2023-06-28T09:32:09Z</time>
      </trkpt>
      <trkpt lat="49.94697" lon="2.14233">
        <ele>15.9</ele>
        <time>2023-06-28T09:32:10Z</time>
      </trkpt>
      <trkpt lat="49.94697" lon="2.14233">
        <ele>15.9</ele>
        <time>2023-06-28T09:32:11Z</time>
      </trkpt>
      <trkpt lat="49.94697" lon="2.14233">
        <ele>15.9</ele>
        <time>2023-06-28T09:32:12Z</time>
      </trkpt>
      <trkpt lat="49.94697" lon="2.14233">
        <ele>15.9</ele>
        <time>2023-06-28T09:32:13Z</time>
      </trkpt>
      <trkpt lat="49.94697" lon="2.14233">
        <ele>15.9</ele>
        <time>2023-06-28T09:32:14Z</time>
      </trkpt>
      <trkpt lat="49.94696" lon="2.14233">
        <ele>15.9</ele>
        <time>2023-06-28T09:32:15Z</time>
      </trkpt>
      <trkpt lat="49.94696" lon="2.14233">
        <ele>15.9</ele>
        <time>2023-06-28T09:32:16Z</time>
      </trkpt>
      <trkpt lat="49.94696" lon="2.14233">
        <ele>15.9</ele>
        <time>2023-06-28T09:32:17Z</time>
      </trkpt>
      <trkpt lat="49.94696" lon="2.14233">
        <ele>15.9</ele>
        <time>2023-06-28T09:32:18Z</time>
      </trkpt>
      <trkpt lat="49.94696" lon="2.14233">
        <ele>16.1</ele>
        <time>2023-06-28T09:32:19Z</time>
      </trkpt>
      <trkpt lat="49.94696" lon="2.14233">
        <ele>16.1</ele>
        <time>2023-06-28T09:32:20Z</time>
      </trkpt>
      <trkpt lat="49.94695" lon="2.14234">
        <ele>16.1</ele>
        <time>2023-06-28T09:32:21Z</time>
      </trkpt>
      <trkpt lat="49.94695" lon="2.14234">
        <ele>16.1</ele>
        <time>2023-06-28T09:32:22Z</time>
      </trkpt>
      <trkpt lat="49.94695" lon="2.14234">
        <ele>16.1</ele>
        <time>2023-06-28T09:32:23Z</time>
      </trkpt>
      <trkpt lat="49.94694" lon="2.14234">
        <ele>16.1</ele>
        <time>2023-06-28T09:32:24Z</time>
      </trkpt>
      <trkpt lat="49.94693" lon="2.14234">
        <ele>16.1</ele>
        <time>2023-06-28T09:32:25Z</time>
      </trkpt>
      <trkpt lat="49.94692" lon="2.14233">
        <ele>16.1</ele>
        <time>2023-06-28T09:32:26Z</time>
      </trkpt>
      <trkpt lat="49.94691" lon="2.14233">
        <ele>16.1</ele>
        <time>2023-06-28T09:32:27Z</time>
      </trkpt>
      <trkpt lat="49.94691" lon="2.14233">
        <ele>16.1</ele>
        <time>2023-06-28T09:32:28Z</time>
      </trkpt>
      <trkpt lat="49.9469" lon="2.14232">
        <ele>16.1</ele>
        <time>2023-06-28T09:32:29Z</time>
      </trkpt>
      <trkpt lat="49.94688" lon="2.14231">
        <ele>16.1</ele>
        <time>2023-06-28T09:32:30Z</time>
      </trkpt>
      <trkpt lat="49.94688" lon="2.14231">
        <ele>16.2</ele>
        <time>2023-06-28T09:32:31Z</time>
      </trkpt>
      <trkpt lat="49.94687" lon="2.1423">
        <ele>16.2</ele>
        <time>2023-06-28T09:32:32Z</time>
      </trkpt>
      <trkpt lat="49.94686" lon="2.1423">
        <ele>16.2</ele>
        <time>2023-06-28T09:32:33Z</time>
      </trkpt>
      <trkpt lat="49.94685" lon="2.14228">
        <ele>16.2</ele>
        <time>2023-06-28T09:32:34Z</time>
      </trkpt>
      <trkpt lat="49.94684" lon="2.14228">
        <ele>16.2</ele>
        <time>2023-06-28T09:32:35Z</time>
      </trkpt>
      <trkpt lat="49.94684" lon="2.14227">
        <ele>16.2</ele>
        <time>2023-06-28T09:32:36Z</time>
      </trkpt>
      <trkpt lat="49.94683" lon="2.14226">
        <ele>16.2</ele>
        <time>2023-06-28T09:32:37Z</time>
      </trkpt>
      <trkpt lat="49.94682" lon="2.14225">
        <ele>16.2</ele>
        <time>2023-06-28T09:32:38Z</time>
      </trkpt>
      <trkpt lat="49.94682" lon="2.14224">
        <ele>16.2</ele>
        <time>2023-06-28T09:32:39Z</time>
      </trkpt>
      <trkpt lat="49.94681" lon="2.14224">
        <ele>16.2</ele>
        <time>2023-06-28T09:32:40Z</time>
      </trkpt>
      <trkpt lat="49.9468" lon="2.14223">
        <ele>16.2</ele>
        <time>2023-06-28T09:32:41Z</time>
      </trkpt>
      <trkpt lat="49.9468" lon="2.14222">
        <ele>16.2</ele>
        <time>2023-06-28T09:32:42Z</time>
      </trkpt>
      <trkpt lat="49.94679" lon="2.1422">
        <ele>16.2</ele>
        <time>2023-06-28T09:32:43Z</time>
      </trkpt>
      <trkpt lat="49.94677" lon="2.14218">
        <ele>16.2</ele>
        <time>2023-06-28T09:32:44Z</time>
      </trkpt>
      <trkpt lat="49.94676" lon="2.14217">
        <ele>16.2</ele>
        <time>2023-06-28T09:32:45Z</time>
      </trkpt>
      <trkpt lat="49.94672" lon="2.14216">
        <ele>16.3</ele>
        <time>2023-06-28T09:32:46Z</time>
      </trkpt>
      <trkpt lat="49.9467" lon="2.14214">
        <ele>16.3</ele>
        <time>2023-06-28T09:32:47Z</time>
      </trkpt>
      <trkpt lat="49.94666" lon="2.14212">
        <ele>16.3</ele>
        <time>2023-06-28T09:32:48Z</time>
      </trkpt>
      <trkpt lat="49.94665" lon="2.14212">
        <ele>16.3</ele>
        <time>2023-06-28T09:32:49Z</time>
      </trkpt>
      <trkpt lat="49.94664" lon="2.14212">
        <ele>16.3</ele>
        <time>2023-06-28T09:32:50Z</time>
      </trkpt>
      <trkpt lat="49.94662" lon="2.14211">
        <ele>16.3</ele>
        <time>2023-06-28T09:32:51Z</time>
      </trkpt>
      <trkpt lat="49.9466" lon="2.1421">
        <ele>16.4</ele>
        <time>2023-06-28T09:32:52Z</time>
      </trkpt>
      <trkpt lat="49.94659" lon="2.1421">
        <ele>16.4</ele>
        <time>2023-06-28T09:32:53Z</time>
      </trkpt>
      <trkpt lat="49.94658" lon="2.1421">
        <ele>16.4</ele>
        <time>2023-06-28T09:32:54Z</time>
      </trkpt>
      <trkpt lat="49.94656" lon="2.14209">
        <ele>16.4</ele>
        <time>2023-06-28T09:32:55Z</time>
      </trkpt>
      <trkpt lat="49.94655" lon="2.14209">
        <ele>16.4</ele>
        <time>2023-06-28T09:32:56Z</time>
      </trkpt>
      <trkpt lat="49.94655" lon="2.14209">
        <ele>16.4</ele>
        <time>2023-06-28T09:32:57Z</time>
      </trkpt>
      <trkpt lat="49.94654" lon="2.14209">
        <ele>16.4</ele>
        <time>2023-06-28T09:32:58Z</time>
      </trkpt>
      <trkpt lat="49.94653" lon="2.14209">
        <ele>16.4</ele>
        <time>2023-06-28T09:32:59Z</time>
      </trkpt>
      <trkpt lat="49.94652" lon="2.14209">
        <ele>16.4</ele>
        <time>2023-06-28T09:33:00Z</time>
      </trkpt>
      <trkpt lat="49.94651" lon="2.14209">
        <ele>16.4</ele>
        <time>2023-06-28T09:33:01Z</time>
      </trkpt>
      <trkpt lat="49.9465" lon="2.14208">
        <ele>16.4</ele>
        <time>2023-06-28T09:33:02Z</time>
      </trkpt>
      <trkpt lat="49.9465" lon="2.14208">
        <ele>16.4</ele>
        <time>2023-06-28T09:33:03Z</time>
      </trkpt>
      <trkpt lat="49.94649" lon="2.14207">
        <ele>16.4</ele>
        <time>2023-06-28T09:33:04Z</time>
      </trkpt>
      <trkpt lat="49.94648" lon="2.14207">
        <ele>16.4</ele>
        <time>2023-06-28T09:33:05Z</time>
      </trkpt>
      <trkpt lat="49.94647" lon="2.14207">
        <ele>16.4</ele>
        <time>2023-06-28T09:33:06Z</time>
      </trkpt>
      <trkpt lat="49.94646" lon="2.14207">
        <ele>16.4</ele>
        <time>2023-06-28T09:33:07Z</time>
      </trkpt>
      <trkpt lat="49.94645" lon="2.14207">
        <ele>16.4</ele>
        <time>2023-06-28T09:33:08Z</time>
      </trkpt>
      <trkpt lat="49.94644" lon="2.14207">
        <ele>16.4</ele>
        <time>2023-06-28T09:33:09Z</time>
      </trkpt>
      <trkpt lat="49.94643" lon="2.14207">
        <ele>16.4</ele>
        <time>2023-06-28T09:33:10Z</time>
      </trkpt>
      <trkpt lat="49.94642" lon="2.14207">
        <ele>16.4</ele>
        <time>2023-06-28T09:33:11Z</time>
      </trkpt>
      <trkpt lat="49.94642" lon="2.14208">
        <ele>16.4</ele>
        <time>2023-06-28T09:33:12Z</time>
      </trkpt>
      <trkpt lat="49.94641" lon="2.14208">
        <ele>16.4</ele>
        <time>2023-06-28T09:33:13Z</time>
      </trkpt>
      <trkpt lat="49.9464" lon="2.14209">
        <ele>16.4</ele>
        <time>2023-06-28T09:33:14Z</time>
      </trkpt>
      <trkpt lat="49.94639" lon="2.14209">
        <ele>16.4</ele>
        <time>2023-06-28T09:33:15Z</time>
      </trkpt>
      <trkpt lat="49.94638" lon="2.14209">
        <ele>16.5</ele>
        <time>2023-06-28T09:33:16Z</time>
      </trkpt>
      <trkpt lat="49.94638" lon="2.14209">
        <ele>16.5</ele>
        <time>2023-06-28T09:33:17Z</time>
      </trkpt>
      <trkpt lat="49.94637" lon="2.14209">
        <ele>16.5</ele>
        <time>2023-06-28T09:33:18Z</time>
      </trkpt>
      <trkpt lat="49.94636" lon="2.14209">
        <ele>16.5</ele>
        <time>2023-06-28T09:33:19Z</time>
      </trkpt>
      <trkpt lat="49.94635" lon="2.14209">
        <ele>16.5</ele>
        <time>2023-06-28T09:33:20Z</time>
      </trkpt>
      <trkpt lat="49.94634" lon="2.14209">
        <ele>16.5</ele>
        <time>2023-06-28T09:33:21Z</time>
      </trkpt>
      <trkpt lat="49.94634" lon="2.1421">
        <ele>16.5</ele>
        <time>2023-06-28T09:33:22Z</time>
      </trkpt>
      <trkpt lat="49.94633" lon="2.1421">
        <ele>16.5</ele>
        <time>2023-06-28T09:33:23Z</time>
      </trkpt>
      <trkpt lat="49.94632" lon="2.14209">
        <ele>16.5</ele>
        <time>2023-06-28T09:33:24Z</time>
      </trkpt>
      <trkpt lat="49.94631" lon="2.14208">
        <ele>16.5</ele>
        <time>2023-06-28T09:33:25Z</time>
      </trkpt>
      <trkpt lat="49.9463" lon="2.14205">
        <ele>16.5</ele>
        <time>2023-06-28T09:33:26Z</time>
      </trkpt>
      <trkpt lat="49.9463" lon="2.14203">
        <ele>16.5</ele>
        <time>2023-06-28T09:33:27Z</time>
      </trkpt>
      <trkpt lat="49.9463" lon="2.142">
        <ele>16.5</ele>
        <time>2023-06-28T09:33:28Z</time>
      </trkpt>
      <trkpt lat="49.9463" lon="2.14198">
        <ele>15.2</ele>
        <time>2023-06-28T09:33:29Z</time>
      </trkpt>
      <trkpt lat="49.9463" lon="2.14197">
        <ele>15.1</ele>
        <time>2023-06-28T09:33:30Z</time>
      </trkpt>
      <trkpt lat="49.9463" lon="2.14195">
        <ele>15</ele>
        <time>2023-06-28T09:33:31Z</time>
      </trkpt>
      <trkpt lat="49.9463" lon="2.14193">
        <ele>15</ele>
        <time>2023-06-28T09:33:32Z</time>
      </trkpt>
      <trkpt lat="49.94631" lon="2.14191">
        <ele>14.8</ele>
        <time>2023-06-28T09:33:33Z</time>
      </trkpt>
      <trkpt lat="49.94632" lon="2.14189">
        <ele>14.7</ele>
        <time>2023-06-28T09:33:34Z</time>
      </trkpt>
      <trkpt lat="49.94633" lon="2.14187">
        <ele>14.6</ele>
        <time>2023-06-28T09:33:35Z</time>
      </trkpt>
      <trkpt lat="49.94634" lon="2.14185">
        <ele>14.5</ele>
        <time>2023-06-28T09:33:36Z</time>
      </trkpt>
      <trkpt lat="49.94635" lon="2.14183">
        <ele>14.4</ele>
        <time>2023-06-28T09:33:37Z</time>
      </trkpt>
      <trkpt lat="49.94635" lon="2.14181">
        <ele>14.3</ele>
        <time>2023-06-28T09:33:38Z</time>
      </trkpt>
      <trkpt lat="49.94636" lon="2.1418">
        <ele>14.2</ele>
        <time>2023-06-28T09:33:39Z</time>
      </trkpt>
      <trkpt lat="49.94636" lon="2.14179">
        <ele>14.2</ele>
        <time>2023-06-28T09:33:40Z</time>
      </trkpt>
      <trkpt lat="49.94637" lon="2.14177">
        <ele>14.1</ele>
        <time>2023-06-28T09:33:41Z</time>
      </trkpt>
      <trkpt lat="49.94637" lon="2.14174">
        <ele>14</ele>
        <time>2023-06-28T09:33:42Z</time>
      </trkpt>
      <trkpt lat="49.94638" lon="2.14172">
        <ele>13.9</ele>
        <time>2023-06-28T09:33:43Z</time>
      </trkpt>
      <trkpt lat="49.94638" lon="2.1417">
        <ele>13.8</ele>
        <time>2023-06-28T09:33:44Z</time>
      </trkpt>
      <trkpt lat="49.94639" lon="2.14168">
        <ele>13.7</ele>
        <time>2023-06-28T09:33:45Z</time>
      </trkpt>
      <trkpt lat="49.94639" lon="2.14166">
        <ele>13.6</ele>
        <time>2023-06-28T09:33:46Z</time>
      </trkpt>
      <trkpt lat="49.94639" lon="2.14164">
        <ele>13.6</ele>
        <time>2023-06-28T09:33:47Z</time>
      </trkpt>
      <trkpt lat="49.9464" lon="2.14163">
        <ele>13.5</ele>
        <time>2023-06-28T09:33:48Z</time>
      </trkpt>
      <trkpt lat="49.9464" lon="2.14161">
        <ele>13.5</ele>
        <time>2023-06-28T09:33:49Z</time>
      </trkpt>
      <trkpt lat="49.94641" lon="2.14159">
        <ele>13.4</ele>
        <time>2023-06-28T09:33:50Z</time>
      </trkpt>
      <trkpt lat="49.94641" lon="2.14156">
        <ele>13.3</ele>
        <time>2023-06-28T09:33:51Z</time>
      </trkpt>
      <trkpt lat="49.94642" lon="2.14155">
        <ele>13.3</ele>
        <time>2023-06-28T09:33:52Z</time>
      </trkpt>
      <trkpt lat="49.94642" lon="2.14153">
        <ele>13.2</ele>
        <time>2023-06-28T09:33:53Z</time>
      </trkpt>
      <trkpt lat="49.94642" lon="2.14152">
        <ele>13.2</ele>
        <time>2023-06-28T09:33:54Z</time>
      </trkpt>
      <trkpt lat="49.94643" lon="2.14151">
        <ele>13.2</ele>
        <time>2023-06-28T09:33:55Z</time>
      </trkpt>
      <trkpt lat="49.94643" lon="2.14151">
        <ele>13.1</ele>
        <time>2023-06-28T09:33:56Z</time>
      </trkpt>
      <trkpt lat="49.94644" lon="2.14149">
        <ele>13.1</ele>
        <time>2023-06-28T09:33:57Z</time>
      </trkpt>
      <trkpt lat="49.94645" lon="2.14149">
        <ele>13.1</ele>
        <time>2023-06-28T09:33:58Z</time>
      </trkpt>
      <trkpt lat="49.94646" lon="2.14148">
        <ele>13</ele>
        <time>2023-06-28T09:33:59Z</time>
      </trkpt>
      <trkpt lat="49.94646" lon="2.14147">
        <ele>13</ele>
        <time>2023-06-28T09:34:00Z</time>
      </trkpt>
      <trkpt lat="49.94648" lon="2.14145">
        <ele>12.9</ele>
        <time>2023-06-28T09:34:01Z</time>
      </trkpt>
      <trkpt lat="49.94649" lon="2.14144">
        <ele>12.9</ele>
        <time>2023-06-28T09:34:02Z</time>
      </trkpt>
      <trkpt lat="49.94649" lon="2.14143">
        <ele>12.9</ele>
        <time>2023-06-28T09:34:03Z</time>
      </trkpt>
      <trkpt lat="49.9465" lon="2.1414">
        <ele>12.8</ele>
        <time>2023-06-28T09:34:04Z</time>
      </trkpt>
      <trkpt lat="49.94651" lon="2.14139">
        <ele>12.8</ele>
        <time>2023-06-28T09:34:05Z</time>
      </trkpt>
      <trkpt lat="49.94651" lon="2.14138">
        <ele>12.8</ele>
        <time>2023-06-28T09:34:06Z</time>
      </trkpt>
      <trkpt lat="49.94652" lon="2.14135">
        <ele>12.7</ele>
        <time>2023-06-28T09:34:07Z</time>
      </trkpt>
      <trkpt lat="49.94653" lon="2.14133">
        <ele>12.7</ele>
        <time>2023-06-28T09:34:08Z</time>
      </trkpt>
      <trkpt lat="49.94653" lon="2.14132">
        <ele>12.7</ele>
        <time>2023-06-28T09:34:09Z</time>
      </trkpt>
      <trkpt lat="49.94653" lon="2.1413">
        <ele>12.7</ele>
        <time>2023-06-28T09:34:10Z</time>
      </trkpt>
      <trkpt lat="49.94653" lon="2.14128">
        <ele>12.7</ele>
        <time>2023-06-28T09:34:11Z</time>
      </trkpt>
      <trkpt lat="49.94653" lon="2.14126">
        <ele>12.7</ele>
        <time>2023-06-28T09:34:12Z</time>
      </trkpt>
      <trkpt lat="49.94653" lon="2.14124">
        <ele>12.7</ele>
        <time>2023-06-28T09:34:13Z</time>
      </trkpt>
      <trkpt lat="49.94654" lon="2.14123">
        <ele>12.7</ele>
        <time>2023-06-28T09:34:14Z</time>
      </trkpt>
      <trkpt lat="49.94653" lon="2.14121">
        <ele>12.7</ele>
        <time>2023-06-28T09:34:15Z</time>
      </trkpt>
      <trkpt lat="49.94653" lon="2.14121">
        <ele>12.7</ele>
        <time>2023-06-28T09:34:16Z</time>
      </trkpt>
      <trkpt lat="49.94652" lon="2.1412">
        <ele>12.7</ele>
        <time>2023-06-28T09:34:17Z</time>
      </trkpt>
      <trkpt lat="49.94652" lon="2.1412">
        <ele>12.7</ele>
        <time>2023-06-28T09:34:18Z</time>
      </trkpt>
      <trkpt lat="49.94651" lon="2.14119">
        <ele>12.7</ele>
        <time>2023-06-28T09:34:19Z</time>
      </trkpt>
      <trkpt lat="49.94651" lon="2.14119">
        <ele>12.7</ele>
        <time>2023-06-28T09:34:20Z</time>
      </trkpt>
      <trkpt lat="49.94649" lon="2.14118">
        <ele>12.7</ele>
        <time>2023-06-28T09:34:21Z</time>
      </trkpt>
      <trkpt lat="49.94648" lon="2.14117">
        <ele>12.7</ele>
        <time>2023-06-28T09:34:22Z</time>
      </trkpt>
      <trkpt lat="49.94646" lon="2.14116">
        <ele>12.7</ele>
        <time>2023-06-28T09:34:23Z</time>
      </trkpt>
      <trkpt lat="49.94645" lon="2.14114">
        <ele>12.7</ele>
        <time>2023-06-28T09:34:24Z</time>
      </trkpt>
      <trkpt lat="49.94644" lon="2.14113">
        <ele>12.7</ele>
        <time>2023-06-28T09:34:25Z</time>
      </trkpt>
      <trkpt lat="49.94642" lon="2.14112">
        <ele>12.7</ele>
        <time>2023-06-28T09:34:26Z</time>
      </trkpt>
      <trkpt lat="49.94641" lon="2.14111">
        <ele>12.7</ele>
        <time>2023-06-28T09:34:27Z</time>
      </trkpt>
      <trkpt lat="49.9464" lon="2.14108">
        <ele>12.7</ele>
        <time>2023-06-28T09:34:28Z</time>
      </trkpt>
      <trkpt lat="49.94639" lon="2.14106">
        <ele>12.7</ele>
        <time>2023-06-28T09:34:29Z</time>
      </trkpt>
      <trkpt lat="49.94639" lon="2.14104">
        <ele>12.7</ele>
        <time>2023-06-28T09:34:30Z</time>
      </trkpt>
      <trkpt lat="49.94639" lon="2.14102">
        <ele>12.7</ele>
        <time>2023-06-28T09:34:31Z</time>
      </trkpt>
      <trkpt lat="49.94639" lon="2.141">
        <ele>12.7</ele>
        <time>2023-06-28T09:34:32Z</time>
      </trkpt>
      <trkpt lat="49.9464" lon="2.14099">
        <ele>12.7</ele>
        <time>2023-06-28T09:34:33Z</time>
      </trkpt>
      <trkpt lat="49.9464" lon="2.14097">
        <ele>12.7</ele>
        <time>2023-06-28T09:34:34Z</time>
      </trkpt>
      <trkpt lat="49.94641" lon="2.14096">
        <ele>12.7</ele>
        <time>2023-06-28T09:34:35Z</time>
      </trkpt>
      <trkpt lat="49.94641" lon="2.14095">
        <ele>12.7</ele>
        <time>2023-06-28T09:34:36Z</time>
      </trkpt>
      <trkpt lat="49.94642" lon="2.14094">
        <ele>12.7</ele>
        <time>2023-06-28T09:34:37Z</time>
      </trkpt>
      <trkpt lat="49.94642" lon="2.14093">
        <ele>12.7</ele>
        <time>2023-06-28T09:34:38Z</time>
      </trkpt>
      <trkpt lat="49.94643" lon="2.14091">
        <ele>12.7</ele>
        <time>2023-06-28T09:34:39Z</time>
      </trkpt>
      <trkpt lat="49.94643" lon="2.1409">
        <ele>12.7</ele>
        <time>2023-06-28T09:34:40Z</time>
      </trkpt>
      <trkpt lat="49.94644" lon="2.14089">
        <ele>12.7</ele>
        <time>2023-06-28T09:34:41Z</time>
      </trkpt>
      <trkpt lat="49.94645" lon="2.14088">
        <ele>12.7</ele>
        <time>2023-06-28T09:34:42Z</time>
      </trkpt>
      <trkpt lat="49.94645" lon="2.14088">
        <ele>12.7</ele>
        <time>2023-06-28T09:34:43Z</time>
      </trkpt>
      <trkpt lat="49.94646" lon="2.14086">
        <ele>12.7</ele>
        <time>2023-06-28T09:34:44Z</time>
      </trkpt>
      <trkpt lat="49.94647" lon="2.14085">
        <ele>12.7</ele>
        <time>2023-06-28T09:34:45Z</time>
      </trkpt>
      <trkpt lat="49.94647" lon="2.14085">
        <ele>12.7</ele>
        <time>2023-06-28T09:34:46Z</time>
      </trkpt>
      <trkpt lat="49.94648" lon="2.14084">
        <ele>12.8</ele>
        <time>2023-06-28T09:34:47Z</time>
      </trkpt>
      <trkpt lat="49.94649" lon="2.14083">
        <ele>12.8</ele>
        <time>2023-06-28T09:34:48Z</time>
      </trkpt>
      <trkpt lat="49.9465" lon="2.14083">
        <ele>12.8</ele>
        <time>2023-06-28T09:34:49Z</time>
      </trkpt>
      <trkpt lat="49.94651" lon="2.14082">
        <ele>12.8</ele>
        <time>2023-06-28T09:34:50Z</time>
      </trkpt>
      <trkpt lat="49.94651" lon="2.14081">
        <ele>12.8</ele>
        <time>2023-06-28T09:34:51Z</time>
      </trkpt>
      <trkpt lat="49.94652" lon="2.1408">
        <ele>12.8</ele>
        <time>2023-06-28T09:34:52Z</time>
      </trkpt>
      <trkpt lat="49.94653" lon="2.14078">
        <ele>12.8</ele>
        <time>2023-06-28T09:34:53Z</time>
      </trkpt>
      <trkpt lat="49.94653" lon="2.14077">
        <ele>12.8</ele>
        <time>2023-06-28T09:34:54Z</time>
      </trkpt>
      <trkpt lat="49.94654" lon="2.14075">
        <ele>12.8</ele>
        <time>2023-06-28T09:34:55Z</time>
      </trkpt>
      <trkpt lat="49.94655" lon="2.14074">
        <ele>12.9</ele>
        <time>2023-06-28T09:34:56Z</time>
      </trkpt>
      <trkpt lat="49.94655" lon="2.14072">
        <ele>12.9</ele>
        <time>2023-06-28T09:34:57Z</time>
      </trkpt>
      <trkpt lat="49.94656" lon="2.14071">
        <ele>12.9</ele>
        <time>2023-06-28T09:34:58Z</time>
      </trkpt>
      <trkpt lat="49.94656" lon="2.1407">
        <ele>12.9</ele>
        <time>2023-06-28T09:34:59Z</time>
      </trkpt>
      <trkpt lat="49.94657" lon="2.14069">
        <ele>12.9</ele>
        <time>2023-06-28T09:35:00Z</time>
      </trkpt>
      <trkpt lat="49.94657" lon="2.14068">
        <ele>12.9</ele>
        <time>2023-06-28T09:35:01Z</time>
      </trkpt>
      <trkpt lat="49.94658" lon="2.14067">
        <ele>12.9</ele>
        <time>2023-06-28T09:35:02Z</time>
      </trkpt>
      <trkpt lat="49.94658" lon="2.14065">
        <ele>12.9</ele>
        <time>2023-06-28T09:35:03Z</time>
      </trkpt>
      <trkpt lat="49.94657" lon="2.14064">
        <ele>12.9</ele>
        <time>2023-06-28T09:35:04Z</time>
      </trkpt>
      <trkpt lat="49.94657" lon="2.14062">
        <ele>12.9</ele>
        <time>2023-06-28T09:35:05Z</time>
      </trkpt>
      <trkpt lat="49.94657" lon="2.14061">
        <ele>12.9</ele>
        <time>2023-06-28T09:35:06Z</time>
      </trkpt>
      <trkpt lat="49.94656" lon="2.1406">
        <ele>12.9</ele>
        <time>2023-06-28T09:35:07Z</time>
      </trkpt>
      <trkpt lat="49.94655" lon="2.14059">
        <ele>12.9</ele>
        <time>2023-06-28T09:35:08Z</time>
      </trkpt>
      <trkpt lat="49.94655" lon="2.14058">
        <ele>12.9</ele>
        <time>2023-06-28T09:35:09Z</time>
      </trkpt>
      <trkpt lat="49.94654" lon="2.14057">
        <ele>12.9</ele>
        <time>2023-06-28T09:35:10Z</time>
      </trkpt>
      <trkpt lat="49.94653" lon="2.14056">
        <ele>12.9</ele>
        <time>2023-06-28T09:35:11Z</time>
      </trkpt>
      <trkpt lat="49.94653" lon="2.14056">
        <ele>12.9</ele>
        <time>2023-06-28T09:35:12Z</time>
      </trkpt>
      <trkpt lat="49.94652" lon="2.14054">
        <ele>12.9</ele>
        <time>2023-06-28T09:35:13Z</time>
      </trkpt>
      <trkpt lat="49.94652" lon="2.14053">
        <ele>12.9</ele>
        <time>2023-06-28T09:35:14Z</time>
      </trkpt>
      <trkpt lat="49.94651" lon="2.14052">
        <ele>12.9</ele>
        <time>2023-06-28T09:35:15Z</time>
      </trkpt>
      <trkpt lat="49.94651" lon="2.14051">
        <ele>12.9</ele>
        <time>2023-06-28T09:35:16Z</time>
      </trkpt>
      <trkpt lat="49.9465" lon="2.1405">
        <ele>12.9</ele>
        <time>2023-06-28T09:35:17Z</time>
      </trkpt>
      <trkpt lat="49.9465" lon="2.14048">
        <ele>12.9</ele>
        <time>2023-06-28T09:35:18Z</time>
      </trkpt>
      <trkpt lat="49.9465" lon="2.14046">
        <ele>12.9</ele>
        <time>2023-06-28T09:35:19Z</time>
      </trkpt>
      <trkpt lat="49.94649" lon="2.14043">
        <ele>12.8</ele>
        <time>2023-06-28T09:35:20Z</time>
      </trkpt>
      <trkpt lat="49.94649" lon="2.14042">
        <ele>12.8</ele>
        <time>2023-06-28T09:35:21Z</time>
      </trkpt>
      <trkpt lat="49.94648" lon="2.14041">
        <ele>12.8</ele>
        <time>2023-06-28T09:35:22Z</time>
      </trkpt>
      <trkpt lat="49.94647" lon="2.14039">
        <ele>12.8</ele>
        <time>2023-06-28T09:35:23Z</time>
      </trkpt>
      <trkpt lat="49.94647" lon="2.14037">
        <ele>12.8</ele>
        <time>2023-06-28T09:35:24Z</time>
      </trkpt>
      <trkpt lat="49.94646" lon="2.14037">
        <ele>12.8</ele>
        <time>2023-06-28T09:35:25Z</time>
      </trkpt>
      <trkpt lat="49.94645" lon="2.14037">
        <ele>12.8</ele>
        <time>2023-06-28T09:35:26Z</time>
      </trkpt>
      <trkpt lat="49.94644" lon="2.14037">
        <ele>12.7</ele>
        <time>2023-06-28T09:35:27Z</time>
      </trkpt>
      <trkpt lat="49.94643" lon="2.14037">
        <ele>12.7</ele>
        <time>2023-06-28T09:35:28Z</time>
      </trkpt>
      <trkpt lat="49.94641" lon="2.14036">
        <ele>12.7</ele>
        <time>2023-06-28T09:35:29Z</time>
      </trkpt>
      <trkpt lat="49.9464" lon="2.14036">
        <ele>12.7</ele>
        <time>2023-06-28T09:35:30Z</time>
      </trkpt>
      <trkpt lat="49.94639" lon="2.14035">
        <ele>12.7</ele>
        <time>2023-06-28T09:35:31Z</time>
      </trkpt>
      <trkpt lat="49.94638" lon="2.14033">
        <ele>12.7</ele>
        <time>2023-06-28T09:35:32Z</time>
      </trkpt>
      <trkpt lat="49.94638" lon="2.14032">
        <ele>12.6</ele>
        <time>2023-06-28T09:35:33Z</time>
      </trkpt>
      <trkpt lat="49.94637" lon="2.14031">
        <ele>12.6</ele>
        <time>2023-06-28T09:35:34Z</time>
      </trkpt>
      <trkpt lat="49.94637" lon="2.14029">
        <ele>12.6</ele>
        <time>2023-06-28T09:35:35Z</time>
      </trkpt>
      <trkpt lat="49.94636" lon="2.14026">
        <ele>12.6</ele>
        <time>2023-06-28T09:35:36Z</time>
      </trkpt>
      <trkpt lat="49.94636" lon="2.14024">
        <ele>12.6</ele>
        <time>2023-06-28T09:35:37Z</time>
      </trkpt>
      <trkpt lat="49.94636" lon="2.14022">
        <ele>12.6</ele>
        <time>2023-06-28T09:35:38Z</time>
      </trkpt>
      <trkpt lat="49.94636" lon="2.1402">
        <ele>12.6</ele>
        <time>2023-06-28T09:35:39Z</time>
      </trkpt>
      <trkpt lat="49.94635" lon="2.14018">
        <ele>12.6</ele>
        <time>2023-06-28T09:35:40Z</time>
      </trkpt>
      <trkpt lat="49.94635" lon="2.14017">
        <ele>12.6</ele>
        <time>2023-06-28T09:35:41Z</time>
      </trkpt>
      <trkpt lat="49.94635" lon="2.14015">
        <ele>12.6</ele>
        <time>2023-06-28T09:35:42Z</time>
      </trkpt>
      <trkpt lat="49.94634" lon="2.14013">
        <ele>12.6</ele>
        <time>2023-06-28T09:35:43Z</time>
      </trkpt>
      <trkpt lat="49.94634" lon="2.14011">
        <ele>12.6</ele>
        <time>2023-06-28T09:35:44Z</time>
      </trkpt>
      <trkpt lat="49.94634" lon="2.1401">
        <ele>12.6</ele>
        <time>2023-06-28T09:35:45Z</time>
      </trkpt>
      <trkpt lat="49.94634" lon="2.14009">
        <ele>12.6</ele>
        <time>2023-06-28T09:35:46Z</time>
      </trkpt>
      <trkpt lat="49.94634" lon="2.14009">
        <ele>12.6</ele>
        <time>2023-06-28T09:35:47Z</time>
      </trkpt>
      <trkpt lat="49.94633" lon="2.14009">
        <ele>12.6</ele>
        <time>2023-06-28T09:35:48Z</time>
      </trkpt>
      <trkpt lat="49.94632" lon="2.14008">
        <ele>12.6</ele>
        <time>2023-06-28T09:35:49Z</time>
      </trkpt>
      <trkpt lat="49.94632" lon="2.14008">
        <ele>12.6</ele>
        <time>2023-06-28T09:35:50Z</time>
      </trkpt>
      <trkpt lat="49.94631" lon="2.14008">
        <ele>12.6</ele>
        <time>2023-06-28T09:35:51Z</time>
      </trkpt>
      <trkpt lat="49.94631" lon="2.14008">
        <ele>12.6</ele>
        <time>2023-06-28T09:35:52Z</time>
      </trkpt>
      <trkpt lat="49.9463" lon="2.14007">
        <ele>12.6</ele>
        <time>2023-06-28T09:35:53Z</time>
      </trkpt>
      <trkpt lat="49.94629" lon="2.14007">
        <ele>12.6</ele>
        <time>2023-06-28T09:35:54Z</time>
      </trkpt>
      <trkpt lat="49.94629" lon="2.14007">
        <ele>12.6</ele>
        <time>2023-06-28T09:35:55Z</time>
      </trkpt>
      <trkpt lat="49.94628" lon="2.14007">
        <ele>12.6</ele>
        <time>2023-06-28T09:35:56Z</time>
      </trkpt>
      <trkpt lat="49.94627" lon="2.14008">
        <ele>12.6</ele>
        <time>2023-06-28T09:35:57Z</time>
      </trkpt>
      <trkpt lat="49.94627" lon="2.14008">
        <ele>12.6</ele>
        <time>2023-06-28T09:35:58Z</time>
      </trkpt>
      <trkpt lat="49.94626" lon="2.14008">
        <ele>12.6</ele>
        <time>2023-06-28T09:35:59Z</time>
      </trkpt>
      <trkpt lat="49.94625" lon="2.14009">
        <ele>12.6</ele>
        <time>2023-06-28T09:36:00Z</time>
      </trkpt>
      <trkpt lat="49.94624" lon="2.14009">
        <ele>12.6</ele>
        <time>2023-06-28T09:36:01Z</time>
      </trkpt>
      <trkpt lat="49.94623" lon="2.14009">
        <ele>12.6</ele>
        <time>2023-06-28T09:36:02Z</time>
      </trkpt>
      <trkpt lat="49.94622" lon="2.1401">
        <ele>12.6</ele>
        <time>2023-06-28T09:36:03Z</time>
      </trkpt>
      <trkpt lat="49.94621" lon="2.1401">
        <ele>12.6</ele>
        <time>2023-06-28T09:36:04Z</time>
      </trkpt>
      <trkpt lat="49.9462" lon="2.14011">
        <ele>12.6</ele>
        <time>2023-06-28T09:36:05Z</time>
      </trkpt>
      <trkpt lat="49.94619" lon="2.14011">
        <ele>12.6</ele>
        <time>2023-06-28T09:36:06Z</time>
      </trkpt>
      <trkpt lat="49.94618" lon="2.14012">
        <ele>12.6</ele>
        <time>2023-06-28T09:36:07Z</time>
      </trkpt>
      <trkpt lat="49.94617" lon="2.14012">
        <ele>12.6</ele>
        <time>2023-06-28T09:36:08Z</time>
      </trkpt>
      <trkpt lat="49.94616" lon="2.14012">
        <ele>12.6</ele>
        <time>2023-06-28T09:36:09Z</time>
      </trkpt>
      <trkpt lat="49.94615" lon="2.14011">
        <ele>12.6</ele>
        <time>2023-06-28T09:36:10Z</time>
      </trkpt>
      <trkpt lat="49.94614" lon="2.14011">
        <ele>12.6</ele>
        <time>2023-06-28T09:36:11Z</time>
      </trkpt>
      <trkpt lat="49.94613" lon="2.14012">
        <ele>12.6</ele>
        <time>2023-06-28T09:36:12Z</time>
      </trkpt>
      <trkpt lat="49.94612" lon="2.14013">
        <ele>12.6</ele>
        <time>2023-06-28T09:36:13Z</time>
      </trkpt>
      <trkpt lat="49.94611" lon="2.14014">
        <ele>12.6</ele>
        <time>2023-06-28T09:36:14Z</time>
      </trkpt>
      <trkpt lat="49.94611" lon="2.14015">
        <ele>12.6</ele>
        <time>2023-06-28T09:36:15Z</time>
      </trkpt>
      <trkpt lat="49.9461" lon="2.14016">
        <ele>12.6</ele>
        <time>2023-06-28T09:36:16Z</time>
      </trkpt>
      <trkpt lat="49.9461" lon="2.14018">
        <ele>12.6</ele>
        <time>2023-06-28T09:36:17Z</time>
      </trkpt>
      <trkpt lat="49.94609" lon="2.14019">
        <ele>12.6</ele>
        <time>2023-06-28T09:36:18Z</time>
      </trkpt>
      <trkpt lat="49.94608" lon="2.14021">
        <ele>12.6</ele>
        <time>2023-06-28T09:36:19Z</time>
      </trkpt>
      <trkpt lat="49.94607" lon="2.14023">
        <ele>12.6</ele>
        <time>2023-06-28T09:36:20Z</time>
      </trkpt>
      <trkpt lat="49.94606" lon="2.14024">
        <ele>12.6</ele>
        <time>2023-06-28T09:36:21Z</time>
      </trkpt>
      <trkpt lat="49.94606" lon="2.14025">
        <ele>12.6</ele>
        <time>2023-06-28T09:36:22Z</time>
      </trkpt>
      <trkpt lat="49.94605" lon="2.14026">
        <ele>12.6</ele>
        <time>2023-06-28T09:36:23Z</time>
      </trkpt>
      <trkpt lat="49.94604" lon="2.14027">
        <ele>12.6</ele>
        <time>2023-06-28T09:36:24Z</time>
      </trkpt>
      <trkpt lat="49.94604" lon="2.14029">
        <ele>12.6</ele>
        <time>2023-06-28T09:36:25Z</time>
      </trkpt>
      <trkpt lat="49.94603" lon="2.1403">
        <ele>12.6</ele>
        <time>2023-06-28T09:36:26Z</time>
      </trkpt>
      <trkpt lat="49.94603" lon="2.14032">
        <ele>12.6</ele>
        <time>2023-06-28T09:36:27Z</time>
      </trkpt>
      <trkpt lat="49.94602" lon="2.14033">
        <ele>12.6</ele>
        <time>2023-06-28T09:36:28Z</time>
      </trkpt>
      <trkpt lat="49.94601" lon="2.14035">
        <ele>12.6</ele>
        <time>2023-06-28T09:36:29Z</time>
      </trkpt>
      <trkpt lat="49.94601" lon="2.14036">
        <ele>12.6</ele>
        <time>2023-06-28T09:36:30Z</time>
      </trkpt>
      <trkpt lat="49.946" lon="2.14037">
        <ele>12.6</ele>
        <time>2023-06-28T09:36:31Z</time>
      </trkpt>
      <trkpt lat="49.946" lon="2.14038">
        <ele>12.6</ele>
        <time>2023-06-28T09:36:32Z</time>
      </trkpt>
      <trkpt lat="49.94599" lon="2.1404">
        <ele>12.6</ele>
        <time>2023-06-28T09:36:33Z</time>
      </trkpt>
      <trkpt lat="49.94599" lon="2.14041">
        <ele>12.6</ele>
        <time>2023-06-28T09:36:34Z</time>
      </trkpt>
      <trkpt lat="49.94598" lon="2.14043">
        <ele>12.6</ele>
        <time>2023-06-28T09:36:35Z</time>
      </trkpt>
      <trkpt lat="49.94597" lon="2.14044">
        <ele>12.6</ele>
        <time>2023-06-28T09:36:36Z</time>
      </trkpt>
      <trkpt lat="49.94597" lon="2.14045">
        <ele>12.6</ele>
        <time>2023-06-28T09:36:37Z</time>
      </trkpt>
      <trkpt lat="49.94596" lon="2.14045">
        <ele>12.6</ele>
        <time>2023-06-28T09:36:38Z</time>
      </trkpt>
      <trkpt lat="49.94595" lon="2.14047">
        <ele>12.6</ele>
        <time>2023-06-28T09:36:39Z</time>
      </trkpt>
      <trkpt lat="49.94594" lon="2.14048">
        <ele>12.6</ele>
        <time>2023-06-28T09:36:40Z</time>
      </trkpt>
      <trkpt lat="49.94593" lon="2.14049">
        <ele>12.6</ele>
        <time>2023-06-28T09:36:41Z</time>
      </trkpt>
      <trkpt lat="49.94593" lon="2.14051">
        <ele>12.6</ele>
        <time>2023-06-28T09:36:42Z</time>
      </trkpt>
      <trkpt lat="49.94592" lon="2.14052">
        <ele>12.6</ele>
        <time>2023-06-28T09:36:43Z</time>
      </trkpt>
      <trkpt lat="49.94592" lon="2.14053">
        <ele>12.6</ele>
        <time>2023-06-28T09:36:44Z</time>
      </trkpt>
      <trkpt lat="49.94591" lon="2.14054">
        <ele>12.6</ele>
        <time>2023-06-28T09:36:45Z</time>
      </trkpt>
      <trkpt lat="49.9459" lon="2.14055">
        <ele>12.6</ele>
        <time>2023-06-28T09:36:46Z</time>
      </trkpt>
      <trkpt lat="49.9459" lon="2.14057">
        <ele>12.6</ele>
        <time>2023-06-28T09:36:47Z</time>
      </trkpt>
      <trkpt lat="49.94589" lon="2.14058">
        <ele>12.6</ele>
        <time>2023-06-28T09:36:48Z</time>
      </trkpt>
      <trkpt lat="49.9459" lon="2.14059">
        <ele>12.6</ele>
        <time>2023-06-28T09:36:49Z</time>
      </trkpt>
      <trkpt lat="49.94591" lon="2.1406">
        <ele>12.6</ele>
        <time>2023-06-28T09:36:50Z</time>
      </trkpt>
      <trkpt lat="49.94592" lon="2.1406">
        <ele>12.6</ele>
        <time>2023-06-28T09:36:51Z</time>
      </trkpt>
      <trkpt lat="49.94593" lon="2.1406">
        <ele>12.6</ele>
        <time>2023-06-28T09:36:52Z</time>
      </trkpt>
      <trkpt lat="49.94594" lon="2.1406">
        <ele>12.6</ele>
        <time>2023-06-28T09:36:53Z</time>
      </trkpt>
      <trkpt lat="49.94595" lon="2.14059">
        <ele>12.6</ele>
        <time>2023-06-28T09:36:54Z</time>
      </trkpt>
      <trkpt lat="49.94595" lon="2.14059">
        <ele>12.6</ele>
        <time>2023-06-28T09:36:55Z</time>
      </trkpt>
      <trkpt lat="49.94595" lon="2.14059">
        <ele>12.6</ele>
        <time>2023-06-28T09:36:56Z</time>
      </trkpt>
      <trkpt lat="49.94595" lon="2.14059">
        <ele>12.6</ele>
        <time>2023-06-28T09:36:57Z</time>
      </trkpt>
      <trkpt lat="49.94595" lon="2.14059">
        <ele>12.6</ele>
        <time>2023-06-28T09:36:58Z</time>
      </trkpt>
      <trkpt lat="49.94595" lon="2.14059">
        <ele>12.6</ele>
        <time>2023-06-28T09:36:59Z</time>
      </trkpt>
      <trkpt lat="49.94595" lon="2.14059">
        <ele>12.6</ele>
        <time>2023-06-28T09:37:00Z</time>
      </trkpt>
      <trkpt lat="49.94595" lon="2.14059">
        <ele>12.6</ele>
        <time>2023-06-28T09:37:01Z</time>
      </trkpt>
      <trkpt lat="49.94595" lon="2.14058">
        <ele>12.6</ele>
        <time>2023-06-28T09:37:02Z</time>
      </trkpt>
      <trkpt lat="49.94595" lon="2.14058">
        <ele>12.6</ele>
        <time>2023-06-28T09:37:03Z</time>
      </trkpt>
      <trkpt lat="49.94595" lon="2.14058">
        <ele>12.6</ele>
        <time>2023-06-28T09:37:04Z</time>
      </trkpt>
      <trkpt lat="49.94595" lon="2.14058">
        <ele>12.6</ele>
        <time>2023-06-28T09:37:05Z</time>
      </trkpt>
      <trkpt lat="49.94595" lon="2.14058">
        <ele>12.6</ele>
        <time>2023-06-28T09:37:06Z</time>
      </trkpt>
      <trkpt lat="49.94595" lon="2.14058">
        <ele>12.6</ele>
        <time>2023-06-28T09:37:07Z</time>
      </trkpt>
      <trkpt lat="49.94595" lon="2.14058">
        <ele>12.6</ele>
        <time>2023-06-28T09:37:08Z</time>
      </trkpt>
      <trkpt lat="49.94595" lon="2.14058">
        <ele>12.6</ele>
        <time>2023-06-28T09:37:09Z</time>
      </trkpt>
      <trkpt lat="49.94595" lon="2.14058">
        <ele>12.6</ele>
        <time>2023-06-28T09:37:10Z</time>
      </trkpt>
      <trkpt lat="49.94595" lon="2.14058">
        <ele>12.6</ele>
        <time>2023-06-28T09:37:11Z</time>
      </trkpt>
      <trkpt lat="49.94594" lon="2.14058">
        <ele>12.6</ele>
        <time>2023-06-28T09:37:12Z</time>
      </trkpt>
      <trkpt lat="49.94594" lon="2.14058">
        <ele>12.6</ele>
        <time>2023-06-28T09:37:13Z</time>
      </trkpt>
      <trkpt lat="49.94593" lon="2.14058">
        <ele>12.6</ele>
        <time>2023-06-28T09:37:14Z</time>
      </trkpt>
      <trkpt lat="49.94593" lon="2.14058">
        <ele>12.6</ele>
        <time>2023-06-28T09:37:15Z</time>
      </trkpt>
      <trkpt lat="49.94593" lon="2.14058">
        <ele>12.6</ele>
        <time>2023-06-28T09:37:16Z</time>
      </trkpt>
      <trkpt lat="49.94593" lon="2.14058">
        <ele>12.6</ele>
        <time>2023-06-28T09:37:17Z</time>
      </trkpt>
      <trkpt lat="49.94592" lon="2.14058">
        <ele>12.6</ele>
        <time>2023-06-28T09:37:18Z</time>
      </trkpt>
      <trkpt lat="49.94592" lon="2.14058">
        <ele>12.6</ele>
        <time>2023-06-28T09:37:19Z</time>
      </trkpt>
      <trkpt lat="49.94592" lon="2.14058">
        <ele>12.6</ele>
        <time>2023-06-28T09:37:20Z</time>
      </trkpt>
      <trkpt lat="49.94592" lon="2.14058">
        <ele>12.6</ele>
        <time>2023-06-28T09:37:21Z</time>
      </trkpt>
      <trkpt lat="49.94592" lon="2.14058">
        <ele>12.6</ele>
        <time>2023-06-28T09:37:22Z</time>
      </trkpt>
      <trkpt lat="49.94592" lon="2.14058">
        <ele>12.6</ele>
        <time>2023-06-28T09:37:23Z</time>
      </trkpt>
      <trkpt lat="49.94592" lon="2.14058">
        <ele>12.6</ele>
        <time>2023-06-28T09:37:24Z</time>
      </trkpt>
      <trkpt lat="49.94592" lon="2.14058">
        <ele>12.6</ele>
        <time>2023-06-28T09:37:25Z</time>
      </trkpt>
      <trkpt lat="49.94592" lon="2.14058">
        <ele>12.6</ele>
        <time>2023-06-28T09:37:26Z</time>
      </trkpt>
      <trkpt lat="49.94592" lon="2.14058">
        <ele>12.6</ele>
        <time>2023-06-28T09:37:27Z</time>
      </trkpt>
      <trkpt lat="49.94592" lon="2.14058">
        <ele>12.6</ele>
        <time>2023-06-28T09:37:28Z</time>
      </trkpt>
      <trkpt lat="49.94592" lon="2.14058">
        <ele>12.6</ele>
        <time>2023-06-28T09:37:29Z</time>
      </trkpt>
      <trkpt lat="49.94592" lon="2.14058">
        <ele>12.6</ele>
        <time>2023-06-28T09:37:30Z</time>
      </trkpt>
      <trkpt lat="49.94592" lon="2.14058">
        <ele>12.6</ele>
        <time>2023-06-28T09:37:31Z</time>
      </trkpt>
      <trkpt lat="49.94592" lon="2.14058">
        <ele>12.6</ele>
        <time>2023-06-28T09:37:32Z</time>
      </trkpt>
      <trkpt lat="49.94592" lon="2.14058">
        <ele>12.6</ele>
        <time>2023-06-28T09:37:33Z</time>
      </trkpt>
      <trkpt lat="49.94592" lon="2.14058">
        <ele>12.6</ele>
        <time>2023-06-28T09:37:34Z</time>
      </trkpt>
      <trkpt lat="49.94592" lon="2.14058">
        <ele>12.6</ele>
        <time>2023-06-28T09:37:35Z</time>
      </trkpt>
      <trkpt lat="49.94592" lon="2.14058">
        <ele>12.6</ele>
        <time>2023-06-28T09:37:36Z</time>
      </trkpt>
      <trkpt lat="49.94592" lon="2.14058">
        <ele>12.6</ele>
        <time>2023-06-28T09:37:37Z</time>
      </trkpt>
      <trkpt lat="49.94592" lon="2.14058">
        <ele>12.6</ele>
        <time>2023-06-28T09:37:38Z</time>
      </trkpt>
      <trkpt lat="49.94592" lon="2.14058">
        <ele>12.6</ele>
        <time>2023-06-28T09:37:39Z</time>
      </trkpt>
      <trkpt lat="49.94592" lon="2.14058">
        <ele>12.6</ele>
        <time>2023-06-28T09:37:40Z</time>
      </trkpt>
      <trkpt lat="49.94592" lon="2.14058">
        <ele>12.6</ele>
        <time>2023-06-28T09:37:41Z</time>
      </trkpt>
      <trkpt lat="49.94592" lon="2.14058">
        <ele>12.6</ele>
        <time>2023-06-28T09:37:42Z</time>
      </trkpt>
      <trkpt lat="49.94592" lon="2.14058">
        <ele>12.6</ele>
        <time>2023-06-28T09:37:43Z</time>
      </trkpt>
      <trkpt lat="49.94592" lon="2.14058">
        <ele>12.6</ele>
        <time>2023-06-28T09:37:44Z</time>
      </trkpt>
      <trkpt lat="49.94592" lon="2.14058">
        <ele>12.6</ele>
        <time>2023-06-28T09:37:45Z</time>
      </trkpt>
      <trkpt lat="49.94592" lon="2.14058">
        <ele>12.6</ele>
        <time>2023-06-28T09:37:46Z</time>
      </trkpt>
      <trkpt lat="49.94592" lon="2.14058">
        <ele>12.6</ele>
        <time>2023-06-28T09:37:47Z</time>
      </trkpt>
      <trkpt lat="49.94592" lon="2.14058">
        <ele>12.6</ele>
        <time>2023-06-28T09:37:48Z</time>
      </trkpt>
      <trkpt lat="49.94592" lon="2.14058">
        <ele>12.6</ele>
        <time>2023-06-28T09:37:49Z</time>
      </trkpt>
      <trkpt lat="49.94592" lon="2.14058">
        <ele>12.6</ele>
        <time>2023-06-28T09:37:50Z</time>
      </trkpt>
      <trkpt lat="49.94592" lon="2.14058">
        <ele>12.6</ele>
        <time>2023-06-28T09:37:51Z</time>
      </trkpt>
      <trkpt lat="49.94592" lon="2.14058">
        <ele>12.6</ele>
        <time>2023-06-28T09:37:52Z</time>
      </trkpt>
      <trkpt lat="49.94592" lon="2.14058">
        <ele>12.6</ele>
        <time>2023-06-28T09:37:53Z</time>
      </trkpt>
      <trkpt lat="49.94592" lon="2.14058">
        <ele>12.6</ele>
        <time>2023-06-28T09:37:54Z</time>
      </trkpt>
      <trkpt lat="49.94592" lon="2.14058">
        <ele>12.6</ele>
        <time>2023-06-28T09:37:55Z</time>
      </trkpt>
      <trkpt lat="49.94592" lon="2.14058">
        <ele>12.6</ele>
        <time>2023-06-28T09:37:56Z</time>
      </trkpt>
      <trkpt lat="49.94592" lon="2.14058">
        <ele>12.6</ele>
        <time>2023-06-28T09:37:57Z</time>
      </trkpt>
      <trkpt lat="49.94592" lon="2.14058">
        <ele>12.6</ele>
        <time>2023-06-28T09:37:58Z</time>
      </trkpt>
      <trkpt lat="49.94592" lon="2.14058">
        <ele>12.6</ele>
        <time>2023-06-28T09:37:59Z</time>
      </trkpt>
      <trkpt lat="49.94592" lon="2.14058">
        <ele>12.6</ele>
        <time>2023-06-28T09:38:00Z</time>
      </trkpt>
      <trkpt lat="49.94592" lon="2.14058">
        <ele>12.6</ele>
        <time>2023-06-28T09:38:01Z</time>
      </trkpt>
      <trkpt lat="49.94592" lon="2.14058">
        <ele>12.6</ele>
        <time>2023-06-28T09:38:02Z</time>
      </trkpt>
      <trkpt lat="49.94592" lon="2.14058">
        <ele>12.6</ele>
        <time>2023-06-28T09:38:03Z</time>
      </trkpt>
      <trkpt lat="49.94592" lon="2.14058">
        <ele>12.6</ele>
        <time>2023-06-28T09:38:04Z</time>
      </trkpt>
      <trkpt lat="49.94592" lon="2.14058">
        <ele>12.6</ele>
        <time>2023-06-28T09:38:05Z</time>
      </trkpt>
      <trkpt lat="49.94592" lon="2.14058">
        <ele>12.6</ele>
        <time>2023-06-28T09:38:06Z</time>
      </trkpt>
      <trkpt lat="49.94592" lon="2.14058">
        <ele>12.6</ele>
        <time>2023-06-28T09:38:07Z</time>
      </trkpt>
      <trkpt lat="49.94592" lon="2.14058">
        <ele>12.6</ele>
        <time>2023-06-28T09:38:08Z</time>
      </trkpt>
      <trkpt lat="49.94592" lon="2.14058">
        <ele>12.6</ele>
        <time>2023-06-28T09:38:09Z</time>
      </trkpt>
      <trkpt lat="49.94592" lon="2.14058">
        <ele>12.6</ele>
        <time>2023-06-28T09:38:10Z</time>
      </trkpt>
      <trkpt lat="49.94592" lon="2.14058">
        <ele>12.6</ele>
        <time>2023-06-28T09:38:11Z</time>
      </trkpt>
      <trkpt lat="49.94592" lon="2.14058">
        <ele>12.6</ele>
        <time>2023-06-28T09:38:12Z</time>
      </trkpt>
      <trkpt lat="49.94592" lon="2.14058">
        <ele>12.6</ele>
        <time>2023-06-28T09:38:13Z</time>
      </trkpt>
      <trkpt lat="49.94592" lon="2.14058">
        <ele>12.6</ele>
        <time>2023-06-28T09:38:14Z</time>
      </trkpt>
      <trkpt lat="49.94592" lon="2.14058">
        <ele>12.6</ele>
        <time>2023-06-28T09:38:15Z</time>
      </trkpt>
      <trkpt lat="49.94592" lon="2.14058">
        <ele>12.6</ele>
        <time>2023-06-28T09:38:16Z</time>
      </trkpt>
      <trkpt lat="49.94592" lon="2.14058">
        <ele>12.6</ele>
        <time>2023-06-28T09:38:17Z</time>
      </trkpt>
      <trkpt lat="49.94592" lon="2.14058">
        <ele>12.6</ele>
        <time>2023-06-28T09:38:18Z</time>
      </trkpt>
      <trkpt lat="49.94592" lon="2.14058">
        <ele>12.6</ele>
        <time>2023-06-28T09:38:19Z</time>
      </trkpt>
      <trkpt lat="49.94592" lon="2.14058">
        <ele>12.6</ele>
        <time>2023-06-28T09:38:20Z</time>
      </trkpt>
      <trkpt lat="49.94592" lon="2.14058">
        <ele>12.6</ele>
        <time>2023-06-28T09:38:21Z</time>
      </trkpt>
      <trkpt lat="49.94592" lon="2.14058">
        <ele>12.6</ele>
        <time>2023-06-28T09:38:22Z</time>
      </trkpt>
      <trkpt lat="49.94592" lon="2.14058">
        <ele>12.6</ele>
        <time>2023-06-28T09:38:23Z</time>
      </trkpt>
      <trkpt lat="49.94592" lon="2.14058">
        <ele>12.6</ele>
        <time>2023-06-28T09:38:24Z</time>
      </trkpt>
      <trkpt lat="49.94592" lon="2.14058">
        <ele>12.6</ele>
        <time>2023-06-28T09:38:25Z</time>
      </trkpt>
      <trkpt lat="49.94592" lon="2.14058">
        <ele>12.6</ele>
        <time>2023-06-28T09:38:26Z</time>
      </trkpt>
      <trkpt lat="49.94592" lon="2.14058">
        <ele>12.6</ele>
        <time>2023-06-28T09:38:27Z</time>
      </trkpt>
      <trkpt lat="49.94592" lon="2.14058">
        <ele>12.6</ele>
        <time>2023-06-28T09:38:28Z</time>
      </trkpt>
      <trkpt lat="49.94592" lon="2.14058">
        <ele>12.6</ele>
        <time>2023-06-28T09:38:29Z</time>
      </trkpt>
      <trkpt lat="49.94592" lon="2.14058">
        <ele>12.6</ele>
        <time>2023-06-28T09:38:30Z</time>
      </trkpt>
      <trkpt lat="49.94592" lon="2.14058">
        <ele>12.6</ele>
        <time>2023-06-28T09:38:31Z</time>
      </trkpt>
      <trkpt lat="49.94592" lon="2.14058">
        <ele>12.6</ele>
        <time>2023-06-28T09:38:32Z</time>
      </trkpt>
      <trkpt lat="49.94592" lon="2.14058">
        <ele>12.6</ele>
        <time>2023-06-28T09:38:33Z</time>
      </trkpt>
      <trkpt lat="49.94592" lon="2.14058">
        <ele>12.6</ele>
        <time>2023-06-28T09:38:34Z</time>
      </trkpt>
      <trkpt lat="49.94592" lon="2.14058">
        <ele>12.6</ele>
        <time>2023-06-28T09:38:35Z</time>
      </trkpt>
      <trkpt lat="49.94592" lon="2.14058">
        <ele>12.6</ele>
        <time>2023-06-28T09:38:36Z</time>
      </trkpt>
      <trkpt lat="49.94592" lon="2.14058">
        <ele>12.6</ele>
        <time>2023-06-28T09:38:37Z</time>
      </trkpt>
      <trkpt lat="49.94592" lon="2.14058">
        <ele>12.6</ele>
        <time>2023-06-28T09:38:38Z</time>
      </trkpt>
      <trkpt lat="49.94592" lon="2.14058">
        <ele>12.6</ele>
        <time>2023-06-28T09:38:39Z</time>
      </trkpt>
      <trkpt lat="49.94592" lon="2.14058">
        <ele>12.6</ele>
        <time>2023-06-28T09:38:40Z</time>
      </trkpt>
      <trkpt lat="49.94592" lon="2.14058">
        <ele>12.6</ele>
        <time>2023-06-28T09:38:41Z</time>
      </trkpt>
      <trkpt lat="49.94592" lon="2.14058">
        <ele>12.6</ele>
        <time>2023-06-28T09:38:42Z</time>
      </trkpt>
      <trkpt lat="49.94592" lon="2.14058">
        <ele>12.6</ele>
        <time>2023-06-28T09:38:43Z</time>
      </trkpt>
      <trkpt lat="49.94592" lon="2.14058">
        <ele>12.6</ele>
        <time>2023-06-28T09:38:44Z</time>
      </trkpt>
      <trkpt lat="49.94592" lon="2.14058">
        <ele>12.6</ele>
        <time>2023-06-28T09:38:45Z</time>
      </trkpt>
      <trkpt lat="49.94592" lon="2.14058">
        <ele>12.6</ele>
        <time>2023-06-28T09:38:46Z</time>
      </trkpt>
      <trkpt lat="49.94592" lon="2.14058">
        <ele>12.6</ele>
        <time>2023-06-28T09:38:47Z</time>
      </trkpt>
      <trkpt lat="49.94592" lon="2.14058">
        <ele>12.6</ele>
        <time>2023-06-28T09:38:48Z</time>
      </trkpt>
      <trkpt lat="49.94592" lon="2.14058">
        <ele>12.6</ele>
        <time>2023-06-28T09:38:49Z</time>
      </trkpt>
      <trkpt lat="49.94592" lon="2.14058">
        <ele>12.6</ele>
        <time>2023-06-28T09:38:50Z</time>
      </trkpt>
      <trkpt lat="49.94592" lon="2.14058">
        <ele>12.6</ele>
        <time>2023-06-28T09:38:51Z</time>
      </trkpt>
      <trkpt lat="49.94592" lon="2.14058">
        <ele>12.6</ele>
        <time>2023-06-28T09:38:52Z</time>
      </trkpt>
      <trkpt lat="49.94592" lon="2.14058">
        <ele>12.6</ele>
        <time>2023-06-28T09:38:53Z</time>
      </trkpt>
      <trkpt lat="49.94592" lon="2.14058">
        <ele>12.6</ele>
        <time>2023-06-28T09:38:54Z</time>
      </trkpt>
      <trkpt lat="49.94592" lon="2.14058">
        <ele>12.6</ele>
        <time>2023-06-28T09:38:55Z</time>
      </trkpt>
      <trkpt lat="49.94592" lon="2.14058">
        <ele>12.6</ele>
        <time>2023-06-28T09:38:56Z</time>
      </trkpt>
      <trkpt lat="49.94592" lon="2.14058">
        <ele>12.6</ele>
        <time>2023-06-28T09:38:57Z</time>
      </trkpt>
      <trkpt lat="49.94592" lon="2.14058">
        <ele>12.6</ele>
        <time>2023-06-28T09:38:58Z</time>
      </trkpt>
      <trkpt lat="49.94592" lon="2.14058">
        <ele>12.6</ele>
        <time>2023-06-28T09:38:59Z</time>
      </trkpt>
      <trkpt lat="49.94592" lon="2.14058">
        <ele>12.6</ele>
        <time>2023-06-28T09:39:00Z</time>
      </trkpt>
      <trkpt lat="49.94592" lon="2.14058">
        <ele>12.6</ele>
        <time>2023-06-28T09:39:01Z</time>
      </trkpt>
      <trkpt lat="49.94592" lon="2.14058">
        <ele>12.6</ele>
        <time>2023-06-28T09:39:02Z</time>
      </trkpt>
      <trkpt lat="49.94592" lon="2.14058">
        <ele>12.6</ele>
        <time>2023-06-28T09:39:03Z</time>
      </trkpt>
      <trkpt lat="49.94592" lon="2.14058">
        <ele>12.6</ele>
        <time>2023-06-28T09:39:04Z</time>
      </trkpt>
      <trkpt lat="49.94592" lon="2.14058">
        <ele>12.6</ele>
        <time>2023-06-28T09:39:05Z</time>
      </trkpt>
      <trkpt lat="49.94592" lon="2.14058">
        <ele>12.6</ele>
        <time>2023-06-28T09:39:06Z</time>
      </trkpt>
      <trkpt lat="49.94592" lon="2.14058">
        <ele>12.6</ele>
        <time>2023-06-28T09:39:07Z</time>
      </trkpt>
      <trkpt lat="49.94592" lon="2.14058">
        <ele>12.6</ele>
        <time>2023-06-28T09:39:08Z</time>
      </trkpt>
      <trkpt lat="49.94592" lon="2.14058">
        <ele>12.6</ele>
        <time>2023-06-28T09:39:09Z</time>
      </trkpt>
      <trkpt lat="49.94592" lon="2.14058">
        <ele>12.6</ele>
        <time>2023-06-28T09:39:10Z</time>
      </trkpt>
      <trkpt lat="49.94592" lon="2.14058">
        <ele>12.6</ele>
        <time>2023-06-28T09:39:11Z</time>
      </trkpt>
      <trkpt lat="49.94592" lon="2.14058">
        <ele>12.6</ele>
        <time>2023-06-28T09:39:12Z</time>
      </trkpt>
      <trkpt lat="49.94592" lon="2.14058">
        <ele>12.6</ele>
        <time>2023-06-28T09:39:13Z</time>
      </trkpt>
      <trkpt lat="49.94592" lon="2.14058">
        <ele>12.6</ele>
        <time>2023-06-28T09:39:14Z</time>
      </trkpt>
      <trkpt lat="49.94592" lon="2.14058">
        <ele>12.6</ele>
        <time>2023-06-28T09:39:15Z</time>
      </trkpt>
      <trkpt lat="49.94592" lon="2.14058">
        <ele>12.6</ele>
        <time>2023-06-28T09:39:16Z</time>
      </trkpt>
      <trkpt lat="49.94592" lon="2.14058">
        <ele>12.6</ele>
        <time>2023-06-28T09:39:17Z</time>
      </trkpt>
      <trkpt lat="49.94592" lon="2.14058">
        <ele>12.6</ele>
        <time>2023-06-28T09:39:18Z</time>
      </trkpt>
      <trkpt lat="49.94592" lon="2.14058">
        <ele>12.6</ele>
        <time>2023-06-28T09:39:19Z</time>
      </trkpt>
      <trkpt lat="49.94592" lon="2.14058">
        <ele>12.6</ele>
        <time>2023-06-28T09:39:20Z</time>
      </trkpt>
      <trkpt lat="49.94592" lon="2.14058">
        <ele>12.6</ele>
        <time>2023-06-28T09:39:21Z</time>
      </trkpt>
      <trkpt lat="49.94592" lon="2.14058">
        <ele>12.6</ele>
        <time>2023-06-28T09:39:22Z</time>
      </trkpt>
      <trkpt lat="49.94592" lon="2.14058">
        <ele>12.6</ele>
        <time>2023-06-28T09:39:23Z</time>
      </trkpt>
      <trkpt lat="49.94592" lon="2.14058">
        <ele>12.6</ele>
        <time>2023-06-28T09:39:24Z</time>
      </trkpt>
      <trkpt lat="49.94592" lon="2.14058">
        <ele>12.6</ele>
        <time>2023-06-28T09:39:25Z</time>
      </trkpt>
      <trkpt lat="49.94592" lon="2.14058">
        <ele>12.6</ele>
        <time>2023-06-28T09:39:26Z</time>
      </trkpt>
      <trkpt lat="49.94592" lon="2.14058">
        <ele>12.6</ele>
        <time>2023-06-28T09:39:27Z</time>
      </trkpt>
      <trkpt lat="49.94592" lon="2.14058">
        <ele>12.6</ele>
        <time>2023-06-28T09:39:28Z</time>
      </trkpt>
      <trkpt lat="49.94592" lon="2.14058">
        <ele>12.6</ele>
        <time>2023-06-28T09:39:29Z</time>
      </trkpt>
      <trkpt lat="49.94592" lon="2.14058">
        <ele>12.6</ele>
        <time>2023-06-28T09:39:30Z</time>
      </trkpt>
      <trkpt lat="49.94592" lon="2.14058">
        <ele>12.6</ele>
        <time>2023-06-28T09:39:31Z</time>
      </trkpt>
      <trkpt lat="49.94592" lon="2.14058">
        <ele>12.6</ele>
        <time>2023-06-28T09:39:32Z</time>
      </trkpt>
      <trkpt lat="49.94592" lon="2.14058">
        <ele>12.6</ele>
        <time>2023-06-28T09:39:33Z</time>
      </trkpt>
      <trkpt lat="49.94592" lon="2.14058">
        <ele>12.6</ele>
        <time>2023-06-28T09:39:34Z</time>
      </trkpt>
      <trkpt lat="49.94592" lon="2.14058">
        <ele>12.6</ele>
        <time>2023-06-28T09:39:35Z</time>
      </trkpt>
      <trkpt lat="49.94592" lon="2.14058">
        <ele>12.6</ele>
        <time>2023-06-28T09:39:36Z</time>
      </trkpt>
      <trkpt lat="49.94592" lon="2.14058">
        <ele>12.6</ele>
        <time>2023-06-28T09:39:37Z</time>
      </trkpt>
      <trkpt lat="49.94592" lon="2.14058">
        <ele>12.6</ele>
        <time>2023-06-28T09:39:38Z</time>
      </trkpt>
      <trkpt lat="49.94592" lon="2.14058">
        <ele>12.6</ele>
        <time>2023-06-28T09:39:39Z</time>
      </trkpt>
      <trkpt lat="49.94592" lon="2.14058">
        <ele>12.6</ele>
        <time>2023-06-28T09:39:40Z</time>
      </trkpt>
      <trkpt lat="49.94592" lon="2.14058">
        <ele>12.6</ele>
        <time>2023-06-28T09:39:41Z</time>
      </trkpt>
      <trkpt lat="49.94592" lon="2.14058">
        <ele>12.6</ele>
        <time>2023-06-28T09:39:42Z</time>
      </trkpt>
      <trkpt lat="49.94592" lon="2.14058">
        <ele>12.6</ele>
        <time>2023-06-28T09:39:43Z</time>
      </trkpt>
      <trkpt lat="49.94592" lon="2.14058">
        <ele>12.6</ele>
        <time>2023-06-28T09:39:44Z</time>
      </trkpt>
      <trkpt lat="49.94592" lon="2.14058">
        <ele>12.6</ele>
        <time>2023-06-28T09:39:45Z</time>
      </trkpt>
      <trkpt lat="49.94592" lon="2.14058">
        <ele>12.6</ele>
        <time>2023-06-28T09:39:46Z</time>
      </trkpt>
      <trkpt lat="49.94592" lon="2.14058">
        <ele>12.6</ele>
        <time>2023-06-28T09:39:47Z</time>
      </trkpt>
      <trkpt lat="49.94592" lon="2.14058">
        <ele>12.6</ele>
        <time>2023-06-28T09:39:48Z</time>
      </trkpt>
      <trkpt lat="49.94592" lon="2.14058">
        <ele>12.6</ele>
        <time>2023-06-28T09:39:49Z</time>
      </trkpt>
      <trkpt lat="49.94592" lon="2.14058">
        <ele>12.6</ele>
        <time>2023-06-28T09:39:50Z</time>
      </trkpt>
      <trkpt lat="49.94592" lon="2.14058">
        <ele>12.6</ele>
        <time>2023-06-28T09:39:51Z</time>
      </trkpt>
      <trkpt lat="49.94592" lon="2.14058">
        <ele>12.6</ele>
        <time>2023-06-28T09:39:52Z</time>
      </trkpt>
      <trkpt lat="49.94592" lon="2.14058">
        <ele>12.6</ele>
        <time>2023-06-28T09:39:53Z</time>
      </trkpt>
      <trkpt lat="49.94592" lon="2.14058">
        <ele>12.6</ele>
        <time>2023-06-28T09:39:54Z</time>
      </trkpt>
      <trkpt lat="49.94592" lon="2.14058">
        <ele>12.6</ele>
        <time>2023-06-28T09:39:55Z</time>
      </trkpt>
      <trkpt lat="49.94592" lon="2.14058">
        <ele>12.6</ele>
        <time>2023-06-28T09:39:56Z</time>
      </trkpt>
      <trkpt lat="49.94592" lon="2.14058">
        <ele>12.6</ele>
        <time>2023-06-28T09:39:57Z</time>
      </trkpt>
      <trkpt lat="49.94592" lon="2.14058">
        <ele>12.6</ele>
        <time>2023-06-28T09:39:58Z</time>
      </trkpt>
      <trkpt lat="49.94592" lon="2.14058">
        <ele>12.6</ele>
        <time>2023-06-28T09:39:59Z</time>
      </trkpt>
      <trkpt lat="49.94592" lon="2.14058">
        <ele>12.6</ele>
        <time>2023-06-28T09:40:00Z</time>
      </trkpt>
      <trkpt lat="49.94592" lon="2.14058">
        <ele>12.6</ele>
        <time>2023-06-28T09:40:01Z</time>
      </trkpt>
      <trkpt lat="49.94592" lon="2.14058">
        <ele>12.6</ele>
        <time>2023-06-28T09:40:02Z</time>
      </trkpt>
      <trkpt lat="49.94592" lon="2.14058">
        <ele>12.6</ele>
        <time>2023-06-28T09:40:03Z</time>
      </trkpt>
      <trkpt lat="49.94592" lon="2.14058">
        <ele>12.6</ele>
        <time>2023-06-28T09:40:04Z</time>
      </trkpt>
      <trkpt lat="49.94592" lon="2.14058">
        <ele>12.6</ele>
        <time>2023-06-28T09:40:05Z</time>
      </trkpt>
      <trkpt lat="49.94592" lon="2.14058">
        <ele>12.6</ele>
        <time>2023-06-28T09:40:06Z</time>
      </trkpt>
      <trkpt lat="49.94592" lon="2.14058">
        <ele>12.6</ele>
        <time>2023-06-28T09:40:07Z</time>
      </trkpt>
      <trkpt lat="49.94592" lon="2.14058">
        <ele>12.6</ele>
        <time>2023-06-28T09:40:08Z</time>
      </trkpt>
      <trkpt lat="49.94592" lon="2.14058">
        <ele>12.6</ele>
        <time>2023-06-28T09:40:09Z</time>
      </trkpt>
      <trkpt lat="49.94592" lon="2.14058">
        <ele>12.6</ele>
        <time>2023-06-28T09:40:10Z</time>
      </trkpt>
      <trkpt lat="49.94592" lon="2.14058">
        <ele>12.6</ele>
        <time>2023-06-28T09:40:11Z</time>
      </trkpt>
      <trkpt lat="49.94592" lon="2.14058">
        <ele>12.6</ele>
        <time>2023-06-28T09:40:12Z</time>
      </trkpt>
      <trkpt lat="49.94592" lon="2.14058">
        <ele>12.6</ele>
        <time>2023-06-28T09:40:13Z</time>
      </trkpt>
      <trkpt lat="49.94592" lon="2.14058">
        <ele>12.6</ele>
        <time>2023-06-28T09:40:14Z</time>
      </trkpt>
      <trkpt lat="49.94592" lon="2.14058">
        <ele>12.6</ele>
        <time>2023-06-28T09:40:15Z</time>
      </trkpt>
      <trkpt lat="49.94592" lon="2.14058">
        <ele>12.6</ele>
        <time>2023-06-28T09:40:16Z</time>
      </trkpt>
      <trkpt lat="49.94592" lon="2.14058">
        <ele>12.6</ele>
        <time>2023-06-28T09:40:17Z</time>
      </trkpt>
      <trkpt lat="49.94592" lon="2.14058">
        <ele>12.6</ele>
        <time>2023-06-28T09:40:18Z</time>
      </trkpt>
      <trkpt lat="49.94592" lon="2.14058">
        <ele>12.6</ele>
        <time>2023-06-28T09:40:19Z</time>
      </trkpt>
      <trkpt lat="49.94592" lon="2.14058">
        <ele>12.6</ele>
        <time>2023-06-28T09:40:20Z</time>
      </trkpt>
      <trkpt lat="49.94592" lon="2.14058">
        <ele>12.6</ele>
        <time>2023-06-28T09:40:21Z</time>
      </trkpt>
      <trkpt lat="49.94592" lon="2.14058">
        <ele>12.6</ele>
        <time>2023-06-28T09:40:22Z</time>
      </trkpt>
      <trkpt lat="49.94592" lon="2.14058">
        <ele>12.6</ele>
        <time>2023-06-28T09:40:23Z</time>
      </trkpt>
      <trkpt lat="49.94592" lon="2.14058">
        <ele>12.6</ele>
        <time>2023-06-28T09:40:24Z</time>
      </trkpt>
      <trkpt lat="49.94592" lon="2.14058">
        <ele>12.6</ele>
        <time>2023-06-28T09:40:25Z</time>
      </trkpt>
      <trkpt lat="49.94592" lon="2.14058">
        <ele>12.6</ele>
        <time>2023-06-28T09:40:26Z</time>
      </trkpt>
      <trkpt lat="49.94592" lon="2.14058">
        <ele>12.6</ele>
        <time>2023-06-28T09:40:27Z</time>
      </trkpt>
      <trkpt lat="49.94592" lon="2.14058">
        <ele>12.6</ele>
        <time>2023-06-28T09:40:28Z</time>
      </trkpt>
      <trkpt lat="49.94592" lon="2.14058">
        <ele>12.6</ele>
        <time>2023-06-28T09:40:29Z</time>
      </trkpt>
      <trkpt lat="49.94592" lon="2.14058">
        <ele>12.6</ele>
        <time>2023-06-28T09:40:30Z</time>
      </trkpt>
      <trkpt lat="49.94592" lon="2.14058">
        <ele>12.6</ele>
        <time>2023-06-28T09:40:31Z</time>
      </trkpt>
      <trkpt lat="49.94592" lon="2.14058">
        <ele>12.6</ele>
        <time>2023-06-28T09:40:32Z</time>
      </trkpt>
      <trkpt lat="49.94592" lon="2.14058">
        <ele>12.6</ele>
        <time>2023-06-28T09:40:33Z</time>
      </trkpt>
      <trkpt lat="49.94592" lon="2.14058">
        <ele>12.6</ele>
        <time>2023-06-28T09:40:34Z</time>
      </trkpt>
      <trkpt lat="49.94592" lon="2.14058">
        <ele>12.6</ele>
        <time>2023-06-28T09:40:35Z</time>
      </trkpt>
      <trkpt lat="49.94592" lon="2.14058">
        <ele>12.6</ele>
        <time>2023-06-28T09:40:36Z</time>
      </trkpt>
      <trkpt lat="49.94592" lon="2.14058">
        <ele>12.6</ele>
        <time>2023-06-28T09:40:37Z</time>
      </trkpt>
      <trkpt lat="49.94592" lon="2.14058">
        <ele>12.6</ele>
        <time>2023-06-28T09:40:38Z</time>
      </trkpt>
      <trkpt lat="49.94592" lon="2.14058">
        <ele>12.6</ele>
        <time>2023-06-28T09:40:39Z</time>
      </trkpt>
      <trkpt lat="49.94592" lon="2.14058">
        <ele>12.6</ele>
        <time>2023-06-28T09:40:40Z</time>
      </trkpt>
      <trkpt lat="49.94592" lon="2.14058">
        <ele>12.6</ele>
        <time>2023-06-28T09:40:41Z</time>
      </trkpt>
      <trkpt lat="49.94592" lon="2.14058">
        <ele>12.6</ele>
        <time>2023-06-28T09:40:42Z</time>
      </trkpt>
      <trkpt lat="49.94592" lon="2.14058">
        <ele>12.6</ele>
        <time>2023-06-28T09:40:43Z</time>
      </trkpt>
      <trkpt lat="49.94592" lon="2.14058">
        <ele>12.6</ele>
        <time>2023-06-28T09:40:44Z</time>
      </trkpt>
      <trkpt lat="49.94592" lon="2.14058">
        <ele>12.6</ele>
        <time>2023-06-28T09:40:45Z</time>
      </trkpt>
      <trkpt lat="49.94592" lon="2.14058">
        <ele>12.6</ele>
        <time>2023-06-28T09:40:46Z</time>
      </trkpt>
      <trkpt lat="49.94592" lon="2.14058">
        <ele>12.6</ele>
        <time>2023-06-28T09:40:47Z</time>
      </trkpt>
      <trkpt lat="49.94592" lon="2.14058">
        <ele>12.6</ele>
        <time>2023-06-28T09:40:48Z</time>
      </trkpt>
      <trkpt lat="49.94592" lon="2.14058">
        <ele>12.6</ele>
        <time>2023-06-28T09:40:49Z</time>
      </trkpt>
      <trkpt lat="49.94592" lon="2.14058">
        <ele>12.6</ele>
        <time>2023-06-28T09:40:50Z</time>
      </trkpt>
      <trkpt lat="49.94592" lon="2.14058">
        <ele>12.6</ele>
        <time>2023-06-28T09:40:51Z</time>
      </trkpt>
      <trkpt lat="49.94592" lon="2.14058">
        <ele>12.6</ele>
        <time>2023-06-28T09:40:52Z</time>
      </trkpt>
      <trkpt lat="49.94592" lon="2.14058">
        <ele>12.6</ele>
        <time>2023-06-28T09:40:53Z</time>
      </trkpt>
      <trkpt lat="49.94592" lon="2.14058">
        <ele>12.6</ele>
        <time>2023-06-28T09:40:54Z</time>
      </trkpt>
      <trkpt lat="49.94592" lon="2.14058">
        <ele>12.6</ele>
        <time>2023-06-28T09:40:55Z</time>
      </trkpt>
      <trkpt lat="49.94592" lon="2.14058">
        <ele>12.6</ele>
        <time>2023-06-28T09:40:56Z</time>
      </trkpt>
      <trkpt lat="49.94592" lon="2.14058">
        <ele>12.6</ele>
        <time>2023-06-28T09:40:57Z</time>
      </trkpt>
      <trkpt lat="49.94592" lon="2.14058">
        <ele>12.6</ele>
        <time>2023-06-28T09:40:58Z</time>
      </trkpt>
      <trkpt lat="49.94592" lon="2.14058">
        <ele>12.6</ele>
        <time>2023-06-28T09:40:59Z</time>
      </trkpt>
      <trkpt lat="49.94592" lon="2.14058">
        <ele>12.6</ele>
        <time>2023-06-28T09:41:00Z</time>
      </trkpt>
      <trkpt lat="49.94592" lon="2.14058">
        <ele>12.6</ele>
        <time>2023-06-28T09:41:01Z</time>
      </trkpt>
      <trkpt lat="49.94592" lon="2.14058">
        <ele>12.6</ele>
        <time>2023-06-28T09:41:02Z</time>
      </trkpt>
      <trkpt lat="49.94592" lon="2.14058">
        <ele>12.6</ele>
        <time>2023-06-28T09:41:03Z</time>
      </trkpt>
      <trkpt lat="49.94592" lon="2.14058">
        <ele>12.6</ele>
        <time>2023-06-28T09:41:04Z</time>
      </trkpt>
      <trkpt lat="49.94592" lon="2.14058">
        <ele>12.6</ele>
        <time>2023-06-28T09:41:05Z</time>
      </trkpt>
      <trkpt lat="49.94592" lon="2.14058">
        <ele>12.6</ele>
        <time>2023-06-28T09:41:06Z</time>
      </trkpt>
      <trkpt lat="49.94592" lon="2.14058">
        <ele>12.6</ele>
        <time>2023-06-28T09:41:07Z</time>
      </trkpt>
      <trkpt lat="49.94592" lon="2.14058">
        <ele>12.6</ele>
        <time>2023-06-28T09:41:08Z</time>
      </trkpt>
      <trkpt lat="49.94592" lon="2.14058">
        <ele>12.6</ele>
        <time>2023-06-28T09:41:09Z</time>
      </trkpt>
      <trkpt lat="49.94592" lon="2.14058">
        <ele>12.6</ele>
        <time>2023-06-28T09:41:10Z</time>
      </trkpt>
      <trkpt lat="49.94592" lon="2.14058">
        <ele>12.6</ele>
        <time>2023-06-28T09:41:11Z</time>
      </trkpt>
      <trkpt lat="49.94592" lon="2.14058">
        <ele>12.6</ele>
        <time>2023-06-28T09:41:12Z</time>
      </trkpt>
      <trkpt lat="49.94592" lon="2.14058">
        <ele>12.6</ele>
        <time>2023-06-28T09:41:13Z</time>
      </trkpt>
      <trkpt lat="49.94592" lon="2.14058">
        <ele>12.6</ele>
        <time>2023-06-28T09:41:14Z</time>
      </trkpt>
      <trkpt lat="49.94592" lon="2.14058">
        <ele>12.6</ele>
        <time>2023-06-28T09:41:15Z</time>
      </trkpt>
      <trkpt lat="49.94592" lon="2.14058">
        <ele>12.6</ele>
        <time>2023-06-28T09:41:16Z</time>
      </trkpt>
      <trkpt lat="49.94592" lon="2.14058">
        <ele>12.6</ele>
        <time>2023-06-28T09:41:17Z</time>
      </trkpt>
      <trkpt lat="49.94592" lon="2.14058">
        <ele>12.6</ele>
        <time>2023-06-28T09:41:18Z</time>
      </trkpt>
      <trkpt lat="49.94592" lon="2.14058">
        <ele>12.6</ele>
        <time>2023-06-28T09:41:19Z</time>
      </trkpt>
      <trkpt lat="49.94592" lon="2.14058">
        <ele>12.6</ele>
        <time>2023-06-28T09:41:20Z</time>
      </trkpt>
      <trkpt lat="49.94592" lon="2.14058">
        <ele>12.6</ele>
        <time>2023-06-28T09:41:21Z</time>
      </trkpt>
      <trkpt lat="49.94592" lon="2.14058">
        <ele>12.6</ele>
        <time>2023-06-28T09:41:22Z</time>
      </trkpt>
      <trkpt lat="49.94592" lon="2.14058">
        <ele>12.6</ele>
        <time>2023-06-28T09:41:23Z</time>
      </trkpt>
      <trkpt lat="49.94592" lon="2.14058">
        <ele>12.6</ele>
        <time>2023-06-28T09:41:24Z</time>
      </trkpt>
      <trkpt lat="49.94592" lon="2.14058">
        <ele>12.6</ele>
        <time>2023-06-28T09:41:25Z</time>
      </trkpt>
      <trkpt lat="49.94592" lon="2.14058">
        <ele>12.6</ele>
        <time>2023-06-28T09:41:26Z</time>
      </trkpt>
      <trkpt lat="49.94592" lon="2.14058">
        <ele>12.6</ele>
        <time>2023-06-28T09:41:27Z</time>
      </trkpt>
      <trkpt lat="49.94592" lon="2.14058">
        <ele>12.6</ele>
        <time>2023-06-28T09:41:28Z</time>
      </trkpt>
      <trkpt lat="49.94592" lon="2.14058">
        <ele>12.6</ele>
        <time>2023-06-28T09:41:29Z</time>
      </trkpt>
      <trkpt lat="49.94592" lon="2.14058">
        <ele>12.6</ele>
        <time>2023-06-28T09:41:30Z</time>
      </trkpt>
      <trkpt lat="49.94592" lon="2.14058">
        <ele>12.6</ele>
        <time>2023-06-28T09:41:31Z</time>
      </trkpt>
      <trkpt lat="49.94592" lon="2.14058">
        <ele>12.6</ele>
        <time>2023-06-28T09:41:32Z</time>
      </trkpt>
      <trkpt lat="49.94592" lon="2.14058">
        <ele>12.6</ele>
        <time>2023-06-28T09:41:33Z</time>
      </trkpt>
      <trkpt lat="49.94592" lon="2.14058">
        <ele>12.6</ele>
        <time>2023-06-28T09:41:34Z</time>
      </trkpt>
      <trkpt lat="49.94592" lon="2.14058">
        <ele>12.6</ele>
        <time>2023-06-28T09:41:35Z</time>
      </trkpt>
      <trkpt lat="49.94592" lon="2.14058">
        <ele>12.6</ele>
        <time>2023-06-28T09:41:36Z</time>
      </trkpt>
      <trkpt lat="49.94592" lon="2.14058">
        <ele>12.6</ele>
        <time>2023-06-28T09:41:37Z</time>
      </trkpt>
      <trkpt lat="49.94592" lon="2.14058">
        <ele>12.6</ele>
        <time>2023-06-28T09:41:38Z</time>
      </trkpt>
      <trkpt lat="49.94592" lon="2.14058">
        <ele>12.6</ele>
        <time>2023-06-28T09:41:39Z</time>
      </trkpt>
      <trkpt lat="49.94592" lon="2.14058">
        <ele>12.6</ele>
        <time>2023-06-28T09:41:40Z</time>
      </trkpt>
      <trkpt lat="49.94592" lon="2.14058">
        <ele>12.6</ele>
        <time>2023-06-28T09:41:41Z</time>
      </trkpt>
      <trkpt lat="49.94592" lon="2.14058">
        <ele>12.6</ele>
        <time>2023-06-28T09:41:42Z</time>
      </trkpt>
      <trkpt lat="49.94594" lon="2.14062">
        <ele>12.6</ele>
        <time>2023-06-28T09:41:43Z</time>
      </trkpt>
      <trkpt lat="49.94595" lon="2.14064">
        <ele>12.6</ele>
        <time>2023-06-28T09:41:44Z</time>
      </trkpt>
      <trkpt lat="49.94595" lon="2.14065">
        <ele>12.6</ele>
        <time>2023-06-28T09:41:45Z</time>
      </trkpt>
      <trkpt lat="49.94596" lon="2.14064">
        <ele>12.6</ele>
        <time>2023-06-28T09:41:46Z</time>
      </trkpt>
      <trkpt lat="49.94596" lon="2.14064">
        <ele>12.6</ele>
        <time>2023-06-28T09:41:47Z</time>
      </trkpt>
      <trkpt lat="49.94597" lon="2.14063">
        <ele>12.6</ele>
        <time>2023-06-28T09:41:48Z</time>
      </trkpt>
      <trkpt lat="49.94598" lon="2.14062">
        <ele>12.6</ele>
        <time>2023-06-28T09:41:49Z</time>
      </trkpt>
      <trkpt lat="49.94599" lon="2.14061">
        <ele>12.6</ele>
        <time>2023-06-28T09:41:50Z</time>
      </trkpt>
      <trkpt lat="49.94599" lon="2.1406">
        <ele>12.6</ele>
        <time>2023-06-28T09:41:51Z</time>
      </trkpt>
      <trkpt lat="49.946" lon="2.14059">
        <ele>12.6</ele>
        <time>2023-06-28T09:41:52Z</time>
      </trkpt>
      <trkpt lat="49.94601" lon="2.14058">
        <ele>12.6</ele>
        <time>2023-06-28T09:41:53Z</time>
      </trkpt>
      <trkpt lat="49.94602" lon="2.14057">
        <ele>12.6</ele>
        <time>2023-06-28T09:41:54Z</time>
      </trkpt>
      <trkpt lat="49.94602" lon="2.14057">
        <ele>12.6</ele>
        <time>2023-06-28T09:41:55Z</time>
      </trkpt>
      <trkpt lat="49.94603" lon="2.14056">
        <ele>12.6</ele>
        <time>2023-06-28T09:41:56Z</time>
      </trkpt>
      <trkpt lat="49.94603" lon="2.14056">
        <ele>12.6</ele>
        <time>2023-06-28T09:41:57Z</time>
      </trkpt>
      <trkpt lat="49.94603" lon="2.14057">
        <ele>12.6</ele>
        <time>2023-06-28T09:41:58Z</time>
      </trkpt>
      <trkpt lat="49.94604" lon="2.14057">
        <ele>12.6</ele>
        <time>2023-06-28T09:41:59Z</time>
      </trkpt>
      <trkpt lat="49.94605" lon="2.14057">
        <ele>12.6</ele>
        <time>2023-06-28T09:42:00Z</time>
      </trkpt>
      <trkpt lat="49.94606" lon="2.14056">
        <ele>12.6</ele>
        <time>2023-06-28T09:42:01Z</time>
      </trkpt>
      <trkpt lat="49.94607" lon="2.14056">
        <ele>12.6</ele>
        <time>2023-06-28T09:42:02Z</time>
      </trkpt>
      <trkpt lat="49.94607" lon="2.14055">
        <ele>12.6</ele>
        <time>2023-06-28T09:42:03Z</time>
      </trkpt>
      <trkpt lat="49.94608" lon="2.14055">
        <ele>12.6</ele>
        <time>2023-06-28T09:42:04Z</time>
      </trkpt>
      <trkpt lat="49.94609" lon="2.14054">
        <ele>12.6</ele>
        <time>2023-06-28T09:42:05Z</time>
      </trkpt>
      <trkpt lat="49.9461" lon="2.14053">
        <ele>12.6</ele>
        <time>2023-06-28T09:42:06Z</time>
      </trkpt>
      <trkpt lat="49.94611" lon="2.14051">
        <ele>12.6</ele>
        <time>2023-06-28T09:42:07Z</time>
      </trkpt>
      <trkpt lat="49.94611" lon="2.14049">
        <ele>12.6</ele>
        <time>2023-06-28T09:42:08Z</time>
      </trkpt>
      <trkpt lat="49.94612" lon="2.14048">
        <ele>12.6</ele>
        <time>2023-06-28T09:42:09Z</time>
      </trkpt>
      <trkpt lat="49.94612" lon="2.14046">
        <ele>12.6</ele>
        <time>2023-06-28T09:42:10Z</time>
      </trkpt>
      <trkpt lat="49.94613" lon="2.14044">
        <ele>12.6</ele>
        <time>2023-06-28T09:42:11Z</time>
      </trkpt>
      <trkpt lat="49.94614" lon="2.14042">
        <ele>12.6</ele>
        <time>2023-06-28T09:42:12Z</time>
      </trkpt>
      <trkpt lat="49.94615" lon="2.1404">
        <ele>12.6</ele>
        <time>2023-06-28T09:42:13Z</time>
      </trkpt>
      <trkpt lat="49.94616" lon="2.14038">
        <ele>12.6</ele>
        <time>2023-06-28T09:42:14Z</time>
      </trkpt>
      <trkpt lat="49.94616" lon="2.14036">
        <ele>12.6</ele>
        <time>2023-06-28T09:42:15Z</time>
      </trkpt>
      <trkpt lat="49.94617" lon="2.14035">
        <ele>12.6</ele>
        <time>2023-06-28T09:42:16Z</time>
      </trkpt>
      <trkpt lat="49.94617" lon="2.14033">
        <ele>12.6</ele>
        <time>2023-06-28T09:42:17Z</time>
      </trkpt>
      <trkpt lat="49.94617" lon="2.14031">
        <ele>12.6</ele>
        <time>2023-06-28T09:42:18Z</time>
      </trkpt>
      <trkpt lat="49.94618" lon="2.1403">
        <ele>12.6</ele>
        <time>2023-06-28T09:42:19Z</time>
      </trkpt>
      <trkpt lat="49.94618" lon="2.14028">
        <ele>12.7</ele>
        <time>2023-06-28T09:42:20Z</time>
      </trkpt>
      <trkpt lat="49.9462" lon="2.14024">
        <ele>12.7</ele>
        <time>2023-06-28T09:42:21Z</time>
      </trkpt>
      <trkpt lat="49.94621" lon="2.14023">
        <ele>12.7</ele>
        <time>2023-06-28T09:42:22Z</time>
      </trkpt>
      <trkpt lat="49.94622" lon="2.14022">
        <ele>12.7</ele>
        <time>2023-06-28T09:42:23Z</time>
      </trkpt>
      <trkpt lat="49.94623" lon="2.14021">
        <ele>12.7</ele>
        <time>2023-06-28T09:42:24Z</time>
      </trkpt>
      <trkpt lat="49.94624" lon="2.1402">
        <ele>12.7</ele>
        <time>2023-06-28T09:42:25Z</time>
      </trkpt>
      <trkpt lat="49.94625" lon="2.14021">
        <ele>12.7</ele>
        <time>2023-06-28T09:42:26Z</time>
      </trkpt>
      <trkpt lat="49.94626" lon="2.14021">
        <ele>12.7</ele>
        <time>2023-06-28T09:42:27Z</time>
      </trkpt>
      <trkpt lat="49.94627" lon="2.14021">
        <ele>12.7</ele>
        <time>2023-06-28T09:42:28Z</time>
      </trkpt>
      <trkpt lat="49.94628" lon="2.14021">
        <ele>12.7</ele>
        <time>2023-06-28T09:42:29Z</time>
      </trkpt>
      <trkpt lat="49.94628" lon="2.14021">
        <ele>12.7</ele>
        <time>2023-06-28T09:42:30Z</time>
      </trkpt>
      <trkpt lat="49.94629" lon="2.1402">
        <ele>12.7</ele>
        <time>2023-06-28T09:42:31Z</time>
      </trkpt>
      <trkpt lat="49.9463" lon="2.14019">
        <ele>12.7</ele>
        <time>2023-06-28T09:42:32Z</time>
      </trkpt>
      <trkpt lat="49.94631" lon="2.14018">
        <ele>12.7</ele>
        <time>2023-06-28T09:42:33Z</time>
      </trkpt>
      <trkpt lat="49.94632" lon="2.14017">
        <ele>12.7</ele>
        <time>2023-06-28T09:42:34Z</time>
      </trkpt>
      <trkpt lat="49.94632" lon="2.14015">
        <ele>12.7</ele>
        <time>2023-06-28T09:42:35Z</time>
      </trkpt>
      <trkpt lat="49.94634" lon="2.14015">
        <ele>12.7</ele>
        <time>2023-06-28T09:42:36Z</time>
      </trkpt>
      <trkpt lat="49.94634" lon="2.14014">
        <ele>12.7</ele>
        <time>2023-06-28T09:42:37Z</time>
      </trkpt>
      <trkpt lat="49.94635" lon="2.14014">
        <ele>12.7</ele>
        <time>2023-06-28T09:42:38Z</time>
      </trkpt>
      <trkpt lat="49.94636" lon="2.14014">
        <ele>12.7</ele>
        <time>2023-06-28T09:42:39Z</time>
      </trkpt>
      <trkpt lat="49.94637" lon="2.14013">
        <ele>12.7</ele>
        <time>2023-06-28T09:42:40Z</time>
      </trkpt>
      <trkpt lat="49.94638" lon="2.14014">
        <ele>12.7</ele>
        <time>2023-06-28T09:42:41Z</time>
      </trkpt>
      <trkpt lat="49.94639" lon="2.14014">
        <ele>12.7</ele>
        <time>2023-06-28T09:42:42Z</time>
      </trkpt>
      <trkpt lat="49.9464" lon="2.14015">
        <ele>12.7</ele>
        <time>2023-06-28T09:42:43Z</time>
      </trkpt>
      <trkpt lat="49.94641" lon="2.14016">
        <ele>12.7</ele>
        <time>2023-06-28T09:42:44Z</time>
      </trkpt>
      <trkpt lat="49.94642" lon="2.14016">
        <ele>12.7</ele>
        <time>2023-06-28T09:42:45Z</time>
      </trkpt>
      <trkpt lat="49.94643" lon="2.14017">
        <ele>12.7</ele>
        <time>2023-06-28T09:42:46Z</time>
      </trkpt>
      <trkpt lat="49.94643" lon="2.14018">
        <ele>12.7</ele>
        <time>2023-06-28T09:42:47Z</time>
      </trkpt>
      <trkpt lat="49.94644" lon="2.14019">
        <ele>12.7</ele>
        <time>2023-06-28T09:42:48Z</time>
      </trkpt>
      <trkpt lat="49.94645" lon="2.14022">
        <ele>12.7</ele>
        <time>2023-06-28T09:42:49Z</time>
      </trkpt>
      <trkpt lat="49.94645" lon="2.14023">
        <ele>12.7</ele>
        <time>2023-06-28T09:42:50Z</time>
      </trkpt>
      <trkpt lat="49.94645" lon="2.14024">
        <ele>12.7</ele>
        <time>2023-06-28T09:42:51Z</time>
      </trkpt>
      <trkpt lat="49.94645" lon="2.14025">
        <ele>12.7</ele>
        <time>2023-06-28T09:42:52Z</time>
      </trkpt>
      <trkpt lat="49.94645" lon="2.14027">
        <ele>12.8</ele>
        <time>2023-06-28T09:42:53Z</time>
      </trkpt>
      <trkpt lat="49.94645" lon="2.14028">
        <ele>12.8</ele>
        <time>2023-06-28T09:42:54Z</time>
      </trkpt>
      <trkpt lat="49.94645" lon="2.14029">
        <ele>12.8</ele>
        <time>2023-06-28T09:42:55Z</time>
      </trkpt>
      <trkpt lat="49.94645" lon="2.1403">
        <ele>12.8</ele>
        <time>2023-06-28T09:42:56Z</time>
      </trkpt>
      <trkpt lat="49.94645" lon="2.14032">
        <ele>12.8</ele>
        <time>2023-06-28T09:42:57Z</time>
      </trkpt>
      <trkpt lat="49.94645" lon="2.14034">
        <ele>12.8</ele>
        <time>2023-06-28T09:42:58Z</time>
      </trkpt>
      <trkpt lat="49.94644" lon="2.14036">
        <ele>12.8</ele>
        <time>2023-06-28T09:42:59Z</time>
      </trkpt>
      <trkpt lat="49.94644" lon="2.14038">
        <ele>12.8</ele>
        <time>2023-06-28T09:43:00Z</time>
      </trkpt>
      <trkpt lat="49.94644" lon="2.14039">
        <ele>12.8</ele>
        <time>2023-06-28T09:43:01Z</time>
      </trkpt>
      <trkpt lat="49.94644" lon="2.14041">
        <ele>12.8</ele>
        <time>2023-06-28T09:43:02Z</time>
      </trkpt>
      <trkpt lat="49.94644" lon="2.14042">
        <ele>12.8</ele>
        <time>2023-06-28T09:43:03Z</time>
      </trkpt>
      <trkpt lat="49.94644" lon="2.14043">
        <ele>12.8</ele>
        <time>2023-06-28T09:43:04Z</time>
      </trkpt>
      <trkpt lat="49.94645" lon="2.14044">
        <ele>12.8</ele>
        <time>2023-06-28T09:43:05Z</time>
      </trkpt>
      <trkpt lat="49.94646" lon="2.14045">
        <ele>12.9</ele>
        <time>2023-06-28T09:43:06Z</time>
      </trkpt>
      <trkpt lat="49.94647" lon="2.14045">
        <ele>12.9</ele>
        <time>2023-06-28T09:43:07Z</time>
      </trkpt>
      <trkpt lat="49.94648" lon="2.14045">
        <ele>12.9</ele>
        <time>2023-06-28T09:43:08Z</time>
      </trkpt>
      <trkpt lat="49.94648" lon="2.14045">
        <ele>12.9</ele>
        <time>2023-06-28T09:43:09Z</time>
      </trkpt>
      <trkpt lat="49.94649" lon="2.14046">
        <ele>12.9</ele>
        <time>2023-06-28T09:43:10Z</time>
      </trkpt>
      <trkpt lat="49.9465" lon="2.14046">
        <ele>12.9</ele>
        <time>2023-06-28T09:43:11Z</time>
      </trkpt>
      <trkpt lat="49.94651" lon="2.14047">
        <ele>12.9</ele>
        <time>2023-06-28T09:43:12Z</time>
      </trkpt>
      <trkpt lat="49.94652" lon="2.14048">
        <ele>12.9</ele>
        <time>2023-06-28T09:43:13Z</time>
      </trkpt>
      <trkpt lat="49.94652" lon="2.14049">
        <ele>12.9</ele>
        <time>2023-06-28T09:43:14Z</time>
      </trkpt>
      <trkpt lat="49.94653" lon="2.14051">
        <ele>12.9</ele>
        <time>2023-06-28T09:43:15Z</time>
      </trkpt>
      <trkpt lat="49.94653" lon="2.14052">
        <ele>12.9</ele>
        <time>2023-06-28T09:43:16Z</time>
      </trkpt>
      <trkpt lat="49.94652" lon="2.14056">
        <ele>12.9</ele>
        <time>2023-06-28T09:43:17Z</time>
      </trkpt>
      <trkpt lat="49.94652" lon="2.14057">
        <ele>12.9</ele>
        <time>2023-06-28T09:43:18Z</time>
      </trkpt>
      <trkpt lat="49.94652" lon="2.14058">
        <ele>12.9</ele>
        <time>2023-06-28T09:43:19Z</time>
      </trkpt>
      <trkpt lat="49.94652" lon="2.1406">
        <ele>12.9</ele>
        <time>2023-06-28T09:43:20Z</time>
      </trkpt>
      <trkpt lat="49.94652" lon="2.14061">
        <ele>12.9</ele>
        <time>2023-06-28T09:43:21Z</time>
      </trkpt>
      <trkpt lat="49.94652" lon="2.14062">
        <ele>12.9</ele>
        <time>2023-06-28T09:43:22Z</time>
      </trkpt>
      <trkpt lat="49.94652" lon="2.14064">
        <ele>12.9</ele>
        <time>2023-06-28T09:43:23Z</time>
      </trkpt>
      <trkpt lat="49.94652" lon="2.14065">
        <ele>12.9</ele>
        <time>2023-06-28T09:43:24Z</time>
      </trkpt>
      <trkpt lat="49.94652" lon="2.14066">
        <ele>12.9</ele>
        <time>2023-06-28T09:43:25Z</time>
      </trkpt>
      <trkpt lat="49.94652" lon="2.14067">
        <ele>12.9</ele>
        <time>2023-06-28T09:43:26Z</time>
      </trkpt>
      <trkpt lat="49.94652" lon="2.14068">
        <ele>12.9</ele>
        <time>2023-06-28T09:43:27Z</time>
      </trkpt>
      <trkpt lat="49.94652" lon="2.14069">
        <ele>12.9</ele>
        <time>2023-06-28T09:43:28Z</time>
      </trkpt>
      <trkpt lat="49.94652" lon="2.1407">
        <ele>12.9</ele>
        <time>2023-06-28T09:43:29Z</time>
      </trkpt>
      <trkpt lat="49.94652" lon="2.14072">
        <ele>12.8</ele>
        <time>2023-06-28T09:43:30Z</time>
      </trkpt>
      <trkpt lat="49.94652" lon="2.14073">
        <ele>12.8</ele>
        <time>2023-06-28T09:43:31Z</time>
      </trkpt>
      <trkpt lat="49.94653" lon="2.14074">
        <ele>12.8</ele>
        <time>2023-06-28T09:43:32Z</time>
      </trkpt>
      <trkpt lat="49.94653" lon="2.14075">
        <ele>12.8</ele>
        <time>2023-06-28T09:43:33Z</time>
      </trkpt>
      <trkpt lat="49.94653" lon="2.14077">
        <ele>12.8</ele>
        <time>2023-06-28T09:43:34Z</time>
      </trkpt>
      <trkpt lat="49.94653" lon="2.14078">
        <ele>12.8</ele>
        <time>2023-06-28T09:43:35Z</time>
      </trkpt>
      <trkpt lat="49.94654" lon="2.14079">
        <ele>12.8</ele>
        <time>2023-06-28T09:43:36Z</time>
      </trkpt>
      <trkpt lat="49.94654" lon="2.1408">
        <ele>12.8</ele>
        <time>2023-06-28T09:43:37Z</time>
      </trkpt>
      <trkpt lat="49.94653" lon="2.14082">
        <ele>12.8</ele>
        <time>2023-06-28T09:43:38Z</time>
      </trkpt>
      <trkpt lat="49.94652" lon="2.14083">
        <ele>12.8</ele>
        <time>2023-06-28T09:43:39Z</time>
      </trkpt>
      <trkpt lat="49.94652" lon="2.14084">
        <ele>12.8</ele>
        <time>2023-06-28T09:43:40Z</time>
      </trkpt>
      <trkpt lat="49.94651" lon="2.14085">
        <ele>12.7</ele>
        <time>2023-06-28T09:43:41Z</time>
      </trkpt>
      <trkpt lat="49.9465" lon="2.14086">
        <ele>12.7</ele>
        <time>2023-06-28T09:43:42Z</time>
      </trkpt>
      <trkpt lat="49.94649" lon="2.14087">
        <ele>12.7</ele>
        <time>2023-06-28T09:43:43Z</time>
      </trkpt>
      <trkpt lat="49.94649" lon="2.14088">
        <ele>12.7</ele>
        <time>2023-06-28T09:43:44Z</time>
      </trkpt>
      <trkpt lat="49.94648" lon="2.14089">
        <ele>12.7</ele>
        <time>2023-06-28T09:43:45Z</time>
      </trkpt>
      <trkpt lat="49.94648" lon="2.1409">
        <ele>12.7</ele>
        <time>2023-06-28T09:43:46Z</time>
      </trkpt>
      <trkpt lat="49.94647" lon="2.14091">
        <ele>12.7</ele>
        <time>2023-06-28T09:43:47Z</time>
      </trkpt>
      <trkpt lat="49.94647" lon="2.14092">
        <ele>12.7</ele>
        <time>2023-06-28T09:43:48Z</time>
      </trkpt>
      <trkpt lat="49.94647" lon="2.14093">
        <ele>12.7</ele>
        <time>2023-06-28T09:43:49Z</time>
      </trkpt>
      <trkpt lat="49.94646" lon="2.14094">
        <ele>12.7</ele>
        <time>2023-06-28T09:43:50Z</time>
      </trkpt>
      <trkpt lat="49.94646" lon="2.14095">
        <ele>12.7</ele>
        <time>2023-06-28T09:43:51Z</time>
      </trkpt>
      <trkpt lat="49.94645" lon="2.14096">
        <ele>12.7</ele>
        <time>2023-06-28T09:43:52Z</time>
      </trkpt>
      <trkpt lat="49.94645" lon="2.14097">
        <ele>12.7</ele>
        <time>2023-06-28T09:43:53Z</time>
      </trkpt>
      <trkpt lat="49.94644" lon="2.14099">
        <ele>12.7</ele>
        <time>2023-06-28T09:43:54Z</time>
      </trkpt>
      <trkpt lat="49.94644" lon="2.141">
        <ele>12.7</ele>
        <time>2023-06-28T09:43:55Z</time>
      </trkpt>
      <trkpt lat="49.94643" lon="2.14101">
        <ele>12.7</ele>
        <time>2023-06-28T09:43:56Z</time>
      </trkpt>
      <trkpt lat="49.94643" lon="2.14102">
        <ele>12.7</ele>
        <time>2023-06-28T09:43:57Z</time>
      </trkpt>
      <trkpt lat="49.94642" lon="2.14103">
        <ele>12.7</ele>
        <time>2023-06-28T09:43:58Z</time>
      </trkpt>
      <trkpt lat="49.94642" lon="2.14104">
        <ele>12.7</ele>
        <time>2023-06-28T09:43:59Z</time>
      </trkpt>
      <trkpt lat="49.94641" lon="2.14105">
        <ele>12.7</ele>
        <time>2023-06-28T09:44:00Z</time>
      </trkpt>
      <trkpt lat="49.94641" lon="2.14106">
        <ele>12.7</ele>
        <time>2023-06-28T09:44:01Z</time>
      </trkpt>
      <trkpt lat="49.9464" lon="2.14108">
        <ele>12.7</ele>
        <time>2023-06-28T09:44:02Z</time>
      </trkpt>
      <trkpt lat="49.94639" lon="2.14109">
        <ele>12.7</ele>
        <time>2023-06-28T09:44:03Z</time>
      </trkpt>
      <trkpt lat="49.94639" lon="2.14111">
        <ele>12.7</ele>
        <time>2023-06-28T09:44:04Z</time>
      </trkpt>
      <trkpt lat="49.94638" lon="2.14113">
        <ele>12.7</ele>
        <time>2023-06-28T09:44:05Z</time>
      </trkpt>
      <trkpt lat="49.94637" lon="2.14114">
        <ele>12.7</ele>
        <time>2023-06-28T09:44:06Z</time>
      </trkpt>
      <trkpt lat="49.94636" lon="2.14116">
        <ele>12.7</ele>
        <time>2023-06-28T09:44:07Z</time>
      </trkpt>
      <trkpt lat="49.94636" lon="2.14117">
        <ele>12.7</ele>
        <time>2023-06-28T09:44:08Z</time>
      </trkpt>
      <trkpt lat="49.94635" lon="2.14118">
        <ele>12.7</ele>
        <time>2023-06-28T09:44:09Z</time>
      </trkpt>
      <trkpt lat="49.94635" lon="2.1412">
        <ele>12.7</ele>
        <time>2023-06-28T09:44:10Z</time>
      </trkpt>
      <trkpt lat="49.94635" lon="2.14121">
        <ele>12.7</ele>
        <time>2023-06-28T09:44:11Z</time>
      </trkpt>
      <trkpt lat="49.94635" lon="2.14122">
        <ele>12.7</ele>
        <time>2023-06-28T09:44:12Z</time>
      </trkpt>
      <trkpt lat="49.94636" lon="2.14124">
        <ele>12.7</ele>
        <time>2023-06-28T09:44:13Z</time>
      </trkpt>
      <trkpt lat="49.94637" lon="2.14125">
        <ele>12.7</ele>
        <time>2023-06-28T09:44:14Z</time>
      </trkpt>
      <trkpt lat="49.94638" lon="2.14126">
        <ele>12.7</ele>
        <time>2023-06-28T09:44:15Z</time>
      </trkpt>
      <trkpt lat="49.94639" lon="2.14127">
        <ele>12.7</ele>
        <time>2023-06-28T09:44:16Z</time>
      </trkpt>
      <trkpt lat="49.9464" lon="2.14128">
        <ele>12.7</ele>
        <time>2023-06-28T09:44:17Z</time>
      </trkpt>
      <trkpt lat="49.9464" lon="2.14129">
        <ele>12.7</ele>
        <time>2023-06-28T09:44:18Z</time>
      </trkpt>
      <trkpt lat="49.94641" lon="2.1413">
        <ele>12.7</ele>
        <time>2023-06-28T09:44:19Z</time>
      </trkpt>
      <trkpt lat="49.94642" lon="2.14131">
        <ele>12.7</ele>
        <time>2023-06-28T09:44:20Z</time>
      </trkpt>
      <trkpt lat="49.94642" lon="2.14132">
        <ele>12.7</ele>
        <time>2023-06-28T09:44:21Z</time>
      </trkpt>
      <trkpt lat="49.94643" lon="2.14133">
        <ele>12.7</ele>
        <time>2023-06-28T09:44:22Z</time>
      </trkpt>
      <trkpt lat="49.94643" lon="2.14135">
        <ele>12.7</ele>
        <time>2023-06-28T09:44:23Z</time>
      </trkpt>
      <trkpt lat="49.94643" lon="2.14137">
        <ele>12.8</ele>
        <time>2023-06-28T09:44:24Z</time>
      </trkpt>
      <trkpt lat="49.94643" lon="2.14138">
        <ele>12.8</ele>
        <time>2023-06-28T09:44:25Z</time>
      </trkpt>
      <trkpt lat="49.94643" lon="2.14141">
        <ele>12.9</ele>
        <time>2023-06-28T09:44:26Z</time>
      </trkpt>
      <trkpt lat="49.94642" lon="2.14143">
        <ele>12.9</ele>
        <time>2023-06-28T09:44:27Z</time>
      </trkpt>
      <trkpt lat="49.94642" lon="2.14144">
        <ele>12.9</ele>
        <time>2023-06-28T09:44:28Z</time>
      </trkpt>
      <trkpt lat="49.94641" lon="2.14146">
        <ele>13</ele>
        <time>2023-06-28T09:44:29Z</time>
      </trkpt>
      <trkpt lat="49.94641" lon="2.14147">
        <ele>13</ele>
        <time>2023-06-28T09:44:30Z</time>
      </trkpt>
      <trkpt lat="49.94641" lon="2.14148">
        <ele>13</ele>
        <time>2023-06-28T09:44:31Z</time>
      </trkpt>
      <trkpt lat="49.94641" lon="2.1415">
        <ele>13.1</ele>
        <time>2023-06-28T09:44:32Z</time>
      </trkpt>
      <trkpt lat="49.9464" lon="2.14152">
        <ele>13.1</ele>
        <time>2023-06-28T09:44:33Z</time>
      </trkpt>
      <trkpt lat="49.9464" lon="2.14153">
        <ele>13.2</ele>
        <time>2023-06-28T09:44:34Z</time>
      </trkpt>
      <trkpt lat="49.9464" lon="2.14154">
        <ele>13.2</ele>
        <time>2023-06-28T09:44:35Z</time>
      </trkpt>
      <trkpt lat="49.9464" lon="2.14156">
        <ele>13.2</ele>
        <time>2023-06-28T09:44:36Z</time>
      </trkpt>
      <trkpt lat="49.94639" lon="2.14157">
        <ele>13.3</ele>
        <time>2023-06-28T09:44:37Z</time>
      </trkpt>
      <trkpt lat="49.94639" lon="2.1416">
        <ele>13.4</ele>
        <time>2023-06-28T09:44:38Z</time>
      </trkpt>
      <trkpt lat="49.94639" lon="2.14161">
        <ele>13.4</ele>
        <time>2023-06-28T09:44:39Z</time>
      </trkpt>
      <trkpt lat="49.94638" lon="2.14163">
        <ele>13.5</ele>
        <time>2023-06-28T09:44:40Z</time>
      </trkpt>
      <trkpt lat="49.94638" lon="2.14164">
        <ele>13.5</ele>
        <time>2023-06-28T09:44:41Z</time>
      </trkpt>
      <trkpt lat="49.94637" lon="2.14166">
        <ele>13.6</ele>
        <time>2023-06-28T09:44:42Z</time>
      </trkpt>
      <trkpt lat="49.94637" lon="2.14169">
        <ele>13.7</ele>
        <time>2023-06-28T09:44:43Z</time>
      </trkpt>
      <trkpt lat="49.94637" lon="2.1417">
        <ele>13.8</ele>
        <time>2023-06-28T09:44:44Z</time>
      </trkpt>
      <trkpt lat="49.94636" lon="2.14172">
        <ele>13.8</ele>
        <time>2023-06-28T09:44:45Z</time>
      </trkpt>
      <trkpt lat="49.94636" lon="2.14173">
        <ele>13.8</ele>
        <time>2023-06-28T09:44:46Z</time>
      </trkpt>
      <trkpt lat="49.94636" lon="2.14174">
        <ele>13.9</ele>
        <time>2023-06-28T09:44:47Z</time>
      </trkpt>
      <trkpt lat="49.94636" lon="2.14175">
        <ele>13.9</ele>
        <time>2023-06-28T09:44:48Z</time>
      </trkpt>
      <trkpt lat="49.94636" lon="2.14175">
        <ele>13.9</ele>
        <time>2023-06-28T09:44:49Z</time>
      </trkpt>
      <trkpt lat="49.94636" lon="2.14175">
        <ele>14</ele>
        <time>2023-06-28T09:44:50Z</time>
      </trkpt>
      <trkpt lat="49.94635" lon="2.14176">
        <ele>14</ele>
        <time>2023-06-28T09:44:51Z</time>
      </trkpt>
      <trkpt lat="49.94635" lon="2.14177">
        <ele>14.1</ele>
        <time>2023-06-28T09:44:52Z</time>
      </trkpt>
      <trkpt lat="49.94634" lon="2.14178">
        <ele>14.1</ele>
        <time>2023-06-28T09:44:53Z</time>
      </trkpt>
      <trkpt lat="49.94634" lon="2.14178">
        <ele>14.1</ele>
        <time>2023-06-28T09:44:54Z</time>
      </trkpt>
      <trkpt lat="49.94634" lon="2.14179">
        <ele>14.2</ele>
        <time>2023-06-28T09:44:55Z</time>
      </trkpt>
      <trkpt lat="49.94634" lon="2.14179">
        <ele>14.2</ele>
        <time>2023-06-28T09:44:56Z</time>
      </trkpt>
      <trkpt lat="49.94633" lon="2.14181">
        <ele>14.3</ele>
        <time>2023-06-28T09:44:57Z</time>
      </trkpt>
      <trkpt lat="49.94633" lon="2.14183">
        <ele>14.4</ele>
        <time>2023-06-28T09:44:58Z</time>
      </trkpt>
      <trkpt lat="49.94633" lon="2.14183">
        <ele>14.4</ele>
        <time>2023-06-28T09:44:59Z</time>
      </trkpt>
      <trkpt lat="49.94632" lon="2.14185">
        <ele>14.5</ele>
        <time>2023-06-28T09:45:00Z</time>
      </trkpt>
      <trkpt lat="49.94632" lon="2.14187">
        <ele>14.6</ele>
        <time>2023-06-28T09:45:01Z</time>
      </trkpt>
      <trkpt lat="49.94632" lon="2.14188">
        <ele>14.6</ele>
        <time>2023-06-28T09:45:02Z</time>
      </trkpt>
      <trkpt lat="49.94631" lon="2.1419">
        <ele>14.8</ele>
        <time>2023-06-28T09:45:03Z</time>
      </trkpt>
      <trkpt lat="49.94631" lon="2.14191">
        <ele>14.8</ele>
        <time>2023-06-28T09:45:04Z</time>
      </trkpt>
      <trkpt lat="49.94631" lon="2.14192">
        <ele>14.9</ele>
        <time>2023-06-28T09:45:05Z</time>
      </trkpt>
      <trkpt lat="49.94631" lon="2.14194">
        <ele>14.9</ele>
        <time>2023-06-28T09:45:06Z</time>
      </trkpt>
      <trkpt lat="49.94631" lon="2.14195">
        <ele>15</ele>
        <time>2023-06-28T09:45:07Z</time>
      </trkpt>
      <trkpt lat="49.94631" lon="2.14197">
        <ele>15.1</ele>
        <time>2023-06-28T09:45:08Z</time>
      </trkpt>
      <trkpt lat="49.9463" lon="2.14198">
        <ele>15.2</ele>
        <time>2023-06-28T09:45:09Z</time>
      </trkpt>
      <trkpt lat="49.9463" lon="2.142">
        <ele>15.2</ele>
        <time>2023-06-28T09:45:10Z</time>
      </trkpt>
      <trkpt lat="49.9463" lon="2.14201">
        <ele>15.3</ele>
        <time>2023-06-28T09:45:11Z</time>
      </trkpt>
      <trkpt lat="49.9463" lon="2.14202">
        <ele>15.4</ele>
        <time>2023-06-28T09:45:12Z</time>
      </trkpt>
      <trkpt lat="49.94629" lon="2.14204">
        <ele>15.5</ele>
        <time>2023-06-28T09:45:13Z</time>
      </trkpt>
      <trkpt lat="49.94629" lon="2.14205">
        <ele>15.6</ele>
        <time>2023-06-28T09:45:14Z</time>
      </trkpt>
      <trkpt lat="49.94629" lon="2.14207">
        <ele>15.6</ele>
        <time>2023-06-28T09:45:15Z</time>
      </trkpt>
      <trkpt lat="49.94629" lon="2.14208">
        <ele>15.7</ele>
        <time>2023-06-28T09:45:16Z</time>
      </trkpt>
      <trkpt lat="49.9463" lon="2.14208">
        <ele>15.7</ele>
        <time>2023-06-28T09:45:17Z</time>
      </trkpt>
      <trkpt lat="49.9463" lon="2.1421">
        <ele>15.8</ele>
        <time>2023-06-28T09:45:18Z</time>
      </trkpt>
      <trkpt lat="49.9463" lon="2.1421">
        <ele>15.8</ele>
        <time>2023-06-28T09:45:19Z</time>
      </trkpt>
      <trkpt lat="49.94631" lon="2.14212">
        <ele>15.9</ele>
        <time>2023-06-28T09:45:20Z</time>
      </trkpt>
      <trkpt lat="49.94631" lon="2.14213">
        <ele>16</ele>
        <time>2023-06-28T09:45:21Z</time>
      </trkpt>
      <trkpt lat="49.94631" lon="2.14214">
        <ele>16</ele>
        <time>2023-06-28T09:45:22Z</time>
      </trkpt>
      <trkpt lat="49.94631" lon="2.14216">
        <ele>16.5</ele>
        <time>2023-06-28T09:45:23Z</time>
      </trkpt>
      <trkpt lat="49.94632" lon="2.14217">
        <ele>16.5</ele>
        <time>2023-06-28T09:45:24Z</time>
      </trkpt>
      <trkpt lat="49.94633" lon="2.14217">
        <ele>16.5</ele>
        <time>2023-06-28T09:45:25Z</time>
      </trkpt>
      <trkpt lat="49.94634" lon="2.14217">
        <ele>16.5</ele>
        <time>2023-06-28T09:45:26Z</time>
      </trkpt>
      <trkpt lat="49.94636" lon="2.14218">
        <ele>16.5</ele>
        <time>2023-06-28T09:45:27Z</time>
      </trkpt>
      <trkpt lat="49.94637" lon="2.14218">
        <ele>16.5</ele>
        <time>2023-06-28T09:45:28Z</time>
      </trkpt>
      <trkpt lat="49.94638" lon="2.14218">
        <ele>16.5</ele>
        <time>2023-06-28T09:45:29Z</time>
      </trkpt>
      <trkpt lat="49.9464" lon="2.14219">
        <ele>16.5</ele>
        <time>2023-06-28T09:45:30Z</time>
      </trkpt>
      <trkpt lat="49.9464" lon="2.14219">
        <ele>16.5</ele>
        <time>2023-06-28T09:45:31Z</time>
      </trkpt>
      <trkpt lat="49.94641" lon="2.1422">
        <ele>16.4</ele>
        <time>2023-06-28T09:45:32Z</time>
      </trkpt>
      <trkpt lat="49.94644" lon="2.14221">
        <ele>16.4</ele>
        <time>2023-06-28T09:45:33Z</time>
      </trkpt>
      <trkpt lat="49.94645" lon="2.14222">
        <ele>16.4</ele>
        <time>2023-06-28T09:45:34Z</time>
      </trkpt>
      <trkpt lat="49.94646" lon="2.14222">
        <ele>16.4</ele>
        <time>2023-06-28T09:45:35Z</time>
      </trkpt>
      <trkpt lat="49.94647" lon="2.14222">
        <ele>16.4</ele>
        <time>2023-06-28T09:45:36Z</time>
      </trkpt>
      <trkpt lat="49.94648" lon="2.14223">
        <ele>16.4</ele>
        <time>2023-06-28T09:45:37Z</time>
      </trkpt>
      <trkpt lat="49.94649" lon="2.14223">
        <ele>16.4</ele>
        <time>2023-06-28T09:45:38Z</time>
      </trkpt>
      <trkpt lat="49.9465" lon="2.14223">
        <ele>16.4</ele>
        <time>2023-06-28T09:45:39Z</time>
      </trkpt>
      <trkpt lat="49.94651" lon="2.14224">
        <ele>16.4</ele>
        <time>2023-06-28T09:45:40Z</time>
      </trkpt>
      <trkpt lat="49.94652" lon="2.14224">
        <ele>16.4</ele>
        <time>2023-06-28T09:45:41Z</time>
      </trkpt>
      <trkpt lat="49.94653" lon="2.14224">
        <ele>16.4</ele>
        <time>2023-06-28T09:45:42Z</time>
      </trkpt>
      <trkpt lat="49.94654" lon="2.14224">
        <ele>16.4</ele>
        <time>2023-06-28T09:45:43Z</time>
      </trkpt>
      <trkpt lat="49.94655" lon="2.14224">
        <ele>16.4</ele>
        <time>2023-06-28T09:45:44Z</time>
      </trkpt>
      <trkpt lat="49.94656" lon="2.14224">
        <ele>16.4</ele>
        <time>2023-06-28T09:45:45Z</time>
      </trkpt>
      <trkpt lat="49.94657" lon="2.14224">
        <ele>16.4</ele>
        <time>2023-06-28T09:45:46Z</time>
      </trkpt>
      <trkpt lat="49.94658" lon="2.14225">
        <ele>16.4</ele>
        <time>2023-06-28T09:45:47Z</time>
      </trkpt>
      <trkpt lat="49.94659" lon="2.14225">
        <ele>16.4</ele>
        <time>2023-06-28T09:45:48Z</time>
      </trkpt>
      <trkpt lat="49.94661" lon="2.14225">
        <ele>16.4</ele>
        <time>2023-06-28T09:45:49Z</time>
      </trkpt>
      <trkpt lat="49.94661" lon="2.14225">
        <ele>16.3</ele>
        <time>2023-06-28T09:45:50Z</time>
      </trkpt>
      <trkpt lat="49.94662" lon="2.14225">
        <ele>16.3</ele>
        <time>2023-06-28T09:45:51Z</time>
      </trkpt>
      <trkpt lat="49.94663" lon="2.14225">
        <ele>16.3</ele>
        <time>2023-06-28T09:45:52Z</time>
      </trkpt>
      <trkpt lat="49.94664" lon="2.14224">
        <ele>16.3</ele>
        <time>2023-06-28T09:45:53Z</time>
      </trkpt>
      <trkpt lat="49.94666" lon="2.14223">
        <ele>16.3</ele>
        <time>2023-06-28T09:45:54Z</time>
      </trkpt>
      <trkpt lat="49.94667" lon="2.14223">
        <ele>16.3</ele>
        <time>2023-06-28T09:45:55Z</time>
      </trkpt>
      <trkpt lat="49.94668" lon="2.14223">
        <ele>16.3</ele>
        <time>2023-06-28T09:45:56Z</time>
      </trkpt>
      <trkpt lat="49.94669" lon="2.14223">
        <ele>16.3</ele>
        <time>2023-06-28T09:45:57Z</time>
      </trkpt>
      <trkpt lat="49.9467" lon="2.14222">
        <ele>16.3</ele>
        <time>2023-06-28T09:45:58Z</time>
      </trkpt>
      <trkpt lat="49.94671" lon="2.14222">
        <ele>16.3</ele>
        <time>2023-06-28T09:45:59Z</time>
      </trkpt>
      <trkpt lat="49.94672" lon="2.14221">
        <ele>16.3</ele>
        <time>2023-06-28T09:46:00Z</time>
      </trkpt>
      <trkpt lat="49.94673" lon="2.14221">
        <ele>16.2</ele>
        <time>2023-06-28T09:46:01Z</time>
      </trkpt>
      <trkpt lat="49.94674" lon="2.14221">
        <ele>16.2</ele>
        <time>2023-06-28T09:46:02Z</time>
      </trkpt>
      <trkpt lat="49.94675" lon="2.14222">
        <ele>16.2</ele>
        <time>2023-06-28T09:46:03Z</time>
      </trkpt>
      <trkpt lat="49.94677" lon="2.14222">
        <ele>16.2</ele>
        <time>2023-06-28T09:46:04Z</time>
      </trkpt>
      <trkpt lat="49.94677" lon="2.14222">
        <ele>16.2</ele>
        <time>2023-06-28T09:46:05Z</time>
      </trkpt>
      <trkpt lat="49.94678" lon="2.14223">
        <ele>16.2</ele>
        <time>2023-06-28T09:46:06Z</time>
      </trkpt>
      <trkpt lat="49.94679" lon="2.14223">
        <ele>16.2</ele>
        <time>2023-06-28T09:46:07Z</time>
      </trkpt>
      <trkpt lat="49.9468" lon="2.14224">
        <ele>16.2</ele>
        <time>2023-06-28T09:46:08Z</time>
      </trkpt>
      <trkpt lat="49.94681" lon="2.14224">
        <ele>16.2</ele>
        <time>2023-06-28T09:46:09Z</time>
      </trkpt>
      <trkpt lat="49.94682" lon="2.14225">
        <ele>16.2</ele>
        <time>2023-06-28T09:46:10Z</time>
      </trkpt>
      <trkpt lat="49.94682" lon="2.14225">
        <ele>16.2</ele>
        <time>2023-06-28T09:46:11Z</time>
      </trkpt>
      <trkpt lat="49.94683" lon="2.14226">
        <ele>16.2</ele>
        <time>2023-06-28T09:46:12Z</time>
      </trkpt>
      <trkpt lat="49.94684" lon="2.14227">
        <ele>16.2</ele>
        <time>2023-06-28T09:46:13Z</time>
      </trkpt>
      <trkpt lat="49.94684" lon="2.14228">
        <ele>16.2</ele>
        <time>2023-06-28T09:46:14Z</time>
      </trkpt>
      <trkpt lat="49.94685" lon="2.14229">
        <ele>16.2</ele>
        <time>2023-06-28T09:46:15Z</time>
      </trkpt>
      <trkpt lat="49.94686" lon="2.1423">
        <ele>16.2</ele>
        <time>2023-06-28T09:46:16Z</time>
      </trkpt>
      <trkpt lat="49.94686" lon="2.14231">
        <ele>16.2</ele>
        <time>2023-06-28T09:46:17Z</time>
      </trkpt>
      <trkpt lat="49.94687" lon="2.14232">
        <ele>16.2</ele>
        <time>2023-06-28T09:46:18Z</time>
      </trkpt>
      <trkpt lat="49.94687" lon="2.14233">
        <ele>16.2</ele>
        <time>2023-06-28T09:46:19Z</time>
      </trkpt>
      <trkpt lat="49.94688" lon="2.14234">
        <ele>16.1</ele>
        <time>2023-06-28T09:46:20Z</time>
      </trkpt>
      <trkpt lat="49.94689" lon="2.14235">
        <ele>16.1</ele>
        <time>2023-06-28T09:46:21Z</time>
      </trkpt>
      <trkpt lat="49.94689" lon="2.14236">
        <ele>16.1</ele>
        <time>2023-06-28T09:46:22Z</time>
      </trkpt>
      <trkpt lat="49.9469" lon="2.14237">
        <ele>16.1</ele>
        <time>2023-06-28T09:46:23Z</time>
      </trkpt>
      <trkpt lat="49.94691" lon="2.14237">
        <ele>16.1</ele>
        <time>2023-06-28T09:46:24Z</time>
      </trkpt>
      <trkpt lat="49.94692" lon="2.14238">
        <ele>16.1</ele>
        <time>2023-06-28T09:46:25Z</time>
      </trkpt>
      <trkpt lat="49.94693" lon="2.14239">
        <ele>16.1</ele>
        <time>2023-06-28T09:46:26Z</time>
      </trkpt>
      <trkpt lat="49.94693" lon="2.1424">
        <ele>16.1</ele>
        <time>2023-06-28T09:46:27Z</time>
      </trkpt>
      <trkpt lat="49.94695" lon="2.14241">
        <ele>16.1</ele>
        <time>2023-06-28T09:46:28Z</time>
      </trkpt>
      <trkpt lat="49.94696" lon="2.14241">
        <ele>16.1</ele>
        <time>2023-06-28T09:46:29Z</time>
      </trkpt>
      <trkpt lat="49.94696" lon="2.14242">
        <ele>16.1</ele>
        <time>2023-06-28T09:46:30Z</time>
      </trkpt>
      <trkpt lat="49.94697" lon="2.14242">
        <ele>16.1</ele>
        <time>2023-06-28T09:46:31Z</time>
      </trkpt>
      <trkpt lat="49.94698" lon="2.14242">
        <ele>16.1</ele>
        <time>2023-06-28T09:46:32Z</time>
      </trkpt>
      <trkpt lat="49.94699" lon="2.14242">
        <ele>16.1</ele>
        <time>2023-06-28T09:46:33Z</time>
      </trkpt>
      <trkpt lat="49.947" lon="2.14241">
        <ele>16.1</ele>
        <time>2023-06-28T09:46:34Z</time>
      </trkpt>
      <trkpt lat="49.94701" lon="2.1424">
        <ele>16.1</ele>
        <time>2023-06-28T09:46:35Z</time>
      </trkpt>
      <trkpt lat="49.94703" lon="2.14238">
        <ele>16.1</ele>
        <time>2023-06-28T09:46:36Z</time>
      </trkpt>
      <trkpt lat="49.94704" lon="2.14236">
        <ele>16.1</ele>
        <time>2023-06-28T09:46:37Z</time>
      </trkpt>
      <trkpt lat="49.94704" lon="2.14235">
        <ele>16.1</ele>
        <time>2023-06-28T09:46:38Z</time>
      </trkpt>
      <trkpt lat="49.94705" lon="2.14233">
        <ele>16</ele>
        <time>2023-06-28T09:46:39Z</time>
      </trkpt>
      <trkpt lat="49.94706" lon="2.14231">
        <ele>16</ele>
        <time>2023-06-28T09:46:40Z</time>
      </trkpt>
      <trkpt lat="49.94707" lon="2.14229">
        <ele>16</ele>
        <time>2023-06-28T09:46:41Z</time>
      </trkpt>
      <trkpt lat="49.94708" lon="2.14227">
        <ele>16</ele>
        <time>2023-06-28T09:46:42Z</time>
      </trkpt>
      <trkpt lat="49.94709" lon="2.14225">
        <ele>16</ele>
        <time>2023-06-28T09:46:43Z</time>
      </trkpt>
      <trkpt lat="49.9471" lon="2.14224">
        <ele>16</ele>
        <time>2023-06-28T09:46:44Z</time>
      </trkpt>
      <trkpt lat="49.94711" lon="2.14223">
        <ele>16</ele>
        <time>2023-06-28T09:46:45Z</time>
      </trkpt>
      <trkpt lat="49.94711" lon="2.14222">
        <ele>16</ele>
        <time>2023-06-28T09:46:46Z</time>
      </trkpt>
      <trkpt lat="49.94712" lon="2.14221">
        <ele>16</ele>
        <time>2023-06-28T09:46:47Z</time>
      </trkpt>
      <trkpt lat="49.94713" lon="2.1422">
        <ele>16</ele>
        <time>2023-06-28T09:46:48Z</time>
      </trkpt>
      <trkpt lat="49.94714" lon="2.1422">
        <ele>16</ele>
        <time>2023-06-28T09:46:49Z</time>
      </trkpt>
      <trkpt lat="49.94716" lon="2.1422">
        <ele>16</ele>
        <time>2023-06-28T09:46:50Z</time>
      </trkpt>
      <trkpt lat="49.94717" lon="2.1422">
        <ele>16</ele>
        <time>2023-06-28T09:46:51Z</time>
      </trkpt>
      <trkpt lat="49.94718" lon="2.14221">
        <ele>16</ele>
        <time>2023-06-28T09:46:52Z</time>
      </trkpt>
      <trkpt lat="49.94719" lon="2.14222">
        <ele>16</ele>
        <time>2023-06-28T09:46:53Z</time>
      </trkpt>
      <trkpt lat="49.9472" lon="2.14222">
        <ele>16</ele>
        <time>2023-06-28T09:46:54Z</time>
      </trkpt>
      <trkpt lat="49.94721" lon="2.14223">
        <ele>16</ele>
        <time>2023-06-28T09:46:55Z</time>
      </trkpt>
      <trkpt lat="49.94722" lon="2.14225">
        <ele>16</ele>
        <time>2023-06-28T09:46:56Z</time>
      </trkpt>
      <trkpt lat="49.94722" lon="2.14226">
        <ele>16</ele>
        <time>2023-06-28T09:46:57Z</time>
      </trkpt>
      <trkpt lat="49.94723" lon="2.14227">
        <ele>16</ele>
        <time>2023-06-28T09:46:58Z</time>
      </trkpt>
      <trkpt lat="49.94723" lon="2.14227">
        <ele>16</ele>
        <time>2023-06-28T09:46:59Z</time>
      </trkpt>
      <trkpt lat="49.94723" lon="2.14229">
        <ele>16</ele>
        <time>2023-06-28T09:47:00Z</time>
      </trkpt>
      <trkpt lat="49.94724" lon="2.14231">
        <ele>16</ele>
        <time>2023-06-28T09:47:01Z</time>
      </trkpt>
      <trkpt lat="49.94724" lon="2.14232">
        <ele>16</ele>
        <time>2023-06-28T09:47:02Z</time>
      </trkpt>
      <trkpt lat="49.94724" lon="2.14236">
        <ele>16</ele>
        <time>2023-06-28T09:47:03Z</time>
      </trkpt>
      <trkpt lat="49.94724" lon="2.14237">
        <ele>16</ele>
        <time>2023-06-28T09:47:04Z</time>
      </trkpt>
      <trkpt lat="49.94724" lon="2.14238">
        <ele>16</ele>
        <time>2023-06-28T09:47:05Z</time>
      </trkpt>
      <trkpt lat="49.94724" lon="2.1424">
        <ele>16</ele>
        <time>2023-06-28T09:47:06Z</time>
      </trkpt>
      <trkpt lat="49.94724" lon="2.14241">
        <ele>16</ele>
        <time>2023-06-28T09:47:07Z</time>
      </trkpt>
      <trkpt lat="49.94724" lon="2.14242">
        <ele>15.9</ele>
        <time>2023-06-28T09:47:08Z</time>
      </trkpt>
      <trkpt lat="49.94723" lon="2.14243">
        <ele>15.9</ele>
        <time>2023-06-28T09:47:09Z</time>
      </trkpt>
      <trkpt lat="49.94723" lon="2.14244">
        <ele>15.9</ele>
        <time>2023-06-28T09:47:10Z</time>
      </trkpt>
      <trkpt lat="49.94723" lon="2.14244">
        <ele>15.9</ele>
        <time>2023-06-28T09:47:11Z</time>
      </trkpt>
      <trkpt lat="49.94723" lon="2.14243">
        <ele>15.9</ele>
        <time>2023-06-28T09:47:12Z</time>
      </trkpt>
      <trkpt lat="49.94723" lon="2.14243">
        <ele>15.9</ele>
        <time>2023-06-28T09:47:13Z</time>
      </trkpt>
      <trkpt lat="49.94723" lon="2.14242">
        <ele>15.9</ele>
        <time>2023-06-28T09:47:14Z</time>
      </trkpt>
      <trkpt lat="49.94723" lon="2.14241">
        <ele>15.9</ele>
        <time>2023-06-28T09:47:15Z</time>
      </trkpt>
      <trkpt lat="49.94723" lon="2.1424">
        <ele>15.9</ele>
        <time>2023-06-28T09:47:16Z</time>
      </trkpt>
      <trkpt lat="49.94723" lon="2.1424">
        <ele>15.9</ele>
        <time>2023-06-28T09:47:17Z</time>
      </trkpt>
      <trkpt lat="49.94723" lon="2.14239">
        <ele>15.9</ele>
        <time>2023-06-28T09:47:18Z</time>
      </trkpt>
      <trkpt lat="49.94723" lon="2.14238">
        <ele>15.9</ele>
        <time>2023-06-28T09:47:19Z</time>
      </trkpt>
      <trkpt lat="49.94723" lon="2.14237">
        <ele>15.9</ele>
        <time>2023-06-28T09:47:20Z</time>
      </trkpt>
      <trkpt lat="49.94723" lon="2.14236">
        <ele>15.9</ele>
        <time>2023-06-28T09:47:21Z</time>
      </trkpt>
      <trkpt lat="49.94724" lon="2.14236">
        <ele>15.9</ele>
        <time>2023-06-28T09:47:22Z</time>
      </trkpt>
      <trkpt lat="49.94724" lon="2.14236">
        <ele>15.9</ele>
        <time>2023-06-28T09:47:23Z</time>
      </trkpt>
      <trkpt lat="49.94724" lon="2.14236">
        <ele>15.9</ele>
        <time>2023-06-28T09:47:24Z</time>
      </trkpt>
      <trkpt lat="49.94724" lon="2.14237">
        <ele>15.9</ele>
        <time>2023-06-28T09:47:25Z</time>
      </trkpt>
      <trkpt lat="49.94724" lon="2.14237">
        <ele>15.9</ele>
        <time>2023-06-28T09:47:26Z</time>
      </trkpt>
      <trkpt lat="49.94724" lon="2.14238">
        <ele>15.9</ele>
        <time>2023-06-28T09:47:27Z</time>
      </trkpt>
      <trkpt lat="49.94723" lon="2.14238">
        <ele>15.9</ele>
        <time>2023-06-28T09:47:28Z</time>
      </trkpt>
      <trkpt lat="49.94723" lon="2.14238">
        <ele>15.9</ele>
        <time>2023-06-28T09:47:29Z</time>
      </trkpt>
      <trkpt lat="49.94723" lon="2.14238">
        <ele>15.9</ele>
        <time>2023-06-28T09:47:30Z</time>
      </trkpt>
      <trkpt lat="49.94723" lon="2.14238">
        <ele>15.9</ele>
        <time>2023-06-28T09:47:31Z</time>
      </trkpt>
      <trkpt lat="49.94723" lon="2.14238">
        <ele>15.9</ele>
        <time>2023-06-28T09:47:32Z</time>
      </trkpt>
      <trkpt lat="49.94723" lon="2.14238">
        <ele>15.9</ele>
        <time>2023-06-28T09:47:33Z</time>
      </trkpt>
      <trkpt lat="49.94723" lon="2.14238">
        <ele>15.9</ele>
        <time>2023-06-28T09:47:34Z</time>
      </trkpt>
      <trkpt lat="49.94722" lon="2.14238">
        <ele>15.9</ele>
        <time>2023-06-28T09:47:35Z</time>
      </trkpt>
      <trkpt lat="49.94722" lon="2.14238">
        <ele>15.9</ele>
        <time>2023-06-28T09:47:36Z</time>
      </trkpt>
      <trkpt lat="49.94722" lon="2.14238">
        <ele>15.9</ele>
        <time>2023-06-28T09:47:37Z</time>
      </trkpt>
      <trkpt lat="49.94722" lon="2.14238">
        <ele>15.9</ele>
        <time>2023-06-28T09:47:38Z</time>
      </trkpt>
      <trkpt lat="49.94722" lon="2.14239">
        <ele>15.9</ele>
        <time>2023-06-28T09:47:39Z</time>
      </trkpt>
      <trkpt lat="49.94722" lon="2.14239">
        <ele>15.9</ele>
        <time>2023-06-28T09:47:40Z</time>
      </trkpt>
      <trkpt lat="49.94722" lon="2.1424">
        <ele>15.9</ele>
        <time>2023-06-28T09:47:41Z</time>
      </trkpt>
      <trkpt lat="49.94721" lon="2.14241">
        <ele>15.9</ele>
        <time>2023-06-28T09:47:42Z</time>
      </trkpt>
      <trkpt lat="49.94721" lon="2.14241">
        <ele>15.9</ele>
        <time>2023-06-28T09:47:43Z</time>
      </trkpt>
      <trkpt lat="49.9472" lon="2.14241">
        <ele>15.9</ele>
        <time>2023-06-28T09:47:44Z</time>
      </trkpt>
      <trkpt lat="49.94719" lon="2.14241">
        <ele>15.9</ele>
        <time>2023-06-28T09:47:45Z</time>
      </trkpt>
      <trkpt lat="49.94718" lon="2.1424">
        <ele>15.9</ele>
        <time>2023-06-28T09:47:46Z</time>
      </trkpt>
      <trkpt lat="49.94718" lon="2.14239">
        <ele>15.9</ele>
        <time>2023-06-28T09:47:47Z</time>
      </trkpt>
      <trkpt lat="49.94717" lon="2.14238">
        <ele>15.9</ele>
        <time>2023-06-28T09:47:48Z</time>
      </trkpt>
      <trkpt lat="49.94717" lon="2.14237">
        <ele>15.9</ele>
        <time>2023-06-28T09:47:49Z</time>
      </trkpt>
      <trkpt lat="49.94717" lon="2.14237">
        <ele>15.9</ele>
        <time>2023-06-28T09:47:50Z</time>
      </trkpt>
      <trkpt lat="49.94717" lon="2.14236">
        <ele>15.9</ele>
        <time>2023-06-28T09:47:51Z</time>
      </trkpt>
      <trkpt lat="49.94716" lon="2.14235">
        <ele>15.9</ele>
        <time>2023-06-28T09:47:52Z</time>
      </trkpt>
      <trkpt lat="49.94716" lon="2.14235">
        <ele>15.9</ele>
        <time>2023-06-28T09:47:53Z</time>
      </trkpt>
      <trkpt lat="49.94716" lon="2.14235">
        <ele>15.9</ele>
        <time>2023-06-28T09:47:54Z</time>
      </trkpt>
      <trkpt lat="49.94715" lon="2.14235">
        <ele>15.9</ele>
        <time>2023-06-28T09:47:55Z</time>
      </trkpt>
      <trkpt lat="49.94715" lon="2.14235">
        <ele>15.9</ele>
        <time>2023-06-28T09:47:56Z</time>
      </trkpt>
      <trkpt lat="49.94715" lon="2.14235">
        <ele>15.9</ele>
        <time>2023-06-28T09:47:57Z</time>
      </trkpt>
      <trkpt lat="49.94715" lon="2.14235">
        <ele>15.9</ele>
        <time>2023-06-28T09:47:58Z</time>
      </trkpt>
      <trkpt lat="49.94715" lon="2.14235">
        <ele>15.9</ele>
        <time>2023-06-28T09:47:59Z</time>
      </trkpt>
      <trkpt lat="49.94715" lon="2.14235">
        <ele>15.9</ele>
        <time>2023-06-28T09:48:00Z</time>
      </trkpt>
      <trkpt lat="49.94715" lon="2.14235">
        <ele>15.9</ele>
        <time>2023-06-28T09:48:01Z</time>
      </trkpt>
      <trkpt lat="49.94715" lon="2.14235">
        <ele>15.9</ele>
        <time>2023-06-28T09:48:02Z</time>
      </trkpt>
      <trkpt lat="49.94715" lon="2.14235">
        <ele>15.9</ele>
        <time>2023-06-28T09:48:03Z</time>
      </trkpt>
      <trkpt lat="49.94715" lon="2.14235">
        <ele>15.9</ele>
        <time>2023-06-28T09:48:04Z</time>
      </trkpt>
      <trkpt lat="49.94715" lon="2.14235">
        <ele>15.9</ele>
        <time>2023-06-28T09:48:05Z</time>
      </trkpt>
      <trkpt lat="49.94715" lon="2.14235">
        <ele>15.9</ele>
        <time>2023-06-28T09:48:06Z</time>
      </trkpt>
      <trkpt lat="49.94715" lon="2.14235">
        <ele>15.9</ele>
        <time>2023-06-28T09:48:07Z</time>
      </trkpt>
      <trkpt lat="49.94715" lon="2.14235">
        <ele>15.9</ele>
        <time>2023-06-28T09:48:08Z</time>
      </trkpt>
      <trkpt lat="49.94715" lon="2.14235">
        <ele>15.9</ele>
        <time>2023-06-28T09:48:09Z</time>
      </trkpt>
      <trkpt lat="49.94715" lon="2.14235">
        <ele>15.9</ele>
        <time>2023-06-28T09:48:10Z</time>
      </trkpt>
      <trkpt lat="49.94715" lon="2.14235">
        <ele>15.9</ele>
        <time>2023-06-28T09:48:11Z</time>
      </trkpt>
      <trkpt lat="49.94715" lon="2.14235">
        <ele>15.9</ele>
        <time>2023-06-28T09:48:12Z</time>
      </trkpt>
      <trkpt lat="49.94715" lon="2.14235">
        <ele>15.9</ele>
        <time>2023-06-28T09:48:13Z</time>
      </trkpt>
      <trkpt lat="49.94715" lon="2.14235">
        <ele>15.9</ele>
        <time>2023-06-28T09:48:14Z</time>
      </trkpt>
      <trkpt lat="49.94715" lon="2.14235">
        <ele>15.9</ele>
        <time>2023-06-28T09:48:15Z</time>
      </trkpt>
      <trkpt lat="49.94715" lon="2.14235">
        <ele>15.9</ele>
        <time>2023-06-28T09:48:16Z</time>
      </trkpt>
      <trkpt lat="49.94715" lon="2.14235">
        <ele>15.9</ele>
        <time>2023-06-28T09:48:17Z</time>
      </trkpt>
      <trkpt lat="49.94715" lon="2.14235">
        <ele>15.9</ele>
        <time>2023-06-28T09:48:18Z</time>
      </trkpt>
      <trkpt lat="49.94715" lon="2.14235">
        <ele>15.9</ele>
        <time>2023-06-28T09:48:19Z</time>
      </trkpt>
      <trkpt lat="49.94715" lon="2.14235">
        <ele>15.9</ele>
        <time>2023-06-28T09:48:20Z</time>
      </trkpt>
      <trkpt lat="49.94715" lon="2.14235">
        <ele>15.9</ele>
        <time>2023-06-28T09:48:21Z</time>
      </trkpt>
      <trkpt lat="49.94715" lon="2.14235">
        <ele>15.9</ele>
        <time>2023-06-28T09:48:22Z</time>
      </trkpt>
      <trkpt lat="49.94715" lon="2.14235">
        <ele>15.9</ele>
        <time>2023-06-28T09:48:23Z</time>
      </trkpt>
      <trkpt lat="49.94715" lon="2.14235">
        <ele>15.9</ele>
        <time>2023-06-28T09:48:24Z</time>
      </trkpt>
      <trkpt lat="49.94715" lon="2.14235">
        <ele>15.9</ele>
        <time>2023-06-28T09:48:25Z</time>
      </trkpt>
      <trkpt lat="49.94715" lon="2.14235">
        <ele>15.9</ele>
        <time>2023-06-28T09:48:26Z</time>
      </trkpt>
      <trkpt lat="49.94715" lon="2.14235">
        <ele>15.9</ele>
        <time>2023-06-28T09:48:27Z</time>
      </trkpt>
      <trkpt lat="49.94715" lon="2.14235">
        <ele>15.9</ele>
        <time>2023-06-28T09:48:28Z</time>
      </trkpt>
      <trkpt lat="49.94715" lon="2.14235">
        <ele>15.9</ele>
        <time>2023-06-28T09:48:29Z</time>
      </trkpt>
      <trkpt lat="49.94715" lon="2.14235">
        <ele>15.9</ele>
        <time>2023-06-28T09:48:30Z</time>
      </trkpt>
      <trkpt lat="49.94715" lon="2.14235">
        <ele>15.9</ele>
        <time>2023-06-28T09:48:31Z</time>
      </trkpt>
      <trkpt lat="49.94715" lon="2.14235">
        <ele>15.9</ele>
        <time>2023-06-28T09:48:32Z</time>
      </trkpt>
      <trkpt lat="49.94715" lon="2.14235">
        <ele>15.9</ele>
        <time>2023-06-28T09:48:33Z</time>
      </trkpt>
      <trkpt lat="49.94715" lon="2.14235">
        <ele>15.9</ele>
        <time>2023-06-28T09:48:34Z</time>
      </trkpt>
      <trkpt lat="49.94715" lon="2.14235">
        <ele>15.9</ele>
        <time>2023-06-28T09:48:35Z</time>
      </trkpt>
      <trkpt lat="49.94715" lon="2.14235">
        <ele>15.9</ele>
        <time>2023-06-28T09:48:36Z</time>
      </trkpt>
      <trkpt lat="49.94715" lon="2.14235">
        <ele>15.9</ele>
        <time>2023-06-28T09:48:37Z</time>
      </trkpt>
      <trkpt lat="49.94715" lon="2.14235">
        <ele>15.9</ele>
        <time>2023-06-28T09:48:38Z</time>
      </trkpt>
      <trkpt lat="49.94715" lon="2.14235">
        <ele>15.9</ele>
        <time>2023-06-28T09:48:39Z</time>
      </trkpt>
      <trkpt lat="49.94715" lon="2.14235">
        <ele>15.9</ele>
        <time>2023-06-28T09:48:40Z</time>
      </trkpt>
      <trkpt lat="49.94715" lon="2.14235">
        <ele>15.9</ele>
        <time>2023-06-28T09:48:41Z</time>
      </trkpt>
      <trkpt lat="49.94715" lon="2.14235">
        <ele>15.9</ele>
        <time>2023-06-28T09:48:42Z</time>
      </trkpt>
      <trkpt lat="49.94715" lon="2.14235">
        <ele>15.9</ele>
        <time>2023-06-28T09:48:43Z</time>
      </trkpt>
      <trkpt lat="49.94715" lon="2.14235">
        <ele>15.9</ele>
        <time>2023-06-28T09:48:44Z</time>
      </trkpt>
      <trkpt lat="49.94715" lon="2.14235">
        <ele>15.9</ele>
        <time>2023-06-28T09:48:45Z</time>
      </trkpt>
      <trkpt lat="49.94716" lon="2.14234">
        <ele>15.9</ele>
        <time>2023-06-28T09:48:46Z</time>
      </trkpt>
      <trkpt lat="49.94716" lon="2.14233">
        <ele>15.9</ele>
        <time>2023-06-28T09:48:47Z</time>
      </trkpt>
      <trkpt lat="49.94716" lon="2.14232">
        <ele>15.9</ele>
        <time>2023-06-28T09:48:48Z</time>
      </trkpt>
      <trkpt lat="49.94716" lon="2.14232">
        <ele>15.9</ele>
        <time>2023-06-28T09:48:49Z</time>
      </trkpt>
      <trkpt lat="49.94716" lon="2.14232">
        <ele>15.9</ele>
        <time>2023-06-28T09:48:50Z</time>
      </trkpt>
      <trkpt lat="49.94716" lon="2.14231">
        <ele>15.9</ele>
        <time>2023-06-28T09:48:51Z</time>
      </trkpt>
      <trkpt lat="49.94715" lon="2.14231">
        <ele>15.9</ele>
        <time>2023-06-28T09:48:52Z</time>
      </trkpt>
      <trkpt lat="49.94715" lon="2.14231">
        <ele>15.9</ele>
        <time>2023-06-28T09:48:53Z</time>
      </trkpt>
      <trkpt lat="49.94715" lon="2.14231">
        <ele>15.9</ele>
        <time>2023-06-28T09:48:54Z</time>
      </trkpt>
      <trkpt lat="49.94715" lon="2.14231">
        <ele>15.9</ele>
        <time>2023-06-28T09:48:55Z</time>
      </trkpt>
      <trkpt lat="49.94716" lon="2.14231">
        <ele>15.9</ele>
        <time>2023-06-28T09:48:56Z</time>
      </trkpt>
      <trkpt lat="49.94716" lon="2.1423">
        <ele>15.9</ele>
        <time>2023-06-28T09:48:57Z</time>
      </trkpt>
      <trkpt lat="49.94715" lon="2.1423">
        <ele>15.9</ele>
        <time>2023-06-28T09:48:58Z</time>
      </trkpt>
      <trkpt lat="49.94715" lon="2.14229">
        <ele>15.9</ele>
        <time>2023-06-28T09:48:59Z</time>
      </trkpt>
      <trkpt lat="49.94715" lon="2.14229">
        <ele>15.9</ele>
        <time>2023-06-28T09:49:00Z</time>
      </trkpt>
      <trkpt lat="49.94715" lon="2.14229">
        <ele>15.9</ele>
        <time>2023-06-28T09:49:01Z</time>
      </trkpt>
      <trkpt lat="49.94715" lon="2.14229">
        <ele>15.9</ele>
        <time>2023-06-28T09:49:02Z</time>
      </trkpt>
      <trkpt lat="49.94715" lon="2.1423">
        <ele>15.9</ele>
        <time>2023-06-28T09:49:03Z</time>
      </trkpt>
      <trkpt lat="49.94716" lon="2.1423">
        <ele>15.9</ele>
        <time>2023-06-28T09:49:04Z</time>
      </trkpt>
      <trkpt lat="49.94717" lon="2.14229">
        <ele>15.9</ele>
        <time>2023-06-28T09:49:05Z</time>
      </trkpt>
      <trkpt lat="49.94717" lon="2.14229">
        <ele>15.9</ele>
        <time>2023-06-28T09:49:06Z</time>
      </trkpt>
      <trkpt lat="49.94718" lon="2.14229">
        <ele>15.9</ele>
        <time>2023-06-28T09:49:07Z</time>
      </trkpt>
      <trkpt lat="49.94718" lon="2.14229">
        <ele>15.9</ele>
        <time>2023-06-28T09:49:08Z</time>
      </trkpt>
      <trkpt lat="49.94719" lon="2.14229">
        <ele>15.9</ele>
        <time>2023-06-28T09:49:09Z</time>
      </trkpt>
      <trkpt lat="49.94719" lon="2.14229">
        <ele>15.9</ele>
        <time>2023-06-28T09:49:10Z</time>
      </trkpt>
      <trkpt lat="49.94719" lon="2.14229">
        <ele>15.9</ele>
        <time>2023-06-28T09:49:11Z</time>
      </trkpt>
      <trkpt lat="49.94719" lon="2.14229">
        <ele>15.9</ele>
        <time>2023-06-28T09:49:12Z</time>
      </trkpt>
      <trkpt lat="49.94719" lon="2.14229">
        <ele>15.9</ele>
        <time>2023-06-28T09:49:13Z</time>
      </trkpt>
      <trkpt lat="49.94719" lon="2.14229">
        <ele>15.9</ele>
        <time>2023-06-28T09:49:14Z</time>
      </trkpt>
      <trkpt lat="49.94719" lon="2.14229">
        <ele>15.9</ele>
        <time>2023-06-28T09:49:15Z</time>
      </trkpt>
      <trkpt lat="49.94719" lon="2.14229">
        <ele>15.9</ele>
        <time>2023-06-28T09:49:16Z</time>
      </trkpt>
      <trkpt lat="49.94719" lon="2.14229">
        <ele>15.9</ele>
        <time>2023-06-28T09:49:17Z</time>
      </trkpt>
      <trkpt lat="49.94719" lon="2.14229">
        <ele>15.9</ele>
        <time>2023-06-28T09:49:18Z</time>
      </trkpt>
      <trkpt lat="49.94719" lon="2.14229">
        <ele>15.9</ele>
        <time>2023-06-28T09:49:19Z</time>
      </trkpt>
      <trkpt lat="49.94719" lon="2.14229">
        <ele>15.9</ele>
        <time>2023-06-28T09:49:20Z</time>
      </trkpt>
      <trkpt lat="49.94719" lon="2.14229">
        <ele>15.9</ele>
        <time>2023-06-28T09:49:21Z</time>
      </trkpt>
      <trkpt lat="49.94719" lon="2.14229">
        <ele>15.9</ele>
        <time>2023-06-28T09:49:22Z</time>
      </trkpt>
      <trkpt lat="49.94719" lon="2.14229">
        <ele>15.9</ele>
        <time>2023-06-28T09:49:23Z</time>
      </trkpt>
      <trkpt lat="49.94719" lon="2.14229">
        <ele>15.9</ele>
        <time>2023-06-28T09:49:24Z</time>
      </trkpt>
      <trkpt lat="49.94719" lon="2.14229">
        <ele>15.9</ele>
        <time>2023-06-28T09:49:25Z</time>
      </trkpt>
      <trkpt lat="49.94719" lon="2.14229">
        <ele>15.9</ele>
        <time>2023-06-28T09:49:26Z</time>
      </trkpt>
      <trkpt lat="49.94719" lon="2.14229">
        <ele>15.9</ele>
        <time>2023-06-28T09:49:27Z</time>
      </trkpt>
      <trkpt lat="49.94719" lon="2.14229">
        <ele>15.9</ele>
        <time>2023-06-28T09:49:28Z</time>
      </trkpt>
      <trkpt lat="49.94719" lon="2.14229">
        <ele>15.9</ele>
        <time>2023-06-28T09:49:29Z</time>
      </trkpt>
      <trkpt lat="49.94719" lon="2.14229">
        <ele>15.9</ele>
        <time>2023-06-28T09:49:30Z</time>
      </trkpt>
      <trkpt lat="49.94719" lon="2.14229">
        <ele>15.9</ele>
        <time>2023-06-28T09:49:31Z</time>
      </trkpt>
      <trkpt lat="49.94719" lon="2.14229">
        <ele>15.9</ele>
        <time>2023-06-28T09:49:32Z</time>
      </trkpt>
      <trkpt lat="49.94719" lon="2.14229">
        <ele>15.9</ele>
        <time>2023-06-28T09:49:33Z</time>
      </trkpt>
      <trkpt lat="49.94719" lon="2.14229">
        <ele>15.9</ele>
        <time>2023-06-28T09:49:34Z</time>
      </trkpt>
      <trkpt lat="49.94719" lon="2.14229">
        <ele>15.9</ele>
        <time>2023-06-28T09:49:35Z</time>
      </trkpt>
      <trkpt lat="49.94719" lon="2.14229">
        <ele>15.9</ele>
        <time>2023-06-28T09:49:36Z</time>
      </trkpt>
      <trkpt lat="49.94719" lon="2.14229">
        <ele>15.9</ele>
        <time>2023-06-28T09:49:37Z</time>
      </trkpt>
      <trkpt lat="49.94719" lon="2.14229">
        <ele>15.9</ele>
        <time>2023-06-28T09:49:38Z</time>
      </trkpt>
      <trkpt lat="49.94719" lon="2.14229">
        <ele>15.9</ele>
        <time>2023-06-28T09:49:39Z</time>
      </trkpt>
      <trkpt lat="49.94719" lon="2.14229">
        <ele>15.9</ele>
        <time>2023-06-28T09:49:40Z</time>
      </trkpt>
      <trkpt lat="49.94719" lon="2.14229">
        <ele>15.9</ele>
        <time>2023-06-28T09:49:41Z</time>
      </trkpt>
      <trkpt lat="49.94719" lon="2.14229">
        <ele>15.9</ele>
        <time>2023-06-28T09:49:42Z</time>
      </trkpt>
      <trkpt lat="49.94719" lon="2.14229">
        <ele>15.9</ele>
        <time>2023-06-28T09:49:43Z</time>
      </trkpt>
      <trkpt lat="49.94719" lon="2.14229">
        <ele>15.9</ele>
        <time>2023-06-28T09:49:44Z</time>
      </trkpt>
      <trkpt lat="49.94719" lon="2.14229">
        <ele>15.9</ele>
        <time>2023-06-28T09:49:45Z</time>
      </trkpt>
      <trkpt lat="49.94719" lon="2.14229">
        <ele>15.9</ele>
        <time>2023-06-28T09:49:46Z</time>
      </trkpt>
      <trkpt lat="49.94719" lon="2.14229">
        <ele>15.9</ele>
        <time>2023-06-28T09:49:47Z</time>
      </trkpt>
      <trkpt lat="49.94719" lon="2.14229">
        <ele>15.9</ele>
        <time>2023-06-28T09:49:48Z</time>
      </trkpt>
      <trkpt lat="49.94719" lon="2.14229">
        <ele>15.9</ele>
        <time>2023-06-28T09:49:49Z</time>
      </trkpt>
      <trkpt lat="49.94719" lon="2.14229">
        <ele>15.9</ele>
        <time>2023-06-28T09:49:50Z</time>
      </trkpt>
      <trkpt lat="49.94719" lon="2.14229">
        <ele>15.9</ele>
        <time>2023-06-28T09:49:51Z</time>
      </trkpt>
      <trkpt lat="49.94719" lon="2.14229">
        <ele>15.9</ele>
        <time>2023-06-28T09:49:52Z</time>
      </trkpt>
      <trkpt lat="49.94719" lon="2.14229">
        <ele>15.9</ele>
        <time>2023-06-28T09:49:53Z</time>
      </trkpt>
      <trkpt lat="49.94719" lon="2.14229">
        <ele>15.9</ele>
        <time>2023-06-28T09:49:54Z</time>
      </trkpt>
      <trkpt lat="49.94719" lon="2.14229">
        <ele>15.9</ele>
        <time>2023-06-28T09:49:55Z</time>
      </trkpt>
      <trkpt lat="49.94719" lon="2.14229">
        <ele>15.9</ele>
        <time>2023-06-28T09:49:56Z</time>
      </trkpt>
      <trkpt lat="49.94719" lon="2.14229">
        <ele>15.9</ele>
        <time>2023-06-28T09:49:57Z</time>
      </trkpt>
      <trkpt lat="49.94719" lon="2.14229">
        <ele>15.9</ele>
        <time>2023-06-28T09:49:58Z</time>
      </trkpt>
      <trkpt lat="49.94719" lon="2.14229">
        <ele>15.9</ele>
        <time>2023-06-28T09:49:59Z</time>
      </trkpt>
      <trkpt lat="49.94719" lon="2.14229">
        <ele>15.9</ele>
        <time>2023-06-28T09:50:00Z</time>
      </trkpt>
      <trkpt lat="49.94719" lon="2.14229">
        <ele>15.9</ele>
        <time>2023-06-28T09:50:01Z</time>
      </trkpt>
      <trkpt lat="49.94719" lon="2.14229">
        <ele>15.9</ele>
        <time>2023-06-28T09:50:02Z</time>
      </trkpt>
      <trkpt lat="49.94719" lon="2.14229">
        <ele>15.9</ele>
        <time>2023-06-28T09:50:03Z</time>
      </trkpt>
      <trkpt lat="49.94719" lon="2.14229">
        <ele>15.9</ele>
        <time>2023-06-28T09:50:04Z</time>
      </trkpt>
      <trkpt lat="49.94719" lon="2.14229">
        <ele>15.9</ele>
        <time>2023-06-28T09:50:05Z</time>
      </trkpt>
      <trkpt lat="49.94719" lon="2.14229">
        <ele>15.9</ele>
        <time>2023-06-28T09:50:06Z</time>
      </trkpt>
      <trkpt lat="49.94719" lon="2.14229">
        <ele>15.9</ele>
        <time>2023-06-28T09:50:07Z</time>
      </trkpt>
      <trkpt lat="49.94719" lon="2.14229">
        <ele>15.9</ele>
        <time>2023-06-28T09:50:08Z</time>
      </trkpt>
      <trkpt lat="49.94719" lon="2.14229">
        <ele>15.9</ele>
        <time>2023-06-28T09:50:09Z</time>
      </trkpt>
      <trkpt lat="49.94719" lon="2.14229">
        <ele>15.9</ele>
        <time>2023-06-28T09:50:10Z</time>
      </trkpt>
      <trkpt lat="49.94719" lon="2.14229">
        <ele>15.9</ele>
        <time>2023-06-28T09:50:11Z</time>
      </trkpt>
      <trkpt lat="49.94719" lon="2.14229">
        <ele>15.9</ele>
        <time>2023-06-28T09:50:12Z</time>
      </trkpt>
      <trkpt lat="49.94719" lon="2.14229">
        <ele>15.9</ele>
        <time>2023-06-28T09:50:13Z</time>
      </trkpt>
      <trkpt lat="49.94719" lon="2.14229">
        <ele>15.9</ele>
        <time>2023-06-28T09:50:14Z</time>
      </trkpt>
      <trkpt lat="49.94719" lon="2.14229">
        <ele>15.9</ele>
        <time>2023-06-28T09:50:15Z</time>
      </trkpt>
      <trkpt lat="49.94719" lon="2.14229">
        <ele>15.9</ele>
        <time>2023-06-28T09:50:16Z</time>
      </trkpt>
      <trkpt lat="49.94719" lon="2.14229">
        <ele>15.9</ele>
        <time>2023-06-28T09:50:17Z</time>
      </trkpt>
      <trkpt lat="49.94719" lon="2.14229">
        <ele>15.9</ele>
        <time>2023-06-28T09:50:18Z</time>
      </trkpt>
      <trkpt lat="49.94719" lon="2.14229">
        <ele>15.9</ele>
        <time>2023-06-28T09:50:19Z</time>
      </trkpt>
      <trkpt lat="49.94719" lon="2.14229">
        <ele>15.9</ele>
        <time>2023-06-28T09:50:20Z</time>
      </trkpt>
      <trkpt lat="49.94719" lon="2.14229">
        <ele>15.9</ele>
        <time>2023-06-28T09:50:21Z</time>
      </trkpt>
      <trkpt lat="49.94719" lon="2.14229">
        <ele>15.9</ele>
        <time>2023-06-28T09:50:22Z</time>
      </trkpt>
      <trkpt lat="49.94719" lon="2.14229">
        <ele>15.9</ele>
        <time>2023-06-28T09:50:23Z</time>
      </trkpt>
      <trkpt lat="49.94719" lon="2.14229">
        <ele>15.9</ele>
        <time>2023-06-28T09:50:24Z</time>
      </trkpt>
      <trkpt lat="49.94719" lon="2.14229">
        <ele>15.9</ele>
        <time>2023-06-28T09:50:25Z</time>
      </trkpt>
      <trkpt lat="49.94719" lon="2.14229">
        <ele>15.9</ele>
        <time>2023-06-28T09:50:26Z</time>
      </trkpt>
      <trkpt lat="49.94719" lon="2.14229">
        <ele>15.9</ele>
        <time>2023-06-28T09:50:27Z</time>
      </trkpt>
      <trkpt lat="49.94719" lon="2.14229">
        <ele>15.9</ele>
        <time>2023-06-28T09:50:28Z</time>
      </trkpt>
      <trkpt lat="49.94719" lon="2.14229">
        <ele>15.9</ele>
        <time>2023-06-28T09:50:29Z</time>
      </trkpt>
      <trkpt lat="49.94719" lon="2.14229">
        <ele>15.9</ele>
        <time>2023-06-28T09:50:30Z</time>
      </trkpt>
      <trkpt lat="49.94719" lon="2.14229">
        <ele>15.9</ele>
        <time>2023-06-28T09:50:31Z</time>
      </trkpt>
      <trkpt lat="49.94719" lon="2.14229">
        <ele>15.9</ele>
        <time>2023-06-28T09:50:32Z</time>
      </trkpt>
      <trkpt lat="49.94719" lon="2.14229">
        <ele>15.9</ele>
        <time>2023-06-28T09:50:33Z</time>
      </trkpt>
      <trkpt lat="49.94719" lon="2.14229">
        <ele>15.9</ele>
        <time>2023-06-28T09:50:34Z</time>
      </trkpt>
      <trkpt lat="49.94719" lon="2.14229">
        <ele>15.9</ele>
        <time>2023-06-28T09:50:35Z</time>
      </trkpt>
      <trkpt lat="49.94719" lon="2.14229">
        <ele>15.9</ele>
        <time>2023-06-28T09:50:36Z</time>
      </trkpt>
      <trkpt lat="49.94719" lon="2.14229">
        <ele>15.9</ele>
        <time>2023-06-28T09:50:37Z</time>
      </trkpt>
      <trkpt lat="49.94719" lon="2.14229">
        <ele>15.9</ele>
        <time>2023-06-28T09:50:38Z</time>
      </trkpt>
      <trkpt lat="49.94719" lon="2.14229">
        <ele>15.9</ele>
        <time>2023-06-28T09:50:39Z</time>
      </trkpt>
      <trkpt lat="49.94719" lon="2.14229">
        <ele>15.9</ele>
        <time>2023-06-28T09:50:40Z</time>
      </trkpt>
      <trkpt lat="49.94719" lon="2.14229">
        <ele>15.9</ele>
        <time>2023-06-28T09:50:41Z</time>
      </trkpt>
      <trkpt lat="49.94719" lon="2.14229">
        <ele>15.9</ele>
        <time>2023-06-28T09:50:42Z</time>
      </trkpt>
      <trkpt lat="49.94719" lon="2.14229">
        <ele>15.9</ele>
        <time>2023-06-28T09:50:43Z</time>
      </trkpt>
      <trkpt lat="49.94719" lon="2.14229">
        <ele>15.9</ele>
        <time>2023-06-28T09:50:44Z</time>
      </trkpt>
      <trkpt lat="49.94719" lon="2.14229">
        <ele>15.9</ele>
        <time>2023-06-28T09:50:45Z</time>
      </trkpt>
      <trkpt lat="49.94719" lon="2.14229">
        <ele>15.9</ele>
        <time>2023-06-28T09:50:46Z</time>
      </trkpt>
      <trkpt lat="49.94719" lon="2.14229">
        <ele>15.9</ele>
        <time>2023-06-28T09:50:47Z</time>
      </trkpt>
      <trkpt lat="49.94719" lon="2.14229">
        <ele>15.9</ele>
        <time>2023-06-28T09:50:48Z</time>
      </trkpt>
      <trkpt lat="49.94719" lon="2.14229">
        <ele>15.9</ele>
        <time>2023-06-28T09:50:49Z</time>
      </trkpt>
      <trkpt lat="49.94719" lon="2.14229">
        <ele>15.9</ele>
        <time>2023-06-28T09:50:50Z</time>
      </trkpt>
      <trkpt lat="49.94719" lon="2.14229">
        <ele>15.9</ele>
        <time>2023-06-28T09:50:51Z</time>
      </trkpt>
      <trkpt lat="49.94719" lon="2.14229">
        <ele>15.9</ele>
        <time>2023-06-28T09:50:52Z</time>
      </trkpt>
      <trkpt lat="49.94719" lon="2.14229">
        <ele>15.9</ele>
        <time>2023-06-28T09:50:53Z</time>
      </trkpt>
      <trkpt lat="49.94719" lon="2.14229">
        <ele>15.9</ele>
        <time>2023-06-28T09:50:54Z</time>
      </trkpt>
      <trkpt lat="49.94719" lon="2.14229">
        <ele>15.9</ele>
        <time>2023-06-28T09:50:55Z</time>
      </trkpt>
      <trkpt lat="49.94719" lon="2.14229">
        <ele>15.9</ele>
        <time>2023-06-28T09:50:56Z</time>
      </trkpt>
      <trkpt lat="49.94719" lon="2.14229">
        <ele>15.9</ele>
        <time>2023-06-28T09:50:57Z</time>
      </trkpt>
      <trkpt lat="49.94719" lon="2.14229">
        <ele>15.9</ele>
        <time>2023-06-28T09:50:58Z</time>
      </trkpt>
      <trkpt lat="49.94719" lon="2.14229">
        <ele>15.9</ele>
        <time>2023-06-28T09:50:59Z</time>
      </trkpt>
      <trkpt lat="49.94719" lon="2.14229">
        <ele>15.9</ele>
        <time>2023-06-28T09:51:00Z</time>
      </trkpt>
      <trkpt lat="49.94719" lon="2.14229">
        <ele>15.9</ele>
        <time>2023-06-28T09:51:01Z</time>
      </trkpt>
      <trkpt lat="49.94719" lon="2.14229">
        <ele>15.9</ele>
        <time>2023-06-28T09:51:02Z</time>
      </trkpt>
      <trkpt lat="49.94719" lon="2.14229">
        <ele>15.9</ele>
        <time>2023-06-28T09:51:03Z</time>
      </trkpt>
      <trkpt lat="49.94719" lon="2.14229">
        <ele>15.9</ele>
        <time>2023-06-28T09:51:04Z</time>
      </trkpt>
      <trkpt lat="49.94719" lon="2.14229">
        <ele>15.9</ele>
        <time>2023-06-28T09:51:05Z</time>
      </trkpt>
      <trkpt lat="49.94719" lon="2.14229">
        <ele>15.9</ele>
        <time>2023-06-28T09:51:06Z</time>
      </trkpt>
      <trkpt lat="49.94719" lon="2.14229">
        <ele>15.9</ele>
        <time>2023-06-28T09:51:07Z</time>
      </trkpt>
      <trkpt lat="49.94719" lon="2.14229">
        <ele>15.9</ele>
        <time>2023-06-28T09:51:08Z</time>
      </trkpt>
      <trkpt lat="49.94719" lon="2.14229">
        <ele>15.9</ele>
        <time>2023-06-28T09:51:09Z</time>
      </trkpt>
      <trkpt lat="49.94719" lon="2.14229">
        <ele>15.9</ele>
        <time>2023-06-28T09:51:10Z</time>
      </trkpt>
      <trkpt lat="49.94719" lon="2.14229">
        <ele>15.9</ele>
        <time>2023-06-28T09:51:11Z</time>
      </trkpt>
      <trkpt lat="49.94719" lon="2.14229">
        <ele>15.9</ele>
        <time>2023-06-28T09:51:12Z</time>
      </trkpt>
      <trkpt lat="49.94719" lon="2.14229">
        <ele>15.9</ele>
        <time>2023-06-28T09:51:13Z</time>
      </trkpt>
      <trkpt lat="49.94719" lon="2.14229">
        <ele>15.9</ele>
        <time>2023-06-28T09:51:14Z</time>
      </trkpt>
      <trkpt lat="49.94719" lon="2.14229">
        <ele>15.9</ele>
        <time>2023-06-28T09:51:15Z</time>
      </trkpt>
      <trkpt lat="49.94719" lon="2.14229">
        <ele>15.9</ele>
        <time>2023-06-28T09:51:16Z</time>
      </trkpt>
      <trkpt lat="49.94719" lon="2.14229">
        <ele>15.9</ele>
        <time>2023-06-28T09:51:17Z</time>
      </trkpt>
      <trkpt lat="49.94719" lon="2.14229">
        <ele>15.9</ele>
        <time>2023-06-28T09:51:18Z</time>
      </trkpt>
      <trkpt lat="49.94719" lon="2.14229">
        <ele>15.9</ele>
        <time>2023-06-28T09:51:19Z</time>
      </trkpt>
      <trkpt lat="49.94719" lon="2.14229">
        <ele>15.9</ele>
        <time>2023-06-28T09:51:20Z</time>
      </trkpt>
      <trkpt lat="49.94719" lon="2.14229">
        <ele>15.9</ele>
        <time>2023-06-28T09:51:21Z</time>
      </trkpt>
      <trkpt lat="49.94719" lon="2.14229">
        <ele>15.9</ele>
        <time>2023-06-28T09:51:22Z</time>
      </trkpt>
      <trkpt lat="49.94719" lon="2.14229">
        <ele>15.9</ele>
        <time>2023-06-28T09:51:23Z</time>
      </trkpt>
      <trkpt lat="49.94719" lon="2.14229">
        <ele>15.9</ele>
        <time>2023-06-28T09:51:24Z</time>
      </trkpt>
      <trkpt lat="49.94719" lon="2.14229">
        <ele>15.9</ele>
        <time>2023-06-28T09:51:25Z</time>
      </trkpt>
      <trkpt lat="49.94719" lon="2.14229">
        <ele>15.9</ele>
        <time>2023-06-28T09:51:26Z</time>
      </trkpt>
      <trkpt lat="49.94719" lon="2.14229">
        <ele>15.9</ele>
        <time>2023-06-28T09:51:27Z</time>
      </trkpt>
      <trkpt lat="49.94719" lon="2.14229">
        <ele>15.9</ele>
        <time>2023-06-28T09:51:28Z</time>
      </trkpt>
      <trkpt lat="49.94719" lon="2.14229">
        <ele>15.9</ele>
        <time>2023-06-28T09:51:29Z</time>
      </trkpt>
      <trkpt lat="49.94719" lon="2.14229">
        <ele>15.9</ele>
        <time>2023-06-28T09:51:30Z</time>
      </trkpt>
      <trkpt lat="49.94719" lon="2.14229">
        <ele>15.9</ele>
        <time>2023-06-28T09:51:31Z</time>
      </trkpt>
      <trkpt lat="49.94719" lon="2.14229">
        <ele>15.9</ele>
        <time>2023-06-28T09:51:32Z</time>
      </trkpt>
      <trkpt lat="49.94719" lon="2.14229">
        <ele>15.9</ele>
        <time>2023-06-28T09:51:33Z</time>
      </trkpt>
      <trkpt lat="49.94719" lon="2.14229">
        <ele>15.9</ele>
        <time>2023-06-28T09:51:34Z</time>
      </trkpt>
      <trkpt lat="49.94719" lon="2.14229">
        <ele>15.9</ele>
        <time>2023-06-28T09:51:35Z</time>
      </trkpt>
      <trkpt lat="49.94719" lon="2.14229">
        <ele>15.9</ele>
        <time>2023-06-28T09:51:36Z</time>
      </trkpt>
      <trkpt lat="49.94719" lon="2.14229">
        <ele>15.9</ele>
        <time>2023-06-28T09:51:37Z</time>
      </trkpt>
      <trkpt lat="49.94719" lon="2.14229">
        <ele>15.9</ele>
        <time>2023-06-28T09:51:38Z</time>
      </trkpt>
      <trkpt lat="49.94719" lon="2.14229">
        <ele>15.9</ele>
        <time>2023-06-28T09:51:39Z</time>
      </trkpt>
      <trkpt lat="49.94719" lon="2.14229">
        <ele>15.9</ele>
        <time>2023-06-28T09:51:40Z</time>
      </trkpt>
      <trkpt lat="49.94719" lon="2.14229">
        <ele>15.9</ele>
        <time>2023-06-28T09:51:41Z</time>
      </trkpt>
      <trkpt lat="49.94719" lon="2.14229">
        <ele>15.9</ele>
        <time>2023-06-28T09:51:42Z</time>
      </trkpt>
      <trkpt lat="49.94719" lon="2.14229">
        <ele>15.9</ele>
        <time>2023-06-28T09:51:43Z</time>
      </trkpt>
      <trkpt lat="49.94719" lon="2.14229">
        <ele>15.9</ele>
        <time>2023-06-28T09:51:44Z</time>
      </trkpt>
      <trkpt lat="49.94719" lon="2.14229">
        <ele>15.9</ele>
        <time>2023-06-28T09:51:45Z</time>
      </trkpt>
      <trkpt lat="49.94719" lon="2.14229">
        <ele>15.9</ele>
        <time>2023-06-28T09:51:46Z</time>
      </trkpt>
      <trkpt lat="49.94719" lon="2.14229">
        <ele>15.9</ele>
        <time>2023-06-28T09:51:47Z</time>
      </trkpt>
      <trkpt lat="49.94719" lon="2.14229">
        <ele>15.9</ele>
        <time>2023-06-28T09:51:48Z</time>
      </trkpt>
      <trkpt lat="49.94719" lon="2.14229">
        <ele>15.9</ele>
        <time>2023-06-28T09:51:49Z</time>
      </trkpt>
      <trkpt lat="49.94719" lon="2.14229">
        <ele>15.9</ele>
        <time>2023-06-28T09:51:50Z</time>
      </trkpt>
      <trkpt lat="49.94719" lon="2.14229">
        <ele>15.9</ele>
        <time>2023-06-28T09:51:51Z</time>
      </trkpt>
      <trkpt lat="49.94719" lon="2.14229">
        <ele>15.9</ele>
        <time>2023-06-28T09:51:52Z</time>
      </trkpt>
      <trkpt lat="49.94719" lon="2.14229">
        <ele>15.9</ele>
        <time>2023-06-28T09:51:53Z</time>
      </trkpt>
      <trkpt lat="49.94719" lon="2.14229">
        <ele>15.9</ele>
        <time>2023-06-28T09:51:54Z</time>
      </trkpt>
      <trkpt lat="49.94719" lon="2.14229">
        <ele>15.9</ele>
        <time>2023-06-28T09:51:55Z</time>
      </trkpt>
      <trkpt lat="49.94719" lon="2.14229">
        <ele>15.9</ele>
        <time>2023-06-28T09:51:56Z</time>
      </trkpt>
      <trkpt lat="49.94719" lon="2.14229">
        <ele>15.9</ele>
        <time>2023-06-28T09:51:57Z</time>
      </trkpt>
      <trkpt lat="49.94719" lon="2.14229">
        <ele>15.9</ele>
        <time>2023-06-28T09:51:58Z</time>
      </trkpt>
      <trkpt lat="49.94719" lon="2.14229">
        <ele>15.9</ele>
        <time>2023-06-28T09:51:59Z</time>
      </trkpt>
      <trkpt lat="49.94719" lon="2.14229">
        <ele>15.9</ele>
        <time>2023-06-28T09:52:00Z</time>
      </trkpt>
      <trkpt lat="49.94719" lon="2.14229">
        <ele>15.9</ele>
        <time>2023-06-28T09:52:01Z</time>
      </trkpt>
      <trkpt lat="49.94719" lon="2.14229">
        <ele>15.9</ele>
        <time>2023-06-28T09:52:02Z</time>
      </trkpt>
      <trkpt lat="49.94719" lon="2.14229">
        <ele>15.9</ele>
        <time>2023-06-28T09:52:03Z</time>
      </trkpt>
      <trkpt lat="49.94719" lon="2.14229">
        <ele>15.9</ele>
        <time>2023-06-28T09:52:04Z</time>
      </trkpt>
      <trkpt lat="49.94719" lon="2.14229">
        <ele>15.9</ele>
        <time>2023-06-28T09:52:05Z</time>
      </trkpt>
      <trkpt lat="49.94719" lon="2.14229">
        <ele>15.9</ele>
        <time>2023-06-28T09:52:06Z</time>
      </trkpt>
      <trkpt lat="49.94719" lon="2.14229">
        <ele>15.9</ele>
        <time>2023-06-28T09:52:07Z</time>
      </trkpt>
      <trkpt lat="49.94719" lon="2.14229">
        <ele>15.9</ele>
        <time>2023-06-28T09:52:08Z</time>
      </trkpt>
      <trkpt lat="49.94719" lon="2.14229">
        <ele>15.9</ele>
        <time>2023-06-28T09:52:09Z</time>
      </trkpt>
      <trkpt lat="49.94719" lon="2.14229">
        <ele>15.9</ele>
        <time>2023-06-28T09:52:10Z</time>
      </trkpt>
      <trkpt lat="49.94719" lon="2.14229">
        <ele>15.9</ele>
        <time>2023-06-28T09:52:11Z</time>
      </trkpt>
      <trkpt lat="49.94719" lon="2.14229">
        <ele>15.9</ele>
        <time>2023-06-28T09:52:12Z</time>
      </trkpt>
      <trkpt lat="49.94719" lon="2.14229">
        <ele>15.9</ele>
        <time>2023-06-28T09:52:13Z</time>
      </trkpt>
      <trkpt lat="49.94719" lon="2.14229">
        <ele>15.9</ele>
        <time>2023-06-28T09:52:14Z</time>
      </trkpt>
      <trkpt lat="49.94719" lon="2.14229">
        <ele>15.9</ele>
        <time>2023-06-28T09:52:15Z</time>
      </trkpt>
      <trkpt lat="49.94719" lon="2.14229">
        <ele>15.9</ele>
        <time>2023-06-28T09:52:16Z</time>
      </trkpt>
      <trkpt lat="49.94719" lon="2.14229">
        <ele>15.9</ele>
        <time>2023-06-28T09:52:17Z</time>
      </trkpt>
      <trkpt lat="49.94719" lon="2.14229">
        <ele>15.9</ele>
        <time>2023-06-28T09:52:18Z</time>
      </trkpt>
      <trkpt lat="49.94719" lon="2.14229">
        <ele>15.9</ele>
        <time>2023-06-28T09:52:19Z</time>
      </trkpt>
      <trkpt lat="49.94719" lon="2.14229">
        <ele>15.9</ele>
        <time>2023-06-28T09:52:20Z</time>
      </trkpt>
      <trkpt lat="49.94719" lon="2.14229">
        <ele>15.9</ele>
        <time>2023-06-28T09:52:21Z</time>
      </trkpt>
      <trkpt lat="49.94719" lon="2.14229">
        <ele>15.9</ele>
        <time>2023-06-28T09:52:22Z</time>
      </trkpt>
      <trkpt lat="49.94719" lon="2.14229">
        <ele>15.9</ele>
        <time>2023-06-28T09:52:23Z</time>
      </trkpt>
      <trkpt lat="49.94719" lon="2.14229">
        <ele>15.9</ele>
        <time>2023-06-28T09:52:24Z</time>
      </trkpt>
      <trkpt lat="49.94719" lon="2.14229">
        <ele>15.9</ele>
        <time>2023-06-28T09:52:25Z</time>
      </trkpt>
      <trkpt lat="49.94719" lon="2.14229">
        <ele>15.9</ele>
        <time>2023-06-28T09:52:26Z</time>
      </trkpt>
      <trkpt lat="49.94719" lon="2.14229">
        <ele>15.9</ele>
        <time>2023-06-28T09:52:27Z</time>
      </trkpt>
      <trkpt lat="49.94719" lon="2.14229">
        <ele>15.9</ele>
        <time>2023-06-28T09:52:28Z</time>
      </trkpt>
      <trkpt lat="49.94719" lon="2.14229">
        <ele>15.9</ele>
        <time>2023-06-28T09:52:29Z</time>
      </trkpt>
      <trkpt lat="49.94719" lon="2.14229">
        <ele>15.9</ele>
        <time>2023-06-28T09:52:30Z</time>
      </trkpt>
      <trkpt lat="49.94719" lon="2.14229">
        <ele>15.9</ele>
        <time>2023-06-28T09:52:31Z</time>
      </trkpt>
      <trkpt lat="49.94719" lon="2.14229">
        <ele>15.9</ele>
        <time>2023-06-28T09:52:32Z</time>
      </trkpt>
      <trkpt lat="49.94719" lon="2.14229">
        <ele>15.9</ele>
        <time>2023-06-28T09:52:33Z</time>
      </trkpt>
      <trkpt lat="49.94719" lon="2.14229">
        <ele>15.9</ele>
        <time>2023-06-28T09:52:34Z</time>
      </trkpt>
      <trkpt lat="49.94719" lon="2.14229">
        <ele>15.9</ele>
        <time>2023-06-28T09:52:35Z</time>
      </trkpt>
      <trkpt lat="49.94719" lon="2.14229">
        <ele>15.9</ele>
        <time>2023-06-28T09:52:36Z</time>
      </trkpt>
      <trkpt lat="49.94719" lon="2.14229">
        <ele>15.9</ele>
        <time>2023-06-28T09:52:37Z</time>
      </trkpt>
      <trkpt lat="49.94719" lon="2.14229">
        <ele>15.9</ele>
        <time>2023-06-28T09:52:38Z</time>
      </trkpt>
      <trkpt lat="49.94719" lon="2.14229">
        <ele>15.9</ele>
        <time>2023-06-28T09:52:39Z</time>
      </trkpt>
      <trkpt lat="49.94719" lon="2.14229">
        <ele>15.9</ele>
        <time>2023-06-28T09:52:40Z</time>
      </trkpt>
      <trkpt lat="49.94719" lon="2.14229">
        <ele>15.9</ele>
        <time>2023-06-28T09:52:41Z</time>
      </trkpt>
      <trkpt lat="49.94719" lon="2.14229">
        <ele>15.9</ele>
        <time>2023-06-28T09:52:42Z</time>
      </trkpt>
      <trkpt lat="49.94719" lon="2.14229">
        <ele>15.9</ele>
        <time>2023-06-28T09:52:43Z</time>
      </trkpt>
      <trkpt lat="49.94719" lon="2.14229">
        <ele>15.9</ele>
        <time>2023-06-28T09:52:44Z</time>
      </trkpt>
      <trkpt lat="49.94719" lon="2.14229">
        <ele>15.9</ele>
        <time>2023-06-28T09:52:45Z</time>
      </trkpt>
      <trkpt lat="49.94719" lon="2.14229">
        <ele>15.9</ele>
        <time>2023-06-28T09:52:46Z</time>
      </trkpt>
      <trkpt lat="49.94719" lon="2.14229">
        <ele>15.9</ele>
        <time>2023-06-28T09:52:47Z</time>
      </trkpt>
      <trkpt lat="49.94719" lon="2.14229">
        <ele>15.9</ele>
        <time>2023-06-28T09:52:48Z</time>
      </trkpt>
      <trkpt lat="49.94719" lon="2.14229">
        <ele>15.9</ele>
        <time>2023-06-28T09:52:49Z</time>
      </trkpt>
      <trkpt lat="49.94719" lon="2.14229">
        <ele>15.9</ele>
        <time>2023-06-28T09:52:50Z</time>
      </trkpt>
      <trkpt lat="49.94719" lon="2.14229">
        <ele>15.9</ele>
        <time>2023-06-28T09:52:51Z</time>
      </trkpt>
      <trkpt lat="49.94719" lon="2.14229">
        <ele>15.9</ele>
        <time>2023-06-28T09:52:52Z</time>
      </trkpt>
      <trkpt lat="49.94719" lon="2.14229">
        <ele>15.9</ele>
        <time>2023-06-28T09:52:53Z</time>
      </trkpt>
      <trkpt lat="49.94719" lon="2.14229">
        <ele>15.9</ele>
        <time>2023-06-28T09:52:54Z</time>
      </trkpt>
      <trkpt lat="49.94719" lon="2.14229">
        <ele>15.9</ele>
        <time>2023-06-28T09:52:55Z</time>
      </trkpt>
      <trkpt lat="49.94719" lon="2.14229">
        <ele>15.9</ele>
        <time>2023-06-28T09:52:56Z</time>
      </trkpt>
      <trkpt lat="49.94719" lon="2.14229">
        <ele>15.9</ele>
        <time>2023-06-28T09:52:57Z</time>
      </trkpt>
      <trkpt lat="49.94719" lon="2.14229">
        <ele>15.9</ele>
        <time>2023-06-28T09:52:58Z</time>
      </trkpt>
      <trkpt lat="49.94719" lon="2.14229">
        <ele>15.9</ele>
        <time>2023-06-28T09:52:59Z</time>
      </trkpt>
      <trkpt lat="49.94719" lon="2.14229">
        <ele>15.9</ele>
        <time>2023-06-28T09:53:00Z</time>
      </trkpt>
      <trkpt lat="49.94719" lon="2.14229">
        <ele>15.9</ele>
        <time>2023-06-28T09:53:01Z</time>
      </trkpt>
      <trkpt lat="49.94719" lon="2.14229">
        <ele>15.9</ele>
        <time>2023-06-28T09:53:02Z</time>
      </trkpt>
      <trkpt lat="49.94719" lon="2.14229">
        <ele>15.9</ele>
        <time>2023-06-28T09:53:03Z</time>
      </trkpt>
      <trkpt lat="49.94719" lon="2.14229">
        <ele>15.9</ele>
        <time>2023-06-28T09:53:04Z</time>
      </trkpt>
      <trkpt lat="49.94719" lon="2.14229">
        <ele>15.9</ele>
        <time>2023-06-28T09:53:05Z</time>
      </trkpt>
      <trkpt lat="49.94719" lon="2.14229">
        <ele>15.9</ele>
        <time>2023-06-28T09:53:06Z</time>
      </trkpt>
      <trkpt lat="49.94719" lon="2.14229">
        <ele>15.9</ele>
        <time>2023-06-28T09:53:07Z</time>
      </trkpt>
      <trkpt lat="49.94719" lon="2.14229">
        <ele>15.9</ele>
        <time>2023-06-28T09:53:08Z</time>
      </trkpt>
      <trkpt lat="49.94719" lon="2.14229">
        <ele>15.9</ele>
        <time>2023-06-28T09:53:09Z</time>
      </trkpt>
      <trkpt lat="49.94719" lon="2.14229">
        <ele>15.9</ele>
        <time>2023-06-28T09:53:10Z</time>
      </trkpt>
      <trkpt lat="49.94719" lon="2.14229">
        <ele>15.9</ele>
        <time>2023-06-28T09:53:11Z</time>
      </trkpt>
      <trkpt lat="49.94719" lon="2.14229">
        <ele>15.9</ele>
        <time>2023-06-28T09:53:12Z</time>
      </trkpt>
      <trkpt lat="49.94719" lon="2.14229">
        <ele>15.9</ele>
        <time>2023-06-28T09:53:13Z</time>
      </trkpt>
      <trkpt lat="49.94719" lon="2.14229">
        <ele>15.9</ele>
        <time>2023-06-28T09:53:14Z</time>
      </trkpt>
      <trkpt lat="49.94719" lon="2.14229">
        <ele>15.9</ele>
        <time>2023-06-28T09:53:15Z</time>
      </trkpt>
      <trkpt lat="49.94719" lon="2.14229">
        <ele>15.9</ele>
        <time>2023-06-28T09:53:16Z</time>
      </trkpt>
      <trkpt lat="49.94719" lon="2.14229">
        <ele>15.9</ele>
        <time>2023-06-28T09:53:17Z</time>
      </trkpt>
      <trkpt lat="49.94719" lon="2.14229">
        <ele>15.9</ele>
        <time>2023-06-28T09:53:18Z</time>
      </trkpt>
      <trkpt lat="49.94719" lon="2.14229">
        <ele>15.9</ele>
        <time>2023-06-28T09:53:19Z</time>
      </trkpt>
      <trkpt lat="49.94719" lon="2.14229">
        <ele>15.9</ele>
        <time>2023-06-28T09:53:20Z</time>
      </trkpt>
      <trkpt lat="49.94719" lon="2.14229">
        <ele>15.9</ele>
        <time>2023-06-28T09:53:21Z</time>
      </trkpt>
      <trkpt lat="49.94719" lon="2.14229">
        <ele>15.9</ele>
        <time>2023-06-28T09:53:22Z</time>
      </trkpt>
      <trkpt lat="49.94719" lon="2.14229">
        <ele>15.9</ele>
        <time>2023-06-28T09:53:23Z</time>
      </trkpt>
      <trkpt lat="49.94719" lon="2.14229">
        <ele>15.9</ele>
        <time>2023-06-28T09:53:24Z</time>
      </trkpt>
      <trkpt lat="49.94719" lon="2.14229">
        <ele>15.9</ele>
        <time>2023-06-28T09:53:25Z</time>
      </trkpt>
      <trkpt lat="49.94719" lon="2.14229">
        <ele>15.9</ele>
        <time>2023-06-28T09:53:26Z</time>
      </trkpt>
      <trkpt lat="49.94719" lon="2.14229">
        <ele>15.9</ele>
        <time>2023-06-28T09:53:27Z</time>
      </trkpt>
      <trkpt lat="49.94719" lon="2.14229">
        <ele>15.9</ele>
        <time>2023-06-28T09:53:28Z</time>
      </trkpt>
      <trkpt lat="49.94719" lon="2.14229">
        <ele>15.9</ele>
        <time>2023-06-28T09:53:29Z</time>
      </trkpt>
      <trkpt lat="49.94719" lon="2.14229">
        <ele>15.9</ele>
        <time>2023-06-28T09:53:30Z</time>
      </trkpt>
      <trkpt lat="49.94719" lon="2.14229">
        <ele>15.9</ele>
        <time>2023-06-28T09:53:31Z</time>
      </trkpt>
      <trkpt lat="49.94719" lon="2.14229">
        <ele>15.9</ele>
        <time>2023-06-28T09:53:32Z</time>
      </trkpt>
      <trkpt lat="49.94719" lon="2.14229">
        <ele>15.9</ele>
        <time>2023-06-28T09:53:33Z</time>
      </trkpt>
      <trkpt lat="49.94719" lon="2.14229">
        <ele>15.9</ele>
        <time>2023-06-28T09:53:34Z</time>
      </trkpt>
      <trkpt lat="49.94719" lon="2.14229">
        <ele>15.9</ele>
        <time>2023-06-28T09:53:35Z</time>
      </trkpt>
      <trkpt lat="49.94719" lon="2.14229">
        <ele>15.9</ele>
        <time>2023-06-28T09:53:36Z</time>
      </trkpt>
      <trkpt lat="49.94719" lon="2.14229">
        <ele>15.9</ele>
        <time>2023-06-28T09:53:37Z</time>
      </trkpt>
      <trkpt lat="49.94719" lon="2.14229">
        <ele>15.9</ele>
        <time>2023-06-28T09:53:38Z</time>
      </trkpt>
      <trkpt lat="49.94719" lon="2.14229">
        <ele>15.9</ele>
        <time>2023-06-28T09:53:39Z</time>
      </trkpt>
      <trkpt lat="49.94719" lon="2.14229">
        <ele>15.9</ele>
        <time>2023-06-28T09:53:40Z</time>
      </trkpt>
      <trkpt lat="49.94719" lon="2.14229">
        <ele>15.9</ele>
        <time>2023-06-28T09:53:41Z</time>
      </trkpt>
      <trkpt lat="49.94719" lon="2.14229">
        <ele>15.9</ele>
        <time>2023-06-28T09:53:42Z</time>
      </trkpt>
      <trkpt lat="49.94719" lon="2.14229">
        <ele>15.9</ele>
        <time>2023-06-28T09:53:43Z</time>
      </trkpt>
      <trkpt lat="49.94719" lon="2.14229">
        <ele>15.9</ele>
        <time>2023-06-28T09:53:44Z</time>
      </trkpt>
      <trkpt lat="49.94719" lon="2.14229">
        <ele>15.9</ele>
        <time>2023-06-28T09:53:45Z</time>
      </trkpt>
      <trkpt lat="49.94719" lon="2.14229">
        <ele>15.9</ele>
        <time>2023-06-28T09:53:46Z</time>
      </trkpt>
      <trkpt lat="49.94719" lon="2.14229">
        <ele>15.9</ele>
        <time>2023-06-28T09:53:47Z</time>
      </trkpt>
      <trkpt lat="49.94719" lon="2.14229">
        <ele>15.9</ele>
        <time>2023-06-28T09:53:48Z</time>
      </trkpt>
      <trkpt lat="49.94719" lon="2.14229">
        <ele>15.9</ele>
        <time>2023-06-28T09:53:49Z</time>
      </trkpt>
      <trkpt lat="49.94719" lon="2.14229">
        <ele>15.9</ele>
        <time>2023-06-28T09:53:50Z</time>
      </trkpt>
      <trkpt lat="49.94719" lon="2.14229">
        <ele>15.9</ele>
        <time>2023-06-28T09:53:51Z</time>
      </trkpt>
      <trkpt lat="49.94719" lon="2.14229">
        <ele>15.9</ele>
        <time>2023-06-28T09:53:52Z</time>
      </trkpt>
      <trkpt lat="49.94719" lon="2.14229">
        <ele>15.9</ele>
        <time>2023-06-28T09:53:53Z</time>
      </trkpt>
      <trkpt lat="49.94719" lon="2.14229">
        <ele>15.9</ele>
        <time>2023-06-28T09:53:54Z</time>
      </trkpt>
      <trkpt lat="49.94719" lon="2.14229">
        <ele>15.9</ele>
        <time>2023-06-28T09:53:55Z</time>
      </trkpt>
      <trkpt lat="49.94719" lon="2.14229">
        <ele>15.9</ele>
        <time>2023-06-28T09:53:56Z</time>
      </trkpt>
      <trkpt lat="49.94719" lon="2.14229">
        <ele>15.9</ele>
        <time>2023-06-28T09:53:57Z</time>
      </trkpt>
      <trkpt lat="49.94719" lon="2.14229">
        <ele>15.9</ele>
        <time>2023-06-28T09:53:58Z</time>
      </trkpt>
      <trkpt lat="49.94719" lon="2.14229">
        <ele>15.9</ele>
        <time>2023-06-28T09:53:59Z</time>
      </trkpt>
      <trkpt lat="49.94719" lon="2.14229">
        <ele>15.9</ele>
        <time>2023-06-28T09:54:00Z</time>
      </trkpt>
      <trkpt lat="49.94719" lon="2.14229">
        <ele>15.9</ele>
        <time>2023-06-28T09:54:01Z</time>
      </trkpt>
      <trkpt lat="49.94719" lon="2.14229">
        <ele>15.9</ele>
        <time>2023-06-28T09:54:02Z</time>
      </trkpt>
      <trkpt lat="49.94719" lon="2.14229">
        <ele>15.9</ele>
        <time>2023-06-28T09:54:03Z</time>
      </trkpt>
      <trkpt lat="49.94719" lon="2.14229">
        <ele>15.9</ele>
        <time>2023-06-28T09:54:04Z</time>
      </trkpt>
      <trkpt lat="49.94719" lon="2.14229">
        <ele>15.9</ele>
        <time>2023-06-28T09:54:05Z</time>
      </trkpt>
      <trkpt lat="49.94719" lon="2.14229">
        <ele>15.9</ele>
        <time>2023-06-28T09:54:06Z</time>
      </trkpt>
      <trkpt lat="49.94719" lon="2.14229">
        <ele>15.9</ele>
        <time>2023-06-28T09:54:07Z</time>
      </trkpt>
      <trkpt lat="49.94719" lon="2.14229">
        <ele>15.9</ele>
        <time>2023-06-28T09:54:08Z</time>
      </trkpt>
      <trkpt lat="49.94719" lon="2.14229">
        <ele>15.9</ele>
        <time>2023-06-28T09:54:09Z</time>
      </trkpt>
      <trkpt lat="49.94719" lon="2.14229">
        <ele>15.9</ele>
        <time>2023-06-28T09:54:10Z</time>
      </trkpt>
      <trkpt lat="49.94719" lon="2.14229">
        <ele>15.9</ele>
        <time>2023-06-28T09:54:11Z</time>
      </trkpt>
      <trkpt lat="49.94719" lon="2.14229">
        <ele>15.9</ele>
        <time>2023-06-28T09:54:12Z</time>
      </trkpt>
      <trkpt lat="49.94719" lon="2.14229">
        <ele>15.9</ele>
        <time>2023-06-28T09:54:13Z</time>
      </trkpt>
      <trkpt lat="49.94719" lon="2.14229">
        <ele>15.9</ele>
        <time>2023-06-28T09:54:14Z</time>
      </trkpt>
      <trkpt lat="49.94719" lon="2.14229">
        <ele>15.9</ele>
        <time>2023-06-28T09:54:15Z</time>
      </trkpt>
      <trkpt lat="49.94719" lon="2.14229">
        <ele>15.9</ele>
        <time>2023-06-28T09:54:16Z</time>
      </trkpt>
      <trkpt lat="49.94719" lon="2.14229">
        <ele>15.9</ele>
        <time>2023-06-28T09:54:17Z</time>
      </trkpt>
      <trkpt lat="49.94719" lon="2.14229">
        <ele>15.9</ele>
        <time>2023-06-28T09:54:18Z</time>
      </trkpt>
      <trkpt lat="49.94719" lon="2.14229">
        <ele>15.9</ele>
        <time>2023-06-28T09:54:19Z</time>
      </trkpt>
      <trkpt lat="49.94719" lon="2.14229">
        <ele>15.9</ele>
        <time>2023-06-28T09:54:20Z</time>
      </trkpt>
      <trkpt lat="49.94719" lon="2.14229">
        <ele>15.9</ele>
        <time>2023-06-28T09:54:21Z</time>
      </trkpt>
      <trkpt lat="49.94719" lon="2.14229">
        <ele>15.9</ele>
        <time>2023-06-28T09:54:22Z</time>
      </trkpt>
      <trkpt lat="49.94719" lon="2.14229">
        <ele>15.9</ele>
        <time>2023-06-28T09:54:23Z</time>
      </trkpt>
      <trkpt lat="49.94719" lon="2.14229">
        <ele>15.9</ele>
        <time>2023-06-28T09:54:24Z</time>
      </trkpt>
      <trkpt lat="49.94719" lon="2.14229">
        <ele>15.9</ele>
        <time>2023-06-28T09:54:25Z</time>
      </trkpt>
      <trkpt lat="49.94719" lon="2.14229">
        <ele>15.9</ele>
        <time>2023-06-28T09:54:26Z</time>
      </trkpt>
      <trkpt lat="49.94719" lon="2.14229">
        <ele>15.9</ele>
        <time>2023-06-28T09:54:27Z</time>
      </trkpt>
      <trkpt lat="49.94719" lon="2.14229">
        <ele>15.9</ele>
        <time>2023-06-28T09:54:28Z</time>
      </trkpt>
      <trkpt lat="49.94719" lon="2.14229">
        <ele>15.9</ele>
        <time>2023-06-28T09:54:29Z</time>
      </trkpt>
      <trkpt lat="49.94719" lon="2.14229">
        <ele>15.9</ele>
        <time>2023-06-28T09:54:30Z</time>
      </trkpt>
      <trkpt lat="49.94719" lon="2.14229">
        <ele>15.9</ele>
        <time>2023-06-28T09:54:31Z</time>
      </trkpt>
      <trkpt lat="49.94719" lon="2.14229">
        <ele>15.9</ele>
        <time>2023-06-28T09:54:32Z</time>
      </trkpt>
      <trkpt lat="49.94719" lon="2.14229">
        <ele>15.9</ele>
        <time>2023-06-28T09:54:33Z</time>
      </trkpt>
      <trkpt lat="49.94719" lon="2.14229">
        <ele>15.9</ele>
        <time>2023-06-28T09:54:34Z</time>
      </trkpt>
      <trkpt lat="49.94719" lon="2.14229">
        <ele>15.9</ele>
        <time>2023-06-28T09:54:35Z</time>
      </trkpt>
      <trkpt lat="49.94719" lon="2.14229">
        <ele>15.9</ele>
        <time>2023-06-28T09:54:36Z</time>
      </trkpt>
      <trkpt lat="49.94719" lon="2.14229">
        <ele>15.9</ele>
        <time>2023-06-28T09:54:37Z</time>
      </trkpt>
      <trkpt lat="49.94719" lon="2.14229">
        <ele>15.9</ele>
        <time>2023-06-28T09:54:38Z</time>
      </trkpt>
      <trkpt lat="49.94719" lon="2.14229">
        <ele>15.9</ele>
        <time>2023-06-28T09:54:39Z</time>
      </trkpt>
      <trkpt lat="49.94719" lon="2.14229">
        <ele>15.9</ele>
        <time>2023-06-28T09:54:40Z</time>
      </trkpt>
      <trkpt lat="49.94719" lon="2.14229">
        <ele>15.9</ele>
        <time>2023-06-28T09:54:41Z</time>
      </trkpt>
      <trkpt lat="49.94719" lon="2.14229">
        <ele>15.9</ele>
        <time>2023-06-28T09:54:42Z</time>
      </trkpt>
      <trkpt lat="49.94719" lon="2.14229">
        <ele>15.9</ele>
        <time>2023-06-28T09:54:43Z</time>
      </trkpt>
      <trkpt lat="49.94719" lon="2.14229">
        <ele>15.9</ele>
        <time>2023-06-28T09:54:44Z</time>
      </trkpt>
      <trkpt lat="49.94719" lon="2.14229">
        <ele>15.9</ele>
        <time>2023-06-28T09:54:45Z</time>
      </trkpt>
      <trkpt lat="49.94719" lon="2.14229">
        <ele>15.9</ele>
        <time>2023-06-28T09:54:46Z</time>
      </trkpt>
      <trkpt lat="49.94719" lon="2.14229">
        <ele>15.9</ele>
        <time>2023-06-28T09:54:47Z</time>
      </trkpt>
      <trkpt lat="49.94719" lon="2.14229">
        <ele>15.9</ele>
        <time>2023-06-28T09:54:48Z</time>
      </trkpt>
      <trkpt lat="49.94719" lon="2.14229">
        <ele>15.9</ele>
        <time>2023-06-28T09:54:49Z</time>
      </trkpt>
      <trkpt lat="49.94719" lon="2.14229">
        <ele>15.9</ele>
        <time>2023-06-28T09:54:50Z</time>
      </trkpt>
      <trkpt lat="49.94719" lon="2.14229">
        <ele>15.9</ele>
        <time>2023-06-28T09:54:51Z</time>
      </trkpt>
      <trkpt lat="49.94719" lon="2.14229">
        <ele>15.9</ele>
        <time>2023-06-28T09:54:52Z</time>
      </trkpt>
      <trkpt lat="49.94719" lon="2.14229">
        <ele>15.9</ele>
        <time>2023-06-28T09:54:53Z</time>
      </trkpt>
      <trkpt lat="49.94719" lon="2.14229">
        <ele>15.9</ele>
        <time>2023-06-28T09:54:54Z</time>
      </trkpt>
      <trkpt lat="49.94719" lon="2.14229">
        <ele>15.9</ele>
        <time>2023-06-28T09:54:55Z</time>
      </trkpt>
      <trkpt lat="49.94719" lon="2.14229">
        <ele>15.9</ele>
        <time>2023-06-28T09:54:56Z</time>
      </trkpt>
      <trkpt lat="49.94719" lon="2.14229">
        <ele>15.9</ele>
        <time>2023-06-28T09:54:57Z</time>
      </trkpt>
      <trkpt lat="49.94719" lon="2.14229">
        <ele>15.9</ele>
        <time>2023-06-28T09:54:58Z</time>
      </trkpt>
      <trkpt lat="49.94719" lon="2.14229">
        <ele>15.9</ele>
        <time>2023-06-28T09:54:59Z</time>
      </trkpt>
      <trkpt lat="49.94719" lon="2.14229">
        <ele>15.9</ele>
        <time>2023-06-28T09:55:00Z</time>
      </trkpt>
      <trkpt lat="49.94719" lon="2.14229">
        <ele>15.9</ele>
        <time>2023-06-28T09:55:01Z</time>
      </trkpt>
      <trkpt lat="49.94719" lon="2.14229">
        <ele>15.9</ele>
        <time>2023-06-28T09:55:02Z</time>
      </trkpt>
      <trkpt lat="49.94719" lon="2.14229">
        <ele>15.9</ele>
        <time>2023-06-28T09:55:03Z</time>
      </trkpt>
      <trkpt lat="49.94719" lon="2.14229">
        <ele>15.9</ele>
        <time>2023-06-28T09:55:04Z</time>
      </trkpt>
      <trkpt lat="49.94719" lon="2.14229">
        <ele>15.9</ele>
        <time>2023-06-28T09:55:05Z</time>
      </trkpt>
      <trkpt lat="49.94719" lon="2.14229">
        <ele>15.9</ele>
        <time>2023-06-28T09:55:06Z</time>
      </trkpt>
      <trkpt lat="49.94719" lon="2.14229">
        <ele>15.9</ele>
        <time>2023-06-28T09:55:07Z</time>
      </trkpt>
      <trkpt lat="49.94719" lon="2.14229">
        <ele>15.9</ele>
        <time>2023-06-28T09:55:08Z</time>
      </trkpt>
      <trkpt lat="49.94719" lon="2.14229">
        <ele>15.9</ele>
        <time>2023-06-28T09:55:09Z</time>
      </trkpt>
      <trkpt lat="49.94719" lon="2.14229">
        <ele>15.9</ele>
        <time>2023-06-28T09:55:10Z</time>
      </trkpt>
      <trkpt lat="49.94719" lon="2.14229">
        <ele>15.9</ele>
        <time>2023-06-28T09:55:11Z</time>
      </trkpt>
      <trkpt lat="49.94719" lon="2.14229">
        <ele>15.9</ele>
        <time>2023-06-28T09:55:12Z</time>
      </trkpt>
      <trkpt lat="49.94719" lon="2.14229">
        <ele>15.9</ele>
        <time>2023-06-28T09:55:13Z</time>
      </trkpt>
      <trkpt lat="49.94719" lon="2.14229">
        <ele>15.9</ele>
        <time>2023-06-28T09:55:14Z</time>
      </trkpt>
      <trkpt lat="49.94719" lon="2.14229">
        <ele>15.9</ele>
        <time>2023-06-28T09:55:15Z</time>
      </trkpt>
      <trkpt lat="49.94719" lon="2.14229">
        <ele>15.9</ele>
        <time>2023-06-28T09:55:16Z</time>
      </trkpt>
      <trkpt lat="49.94719" lon="2.14229">
        <ele>15.9</ele>
        <time>2023-06-28T09:55:17Z</time>
      </trkpt>
      <trkpt lat="49.94719" lon="2.14229">
        <ele>15.9</ele>
        <time>2023-06-28T09:55:18Z</time>
      </trkpt>
      <trkpt lat="49.94719" lon="2.14229">
        <ele>15.9</ele>
        <time>2023-06-28T09:55:19Z</time>
      </trkpt>
      <trkpt lat="49.94719" lon="2.14229">
        <ele>15.9</ele>
        <time>2023-06-28T09:55:20Z</time>
      </trkpt>
      <trkpt lat="49.94719" lon="2.14229">
        <ele>15.9</ele>
        <time>2023-06-28T09:55:21Z</time>
      </trkpt>
      <trkpt lat="49.94719" lon="2.14229">
        <ele>15.9</ele>
        <time>2023-06-28T09:55:22Z</time>
      </trkpt>
      <trkpt lat="49.94719" lon="2.14229">
        <ele>15.9</ele>
        <time>2023-06-28T09:55:23Z</time>
      </trkpt>
      <trkpt lat="49.94719" lon="2.14229">
        <ele>15.9</ele>
        <time>2023-06-28T09:55:24Z</time>
      </trkpt>
      <trkpt lat="49.94719" lon="2.14229">
        <ele>15.9</ele>
        <time>2023-06-28T09:55:25Z</time>
      </trkpt>
      <trkpt lat="49.94719" lon="2.14229">
        <ele>15.9</ele>
        <time>2023-06-28T09:55:26Z</time>
      </trkpt>
      <trkpt lat="49.94719" lon="2.14229">
        <ele>15.9</ele>
        <time>2023-06-28T09:55:27Z</time>
      </trkpt>
      <trkpt lat="49.94719" lon="2.14229">
        <ele>15.9</ele>
        <time>2023-06-28T09:55:28Z</time>
      </trkpt>
      <trkpt lat="49.94719" lon="2.14229">
        <ele>15.9</ele>
        <time>2023-06-28T09:55:29Z</time>
      </trkpt>
      <trkpt lat="49.94719" lon="2.14229">
        <ele>15.9</ele>
        <time>2023-06-28T09:55:30Z</time>
      </trkpt>
      <trkpt lat="49.94719" lon="2.14229">
        <ele>15.9</ele>
        <time>2023-06-28T09:55:31Z</time>
      </trkpt>
      <trkpt lat="49.94719" lon="2.14229">
        <ele>15.9</ele>
        <time>2023-06-28T09:55:32Z</time>
      </trkpt>
      <trkpt lat="49.94719" lon="2.14229">
        <ele>15.9</ele>
        <time>2023-06-28T09:55:33Z</time>
      </trkpt>
      <trkpt lat="49.94719" lon="2.14229">
        <ele>15.9</ele>
        <time>2023-06-28T09:55:34Z</time>
      </trkpt>
      <trkpt lat="49.94719" lon="2.14229">
        <ele>15.9</ele>
        <time>2023-06-28T09:55:35Z</time>
      </trkpt>
      <trkpt lat="49.94719" lon="2.14229">
        <ele>15.9</ele>
        <time>2023-06-28T09:55:36Z</time>
      </trkpt>
      <trkpt lat="49.94719" lon="2.14229">
        <ele>15.9</ele>
        <time>2023-06-28T09:55:37Z</time>
      </trkpt>
      <trkpt lat="49.94719" lon="2.14229">
        <ele>15.9</ele>
        <time>2023-06-28T09:55:38Z</time>
      </trkpt>
      <trkpt lat="49.94719" lon="2.14229">
        <ele>15.9</ele>
        <time>2023-06-28T09:55:39Z</time>
      </trkpt>
      <trkpt lat="49.94719" lon="2.14229">
        <ele>15.9</ele>
        <time>2023-06-28T09:55:40Z</time>
      </trkpt>
      <trkpt lat="49.94719" lon="2.14229">
        <ele>15.9</ele>
        <time>2023-06-28T09:55:41Z</time>
      </trkpt>
      <trkpt lat="49.94719" lon="2.14229">
        <ele>15.9</ele>
        <time>2023-06-28T09:55:42Z</time>
      </trkpt>
      <trkpt lat="49.94719" lon="2.14229">
        <ele>15.9</ele>
        <time>2023-06-28T09:55:43Z</time>
      </trkpt>
      <trkpt lat="49.94719" lon="2.14229">
        <ele>15.9</ele>
        <time>2023-06-28T09:55:44Z</time>
      </trkpt>
      <trkpt lat="49.94719" lon="2.14229">
        <ele>15.9</ele>
        <time>2023-06-28T09:55:45Z</time>
      </trkpt>
      <trkpt lat="49.94719" lon="2.14229">
        <ele>15.9</ele>
        <time>2023-06-28T09:55:46Z</time>
      </trkpt>
      <trkpt lat="49.94719" lon="2.14229">
        <ele>15.9</ele>
        <time>2023-06-28T09:55:47Z</time>
      </trkpt>
      <trkpt lat="49.94719" lon="2.14229">
        <ele>15.9</ele>
        <time>2023-06-28T09:55:48Z</time>
      </trkpt>
      <trkpt lat="49.94719" lon="2.14229">
        <ele>15.9</ele>
        <time>2023-06-28T09:55:49Z</time>
      </trkpt>
      <trkpt lat="49.94719" lon="2.14229">
        <ele>15.9</ele>
        <time>2023-06-28T09:55:50Z</time>
      </trkpt>
      <trkpt lat="49.94719" lon="2.14229">
        <ele>15.9</ele>
        <time>2023-06-28T09:55:51Z</time>
      </trkpt>
      <trkpt lat="49.94719" lon="2.14229">
        <ele>15.9</ele>
        <time>2023-06-28T09:55:52Z</time>
      </trkpt>
      <trkpt lat="49.94719" lon="2.14229">
        <ele>15.9</ele>
        <time>2023-06-28T09:55:53Z</time>
      </trkpt>
      <trkpt lat="49.94719" lon="2.14229">
        <ele>15.9</ele>
        <time>2023-06-28T09:55:54Z</time>
      </trkpt>
      <trkpt lat="49.94719" lon="2.14229">
        <ele>15.9</ele>
        <time>2023-06-28T09:55:55Z</time>
      </trkpt>
      <trkpt lat="49.94719" lon="2.14229">
        <ele>15.9</ele>
        <time>2023-06-28T09:55:56Z</time>
      </trkpt>
      <trkpt lat="49.94719" lon="2.14229">
        <ele>15.9</ele>
        <time>2023-06-28T09:55:57Z</time>
      </trkpt>
      <trkpt lat="49.94719" lon="2.14229">
        <ele>15.9</ele>
        <time>2023-06-28T09:55:58Z</time>
      </trkpt>
      <trkpt lat="49.94719" lon="2.14229">
        <ele>15.9</ele>
        <time>2023-06-28T09:55:59Z</time>
      </trkpt>
      <trkpt lat="49.94719" lon="2.14229">
        <ele>15.9</ele>
        <time>2023-06-28T09:56:00Z</time>
      </trkpt>
      <trkpt lat="49.94719" lon="2.14229">
        <ele>15.9</ele>
        <time>2023-06-28T09:56:01Z</time>
      </trkpt>
      <trkpt lat="49.94719" lon="2.14229">
        <ele>15.9</ele>
        <time>2023-06-28T09:56:02Z</time>
      </trkpt>
      <trkpt lat="49.94719" lon="2.14229">
        <ele>15.9</ele>
        <time>2023-06-28T09:56:03Z</time>
      </trkpt>
      <trkpt lat="49.94719" lon="2.14229">
        <ele>15.9</ele>
        <time>2023-06-28T09:56:04Z</time>
      </trkpt>
      <trkpt lat="49.94719" lon="2.14229">
        <ele>15.9</ele>
        <time>2023-06-28T09:56:05Z</time>
      </trkpt>
      <trkpt lat="49.94719" lon="2.14229">
        <ele>15.9</ele>
        <time>2023-06-28T09:56:06Z</time>
      </trkpt>
      <trkpt lat="49.94719" lon="2.14229">
        <ele>15.9</ele>
        <time>2023-06-28T09:56:07Z</time>
      </trkpt>
      <trkpt lat="49.94719" lon="2.14229">
        <ele>15.9</ele>
        <time>2023-06-28T09:56:08Z</time>
      </trkpt>
      <trkpt lat="49.94719" lon="2.14229">
        <ele>15.9</ele>
        <time>2023-06-28T09:56:09Z</time>
      </trkpt>
      <trkpt lat="49.94719" lon="2.14229">
        <ele>15.9</ele>
        <time>2023-06-28T09:56:10Z</time>
      </trkpt>
      <trkpt lat="49.94719" lon="2.14229">
        <ele>15.9</ele>
        <time>2023-06-28T09:56:11Z</time>
      </trkpt>
      <trkpt lat="49.94719" lon="2.14229">
        <ele>15.9</ele>
        <time>2023-06-28T09:56:12Z</time>
      </trkpt>
      <trkpt lat="49.94719" lon="2.14229">
        <ele>15.9</ele>
        <time>2023-06-28T09:56:13Z</time>
      </trkpt>
      <trkpt lat="49.94719" lon="2.14229">
        <ele>15.9</ele>
        <time>2023-06-28T09:56:14Z</time>
      </trkpt>
      <trkpt lat="49.94719" lon="2.14229">
        <ele>15.9</ele>
        <time>2023-06-28T09:56:15Z</time>
      </trkpt>
      <trkpt lat="49.94719" lon="2.14229">
        <ele>15.9</ele>
        <time>2023-06-28T09:56:16Z</time>
      </trkpt>
      <trkpt lat="49.94719" lon="2.14229">
        <ele>15.9</ele>
        <time>2023-06-28T09:56:17Z</time>
      </trkpt>
      <trkpt lat="49.94719" lon="2.14229">
        <ele>15.9</ele>
        <time>2023-06-28T09:56:18Z</time>
      </trkpt>
      <trkpt lat="49.94719" lon="2.14229">
        <ele>15.9</ele>
        <time>2023-06-28T09:56:19Z</time>
      </trkpt>
      <trkpt lat="49.94719" lon="2.14229">
        <ele>15.9</ele>
        <time>2023-06-28T09:56:20Z</time>
      </trkpt>
      <trkpt lat="49.94719" lon="2.14229">
        <ele>15.9</ele>
        <time>2023-06-28T09:56:21Z</time>
      </trkpt>
      <trkpt lat="49.94719" lon="2.14229">
        <ele>15.9</ele>
        <time>2023-06-28T09:56:22Z</time>
      </trkpt>
      <trkpt lat="49.94719" lon="2.14229">
        <ele>15.9</ele>
        <time>2023-06-28T09:56:23Z</time>
      </trkpt>
      <trkpt lat="49.94719" lon="2.14229">
        <ele>15.9</ele>
        <time>2023-06-28T09:56:24Z</time>
      </trkpt>
      <trkpt lat="49.94719" lon="2.14229">
        <ele>15.9</ele>
        <time>2023-06-28T09:56:25Z</time>
      </trkpt>
      <trkpt lat="49.94719" lon="2.14229">
        <ele>15.9</ele>
        <time>2023-06-28T09:56:26Z</time>
      </trkpt>
      <trkpt lat="49.94719" lon="2.14229">
        <ele>15.9</ele>
        <time>2023-06-28T09:56:27Z</time>
      </trkpt>
      <trkpt lat="49.94719" lon="2.14229">
        <ele>15.9</ele>
        <time>2023-06-28T09:56:28Z</time>
      </trkpt>
      <trkpt lat="49.94719" lon="2.14229">
        <ele>15.9</ele>
        <time>2023-06-28T09:56:29Z</time>
      </trkpt>
      <trkpt lat="49.94719" lon="2.14229">
        <ele>15.9</ele>
        <time>2023-06-28T09:56:30Z</time>
      </trkpt>
      <trkpt lat="49.94719" lon="2.14229">
        <ele>15.9</ele>
        <time>2023-06-28T09:56:31Z</time>
      </trkpt>
      <trkpt lat="49.94719" lon="2.14229">
        <ele>15.9</ele>
        <time>2023-06-28T09:56:32Z</time>
      </trkpt>
      <trkpt lat="49.94719" lon="2.14229">
        <ele>15.9</ele>
        <time>2023-06-28T09:56:33Z</time>
      </trkpt>
      <trkpt lat="49.94719" lon="2.14229">
        <ele>15.9</ele>
        <time>2023-06-28T09:56:34Z</time>
      </trkpt>
      <trkpt lat="49.94719" lon="2.14229">
        <ele>15.9</ele>
        <time>2023-06-28T09:56:35Z</time>
      </trkpt>
      <trkpt lat="49.94719" lon="2.14229">
        <ele>15.9</ele>
        <time>2023-06-28T09:56:36Z</time>
      </trkpt>
      <trkpt lat="49.94719" lon="2.14229">
        <ele>15.9</ele>
        <time>2023-06-28T09:56:37Z</time>
      </trkpt>
      <trkpt lat="49.94719" lon="2.14229">
        <ele>15.9</ele>
        <time>2023-06-28T09:56:38Z</time>
      </trkpt>
      <trkpt lat="49.94719" lon="2.14229">
        <ele>15.9</ele>
        <time>2023-06-28T09:56:39Z</time>
      </trkpt>
      <trkpt lat="49.94719" lon="2.14229">
        <ele>15.9</ele>
        <time>2023-06-28T09:56:40Z</time>
      </trkpt>
      <trkpt lat="49.94719" lon="2.14229">
        <ele>15.9</ele>
        <time>2023-06-28T09:56:41Z</time>
      </trkpt>
      <trkpt lat="49.94719" lon="2.14229">
        <ele>15.9</ele>
        <time>2023-06-28T09:56:42Z</time>
      </trkpt>
      <trkpt lat="49.94719" lon="2.14229">
        <ele>15.9</ele>
        <time>2023-06-28T09:56:43Z</time>
      </trkpt>
      <trkpt lat="49.94719" lon="2.14229">
        <ele>15.9</ele>
        <time>2023-06-28T09:56:44Z</time>
      </trkpt>
      <trkpt lat="49.94719" lon="2.14229">
        <ele>15.9</ele>
        <time>2023-06-28T09:56:45Z</time>
      </trkpt>
      <trkpt lat="49.94719" lon="2.14229">
        <ele>15.9</ele>
        <time>2023-06-28T09:56:46Z</time>
      </trkpt>
      <trkpt lat="49.94719" lon="2.14229">
        <ele>15.9</ele>
        <time>2023-06-28T09:56:47Z</time>
      </trkpt>
      <trkpt lat="49.94719" lon="2.14229">
        <ele>15.9</ele>
        <time>2023-06-28T09:56:48Z</time>
      </trkpt>
      <trkpt lat="49.94719" lon="2.14229">
        <ele>15.9</ele>
        <time>2023-06-28T09:56:49Z</time>
      </trkpt>
      <trkpt lat="49.94719" lon="2.14229">
        <ele>15.9</ele>
        <time>2023-06-28T09:56:50Z</time>
      </trkpt>
      <trkpt lat="49.94719" lon="2.14229">
        <ele>15.9</ele>
        <time>2023-06-28T09:56:51Z</time>
      </trkpt>
      <trkpt lat="49.94719" lon="2.14229">
        <ele>15.9</ele>
        <time>2023-06-28T09:56:52Z</time>
      </trkpt>
      <trkpt lat="49.94719" lon="2.14229">
        <ele>15.9</ele>
        <time>2023-06-28T09:56:53Z</time>
      </trkpt>
      <trkpt lat="49.94719" lon="2.14229">
        <ele>15.9</ele>
        <time>2023-06-28T09:56:54Z</time>
      </trkpt>
      <trkpt lat="49.94719" lon="2.14229">
        <ele>15.9</ele>
        <time>2023-06-28T09:56:55Z</time>
      </trkpt>
      <trkpt lat="49.94719" lon="2.14229">
        <ele>15.9</ele>
        <time>2023-06-28T09:56:56Z</time>
      </trkpt>
      <trkpt lat="49.94719" lon="2.14229">
        <ele>15.9</ele>
        <time>2023-06-28T09:56:57Z</time>
      </trkpt>
      <trkpt lat="49.94719" lon="2.14229">
        <ele>15.9</ele>
        <time>2023-06-28T09:56:58Z</time>
      </trkpt>
      <trkpt lat="49.94719" lon="2.14229">
        <ele>15.9</ele>
        <time>2023-06-28T09:56:59Z</time>
      </trkpt>
      <trkpt lat="49.94719" lon="2.14229">
        <ele>15.9</ele>
        <time>2023-06-28T09:57:00Z</time>
      </trkpt>
      <trkpt lat="49.94719" lon="2.14229">
        <ele>15.9</ele>
        <time>2023-06-28T09:57:01Z</time>
      </trkpt>
      <trkpt lat="49.94719" lon="2.14229">
        <ele>15.9</ele>
        <time>2023-06-28T09:57:02Z</time>
      </trkpt>
      <trkpt lat="49.94719" lon="2.14229">
        <ele>15.9</ele>
        <time>2023-06-28T09:57:03Z</time>
      </trkpt>
      <trkpt lat="49.94719" lon="2.14229">
        <ele>15.9</ele>
        <time>2023-06-28T09:57:04Z</time>
      </trkpt>
      <trkpt lat="49.94719" lon="2.14229">
        <ele>15.9</ele>
        <time>2023-06-28T09:57:05Z</time>
      </trkpt>
      <trkpt lat="49.94719" lon="2.14229">
        <ele>15.9</ele>
        <time>2023-06-28T09:57:06Z</time>
      </trkpt>
      <trkpt lat="49.94719" lon="2.14229">
        <ele>15.9</ele>
        <time>2023-06-28T09:57:07Z</time>
      </trkpt>
      <trkpt lat="49.94719" lon="2.14229">
        <ele>15.9</ele>
        <time>2023-06-28T09:57:08Z</time>
      </trkpt>
      <trkpt lat="49.94719" lon="2.14229">
        <ele>15.9</ele>
        <time>2023-06-28T09:57:09Z</time>
      </trkpt>
      <trkpt lat="49.94719" lon="2.14229">
        <ele>15.9</ele>
        <time>2023-06-28T09:57:10Z</time>
      </trkpt>
      <trkpt lat="49.94719" lon="2.14229">
        <ele>15.9</ele>
        <time>2023-06-28T09:57:11Z</time>
      </trkpt>
      <trkpt lat="49.94719" lon="2.14229">
        <ele>15.9</ele>
        <time>2023-06-28T09:57:12Z</time>
      </trkpt>
      <trkpt lat="49.94719" lon="2.14229">
        <ele>15.9</ele>
        <time>2023-06-28T09:57:13Z</time>
      </trkpt>
      <trkpt lat="49.94719" lon="2.14229">
        <ele>15.9</ele>
        <time>2023-06-28T09:57:14Z</time>
      </trkpt>
      <trkpt lat="49.94719" lon="2.14229">
        <ele>15.9</ele>
        <time>2023-06-28T09:57:15Z</time>
      </trkpt>
      <trkpt lat="49.94719" lon="2.14229">
        <ele>15.9</ele>
        <time>2023-06-28T09:57:16Z</time>
      </trkpt>
      <trkpt lat="49.94719" lon="2.14229">
        <ele>15.9</ele>
        <time>2023-06-28T09:57:17Z</time>
      </trkpt>
      <trkpt lat="49.94719" lon="2.14229">
        <ele>15.9</ele>
        <time>2023-06-28T09:57:18Z</time>
      </trkpt>
      <trkpt lat="49.94719" lon="2.14229">
        <ele>15.9</ele>
        <time>2023-06-28T09:57:19Z</time>
      </trkpt>
      <trkpt lat="49.94719" lon="2.14229">
        <ele>15.9</ele>
        <time>2023-06-28T09:57:20Z</time>
      </trkpt>
      <trkpt lat="49.94719" lon="2.14229">
        <ele>15.9</ele>
        <time>2023-06-28T09:57:21Z</time>
      </trkpt>
      <trkpt lat="49.94719" lon="2.14229">
        <ele>15.9</ele>
        <time>2023-06-28T09:57:22Z</time>
      </trkpt>
      <trkpt lat="49.94719" lon="2.14229">
        <ele>15.9</ele>
        <time>2023-06-28T09:57:23Z</time>
      </trkpt>
      <trkpt lat="49.94719" lon="2.14229">
        <ele>15.9</ele>
        <time>2023-06-28T09:57:24Z</time>
      </trkpt>
      <trkpt lat="49.94719" lon="2.14229">
        <ele>15.9</ele>
        <time>2023-06-28T09:57:25Z</time>
      </trkpt>
      <trkpt lat="49.94719" lon="2.14229">
        <ele>15.9</ele>
        <time>2023-06-28T09:57:26Z</time>
      </trkpt>
      <trkpt lat="49.94719" lon="2.14229">
        <ele>15.9</ele>
        <time>2023-06-28T09:57:27Z</time>
      </trkpt>
      <trkpt lat="49.94719" lon="2.14229">
        <ele>15.9</ele>
        <time>2023-06-28T09:57:28Z</time>
      </trkpt>
      <trkpt lat="49.94719" lon="2.14229">
        <ele>15.9</ele>
        <time>2023-06-28T09:57:29Z</time>
      </trkpt>
      <trkpt lat="49.94719" lon="2.14229">
        <ele>15.9</ele>
        <time>2023-06-28T09:57:30Z</time>
      </trkpt>
      <trkpt lat="49.94719" lon="2.14229">
        <ele>15.9</ele>
        <time>2023-06-28T09:57:31Z</time>
      </trkpt>
      <trkpt lat="49.94719" lon="2.14229">
        <ele>15.9</ele>
        <time>2023-06-28T09:57:32Z</time>
      </trkpt>
      <trkpt lat="49.94719" lon="2.14229">
        <ele>15.9</ele>
        <time>2023-06-28T09:57:33Z</time>
      </trkpt>
      <trkpt lat="49.94719" lon="2.14229">
        <ele>15.9</ele>
        <time>2023-06-28T09:57:34Z</time>
      </trkpt>
      <trkpt lat="49.94719" lon="2.14229">
        <ele>15.9</ele>
        <time>2023-06-28T09:57:35Z</time>
      </trkpt>
      <trkpt lat="49.94719" lon="2.14229">
        <ele>15.9</ele>
        <time>2023-06-28T09:57:36Z</time>
      </trkpt>
      <trkpt lat="49.94719" lon="2.14229">
        <ele>15.9</ele>
        <time>2023-06-28T09:57:37Z</time>
      </trkpt>
      <trkpt lat="49.94719" lon="2.14229">
        <ele>15.9</ele>
        <time>2023-06-28T09:57:38Z</time>
      </trkpt>
      <trkpt lat="49.94719" lon="2.14229">
        <ele>15.9</ele>
        <time>2023-06-28T09:57:39Z</time>
      </trkpt>
      <trkpt lat="49.94719" lon="2.14229">
        <ele>15.9</ele>
        <time>2023-06-28T09:57:40Z</time>
      </trkpt>
      <trkpt lat="49.94719" lon="2.14229">
        <ele>15.9</ele>
        <time>2023-06-28T09:57:41Z</time>
      </trkpt>
      <trkpt lat="49.94719" lon="2.14229">
        <ele>15.9</ele>
        <time>2023-06-28T09:57:42Z</time>
      </trkpt>
      <trkpt lat="49.94719" lon="2.14229">
        <ele>15.9</ele>
        <time>2023-06-28T09:57:43Z</time>
      </trkpt>
      <trkpt lat="49.94719" lon="2.14229">
        <ele>15.9</ele>
        <time>2023-06-28T09:57:44Z</time>
      </trkpt>
      <trkpt lat="49.94719" lon="2.14229">
        <ele>15.9</ele>
        <time>2023-06-28T09:57:45Z</time>
      </trkpt>
      <trkpt lat="49.94719" lon="2.14229">
        <ele>15.9</ele>
        <time>2023-06-28T09:57:46Z</time>
      </trkpt>
      <trkpt lat="49.94719" lon="2.14229">
        <ele>15.9</ele>
        <time>2023-06-28T09:57:47Z</time>
      </trkpt>
      <trkpt lat="49.94719" lon="2.14229">
        <ele>15.9</ele>
        <time>2023-06-28T09:57:48Z</time>
      </trkpt>
      <trkpt lat="49.94719" lon="2.14229">
        <ele>15.9</ele>
        <time>2023-06-28T09:57:49Z</time>
      </trkpt>
      <trkpt lat="49.94719" lon="2.14229">
        <ele>15.9</ele>
        <time>2023-06-28T09:57:50Z</time>
      </trkpt>
      <trkpt lat="49.94719" lon="2.14229">
        <ele>15.9</ele>
        <time>2023-06-28T09:57:51Z</time>
      </trkpt>
      <trkpt lat="49.94719" lon="2.14229">
        <ele>15.9</ele>
        <time>2023-06-28T09:57:52Z</time>
      </trkpt>
      <trkpt lat="49.94719" lon="2.14229">
        <ele>15.9</ele>
        <time>2023-06-28T09:57:53Z</time>
      </trkpt>
      <trkpt lat="49.94719" lon="2.14229">
        <ele>15.9</ele>
        <time>2023-06-28T09:57:54Z</time>
      </trkpt>
      <trkpt lat="49.94719" lon="2.14229">
        <ele>15.9</ele>
        <time>2023-06-28T09:57:55Z</time>
      </trkpt>
      <trkpt lat="49.94719" lon="2.14229">
        <ele>15.9</ele>
        <time>2023-06-28T09:57:56Z</time>
      </trkpt>
      <trkpt lat="49.94719" lon="2.14229">
        <ele>15.9</ele>
        <time>2023-06-28T09:57:57Z</time>
      </trkpt>
      <trkpt lat="49.94719" lon="2.14229">
        <ele>15.9</ele>
        <time>2023-06-28T09:57:58Z</time>
      </trkpt>
      <trkpt lat="49.94719" lon="2.14229">
        <ele>15.9</ele>
        <time>2023-06-28T09:57:59Z</time>
      </trkpt>
      <trkpt lat="49.94719" lon="2.14229">
        <ele>15.9</ele>
        <time>2023-06-28T09:58:00Z</time>
      </trkpt>
      <trkpt lat="49.94719" lon="2.14229">
        <ele>15.9</ele>
        <time>2023-06-28T09:58:01Z</time>
      </trkpt>
      <trkpt lat="49.94719" lon="2.14229">
        <ele>15.9</ele>
        <time>2023-06-28T09:58:02Z</time>
      </trkpt>
      <trkpt lat="49.94719" lon="2.14229">
        <ele>15.9</ele>
        <time>2023-06-28T09:58:03Z</time>
      </trkpt>
      <trkpt lat="49.94719" lon="2.14229">
        <ele>15.9</ele>
        <time>2023-06-28T09:58:04Z</time>
      </trkpt>
      <trkpt lat="49.94719" lon="2.14229">
        <ele>15.9</ele>
        <time>2023-06-28T09:58:05Z</time>
      </trkpt>
      <trkpt lat="49.94719" lon="2.14229">
        <ele>15.9</ele>
        <time>2023-06-28T09:58:06Z</time>
      </trkpt>
      <trkpt lat="49.94719" lon="2.14229">
        <ele>15.9</ele>
        <time>2023-06-28T09:58:07Z</time>
      </trkpt>
      <trkpt lat="49.94719" lon="2.14229">
        <ele>15.9</ele>
        <time>2023-06-28T09:58:08Z</time>
      </trkpt>
      <trkpt lat="49.94719" lon="2.14229">
        <ele>15.9</ele>
        <time>2023-06-28T09:58:09Z</time>
      </trkpt>
      <trkpt lat="49.94719" lon="2.14229">
        <ele>15.9</ele>
        <time>2023-06-28T09:58:10Z</time>
      </trkpt>
      <trkpt lat="49.94719" lon="2.14229">
        <ele>15.9</ele>
        <time>2023-06-28T09:58:11Z</time>
      </trkpt>
      <trkpt lat="49.94719" lon="2.14229">
        <ele>15.9</ele>
        <time>2023-06-28T09:58:12Z</time>
      </trkpt>
      <trkpt lat="49.94719" lon="2.14229">
        <ele>15.9</ele>
        <time>2023-06-28T09:58:13Z</time>
      </trkpt>
      <trkpt lat="49.94719" lon="2.14229">
        <ele>15.9</ele>
        <time>2023-06-28T09:58:14Z</time>
      </trkpt>
      <trkpt lat="49.94719" lon="2.14229">
        <ele>15.9</ele>
        <time>2023-06-28T09:58:15Z</time>
      </trkpt>
      <trkpt lat="49.94719" lon="2.14229">
        <ele>15.9</ele>
        <time>2023-06-28T09:58:16Z</time>
      </trkpt>
      <trkpt lat="49.94719" lon="2.14229">
        <ele>15.9</ele>
        <time>2023-06-28T09:58:17Z</time>
      </trkpt>
      <trkpt lat="49.94719" lon="2.14229">
        <ele>15.9</ele>
        <time>2023-06-28T09:58:18Z</time>
      </trkpt>
      <trkpt lat="49.94719" lon="2.14229">
        <ele>15.9</ele>
        <time>2023-06-28T09:58:19Z</time>
      </trkpt>
      <trkpt lat="49.94719" lon="2.14229">
        <ele>15.9</ele>
        <time>2023-06-28T09:58:20Z</time>
      </trkpt>
      <trkpt lat="49.94719" lon="2.14229">
        <ele>15.9</ele>
        <time>2023-06-28T09:58:21Z</time>
      </trkpt>
      <trkpt lat="49.94719" lon="2.14229">
        <ele>15.9</ele>
        <time>2023-06-28T09:58:22Z</time>
      </trkpt>
      <trkpt lat="49.94719" lon="2.14229">
        <ele>15.9</ele>
        <time>2023-06-28T09:58:23Z</time>
      </trkpt>
      <trkpt lat="49.94719" lon="2.14229">
        <ele>15.9</ele>
        <time>2023-06-28T09:58:24Z</time>
      </trkpt>
      <trkpt lat="49.94719" lon="2.14229">
        <ele>15.9</ele>
        <time>2023-06-28T09:58:25Z</time>
      </trkpt>
      <trkpt lat="49.94719" lon="2.14229">
        <ele>15.9</ele>
        <time>2023-06-28T09:58:26Z</time>
      </trkpt>
      <trkpt lat="49.94719" lon="2.14229">
        <ele>15.9</ele>
        <time>2023-06-28T09:58:27Z</time>
      </trkpt>
      <trkpt lat="49.94719" lon="2.14229">
        <ele>15.9</ele>
        <time>2023-06-28T09:58:28Z</time>
      </trkpt>
      <trkpt lat="49.94719" lon="2.14229">
        <ele>15.9</ele>
        <time>2023-06-28T09:58:29Z</time>
      </trkpt>
      <trkpt lat="49.94719" lon="2.14229">
        <ele>15.9</ele>
        <time>2023-06-28T09:58:30Z</time>
      </trkpt>
      <trkpt lat="49.94719" lon="2.14229">
        <ele>15.9</ele>
        <time>2023-06-28T09:58:31Z</time>
      </trkpt>
      <trkpt lat="49.94719" lon="2.14229">
        <ele>15.9</ele>
        <time>2023-06-28T09:58:32Z</time>
      </trkpt>
      <trkpt lat="49.94719" lon="2.14229">
        <ele>15.9</ele>
        <time>2023-06-28T09:58:33Z</time>
      </trkpt>
      <trkpt lat="49.94719" lon="2.14229">
        <ele>15.9</ele>
        <time>2023-06-28T09:58:34Z</time>
      </trkpt>
      <trkpt lat="49.94719" lon="2.14229">
        <ele>15.9</ele>
        <time>2023-06-28T09:58:35Z</time>
      </trkpt>
      <trkpt lat="49.94719" lon="2.14229">
        <ele>15.9</ele>
        <time>2023-06-28T09:58:36Z</time>
      </trkpt>
      <trkpt lat="49.94719" lon="2.14229">
        <ele>15.9</ele>
        <time>2023-06-28T09:58:37Z</time>
      </trkpt>
      <trkpt lat="49.94719" lon="2.14229">
        <ele>15.9</ele>
        <time>2023-06-28T09:58:38Z</time>
      </trkpt>
      <trkpt lat="49.94719" lon="2.14229">
        <ele>15.9</ele>
        <time>2023-06-28T09:58:39Z</time>
      </trkpt>
      <trkpt lat="49.94719" lon="2.14229">
        <ele>15.9</ele>
        <time>2023-06-28T09:58:40Z</time>
      </trkpt>
      <trkpt lat="49.94719" lon="2.14229">
        <ele>15.9</ele>
        <time>2023-06-28T09:58:41Z</time>
      </trkpt>
      <trkpt lat="49.94719" lon="2.14229">
        <ele>15.9</ele>
        <time>2023-06-28T09:58:42Z</time>
      </trkpt>
      <trkpt lat="49.94719" lon="2.14229">
        <ele>15.9</ele>
        <time>2023-06-28T09:58:43Z</time>
      </trkpt>
      <trkpt lat="49.94719" lon="2.14229">
        <ele>15.9</ele>
        <time>2023-06-28T09:58:44Z</time>
      </trkpt>
      <trkpt lat="49.94719" lon="2.14229">
        <ele>15.9</ele>
        <time>2023-06-28T09:58:45Z</time>
      </trkpt>
      <trkpt lat="49.94719" lon="2.14229">
        <ele>15.9</ele>
        <time>2023-06-28T09:58:46Z</time>
      </trkpt>
      <trkpt lat="49.94719" lon="2.14229">
        <ele>15.9</ele>
        <time>2023-06-28T09:58:47Z</time>
      </trkpt>
      <trkpt lat="49.94719" lon="2.14229">
        <ele>15.9</ele>
        <time>2023-06-28T09:58:48Z</time>
      </trkpt>
      <trkpt lat="49.94719" lon="2.14229">
        <ele>15.9</ele>
        <time>2023-06-28T09:58:49Z</time>
      </trkpt>
      <trkpt lat="49.94719" lon="2.14229">
        <ele>15.9</ele>
        <time>2023-06-28T09:58:50Z</time>
      </trkpt>
      <trkpt lat="49.94719" lon="2.14229">
        <ele>15.9</ele>
        <time>2023-06-28T09:58:51Z</time>
      </trkpt>
      <trkpt lat="49.94719" lon="2.14229">
        <ele>15.9</ele>
        <time>2023-06-28T09:58:52Z</time>
      </trkpt>
      <trkpt lat="49.94719" lon="2.14229">
        <ele>15.9</ele>
        <time>2023-06-28T09:58:53Z</time>
      </trkpt>
      <trkpt lat="49.94719" lon="2.14229">
        <ele>15.9</ele>
        <time>2023-06-28T09:58:54Z</time>
      </trkpt>
      <trkpt lat="49.94719" lon="2.14229">
        <ele>15.9</ele>
        <time>2023-06-28T09:58:55Z</time>
      </trkpt>
      <trkpt lat="49.94719" lon="2.14229">
        <ele>15.9</ele>
        <time>2023-06-28T09:58:56Z</time>
      </trkpt>
      <trkpt lat="49.94719" lon="2.14229">
        <ele>15.9</ele>
        <time>2023-06-28T09:58:57Z</time>
      </trkpt>
      <trkpt lat="49.94719" lon="2.14229">
        <ele>15.9</ele>
        <time>2023-06-28T09:58:58Z</time>
      </trkpt>
      <trkpt lat="49.94719" lon="2.14229">
        <ele>15.9</ele>
        <time>2023-06-28T09:58:59Z</time>
      </trkpt>
      <trkpt lat="49.94719" lon="2.14229">
        <ele>15.9</ele>
        <time>2023-06-28T09:59:00Z</time>
      </trkpt>
      <trkpt lat="49.94719" lon="2.14229">
        <ele>15.9</ele>
        <time>2023-06-28T09:59:01Z</time>
      </trkpt>
      <trkpt lat="49.94719" lon="2.14229">
        <ele>15.9</ele>
        <time>2023-06-28T09:59:02Z</time>
      </trkpt>
      <trkpt lat="49.94719" lon="2.14229">
        <ele>15.9</ele>
        <time>2023-06-28T09:59:03Z</time>
      </trkpt>
      <trkpt lat="49.94719" lon="2.14229">
        <ele>15.9</ele>
        <time>2023-06-28T09:59:04Z</time>
      </trkpt>
      <trkpt lat="49.9472" lon="2.14229">
        <ele>15.9</ele>
        <time>2023-06-28T09:59:05Z</time>
      </trkpt>
      <trkpt lat="49.9472" lon="2.14229">
        <ele>15.9</ele>
        <time>2023-06-28T09:59:06Z</time>
      </trkpt>
      <trkpt lat="49.9472" lon="2.14229">
        <ele>15.9</ele>
        <time>2023-06-28T09:59:07Z</time>
      </trkpt>
      <trkpt lat="49.9472" lon="2.14229">
        <ele>15.9</ele>
        <time>2023-06-28T09:59:08Z</time>
      </trkpt>
      <trkpt lat="49.9472" lon="2.14229">
        <ele>15.9</ele>
        <time>2023-06-28T09:59:09Z</time>
      </trkpt>
      <trkpt lat="49.9472" lon="2.14229">
        <ele>15.9</ele>
        <time>2023-06-28T09:59:10Z</time>
      </trkpt>
      <trkpt lat="49.9472" lon="2.14229">
        <ele>15.9</ele>
        <time>2023-06-28T09:59:11Z</time>
      </trkpt>
      <trkpt lat="49.9472" lon="2.14229">
        <ele>15.9</ele>
        <time>2023-06-28T09:59:12Z</time>
      </trkpt>
      <trkpt lat="49.9472" lon="2.14229">
        <ele>15.9</ele>
        <time>2023-06-28T09:59:13Z</time>
      </trkpt>
      <trkpt lat="49.9472" lon="2.14229">
        <ele>15.9</ele>
        <time>2023-06-28T09:59:14Z</time>
      </trkpt>
      <trkpt lat="49.9472" lon="2.14229">
        <ele>15.9</ele>
        <time>2023-06-28T09:59:15Z</time>
      </trkpt>
      <trkpt lat="49.9472" lon="2.14229">
        <ele>15.9</ele>
        <time>2023-06-28T09:59:16Z</time>
      </trkpt>
      <trkpt lat="49.9472" lon="2.14229">
        <ele>15.9</ele>
        <time>2023-06-28T09:59:17Z</time>
      </trkpt>
      <trkpt lat="49.9472" lon="2.14229">
        <ele>15.9</ele>
        <time>2023-06-28T09:59:18Z</time>
      </trkpt>
      <trkpt lat="49.9472" lon="2.14229">
        <ele>15.9</ele>
        <time>2023-06-28T09:59:19Z</time>
      </trkpt>
      <trkpt lat="49.9472" lon="2.14229">
        <ele>15.9</ele>
        <time>2023-06-28T09:59:20Z</time>
      </trkpt>
      <trkpt lat="49.9472" lon="2.14229">
        <ele>15.9</ele>
        <time>2023-06-28T09:59:21Z</time>
      </trkpt>
      <trkpt lat="49.9472" lon="2.14229">
        <ele>15.9</ele>
        <time>2023-06-28T09:59:22Z</time>
      </trkpt>
      <trkpt lat="49.9472" lon="2.14229">
        <ele>15.9</ele>
        <time>2023-06-28T09:59:23Z</time>
      </trkpt>
      <trkpt lat="49.9472" lon="2.14229">
        <ele>15.9</ele>
        <time>2023-06-28T09:59:24Z</time>
      </trkpt>
      <trkpt lat="49.9472" lon="2.14229">
        <ele>15.9</ele>
        <time>2023-06-28T09:59:25Z</time>
      </trkpt>
      <trkpt lat="49.9472" lon="2.14229">
        <ele>15.9</ele>
        <time>2023-06-28T09:59:26Z</time>
      </trkpt>
      <trkpt lat="49.9472" lon="2.14229">
        <ele>15.9</ele>
        <time>2023-06-28T09:59:27Z</time>
      </trkpt>
      <trkpt lat="49.9472" lon="2.14229">
        <ele>15.9</ele>
        <time>2023-06-28T09:59:28Z</time>
      </trkpt>
      <trkpt lat="49.9472" lon="2.14229">
        <ele>15.9</ele>
        <time>2023-06-28T09:59:29Z</time>
      </trkpt>
      <trkpt lat="49.9472" lon="2.14229">
        <ele>15.9</ele>
        <time>2023-06-28T09:59:30Z</time>
      </trkpt>
      <trkpt lat="49.9472" lon="2.14229">
        <ele>15.9</ele>
        <time>2023-06-28T09:59:31Z</time>
      </trkpt>
      <trkpt lat="49.9472" lon="2.14229">
        <ele>15.9</ele>
        <time>2023-06-28T09:59:32Z</time>
      </trkpt>
      <trkpt lat="49.9472" lon="2.14229">
        <ele>15.9</ele>
        <time>2023-06-28T09:59:33Z</time>
      </trkpt>
      <trkpt lat="49.9472" lon="2.14229">
        <ele>15.9</ele>
        <time>2023-06-28T09:59:34Z</time>
      </trkpt>
      <trkpt lat="49.9472" lon="2.14229">
        <ele>15.9</ele>
        <time>2023-06-28T09:59:35Z</time>
      </trkpt>
      <trkpt lat="49.9472" lon="2.14229">
        <ele>15.9</ele>
        <time>2023-06-28T09:59:36Z</time>
      </trkpt>
      <trkpt lat="49.9472" lon="2.14229">
        <ele>15.9</ele>
        <time>2023-06-28T09:59:37Z</time>
      </trkpt>
      <trkpt lat="49.9472" lon="2.14229">
        <ele>15.9</ele>
        <time>2023-06-28T09:59:38Z</time>
      </trkpt>
      <trkpt lat="49.9472" lon="2.14229">
        <ele>15.9</ele>
        <time>2023-06-28T09:59:39Z</time>
      </trkpt>
      <trkpt lat="49.9472" lon="2.14229">
        <ele>15.9</ele>
        <time>2023-06-28T09:59:40Z</time>
      </trkpt>
      <trkpt lat="49.9472" lon="2.14229">
        <ele>15.9</ele>
        <time>2023-06-28T09:59:41Z</time>
      </trkpt>
      <trkpt lat="49.9472" lon="2.14229">
        <ele>15.9</ele>
        <time>2023-06-28T09:59:42Z</time>
      </trkpt>
      <trkpt lat="49.9472" lon="2.14229">
        <ele>15.9</ele>
        <time>2023-06-28T09:59:43Z</time>
      </trkpt>
      <trkpt lat="49.9472" lon="2.14229">
        <ele>15.9</ele>
        <time>2023-06-28T09:59:44Z</time>
      </trkpt>
      <trkpt lat="49.9472" lon="2.14229">
        <ele>15.9</ele>
        <time>2023-06-28T09:59:45Z</time>
      </trkpt>
      <trkpt lat="49.9472" lon="2.14229">
        <ele>15.9</ele>
        <time>2023-06-28T09:59:46Z</time>
      </trkpt>
      <trkpt lat="49.9472" lon="2.14229">
        <ele>15.9</ele>
        <time>2023-06-28T09:59:47Z</time>
      </trkpt>
      <trkpt lat="49.9472" lon="2.14229">
        <ele>15.9</ele>
        <time>2023-06-28T09:59:48Z</time>
      </trkpt>
      <trkpt lat="49.9472" lon="2.14229">
        <ele>15.9</ele>
        <time>2023-06-28T09:59:49Z</time>
      </trkpt>
      <trkpt lat="49.9472" lon="2.14229">
        <ele>15.9</ele>
        <time>2023-06-28T09:59:50Z</time>
      </trkpt>
      <trkpt lat="49.9472" lon="2.14229">
        <ele>15.9</ele>
        <time>2023-06-28T09:59:51Z</time>
      </trkpt>
      <trkpt lat="49.9472" lon="2.14229">
        <ele>15.9</ele>
        <time>2023-06-28T09:59:52Z</time>
      </trkpt>
      <trkpt lat="49.9472" lon="2.14229">
        <ele>15.9</ele>
        <time>2023-06-28T09:59:53Z</time>
      </trkpt>
      <trkpt lat="49.9472" lon="2.14229">
        <ele>15.9</ele>
        <time>2023-06-28T09:59:54Z</time>
      </trkpt>
      <trkpt lat="49.9472" lon="2.14229">
        <ele>15.9</ele>
        <time>2023-06-28T09:59:55Z</time>
      </trkpt>
      <trkpt lat="49.9472" lon="2.14229">
        <ele>15.9</ele>
        <time>2023-06-28T09:59:56Z</time>
      </trkpt>
      <trkpt lat="49.9472" lon="2.14229">
        <ele>15.9</ele>
        <time>2023-06-28T09:59:57Z</time>
      </trkpt>
      <trkpt lat="49.9472" lon="2.14229">
        <ele>15.9</ele>
        <time>2023-06-28T09:59:58Z</time>
      </trkpt>
      <trkpt lat="49.9472" lon="2.14229">
        <ele>15.9</ele>
        <time>2023-06-28T09:59:59Z</time>
      </trkpt>
      <trkpt lat="49.9472" lon="2.14229">
        <ele>15.9</ele>
        <time>2023-06-28T10:00:00Z</time>
      </trkpt>
      <trkpt lat="49.9472" lon="2.14229">
        <ele>15.9</ele>
        <time>2023-06-28T10:00:01Z</time>
      </trkpt>
      <trkpt lat="49.9472" lon="2.14229">
        <ele>15.9</ele>
        <time>2023-06-28T10:00:02Z</time>
      </trkpt>
      <trkpt lat="49.9472" lon="2.14229">
        <ele>15.9</ele>
        <time>2023-06-28T10:00:03Z</time>
      </trkpt>
      <trkpt lat="49.9472" lon="2.14229">
        <ele>15.9</ele>
        <time>2023-06-28T10:00:04Z</time>
      </trkpt>
      <trkpt lat="49.9472" lon="2.14229">
        <ele>15.9</ele>
        <time>2023-06-28T10:00:05Z</time>
      </trkpt>
      <trkpt lat="49.9472" lon="2.14229">
        <ele>15.9</ele>
        <time>2023-06-28T10:00:06Z</time>
      </trkpt>
      <trkpt lat="49.9472" lon="2.14229">
        <ele>15.9</ele>
        <time>2023-06-28T10:00:07Z</time>
      </trkpt>
      <trkpt lat="49.9472" lon="2.14229">
        <ele>15.9</ele>
        <time>2023-06-28T10:00:08Z</time>
      </trkpt>
      <trkpt lat="49.9472" lon="2.14229">
        <ele>15.9</ele>
        <time>2023-06-28T10:00:09Z</time>
      </trkpt>
      <trkpt lat="49.9472" lon="2.14229">
        <ele>15.9</ele>
        <time>2023-06-28T10:00:10Z</time>
      </trkpt>
      <trkpt lat="49.9472" lon="2.14229">
        <ele>15.9</ele>
        <time>2023-06-28T10:00:11Z</time>
      </trkpt>
      <trkpt lat="49.9472" lon="2.14229">
        <ele>15.9</ele>
        <time>2023-06-28T10:00:12Z</time>
      </trkpt>
      <trkpt lat="49.9472" lon="2.14229">
        <ele>15.9</ele>
        <time>2023-06-28T10:00:13Z</time>
      </trkpt>
      <trkpt lat="49.9472" lon="2.14229">
        <ele>15.9</ele>
        <time>2023-06-28T10:00:14Z</time>
      </trkpt>
      <trkpt lat="49.9472" lon="2.14229">
        <ele>15.9</ele>
        <time>2023-06-28T10:00:15Z</time>
      </trkpt>
      <trkpt lat="49.9472" lon="2.14229">
        <ele>15.9</ele>
        <time>2023-06-28T10:00:16Z</time>
      </trkpt>
      <trkpt lat="49.9472" lon="2.14229">
        <ele>15.9</ele>
        <time>2023-06-28T10:00:17Z</time>
      </trkpt>
      <trkpt lat="49.9472" lon="2.14229">
        <ele>15.9</ele>
        <time>2023-06-28T10:00:18Z</time>
      </trkpt>
      <trkpt lat="49.9472" lon="2.14229">
        <ele>15.9</ele>
        <time>2023-06-28T10:00:19Z</time>
      </trkpt>
      <trkpt lat="49.9472" lon="2.14229">
        <ele>15.9</ele>
        <time>2023-06-28T10:00:20Z</time>
      </trkpt>
      <trkpt lat="49.9472" lon="2.14229">
        <ele>15.9</ele>
        <time>2023-06-28T10:00:21Z</time>
      </trkpt>
      <trkpt lat="49.9472" lon="2.14229">
        <ele>15.9</ele>
        <time>2023-06-28T10:00:22Z</time>
      </trkpt>
      <trkpt lat="49.9472" lon="2.14229">
        <ele>15.9</ele>
        <time>2023-06-28T10:00:23Z</time>
      </trkpt>
      <trkpt lat="49.9472" lon="2.14229">
        <ele>15.9</ele>
        <time>2023-06-28T10:00:24Z</time>
      </trkpt>
      <trkpt lat="49.9472" lon="2.14229">
        <ele>15.9</ele>
        <time>2023-06-28T10:00:25Z</time>
      </trkpt>
      <trkpt lat="49.9472" lon="2.14229">
        <ele>15.9</ele>
        <time>2023-06-28T10:00:26Z</time>
      </trkpt>
      <trkpt lat="49.9472" lon="2.14229">
        <ele>15.9</ele>
        <time>2023-06-28T10:00:27Z</time>
      </trkpt>
      <trkpt lat="49.9472" lon="2.14229">
        <ele>15.9</ele>
        <time>2023-06-28T10:00:28Z</time>
      </trkpt>
      <trkpt lat="49.9472" lon="2.14229">
        <ele>15.9</ele>
        <time>2023-06-28T10:00:29Z</time>
      </trkpt>
      <trkpt lat="49.9472" lon="2.14229">
        <ele>15.9</ele>
        <time>2023-06-28T10:00:30Z</time>
      </trkpt>
      <trkpt lat="49.9472" lon="2.14229">
        <ele>15.9</ele>
        <time>2023-06-28T10:00:31Z</time>
      </trkpt>
      <trkpt lat="49.9472" lon="2.14229">
        <ele>15.9</ele>
        <time>2023-06-28T10:00:32Z</time>
      </trkpt>
      <trkpt lat="49.9472" lon="2.14229">
        <ele>15.9</ele>
        <time>2023-06-28T10:00:33Z</time>
      </trkpt>
      <trkpt lat="49.9472" lon="2.14229">
        <ele>15.9</ele>
        <time>2023-06-28T10:00:34Z</time>
      </trkpt>
      <trkpt lat="49.9472" lon="2.14229">
        <ele>15.9</ele>
        <time>2023-06-28T10:00:35Z</time>
      </trkpt>
      <trkpt lat="49.9472" lon="2.14229">
        <ele>15.9</ele>
        <time>2023-06-28T10:00:36Z</time>
      </trkpt>
      <trkpt lat="49.9472" lon="2.14229">
        <ele>15.9</ele>
        <time>2023-06-28T10:00:37Z</time>
      </trkpt>
      <trkpt lat="49.9472" lon="2.14229">
        <ele>15.9</ele>
        <time>2023-06-28T10:00:38Z</time>
      </trkpt>
      <trkpt lat="49.9472" lon="2.14229">
        <ele>15.9</ele>
        <time>2023-06-28T10:00:39Z</time>
      </trkpt>
      <trkpt lat="49.9472" lon="2.14229">
        <ele>15.9</ele>
        <time>2023-06-28T10:00:40Z</time>
      </trkpt>
      <trkpt lat="49.9472" lon="2.14229">
        <ele>15.9</ele>
        <time>2023-06-28T10:00:41Z</time>
      </trkpt>
      <trkpt lat="49.9472" lon="2.14229">
        <ele>15.9</ele>
        <time>2023-06-28T10:00:42Z</time>
      </trkpt>
      <trkpt lat="49.9472" lon="2.14229">
        <ele>15.9</ele>
        <time>2023-06-28T10:00:43Z</time>
      </trkpt>
      <trkpt lat="49.9472" lon="2.14229">
        <ele>15.9</ele>
        <time>2023-06-28T10:00:44Z</time>
      </trkpt>
      <trkpt lat="49.9472" lon="2.14229">
        <ele>15.9</ele>
        <time>2023-06-28T10:00:45Z</time>
      </trkpt>
      <trkpt lat="49.9472" lon="2.14229">
        <ele>15.9</ele>
        <time>2023-06-28T10:00:46Z</time>
      </trkpt>
      <trkpt lat="49.9472" lon="2.14229">
        <ele>15.9</ele>
        <time>2023-06-28T10:00:47Z</time>
      </trkpt>
      <trkpt lat="49.9472" lon="2.14229">
        <ele>15.9</ele>
        <time>2023-06-28T10:00:48Z</time>
      </trkpt>
      <trkpt lat="49.9472" lon="2.14229">
        <ele>15.9</ele>
        <time>2023-06-28T10:00:49Z</time>
      </trkpt>
      <trkpt lat="49.9472" lon="2.14229">
        <ele>15.9</ele>
        <time>2023-06-28T10:00:50Z</time>
      </trkpt>
      <trkpt lat="49.9472" lon="2.14229">
        <ele>15.9</ele>
        <time>2023-06-28T10:00:51Z</time>
      </trkpt>
      <trkpt lat="49.9472" lon="2.14229">
        <ele>15.9</ele>
        <time>2023-06-28T10:00:52Z</time>
      </trkpt>
      <trkpt lat="49.9472" lon="2.14229">
        <ele>15.9</ele>
        <time>2023-06-28T10:00:53Z</time>
      </trkpt>
      <trkpt lat="49.9472" lon="2.14229">
        <ele>15.9</ele>
        <time>2023-06-28T10:00:54Z</time>
      </trkpt>
      <trkpt lat="49.9472" lon="2.14229">
        <ele>15.9</ele>
        <time>2023-06-28T10:00:55Z</time>
      </trkpt>
      <trkpt lat="49.9472" lon="2.14229">
        <ele>15.9</ele>
        <time>2023-06-28T10:00:56Z</time>
      </trkpt>
      <trkpt lat="49.9472" lon="2.14229">
        <ele>15.9</ele>
        <time>2023-06-28T10:00:57Z</time>
      </trkpt>
      <trkpt lat="49.9472" lon="2.14229">
        <ele>15.9</ele>
        <time>2023-06-28T10:00:58Z</time>
      </trkpt>
      <trkpt lat="49.9472" lon="2.14229">
        <ele>15.9</ele>
        <time>2023-06-28T10:00:59Z</time>
      </trkpt>
      <trkpt lat="49.9472" lon="2.14229">
        <ele>15.9</ele>
        <time>2023-06-28T10:01:00Z</time>
      </trkpt>
      <trkpt lat="49.9472" lon="2.14229">
        <ele>15.9</ele>
        <time>2023-06-28T10:01:01Z</time>
      </trkpt>
      <trkpt lat="49.9472" lon="2.14229">
        <ele>15.9</ele>
        <time>2023-06-28T10:01:02Z</time>
      </trkpt>
      <trkpt lat="49.9472" lon="2.14229">
        <ele>15.9</ele>
        <time>2023-06-28T10:01:03Z</time>
      </trkpt>
      <trkpt lat="49.9472" lon="2.14229">
        <ele>15.9</ele>
        <time>2023-06-28T10:01:04Z</time>
      </trkpt>
      <trkpt lat="49.9472" lon="2.14229">
        <ele>15.9</ele>
        <time>2023-06-28T10:01:05Z</time>
      </trkpt>
      <trkpt lat="49.9472" lon="2.14229">
        <ele>15.9</ele>
        <time>2023-06-28T10:01:06Z</time>
      </trkpt>
      <trkpt lat="49.9472" lon="2.14229">
        <ele>15.9</ele>
        <time>2023-06-28T10:01:07Z</time>
      </trkpt>
      <trkpt lat="49.9472" lon="2.14229">
        <ele>15.9</ele>
        <time>2023-06-28T10:01:08Z</time>
      </trkpt>
      <trkpt lat="49.9472" lon="2.14229">
        <ele>15.9</ele>
        <time>2023-06-28T10:01:09Z</time>
      </trkpt>
      <trkpt lat="49.9472" lon="2.14229">
        <ele>15.9</ele>
        <time>2023-06-28T10:01:10Z</time>
      </trkpt>
      <trkpt lat="49.9472" lon="2.14229">
        <ele>15.9</ele>
        <time>2023-06-28T10:01:11Z</time>
      </trkpt>
      <trkpt lat="49.9472" lon="2.14229">
        <ele>15.9</ele>
        <time>2023-06-28T10:01:12Z</time>
      </trkpt>
      <trkpt lat="49.9472" lon="2.14229">
        <ele>15.9</ele>
        <time>2023-06-28T10:01:13Z</time>
      </trkpt>
      <trkpt lat="49.9472" lon="2.14229">
        <ele>15.9</ele>
        <time>2023-06-28T10:01:14Z</time>
      </trkpt>
      <trkpt lat="49.9472" lon="2.14229">
        <ele>15.9</ele>
        <time>2023-06-28T10:01:15Z</time>
      </trkpt>
      <trkpt lat="49.9472" lon="2.14229">
        <ele>15.9</ele>
        <time>2023-06-28T10:01:16Z</time>
      </trkpt>
      <trkpt lat="49.9472" lon="2.14229">
        <ele>15.9</ele>
        <time>2023-06-28T10:01:17Z</time>
      </trkpt>
      <trkpt lat="49.9472" lon="2.14229">
        <ele>15.9</ele>
        <time>2023-06-28T10:01:18Z</time>
      </trkpt>
      <trkpt lat="49.9472" lon="2.14229">
        <ele>15.9</ele>
        <time>2023-06-28T10:01:19Z</time>
      </trkpt>
      <trkpt lat="49.9472" lon="2.14229">
        <ele>15.9</ele>
        <time>2023-06-28T10:01:20Z</time>
      </trkpt>
      <trkpt lat="49.9472" lon="2.14229">
        <ele>15.9</ele>
        <time>2023-06-28T10:01:21Z</time>
      </trkpt>
      <trkpt lat="49.9472" lon="2.14229">
        <ele>15.9</ele>
        <time>2023-06-28T10:01:22Z</time>
      </trkpt>
      <trkpt lat="49.9472" lon="2.14229">
        <ele>15.9</ele>
        <time>2023-06-28T10:01:23Z</time>
      </trkpt>
      <trkpt lat="49.9472" lon="2.14229">
        <ele>15.9</ele>
        <time>2023-06-28T10:01:24Z</time>
      </trkpt>
      <trkpt lat="49.9472" lon="2.14229">
        <ele>15.9</ele>
        <time>2023-06-28T10:01:25Z</time>
      </trkpt>
      <trkpt lat="49.9472" lon="2.14229">
        <ele>15.9</ele>
        <time>2023-06-28T10:01:26Z</time>
      </trkpt>
      <trkpt lat="49.9472" lon="2.14229">
        <ele>15.9</ele>
        <time>2023-06-28T10:01:27Z</time>
      </trkpt>
      <trkpt lat="49.9472" lon="2.14229">
        <ele>15.9</ele>
        <time>2023-06-28T10:01:28Z</time>
      </trkpt>
      <trkpt lat="49.9472" lon="2.14229">
        <ele>15.9</ele>
        <time>2023-06-28T10:01:29Z</time>
      </trkpt>
      <trkpt lat="49.9472" lon="2.14229">
        <ele>15.9</ele>
        <time>2023-06-28T10:01:30Z</time>
      </trkpt>
      <trkpt lat="49.9472" lon="2.14229">
        <ele>15.9</ele>
        <time>2023-06-28T10:01:31Z</time>
      </trkpt>
      <trkpt lat="49.9472" lon="2.14229">
        <ele>15.9</ele>
        <time>2023-06-28T10:01:32Z</time>
      </trkpt>
      <trkpt lat="49.9472" lon="2.14229">
        <ele>15.9</ele>
        <time>2023-06-28T10:01:33Z</time>
      </trkpt>
      <trkpt lat="49.9472" lon="2.14229">
        <ele>15.9</ele>
        <time>2023-06-28T10:01:34Z</time>
      </trkpt>
      <trkpt lat="49.9472" lon="2.14229">
        <ele>15.9</ele>
        <time>2023-06-28T10:01:35Z</time>
      </trkpt>
      <trkpt lat="49.9472" lon="2.14229">
        <ele>15.9</ele>
        <time>2023-06-28T10:01:36Z</time>
      </trkpt>
      <trkpt lat="49.9472" lon="2.14229">
        <ele>15.9</ele>
        <time>2023-06-28T10:01:37Z</time>
      </trkpt>
      <trkpt lat="49.9472" lon="2.14229">
        <ele>15.9</ele>
        <time>2023-06-28T10:01:38Z</time>
      </trkpt>
      <trkpt lat="49.9472" lon="2.14229">
        <ele>15.9</ele>
        <time>2023-06-28T10:01:39Z</time>
      </trkpt>
      <trkpt lat="49.9472" lon="2.14229">
        <ele>15.9</ele>
        <time>2023-06-28T10:01:40Z</time>
      </trkpt>
      <trkpt lat="49.9472" lon="2.14229">
        <ele>15.9</ele>
        <time>2023-06-28T10:01:41Z</time>
      </trkpt>
      <trkpt lat="49.9472" lon="2.14229">
        <ele>15.9</ele>
        <time>2023-06-28T10:01:42Z</time>
      </trkpt>
      <trkpt lat="49.9472" lon="2.14229">
        <ele>15.9</ele>
        <time>2023-06-28T10:01:43Z</time>
      </trkpt>
      <trkpt lat="49.9472" lon="2.14229">
        <ele>15.9</ele>
        <time>2023-06-28T10:01:44Z</time>
      </trkpt>
      <trkpt lat="49.9472" lon="2.14229">
        <ele>15.9</ele>
        <time>2023-06-28T10:01:45Z</time>
      </trkpt>
      <trkpt lat="49.9472" lon="2.14229">
        <ele>15.9</ele>
        <time>2023-06-28T10:01:46Z</time>
      </trkpt>
      <trkpt lat="49.9472" lon="2.14229">
        <ele>15.9</ele>
        <time>2023-06-28T10:01:47Z</time>
      </trkpt>
      <trkpt lat="49.9472" lon="2.14229">
        <ele>15.9</ele>
        <time>2023-06-28T10:01:48Z</time>
      </trkpt>
      <trkpt lat="49.9472" lon="2.14229">
        <ele>15.9</ele>
        <time>2023-06-28T10:01:49Z</time>
      </trkpt>
      <trkpt lat="49.9472" lon="2.14229">
        <ele>15.9</ele>
        <time>2023-06-28T10:01:50Z</time>
      </trkpt>
      <trkpt lat="49.9472" lon="2.14229">
        <ele>15.9</ele>
        <time>2023-06-28T10:01:51Z</time>
      </trkpt>
      <trkpt lat="49.9472" lon="2.14229">
        <ele>15.9</ele>
        <time>2023-06-28T10:01:52Z</time>
      </trkpt>
      <trkpt lat="49.9472" lon="2.14229">
        <ele>15.9</ele>
        <time>2023-06-28T10:01:53Z</time>
      </trkpt>
      <trkpt lat="49.9472" lon="2.14229">
        <ele>15.9</ele>
        <time>2023-06-28T10:01:54Z</time>
      </trkpt>
      <trkpt lat="49.9472" lon="2.14229">
        <ele>15.9</ele>
        <time>2023-06-28T10:01:55Z</time>
      </trkpt>
      <trkpt lat="49.9472" lon="2.14229">
        <ele>15.9</ele>
        <time>2023-06-28T10:01:56Z</time>
      </trkpt>
      <trkpt lat="49.9472" lon="2.14229">
        <ele>15.9</ele>
        <time>2023-06-28T10:01:57Z</time>
      </trkpt>
      <trkpt lat="49.9472" lon="2.14229">
        <ele>15.9</ele>
        <time>2023-06-28T10:01:58Z</time>
      </trkpt>
      <trkpt lat="49.9472" lon="2.14229">
        <ele>15.9</ele>
        <time>2023-06-28T10:01:59Z</time>
      </trkpt>
      <trkpt lat="49.9472" lon="2.14229">
        <ele>15.9</ele>
        <time>2023-06-28T10:02:00Z</time>
      </trkpt>
      <trkpt lat="49.9472" lon="2.14229">
        <ele>15.9</ele>
        <time>2023-06-28T10:02:01Z</time>
      </trkpt>
      <trkpt lat="49.9472" lon="2.14229">
        <ele>15.9</ele>
        <time>2023-06-28T10:02:02Z</time>
      </trkpt>
      <trkpt lat="49.9472" lon="2.14229">
        <ele>15.9</ele>
        <time>2023-06-28T10:02:03Z</time>
      </trkpt>
      <trkpt lat="49.9472" lon="2.14229">
        <ele>15.9</ele>
        <time>2023-06-28T10:02:04Z</time>
      </trkpt>
      <trkpt lat="49.9472" lon="2.14229">
        <ele>15.9</ele>
        <time>2023-06-28T10:02:05Z</time>
      </trkpt>
      <trkpt lat="49.9472" lon="2.14229">
        <ele>15.9</ele>
        <time>2023-06-28T10:02:06Z</time>
      </trkpt>
      <trkpt lat="49.9472" lon="2.14229">
        <ele>15.9</ele>
        <time>2023-06-28T10:02:07Z</time>
      </trkpt>
      <trkpt lat="49.9472" lon="2.14229">
        <ele>15.9</ele>
        <time>2023-06-28T10:02:08Z</time>
      </trkpt>
      <trkpt lat="49.9472" lon="2.14229">
        <ele>15.9</ele>
        <time>2023-06-28T10:02:09Z</time>
      </trkpt>
      <trkpt lat="49.9472" lon="2.14229">
        <ele>15.9</ele>
        <time>2023-06-28T10:02:10Z</time>
      </trkpt>
      <trkpt lat="49.9472" lon="2.14229">
        <ele>15.9</ele>
        <time>2023-06-28T10:02:11Z</time>
      </trkpt>
      <trkpt lat="49.9472" lon="2.14229">
        <ele>15.9</ele>
        <time>2023-06-28T10:02:12Z</time>
      </trkpt>
      <trkpt lat="49.9472" lon="2.14229">
        <ele>15.9</ele>
        <time>2023-06-28T10:02:13Z</time>
      </trkpt>
      <trkpt lat="49.9472" lon="2.14229">
        <ele>15.9</ele>
        <time>2023-06-28T10:02:14Z</time>
      </trkpt>
      <trkpt lat="49.9472" lon="2.14229">
        <ele>15.9</ele>
        <time>2023-06-28T10:02:15Z</time>
      </trkpt>
      <trkpt lat="49.9472" lon="2.14229">
        <ele>15.9</ele>
        <time>2023-06-28T10:02:16Z</time>
      </trkpt>
      <trkpt lat="49.9472" lon="2.14229">
        <ele>15.9</ele>
        <time>2023-06-28T10:02:17Z</time>
      </trkpt>
      <trkpt lat="49.9472" lon="2.14229">
        <ele>15.9</ele>
        <time>2023-06-28T10:02:18Z</time>
      </trkpt>
      <trkpt lat="49.9472" lon="2.14229">
        <ele>15.9</ele>
        <time>2023-06-28T10:02:19Z</time>
      </trkpt>
      <trkpt lat="49.9472" lon="2.14229">
        <ele>15.9</ele>
        <time>2023-06-28T10:02:20Z</time>
      </trkpt>
      <trkpt lat="49.9472" lon="2.14229">
        <ele>15.9</ele>
        <time>2023-06-28T10:02:21Z</time>
      </trkpt>
      <trkpt lat="49.9472" lon="2.14229">
        <ele>15.9</ele>
        <time>2023-06-28T10:02:22Z</time>
      </trkpt>
      <trkpt lat="49.9472" lon="2.14229">
        <ele>15.9</ele>
        <time>2023-06-28T10:02:23Z</time>
      </trkpt>
      <trkpt lat="49.9472" lon="2.14229">
        <ele>15.9</ele>
        <time>2023-06-28T10:02:24Z</time>
      </trkpt>
      <trkpt lat="49.9472" lon="2.14229">
        <ele>15.9</ele>
        <time>2023-06-28T10:02:25Z</time>
      </trkpt>
      <trkpt lat="49.9472" lon="2.14229">
        <ele>15.9</ele>
        <time>2023-06-28T10:02:26Z</time>
      </trkpt>
      <trkpt lat="49.9472" lon="2.14229">
        <ele>15.9</ele>
        <time>2023-06-28T10:02:27Z</time>
      </trkpt>
      <trkpt lat="49.9472" lon="2.14229">
        <ele>15.9</ele>
        <time>2023-06-28T10:02:28Z</time>
      </trkpt>
      <trkpt lat="49.9472" lon="2.14229">
        <ele>15.9</ele>
        <time>2023-06-28T10:02:29Z</time>
      </trkpt>
      <trkpt lat="49.9472" lon="2.14229">
        <ele>15.9</ele>
        <time>2023-06-28T10:02:30Z</time>
      </trkpt>
      <trkpt lat="49.9472" lon="2.14229">
        <ele>15.9</ele>
        <time>2023-06-28T10:02:31Z</time>
      </trkpt>
      <trkpt lat="49.9472" lon="2.14229">
        <ele>15.9</ele>
        <time>2023-06-28T10:02:32Z</time>
      </trkpt>
      <trkpt lat="49.9472" lon="2.14229">
        <ele>15.9</ele>
        <time>2023-06-28T10:02:33Z</time>
      </trkpt>
      <trkpt lat="49.9472" lon="2.14229">
        <ele>15.9</ele>
        <time>2023-06-28T10:02:34Z</time>
      </trkpt>
      <trkpt lat="49.9472" lon="2.14229">
        <ele>15.9</ele>
        <time>2023-06-28T10:02:35Z</time>
      </trkpt>
      <trkpt lat="49.9472" lon="2.14229">
        <ele>15.9</ele>
        <time>2023-06-28T10:02:36Z</time>
      </trkpt>
      <trkpt lat="49.9472" lon="2.14229">
        <ele>15.9</ele>
        <time>2023-06-28T10:02:37Z</time>
      </trkpt>
      <trkpt lat="49.9472" lon="2.14229">
        <ele>15.9</ele>
        <time>2023-06-28T10:02:38Z</time>
      </trkpt>
      <trkpt lat="49.9472" lon="2.14229">
        <ele>15.9</ele>
        <time>2023-06-28T10:02:39Z</time>
      </trkpt>
      <trkpt lat="49.9472" lon="2.14229">
        <ele>15.9</ele>
        <time>2023-06-28T10:02:40Z</time>
      </trkpt>
      <trkpt lat="49.9472" lon="2.14229">
        <ele>15.9</ele>
        <time>2023-06-28T10:02:41Z</time>
      </trkpt>
      <trkpt lat="49.9472" lon="2.14229">
        <ele>15.9</ele>
        <time>2023-06-28T10:02:42Z</time>
      </trkpt>
      <trkpt lat="49.9472" lon="2.14229">
        <ele>15.9</ele>
        <time>2023-06-28T10:02:43Z</time>
      </trkpt>
      <trkpt lat="49.9472" lon="2.14229">
        <ele>15.9</ele>
        <time>2023-06-28T10:02:44Z</time>
      </trkpt>
      <trkpt lat="49.9472" lon="2.14229">
        <ele>15.9</ele>
        <time>2023-06-28T10:02:45Z</time>
      </trkpt>
      <trkpt lat="49.9472" lon="2.14229">
        <ele>15.9</ele>
        <time>2023-06-28T10:02:46Z</time>
      </trkpt>
      <trkpt lat="49.9472" lon="2.14229">
        <ele>15.9</ele>
        <time>2023-06-28T10:02:47Z</time>
      </trkpt>
      <trkpt lat="49.9472" lon="2.14229">
        <ele>15.9</ele>
        <time>2023-06-28T10:02:48Z</time>
      </trkpt>
      <trkpt lat="49.9472" lon="2.14229">
        <ele>15.9</ele>
        <time>2023-06-28T10:02:49Z</time>
      </trkpt>
      <trkpt lat="49.9472" lon="2.14229">
        <ele>15.9</ele>
        <time>2023-06-28T10:02:50Z</time>
      </trkpt>
      <trkpt lat="49.9472" lon="2.14229">
        <ele>15.9</ele>
        <time>2023-06-28T10:02:51Z</time>
      </trkpt>
      <trkpt lat="49.9472" lon="2.14229">
        <ele>15.9</ele>
        <time>2023-06-28T10:02:52Z</time>
      </trkpt>
      <trkpt lat="49.9472" lon="2.14229">
        <ele>15.9</ele>
        <time>2023-06-28T10:02:53Z</time>
      </trkpt>
      <trkpt lat="49.9472" lon="2.14229">
        <ele>15.9</ele>
        <time>2023-06-28T10:02:54Z</time>
      </trkpt>
      <trkpt lat="49.9472" lon="2.14229">
        <ele>15.9</ele>
        <time>2023-06-28T10:02:55Z</time>
      </trkpt>
      <trkpt lat="49.9472" lon="2.14229">
        <ele>15.9</ele>
        <time>2023-06-28T10:02:56Z</time>
      </trkpt>
      <trkpt lat="49.9472" lon="2.14229">
        <ele>15.9</ele>
        <time>2023-06-28T10:02:57Z</time>
      </trkpt>
      <trkpt lat="49.9472" lon="2.14229">
        <ele>15.9</ele>
        <time>2023-06-28T10:02:58Z</time>
      </trkpt>
      <trkpt lat="49.9472" lon="2.14229">
        <ele>15.9</ele>
        <time>2023-06-28T10:02:59Z</time>
      </trkpt>
      <trkpt lat="49.9472" lon="2.14229">
        <ele>15.9</ele>
        <time>2023-06-28T10:03:00Z</time>
      </trkpt>
      <trkpt lat="49.9472" lon="2.14229">
        <ele>15.9</ele>
        <time>2023-06-28T10:03:01Z</time>
      </trkpt>
      <trkpt lat="49.9472" lon="2.14229">
        <ele>15.9</ele>
        <time>2023-06-28T10:03:02Z</time>
      </trkpt>
      <trkpt lat="49.9472" lon="2.14229">
        <ele>15.9</ele>
        <time>2023-06-28T10:03:03Z</time>
      </trkpt>
      <trkpt lat="49.9472" lon="2.14229">
        <ele>15.9</ele>
        <time>2023-06-28T10:03:04Z</time>
      </trkpt>
      <trkpt lat="49.9472" lon="2.14229">
        <ele>15.9</ele>
        <time>2023-06-28T10:03:05Z</time>
      </trkpt>
      <trkpt lat="49.9472" lon="2.14229">
        <ele>15.9</ele>
        <time>2023-06-28T10:03:06Z</time>
      </trkpt>
      <trkpt lat="49.9472" lon="2.14229">
        <ele>15.9</ele>
        <time>2023-06-28T10:03:07Z</time>
      </trkpt>
      <trkpt lat="49.9472" lon="2.14229">
        <ele>15.9</ele>
        <time>2023-06-28T10:03:08Z</time>
      </trkpt>
      <trkpt lat="49.9472" lon="2.14229">
        <ele>15.9</ele>
        <time>2023-06-28T10:03:09Z</time>
      </trkpt>
      <trkpt lat="49.9472" lon="2.14229">
        <ele>15.9</ele>
        <time>2023-06-28T10:03:10Z</time>
      </trkpt>
      <trkpt lat="49.9472" lon="2.14229">
        <ele>15.9</ele>
        <time>2023-06-28T10:03:11Z</time>
      </trkpt>
      <trkpt lat="49.9472" lon="2.14229">
        <ele>15.9</ele>
        <time>2023-06-28T10:03:12Z</time>
      </trkpt>
      <trkpt lat="49.9472" lon="2.14229">
        <ele>15.9</ele>
        <time>2023-06-28T10:03:13Z</time>
      </trkpt>
      <trkpt lat="49.9472" lon="2.14229">
        <ele>15.9</ele>
        <time>2023-06-28T10:03:14Z</time>
      </trkpt>
      <trkpt lat="49.9472" lon="2.14229">
        <ele>15.9</ele>
        <time>2023-06-28T10:03:15Z</time>
      </trkpt>
      <trkpt lat="49.9472" lon="2.14229">
        <ele>15.9</ele>
        <time>2023-06-28T10:03:16Z</time>
      </trkpt>
      <trkpt lat="49.9472" lon="2.14229">
        <ele>15.9</ele>
        <time>2023-06-28T10:03:17Z</time>
      </trkpt>
      <trkpt lat="49.9472" lon="2.14229">
        <ele>15.9</ele>
        <time>2023-06-28T10:03:18Z</time>
      </trkpt>
      <trkpt lat="49.9472" lon="2.14229">
        <ele>15.9</ele>
        <time>2023-06-28T10:03:19Z</time>
      </trkpt>
      <trkpt lat="49.9472" lon="2.14229">
        <ele>15.9</ele>
        <time>2023-06-28T10:03:20Z</time>
      </trkpt>
      <trkpt lat="49.9472" lon="2.14229">
        <ele>15.9</ele>
        <time>2023-06-28T10:03:21Z</time>
      </trkpt>
      <trkpt lat="49.9472" lon="2.14229">
        <ele>15.9</ele>
        <time>2023-06-28T10:03:22Z</time>
      </trkpt>
      <trkpt lat="49.9472" lon="2.14229">
        <ele>15.9</ele>
        <time>2023-06-28T10:03:23Z</time>
      </trkpt>
      <trkpt lat="49.9472" lon="2.14229">
        <ele>15.9</ele>
        <time>2023-06-28T10:03:24Z</time>
      </trkpt>
      <trkpt lat="49.9472" lon="2.14229">
        <ele>15.9</ele>
        <time>2023-06-28T10:03:25Z</time>
      </trkpt>
      <trkpt lat="49.9472" lon="2.14229">
        <ele>15.9</ele>
        <time>2023-06-28T10:03:26Z</time>
      </trkpt>
      <trkpt lat="49.9472" lon="2.14229">
        <ele>15.9</ele>
        <time>2023-06-28T10:03:27Z</time>
      </trkpt>
      <trkpt lat="49.9472" lon="2.14229">
        <ele>15.9</ele>
        <time>2023-06-28T10:03:28Z</time>
      </trkpt>
      <trkpt lat="49.9472" lon="2.14229">
        <ele>15.9</ele>
        <time>2023-06-28T10:03:29Z</time>
      </trkpt>
      <trkpt lat="49.9472" lon="2.14229">
        <ele>15.9</ele>
        <time>2023-06-28T10:03:30Z</time>
      </trkpt>
      <trkpt lat="49.9472" lon="2.14229">
        <ele>15.9</ele>
        <time>2023-06-28T10:03:31Z</time>
      </trkpt>
      <trkpt lat="49.9472" lon="2.14229">
        <ele>15.9</ele>
        <time>2023-06-28T10:03:32Z</time>
      </trkpt>
      <trkpt lat="49.9472" lon="2.14229">
        <ele>15.9</ele>
        <time>2023-06-28T10:03:33Z</time>
      </trkpt>
      <trkpt lat="49.9472" lon="2.14229">
        <ele>15.9</ele>
        <time>2023-06-28T10:03:34Z</time>
      </trkpt>
      <trkpt lat="49.9472" lon="2.14229">
        <ele>15.9</ele>
        <time>2023-06-28T10:03:35Z</time>
      </trkpt>
      <trkpt lat="49.9472" lon="2.14229">
        <ele>15.9</ele>
        <time>2023-06-28T10:03:36Z</time>
      </trkpt>
      <trkpt lat="49.9472" lon="2.14229">
        <ele>15.9</ele>
        <time>2023-06-28T10:03:37Z</time>
      </trkpt>
      <trkpt lat="49.9472" lon="2.14229">
        <ele>15.9</ele>
        <time>2023-06-28T10:03:38Z</time>
      </trkpt>
      <trkpt lat="49.9472" lon="2.14229">
        <ele>15.9</ele>
        <time>2023-06-28T10:03:39Z</time>
      </trkpt>
      <trkpt lat="49.9472" lon="2.14229">
        <ele>15.9</ele>
        <time>2023-06-28T10:03:40Z</time>
      </trkpt>
      <trkpt lat="49.9472" lon="2.14229">
        <ele>15.9</ele>
        <time>2023-06-28T10:03:41Z</time>
      </trkpt>
      <trkpt lat="49.9472" lon="2.14229">
        <ele>15.9</ele>
        <time>2023-06-28T10:03:42Z</time>
      </trkpt>
      <trkpt lat="49.9472" lon="2.14229">
        <ele>15.9</ele>
        <time>2023-06-28T10:03:43Z</time>
      </trkpt>
      <trkpt lat="49.9472" lon="2.14228">
        <ele>15.9</ele>
        <time>2023-06-28T10:03:44Z</time>
      </trkpt>
      <trkpt lat="49.9472" lon="2.14228">
        <ele>15.9</ele>
        <time>2023-06-28T10:03:45Z</time>
      </trkpt>
      <trkpt lat="49.9472" lon="2.14228">
        <ele>15.9</ele>
        <time>2023-06-28T10:03:46Z</time>
      </trkpt>
      <trkpt lat="49.9472" lon="2.14228">
        <ele>15.9</ele>
        <time>2023-06-28T10:03:47Z</time>
      </trkpt>
      <trkpt lat="49.9472" lon="2.14228">
        <ele>15.9</ele>
        <time>2023-06-28T10:03:48Z</time>
      </trkpt>
      <trkpt lat="49.9472" lon="2.14228">
        <ele>15.9</ele>
        <time>2023-06-28T10:03:49Z</time>
      </trkpt>
      <trkpt lat="49.9472" lon="2.14228">
        <ele>15.9</ele>
        <time>2023-06-28T10:03:50Z</time>
      </trkpt>
      <trkpt lat="49.9472" lon="2.14228">
        <ele>15.9</ele>
        <time>2023-06-28T10:03:51Z</time>
      </trkpt>
      <trkpt lat="49.9472" lon="2.14228">
        <ele>15.9</ele>
        <time>2023-06-28T10:03:52Z</time>
      </trkpt>
      <trkpt lat="49.9472" lon="2.14228">
        <ele>15.9</ele>
        <time>2023-06-28T10:03:53Z</time>
      </trkpt>
      <trkpt lat="49.9472" lon="2.14228">
        <ele>15.9</ele>
        <time>2023-06-28T10:03:54Z</time>
      </trkpt>
      <trkpt lat="49.9472" lon="2.14228">
        <ele>15.9</ele>
        <time>2023-06-28T10:03:55Z</time>
      </trkpt>
      <trkpt lat="49.9472" lon="2.14228">
        <ele>15.9</ele>
        <time>2023-06-28T10:03:56Z</time>
      </trkpt>
      <trkpt lat="49.9472" lon="2.14228">
        <ele>15.9</ele>
        <time>2023-06-28T10:03:57Z</time>
      </trkpt>
      <trkpt lat="49.9472" lon="2.14228">
        <ele>15.9</ele>
        <time>2023-06-28T10:03:58Z</time>
      </trkpt>
      <trkpt lat="49.9472" lon="2.14228">
        <ele>15.9</ele>
        <time>2023-06-28T10:03:59Z</time>
      </trkpt>
      <trkpt lat="49.9472" lon="2.14228">
        <ele>15.9</ele>
        <time>2023-06-28T10:04:00Z</time>
      </trkpt>
      <trkpt lat="49.9472" lon="2.14228">
        <ele>15.9</ele>
        <time>2023-06-28T10:04:01Z</time>
      </trkpt>
      <trkpt lat="49.9472" lon="2.14228">
        <ele>15.9</ele>
        <time>2023-06-28T10:04:02Z</time>
      </trkpt>
      <trkpt lat="49.9472" lon="2.14228">
        <ele>15.9</ele>
        <time>2023-06-28T10:04:03Z</time>
      </trkpt>
      <trkpt lat="49.9472" lon="2.14228">
        <ele>15.9</ele>
        <time>2023-06-28T10:04:04Z</time>
      </trkpt>
      <trkpt lat="49.9472" lon="2.14228">
        <ele>15.9</ele>
        <time>2023-06-28T10:04:05Z</time>
      </trkpt>
      <trkpt lat="49.9472" lon="2.14228">
        <ele>15.9</ele>
        <time>2023-06-28T10:04:06Z</time>
      </trkpt>
      <trkpt lat="49.9472" lon="2.14228">
        <ele>15.9</ele>
        <time>2023-06-28T10:04:07Z</time>
      </trkpt>
      <trkpt lat="49.9472" lon="2.14228">
        <ele>15.9</ele>
        <time>2023-06-28T10:04:08Z</time>
      </trkpt>
      <trkpt lat="49.9472" lon="2.14228">
        <ele>15.9</ele>
        <time>2023-06-28T10:04:09Z</time>
      </trkpt>
      <trkpt lat="49.9472" lon="2.14228">
        <ele>15.9</ele>
        <time>2023-06-28T10:04:10Z</time>
      </trkpt>
      <trkpt lat="49.9472" lon="2.14228">
        <ele>15.9</ele>
        <time>2023-06-28T10:04:11Z</time>
      </trkpt>
      <trkpt lat="49.9472" lon="2.14228">
        <ele>15.9</ele>
        <time>2023-06-28T10:04:12Z</time>
      </trkpt>
      <trkpt lat="49.9472" lon="2.14228">
        <ele>15.9</ele>
        <time>2023-06-28T10:04:13Z</time>
      </trkpt>
      <trkpt lat="49.9472" lon="2.14228">
        <ele>15.9</ele>
        <time>2023-06-28T10:04:14Z</time>
      </trkpt>
      <trkpt lat="49.9472" lon="2.14228">
        <ele>15.9</ele>
        <time>2023-06-28T10:04:15Z</time>
      </trkpt>
      <trkpt lat="49.9472" lon="2.14228">
        <ele>15.9</ele>
        <time>2023-06-28T10:04:16Z</time>
      </trkpt>
      <trkpt lat="49.9472" lon="2.14228">
        <ele>15.9</ele>
        <time>2023-06-28T10:04:17Z</time>
      </trkpt>
      <trkpt lat="49.9472" lon="2.14228">
        <ele>15.9</ele>
        <time>2023-06-28T10:04:18Z</time>
      </trkpt>
      <trkpt lat="49.9472" lon="2.14228">
        <ele>15.9</ele>
        <time>2023-06-28T10:04:19Z</time>
      </trkpt>
      <trkpt lat="49.9472" lon="2.14228">
        <ele>15.9</ele>
        <time>2023-06-28T10:04:20Z</time>
      </trkpt>
      <trkpt lat="49.9472" lon="2.14228">
        <ele>15.9</ele>
        <time>2023-06-28T10:04:21Z</time>
      </trkpt>
      <trkpt lat="49.9472" lon="2.14228">
        <ele>15.9</ele>
        <time>2023-06-28T10:04:22Z</time>
      </trkpt>
      <trkpt lat="49.9472" lon="2.14228">
        <ele>15.9</ele>
        <time>2023-06-28T10:04:23Z</time>
      </trkpt>
      <trkpt lat="49.9472" lon="2.14228">
        <ele>15.9</ele>
        <time>2023-06-28T10:04:24Z</time>
      </trkpt>
      <trkpt lat="49.9472" lon="2.14228">
        <ele>15.9</ele>
        <time>2023-06-28T10:04:25Z</time>
      </trkpt>
      <trkpt lat="49.9472" lon="2.14228">
        <ele>15.9</ele>
        <time>2023-06-28T10:04:26Z</time>
      </trkpt>
      <trkpt lat="49.9472" lon="2.14228">
        <ele>15.9</ele>
        <time>2023-06-28T10:04:27Z</time>
      </trkpt>
      <trkpt lat="49.9472" lon="2.14228">
        <ele>15.9</ele>
        <time>2023-06-28T10:04:28Z</time>
      </trkpt>
      <trkpt lat="49.9472" lon="2.14228">
        <ele>15.9</ele>
        <time>2023-06-28T10:04:29Z</time>
      </trkpt>
      <trkpt lat="49.9472" lon="2.14228">
        <ele>15.9</ele>
        <time>2023-06-28T10:04:30Z</time>
      </trkpt>
      <trkpt lat="49.9472" lon="2.14228">
        <ele>15.9</ele>
        <time>2023-06-28T10:04:31Z</time>
      </trkpt>
      <trkpt lat="49.9472" lon="2.14228">
        <ele>15.9</ele>
        <time>2023-06-28T10:04:32Z</time>
      </trkpt>
      <trkpt lat="49.9472" lon="2.14228">
        <ele>15.9</ele>
        <time>2023-06-28T10:04:33Z</time>
      </trkpt>
      <trkpt lat="49.9472" lon="2.14228">
        <ele>15.9</ele>
        <time>2023-06-28T10:04:34Z</time>
      </trkpt>
      <trkpt lat="49.9472" lon="2.14228">
        <ele>15.9</ele>
        <time>2023-06-28T10:04:35Z</time>
      </trkpt>
      <trkpt lat="49.9472" lon="2.14228">
        <ele>15.9</ele>
        <time>2023-06-28T10:04:36Z</time>
      </trkpt>
      <trkpt lat="49.9472" lon="2.14228">
        <ele>15.9</ele>
        <time>2023-06-28T10:04:37Z</time>
      </trkpt>
      <trkpt lat="49.9472" lon="2.14228">
        <ele>15.9</ele>
        <time>2023-06-28T10:04:38Z</time>
      </trkpt>
      <trkpt lat="49.9472" lon="2.14228">
        <ele>15.9</ele>
        <time>2023-06-28T10:04:39Z</time>
      </trkpt>
      <trkpt lat="49.9472" lon="2.14228">
        <ele>15.9</ele>
        <time>2023-06-28T10:04:40Z</time>
      </trkpt>
      <trkpt lat="49.9472" lon="2.14228">
        <ele>15.9</ele>
        <time>2023-06-28T10:04:41Z</time>
      </trkpt>
      <trkpt lat="49.9472" lon="2.14228">
        <ele>15.9</ele>
        <time>2023-06-28T10:04:42Z</time>
      </trkpt>
      <trkpt lat="49.9472" lon="2.14228">
        <ele>15.9</ele>
        <time>2023-06-28T10:04:43Z</time>
      </trkpt>
      <trkpt lat="49.9472" lon="2.14228">
        <ele>15.9</ele>
        <time>2023-06-28T10:04:44Z</time>
      </trkpt>
      <trkpt lat="49.9472" lon="2.14228">
        <ele>15.9</ele>
        <time>2023-06-28T10:04:45Z</time>
      </trkpt>
      <trkpt lat="49.9472" lon="2.14228">
        <ele>15.9</ele>
        <time>2023-06-28T10:04:46Z</time>
      </trkpt>
      <trkpt lat="49.9472" lon="2.14228">
        <ele>15.9</ele>
        <time>2023-06-28T10:04:47Z</time>
      </trkpt>
      <trkpt lat="49.9472" lon="2.14228">
        <ele>15.9</ele>
        <time>2023-06-28T10:04:48Z</time>
      </trkpt>
      <trkpt lat="49.9472" lon="2.14228">
        <ele>15.9</ele>
        <time>2023-06-28T10:04:49Z</time>
      </trkpt>
      <trkpt lat="49.9472" lon="2.14228">
        <ele>15.9</ele>
        <time>2023-06-28T10:04:50Z</time>
      </trkpt>
      <trkpt lat="49.9472" lon="2.14228">
        <ele>15.9</ele>
        <time>2023-06-28T10:04:51Z</time>
      </trkpt>
      <trkpt lat="49.9472" lon="2.14228">
        <ele>15.9</ele>
        <time>2023-06-28T10:04:52Z</time>
      </trkpt>
      <trkpt lat="49.9472" lon="2.14228">
        <ele>15.9</ele>
        <time>2023-06-28T10:04:53Z</time>
      </trkpt>
      <trkpt lat="49.9472" lon="2.14228">
        <ele>15.9</ele>
        <time>2023-06-28T10:04:54Z</time>
      </trkpt>
      <trkpt lat="49.9472" lon="2.14228">
        <ele>15.9</ele>
        <time>2023-06-28T10:04:55Z</time>
      </trkpt>
      <trkpt lat="49.9472" lon="2.14228">
        <ele>15.9</ele>
        <time>2023-06-28T10:04:56Z</time>
      </trkpt>
      <trkpt lat="49.9472" lon="2.14228">
        <ele>15.9</ele>
        <time>2023-06-28T10:04:57Z</time>
      </trkpt>
      <trkpt lat="49.9472" lon="2.14228">
        <ele>15.9</ele>
        <time>2023-06-28T10:04:58Z</time>
      </trkpt>
      <trkpt lat="49.9472" lon="2.14228">
        <ele>15.9</ele>
        <time>2023-06-28T10:04:59Z</time>
      </trkpt>
      <trkpt lat="49.9472" lon="2.14228">
        <ele>15.9</ele>
        <time>2023-06-28T10:05:00Z</time>
      </trkpt>
      <trkpt lat="49.9472" lon="2.14228">
        <ele>15.9</ele>
        <time>2023-06-28T10:05:01Z</time>
      </trkpt>
      <trkpt lat="49.9472" lon="2.14228">
        <ele>15.9</ele>
        <time>2023-06-28T10:05:02Z</time>
      </trkpt>
      <trkpt lat="49.9472" lon="2.14228">
        <ele>15.9</ele>
        <time>2023-06-28T10:05:03Z</time>
      </trkpt>
      <trkpt lat="49.9472" lon="2.14228">
        <ele>15.9</ele>
        <time>2023-06-28T10:05:04Z</time>
      </trkpt>
      <trkpt lat="49.9472" lon="2.14228">
        <ele>15.9</ele>
        <time>2023-06-28T10:05:05Z</time>
      </trkpt>
      <trkpt lat="49.9472" lon="2.14228">
        <ele>15.9</ele>
        <time>2023-06-28T10:05:06Z</time>
      </trkpt>
      <trkpt lat="49.9472" lon="2.14228">
        <ele>15.9</ele>
        <time>2023-06-28T10:05:07Z</time>
      </trkpt>
      <trkpt lat="49.9472" lon="2.14228">
        <ele>15.9</ele>
        <time>2023-06-28T10:05:08Z</time>
      </trkpt>
      <trkpt lat="49.9472" lon="2.14228">
        <ele>15.9</ele>
        <time>2023-06-28T10:05:09Z</time>
      </trkpt>
      <trkpt lat="49.9472" lon="2.14228">
        <ele>15.9</ele>
        <time>2023-06-28T10:05:10Z</time>
      </trkpt>
      <trkpt lat="49.9472" lon="2.14228">
        <ele>15.9</ele>
        <time>2023-06-28T10:05:11Z</time>
      </trkpt>
      <trkpt lat="49.9472" lon="2.14228">
        <ele>15.9</ele>
        <time>2023-06-28T10:05:12Z</time>
      </trkpt>
      <trkpt lat="49.9472" lon="2.14228">
        <ele>15.9</ele>
        <time>2023-06-28T10:05:13Z</time>
      </trkpt>
      <trkpt lat="49.9472" lon="2.14228">
        <ele>15.9</ele>
        <time>2023-06-28T10:05:14Z</time>
      </trkpt>
      <trkpt lat="49.9472" lon="2.14228">
        <ele>15.9</ele>
        <time>2023-06-28T10:05:15Z</time>
      </trkpt>
      <trkpt lat="49.9472" lon="2.14228">
        <ele>15.9</ele>
        <time>2023-06-28T10:05:16Z</time>
      </trkpt>
      <trkpt lat="49.9472" lon="2.14228">
        <ele>15.9</ele>
        <time>2023-06-28T10:05:17Z</time>
      </trkpt>
      <trkpt lat="49.9472" lon="2.14228">
        <ele>15.9</ele>
        <time>2023-06-28T10:05:18Z</time>
      </trkpt>
      <trkpt lat="49.9472" lon="2.14228">
        <ele>15.9</ele>
        <time>2023-06-28T10:05:19Z</time>
      </trkpt>
      <trkpt lat="49.9472" lon="2.14228">
        <ele>15.9</ele>
        <time>2023-06-28T10:05:20Z</time>
      </trkpt>
      <trkpt lat="49.9472" lon="2.14228">
        <ele>15.9</ele>
        <time>2023-06-28T10:05:21Z</time>
      </trkpt>
      <trkpt lat="49.9472" lon="2.14228">
        <ele>15.9</ele>
        <time>2023-06-28T10:05:22Z</time>
      </trkpt>
      <trkpt lat="49.9472" lon="2.14228">
        <ele>15.9</ele>
        <time>2023-06-28T10:05:23Z</time>
      </trkpt>
      <trkpt lat="49.9472" lon="2.14228">
        <ele>15.9</ele>
        <time>2023-06-28T10:05:24Z</time>
      </trkpt>
      <trkpt lat="49.9472" lon="2.14228">
        <ele>15.9</ele>
        <time>2023-06-28T10:05:25Z</time>
      </trkpt>
      <trkpt lat="49.9472" lon="2.14228">
        <ele>15.9</ele>
        <time>2023-06-28T10:05:26Z</time>
      </trkpt>
      <trkpt lat="49.9472" lon="2.14228">
        <ele>15.9</ele>
        <time>2023-06-28T10:05:27Z</time>
      </trkpt>
      <trkpt lat="49.9472" lon="2.14228">
        <ele>15.9</ele>
        <time>2023-06-28T10:05:28Z</time>
      </trkpt>
      <trkpt lat="49.9472" lon="2.14228">
        <ele>15.9</ele>
        <time>2023-06-28T10:05:29Z</time>
      </trkpt>
      <trkpt lat="49.9472" lon="2.14228">
        <ele>15.9</ele>
        <time>2023-06-28T10:05:30Z</time>
      </trkpt>
      <trkpt lat="49.9472" lon="2.14228">
        <ele>15.9</ele>
        <time>2023-06-28T10:05:31Z</time>
      </trkpt>
      <trkpt lat="49.9472" lon="2.14228">
        <ele>15.9</ele>
        <time>2023-06-28T10:05:32Z</time>
      </trkpt>
      <trkpt lat="49.9472" lon="2.14228">
        <ele>15.9</ele>
        <time>2023-06-28T10:05:33Z</time>
      </trkpt>
      <trkpt lat="49.9472" lon="2.14228">
        <ele>15.9</ele>
        <time>2023-06-28T10:05:34Z</time>
      </trkpt>
      <trkpt lat="49.9472" lon="2.14228">
        <ele>15.9</ele>
        <time>2023-06-28T10:05:35Z</time>
      </trkpt>
      <trkpt lat="49.9472" lon="2.14228">
        <ele>15.9</ele>
        <time>2023-06-28T10:05:36Z</time>
      </trkpt>
      <trkpt lat="49.9472" lon="2.14228">
        <ele>15.9</ele>
        <time>2023-06-28T10:05:37Z</time>
      </trkpt>
      <trkpt lat="49.9472" lon="2.14228">
        <ele>15.9</ele>
        <time>2023-06-28T10:05:38Z</time>
      </trkpt>
      <trkpt lat="49.9472" lon="2.14228">
        <ele>15.9</ele>
        <time>2023-06-28T10:05:39Z</time>
      </trkpt>
      <trkpt lat="49.9472" lon="2.14228">
        <ele>15.9</ele>
        <time>2023-06-28T10:05:40Z</time>
      </trkpt>
      <trkpt lat="49.9472" lon="2.14228">
        <ele>15.9</ele>
        <time>2023-06-28T10:05:41Z</time>
      </trkpt>
      <trkpt lat="49.9472" lon="2.14228">
        <ele>15.9</ele>
        <time>2023-06-28T10:05:42Z</time>
      </trkpt>
      <trkpt lat="49.9472" lon="2.14228">
        <ele>15.9</ele>
        <time>2023-06-28T10:05:43Z</time>
      </trkpt>
      <trkpt lat="49.9472" lon="2.14228">
        <ele>15.9</ele>
        <time>2023-06-28T10:05:44Z</time>
      </trkpt>
      <trkpt lat="49.9472" lon="2.14228">
        <ele>15.9</ele>
        <time>2023-06-28T10:05:45Z</time>
      </trkpt>
      <trkpt lat="49.9472" lon="2.14228">
        <ele>15.9</ele>
        <time>2023-06-28T10:05:46Z</time>
      </trkpt>
      <trkpt lat="49.9472" lon="2.14228">
        <ele>15.9</ele>
        <time>2023-06-28T10:05:47Z</time>
      </trkpt>
      <trkpt lat="49.9472" lon="2.14228">
        <ele>15.9</ele>
        <time>2023-06-28T10:05:48Z</time>
      </trkpt>
      <trkpt lat="49.9472" lon="2.14228">
        <ele>15.9</ele>
        <time>2023-06-28T10:05:49Z</time>
      </trkpt>
      <trkpt lat="49.9472" lon="2.14228">
        <ele>15.9</ele>
        <time>2023-06-28T10:05:50Z</time>
      </trkpt>
      <trkpt lat="49.9472" lon="2.14228">
        <ele>15.9</ele>
        <time>2023-06-28T10:05:51Z</time>
      </trkpt>
      <trkpt lat="49.9472" lon="2.14228">
        <ele>15.9</ele>
        <time>2023-06-28T10:05:52Z</time>
      </trkpt>
      <trkpt lat="49.9472" lon="2.14228">
        <ele>15.9</ele>
        <time>2023-06-28T10:05:53Z</time>
      </trkpt>
      <trkpt lat="49.9472" lon="2.14228">
        <ele>15.9</ele>
        <time>2023-06-28T10:05:54Z</time>
      </trkpt>
      <trkpt lat="49.9472" lon="2.14228">
        <ele>15.9</ele>
        <time>2023-06-28T10:05:55Z</time>
      </trkpt>
      <trkpt lat="49.9472" lon="2.14228">
        <ele>15.9</ele>
        <time>2023-06-28T10:05:56Z</time>
      </trkpt>
      <trkpt lat="49.9472" lon="2.14228">
        <ele>15.9</ele>
        <time>2023-06-28T10:05:57Z</time>
      </trkpt>
      <trkpt lat="49.9472" lon="2.14228">
        <ele>15.9</ele>
        <time>2023-06-28T10:05:58Z</time>
      </trkpt>
      <trkpt lat="49.9472" lon="2.14228">
        <ele>15.9</ele>
        <time>2023-06-28T10:05:59Z</time>
      </trkpt>
      <trkpt lat="49.9472" lon="2.14228">
        <ele>15.9</ele>
        <time>2023-06-28T10:06:00Z</time>
      </trkpt>
      <trkpt lat="49.9472" lon="2.14228">
        <ele>15.9</ele>
        <time>2023-06-28T10:06:01Z</time>
      </trkpt>
      <trkpt lat="49.9472" lon="2.14228">
        <ele>15.9</ele>
        <time>2023-06-28T10:06:02Z</time>
      </trkpt>
      <trkpt lat="49.9472" lon="2.14228">
        <ele>15.9</ele>
        <time>2023-06-28T10:06:03Z</time>
      </trkpt>
      <trkpt lat="49.9472" lon="2.14228">
        <ele>15.9</ele>
        <time>2023-06-28T10:06:04Z</time>
      </trkpt>
      <trkpt lat="49.9472" lon="2.14228">
        <ele>15.9</ele>
        <time>2023-06-28T10:06:05Z</time>
      </trkpt>
      <trkpt lat="49.9472" lon="2.14228">
        <ele>15.9</ele>
        <time>2023-06-28T10:06:06Z</time>
      </trkpt>
      <trkpt lat="49.9472" lon="2.14228">
        <ele>15.9</ele>
        <time>2023-06-28T10:06:07Z</time>
      </trkpt>
      <trkpt lat="49.9472" lon="2.14228">
        <ele>15.9</ele>
        <time>2023-06-28T10:06:08Z</time>
      </trkpt>
      <trkpt lat="49.9472" lon="2.14228">
        <ele>15.9</ele>
        <time>2023-06-28T10:06:09Z</time>
      </trkpt>
      <trkpt lat="49.9472" lon="2.14228">
        <ele>15.9</ele>
        <time>2023-06-28T10:06:10Z</time>
      </trkpt>
      <trkpt lat="49.9472" lon="2.14228">
        <ele>15.9</ele>
        <time>2023-06-28T10:06:11Z</time>
      </trkpt>
      <trkpt lat="49.9472" lon="2.14228">
        <ele>15.9</ele>
        <time>2023-06-28T10:06:12Z</time>
      </trkpt>
      <trkpt lat="49.9472" lon="2.14228">
        <ele>15.9</ele>
        <time>2023-06-28T10:06:13Z</time>
      </trkpt>
      <trkpt lat="49.9472" lon="2.14228">
        <ele>15.9</ele>
        <time>2023-06-28T10:06:14Z</time>
      </trkpt>
      <trkpt lat="49.9472" lon="2.14228">
        <ele>15.9</ele>
        <time>2023-06-28T10:06:15Z</time>
      </trkpt>
      <trkpt lat="49.9472" lon="2.14228">
        <ele>15.9</ele>
        <time>2023-06-28T10:06:16Z</time>
      </trkpt>
      <trkpt lat="49.9472" lon="2.14228">
        <ele>15.9</ele>
        <time>2023-06-28T10:06:17Z</time>
      </trkpt>
      <trkpt lat="49.9472" lon="2.14228">
        <ele>15.9</ele>
        <time>2023-06-28T10:06:18Z</time>
      </trkpt>
      <trkpt lat="49.9472" lon="2.14228">
        <ele>15.9</ele>
        <time>2023-06-28T10:06:19Z</time>
      </trkpt>
      <trkpt lat="49.9472" lon="2.14228">
        <ele>15.9</ele>
        <time>2023-06-28T10:06:20Z</time>
      </trkpt>
      <trkpt lat="49.9472" lon="2.14228">
        <ele>15.9</ele>
        <time>2023-06-28T10:06:21Z</time>
      </trkpt>
      <trkpt lat="49.9472" lon="2.14228">
        <ele>15.9</ele>
        <time>2023-06-28T10:06:22Z</time>
      </trkpt>
      <trkpt lat="49.9472" lon="2.14228">
        <ele>15.9</ele>
        <time>2023-06-28T10:06:23Z</time>
      </trkpt>
      <trkpt lat="49.9472" lon="2.14228">
        <ele>15.9</ele>
        <time>2023-06-28T10:06:24Z</time>
      </trkpt>
      <trkpt lat="49.9472" lon="2.14228">
        <ele>15.9</ele>
        <time>2023-06-28T10:06:25Z</time>
      </trkpt>
      <trkpt lat="49.9472" lon="2.14228">
        <ele>15.9</ele>
        <time>2023-06-28T10:06:26Z</time>
      </trkpt>
      <trkpt lat="49.9472" lon="2.14228">
        <ele>15.9</ele>
        <time>2023-06-28T10:06:27Z</time>
      </trkpt>
      <trkpt lat="49.9472" lon="2.14228">
        <ele>15.9</ele>
        <time>2023-06-28T10:06:28Z</time>
      </trkpt>
      <trkpt lat="49.9472" lon="2.14228">
        <ele>15.9</ele>
        <time>2023-06-28T10:06:29Z</time>
      </trkpt>
      <trkpt lat="49.9472" lon="2.14228">
        <ele>15.9</ele>
        <time>2023-06-28T10:06:30Z</time>
      </trkpt>
      <trkpt lat="49.9472" lon="2.14228">
        <ele>15.9</ele>
        <time>2023-06-28T10:06:31Z</time>
      </trkpt>
      <trkpt lat="49.9472" lon="2.14228">
        <ele>15.9</ele>
        <time>2023-06-28T10:06:32Z</time>
      </trkpt>
      <trkpt lat="49.9472" lon="2.14228">
        <ele>15.9</ele>
        <time>2023-06-28T10:06:33Z</time>
      </trkpt>
      <trkpt lat="49.9472" lon="2.14228">
        <ele>15.9</ele>
        <time>2023-06-28T10:06:34Z</time>
      </trkpt>
      <trkpt lat="49.9472" lon="2.14228">
        <ele>15.9</ele>
        <time>2023-06-28T10:06:35Z</time>
      </trkpt>
      <trkpt lat="49.9472" lon="2.14228">
        <ele>15.9</ele>
        <time>2023-06-28T10:06:36Z</time>
      </trkpt>
      <trkpt lat="49.9472" lon="2.14228">
        <ele>15.9</ele>
        <time>2023-06-28T10:06:37Z</time>
      </trkpt>
      <trkpt lat="49.9472" lon="2.14228">
        <ele>15.9</ele>
        <time>2023-06-28T10:06:38Z</time>
      </trkpt>
      <trkpt lat="49.9472" lon="2.14228">
        <ele>15.9</ele>
        <time>2023-06-28T10:06:39Z</time>
      </trkpt>
      <trkpt lat="49.9472" lon="2.14228">
        <ele>15.9</ele>
        <time>2023-06-28T10:06:40Z</time>
      </trkpt>
      <trkpt lat="49.9472" lon="2.14228">
        <ele>15.9</ele>
        <time>2023-06-28T10:06:41Z</time>
      </trkpt>
      <trkpt lat="49.9472" lon="2.14228">
        <ele>15.9</ele>
        <time>2023-06-28T10:06:42Z</time>
      </trkpt>
      <trkpt lat="49.9472" lon="2.14228">
        <ele>15.9</ele>
        <time>2023-06-28T10:06:43Z</time>
      </trkpt>
      <trkpt lat="49.9472" lon="2.14228">
        <ele>15.9</ele>
        <time>2023-06-28T10:06:44Z</time>
      </trkpt>
      <trkpt lat="49.9472" lon="2.14228">
        <ele>15.9</ele>
        <time>2023-06-28T10:06:45Z</time>
      </trkpt>
      <trkpt lat="49.9472" lon="2.14228">
        <ele>15.9</ele>
        <time>2023-06-28T10:06:46Z</time>
      </trkpt>
      <trkpt lat="49.9472" lon="2.14228">
        <ele>15.9</ele>
        <time>2023-06-28T10:06:47Z</time>
      </trkpt>
      <trkpt lat="49.9472" lon="2.14228">
        <ele>15.9</ele>
        <time>2023-06-28T10:06:48Z</time>
      </trkpt>
      <trkpt lat="49.9472" lon="2.14228">
        <ele>15.9</ele>
        <time>2023-06-28T10:06:49Z</time>
      </trkpt>
      <trkpt lat="49.9472" lon="2.14228">
        <ele>15.9</ele>
        <time>2023-06-28T10:06:50Z</time>
      </trkpt>
      <trkpt lat="49.9472" lon="2.14228">
        <ele>15.9</ele>
        <time>2023-06-28T10:06:51Z</time>
      </trkpt>
      <trkpt lat="49.9472" lon="2.14228">
        <ele>15.9</ele>
        <time>2023-06-28T10:06:52Z</time>
      </trkpt>
      <trkpt lat="49.9472" lon="2.14228">
        <ele>15.9</ele>
        <time>2023-06-28T10:06:53Z</time>
      </trkpt>
      <trkpt lat="49.9472" lon="2.14228">
        <ele>15.9</ele>
        <time>2023-06-28T10:06:54Z</time>
      </trkpt>
      <trkpt lat="49.9472" lon="2.14228">
        <ele>15.9</ele>
        <time>2023-06-28T10:06:55Z</time>
      </trkpt>
      <trkpt lat="49.9472" lon="2.14228">
        <ele>15.9</ele>
        <time>2023-06-28T10:06:56Z</time>
      </trkpt>
      <trkpt lat="49.9472" lon="2.14228">
        <ele>15.9</ele>
        <time>2023-06-28T10:06:57Z</time>
      </trkpt>
      <trkpt lat="49.9472" lon="2.14228">
        <ele>15.9</ele>
        <time>2023-06-28T10:06:58Z</time>
      </trkpt>
      <trkpt lat="49.9472" lon="2.14228">
        <ele>15.9</ele>
        <time>2023-06-28T10:06:59Z</time>
      </trkpt>
      <trkpt lat="49.9472" lon="2.14228">
        <ele>15.9</ele>
        <time>2023-06-28T10:07:00Z</time>
      </trkpt>
      <trkpt lat="49.9472" lon="2.14228">
        <ele>15.9</ele>
        <time>2023-06-28T10:07:01Z</time>
      </trkpt>
      <trkpt lat="49.9472" lon="2.14228">
        <ele>15.9</ele>
        <time>2023-06-28T10:07:02Z</time>
      </trkpt>
      <trkpt lat="49.9472" lon="2.14228">
        <ele>15.9</ele>
        <time>2023-06-28T10:07:03Z</time>
      </trkpt>
      <trkpt lat="49.9472" lon="2.14228">
        <ele>15.9</ele>
        <time>2023-06-28T10:07:04Z</time>
      </trkpt>
      <trkpt lat="49.9472" lon="2.14228">
        <ele>15.9</ele>
        <time>2023-06-28T10:07:05Z</time>
      </trkpt>
      <trkpt lat="49.9472" lon="2.14228">
        <ele>15.9</ele>
        <time>2023-06-28T10:07:06Z</time>
      </trkpt>
      <trkpt lat="49.9472" lon="2.14228">
        <ele>15.9</ele>
        <time>2023-06-28T10:07:07Z</time>
      </trkpt>
      <trkpt lat="49.9472" lon="2.14228">
        <ele>15.9</ele>
        <time>2023-06-28T10:07:08Z</time>
      </trkpt>
      <trkpt lat="49.9472" lon="2.14228">
        <ele>15.9</ele>
        <time>2023-06-28T10:07:09Z</time>
      </trkpt>
      <trkpt lat="49.9472" lon="2.14228">
        <ele>15.9</ele>
        <time>2023-06-28T10:07:10Z</time>
      </trkpt>
      <trkpt lat="49.9472" lon="2.14228">
        <ele>15.9</ele>
        <time>2023-06-28T10:07:11Z</time>
      </trkpt>
      <trkpt lat="49.9472" lon="2.14228">
        <ele>15.9</ele>
        <time>2023-06-28T10:07:12Z</time>
      </trkpt>
      <trkpt lat="49.9472" lon="2.14228">
        <ele>15.9</ele>
        <time>2023-06-28T10:07:13Z</time>
      </trkpt>
      <trkpt lat="49.9472" lon="2.14228">
        <ele>15.9</ele>
        <time>2023-06-28T10:07:14Z</time>
      </trkpt>
      <trkpt lat="49.9472" lon="2.14228">
        <ele>15.9</ele>
        <time>2023-06-28T10:07:15Z</time>
      </trkpt>
      <trkpt lat="49.9472" lon="2.14228">
        <ele>15.9</ele>
        <time>2023-06-28T10:07:16Z</time>
      </trkpt>
      <trkpt lat="49.9472" lon="2.14228">
        <ele>15.9</ele>
        <time>2023-06-28T10:07:17Z</time>
      </trkpt>
      <trkpt lat="49.9472" lon="2.14228">
        <ele>15.9</ele>
        <time>2023-06-28T10:07:18Z</time>
      </trkpt>
      <trkpt lat="49.9472" lon="2.14228">
        <ele>15.9</ele>
        <time>2023-06-28T10:07:19Z</time>
      </trkpt>
      <trkpt lat="49.9472" lon="2.14228">
        <ele>15.9</ele>
        <time>2023-06-28T10:07:20Z</time>
      </trkpt>
      <trkpt lat="49.9472" lon="2.14228">
        <ele>15.9</ele>
        <time>2023-06-28T10:07:21Z</time>
      </trkpt>
      <trkpt lat="49.9472" lon="2.14228">
        <ele>15.9</ele>
        <time>2023-06-28T10:07:22Z</time>
      </trkpt>
      <trkpt lat="49.9472" lon="2.14228">
        <ele>15.9</ele>
        <time>2023-06-28T10:07:23Z</time>
      </trkpt>
      <trkpt lat="49.9472" lon="2.14228">
        <ele>15.9</ele>
        <time>2023-06-28T10:07:24Z</time>
      </trkpt>
      <trkpt lat="49.9472" lon="2.14228">
        <ele>15.9</ele>
        <time>2023-06-28T10:07:25Z</time>
      </trkpt>
      <trkpt lat="49.9472" lon="2.14228">
        <ele>15.9</ele>
        <time>2023-06-28T10:07:26Z</time>
      </trkpt>
      <trkpt lat="49.9472" lon="2.14228">
        <ele>15.9</ele>
        <time>2023-06-28T10:07:27Z</time>
      </trkpt>
      <trkpt lat="49.9472" lon="2.14228">
        <ele>15.9</ele>
        <time>2023-06-28T10:07:28Z</time>
      </trkpt>
      <trkpt lat="49.9472" lon="2.14228">
        <ele>15.9</ele>
        <time>2023-06-28T10:07:29Z</time>
      </trkpt>
      <trkpt lat="49.9472" lon="2.14228">
        <ele>15.9</ele>
        <time>2023-06-28T10:07:30Z</time>
      </trkpt>
      <trkpt lat="49.9472" lon="2.14228">
        <ele>15.9</ele>
        <time>2023-06-28T10:07:31Z</time>
      </trkpt>
      <trkpt lat="49.9472" lon="2.14228">
        <ele>15.9</ele>
        <time>2023-06-28T10:07:32Z</time>
      </trkpt>
      <trkpt lat="49.9472" lon="2.14228">
        <ele>15.9</ele>
        <time>2023-06-28T10:07:33Z</time>
      </trkpt>
      <trkpt lat="49.9472" lon="2.14228">
        <ele>15.9</ele>
        <time>2023-06-28T10:07:34Z</time>
      </trkpt>
      <trkpt lat="49.9472" lon="2.14228">
        <ele>15.9</ele>
        <time>2023-06-28T10:07:35Z</time>
      </trkpt>
      <trkpt lat="49.9472" lon="2.14228">
        <ele>15.9</ele>
        <time>2023-06-28T10:07:36Z</time>
      </trkpt>
      <trkpt lat="49.9472" lon="2.14228">
        <ele>15.9</ele>
        <time>2023-06-28T10:07:37Z</time>
      </trkpt>
      <trkpt lat="49.9472" lon="2.14228">
        <ele>15.9</ele>
        <time>2023-06-28T10:07:38Z</time>
      </trkpt>
      <trkpt lat="49.9472" lon="2.14228">
        <ele>15.9</ele>
        <time>2023-06-28T10:07:39Z</time>
      </trkpt>
      <trkpt lat="49.9472" lon="2.14228">
        <ele>15.9</ele>
        <time>2023-06-28T10:07:40Z</time>
      </trkpt>
      <trkpt lat="49.9472" lon="2.14228">
        <ele>15.9</ele>
        <time>2023-06-28T10:07:41Z</time>
      </trkpt>
      <trkpt lat="49.9472" lon="2.14228">
        <ele>15.9</ele>
        <time>2023-06-28T10:07:42Z</time>
      </trkpt>
      <trkpt lat="49.9472" lon="2.14228">
        <ele>15.9</ele>
        <time>2023-06-28T10:07:43Z</time>
      </trkpt>
      <trkpt lat="49.9472" lon="2.14228">
        <ele>15.9</ele>
        <time>2023-06-28T10:07:44Z</time>
      </trkpt>
      <trkpt lat="49.9472" lon="2.14228">
        <ele>15.9</ele>
        <time>2023-06-28T10:07:45Z</time>
      </trkpt>
      <trkpt lat="49.9472" lon="2.14228">
        <ele>15.9</ele>
        <time>2023-06-28T10:07:46Z</time>
      </trkpt>
      <trkpt lat="49.9472" lon="2.14228">
        <ele>15.9</ele>
        <time>2023-06-28T10:07:47Z</time>
      </trkpt>
      <trkpt lat="49.9472" lon="2.14228">
        <ele>15.9</ele>
        <time>2023-06-28T10:07:48Z</time>
      </trkpt>
      <trkpt lat="49.9472" lon="2.14228">
        <ele>15.9</ele>
        <time>2023-06-28T10:07:49Z</time>
      </trkpt>
      <trkpt lat="49.9472" lon="2.14228">
        <ele>15.9</ele>
        <time>2023-06-28T10:07:50Z</time>
      </trkpt>
      <trkpt lat="49.9472" lon="2.14228">
        <ele>15.9</ele>
        <time>2023-06-28T10:07:51Z</time>
      </trkpt>
      <trkpt lat="49.9472" lon="2.14228">
        <ele>15.9</ele>
        <time>2023-06-28T10:07:52Z</time>
      </trkpt>
      <trkpt lat="49.9472" lon="2.14228">
        <ele>15.9</ele>
        <time>2023-06-28T10:07:53Z</time>
      </trkpt>
      <trkpt lat="49.9472" lon="2.14228">
        <ele>15.9</ele>
        <time>2023-06-28T10:07:54Z</time>
      </trkpt>
      <trkpt lat="49.9472" lon="2.14228">
        <ele>15.9</ele>
        <time>2023-06-28T10:07:55Z</time>
      </trkpt>
      <trkpt lat="49.9472" lon="2.14228">
        <ele>15.9</ele>
        <time>2023-06-28T10:07:56Z</time>
      </trkpt>
      <trkpt lat="49.9472" lon="2.14228">
        <ele>15.9</ele>
        <time>2023-06-28T10:07:57Z</time>
      </trkpt>
      <trkpt lat="49.9472" lon="2.14228">
        <ele>15.9</ele>
        <time>2023-06-28T10:07:58Z</time>
      </trkpt>
      <trkpt lat="49.9472" lon="2.14228">
        <ele>15.9</ele>
        <time>2023-06-28T10:07:59Z</time>
      </trkpt>
      <trkpt lat="49.9472" lon="2.14228">
        <ele>15.9</ele>
        <time>2023-06-28T10:08:00Z</time>
      </trkpt>
      <trkpt lat="49.9472" lon="2.14228">
        <ele>15.9</ele>
        <time>2023-06-28T10:08:01Z</time>
      </trkpt>
      <trkpt lat="49.9472" lon="2.14228">
        <ele>15.9</ele>
        <time>2023-06-28T10:08:02Z</time>
      </trkpt>
      <trkpt lat="49.9472" lon="2.14228">
        <ele>15.9</ele>
        <time>2023-06-28T10:08:03Z</time>
      </trkpt>
      <trkpt lat="49.9472" lon="2.14228">
        <ele>15.9</ele>
        <time>2023-06-28T10:08:04Z</time>
      </trkpt>
      <trkpt lat="49.9472" lon="2.14228">
        <ele>15.9</ele>
        <time>2023-06-28T10:08:05Z</time>
      </trkpt>
      <trkpt lat="49.9472" lon="2.14228">
        <ele>15.9</ele>
        <time>2023-06-28T10:08:06Z</time>
      </trkpt>
      <trkpt lat="49.9472" lon="2.14228">
        <ele>15.9</ele>
        <time>2023-06-28T10:08:07Z</time>
      </trkpt>
      <trkpt lat="49.9472" lon="2.14228">
        <ele>15.9</ele>
        <time>2023-06-28T10:08:08Z</time>
      </trkpt>
      <trkpt lat="49.9472" lon="2.14228">
        <ele>15.9</ele>
        <time>2023-06-28T10:08:09Z</time>
      </trkpt>
      <trkpt lat="49.9472" lon="2.14228">
        <ele>15.9</ele>
        <time>2023-06-28T10:08:10Z</time>
      </trkpt>
      <trkpt lat="49.9472" lon="2.14228">
        <ele>15.9</ele>
        <time>2023-06-28T10:08:11Z</time>
      </trkpt>
      <trkpt lat="49.9472" lon="2.14228">
        <ele>15.9</ele>
        <time>2023-06-28T10:08:12Z</time>
      </trkpt>
      <trkpt lat="49.9472" lon="2.14228">
        <ele>15.9</ele>
        <time>2023-06-28T10:08:13Z</time>
      </trkpt>
      <trkpt lat="49.9472" lon="2.14228">
        <ele>15.9</ele>
        <time>2023-06-28T10:08:14Z</time>
      </trkpt>
      <trkpt lat="49.9472" lon="2.14228">
        <ele>15.9</ele>
        <time>2023-06-28T10:08:15Z</time>
      </trkpt>
      <trkpt lat="49.9472" lon="2.14228">
        <ele>15.9</ele>
        <time>2023-06-28T10:08:16Z</time>
      </trkpt>
      <trkpt lat="49.9472" lon="2.14228">
        <ele>15.9</ele>
        <time>2023-06-28T10:08:17Z</time>
      </trkpt>
      <trkpt lat="49.9472" lon="2.14228">
        <ele>15.9</ele>
        <time>2023-06-28T10:08:18Z</time>
      </trkpt>
      <trkpt lat="49.9472" lon="2.14228">
        <ele>15.9</ele>
        <time>2023-06-28T10:08:19Z</time>
      </trkpt>
      <trkpt lat="49.9472" lon="2.14228">
        <ele>15.9</ele>
        <time>2023-06-28T10:08:20Z</time>
      </trkpt>
      <trkpt lat="49.9472" lon="2.14228">
        <ele>15.9</ele>
        <time>2023-06-28T10:08:21Z</time>
      </trkpt>
      <trkpt lat="49.9472" lon="2.14228">
        <ele>15.9</ele>
        <time>2023-06-28T10:08:22Z</time>
      </trkpt>
      <trkpt lat="49.9472" lon="2.14228">
        <ele>15.9</ele>
        <time>2023-06-28T10:08:23Z</time>
      </trkpt>
      <trkpt lat="49.9472" lon="2.14228">
        <ele>15.9</ele>
        <time>2023-06-28T10:08:24Z</time>
      </trkpt>
      <trkpt lat="49.9472" lon="2.14228">
        <ele>15.9</ele>
        <time>2023-06-28T10:08:25Z</time>
      </trkpt>
      <trkpt lat="49.9472" lon="2.14228">
        <ele>15.9</ele>
        <time>2023-06-28T10:08:26Z</time>
      </trkpt>
      <trkpt lat="49.9472" lon="2.14228">
        <ele>15.9</ele>
        <time>2023-06-28T10:08:27Z</time>
      </trkpt>
      <trkpt lat="49.9472" lon="2.14228">
        <ele>15.9</ele>
        <time>2023-06-28T10:08:28Z</time>
      </trkpt>
      <trkpt lat="49.9472" lon="2.14228">
        <ele>15.9</ele>
        <time>2023-06-28T10:08:29Z</time>
      </trkpt>
      <trkpt lat="49.9472" lon="2.14228">
        <ele>15.9</ele>
        <time>2023-06-28T10:08:30Z</time>
      </trkpt>
      <trkpt lat="49.9472" lon="2.14228">
        <ele>15.9</ele>
        <time>2023-06-28T10:08:31Z</time>
      </trkpt>
      <trkpt lat="49.9472" lon="2.14228">
        <ele>15.9</ele>
        <time>2023-06-28T10:08:32Z</time>
      </trkpt>
      <trkpt lat="49.9472" lon="2.14228">
        <ele>15.9</ele>
        <time>2023-06-28T10:08:33Z</time>
      </trkpt>
      <trkpt lat="49.9472" lon="2.14228">
        <ele>15.9</ele>
        <time>2023-06-28T10:08:34Z</time>
      </trkpt>
      <trkpt lat="49.9472" lon="2.14228">
        <ele>15.9</ele>
        <time>2023-06-28T10:08:35Z</time>
      </trkpt>
      <trkpt lat="49.9472" lon="2.14228">
        <ele>15.9</ele>
        <time>2023-06-28T10:08:36Z</time>
      </trkpt>
      <trkpt lat="49.9472" lon="2.14228">
        <ele>15.9</ele>
        <time>2023-06-28T10:08:37Z</time>
      </trkpt>
      <trkpt lat="49.9472" lon="2.14228">
        <ele>15.9</ele>
        <time>2023-06-28T10:08:38Z</time>
      </trkpt>
      <trkpt lat="49.9472" lon="2.14228">
        <ele>15.9</ele>
        <time>2023-06-28T10:08:39Z</time>
      </trkpt>
      <trkpt lat="49.9472" lon="2.14228">
        <ele>15.9</ele>
        <time>2023-06-28T10:08:40Z</time>
      </trkpt>
      <trkpt lat="49.9472" lon="2.14228">
        <ele>15.9</ele>
        <time>2023-06-28T10:08:41Z</time>
      </trkpt>
      <trkpt lat="49.9472" lon="2.14228">
        <ele>15.9</ele>
        <time>2023-06-28T10:08:42Z</time>
      </trkpt>
      <trkpt lat="49.9472" lon="2.14228">
        <ele>15.9</ele>
        <time>2023-06-28T10:08:43Z</time>
      </trkpt>
      <trkpt lat="49.9472" lon="2.14228">
        <ele>15.9</ele>
        <time>2023-06-28T10:08:44Z</time>
      </trkpt>
      <trkpt lat="49.9472" lon="2.14228">
        <ele>15.9</ele>
        <time>2023-06-28T10:08:45Z</time>
      </trkpt>
      <trkpt lat="49.9472" lon="2.14228">
        <ele>15.9</ele>
        <time>2023-06-28T10:08:46Z</time>
      </trkpt>
      <trkpt lat="49.9472" lon="2.14228">
        <ele>15.9</ele>
        <time>2023-06-28T10:08:47Z</time>
      </trkpt>
      <trkpt lat="49.9472" lon="2.14228">
        <ele>15.9</ele>
        <time>2023-06-28T10:08:48Z</time>
      </trkpt>
      <trkpt lat="49.9472" lon="2.14228">
        <ele>15.9</ele>
        <time>2023-06-28T10:08:49Z</time>
      </trkpt>
      <trkpt lat="49.9472" lon="2.14228">
        <ele>15.9</ele>
        <time>2023-06-28T10:08:50Z</time>
      </trkpt>
      <trkpt lat="49.9472" lon="2.14228">
        <ele>15.9</ele>
        <time>2023-06-28T10:08:51Z</time>
      </trkpt>
      <trkpt lat="49.9472" lon="2.14228">
        <ele>15.9</ele>
        <time>2023-06-28T10:08:52Z</time>
      </trkpt>
      <trkpt lat="49.9472" lon="2.14228">
        <ele>15.9</ele>
        <time>2023-06-28T10:08:53Z</time>
      </trkpt>
      <trkpt lat="49.9472" lon="2.14228">
        <ele>15.9</ele>
        <time>2023-06-28T10:08:54Z</time>
      </trkpt>
      <trkpt lat="49.9472" lon="2.14228">
        <ele>15.9</ele>
        <time>2023-06-28T10:08:55Z</time>
      </trkpt>
      <trkpt lat="49.9472" lon="2.14228">
        <ele>15.9</ele>
        <time>2023-06-28T10:08:56Z</time>
      </trkpt>
      <trkpt lat="49.9472" lon="2.14228">
        <ele>15.9</ele>
        <time>2023-06-28T10:08:57Z</time>
      </trkpt>
      <trkpt lat="49.9472" lon="2.14228">
        <ele>15.9</ele>
        <time>2023-06-28T10:08:58Z</time>
      </trkpt>
      <trkpt lat="49.9472" lon="2.14228">
        <ele>15.9</ele>
        <time>2023-06-28T10:08:59Z</time>
      </trkpt>
      <trkpt lat="49.9472" lon="2.14228">
        <ele>15.9</ele>
        <time>2023-06-28T10:09:00Z</time>
      </trkpt>
      <trkpt lat="49.9472" lon="2.14228">
        <ele>15.9</ele>
        <time>2023-06-28T10:09:01Z</time>
      </trkpt>
      <trkpt lat="49.9472" lon="2.14228">
        <ele>15.9</ele>
        <time>2023-06-28T10:09:02Z</time>
      </trkpt>
      <trkpt lat="49.9472" lon="2.14228">
        <ele>15.9</ele>
        <time>2023-06-28T10:09:03Z</time>
      </trkpt>
      <trkpt lat="49.9472" lon="2.14228">
        <ele>15.9</ele>
        <time>2023-06-28T10:09:04Z</time>
      </trkpt>
      <trkpt lat="49.9472" lon="2.14228">
        <ele>15.9</ele>
        <time>2023-06-28T10:09:05Z</time>
      </trkpt>
      <trkpt lat="49.9472" lon="2.14228">
        <ele>15.9</ele>
        <time>2023-06-28T10:09:06Z</time>
      </trkpt>
      <trkpt lat="49.9472" lon="2.14228">
        <ele>15.9</ele>
        <time>2023-06-28T10:09:07Z</time>
      </trkpt>
      <trkpt lat="49.9472" lon="2.14228">
        <ele>15.9</ele>
        <time>2023-06-28T10:09:08Z</time>
      </trkpt>
      <trkpt lat="49.9472" lon="2.14228">
        <ele>15.9</ele>
        <time>2023-06-28T10:09:09Z</time>
      </trkpt>
      <trkpt lat="49.9472" lon="2.14228">
        <ele>15.9</ele>
        <time>2023-06-28T10:09:10Z</time>
      </trkpt>
      <trkpt lat="49.9472" lon="2.14228">
        <ele>15.9</ele>
        <time>2023-06-28T10:09:11Z</time>
      </trkpt>
      <trkpt lat="49.9472" lon="2.14228">
        <ele>15.9</ele>
        <time>2023-06-28T10:09:12Z</time>
      </trkpt>
      <trkpt lat="49.9472" lon="2.14228">
        <ele>15.9</ele>
        <time>2023-06-28T10:09:13Z</time>
      </trkpt>
      <trkpt lat="49.9472" lon="2.14228">
        <ele>15.9</ele>
        <time>2023-06-28T10:09:14Z</time>
      </trkpt>
      <trkpt lat="49.9472" lon="2.14228">
        <ele>15.9</ele>
        <time>2023-06-28T10:09:15Z</time>
      </trkpt>
      <trkpt lat="49.9472" lon="2.14228">
        <ele>15.9</ele>
        <time>2023-06-28T10:09:16Z</time>
      </trkpt>
      <trkpt lat="49.9472" lon="2.14228">
        <ele>15.9</ele>
        <time>2023-06-28T10:09:17Z</time>
      </trkpt>
      <trkpt lat="49.9472" lon="2.14228">
        <ele>15.9</ele>
        <time>2023-06-28T10:09:18Z</time>
      </trkpt>
      <trkpt lat="49.9472" lon="2.14228">
        <ele>15.9</ele>
        <time>2023-06-28T10:09:19Z</time>
      </trkpt>
      <trkpt lat="49.9472" lon="2.14228">
        <ele>15.9</ele>
        <time>2023-06-28T10:09:20Z</time>
      </trkpt>
      <trkpt lat="49.9472" lon="2.14228">
        <ele>15.9</ele>
        <time>2023-06-28T10:09:21Z</time>
      </trkpt>
      <trkpt lat="49.9472" lon="2.14228">
        <ele>15.9</ele>
        <time>2023-06-28T10:09:22Z</time>
      </trkpt>
      <trkpt lat="49.9472" lon="2.14228">
        <ele>15.9</ele>
        <time>2023-06-28T10:09:23Z</time>
      </trkpt>
      <trkpt lat="49.9472" lon="2.14228">
        <ele>15.9</ele>
        <time>2023-06-28T10:09:24Z</time>
      </trkpt>
      <trkpt lat="49.9472" lon="2.14228">
        <ele>15.9</ele>
        <time>2023-06-28T10:09:25Z</time>
      </trkpt>
      <trkpt lat="49.9472" lon="2.14228">
        <ele>15.9</ele>
        <time>2023-06-28T10:09:26Z</time>
      </trkpt>
      <trkpt lat="49.9472" lon="2.14228">
        <ele>15.9</ele>
        <time>2023-06-28T10:09:27Z</time>
      </trkpt>
      <trkpt lat="49.9472" lon="2.14228">
        <ele>15.9</ele>
        <time>2023-06-28T10:09:28Z</time>
      </trkpt>
      <trkpt lat="49.9472" lon="2.14228">
        <ele>15.9</ele>
        <time>2023-06-28T10:09:29Z</time>
      </trkpt>
      <trkpt lat="49.9472" lon="2.14228">
        <ele>15.9</ele>
        <time>2023-06-28T10:09:30Z</time>
      </trkpt>
      <trkpt lat="49.9472" lon="2.14228">
        <ele>15.9</ele>
        <time>2023-06-28T10:09:31Z</time>
      </trkpt>
      <trkpt lat="49.9472" lon="2.14228">
        <ele>15.9</ele>
        <time>2023-06-28T10:09:32Z</time>
      </trkpt>
      <trkpt lat="49.9472" lon="2.14228">
        <ele>15.9</ele>
        <time>2023-06-28T10:09:33Z</time>
      </trkpt>
      <trkpt lat="49.9472" lon="2.14228">
        <ele>15.9</ele>
        <time>2023-06-28T10:09:34Z</time>
      </trkpt>
      <trkpt lat="49.9472" lon="2.14228">
        <ele>15.9</ele>
        <time>2023-06-28T10:09:35Z</time>
      </trkpt>
      <trkpt lat="49.9472" lon="2.14228">
        <ele>15.9</ele>
        <time>2023-06-28T10:09:36Z</time>
      </trkpt>
      <trkpt lat="49.9472" lon="2.14228">
        <ele>15.9</ele>
        <time>2023-06-28T10:09:37Z</time>
      </trkpt>
      <trkpt lat="49.9472" lon="2.14228">
        <ele>15.9</ele>
        <time>2023-06-28T10:09:38Z</time>
      </trkpt>
      <trkpt lat="49.9472" lon="2.14228">
        <ele>15.9</ele>
        <time>2023-06-28T10:09:39Z</time>
      </trkpt>
      <trkpt lat="49.9472" lon="2.14228">
        <ele>15.9</ele>
        <time>2023-06-28T10:09:40Z</time>
      </trkpt>
      <trkpt lat="49.9472" lon="2.14228">
        <ele>15.9</ele>
        <time>2023-06-28T10:09:41Z</time>
      </trkpt>
      <trkpt lat="49.9472" lon="2.14228">
        <ele>15.9</ele>
        <time>2023-06-28T10:09:42Z</time>
      </trkpt>
      <trkpt lat="49.9472" lon="2.14228">
        <ele>15.9</ele>
        <time>2023-06-28T10:09:43Z</time>
      </trkpt>
      <trkpt lat="49.9472" lon="2.14228">
        <ele>15.9</ele>
        <time>2023-06-28T10:09:44Z</time>
      </trkpt>
      <trkpt lat="49.9472" lon="2.14228">
        <ele>15.9</ele>
        <time>2023-06-28T10:09:45Z</time>
      </trkpt>
      <trkpt lat="49.9472" lon="2.14228">
        <ele>15.9</ele>
        <time>2023-06-28T10:09:46Z</time>
      </trkpt>
      <trkpt lat="49.9472" lon="2.14228">
        <ele>15.9</ele>
        <time>2023-06-28T10:09:47Z</time>
      </trkpt>
      <trkpt lat="49.9472" lon="2.14228">
        <ele>15.9</ele>
        <time>2023-06-28T10:09:48Z</time>
      </trkpt>
      <trkpt lat="49.9472" lon="2.14228">
        <ele>15.9</ele>
        <time>2023-06-28T10:09:49Z</time>
      </trkpt>
      <trkpt lat="49.9472" lon="2.14228">
        <ele>15.9</ele>
        <time>2023-06-28T10:09:50Z</time>
      </trkpt>
      <trkpt lat="49.9472" lon="2.14228">
        <ele>15.9</ele>
        <time>2023-06-28T10:09:51Z</time>
      </trkpt>
      <trkpt lat="49.9472" lon="2.14228">
        <ele>15.9</ele>
        <time>2023-06-28T10:09:52Z</time>
      </trkpt>
      <trkpt lat="49.9472" lon="2.14228">
        <ele>15.9</ele>
        <time>2023-06-28T10:09:53Z</time>
      </trkpt>
      <trkpt lat="49.9472" lon="2.14228">
        <ele>15.9</ele>
        <time>2023-06-28T10:09:54Z</time>
      </trkpt>
      <trkpt lat="49.9472" lon="2.14228">
        <ele>15.9</ele>
        <time>2023-06-28T10:09:55Z</time>
      </trkpt>
      <trkpt lat="49.9472" lon="2.14228">
        <ele>15.9</ele>
        <time>2023-06-28T10:09:56Z</time>
      </trkpt>
      <trkpt lat="49.9472" lon="2.14228">
        <ele>15.9</ele>
        <time>2023-06-28T10:09:57Z</time>
      </trkpt>
      <trkpt lat="49.9472" lon="2.14228">
        <ele>15.9</ele>
        <time>2023-06-28T10:09:58Z</time>
      </trkpt>
      <trkpt lat="49.9472" lon="2.14228">
        <ele>15.9</ele>
        <time>2023-06-28T10:09:59Z</time>
      </trkpt>
      <trkpt lat="49.9472" lon="2.14228">
        <ele>15.9</ele>
        <time>2023-06-28T10:10:00Z</time>
      </trkpt>
      <trkpt lat="49.9472" lon="2.14228">
        <ele>15.9</ele>
        <time>2023-06-28T10:10:01Z</time>
      </trkpt>
      <trkpt lat="49.9472" lon="2.14228">
        <ele>15.9</ele>
        <time>2023-06-28T10:10:02Z</time>
      </trkpt>
      <trkpt lat="49.9472" lon="2.14228">
        <ele>15.9</ele>
        <time>2023-06-28T10:10:03Z</time>
      </trkpt>
      <trkpt lat="49.9472" lon="2.14228">
        <ele>15.9</ele>
        <time>2023-06-28T10:10:04Z</time>
      </trkpt>
      <trkpt lat="49.9472" lon="2.14228">
        <ele>15.9</ele>
        <time>2023-06-28T10:10:05Z</time>
      </trkpt>
      <trkpt lat="49.9472" lon="2.14228">
        <ele>15.9</ele>
        <time>2023-06-28T10:10:06Z</time>
      </trkpt>
      <trkpt lat="49.9472" lon="2.14228">
        <ele>15.9</ele>
        <time>2023-06-28T10:10:07Z</time>
      </trkpt>
      <trkpt lat="49.9472" lon="2.14228">
        <ele>15.9</ele>
        <time>2023-06-28T10:10:08Z</time>
      </trkpt>
      <trkpt lat="49.9472" lon="2.14228">
        <ele>15.9</ele>
        <time>2023-06-28T10:10:09Z</time>
      </trkpt>
      <trkpt lat="49.9472" lon="2.14228">
        <ele>15.9</ele>
        <time>2023-06-28T10:10:10Z</time>
      </trkpt>
      <trkpt lat="49.9472" lon="2.14228">
        <ele>15.9</ele>
        <time>2023-06-28T10:10:11Z</time>
      </trkpt>
      <trkpt lat="49.9472" lon="2.14228">
        <ele>15.9</ele>
        <time>2023-06-28T10:10:12Z</time>
      </trkpt>
      <trkpt lat="49.94721" lon="2.14228">
        <ele>15.9</ele>
        <time>2023-06-28T10:10:13Z</time>
      </trkpt>
      <trkpt lat="49.94721" lon="2.14228">
        <ele>15.9</ele>
        <time>2023-06-28T10:10:14Z</time>
      </trkpt>
      <trkpt lat="49.94721" lon="2.14228">
        <ele>15.9</ele>
        <time>2023-06-28T10:10:15Z</time>
      </trkpt>
      <trkpt lat="49.94721" lon="2.14228">
        <ele>15.9</ele>
        <time>2023-06-28T10:10:16Z</time>
      </trkpt>
      <trkpt lat="49.94721" lon="2.14228">
        <ele>15.9</ele>
        <time>2023-06-28T10:10:17Z</time>
      </trkpt>
      <trkpt lat="49.94721" lon="2.14228">
        <ele>15.9</ele>
        <time>2023-06-28T10:10:18Z</time>
      </trkpt>
      <trkpt lat="49.94721" lon="2.14228">
        <ele>15.9</ele>
        <time>2023-06-28T10:10:19Z</time>
      </trkpt>
      <trkpt lat="49.94721" lon="2.14228">
        <ele>15.9</ele>
        <time>2023-06-28T10:10:20Z</time>
      </trkpt>
      <trkpt lat="49.94721" lon="2.14228">
        <ele>15.9</ele>
        <time>2023-06-28T10:10:21Z</time>
      </trkpt>
      <trkpt lat="49.94721" lon="2.14228">
        <ele>15.9</ele>
        <time>2023-06-28T10:10:22Z</time>
      </trkpt>
      <trkpt lat="49.94721" lon="2.14228">
        <ele>15.9</ele>
        <time>2023-06-28T10:10:23Z</time>
      </trkpt>
      <trkpt lat="49.94721" lon="2.14228">
        <ele>15.9</ele>
        <time>2023-06-28T10:10:24Z</time>
      </trkpt>
      <trkpt lat="49.94721" lon="2.14228">
        <ele>15.9</ele>
        <time>2023-06-28T10:10:25Z</time>
      </trkpt>
      <trkpt lat="49.94721" lon="2.14228">
        <ele>15.9</ele>
        <time>2023-06-28T10:10:26Z</time>
      </trkpt>
      <trkpt lat="49.94721" lon="2.14228">
        <ele>15.9</ele>
        <time>2023-06-28T10:10:27Z</time>
      </trkpt>
      <trkpt lat="49.94721" lon="2.14228">
        <ele>15.9</ele>
        <time>2023-06-28T10:10:28Z</time>
      </trkpt>
      <trkpt lat="49.94721" lon="2.14228">
        <ele>15.9</ele>
        <time>2023-06-28T10:10:29Z</time>
      </trkpt>
      <trkpt lat="49.94721" lon="2.14228">
        <ele>15.9</ele>
        <time>2023-06-28T10:10:30Z</time>
      </trkpt>
      <trkpt lat="49.94721" lon="2.14228">
        <ele>15.9</ele>
        <time>2023-06-28T10:10:31Z</time>
      </trkpt>
      <trkpt lat="49.94721" lon="2.14228">
        <ele>15.9</ele>
        <time>2023-06-28T10:10:32Z</time>
      </trkpt>
      <trkpt lat="49.94721" lon="2.14228">
        <ele>15.9</ele>
        <time>2023-06-28T10:10:33Z</time>
      </trkpt>
      <trkpt lat="49.94721" lon="2.14228">
        <ele>15.9</ele>
        <time>2023-06-28T10:10:34Z</time>
      </trkpt>
      <trkpt lat="49.94721" lon="2.14228">
        <ele>15.9</ele>
        <time>2023-06-28T10:10:35Z</time>
      </trkpt>
      <trkpt lat="49.94721" lon="2.14228">
        <ele>15.9</ele>
        <time>2023-06-28T10:10:36Z</time>
      </trkpt>
      <trkpt lat="49.94721" lon="2.14228">
        <ele>15.9</ele>
        <time>2023-06-28T10:10:37Z</time>
      </trkpt>
      <trkpt lat="49.94721" lon="2.14228">
        <ele>15.9</ele>
        <time>2023-06-28T10:10:38Z</time>
      </trkpt>
      <trkpt lat="49.94721" lon="2.14228">
        <ele>15.9</ele>
        <time>2023-06-28T10:10:39Z</time>
      </trkpt>
      <trkpt lat="49.94721" lon="2.14228">
        <ele>15.9</ele>
        <time>2023-06-28T10:10:40Z</time>
      </trkpt>
      <trkpt lat="49.94721" lon="2.14228">
        <ele>15.9</ele>
        <time>2023-06-28T10:10:41Z</time>
      </trkpt>
      <trkpt lat="49.94721" lon="2.14228">
        <ele>15.9</ele>
        <time>2023-06-28T10:10:42Z</time>
      </trkpt>
      <trkpt lat="49.94721" lon="2.14228">
        <ele>15.9</ele>
        <time>2023-06-28T10:10:43Z</time>
      </trkpt>
      <trkpt lat="49.94721" lon="2.14228">
        <ele>15.9</ele>
        <time>2023-06-28T10:10:44Z</time>
      </trkpt>
      <trkpt lat="49.94721" lon="2.14228">
        <ele>15.9</ele>
        <time>2023-06-28T10:10:45Z</time>
      </trkpt>
      <trkpt lat="49.94721" lon="2.14228">
        <ele>15.9</ele>
        <time>2023-06-28T10:10:46Z</time>
      </trkpt>
      <trkpt lat="49.94721" lon="2.14228">
        <ele>15.9</ele>
        <time>2023-06-28T10:10:47Z</time>
      </trkpt>
      <trkpt lat="49.94721" lon="2.14228">
        <ele>15.9</ele>
        <time>2023-06-28T10:10:48Z</time>
      </trkpt>
      <trkpt lat="49.94721" lon="2.14228">
        <ele>15.9</ele>
        <time>2023-06-28T10:10:49Z</time>
      </trkpt>
      <trkpt lat="49.94721" lon="2.14228">
        <ele>15.9</ele>
        <time>2023-06-28T10:10:50Z</time>
      </trkpt>
      <trkpt lat="49.94721" lon="2.14228">
        <ele>15.9</ele>
        <time>2023-06-28T10:10:51Z</time>
      </trkpt>
      <trkpt lat="49.94721" lon="2.14228">
        <ele>15.9</ele>
        <time>2023-06-28T10:10:52Z</time>
      </trkpt>
      <trkpt lat="49.94721" lon="2.14228">
        <ele>15.9</ele>
        <time>2023-06-28T10:10:53Z</time>
      </trkpt>
      <trkpt lat="49.94721" lon="2.14228">
        <ele>15.9</ele>
        <time>2023-06-28T10:10:54Z</time>
      </trkpt>
      <trkpt lat="49.94721" lon="2.14228">
        <ele>15.9</ele>
        <time>2023-06-28T10:10:55Z</time>
      </trkpt>
      <trkpt lat="49.94721" lon="2.14228">
        <ele>15.9</ele>
        <time>2023-06-28T10:10:56Z</time>
      </trkpt>
      <trkpt lat="49.94721" lon="2.14228">
        <ele>15.9</ele>
        <time>2023-06-28T10:10:57Z</time>
      </trkpt>
      <trkpt lat="49.94721" lon="2.14228">
        <ele>15.9</ele>
        <time>2023-06-28T10:10:58Z</time>
      </trkpt>
      <trkpt lat="49.94721" lon="2.14228">
        <ele>15.9</ele>
        <time>2023-06-28T10:10:59Z</time>
      </trkpt>
      <trkpt lat="49.94721" lon="2.14228">
        <ele>15.9</ele>
        <time>2023-06-28T10:11:00Z</time>
      </trkpt>
      <trkpt lat="49.94721" lon="2.14228">
        <ele>15.9</ele>
        <time>2023-06-28T10:11:01Z</time>
      </trkpt>
      <trkpt lat="49.94721" lon="2.14228">
        <ele>15.9</ele>
        <time>2023-06-28T10:11:02Z</time>
      </trkpt>
      <trkpt lat="49.94721" lon="2.14228">
        <ele>15.9</ele>
        <time>2023-06-28T10:11:03Z</time>
      </trkpt>
      <trkpt lat="49.94721" lon="2.14228">
        <ele>15.9</ele>
        <time>2023-06-28T10:11:04Z</time>
      </trkpt>
      <trkpt lat="49.94721" lon="2.14228">
        <ele>15.9</ele>
        <time>2023-06-28T10:11:05Z</time>
      </trkpt>
      <trkpt lat="49.94721" lon="2.14228">
        <ele>15.9</ele>
        <time>2023-06-28T10:11:06Z</time>
      </trkpt>
      <trkpt lat="49.94721" lon="2.14228">
        <ele>15.9</ele>
        <time>2023-06-28T10:11:07Z</time>
      </trkpt>
      <trkpt lat="49.94721" lon="2.14228">
        <ele>15.9</ele>
        <time>2023-06-28T10:11:08Z</time>
      </trkpt>
      <trkpt lat="49.94721" lon="2.14228">
        <ele>15.9</ele>
        <time>2023-06-28T10:11:09Z</time>
      </trkpt>
      <trkpt lat="49.94721" lon="2.14228">
        <ele>15.9</ele>
        <time>2023-06-28T10:11:10Z</time>
      </trkpt>
      <trkpt lat="49.94721" lon="2.14228">
        <ele>15.9</ele>
        <time>2023-06-28T10:11:11Z</time>
      </trkpt>
      <trkpt lat="49.94721" lon="2.14228">
        <ele>15.9</ele>
        <time>2023-06-28T10:11:12Z</time>
      </trkpt>
      <trkpt lat="49.94721" lon="2.14228">
        <ele>15.9</ele>
        <time>2023-06-28T10:11:13Z</time>
      </trkpt>
      <trkpt lat="49.94721" lon="2.14228">
        <ele>15.9</ele>
        <time>2023-06-28T10:11:14Z</time>
      </trkpt>
      <trkpt lat="49.94721" lon="2.14228">
        <ele>15.9</ele>
        <time>2023-06-28T10:11:15Z</time>
      </trkpt>
      <trkpt lat="49.94721" lon="2.14228">
        <ele>15.9</ele>
        <time>2023-06-28T10:11:16Z</time>
      </trkpt>
      <trkpt lat="49.94721" lon="2.14228">
        <ele>15.9</ele>
        <time>2023-06-28T10:11:17Z</time>
      </trkpt>
      <trkpt lat="49.94721" lon="2.14228">
        <ele>15.9</ele>
        <time>2023-06-28T10:11:18Z</time>
      </trkpt>
      <trkpt lat="49.94721" lon="2.14228">
        <ele>15.9</ele>
        <time>2023-06-28T10:11:19Z</time>
      </trkpt>
      <trkpt lat="49.94721" lon="2.14228">
        <ele>15.9</ele>
        <time>2023-06-28T10:11:20Z</time>
      </trkpt>
      <trkpt lat="49.94721" lon="2.14228">
        <ele>15.9</ele>
        <time>2023-06-28T10:11:21Z</time>
      </trkpt>
      <trkpt lat="49.94721" lon="2.14228">
        <ele>15.9</ele>
        <time>2023-06-28T10:11:22Z</time>
      </trkpt>
      <trkpt lat="49.94721" lon="2.14228">
        <ele>15.9</ele>
        <time>2023-06-28T10:11:23Z</time>
      </trkpt>
      <trkpt lat="49.94721" lon="2.14228">
        <ele>15.9</ele>
        <time>2023-06-28T10:11:24Z</time>
      </trkpt>
      <trkpt lat="49.94721" lon="2.14228">
        <ele>15.9</ele>
        <time>2023-06-28T10:11:25Z</time>
      </trkpt>
      <trkpt lat="49.94721" lon="2.14228">
        <ele>15.9</ele>
        <time>2023-06-28T10:11:26Z</time>
      </trkpt>
      <trkpt lat="49.94721" lon="2.14228">
        <ele>15.9</ele>
        <time>2023-06-28T10:11:27Z</time>
      </trkpt>
      <trkpt lat="49.94721" lon="2.14228">
        <ele>15.9</ele>
        <time>2023-06-28T10:11:28Z</time>
      </trkpt>
      <trkpt lat="49.94721" lon="2.14228">
        <ele>15.9</ele>
        <time>2023-06-28T10:11:29Z</time>
      </trkpt>
      <trkpt lat="49.94721" lon="2.14228">
        <ele>15.9</ele>
        <time>2023-06-28T10:11:30Z</time>
      </trkpt>
      <trkpt lat="49.94721" lon="2.14228">
        <ele>15.9</ele>
        <time>2023-06-28T10:11:31Z</time>
      </trkpt>
      <trkpt lat="49.94721" lon="2.14228">
        <ele>15.9</ele>
        <time>2023-06-28T10:11:32Z</time>
      </trkpt>
      <trkpt lat="49.94721" lon="2.14228">
        <ele>15.9</ele>
        <time>2023-06-28T10:11:33Z</time>
      </trkpt>
      <trkpt lat="49.94721" lon="2.14228">
        <ele>15.9</ele>
        <time>2023-06-28T10:11:34Z</time>
      </trkpt>
      <trkpt lat="49.94721" lon="2.14228">
        <ele>15.9</ele>
        <time>2023-06-28T10:11:35Z</time>
      </trkpt>
      <trkpt lat="49.94721" lon="2.14228">
        <ele>15.9</ele>
        <time>2023-06-28T10:11:36Z</time>
      </trkpt>
      <trkpt lat="49.94721" lon="2.14228">
        <ele>15.9</ele>
        <time>2023-06-28T10:11:37Z</time>
      </trkpt>
      <trkpt lat="49.94721" lon="2.14228">
        <ele>15.9</ele>
        <time>2023-06-28T10:11:38Z</time>
      </trkpt>
      <trkpt lat="49.94721" lon="2.14228">
        <ele>15.9</ele>
        <time>2023-06-28T10:11:39Z</time>
      </trkpt>
      <trkpt lat="49.94721" lon="2.14228">
        <ele>15.9</ele>
        <time>2023-06-28T10:11:40Z</time>
      </trkpt>
      <trkpt lat="49.94721" lon="2.14228">
        <ele>15.9</ele>
        <time>2023-06-28T10:11:41Z</time>
      </trkpt>
      <trkpt lat="49.94721" lon="2.14228">
        <ele>15.9</ele>
        <time>2023-06-28T10:11:42Z</time>
      </trkpt>
      <trkpt lat="49.94721" lon="2.14228">
        <ele>15.9</ele>
        <time>2023-06-28T10:11:43Z</time>
      </trkpt>
      <trkpt lat="49.94721" lon="2.14228">
        <ele>15.9</ele>
        <time>2023-06-28T10:11:44Z</time>
      </trkpt>
      <trkpt lat="49.94721" lon="2.14228">
        <ele>15.9</ele>
        <time>2023-06-28T10:11:45Z</time>
      </trkpt>
      <trkpt lat="49.94721" lon="2.14228">
        <ele>15.9</ele>
        <time>2023-06-28T10:11:46Z</time>
      </trkpt>
      <trkpt lat="49.94721" lon="2.14228">
        <ele>15.9</ele>
        <time>2023-06-28T10:11:47Z</time>
      </trkpt>
      <trkpt lat="49.94721" lon="2.14228">
        <ele>15.9</ele>
        <time>2023-06-28T10:11:48Z</time>
      </trkpt>
      <trkpt lat="49.94721" lon="2.14228">
        <ele>15.9</ele>
        <time>2023-06-28T10:11:49Z</time>
      </trkpt>
      <trkpt lat="49.94721" lon="2.14228">
        <ele>15.9</ele>
        <time>2023-06-28T10:11:50Z</time>
      </trkpt>
      <trkpt lat="49.94721" lon="2.14228">
        <ele>15.9</ele>
        <time>2023-06-28T10:11:51Z</time>
      </trkpt>
      <trkpt lat="49.94721" lon="2.14228">
        <ele>15.9</ele>
        <time>2023-06-28T10:11:52Z</time>
      </trkpt>
      <trkpt lat="49.94721" lon="2.14228">
        <ele>15.9</ele>
        <time>2023-06-28T10:11:53Z</time>
      </trkpt>
      <trkpt lat="49.94721" lon="2.14228">
        <ele>15.9</ele>
        <time>2023-06-28T10:11:54Z</time>
      </trkpt>
      <trkpt lat="49.94721" lon="2.14228">
        <ele>15.9</ele>
        <time>2023-06-28T10:11:55Z</time>
      </trkpt>
      <trkpt lat="49.94721" lon="2.14228">
        <ele>15.9</ele>
        <time>2023-06-28T10:11:56Z</time>
      </trkpt>
      <trkpt lat="49.94721" lon="2.14228">
        <ele>15.9</ele>
        <time>2023-06-28T10:11:57Z</time>
      </trkpt>
      <trkpt lat="49.94721" lon="2.14228">
        <ele>15.9</ele>
        <time>2023-06-28T10:11:58Z</time>
      </trkpt>
      <trkpt lat="49.94721" lon="2.14228">
        <ele>15.9</ele>
        <time>2023-06-28T10:11:59Z</time>
      </trkpt>
      <trkpt lat="49.94721" lon="2.14228">
        <ele>15.9</ele>
        <time>2023-06-28T10:12:00Z</time>
      </trkpt>
      <trkpt lat="49.94721" lon="2.14228">
        <ele>15.9</ele>
        <time>2023-06-28T10:12:01Z</time>
      </trkpt>
      <trkpt lat="49.94721" lon="2.14228">
        <ele>15.9</ele>
        <time>2023-06-28T10:12:02Z</time>
      </trkpt>
      <trkpt lat="49.94721" lon="2.14228">
        <ele>15.9</ele>
        <time>2023-06-28T10:12:03Z</time>
      </trkpt>
      <trkpt lat="49.94721" lon="2.14228">
        <ele>15.9</ele>
        <time>2023-06-28T10:12:04Z</time>
      </trkpt>
      <trkpt lat="49.94721" lon="2.14228">
        <ele>15.9</ele>
        <time>2023-06-28T10:12:05Z</time>
      </trkpt>
      <trkpt lat="49.94721" lon="2.14228">
        <ele>15.9</ele>
        <time>2023-06-28T10:12:06Z</time>
      </trkpt>
      <trkpt lat="49.94721" lon="2.14228">
        <ele>15.9</ele>
        <time>2023-06-28T10:12:07Z</time>
      </trkpt>
      <trkpt lat="49.94721" lon="2.14228">
        <ele>15.9</ele>
        <time>2023-06-28T10:12:08Z</time>
      </trkpt>
      <trkpt lat="49.94721" lon="2.14228">
        <ele>15.9</ele>
        <time>2023-06-28T10:12:09Z</time>
      </trkpt>
      <trkpt lat="49.94721" lon="2.14228">
        <ele>15.9</ele>
        <time>2023-06-28T10:12:10Z</time>
      </trkpt>
      <trkpt lat="49.94721" lon="2.14228">
        <ele>15.9</ele>
        <time>2023-06-28T10:12:11Z</time>
      </trkpt>
      <trkpt lat="49.94721" lon="2.14228">
        <ele>15.9</ele>
        <time>2023-06-28T10:12:12Z</time>
      </trkpt>
      <trkpt lat="49.94721" lon="2.14228">
        <ele>15.9</ele>
        <time>2023-06-28T10:12:13Z</time>
      </trkpt>
      <trkpt lat="49.94721" lon="2.14228">
        <ele>15.9</ele>
        <time>2023-06-28T10:12:14Z</time>
      </trkpt>
      <trkpt lat="49.94721" lon="2.14228">
        <ele>15.9</ele>
        <time>2023-06-28T10:12:15Z</time>
      </trkpt>
      <trkpt lat="49.94721" lon="2.14228">
        <ele>15.9</ele>
        <time>2023-06-28T10:12:16Z</time>
      </trkpt>
      <trkpt lat="49.94721" lon="2.14228">
        <ele>15.9</ele>
        <time>2023-06-28T10:12:17Z</time>
      </trkpt>
      <trkpt lat="49.94721" lon="2.14228">
        <ele>15.9</ele>
        <time>2023-06-28T10:12:18Z</time>
      </trkpt>
      <trkpt lat="49.94721" lon="2.14228">
        <ele>15.9</ele>
        <time>2023-06-28T10:12:19Z</time>
      </trkpt>
      <trkpt lat="49.94721" lon="2.14228">
        <ele>15.9</ele>
        <time>2023-06-28T10:12:20Z</time>
      </trkpt>
      <trkpt lat="49.94721" lon="2.14228">
        <ele>15.9</ele>
        <time>2023-06-28T10:12:21Z</time>
      </trkpt>
      <trkpt lat="49.94721" lon="2.14228">
        <ele>15.9</ele>
        <time>2023-06-28T10:12:22Z</time>
      </trkpt>
      <trkpt lat="49.94721" lon="2.14228">
        <ele>15.9</ele>
        <time>2023-06-28T10:12:23Z</time>
      </trkpt>
      <trkpt lat="49.94721" lon="2.14228">
        <ele>15.9</ele>
        <time>2023-06-28T10:12:24Z</time>
      </trkpt>
      <trkpt lat="49.94721" lon="2.14228">
        <ele>15.9</ele>
        <time>2023-06-28T10:12:25Z</time>
      </trkpt>
      <trkpt lat="49.94721" lon="2.14228">
        <ele>15.9</ele>
        <time>2023-06-28T10:12:26Z</time>
      </trkpt>
      <trkpt lat="49.94721" lon="2.14228">
        <ele>15.9</ele>
        <time>2023-06-28T10:12:27Z</time>
      </trkpt>
      <trkpt lat="49.94721" lon="2.14228">
        <ele>15.9</ele>
        <time>2023-06-28T10:12:28Z</time>
      </trkpt>
      <trkpt lat="49.94721" lon="2.14228">
        <ele>15.9</ele>
        <time>2023-06-28T10:12:29Z</time>
      </trkpt>
      <trkpt lat="49.94721" lon="2.14228">
        <ele>15.9</ele>
        <time>2023-06-28T10:12:30Z</time>
      </trkpt>
      <trkpt lat="49.94721" lon="2.14228">
        <ele>15.9</ele>
        <time>2023-06-28T10:12:31Z</time>
      </trkpt>
      <trkpt lat="49.94721" lon="2.14228">
        <ele>15.9</ele>
        <time>2023-06-28T10:12:32Z</time>
      </trkpt>
      <trkpt lat="49.94721" lon="2.14228">
        <ele>15.9</ele>
        <time>2023-06-28T10:12:33Z</time>
      </trkpt>
      <trkpt lat="49.94721" lon="2.14228">
        <ele>15.9</ele>
        <time>2023-06-28T10:12:34Z</time>
      </trkpt>
      <trkpt lat="49.94721" lon="2.14228">
        <ele>15.9</ele>
        <time>2023-06-28T10:12:35Z</time>
      </trkpt>
      <trkpt lat="49.94721" lon="2.14228">
        <ele>15.9</ele>
        <time>2023-06-28T10:12:36Z</time>
      </trkpt>
      <trkpt lat="49.94721" lon="2.14228">
        <ele>15.9</ele>
        <time>2023-06-28T10:12:37Z</time>
      </trkpt>
      <trkpt lat="49.94721" lon="2.14228">
        <ele>15.9</ele>
        <time>2023-06-28T10:12:38Z</time>
      </trkpt>
      <trkpt lat="49.94721" lon="2.14228">
        <ele>15.9</ele>
        <time>2023-06-28T10:12:39Z</time>
      </trkpt>
      <trkpt lat="49.94721" lon="2.14228">
        <ele>15.9</ele>
        <time>2023-06-28T10:12:40Z</time>
      </trkpt>
      <trkpt lat="49.94721" lon="2.14228">
        <ele>15.9</ele>
        <time>2023-06-28T10:12:41Z</time>
      </trkpt>
      <trkpt lat="49.94721" lon="2.14228">
        <ele>15.9</ele>
        <time>2023-06-28T10:12:42Z</time>
      </trkpt>
      <trkpt lat="49.94721" lon="2.14228">
        <ele>15.9</ele>
        <time>2023-06-28T10:12:43Z</time>
      </trkpt>
      <trkpt lat="49.94721" lon="2.14228">
        <ele>15.9</ele>
        <time>2023-06-28T10:12:44Z</time>
      </trkpt>
      <trkpt lat="49.94721" lon="2.14228">
        <ele>15.9</ele>
        <time>2023-06-28T10:12:45Z</time>
      </trkpt>
      <trkpt lat="49.94721" lon="2.14228">
        <ele>15.9</ele>
        <time>2023-06-28T10:12:46Z</time>
      </trkpt>
      <trkpt lat="49.94721" lon="2.14228">
        <ele>15.9</ele>
        <time>2023-06-28T10:12:47Z</time>
      </trkpt>
      <trkpt lat="49.94721" lon="2.14228">
        <ele>15.9</ele>
        <time>2023-06-28T10:12:48Z</time>
      </trkpt>
      <trkpt lat="49.94721" lon="2.14228">
        <ele>15.9</ele>
        <time>2023-06-28T10:12:49Z</time>
      </trkpt>
      <trkpt lat="49.94721" lon="2.14228">
        <ele>15.9</ele>
        <time>2023-06-28T10:12:50Z</time>
      </trkpt>
      <trkpt lat="49.94721" lon="2.14228">
        <ele>15.9</ele>
        <time>2023-06-28T10:12:51Z</time>
      </trkpt>
      <trkpt lat="49.94721" lon="2.14228">
        <ele>15.9</ele>
        <time>2023-06-28T10:12:52Z</time>
      </trkpt>
      <trkpt lat="49.94721" lon="2.14228">
        <ele>15.9</ele>
        <time>2023-06-28T10:12:53Z</time>
      </trkpt>
      <trkpt lat="49.94721" lon="2.14228">
        <ele>15.9</ele>
        <time>2023-06-28T10:12:54Z</time>
      </trkpt>
      <trkpt lat="49.94721" lon="2.14228">
        <ele>15.9</ele>
        <time>2023-06-28T10:12:55Z</time>
      </trkpt>
      <trkpt lat="49.94721" lon="2.14228">
        <ele>15.9</ele>
        <time>2023-06-28T10:12:56Z</time>
      </trkpt>
      <trkpt lat="49.94721" lon="2.14228">
        <ele>15.9</ele>
        <time>2023-06-28T10:12:57Z</time>
      </trkpt>
      <trkpt lat="49.94721" lon="2.14228">
        <ele>15.9</ele>
        <time>2023-06-28T10:12:58Z</time>
      </trkpt>
      <trkpt lat="49.94721" lon="2.14228">
        <ele>15.9</ele>
        <time>2023-06-28T10:12:59Z</time>
      </trkpt>
      <trkpt lat="49.94721" lon="2.14228">
        <ele>15.9</ele>
        <time>2023-06-28T10:13:00Z</time>
      </trkpt>
      <trkpt lat="49.94721" lon="2.14228">
        <ele>15.9</ele>
        <time>2023-06-28T10:13:01Z</time>
      </trkpt>
      <trkpt lat="49.94721" lon="2.14228">
        <ele>15.9</ele>
        <time>2023-06-28T10:13:02Z</time>
      </trkpt>
      <trkpt lat="49.94721" lon="2.14228">
        <ele>15.9</ele>
        <time>2023-06-28T10:13:03Z</time>
      </trkpt>
      <trkpt lat="49.94721" lon="2.14228">
        <ele>15.9</ele>
        <time>2023-06-28T10:13:04Z</time>
      </trkpt>
      <trkpt lat="49.94721" lon="2.14228">
        <ele>15.9</ele>
        <time>2023-06-28T10:13:05Z</time>
      </trkpt>
      <trkpt lat="49.94721" lon="2.14228">
        <ele>15.9</ele>
        <time>2023-06-28T10:13:06Z</time>
      </trkpt>
      <trkpt lat="49.94721" lon="2.14228">
        <ele>15.9</ele>
        <time>2023-06-28T10:13:07Z</time>
      </trkpt>
      <trkpt lat="49.94721" lon="2.14228">
        <ele>15.9</ele>
        <time>2023-06-28T10:13:08Z</time>
      </trkpt>
      <trkpt lat="49.94721" lon="2.14228">
        <ele>15.9</ele>
        <time>2023-06-28T10:13:09Z</time>
      </trkpt>
      <trkpt lat="49.94721" lon="2.14228">
        <ele>15.9</ele>
        <time>2023-06-28T10:13:10Z</time>
      </trkpt>
      <trkpt lat="49.94721" lon="2.14228">
        <ele>15.9</ele>
        <time>2023-06-28T10:13:11Z</time>
      </trkpt>
      <trkpt lat="49.94721" lon="2.14228">
        <ele>15.9</ele>
        <time>2023-06-28T10:13:12Z</time>
      </trkpt>
      <trkpt lat="49.94721" lon="2.14228">
        <ele>15.9</ele>
        <time>2023-06-28T10:13:13Z</time>
      </trkpt>
      <trkpt lat="49.94721" lon="2.14228">
        <ele>15.9</ele>
        <time>2023-06-28T10:13:14Z</time>
      </trkpt>
      <trkpt lat="49.94721" lon="2.14228">
        <ele>15.9</ele>
        <time>2023-06-28T10:13:15Z</time>
      </trkpt>
      <trkpt lat="49.94721" lon="2.14228">
        <ele>15.9</ele>
        <time>2023-06-28T10:13:16Z</time>
      </trkpt>
      <trkpt lat="49.94721" lon="2.14228">
        <ele>15.9</ele>
        <time>2023-06-28T10:13:17Z</time>
      </trkpt>
      <trkpt lat="49.94721" lon="2.14228">
        <ele>15.9</ele>
        <time>2023-06-28T10:13:18Z</time>
      </trkpt>
      <trkpt lat="49.94721" lon="2.14228">
        <ele>15.9</ele>
        <time>2023-06-28T10:13:19Z</time>
      </trkpt>
      <trkpt lat="49.94721" lon="2.14228">
        <ele>15.9</ele>
        <time>2023-06-28T10:13:20Z</time>
      </trkpt>
      <trkpt lat="49.94721" lon="2.14228">
        <ele>15.9</ele>
        <time>2023-06-28T10:13:21Z</time>
      </trkpt>
      <trkpt lat="49.94721" lon="2.14228">
        <ele>15.9</ele>
        <time>2023-06-28T10:13:22Z</time>
      </trkpt>
      <trkpt lat="49.94721" lon="2.14228">
        <ele>15.9</ele>
        <time>2023-06-28T10:13:23Z</time>
      </trkpt>
      <trkpt lat="49.94721" lon="2.14228">
        <ele>15.9</ele>
        <time>2023-06-28T10:13:24Z</time>
      </trkpt>
      <trkpt lat="49.94721" lon="2.14228">
        <ele>15.9</ele>
        <time>2023-06-28T10:13:25Z</time>
      </trkpt>
      <trkpt lat="49.94721" lon="2.14228">
        <ele>15.9</ele>
        <time>2023-06-28T10:13:26Z</time>
      </trkpt>
      <trkpt lat="49.94721" lon="2.14228">
        <ele>15.9</ele>
        <time>2023-06-28T10:13:27Z</time>
      </trkpt>
      <trkpt lat="49.94721" lon="2.14228">
        <ele>15.9</ele>
        <time>2023-06-28T10:13:28Z</time>
      </trkpt>
      <trkpt lat="49.94721" lon="2.14228">
        <ele>15.9</ele>
        <time>2023-06-28T10:13:29Z</time>
      </trkpt>
      <trkpt lat="49.94721" lon="2.14228">
        <ele>15.9</ele>
        <time>2023-06-28T10:13:30Z</time>
      </trkpt>
      <trkpt lat="49.94721" lon="2.14228">
        <ele>15.9</ele>
        <time>2023-06-28T10:13:31Z</time>
      </trkpt>
      <trkpt lat="49.94721" lon="2.14228">
        <ele>15.9</ele>
        <time>2023-06-28T10:13:32Z</time>
      </trkpt>
      <trkpt lat="49.94721" lon="2.14228">
        <ele>15.9</ele>
        <time>2023-06-28T10:13:33Z</time>
      </trkpt>
      <trkpt lat="49.94721" lon="2.14228">
        <ele>15.9</ele>
        <time>2023-06-28T10:13:34Z</time>
      </trkpt>
      <trkpt lat="49.94721" lon="2.14228">
        <ele>15.9</ele>
        <time>2023-06-28T10:13:35Z</time>
      </trkpt>
      <trkpt lat="49.94721" lon="2.14228">
        <ele>15.9</ele>
        <time>2023-06-28T10:13:36Z</time>
      </trkpt>
      <trkpt lat="49.94721" lon="2.14228">
        <ele>15.9</ele>
        <time>2023-06-28T10:13:37Z</time>
      </trkpt>
      <trkpt lat="49.94721" lon="2.14228">
        <ele>15.9</ele>
        <time>2023-06-28T10:13:38Z</time>
      </trkpt>
      <trkpt lat="49.94721" lon="2.14228">
        <ele>15.9</ele>
        <time>2023-06-28T10:13:39Z</time>
      </trkpt>
      <trkpt lat="49.94721" lon="2.14228">
        <ele>15.9</ele>
        <time>2023-06-28T10:13:40Z</time>
      </trkpt>
      <trkpt lat="49.94721" lon="2.14228">
        <ele>15.9</ele>
        <time>2023-06-28T10:13:41Z</time>
      </trkpt>
      <trkpt lat="49.94721" lon="2.14228">
        <ele>15.9</ele>
        <time>2023-06-28T10:13:42Z</time>
      </trkpt>
      <trkpt lat="49.94721" lon="2.14228">
        <ele>15.9</ele>
        <time>2023-06-28T10:13:43Z</time>
      </trkpt>
      <trkpt lat="49.94721" lon="2.14228">
        <ele>15.9</ele>
        <time>2023-06-28T10:13:44Z</time>
      </trkpt>
      <trkpt lat="49.94721" lon="2.14228">
        <ele>15.9</ele>
        <time>2023-06-28T10:13:45Z</time>
      </trkpt>
      <trkpt lat="49.94721" lon="2.14228">
        <ele>15.9</ele>
        <time>2023-06-28T10:13:46Z</time>
      </trkpt>
      <trkpt lat="49.94721" lon="2.14228">
        <ele>15.9</ele>
        <time>2023-06-28T10:13:47Z</time>
      </trkpt>
      <trkpt lat="49.94721" lon="2.14228">
        <ele>15.9</ele>
        <time>2023-06-28T10:13:48Z</time>
      </trkpt>
      <trkpt lat="49.94721" lon="2.14228">
        <ele>15.9</ele>
        <time>2023-06-28T10:13:49Z</time>
      </trkpt>
      <trkpt lat="49.94721" lon="2.14228">
        <ele>15.9</ele>
        <time>2023-06-28T10:13:50Z</time>
      </trkpt>
      <trkpt lat="49.94721" lon="2.14228">
        <ele>15.9</ele>
        <time>2023-06-28T10:13:51Z</time>
      </trkpt>
      <trkpt lat="49.94721" lon="2.14228">
        <ele>15.9</ele>
        <time>2023-06-28T10:13:52Z</time>
      </trkpt>
      <trkpt lat="49.94721" lon="2.14228">
        <ele>15.9</ele>
        <time>2023-06-28T10:13:53Z</time>
      </trkpt>
      <trkpt lat="49.94721" lon="2.14228">
        <ele>15.9</ele>
        <time>2023-06-28T10:13:54Z</time>
      </trkpt>
      <trkpt lat="49.94721" lon="2.14228">
        <ele>15.9</ele>
        <time>2023-06-28T10:13:55Z</time>
      </trkpt>
      <trkpt lat="49.94721" lon="2.14228">
        <ele>15.9</ele>
        <time>2023-06-28T10:13:56Z</time>
      </trkpt>
      <trkpt lat="49.94721" lon="2.14228">
        <ele>15.9</ele>
        <time>2023-06-28T10:13:57Z</time>
      </trkpt>
      <trkpt lat="49.94721" lon="2.14228">
        <ele>15.9</ele>
        <time>2023-06-28T10:13:58Z</time>
      </trkpt>
      <trkpt lat="49.94721" lon="2.14228">
        <ele>15.9</ele>
        <time>2023-06-28T10:13:59Z</time>
      </trkpt>
      <trkpt lat="49.94721" lon="2.14228">
        <ele>15.9</ele>
        <time>2023-06-28T10:14:00Z</time>
      </trkpt>
      <trkpt lat="49.94721" lon="2.14228">
        <ele>15.9</ele>
        <time>2023-06-28T10:14:01Z</time>
      </trkpt>
      <trkpt lat="49.94721" lon="2.14228">
        <ele>15.9</ele>
        <time>2023-06-28T10:14:02Z</time>
      </trkpt>
      <trkpt lat="49.94721" lon="2.14228">
        <ele>15.9</ele>
        <time>2023-06-28T10:14:03Z</time>
      </trkpt>
      <trkpt lat="49.94721" lon="2.14228">
        <ele>15.9</ele>
        <time>2023-06-28T10:14:04Z</time>
      </trkpt>
      <trkpt lat="49.94721" lon="2.14228">
        <ele>15.9</ele>
        <time>2023-06-28T10:14:05Z</time>
      </trkpt>
      <trkpt lat="49.94721" lon="2.14228">
        <ele>15.9</ele>
        <time>2023-06-28T10:14:06Z</time>
      </trkpt>
      <trkpt lat="49.94721" lon="2.14228">
        <ele>15.9</ele>
        <time>2023-06-28T10:14:07Z</time>
      </trkpt>
      <trkpt lat="49.94721" lon="2.14228">
        <ele>15.9</ele>
        <time>2023-06-28T10:14:08Z</time>
      </trkpt>
      <trkpt lat="49.94721" lon="2.14228">
        <ele>15.9</ele>
        <time>2023-06-28T10:14:09Z</time>
      </trkpt>
      <trkpt lat="49.94721" lon="2.14228">
        <ele>15.9</ele>
        <time>2023-06-28T10:14:10Z</time>
      </trkpt>
      <trkpt lat="49.94721" lon="2.14228">
        <ele>15.9</ele>
        <time>2023-06-28T10:14:11Z</time>
      </trkpt>
      <trkpt lat="49.94721" lon="2.14228">
        <ele>15.9</ele>
        <time>2023-06-28T10:14:12Z</time>
      </trkpt>
      <trkpt lat="49.94721" lon="2.14228">
        <ele>15.9</ele>
        <time>2023-06-28T10:14:13Z</time>
      </trkpt>
      <trkpt lat="49.94721" lon="2.14228">
        <ele>15.9</ele>
        <time>2023-06-28T10:14:14Z</time>
      </trkpt>
      <trkpt lat="49.94721" lon="2.14228">
        <ele>15.9</ele>
        <time>2023-06-28T10:14:15Z</time>
      </trkpt>
      <trkpt lat="49.94721" lon="2.14228">
        <ele>15.9</ele>
        <time>2023-06-28T10:14:16Z</time>
      </trkpt>
      <trkpt lat="49.94721" lon="2.14228">
        <ele>15.9</ele>
        <time>2023-06-28T10:14:17Z</time>
      </trkpt>
      <trkpt lat="49.94721" lon="2.14228">
        <ele>15.9</ele>
        <time>2023-06-28T10:14:18Z</time>
      </trkpt>
      <trkpt lat="49.94721" lon="2.14228">
        <ele>15.9</ele>
        <time>2023-06-28T10:14:19Z</time>
      </trkpt>
      <trkpt lat="49.94721" lon="2.14228">
        <ele>15.9</ele>
        <time>2023-06-28T10:14:20Z</time>
      </trkpt>
      <trkpt lat="49.94721" lon="2.14228">
        <ele>15.9</ele>
        <time>2023-06-28T10:14:21Z</time>
      </trkpt>
      <trkpt lat="49.94721" lon="2.14228">
        <ele>15.9</ele>
        <time>2023-06-28T10:14:22Z</time>
      </trkpt>
      <trkpt lat="49.94721" lon="2.14228">
        <ele>15.9</ele>
        <time>2023-06-28T10:14:23Z</time>
      </trkpt>
      <trkpt lat="49.94721" lon="2.14228">
        <ele>15.9</ele>
        <time>2023-06-28T10:14:24Z</time>
      </trkpt>
      <trkpt lat="49.94721" lon="2.14228">
        <ele>15.9</ele>
        <time>2023-06-28T10:14:25Z</time>
      </trkpt>
      <trkpt lat="49.94721" lon="2.14228">
        <ele>15.9</ele>
        <time>2023-06-28T10:14:26Z</time>
      </trkpt>
      <trkpt lat="49.94721" lon="2.14228">
        <ele>15.9</ele>
        <time>2023-06-28T10:14:27Z</time>
      </trkpt>
      <trkpt lat="49.94721" lon="2.14228">
        <ele>15.9</ele>
        <time>2023-06-28T10:14:28Z</time>
      </trkpt>
      <trkpt lat="49.94721" lon="2.14228">
        <ele>15.9</ele>
        <time>2023-06-28T10:14:29Z</time>
      </trkpt>
      <trkpt lat="49.94721" lon="2.14228">
        <ele>15.9</ele>
        <time>2023-06-28T10:14:30Z</time>
      </trkpt>
      <trkpt lat="49.94721" lon="2.14228">
        <ele>15.9</ele>
        <time>2023-06-28T10:14:31Z</time>
      </trkpt>
      <trkpt lat="49.94721" lon="2.14228">
        <ele>15.9</ele>
        <time>2023-06-28T10:14:32Z</time>
      </trkpt>
      <trkpt lat="49.94721" lon="2.14228">
        <ele>15.9</ele>
        <time>2023-06-28T10:14:33Z</time>
      </trkpt>
      <trkpt lat="49.94721" lon="2.14228">
        <ele>15.9</ele>
        <time>2023-06-28T10:14:34Z</time>
      </trkpt>
      <trkpt lat="49.94721" lon="2.14228">
        <ele>15.9</ele>
        <time>2023-06-28T10:14:35Z</time>
      </trkpt>
      <trkpt lat="49.94721" lon="2.14228">
        <ele>15.9</ele>
        <time>2023-06-28T10:14:36Z</time>
      </trkpt>
      <trkpt lat="49.94721" lon="2.14228">
        <ele>15.9</ele>
        <time>2023-06-28T10:14:37Z</time>
      </trkpt>
      <trkpt lat="49.94721" lon="2.14228">
        <ele>15.9</ele>
        <time>2023-06-28T10:14:38Z</time>
      </trkpt>
      <trkpt lat="49.94721" lon="2.14228">
        <ele>15.9</ele>
        <time>2023-06-28T10:14:39Z</time>
      </trkpt>
      <trkpt lat="49.94721" lon="2.14228">
        <ele>15.9</ele>
        <time>2023-06-28T10:14:40Z</time>
      </trkpt>
      <trkpt lat="49.94721" lon="2.14228">
        <ele>15.9</ele>
        <time>2023-06-28T10:14:41Z</time>
      </trkpt>
      <trkpt lat="49.94721" lon="2.14228">
        <ele>15.9</ele>
        <time>2023-06-28T10:14:42Z</time>
      </trkpt>
      <trkpt lat="49.94721" lon="2.14228">
        <ele>15.9</ele>
        <time>2023-06-28T10:14:43Z</time>
      </trkpt>
      <trkpt lat="49.94721" lon="2.14228">
        <ele>15.9</ele>
        <time>2023-06-28T10:14:44Z</time>
      </trkpt>
      <trkpt lat="49.94721" lon="2.14228">
        <ele>15.9</ele>
        <time>2023-06-28T10:14:45Z</time>
      </trkpt>
      <trkpt lat="49.94721" lon="2.14228">
        <ele>15.9</ele>
        <time>2023-06-28T10:14:46Z</time>
      </trkpt>
      <trkpt lat="49.94721" lon="2.14228">
        <ele>15.9</ele>
        <time>2023-06-28T10:14:47Z</time>
      </trkpt>
      <trkpt lat="49.94721" lon="2.14228">
        <ele>15.9</ele>
        <time>2023-06-28T10:14:48Z</time>
      </trkpt>
      <trkpt lat="49.94721" lon="2.14228">
        <ele>15.9</ele>
        <time>2023-06-28T10:14:49Z</time>
      </trkpt>
      <trkpt lat="49.94721" lon="2.14228">
        <ele>15.9</ele>
        <time>2023-06-28T10:14:50Z</time>
      </trkpt>
      <trkpt lat="49.94721" lon="2.14228">
        <ele>15.9</ele>
        <time>2023-06-28T10:14:51Z</time>
      </trkpt>
      <trkpt lat="49.94721" lon="2.14228">
        <ele>15.9</ele>
        <time>2023-06-28T10:14:52Z</time>
      </trkpt>
      <trkpt lat="49.94721" lon="2.14228">
        <ele>15.9</ele>
        <time>2023-06-28T10:14:53Z</time>
      </trkpt>
      <trkpt lat="49.94721" lon="2.14228">
        <ele>15.9</ele>
        <time>2023-06-28T10:14:54Z</time>
      </trkpt>
      <trkpt lat="49.94721" lon="2.14228">
        <ele>15.9</ele>
        <time>2023-06-28T10:14:55Z</time>
      </trkpt>
      <trkpt lat="49.94721" lon="2.14228">
        <ele>15.9</ele>
        <time>2023-06-28T10:14:56Z</time>
      </trkpt>
      <trkpt lat="49.94721" lon="2.14228">
        <ele>15.9</ele>
        <time>2023-06-28T10:14:57Z</time>
      </trkpt>
      <trkpt lat="49.94721" lon="2.14228">
        <ele>15.9</ele>
        <time>2023-06-28T10:14:58Z</time>
      </trkpt>
      <trkpt lat="49.94721" lon="2.14228">
        <ele>15.9</ele>
        <time>2023-06-28T10:14:59Z</time>
      </trkpt>
      <trkpt lat="49.94721" lon="2.14228">
        <ele>15.9</ele>
        <time>2023-06-28T10:15:00Z</time>
      </trkpt>
      <trkpt lat="49.94721" lon="2.14228">
        <ele>15.9</ele>
        <time>2023-06-28T10:15:01Z</time>
      </trkpt>
      <trkpt lat="49.94721" lon="2.14228">
        <ele>15.9</ele>
        <time>2023-06-28T10:15:02Z</time>
      </trkpt>
      <trkpt lat="49.94721" lon="2.14228">
        <ele>15.9</ele>
        <time>2023-06-28T10:15:03Z</time>
      </trkpt>
      <trkpt lat="49.94721" lon="2.14228">
        <ele>15.9</ele>
        <time>2023-06-28T10:15:04Z</time>
      </trkpt>
      <trkpt lat="49.94721" lon="2.14228">
        <ele>15.9</ele>
        <time>2023-06-28T10:15:05Z</time>
      </trkpt>
      <trkpt lat="49.94721" lon="2.14228">
        <ele>15.9</ele>
        <time>2023-06-28T10:15:06Z</time>
      </trkpt>
      <trkpt lat="49.94721" lon="2.14228">
        <ele>15.9</ele>
        <time>2023-06-28T10:15:07Z</time>
      </trkpt>
      <trkpt lat="49.94721" lon="2.14228">
        <ele>15.9</ele>
        <time>2023-06-28T10:15:08Z</time>
      </trkpt>
      <trkpt lat="49.94721" lon="2.14228">
        <ele>15.9</ele>
        <time>2023-06-28T10:15:09Z</time>
      </trkpt>
      <trkpt lat="49.94721" lon="2.14228">
        <ele>15.9</ele>
        <time>2023-06-28T10:15:10Z</time>
      </trkpt>
      <trkpt lat="49.94721" lon="2.14228">
        <ele>15.9</ele>
        <time>2023-06-28T10:15:11Z</time>
      </trkpt>
      <trkpt lat="49.94721" lon="2.14228">
        <ele>15.9</ele>
        <time>2023-06-28T10:15:12Z</time>
      </trkpt>
      <trkpt lat="49.94721" lon="2.14228">
        <ele>15.9</ele>
        <time>2023-06-28T10:15:13Z</time>
      </trkpt>
      <trkpt lat="49.94721" lon="2.14228">
        <ele>15.9</ele>
        <time>2023-06-28T10:15:14Z</time>
      </trkpt>
      <trkpt lat="49.94721" lon="2.14228">
        <ele>15.9</ele>
        <time>2023-06-28T10:15:15Z</time>
      </trkpt>
      <trkpt lat="49.94721" lon="2.14228">
        <ele>15.9</ele>
        <time>2023-06-28T10:15:16Z</time>
      </trkpt>
      <trkpt lat="49.94721" lon="2.14228">
        <ele>15.9</ele>
        <time>2023-06-28T10:15:17Z</time>
      </trkpt>
      <trkpt lat="49.94721" lon="2.14228">
        <ele>15.9</ele>
        <time>2023-06-28T10:15:18Z</time>
      </trkpt>
      <trkpt lat="49.94721" lon="2.14228">
        <ele>15.9</ele>
        <time>2023-06-28T10:15:19Z</time>
      </trkpt>
      <trkpt lat="49.94721" lon="2.14228">
        <ele>15.9</ele>
        <time>2023-06-28T10:15:20Z</time>
      </trkpt>
      <trkpt lat="49.94721" lon="2.14228">
        <ele>15.9</ele>
        <time>2023-06-28T10:15:21Z</time>
      </trkpt>
      <trkpt lat="49.94721" lon="2.14228">
        <ele>15.9</ele>
        <time>2023-06-28T10:15:22Z</time>
      </trkpt>
      <trkpt lat="49.94721" lon="2.14228">
        <ele>15.9</ele>
        <time>2023-06-28T10:15:23Z</time>
      </trkpt>
      <trkpt lat="49.94721" lon="2.14228">
        <ele>15.9</ele>
        <time>2023-06-28T10:15:24Z</time>
      </trkpt>
      <trkpt lat="49.94721" lon="2.14228">
        <ele>15.9</ele>
        <time>2023-06-28T10:15:25Z</time>
      </trkpt>
      <trkpt lat="49.94721" lon="2.14228">
        <ele>15.9</ele>
        <time>2023-06-28T10:15:26Z</time>
      </trkpt>
      <trkpt lat="49.94721" lon="2.14228">
        <ele>15.9</ele>
        <time>2023-06-28T10:15:27Z</time>
      </trkpt>
      <trkpt lat="49.94721" lon="2.14228">
        <ele>15.9</ele>
        <time>2023-06-28T10:15:28Z</time>
      </trkpt>
      <trkpt lat="49.94721" lon="2.14228">
        <ele>15.9</ele>
        <time>2023-06-28T10:15:29Z</time>
      </trkpt>
      <trkpt lat="49.94721" lon="2.14228">
        <ele>15.9</ele>
        <time>2023-06-28T10:15:30Z</time>
      </trkpt>
      <trkpt lat="49.94721" lon="2.14228">
        <ele>15.9</ele>
        <time>2023-06-28T10:15:31Z</time>
      </trkpt>
      <trkpt lat="49.94721" lon="2.14228">
        <ele>15.9</ele>
        <time>2023-06-28T10:15:32Z</time>
      </trkpt>
      <trkpt lat="49.94721" lon="2.14228">
        <ele>15.9</ele>
        <time>2023-06-28T10:15:33Z</time>
      </trkpt>
      <trkpt lat="49.94721" lon="2.14228">
        <ele>15.9</ele>
        <time>2023-06-28T10:15:34Z</time>
      </trkpt>
      <trkpt lat="49.94721" lon="2.14228">
        <ele>15.9</ele>
        <time>2023-06-28T10:15:35Z</time>
      </trkpt>
      <trkpt lat="49.94721" lon="2.14228">
        <ele>15.9</ele>
        <time>2023-06-28T10:15:36Z</time>
      </trkpt>
      <trkpt lat="49.94721" lon="2.14228">
        <ele>15.9</ele>
        <time>2023-06-28T10:15:37Z</time>
      </trkpt>
      <trkpt lat="49.94721" lon="2.14228">
        <ele>15.9</ele>
        <time>2023-06-28T10:15:38Z</time>
      </trkpt>
      <trkpt lat="49.94721" lon="2.14228">
        <ele>15.9</ele>
        <time>2023-06-28T10:15:39Z</time>
      </trkpt>
      <trkpt lat="49.94721" lon="2.14228">
        <ele>15.9</ele>
        <time>2023-06-28T10:15:40Z</time>
      </trkpt>
      <trkpt lat="49.94721" lon="2.14228">
        <ele>15.9</ele>
        <time>2023-06-28T10:15:41Z</time>
      </trkpt>
      <trkpt lat="49.94721" lon="2.14228">
        <ele>15.9</ele>
        <time>2023-06-28T10:15:42Z</time>
      </trkpt>
      <trkpt lat="49.94721" lon="2.14228">
        <ele>15.9</ele>
        <time>2023-06-28T10:15:43Z</time>
      </trkpt>
      <trkpt lat="49.94721" lon="2.14228">
        <ele>15.9</ele>
        <time>2023-06-28T10:15:44Z</time>
      </trkpt>
      <trkpt lat="49.94721" lon="2.14228">
        <ele>15.9</ele>
        <time>2023-06-28T10:15:45Z</time>
      </trkpt>
      <trkpt lat="49.94721" lon="2.14228">
        <ele>15.9</ele>
        <time>2023-06-28T10:15:46Z</time>
      </trkpt>
      <trkpt lat="49.94721" lon="2.14228">
        <ele>15.9</ele>
        <time>2023-06-28T10:15:47Z</time>
      </trkpt>
      <trkpt lat="49.94721" lon="2.14228">
        <ele>15.9</ele>
        <time>2023-06-28T10:15:48Z</time>
      </trkpt>
      <trkpt lat="49.94721" lon="2.14228">
        <ele>15.9</ele>
        <time>2023-06-28T10:15:49Z</time>
      </trkpt>
      <trkpt lat="49.94721" lon="2.14228">
        <ele>15.9</ele>
        <time>2023-06-28T10:15:50Z</time>
      </trkpt>
      <trkpt lat="49.94721" lon="2.14228">
        <ele>15.9</ele>
        <time>2023-06-28T10:15:51Z</time>
      </trkpt>
      <trkpt lat="49.94721" lon="2.14228">
        <ele>15.9</ele>
        <time>2023-06-28T10:15:52Z</time>
      </trkpt>
      <trkpt lat="49.94721" lon="2.14228">
        <ele>15.9</ele>
        <time>2023-06-28T10:15:53Z</time>
      </trkpt>
      <trkpt lat="49.94721" lon="2.14228">
        <ele>15.9</ele>
        <time>2023-06-28T10:15:54Z</time>
      </trkpt>
      <trkpt lat="49.94721" lon="2.14228">
        <ele>15.9</ele>
        <time>2023-06-28T10:15:55Z</time>
      </trkpt>
      <trkpt lat="49.94721" lon="2.14228">
        <ele>15.9</ele>
        <time>2023-06-28T10:15:56Z</time>
      </trkpt>
      <trkpt lat="49.94721" lon="2.14228">
        <ele>15.9</ele>
        <time>2023-06-28T10:15:57Z</time>
      </trkpt>
      <trkpt lat="49.94721" lon="2.14228">
        <ele>15.9</ele>
        <time>2023-06-28T10:15:58Z</time>
      </trkpt>
      <trkpt lat="49.94721" lon="2.14228">
        <ele>15.9</ele>
        <time>2023-06-28T10:15:59Z</time>
      </trkpt>
      <trkpt lat="49.94721" lon="2.14228">
        <ele>15.9</ele>
        <time>2023-06-28T10:16:00Z</time>
      </trkpt>
      <trkpt lat="49.94721" lon="2.14228">
        <ele>15.9</ele>
        <time>2023-06-28T10:16:01Z</time>
      </trkpt>
      <trkpt lat="49.94721" lon="2.14228">
        <ele>15.9</ele>
        <time>2023-06-28T10:16:02Z</time>
      </trkpt>
      <trkpt lat="49.94721" lon="2.14228">
        <ele>15.9</ele>
        <time>2023-06-28T10:16:03Z</time>
      </trkpt>
      <trkpt lat="49.94721" lon="2.14228">
        <ele>15.9</ele>
        <time>2023-06-28T10:16:04Z</time>
      </trkpt>
      <trkpt lat="49.94721" lon="2.14228">
        <ele>15.9</ele>
        <time>2023-06-28T10:16:05Z</time>
      </trkpt>
      <trkpt lat="49.94721" lon="2.14228">
        <ele>15.9</ele>
        <time>2023-06-28T10:16:06Z</time>
      </trkpt>
      <trkpt lat="49.94721" lon="2.14228">
        <ele>15.9</ele>
        <time>2023-06-28T10:16:07Z</time>
      </trkpt>
      <trkpt lat="49.94721" lon="2.14228">
        <ele>15.9</ele>
        <time>2023-06-28T10:16:08Z</time>
      </trkpt>
      <trkpt lat="49.94721" lon="2.14228">
        <ele>15.9</ele>
        <time>2023-06-28T10:16:09Z</time>
      </trkpt>
      <trkpt lat="49.94721" lon="2.14228">
        <ele>15.9</ele>
        <time>2023-06-28T10:16:10Z</time>
      </trkpt>
      <trkpt lat="49.94721" lon="2.14228">
        <ele>15.9</ele>
        <time>2023-06-28T10:16:11Z</time>
      </trkpt>
      <trkpt lat="49.94721" lon="2.14228">
        <ele>15.9</ele>
        <time>2023-06-28T10:16:12Z</time>
      </trkpt>
      <trkpt lat="49.94721" lon="2.14228">
        <ele>15.9</ele>
        <time>2023-06-28T10:16:13Z</time>
      </trkpt>
      <trkpt lat="49.94721" lon="2.14228">
        <ele>15.9</ele>
        <time>2023-06-28T10:16:14Z</time>
      </trkpt>
      <trkpt lat="49.94721" lon="2.14228">
        <ele>15.9</ele>
        <time>2023-06-28T10:16:15Z</time>
      </trkpt>
      <trkpt lat="49.94721" lon="2.14228">
        <ele>15.9</ele>
        <time>2023-06-28T10:16:16Z</time>
      </trkpt>
      <trkpt lat="49.94721" lon="2.14228">
        <ele>15.9</ele>
        <time>2023-06-28T10:16:17Z</time>
      </trkpt>
      <trkpt lat="49.94721" lon="2.14228">
        <ele>15.9</ele>
        <time>2023-06-28T10:16:18Z</time>
      </trkpt>
      <trkpt lat="49.94721" lon="2.14228">
        <ele>15.9</ele>
        <time>2023-06-28T10:16:19Z</time>
      </trkpt>
      <trkpt lat="49.94721" lon="2.14228">
        <ele>15.9</ele>
        <time>2023-06-28T10:16:20Z</time>
      </trkpt>
      <trkpt lat="49.94721" lon="2.14228">
        <ele>15.9</ele>
        <time>2023-06-28T10:16:21Z</time>
      </trkpt>
      <trkpt lat="49.94721" lon="2.14228">
        <ele>15.9</ele>
        <time>2023-06-28T10:16:22Z</time>
      </trkpt>
      <trkpt lat="49.94721" lon="2.14228">
        <ele>15.9</ele>
        <time>2023-06-28T10:16:23Z</time>
      </trkpt>
      <trkpt lat="49.94721" lon="2.14228">
        <ele>15.9</ele>
        <time>2023-06-28T10:16:24Z</time>
      </trkpt>
      <trkpt lat="49.94721" lon="2.14228">
        <ele>15.9</ele>
        <time>2023-06-28T10:16:25Z</time>
      </trkpt>
      <trkpt lat="49.94721" lon="2.14228">
        <ele>15.9</ele>
        <time>2023-06-28T10:16:26Z</time>
      </trkpt>
      <trkpt lat="49.94721" lon="2.14228">
        <ele>15.9</ele>
        <time>2023-06-28T10:16:27Z</time>
      </trkpt>
      <trkpt lat="49.94721" lon="2.14228">
        <ele>15.9</ele>
        <time>2023-06-28T10:16:28Z</time>
      </trkpt>
      <trkpt lat="49.94721" lon="2.14228">
        <ele>15.9</ele>
        <time>2023-06-28T10:16:29Z</time>
      </trkpt>
      <trkpt lat="49.94721" lon="2.14228">
        <ele>15.9</ele>
        <time>2023-06-28T10:16:30Z</time>
      </trkpt>
      <trkpt lat="49.94721" lon="2.14228">
        <ele>15.9</ele>
        <time>2023-06-28T10:16:31Z</time>
      </trkpt>
      <trkpt lat="49.94721" lon="2.14228">
        <ele>15.9</ele>
        <time>2023-06-28T10:16:32Z</time>
      </trkpt>
      <trkpt lat="49.94721" lon="2.14228">
        <ele>15.9</ele>
        <time>2023-06-28T10:16:33Z</time>
      </trkpt>
      <trkpt lat="49.94721" lon="2.14228">
        <ele>15.9</ele>
        <time>2023-06-28T10:16:34Z</time>
      </trkpt>
      <trkpt lat="49.94721" lon="2.14228">
        <ele>15.9</ele>
        <time>2023-06-28T10:16:35Z</time>
      </trkpt>
      <trkpt lat="49.94721" lon="2.14228">
        <ele>15.9</ele>
        <time>2023-06-28T10:16:36Z</time>
      </trkpt>
      <trkpt lat="49.94721" lon="2.14228">
        <ele>15.9</ele>
        <time>2023-06-28T10:16:37Z</time>
      </trkpt>
      <trkpt lat="49.94721" lon="2.14228">
        <ele>15.9</ele>
        <time>2023-06-28T10:16:38Z</time>
      </trkpt>
      <trkpt lat="49.94721" lon="2.14228">
        <ele>15.9</ele>
        <time>2023-06-28T10:16:39Z</time>
      </trkpt>
      <trkpt lat="49.94721" lon="2.14228">
        <ele>15.9</ele>
        <time>2023-06-28T10:16:40Z</time>
      </trkpt>
      <trkpt lat="49.94721" lon="2.14228">
        <ele>15.9</ele>
        <time>2023-06-28T10:16:41Z</time>
      </trkpt>
      <trkpt lat="49.94721" lon="2.14228">
        <ele>15.9</ele>
        <time>2023-06-28T10:16:42Z</time>
      </trkpt>
      <trkpt lat="49.94721" lon="2.14228">
        <ele>15.9</ele>
        <time>2023-06-28T10:16:43Z</time>
      </trkpt>
      <trkpt lat="49.94721" lon="2.14228">
        <ele>15.9</ele>
        <time>2023-06-28T10:16:44Z</time>
      </trkpt>
      <trkpt lat="49.94721" lon="2.14228">
        <ele>15.9</ele>
        <time>2023-06-28T10:16:45Z</time>
      </trkpt>
      <trkpt lat="49.94721" lon="2.14228">
        <ele>15.9</ele>
        <time>2023-06-28T10:16:46Z</time>
      </trkpt>
      <trkpt lat="49.94721" lon="2.14228">
        <ele>15.9</ele>
        <time>2023-06-28T10:16:47Z</time>
      </trkpt>
      <trkpt lat="49.94721" lon="2.14228">
        <ele>15.9</ele>
        <time>2023-06-28T10:16:48Z</time>
      </trkpt>
      <trkpt lat="49.94721" lon="2.14228">
        <ele>15.9</ele>
        <time>2023-06-28T10:16:49Z</time>
      </trkpt>
      <trkpt lat="49.94721" lon="2.14228">
        <ele>15.9</ele>
        <time>2023-06-28T10:16:50Z</time>
      </trkpt>
      <trkpt lat="49.94721" lon="2.14228">
        <ele>15.9</ele>
        <time>2023-06-28T10:16:51Z</time>
      </trkpt>
      <trkpt lat="49.94721" lon="2.14228">
        <ele>15.9</ele>
        <time>2023-06-28T10:16:52Z</time>
      </trkpt>
      <trkpt lat="49.94721" lon="2.14228">
        <ele>15.9</ele>
        <time>2023-06-28T10:16:53Z</time>
      </trkpt>
      <trkpt lat="49.94721" lon="2.14228">
        <ele>15.9</ele>
        <time>2023-06-28T10:16:54Z</time>
      </trkpt>
      <trkpt lat="49.94721" lon="2.14228">
        <ele>15.9</ele>
        <time>2023-06-28T10:16:55Z</time>
      </trkpt>
      <trkpt lat="49.94721" lon="2.14228">
        <ele>15.9</ele>
        <time>2023-06-28T10:16:56Z</time>
      </trkpt>
      <trkpt lat="49.94721" lon="2.14228">
        <ele>15.9</ele>
        <time>2023-06-28T10:16:57Z</time>
      </trkpt>
      <trkpt lat="49.94721" lon="2.14228">
        <ele>15.9</ele>
        <time>2023-06-28T10:16:58Z</time>
      </trkpt>
      <trkpt lat="49.94721" lon="2.14228">
        <ele>15.9</ele>
        <time>2023-06-28T10:16:59Z</time>
      </trkpt>
      <trkpt lat="49.94721" lon="2.14228">
        <ele>15.9</ele>
        <time>2023-06-28T10:17:00Z</time>
      </trkpt>
      <trkpt lat="49.94721" lon="2.14228">
        <ele>15.9</ele>
        <time>2023-06-28T10:17:01Z</time>
      </trkpt>
      <trkpt lat="49.94721" lon="2.14228">
        <ele>15.9</ele>
        <time>2023-06-28T10:17:02Z</time>
      </trkpt>
      <trkpt lat="49.94721" lon="2.14228">
        <ele>15.9</ele>
        <time>2023-06-28T10:17:03Z</time>
      </trkpt>
      <trkpt lat="49.94721" lon="2.14228">
        <ele>15.9</ele>
        <time>2023-06-28T10:17:04Z</time>
      </trkpt>
      <trkpt lat="49.94721" lon="2.14228">
        <ele>15.9</ele>
        <time>2023-06-28T10:17:05Z</time>
      </trkpt>
      <trkpt lat="49.94721" lon="2.14228">
        <ele>15.9</ele>
        <time>2023-06-28T10:17:06Z</time>
      </trkpt>
      <trkpt lat="49.94721" lon="2.14228">
        <ele>15.9</ele>
        <time>2023-06-28T10:17:07Z</time>
      </trkpt>
      <trkpt lat="49.94721" lon="2.14228">
        <ele>15.9</ele>
        <time>2023-06-28T10:17:08Z</time>
      </trkpt>
      <trkpt lat="49.94721" lon="2.14228">
        <ele>15.9</ele>
        <time>2023-06-28T10:17:09Z</time>
      </trkpt>
      <trkpt lat="49.94721" lon="2.14228">
        <ele>15.9</ele>
        <time>2023-06-28T10:17:10Z</time>
      </trkpt>
      <trkpt lat="49.94721" lon="2.14228">
        <ele>15.9</ele>
        <time>2023-06-28T10:17:11Z</time>
      </trkpt>
      <trkpt lat="49.94721" lon="2.14228">
        <ele>15.9</ele>
        <time>2023-06-28T10:17:12Z</time>
      </trkpt>
      <trkpt lat="49.94721" lon="2.14228">
        <ele>15.9</ele>
        <time>2023-06-28T10:17:13Z</time>
      </trkpt>
      <trkpt lat="49.94721" lon="2.14228">
        <ele>15.9</ele>
        <time>2023-06-28T10:17:14Z</time>
      </trkpt>
      <trkpt lat="49.94721" lon="2.14228">
        <ele>15.9</ele>
        <time>2023-06-28T10:17:15Z</time>
      </trkpt>
      <trkpt lat="49.94721" lon="2.14228">
        <ele>15.9</ele>
        <time>2023-06-28T10:17:16Z</time>
      </trkpt>
      <trkpt lat="49.94721" lon="2.14228">
        <ele>15.9</ele>
        <time>2023-06-28T10:17:17Z</time>
      </trkpt>
      <trkpt lat="49.94721" lon="2.14228">
        <ele>15.9</ele>
        <time>2023-06-28T10:17:18Z</time>
      </trkpt>
      <trkpt lat="49.94721" lon="2.14228">
        <ele>15.9</ele>
        <time>2023-06-28T10:17:19Z</time>
      </trkpt>
      <trkpt lat="49.94721" lon="2.14228">
        <ele>15.9</ele>
        <time>2023-06-28T10:17:20Z</time>
      </trkpt>
      <trkpt lat="49.94721" lon="2.14228">
        <ele>15.9</ele>
        <time>2023-06-28T10:17:21Z</time>
      </trkpt>
      <trkpt lat="49.94721" lon="2.14228">
        <ele>15.9</ele>
        <time>2023-06-28T10:17:22Z</time>
      </trkpt>
      <trkpt lat="49.94721" lon="2.14228">
        <ele>15.9</ele>
        <time>2023-06-28T10:17:23Z</time>
      </trkpt>
      <trkpt lat="49.94721" lon="2.14228">
        <ele>15.9</ele>
        <time>2023-06-28T10:17:24Z</time>
      </trkpt>
      <trkpt lat="49.94721" lon="2.14228">
        <ele>15.9</ele>
        <time>2023-06-28T10:17:25Z</time>
      </trkpt>
      <trkpt lat="49.94721" lon="2.14228">
        <ele>15.9</ele>
        <time>2023-06-28T10:17:26Z</time>
      </trkpt>
      <trkpt lat="49.94721" lon="2.14228">
        <ele>15.9</ele>
        <time>2023-06-28T10:17:27Z</time>
      </trkpt>
      <trkpt lat="49.94721" lon="2.14228">
        <ele>15.9</ele>
        <time>2023-06-28T10:17:28Z</time>
      </trkpt>
      <trkpt lat="49.94721" lon="2.14228">
        <ele>15.9</ele>
        <time>2023-06-28T10:17:29Z</time>
      </trkpt>
      <trkpt lat="49.94721" lon="2.14228">
        <ele>15.9</ele>
        <time>2023-06-28T10:17:30Z</time>
      </trkpt>
      <trkpt lat="49.94721" lon="2.14228">
        <ele>15.9</ele>
        <time>2023-06-28T10:17:31Z</time>
      </trkpt>
      <trkpt lat="49.94721" lon="2.14228">
        <ele>15.9</ele>
        <time>2023-06-28T10:17:32Z</time>
      </trkpt>
      <trkpt lat="49.94721" lon="2.14228">
        <ele>15.9</ele>
        <time>2023-06-28T10:17:33Z</time>
      </trkpt>
      <trkpt lat="49.94721" lon="2.14228">
        <ele>15.9</ele>
        <time>2023-06-28T10:17:34Z</time>
      </trkpt>
      <trkpt lat="49.94721" lon="2.14228">
        <ele>15.9</ele>
        <time>2023-06-28T10:17:35Z</time>
      </trkpt>
      <trkpt lat="49.94721" lon="2.14228">
        <ele>15.9</ele>
        <time>2023-06-28T10:17:36Z</time>
      </trkpt>
      <trkpt lat="49.94721" lon="2.14228">
        <ele>15.9</ele>
        <time>2023-06-28T10:17:37Z</time>
      </trkpt>
      <trkpt lat="49.94721" lon="2.14228">
        <ele>15.9</ele>
        <time>2023-06-28T10:17:38Z</time>
      </trkpt>
      <trkpt lat="49.94721" lon="2.14228">
        <ele>15.9</ele>
        <time>2023-06-28T10:17:39Z</time>
      </trkpt>
      <trkpt lat="49.94721" lon="2.14228">
        <ele>15.9</ele>
        <time>2023-06-28T10:17:40Z</time>
      </trkpt>
      <trkpt lat="49.94721" lon="2.14228">
        <ele>15.9</ele>
        <time>2023-06-28T10:17:41Z</time>
      </trkpt>
      <trkpt lat="49.94721" lon="2.14228">
        <ele>15.9</ele>
        <time>2023-06-28T10:17:42Z</time>
      </trkpt>
      <trkpt lat="49.94721" lon="2.14228">
        <ele>15.9</ele>
        <time>2023-06-28T10:17:43Z</time>
      </trkpt>
      <trkpt lat="49.94721" lon="2.14228">
        <ele>15.9</ele>
        <time>2023-06-28T10:17:44Z</time>
      </trkpt>
      <trkpt lat="49.94721" lon="2.14228">
        <ele>15.9</ele>
        <time>2023-06-28T10:17:45Z</time>
      </trkpt>
      <trkpt lat="49.94721" lon="2.14228">
        <ele>15.9</ele>
        <time>2023-06-28T10:17:46Z</time>
      </trkpt>
      <trkpt lat="49.94721" lon="2.14228">
        <ele>15.9</ele>
        <time>2023-06-28T10:17:47Z</time>
      </trkpt>
      <trkpt lat="49.94721" lon="2.14228">
        <ele>15.9</ele>
        <time>2023-06-28T10:17:48Z</time>
      </trkpt>
      <trkpt lat="49.94721" lon="2.14228">
        <ele>15.9</ele>
        <time>2023-06-28T10:17:49Z</time>
      </trkpt>
      <trkpt lat="49.94721" lon="2.14228">
        <ele>15.9</ele>
        <time>2023-06-28T10:17:50Z</time>
      </trkpt>
      <trkpt lat="49.94721" lon="2.14228">
        <ele>15.9</ele>
        <time>2023-06-28T10:17:51Z</time>
      </trkpt>
      <trkpt lat="49.94721" lon="2.14228">
        <ele>15.9</ele>
        <time>2023-06-28T10:17:52Z</time>
      </trkpt>
      <trkpt lat="49.94721" lon="2.14228">
        <ele>15.9</ele>
        <time>2023-06-28T10:17:53Z</time>
      </trkpt>
      <trkpt lat="49.94721" lon="2.14228">
        <ele>15.9</ele>
        <time>2023-06-28T10:17:54Z</time>
      </trkpt>
      <trkpt lat="49.94721" lon="2.14228">
        <ele>15.9</ele>
        <time>2023-06-28T10:17:55Z</time>
      </trkpt>
      <trkpt lat="49.94721" lon="2.14228">
        <ele>15.9</ele>
        <time>2023-06-28T10:17:56Z</time>
      </trkpt>
      <trkpt lat="49.94721" lon="2.14228">
        <ele>15.9</ele>
        <time>2023-06-28T10:17:57Z</time>
      </trkpt>
      <trkpt lat="49.94721" lon="2.14228">
        <ele>15.9</ele>
        <time>2023-06-28T10:17:58Z</time>
      </trkpt>
      <trkpt lat="49.94721" lon="2.14228">
        <ele>15.9</ele>
        <time>2023-06-28T10:17:59Z</time>
      </trkpt>
      <trkpt lat="49.94721" lon="2.14228">
        <ele>15.9</ele>
        <time>2023-06-28T10:18:00Z</time>
      </trkpt>
      <trkpt lat="49.94721" lon="2.14228">
        <ele>15.9</ele>
        <time>2023-06-28T10:18:01Z</time>
      </trkpt>
      <trkpt lat="49.94721" lon="2.14228">
        <ele>15.9</ele>
        <time>2023-06-28T10:18:02Z</time>
      </trkpt>
      <trkpt lat="49.94721" lon="2.14228">
        <ele>15.9</ele>
        <time>2023-06-28T10:18:03Z</time>
      </trkpt>
      <trkpt lat="49.94721" lon="2.14228">
        <ele>15.9</ele>
        <time>2023-06-28T10:18:04Z</time>
      </trkpt>
      <trkpt lat="49.94721" lon="2.14228">
        <ele>15.9</ele>
        <time>2023-06-28T10:18:05Z</time>
      </trkpt>
      <trkpt lat="49.94721" lon="2.14228">
        <ele>15.9</ele>
        <time>2023-06-28T10:18:06Z</time>
      </trkpt>
      <trkpt lat="49.94721" lon="2.14228">
        <ele>15.9</ele>
        <time>2023-06-28T10:18:07Z</time>
      </trkpt>
      <trkpt lat="49.94721" lon="2.14228">
        <ele>15.9</ele>
        <time>2023-06-28T10:18:08Z</time>
      </trkpt>
      <trkpt lat="49.94721" lon="2.14228">
        <ele>15.9</ele>
        <time>2023-06-28T10:18:09Z</time>
      </trkpt>
      <trkpt lat="49.94721" lon="2.14228">
        <ele>15.9</ele>
        <time>2023-06-28T10:18:10Z</time>
      </trkpt>
      <trkpt lat="49.94721" lon="2.14228">
        <ele>15.9</ele>
        <time>2023-06-28T10:18:11Z</time>
      </trkpt>
      <trkpt lat="49.94721" lon="2.14228">
        <ele>15.9</ele>
        <time>2023-06-28T10:18:12Z</time>
      </trkpt>
      <trkpt lat="49.94721" lon="2.14228">
        <ele>15.9</ele>
        <time>2023-06-28T10:18:13Z</time>
      </trkpt>
      <trkpt lat="49.94721" lon="2.14228">
        <ele>15.9</ele>
        <time>2023-06-28T10:18:14Z</time>
      </trkpt>
      <trkpt lat="49.94721" lon="2.14228">
        <ele>15.9</ele>
        <time>2023-06-28T10:18:15Z</time>
      </trkpt>
      <trkpt lat="49.94721" lon="2.14228">
        <ele>15.9</ele>
        <time>2023-06-28T10:18:16Z</time>
      </trkpt>
      <trkpt lat="49.94721" lon="2.14228">
        <ele>15.9</ele>
        <time>2023-06-28T10:18:17Z</time>
      </trkpt>
      <trkpt lat="49.94721" lon="2.14228">
        <ele>15.9</ele>
        <time>2023-06-28T10:18:18Z</time>
      </trkpt>
      <trkpt lat="49.94721" lon="2.14228">
        <ele>15.9</ele>
        <time>2023-06-28T10:18:19Z</time>
      </trkpt>
      <trkpt lat="49.94721" lon="2.14228">
        <ele>15.9</ele>
        <time>2023-06-28T10:18:20Z</time>
      </trkpt>
      <trkpt lat="49.94721" lon="2.14228">
        <ele>15.9</ele>
        <time>2023-06-28T10:18:21Z</time>
      </trkpt>
      <trkpt lat="49.94721" lon="2.14228">
        <ele>15.9</ele>
        <time>2023-06-28T10:18:22Z</time>
      </trkpt>
      <trkpt lat="49.94721" lon="2.14228">
        <ele>15.9</ele>
        <time>2023-06-28T10:18:23Z</time>
      </trkpt>
      <trkpt lat="49.94721" lon="2.14228">
        <ele>15.9</ele>
        <time>2023-06-28T10:18:24Z</time>
      </trkpt>
      <trkpt lat="49.94721" lon="2.14228">
        <ele>15.9</ele>
        <time>2023-06-28T10:18:25Z</time>
      </trkpt>
      <trkpt lat="49.94721" lon="2.14228">
        <ele>15.9</ele>
        <time>2023-06-28T10:18:26Z</time>
      </trkpt>
      <trkpt lat="49.94721" lon="2.14228">
        <ele>15.9</ele>
        <time>2023-06-28T10:18:27Z</time>
      </trkpt>
      <trkpt lat="49.94721" lon="2.14228">
        <ele>15.9</ele>
        <time>2023-06-28T10:18:28Z</time>
      </trkpt>
      <trkpt lat="49.94721" lon="2.14228">
        <ele>15.9</ele>
        <time>2023-06-28T10:18:29Z</time>
      </trkpt>
      <trkpt lat="49.94721" lon="2.14228">
        <ele>15.9</ele>
        <time>2023-06-28T10:18:30Z</time>
      </trkpt>
      <trkpt lat="49.94721" lon="2.14228">
        <ele>15.9</ele>
        <time>2023-06-28T10:18:31Z</time>
      </trkpt>
      <trkpt lat="49.94721" lon="2.14228">
        <ele>15.9</ele>
        <time>2023-06-28T10:18:32Z</time>
      </trkpt>
      <trkpt lat="49.94721" lon="2.14228">
        <ele>15.9</ele>
        <time>2023-06-28T10:18:33Z</time>
      </trkpt>
      <trkpt lat="49.94721" lon="2.14228">
        <ele>15.9</ele>
        <time>2023-06-28T10:18:34Z</time>
      </trkpt>
      <trkpt lat="49.94721" lon="2.14228">
        <ele>15.9</ele>
        <time>2023-06-28T10:18:35Z</time>
      </trkpt>
      <trkpt lat="49.94721" lon="2.14228">
        <ele>15.9</ele>
        <time>2023-06-28T10:18:36Z</time>
      </trkpt>
      <trkpt lat="49.94721" lon="2.14228">
        <ele>15.9</ele>
        <time>2023-06-28T10:18:37Z</time>
      </trkpt>
      <trkpt lat="49.94721" lon="2.14228">
        <ele>15.9</ele>
        <time>2023-06-28T10:18:38Z</time>
      </trkpt>
      <trkpt lat="49.94721" lon="2.14228">
        <ele>15.9</ele>
        <time>2023-06-28T10:18:39Z</time>
      </trkpt>
      <trkpt lat="49.94721" lon="2.14228">
        <ele>15.9</ele>
        <time>2023-06-28T10:18:40Z</time>
      </trkpt>
      <trkpt lat="49.94721" lon="2.14228">
        <ele>15.9</ele>
        <time>2023-06-28T10:18:41Z</time>
      </trkpt>
      <trkpt lat="49.94721" lon="2.14228">
        <ele>15.9</ele>
        <time>2023-06-28T10:18:42Z</time>
      </trkpt>
      <trkpt lat="49.94721" lon="2.14228">
        <ele>15.9</ele>
        <time>2023-06-28T10:18:43Z</time>
      </trkpt>
      <trkpt lat="49.94721" lon="2.14228">
        <ele>15.9</ele>
        <time>2023-06-28T10:18:44Z</time>
      </trkpt>
      <trkpt lat="49.94721" lon="2.14228">
        <ele>15.9</ele>
        <time>2023-06-28T10:18:45Z</time>
      </trkpt>
      <trkpt lat="49.94721" lon="2.14228">
        <ele>15.9</ele>
        <time>2023-06-28T10:18:46Z</time>
      </trkpt>
      <trkpt lat="49.94721" lon="2.14228">
        <ele>15.9</ele>
        <time>2023-06-28T10:18:47Z</time>
      </trkpt>
      <trkpt lat="49.94721" lon="2.14228">
        <ele>15.9</ele>
        <time>2023-06-28T10:18:48Z</time>
      </trkpt>
      <trkpt lat="49.94721" lon="2.14228">
        <ele>15.9</ele>
        <time>2023-06-28T10:18:49Z</time>
      </trkpt>
      <trkpt lat="49.94721" lon="2.14228">
        <ele>15.9</ele>
        <time>2023-06-28T10:18:50Z</time>
      </trkpt>
      <trkpt lat="49.94721" lon="2.14228">
        <ele>15.9</ele>
        <time>2023-06-28T10:18:51Z</time>
      </trkpt>
      <trkpt lat="49.94721" lon="2.14228">
        <ele>15.9</ele>
        <time>2023-06-28T10:18:52Z</time>
      </trkpt>
      <trkpt lat="49.94721" lon="2.14228">
        <ele>15.9</ele>
        <time>2023-06-28T10:18:53Z</time>
      </trkpt>
      <trkpt lat="49.94721" lon="2.14228">
        <ele>15.9</ele>
        <time>2023-06-28T10:18:54Z</time>
      </trkpt>
      <trkpt lat="49.94721" lon="2.14228">
        <ele>15.9</ele>
        <time>2023-06-28T10:18:55Z</time>
      </trkpt>
      <trkpt lat="49.94721" lon="2.14228">
        <ele>15.9</ele>
        <time>2023-06-28T10:18:56Z</time>
      </trkpt>
      <trkpt lat="49.94721" lon="2.14228">
        <ele>15.9</ele>
        <time>2023-06-28T10:18:57Z</time>
      </trkpt>
      <trkpt lat="49.94721" lon="2.14228">
        <ele>15.9</ele>
        <time>2023-06-28T10:18:58Z</time>
      </trkpt>
      <trkpt lat="49.94721" lon="2.14228">
        <ele>15.9</ele>
        <time>2023-06-28T10:18:59Z</time>
      </trkpt>
      <trkpt lat="49.94721" lon="2.14228">
        <ele>15.9</ele>
        <time>2023-06-28T10:19:00Z</time>
      </trkpt>
      <trkpt lat="49.94721" lon="2.14228">
        <ele>15.9</ele>
        <time>2023-06-28T10:19:01Z</time>
      </trkpt>
      <trkpt lat="49.94721" lon="2.14228">
        <ele>15.9</ele>
        <time>2023-06-28T10:19:02Z</time>
      </trkpt>
      <trkpt lat="49.94721" lon="2.14228">
        <ele>15.9</ele>
        <time>2023-06-28T10:19:03Z</time>
      </trkpt>
      <trkpt lat="49.94721" lon="2.14228">
        <ele>15.9</ele>
        <time>2023-06-28T10:19:04Z</time>
      </trkpt>
      <trkpt lat="49.94721" lon="2.14228">
        <ele>15.9</ele>
        <time>2023-06-28T10:19:05Z</time>
      </trkpt>
      <trkpt lat="49.94721" lon="2.14228">
        <ele>15.9</ele>
        <time>2023-06-28T10:19:06Z</time>
      </trkpt>
      <trkpt lat="49.94721" lon="2.14228">
        <ele>15.9</ele>
        <time>2023-06-28T10:19:07Z</time>
      </trkpt>
      <trkpt lat="49.94721" lon="2.14228">
        <ele>15.9</ele>
        <time>2023-06-28T10:19:08Z</time>
      </trkpt>
      <trkpt lat="49.94721" lon="2.14228">
        <ele>15.9</ele>
        <time>2023-06-28T10:19:09Z</time>
      </trkpt>
      <trkpt lat="49.94721" lon="2.14228">
        <ele>15.9</ele>
        <time>2023-06-28T10:19:10Z</time>
      </trkpt>
      <trkpt lat="49.94721" lon="2.14228">
        <ele>15.9</ele>
        <time>2023-06-28T10:19:11Z</time>
      </trkpt>
      <trkpt lat="49.94721" lon="2.14228">
        <ele>15.9</ele>
        <time>2023-06-28T10:19:12Z</time>
      </trkpt>
      <trkpt lat="49.94721" lon="2.14228">
        <ele>15.9</ele>
        <time>2023-06-28T10:19:13Z</time>
      </trkpt>
      <trkpt lat="49.94721" lon="2.14228">
        <ele>15.9</ele>
        <time>2023-06-28T10:19:14Z</time>
      </trkpt>
      <trkpt lat="49.94721" lon="2.14228">
        <ele>15.9</ele>
        <time>2023-06-28T10:19:15Z</time>
      </trkpt>
      <trkpt lat="49.94721" lon="2.14228">
        <ele>15.9</ele>
        <time>2023-06-28T10:19:16Z</time>
      </trkpt>
      <trkpt lat="49.94721" lon="2.14228">
        <ele>15.9</ele>
        <time>2023-06-28T10:19:17Z</time>
      </trkpt>
      <trkpt lat="49.94721" lon="2.14228">
        <ele>15.9</ele>
        <time>2023-06-28T10:19:18Z</time>
      </trkpt>
      <trkpt lat="49.94721" lon="2.14228">
        <ele>15.9</ele>
        <time>2023-06-28T10:19:19Z</time>
      </trkpt>
      <trkpt lat="49.94721" lon="2.14228">
        <ele>15.9</ele>
        <time>2023-06-28T10:19:20Z</time>
      </trkpt>
      <trkpt lat="49.94721" lon="2.14228">
        <ele>15.9</ele>
        <time>2023-06-28T10:19:21Z</time>
      </trkpt>
      <trkpt lat="49.94721" lon="2.14228">
        <ele>15.9</ele>
        <time>2023-06-28T10:19:22Z</time>
      </trkpt>
      <trkpt lat="49.94721" lon="2.14228">
        <ele>15.9</ele>
        <time>2023-06-28T10:19:23Z</time>
      </trkpt>
      <trkpt lat="49.94721" lon="2.14228">
        <ele>15.9</ele>
        <time>2023-06-28T10:19:24Z</time>
      </trkpt>
      <trkpt lat="49.94721" lon="2.14228">
        <ele>15.9</ele>
        <time>2023-06-28T10:19:25Z</time>
      </trkpt>
      <trkpt lat="49.94721" lon="2.14228">
        <ele>15.9</ele>
        <time>2023-06-28T10:19:26Z</time>
      </trkpt>
      <trkpt lat="49.94721" lon="2.14228">
        <ele>15.9</ele>
        <time>2023-06-28T10:19:27Z</time>
      </trkpt>
      <trkpt lat="49.94721" lon="2.14228">
        <ele>15.9</ele>
        <time>2023-06-28T10:19:28Z</time>
      </trkpt>
      <trkpt lat="49.94721" lon="2.14228">
        <ele>15.9</ele>
        <time>2023-06-28T10:19:29Z</time>
      </trkpt>
      <trkpt lat="49.94721" lon="2.14228">
        <ele>15.9</ele>
        <time>2023-06-28T10:19:30Z</time>
      </trkpt>
      <trkpt lat="49.94721" lon="2.14228">
        <ele>15.9</ele>
        <time>2023-06-28T10:19:31Z</time>
      </trkpt>
      <trkpt lat="49.94721" lon="2.14228">
        <ele>15.9</ele>
        <time>2023-06-28T10:19:32Z</time>
      </trkpt>
      <trkpt lat="49.94721" lon="2.14228">
        <ele>15.9</ele>
        <time>2023-06-28T10:19:33Z</time>
      </trkpt>
      <trkpt lat="49.94721" lon="2.14228">
        <ele>15.9</ele>
        <time>2023-06-28T10:19:34Z</time>
      </trkpt>
      <trkpt lat="49.94721" lon="2.14228">
        <ele>15.9</ele>
        <time>2023-06-28T10:19:35Z</time>
      </trkpt>
      <trkpt lat="49.94721" lon="2.14228">
        <ele>15.9</ele>
        <time>2023-06-28T10:19:36Z</time>
      </trkpt>
      <trkpt lat="49.94721" lon="2.14228">
        <ele>15.9</ele>
        <time>2023-06-28T10:19:37Z</time>
      </trkpt>
      <trkpt lat="49.94721" lon="2.14228">
        <ele>15.9</ele>
        <time>2023-06-28T10:19:38Z</time>
      </trkpt>
      <trkpt lat="49.94721" lon="2.14228">
        <ele>15.9</ele>
        <time>2023-06-28T10:19:39Z</time>
      </trkpt>
      <trkpt lat="49.94721" lon="2.14228">
        <ele>15.9</ele>
        <time>2023-06-28T10:19:40Z</time>
      </trkpt>
      <trkpt lat="49.94721" lon="2.14228">
        <ele>15.9</ele>
        <time>2023-06-28T10:19:41Z</time>
      </trkpt>
      <trkpt lat="49.94721" lon="2.14228">
        <ele>15.9</ele>
        <time>2023-06-28T10:19:42Z</time>
      </trkpt>
      <trkpt lat="49.94721" lon="2.14228">
        <ele>15.9</ele>
        <time>2023-06-28T10:19:43Z</time>
      </trkpt>
      <trkpt lat="49.94721" lon="2.14228">
        <ele>15.9</ele>
        <time>2023-06-28T10:19:44Z</time>
      </trkpt>
      <trkpt lat="49.94721" lon="2.14228">
        <ele>15.9</ele>
        <time>2023-06-28T10:19:45Z</time>
      </trkpt>
      <trkpt lat="49.94721" lon="2.14228">
        <ele>15.9</ele>
        <time>2023-06-28T10:19:46Z</time>
      </trkpt>
      <trkpt lat="49.94721" lon="2.14228">
        <ele>15.9</ele>
        <time>2023-06-28T10:19:47Z</time>
      </trkpt>
      <trkpt lat="49.94721" lon="2.14228">
        <ele>15.9</ele>
        <time>2023-06-28T10:19:48Z</time>
      </trkpt>
      <trkpt lat="49.94721" lon="2.14228">
        <ele>15.9</ele>
        <time>2023-06-28T10:19:49Z</time>
      </trkpt>
      <trkpt lat="49.94721" lon="2.14228">
        <ele>15.9</ele>
        <time>2023-06-28T10:19:50Z</time>
      </trkpt>
      <trkpt lat="49.94721" lon="2.14228">
        <ele>15.9</ele>
        <time>2023-06-28T10:19:51Z</time>
      </trkpt>
      <trkpt lat="49.94721" lon="2.14228">
        <ele>15.9</ele>
        <time>2023-06-28T10:19:52Z</time>
      </trkpt>
      <trkpt lat="49.94721" lon="2.14228">
        <ele>15.9</ele>
        <time>2023-06-28T10:19:53Z</time>
      </trkpt>
      <trkpt lat="49.94721" lon="2.14228">
        <ele>15.9</ele>
        <time>2023-06-28T10:19:54Z</time>
      </trkpt>
      <trkpt lat="49.94721" lon="2.14228">
        <ele>15.9</ele>
        <time>2023-06-28T10:19:55Z</time>
      </trkpt>
      <trkpt lat="49.94721" lon="2.14228">
        <ele>15.9</ele>
        <time>2023-06-28T10:19:56Z</time>
      </trkpt>
      <trkpt lat="49.94721" lon="2.14228">
        <ele>15.9</ele>
        <time>2023-06-28T10:19:57Z</time>
      </trkpt>
      <trkpt lat="49.94721" lon="2.14228">
        <ele>15.9</ele>
        <time>2023-06-28T10:19:58Z</time>
      </trkpt>
      <trkpt lat="49.94721" lon="2.14228">
        <ele>15.9</ele>
        <time>2023-06-28T10:19:59Z</time>
      </trkpt>
      <trkpt lat="49.94721" lon="2.14228">
        <ele>15.9</ele>
        <time>2023-06-28T10:20:00Z</time>
      </trkpt>
      <trkpt lat="49.94721" lon="2.14228">
        <ele>15.9</ele>
        <time>2023-06-28T10:20:01Z</time>
      </trkpt>
      <trkpt lat="49.94721" lon="2.14228">
        <ele>15.9</ele>
        <time>2023-06-28T10:20:02Z</time>
      </trkpt>
      <trkpt lat="49.94721" lon="2.14228">
        <ele>15.9</ele>
        <time>2023-06-28T10:20:03Z</time>
      </trkpt>
      <trkpt lat="49.94721" lon="2.14228">
        <ele>15.9</ele>
        <time>2023-06-28T10:20:04Z</time>
      </trkpt>
      <trkpt lat="49.94721" lon="2.14228">
        <ele>15.9</ele>
        <time>2023-06-28T10:20:05Z</time>
      </trkpt>
      <trkpt lat="49.94721" lon="2.14228">
        <ele>15.9</ele>
        <time>2023-06-28T10:20:06Z</time>
      </trkpt>
      <trkpt lat="49.94721" lon="2.14228">
        <ele>15.9</ele>
        <time>2023-06-28T10:20:07Z</time>
      </trkpt>
      <trkpt lat="49.94721" lon="2.14228">
        <ele>15.9</ele>
        <time>2023-06-28T10:20:08Z</time>
      </trkpt>
      <trkpt lat="49.94721" lon="2.14228">
        <ele>15.9</ele>
        <time>2023-06-28T10:20:09Z</time>
      </trkpt>
      <trkpt lat="49.94721" lon="2.14228">
        <ele>15.9</ele>
        <time>2023-06-28T10:20:10Z</time>
      </trkpt>
      <trkpt lat="49.94721" lon="2.14228">
        <ele>15.9</ele>
        <time>2023-06-28T10:20:11Z</time>
      </trkpt>
      <trkpt lat="49.94721" lon="2.14228">
        <ele>15.9</ele>
        <time>2023-06-28T10:20:12Z</time>
      </trkpt>
      <trkpt lat="49.94721" lon="2.14228">
        <ele>15.9</ele>
        <time>2023-06-28T10:20:13Z</time>
      </trkpt>
      <trkpt lat="49.94721" lon="2.14228">
        <ele>15.9</ele>
        <time>2023-06-28T10:20:14Z</time>
      </trkpt>
      <trkpt lat="49.94721" lon="2.14228">
        <ele>15.9</ele>
        <time>2023-06-28T10:20:15Z</time>
      </trkpt>
      <trkpt lat="49.94721" lon="2.14228">
        <ele>15.9</ele>
        <time>2023-06-28T10:20:16Z</time>
      </trkpt>
      <trkpt lat="49.94721" lon="2.14228">
        <ele>15.9</ele>
        <time>2023-06-28T10:20:17Z</time>
      </trkpt>
      <trkpt lat="49.94721" lon="2.14228">
        <ele>15.9</ele>
        <time>2023-06-28T10:20:18Z</time>
      </trkpt>
      <trkpt lat="49.94721" lon="2.14228">
        <ele>15.9</ele>
        <time>2023-06-28T10:20:19Z</time>
      </trkpt>
      <trkpt lat="49.94721" lon="2.14228">
        <ele>15.9</ele>
        <time>2023-06-28T10:20:20Z</time>
      </trkpt>
      <trkpt lat="49.94721" lon="2.14228">
        <ele>15.9</ele>
        <time>2023-06-28T10:20:21Z</time>
      </trkpt>
      <trkpt lat="49.94721" lon="2.14228">
        <ele>15.9</ele>
        <time>2023-06-28T10:20:22Z</time>
      </trkpt>
      <trkpt lat="49.94721" lon="2.14228">
        <ele>15.9</ele>
        <time>2023-06-28T10:20:23Z</time>
      </trkpt>
      <trkpt lat="49.94721" lon="2.14228">
        <ele>15.9</ele>
        <time>2023-06-28T10:20:24Z</time>
      </trkpt>
      <trkpt lat="49.94721" lon="2.14228">
        <ele>15.9</ele>
        <time>2023-06-28T10:20:25Z</time>
      </trkpt>
      <trkpt lat="49.94721" lon="2.14228">
        <ele>15.9</ele>
        <time>2023-06-28T10:20:26Z</time>
      </trkpt>
      <trkpt lat="49.94721" lon="2.14228">
        <ele>15.9</ele>
        <time>2023-06-28T10:20:27Z</time>
      </trkpt>
      <trkpt lat="49.94721" lon="2.14228">
        <ele>15.9</ele>
        <time>2023-06-28T10:20:28Z</time>
      </trkpt>
      <trkpt lat="49.94721" lon="2.14228">
        <ele>15.9</ele>
        <time>2023-06-28T10:20:29Z</time>
      </trkpt>
      <trkpt lat="49.94721" lon="2.14228">
        <ele>15.9</ele>
        <time>2023-06-28T10:20:30Z</time>
      </trkpt>
      <trkpt lat="49.94721" lon="2.14228">
        <ele>15.9</ele>
        <time>2023-06-28T10:20:31Z</time>
      </trkpt>
      <trkpt lat="49.94721" lon="2.14228">
        <ele>15.9</ele>
        <time>2023-06-28T10:20:32Z</time>
      </trkpt>
      <trkpt lat="49.94721" lon="2.14228">
        <ele>15.9</ele>
        <time>2023-06-28T10:20:33Z</time>
      </trkpt>
      <trkpt lat="49.94721" lon="2.14228">
        <ele>15.9</ele>
        <time>2023-06-28T10:20:34Z</time>
      </trkpt>
      <trkpt lat="49.94721" lon="2.14228">
        <ele>15.9</ele>
        <time>2023-06-28T10:20:35Z</time>
      </trkpt>
      <trkpt lat="49.94721" lon="2.14228">
        <ele>15.9</ele>
        <time>2023-06-28T10:20:36Z</time>
      </trkpt>
      <trkpt lat="49.94721" lon="2.14228">
        <ele>15.9</ele>
        <time>2023-06-28T10:20:37Z</time>
      </trkpt>
      <trkpt lat="49.94721" lon="2.14228">
        <ele>15.9</ele>
        <time>2023-06-28T10:20:38Z</time>
      </trkpt>
      <trkpt lat="49.94721" lon="2.14228">
        <ele>15.9</ele>
        <time>2023-06-28T10:20:39Z</time>
      </trkpt>
      <trkpt lat="49.94721" lon="2.14228">
        <ele>15.9</ele>
        <time>2023-06-28T10:20:40Z</time>
      </trkpt>
      <trkpt lat="49.94721" lon="2.14228">
        <ele>15.9</ele>
        <time>2023-06-28T10:20:41Z</time>
      </trkpt>
      <trkpt lat="49.94721" lon="2.14228">
        <ele>15.9</ele>
        <time>2023-06-28T10:20:42Z</time>
      </trkpt>
      <trkpt lat="49.94721" lon="2.14228">
        <ele>15.9</ele>
        <time>2023-06-28T10:20:43Z</time>
      </trkpt>
      <trkpt lat="49.94721" lon="2.14228">
        <ele>15.9</ele>
        <time>2023-06-28T10:20:44Z</time>
      </trkpt>
      <trkpt lat="49.94721" lon="2.14228">
        <ele>15.9</ele>
        <time>2023-06-28T10:20:45Z</time>
      </trkpt>
      <trkpt lat="49.94721" lon="2.14228">
        <ele>15.9</ele>
        <time>2023-06-28T10:20:46Z</time>
      </trkpt>
      <trkpt lat="49.94721" lon="2.14228">
        <ele>15.9</ele>
        <time>2023-06-28T10:20:47Z</time>
      </trkpt>
      <trkpt lat="49.94721" lon="2.14228">
        <ele>15.9</ele>
        <time>2023-06-28T10:20:48Z</time>
      </trkpt>
      <trkpt lat="49.94721" lon="2.14228">
        <ele>15.9</ele>
        <time>2023-06-28T10:20:49Z</time>
      </trkpt>
      <trkpt lat="49.94721" lon="2.14228">
        <ele>15.9</ele>
        <time>2023-06-28T10:20:50Z</time>
      </trkpt>
      <trkpt lat="49.94721" lon="2.14228">
        <ele>15.9</ele>
        <time>2023-06-28T10:20:51Z</time>
      </trkpt>
      <trkpt lat="49.94721" lon="2.14228">
        <ele>15.9</ele>
        <time>2023-06-28T10:20:52Z</time>
      </trkpt>
      <trkpt lat="49.94721" lon="2.14228">
        <ele>15.9</ele>
        <time>2023-06-28T10:20:53Z</time>
      </trkpt>
      <trkpt lat="49.94721" lon="2.14228">
        <ele>15.9</ele>
        <time>2023-06-28T10:20:54Z</time>
      </trkpt>
      <trkpt lat="49.94721" lon="2.14228">
        <ele>15.9</ele>
        <time>2023-06-28T10:20:55Z</time>
      </trkpt>
      <trkpt lat="49.94721" lon="2.14228">
        <ele>15.9</ele>
        <time>2023-06-28T10:20:56Z</time>
      </trkpt>
      <trkpt lat="49.94721" lon="2.14228">
        <ele>15.9</ele>
        <time>2023-06-28T10:20:57Z</time>
      </trkpt>
      <trkpt lat="49.94721" lon="2.14228">
        <ele>15.9</ele>
        <time>2023-06-28T10:20:58Z</time>
      </trkpt>
      <trkpt lat="49.94721" lon="2.14228">
        <ele>15.9</ele>
        <time>2023-06-28T10:20:59Z</time>
      </trkpt>
      <trkpt lat="49.94721" lon="2.14228">
        <ele>15.9</ele>
        <time>2023-06-28T10:21:00Z</time>
      </trkpt>
      <trkpt lat="49.94721" lon="2.14228">
        <ele>15.9</ele>
        <time>2023-06-28T10:21:01Z</time>
      </trkpt>
      <trkpt lat="49.94721" lon="2.14228">
        <ele>15.9</ele>
        <time>2023-06-28T10:21:02Z</time>
      </trkpt>
      <trkpt lat="49.94721" lon="2.14228">
        <ele>15.9</ele>
        <time>2023-06-28T10:21:03Z</time>
      </trkpt>
      <trkpt lat="49.94721" lon="2.14228">
        <ele>15.9</ele>
        <time>2023-06-28T10:21:04Z</time>
      </trkpt>
      <trkpt lat="49.94721" lon="2.14228">
        <ele>15.9</ele>
        <time>2023-06-28T10:21:05Z</time>
      </trkpt>
      <trkpt lat="49.94721" lon="2.14228">
        <ele>15.9</ele>
        <time>2023-06-28T10:21:06Z</time>
      </trkpt>
      <trkpt lat="49.94721" lon="2.14228">
        <ele>15.9</ele>
        <time>2023-06-28T10:21:07Z</time>
      </trkpt>
      <trkpt lat="49.94721" lon="2.14228">
        <ele>15.9</ele>
        <time>2023-06-28T10:21:08Z</time>
      </trkpt>
      <trkpt lat="49.94721" lon="2.14228">
        <ele>15.9</ele>
        <time>2023-06-28T10:21:09Z</time>
      </trkpt>
      <trkpt lat="49.94721" lon="2.14228">
        <ele>15.9</ele>
        <time>2023-06-28T10:21:10Z</time>
      </trkpt>
      <trkpt lat="49.94721" lon="2.14228">
        <ele>15.9</ele>
        <time>2023-06-28T10:21:11Z</time>
      </trkpt>
      <trkpt lat="49.94721" lon="2.14228">
        <ele>15.9</ele>
        <time>2023-06-28T10:21:12Z</time>
      </trkpt>
      <trkpt lat="49.94721" lon="2.14228">
        <ele>15.9</ele>
        <time>2023-06-28T10:21:13Z</time>
      </trkpt>
      <trkpt lat="49.94721" lon="2.14228">
        <ele>15.9</ele>
        <time>2023-06-28T10:21:14Z</time>
      </trkpt>
      <trkpt lat="49.94721" lon="2.14228">
        <ele>15.9</ele>
        <time>2023-06-28T10:21:15Z</time>
      </trkpt>
      <trkpt lat="49.94721" lon="2.14228">
        <ele>15.9</ele>
        <time>2023-06-28T10:21:16Z</time>
      </trkpt>
      <trkpt lat="49.94721" lon="2.14228">
        <ele>15.9</ele>
        <time>2023-06-28T10:21:17Z</time>
      </trkpt>
      <trkpt lat="49.94721" lon="2.14228">
        <ele>15.9</ele>
        <time>2023-06-28T10:21:18Z</time>
      </trkpt>
      <trkpt lat="49.94721" lon="2.14228">
        <ele>15.9</ele>
        <time>2023-06-28T10:21:19Z</time>
      </trkpt>
      <trkpt lat="49.94721" lon="2.14228">
        <ele>15.9</ele>
        <time>2023-06-28T10:21:20Z</time>
      </trkpt>
      <trkpt lat="49.94721" lon="2.14228">
        <ele>15.9</ele>
        <time>2023-06-28T10:21:21Z</time>
      </trkpt>
      <trkpt lat="49.94722" lon="2.14228">
        <ele>15.9</ele>
        <time>2023-06-28T10:21:22Z</time>
      </trkpt>
      <trkpt lat="49.94722" lon="2.14228">
        <ele>15.9</ele>
        <time>2023-06-28T10:21:23Z</time>
      </trkpt>
      <trkpt lat="49.94722" lon="2.14228">
        <ele>15.9</ele>
        <time>2023-06-28T10:21:24Z</time>
      </trkpt>
      <trkpt lat="49.94722" lon="2.14228">
        <ele>15.9</ele>
        <time>2023-06-28T10:21:25Z</time>
      </trkpt>
      <trkpt lat="49.94722" lon="2.14228">
        <ele>15.9</ele>
        <time>2023-06-28T10:21:26Z</time>
      </trkpt>
      <trkpt lat="49.94722" lon="2.14228">
        <ele>15.9</ele>
        <time>2023-06-28T10:21:27Z</time>
      </trkpt>
      <trkpt lat="49.94722" lon="2.14228">
        <ele>15.9</ele>
        <time>2023-06-28T10:21:28Z</time>
      </trkpt>
      <trkpt lat="49.94722" lon="2.14228">
        <ele>15.9</ele>
        <time>2023-06-28T10:21:29Z</time>
      </trkpt>
      <trkpt lat="49.94722" lon="2.14228">
        <ele>15.9</ele>
        <time>2023-06-28T10:21:30Z</time>
      </trkpt>
      <trkpt lat="49.94722" lon="2.14228">
        <ele>15.9</ele>
        <time>2023-06-28T10:21:31Z</time>
      </trkpt>
      <trkpt lat="49.94722" lon="2.14228">
        <ele>15.9</ele>
        <time>2023-06-28T10:21:32Z</time>
      </trkpt>
      <trkpt lat="49.94722" lon="2.14228">
        <ele>15.9</ele>
        <time>2023-06-28T10:21:33Z</time>
      </trkpt>
      <trkpt lat="49.94722" lon="2.14228">
        <ele>15.9</ele>
        <time>2023-06-28T10:21:34Z</time>
      </trkpt>
      <trkpt lat="49.94722" lon="2.14228">
        <ele>15.9</ele>
        <time>2023-06-28T10:21:35Z</time>
      </trkpt>
      <trkpt lat="49.94722" lon="2.14228">
        <ele>15.9</ele>
        <time>2023-06-28T10:21:36Z</time>
      </trkpt>
      <trkpt lat="49.94722" lon="2.14228">
        <ele>15.9</ele>
        <time>2023-06-28T10:22:09Z</time>
      </trkpt>
      <trkpt lat="49.94722" lon="2.14228">
        <ele>15.9</ele>
        <time>2023-06-28T10:22:10Z</time>
      </trkpt>
      <trkpt lat="49.94722" lon="2.14228">
        <ele>15.9</ele>
        <time>2023-06-28T10:22:11Z</time>
      </trkpt>
      <trkpt lat="49.94722" lon="2.14228">
        <ele>15.9</ele>
        <time>2023-06-28T10:22:12Z</time>
      </trkpt>
      <trkpt lat="49.94722" lon="2.14228">
        <ele>15.9</ele>
        <time>2023-06-28T10:22:13Z</time>
      </trkpt>
      <trkpt lat="49.94722" lon="2.14228">
        <ele>15.9</ele>
        <time>2023-06-28T10:22:14Z</time>
      </trkpt>
      <trkpt lat="49.94722" lon="2.14228">
        <ele>15.9</ele>
        <time>2023-06-28T10:22:15Z</time>
      </trkpt>
      <trkpt lat="49.94722" lon="2.14228">
        <ele>15.9</ele>
        <time>2023-06-28T10:22:16Z</time>
      </trkpt>
      <trkpt lat="49.94722" lon="2.14228">
        <ele>15.9</ele>
        <time>2023-06-28T10:22:17Z</time>
      </trkpt>
      <trkpt lat="49.94722" lon="2.14228">
        <ele>15.9</ele>
        <time>2023-06-28T10:22:18Z</time>
      </trkpt>
      <trkpt lat="49.94722" lon="2.14228">
        <ele>15.9</ele>
        <time>2023-06-28T10:22:19Z</time>
      </trkpt>
      <trkpt lat="49.94722" lon="2.14228">
        <ele>15.9</ele>
        <time>2023-06-28T10:22:20Z</time>
      </trkpt>
      <trkpt lat="49.94722" lon="2.14228">
        <ele>15.9</ele>
        <time>2023-06-28T10:22:21Z</time>
      </trkpt>
      <trkpt lat="49.94722" lon="2.14228">
        <ele>15.9</ele>
        <time>2023-06-28T10:22:22Z</time>
      </trkpt>
      <trkpt lat="49.94722" lon="2.14228">
        <ele>15.9</ele>
        <time>2023-06-28T10:22:23Z</time>
      </trkpt>
      <trkpt lat="49.94722" lon="2.14228">
        <ele>15.9</ele>
        <time>2023-06-28T10:22:24Z</time>
      </trkpt>
      <trkpt lat="49.94722" lon="2.14228">
        <ele>15.9</ele>
        <time>2023-06-28T10:22:25Z</time>
      </trkpt>
      <trkpt lat="49.94722" lon="2.14228">
        <ele>15.9</ele>
        <time>2023-06-28T10:22:26Z</time>
      </trkpt>
      <trkpt lat="49.94722" lon="2.14228">
        <ele>15.9</ele>
        <time>2023-06-28T10:22:27Z</time>
      </trkpt>
      <trkpt lat="49.94722" lon="2.14228">
        <ele>15.9</ele>
        <time>2023-06-28T10:22:28Z</time>
      </trkpt>
      <trkpt lat="49.94722" lon="2.14228">
        <ele>15.9</ele>
        <time>2023-06-28T10:22:29Z</time>
      </trkpt>
      <trkpt lat="49.94722" lon="2.14228">
        <ele>15.9</ele>
        <time>2023-06-28T10:22:30Z</time>
      </trkpt>
      <trkpt lat="49.94722" lon="2.14228">
        <ele>15.9</ele>
        <time>2023-06-28T10:22:31Z</time>
      </trkpt>
      <trkpt lat="49.94722" lon="2.14228">
        <ele>15.9</ele>
        <time>2023-06-28T10:22:32Z</time>
      </trkpt>
      <trkpt lat="49.94722" lon="2.14228">
        <ele>15.9</ele>
        <time>2023-06-28T10:22:33Z</time>
      </trkpt>
      <trkpt lat="49.94722" lon="2.14228">
        <ele>15.9</ele>
        <time>2023-06-28T10:22:34Z</time>
      </trkpt>
      <trkpt lat="49.94722" lon="2.14228">
        <ele>15.9</ele>
        <time>2023-06-28T10:22:35Z</time>
      </trkpt>
      <trkpt lat="49.94722" lon="2.14228">
        <ele>15.9</ele>
        <time>2023-06-28T10:22:36Z</time>
      </trkpt>
      <trkpt lat="49.94722" lon="2.14228">
        <ele>15.9</ele>
        <time>2023-06-28T10:22:37Z</time>
      </trkpt>
      <trkpt lat="49.94722" lon="2.14228">
        <ele>15.9</ele>
        <time>2023-06-28T10:22:38Z</time>
      </trkpt>
      <trkpt lat="49.94722" lon="2.14228">
        <ele>15.9</ele>
        <time>2023-06-28T10:22:39Z</time>
      </trkpt>
      <trkpt lat="49.94722" lon="2.14228">
        <ele>15.9</ele>
        <time>2023-06-28T10:22:40Z</time>
      </trkpt>
      <trkpt lat="49.94722" lon="2.14228">
        <ele>15.9</ele>
        <time>2023-06-28T10:22:41Z</time>
      </trkpt>
      <trkpt lat="49.94722" lon="2.14228">
        <ele>15.9</ele>
        <time>2023-06-28T10:22:42Z</time>
      </trkpt>
      <trkpt lat="49.94722" lon="2.14228">
        <ele>15.9</ele>
        <time>2023-06-28T10:22:43Z</time>
      </trkpt>
      <trkpt lat="49.94722" lon="2.14228">
        <ele>15.9</ele>
        <time>2023-06-28T10:22:44Z</time>
      </trkpt>
      <trkpt lat="49.94722" lon="2.14228">
        <ele>15.9</ele>
        <time>2023-06-28T10:22:45Z</time>
      </trkpt>
      <trkpt lat="49.94722" lon="2.14228">
        <ele>15.9</ele>
        <time>2023-06-28T10:22:46Z</time>
      </trkpt>
      <trkpt lat="49.94722" lon="2.14228">
        <ele>15.9</ele>
        <time>2023-06-28T10:22:47Z</time>
      </trkpt>
      <trkpt lat="49.94722" lon="2.14228">
        <ele>15.9</ele>
        <time>2023-06-28T10:22:48Z</time>
      </trkpt>
      <trkpt lat="49.94722" lon="2.14228">
        <ele>15.9</ele>
        <time>2023-06-28T10:22:49Z</time>
      </trkpt>
      <trkpt lat="49.94722" lon="2.14228">
        <ele>15.9</ele>
        <time>2023-06-28T10:22:50Z</time>
      </trkpt>
      <trkpt lat="49.94722" lon="2.14228">
        <ele>15.9</ele>
        <time>2023-06-28T10:22:51Z</time>
      </trkpt>
      <trkpt lat="49.94722" lon="2.14228">
        <ele>15.9</ele>
        <time>2023-06-28T10:22:52Z</time>
      </trkpt>
      <trkpt lat="49.94722" lon="2.14228">
        <ele>15.9</ele>
        <time>2023-06-28T10:22:53Z</time>
      </trkpt>
      <trkpt lat="49.94722" lon="2.14228">
        <ele>15.9</ele>
        <time>2023-06-28T10:22:54Z</time>
      </trkpt>
      <trkpt lat="49.94722" lon="2.14228">
        <ele>15.9</ele>
        <time>2023-06-28T10:22:55Z</time>
      </trkpt>
      <trkpt lat="49.94722" lon="2.14228">
        <ele>15.9</ele>
        <time>2023-06-28T10:22:56Z</time>
      </trkpt>
      <trkpt lat="49.94722" lon="2.14228">
        <ele>15.9</ele>
        <time>2023-06-28T10:22:57Z</time>
      </trkpt>
      <trkpt lat="49.94722" lon="2.14228">
        <ele>15.9</ele>
        <time>2023-06-28T10:22:58Z</time>
      </trkpt>
      <trkpt lat="49.94722" lon="2.14228">
        <ele>15.9</ele>
        <time>2023-06-28T10:22:59Z</time>
      </trkpt>
      <trkpt lat="49.94722" lon="2.14228">
        <ele>15.9</ele>
        <time>2023-06-28T10:23:00Z</time>
      </trkpt>
      <trkpt lat="49.94722" lon="2.14228">
        <ele>15.9</ele>
        <time>2023-06-28T10:23:01Z</time>
      </trkpt>
      <trkpt lat="49.94722" lon="2.14228">
        <ele>15.9</ele>
        <time>2023-06-28T10:23:02Z</time>
      </trkpt>
      <trkpt lat="49.94722" lon="2.14228">
        <ele>15.9</ele>
        <time>2023-06-28T10:23:03Z</time>
      </trkpt>
      <trkpt lat="49.94722" lon="2.14228">
        <ele>15.9</ele>
        <time>2023-06-28T10:23:04Z</time>
      </trkpt>
      <trkpt lat="49.94722" lon="2.14228">
        <ele>15.9</ele>
        <time>2023-06-28T10:23:05Z</time>
      </trkpt>
      <trkpt lat="49.94722" lon="2.14228">
        <ele>15.9</ele>
        <time>2023-06-28T10:23:06Z</time>
      </trkpt>
      <trkpt lat="49.94722" lon="2.14228">
        <ele>15.9</ele>
        <time>2023-06-28T10:23:07Z</time>
      </trkpt>
      <trkpt lat="49.94722" lon="2.14228">
        <ele>15.9</ele>
        <time>2023-06-28T10:23:08Z</time>
      </trkpt>
      <trkpt lat="49.94722" lon="2.14228">
        <ele>15.9</ele>
        <time>2023-06-28T10:23:09Z</time>
      </trkpt>
      <trkpt lat="49.94722" lon="2.14228">
        <ele>15.9</ele>
        <time>2023-06-28T10:23:10Z</time>
      </trkpt>
      <trkpt lat="49.94722" lon="2.14228">
        <ele>15.9</ele>
        <time>2023-06-28T10:23:11Z</time>
      </trkpt>
      <trkpt lat="49.94722" lon="2.14228">
        <ele>15.9</ele>
        <time>2023-06-28T10:23:12Z</time>
      </trkpt>
      <trkpt lat="49.94722" lon="2.14228">
        <ele>15.9</ele>
        <time>2023-06-28T10:23:13Z</time>
      </trkpt>
      <trkpt lat="49.94722" lon="2.14228">
        <ele>15.9</ele>
        <time>2023-06-28T10:23:14Z</time>
      </trkpt>
      <trkpt lat="49.94722" lon="2.14228">
        <ele>15.9</ele>
        <time>2023-06-28T10:23:15Z</time>
      </trkpt>
      <trkpt lat="49.94722" lon="2.14228">
        <ele>15.9</ele>
        <time>2023-06-28T10:23:16Z</time>
      </trkpt>
      <trkpt lat="49.94722" lon="2.14228">
        <ele>15.9</ele>
        <time>2023-06-28T10:23:17Z</time>
      </trkpt>
      <trkpt lat="49.94722" lon="2.14228">
        <ele>15.9</ele>
        <time>2023-06-28T10:23:18Z</time>
      </trkpt>
      <trkpt lat="49.94722" lon="2.14228">
        <ele>15.9</ele>
        <time>2023-06-28T10:23:19Z</time>
      </trkpt>
      <trkpt lat="49.94722" lon="2.14228">
        <ele>15.9</ele>
        <time>2023-06-28T10:23:20Z</time>
      </trkpt>
      <trkpt lat="49.94722" lon="2.14228">
        <ele>15.9</ele>
        <time>2023-06-28T10:23:21Z</time>
      </trkpt>
      <trkpt lat="49.94722" lon="2.14228">
        <ele>15.9</ele>
        <time>2023-06-28T10:23:22Z</time>
      </trkpt>
      <trkpt lat="49.94722" lon="2.14228">
        <ele>15.9</ele>
        <time>2023-06-28T10:23:23Z</time>
      </trkpt>
      <trkpt lat="49.94722" lon="2.14228">
        <ele>15.9</ele>
        <time>2023-06-28T10:23:24Z</time>
      </trkpt>
      <trkpt lat="49.94722" lon="2.14228">
        <ele>15.9</ele>
        <time>2023-06-28T10:23:25Z</time>
      </trkpt>
      <trkpt lat="49.94722" lon="2.14228">
        <ele>15.9</ele>
        <time>2023-06-28T10:23:26Z</time>
      </trkpt>
      <trkpt lat="49.94722" lon="2.14228">
        <ele>15.9</ele>
        <time>2023-06-28T10:23:27Z</time>
      </trkpt>
      <trkpt lat="49.94722" lon="2.14228">
        <ele>15.9</ele>
        <time>2023-06-28T10:23:28Z</time>
      </trkpt>
      <trkpt lat="49.94722" lon="2.14228">
        <ele>15.9</ele>
        <time>2023-06-28T10:23:29Z</time>
      </trkpt>
      <trkpt lat="49.94722" lon="2.14228">
        <ele>15.9</ele>
        <time>2023-06-28T10:23:30Z</time>
      </trkpt>
      <trkpt lat="49.94722" lon="2.14228">
        <ele>15.9</ele>
        <time>2023-06-28T10:23:31Z</time>
      </trkpt>
      <trkpt lat="49.94722" lon="2.14228">
        <ele>15.9</ele>
        <time>2023-06-28T10:23:32Z</time>
      </trkpt>
      <trkpt lat="49.94722" lon="2.14228">
        <ele>15.9</ele>
        <time>2023-06-28T10:23:33Z</time>
      </trkpt>
      <trkpt lat="49.94722" lon="2.14228">
        <ele>15.9</ele>
        <time>2023-06-28T10:23:34Z</time>
      </trkpt>
      <trkpt lat="49.94722" lon="2.14228">
        <ele>15.9</ele>
        <time>2023-06-28T10:23:35Z</time>
      </trkpt>
      <trkpt lat="49.94722" lon="2.14228">
        <ele>15.9</ele>
        <time>2023-06-28T10:23:36Z</time>
      </trkpt>
      <trkpt lat="49.94722" lon="2.14228">
        <ele>15.9</ele>
        <time>2023-06-28T10:23:37Z</time>
      </trkpt>
      <trkpt lat="49.94722" lon="2.14228">
        <ele>15.9</ele>
        <time>2023-06-28T10:23:38Z</time>
      </trkpt>
      <trkpt lat="49.94722" lon="2.14228">
        <ele>15.9</ele>
        <time>2023-06-28T10:23:39Z</time>
      </trkpt>
      <trkpt lat="49.94722" lon="2.14228">
        <ele>15.9</ele>
        <time>2023-06-28T10:23:40Z</time>
      </trkpt>
      <trkpt lat="49.94722" lon="2.14228">
        <ele>15.9</ele>
        <time>2023-06-28T10:23:41Z</time>
      </trkpt>
      <trkpt lat="49.94722" lon="2.14228">
        <ele>15.9</ele>
        <time>2023-06-28T10:23:42Z</time>
      </trkpt>
      <trkpt lat="49.94722" lon="2.14228">
        <ele>15.9</ele>
        <time>2023-06-28T10:23:43Z</time>
      </trkpt>
      <trkpt lat="49.94722" lon="2.14228">
        <ele>15.9</ele>
        <time>2023-06-28T10:23:44Z</time>
      </trkpt>
      <trkpt lat="49.94722" lon="2.14228">
        <ele>15.9</ele>
        <time>2023-06-28T10:23:45Z</time>
      </trkpt>
      <trkpt lat="49.94722" lon="2.14228">
        <ele>15.9</ele>
        <time>2023-06-28T10:23:46Z</time>
      </trkpt>
      <trkpt lat="49.94722" lon="2.14228">
        <ele>15.9</ele>
        <time>2023-06-28T10:23:47Z</time>
      </trkpt>
      <trkpt lat="49.94722" lon="2.14228">
        <ele>15.9</ele>
        <time>2023-06-28T10:23:48Z</time>
      </trkpt>
      <trkpt lat="49.94722" lon="2.14228">
        <ele>15.9</ele>
        <time>2023-06-28T10:23:49Z</time>
      </trkpt>
      <trkpt lat="49.94722" lon="2.14228">
        <ele>15.9</ele>
        <time>2023-06-28T10:23:50Z</time>
      </trkpt>
      <trkpt lat="49.94722" lon="2.14228">
        <ele>15.9</ele>
        <time>2023-06-28T10:23:51Z</time>
      </trkpt>
      <trkpt lat="49.94722" lon="2.14228">
        <ele>15.9</ele>
        <time>2023-06-28T10:23:52Z</time>
      </trkpt>
      <trkpt lat="49.94722" lon="2.14228">
        <ele>15.9</ele>
        <time>2023-06-28T10:23:53Z</time>
      </trkpt>
      <trkpt lat="49.94722" lon="2.14228">
        <ele>15.9</ele>
        <time>2023-06-28T10:23:54Z</time>
      </trkpt>
      <trkpt lat="49.94722" lon="2.14228">
        <ele>15.9</ele>
        <time>2023-06-28T10:23:55Z</time>
      </trkpt>
      <trkpt lat="49.94722" lon="2.14228">
        <ele>15.9</ele>
        <time>2023-06-28T10:23:56Z</time>
      </trkpt>
      <trkpt lat="49.94722" lon="2.14228">
        <ele>15.9</ele>
        <time>2023-06-28T10:23:57Z</time>
      </trkpt>
      <trkpt lat="49.94722" lon="2.14228">
        <ele>15.9</ele>
        <time>2023-06-28T10:23:58Z</time>
      </trkpt>
      <trkpt lat="49.94722" lon="2.14228">
        <ele>15.9</ele>
        <time>2023-06-28T10:23:59Z</time>
      </trkpt>
      <trkpt lat="49.94722" lon="2.14228">
        <ele>15.9</ele>
        <time>2023-06-28T10:24:00Z</time>
      </trkpt>
      <trkpt lat="49.94722" lon="2.14228">
        <ele>15.9</ele>
        <time>2023-06-28T10:24:01Z</time>
      </trkpt>
      <trkpt lat="49.94722" lon="2.14228">
        <ele>15.9</ele>
        <time>2023-06-28T10:24:02Z</time>
      </trkpt>
      <trkpt lat="49.94722" lon="2.14228">
        <ele>15.9</ele>
        <time>2023-06-28T10:24:03Z</time>
      </trkpt>
      <trkpt lat="49.94722" lon="2.14228">
        <ele>15.9</ele>
        <time>2023-06-28T10:24:04Z</time>
      </trkpt>
      <trkpt lat="49.94722" lon="2.14228">
        <ele>15.9</ele>
        <time>2023-06-28T10:24:05Z</time>
      </trkpt>
      <trkpt lat="49.94722" lon="2.14228">
        <ele>15.9</ele>
        <time>2023-06-28T10:24:06Z</time>
      </trkpt>
      <trkpt lat="49.94722" lon="2.14228">
        <ele>15.9</ele>
        <time>2023-06-28T10:24:07Z</time>
      </trkpt>
      <trkpt lat="49.94722" lon="2.14228">
        <ele>15.9</ele>
        <time>2023-06-28T10:24:08Z</time>
      </trkpt>
      <trkpt lat="49.94722" lon="2.14228">
        <ele>15.9</ele>
        <time>2023-06-28T10:24:09Z</time>
      </trkpt>
      <trkpt lat="49.94722" lon="2.14228">
        <ele>15.9</ele>
        <time>2023-06-28T10:24:10Z</time>
      </trkpt>
      <trkpt lat="49.94722" lon="2.14228">
        <ele>15.9</ele>
        <time>2023-06-28T10:24:11Z</time>
      </trkpt>
      <trkpt lat="49.94722" lon="2.14228">
        <ele>15.9</ele>
        <time>2023-06-28T10:24:12Z</time>
      </trkpt>
      <trkpt lat="49.94722" lon="2.14228">
        <ele>15.9</ele>
        <time>2023-06-28T10:24:13Z</time>
      </trkpt>
      <trkpt lat="49.94722" lon="2.14228">
        <ele>15.9</ele>
        <time>2023-06-28T10:24:14Z</time>
      </trkpt>
      <trkpt lat="49.94722" lon="2.14228">
        <ele>15.9</ele>
        <time>2023-06-28T10:24:15Z</time>
      </trkpt>
      <trkpt lat="49.94722" lon="2.14228">
        <ele>15.9</ele>
        <time>2023-06-28T10:24:16Z</time>
      </trkpt>
      <trkpt lat="49.94722" lon="2.14228">
        <ele>15.9</ele>
        <time>2023-06-28T10:24:17Z</time>
      </trkpt>
      <trkpt lat="49.94722" lon="2.14228">
        <ele>15.9</ele>
        <time>2023-06-28T10:24:18Z</time>
      </trkpt>
      <trkpt lat="49.94722" lon="2.14228">
        <ele>15.9</ele>
        <time>2023-06-28T10:24:19Z</time>
      </trkpt>
      <trkpt lat="49.94722" lon="2.14228">
        <ele>15.9</ele>
        <time>2023-06-28T10:24:20Z</time>
      </trkpt>
      <trkpt lat="49.94722" lon="2.14228">
        <ele>15.9</ele>
        <time>2023-06-28T10:24:21Z</time>
      </trkpt>
      <trkpt lat="49.94722" lon="2.14228">
        <ele>15.9</ele>
        <time>2023-06-28T10:24:22Z</time>
      </trkpt>
      <trkpt lat="49.94722" lon="2.14228">
        <ele>15.9</ele>
        <time>2023-06-28T10:24:23Z</time>
      </trkpt>
      <trkpt lat="49.94722" lon="2.14228">
        <ele>15.9</ele>
        <time>2023-06-28T10:24:24Z</time>
      </trkpt>
      <trkpt lat="49.94722" lon="2.14228">
        <ele>15.9</ele>
        <time>2023-06-28T10:24:25Z</time>
      </trkpt>
      <trkpt lat="49.94722" lon="2.14228">
        <ele>15.9</ele>
        <time>2023-06-28T10:24:26Z</time>
      </trkpt>
      <trkpt lat="49.94722" lon="2.14228">
        <ele>15.9</ele>
        <time>2023-06-28T10:24:27Z</time>
      </trkpt>
      <trkpt lat="49.94722" lon="2.14228">
        <ele>15.9</ele>
        <time>2023-06-28T10:24:28Z</time>
      </trkpt>
      <trkpt lat="49.94722" lon="2.14228">
        <ele>15.9</ele>
        <time>2023-06-28T10:24:29Z</time>
      </trkpt>
      <trkpt lat="49.94722" lon="2.14228">
        <ele>15.9</ele>
        <time>2023-06-28T10:24:30Z</time>
      </trkpt>
      <trkpt lat="49.94722" lon="2.14228">
        <ele>15.9</ele>
        <time>2023-06-28T10:24:31Z</time>
      </trkpt>
      <trkpt lat="49.94722" lon="2.14228">
        <ele>15.9</ele>
        <time>2023-06-28T10:24:32Z</time>
      </trkpt>
      <trkpt lat="49.94722" lon="2.14228">
        <ele>15.9</ele>
        <time>2023-06-28T10:24:33Z</time>
      </trkpt>
      <trkpt lat="49.94722" lon="2.14228">
        <ele>15.9</ele>
        <time>2023-06-28T10:24:34Z</time>
      </trkpt>
      <trkpt lat="49.94722" lon="2.14228">
        <ele>15.9</ele>
        <time>2023-06-28T10:24:35Z</time>
      </trkpt>
      <trkpt lat="49.94722" lon="2.14228">
        <ele>15.9</ele>
        <time>2023-06-28T10:24:36Z</time>
      </trkpt>
      <trkpt lat="49.94722" lon="2.14228">
        <ele>15.9</ele>
        <time>2023-06-28T10:24:37Z</time>
      </trkpt>
      <trkpt lat="49.94722" lon="2.14228">
        <ele>15.9</ele>
        <time>2023-06-28T10:24:38Z</time>
      </trkpt>
      <trkpt lat="49.94722" lon="2.14228">
        <ele>15.9</ele>
        <time>2023-06-28T10:24:39Z</time>
      </trkpt>
      <trkpt lat="49.94722" lon="2.14228">
        <ele>15.9</ele>
        <time>2023-06-28T10:24:40Z</time>
      </trkpt>
      <trkpt lat="49.94722" lon="2.14228">
        <ele>15.9</ele>
        <time>2023-06-28T10:24:41Z</time>
      </trkpt>
      <trkpt lat="49.94722" lon="2.14228">
        <ele>15.9</ele>
        <time>2023-06-28T10:24:42Z</time>
      </trkpt>
      <trkpt lat="49.94722" lon="2.14228">
        <ele>15.9</ele>
        <time>2023-06-28T10:24:43Z</time>
      </trkpt>
      <trkpt lat="49.94722" lon="2.14228">
        <ele>15.9</ele>
        <time>2023-06-28T10:24:44Z</time>
      </trkpt>
      <trkpt lat="49.94722" lon="2.14228">
        <ele>15.9</ele>
        <time>2023-06-28T10:24:45Z</time>
      </trkpt>
      <trkpt lat="49.94722" lon="2.14228">
        <ele>15.9</ele>
        <time>2023-06-28T10:24:46Z</time>
      </trkpt>
      <trkpt lat="49.94722" lon="2.14228">
        <ele>15.9</ele>
        <time>2023-06-28T10:24:47Z</time>
      </trkpt>
      <trkpt lat="49.94722" lon="2.14228">
        <ele>15.9</ele>
        <time>2023-06-28T10:24:48Z</time>
      </trkpt>
      <trkpt lat="49.94722" lon="2.14228">
        <ele>15.9</ele>
        <time>2023-06-28T10:24:49Z</time>
      </trkpt>
      <trkpt lat="49.94722" lon="2.14228">
        <ele>15.9</ele>
        <time>2023-06-28T10:24:50Z</time>
      </trkpt>
      <trkpt lat="49.94722" lon="2.14228">
        <ele>15.9</ele>
        <time>2023-06-28T10:24:51Z</time>
      </trkpt>
      <trkpt lat="49.94722" lon="2.14228">
        <ele>15.9</ele>
        <time>2023-06-28T10:24:52Z</time>
      </trkpt>
      <trkpt lat="49.94722" lon="2.14228">
        <ele>15.9</ele>
        <time>2023-06-28T10:24:53Z</time>
      </trkpt>
      <trkpt lat="49.94722" lon="2.14228">
        <ele>15.9</ele>
        <time>2023-06-28T10:24:54Z</time>
      </trkpt>
      <trkpt lat="49.94722" lon="2.14228">
        <ele>15.9</ele>
        <time>2023-06-28T10:24:55Z</time>
      </trkpt>
      <trkpt lat="49.94722" lon="2.14228">
        <ele>15.9</ele>
        <time>2023-06-28T10:24:56Z</time>
      </trkpt>
      <trkpt lat="49.94722" lon="2.14228">
        <ele>15.9</ele>
        <time>2023-06-28T10:24:57Z</time>
      </trkpt>
      <trkpt lat="49.94722" lon="2.14228">
        <ele>15.9</ele>
        <time>2023-06-28T10:24:58Z</time>
      </trkpt>
      <trkpt lat="49.94722" lon="2.14228">
        <ele>15.9</ele>
        <time>2023-06-28T10:24:59Z</time>
      </trkpt>
      <trkpt lat="49.94722" lon="2.14228">
        <ele>15.9</ele>
        <time>2023-06-28T10:25:00Z</time>
      </trkpt>
      <trkpt lat="49.94722" lon="2.14228">
        <ele>15.9</ele>
        <time>2023-06-28T10:25:01Z</time>
      </trkpt>
      <trkpt lat="49.94722" lon="2.14228">
        <ele>15.9</ele>
        <time>2023-06-28T10:25:02Z</time>
      </trkpt>
      <trkpt lat="49.94722" lon="2.14228">
        <ele>15.9</ele>
        <time>2023-06-28T10:25:03Z</time>
      </trkpt>
      <trkpt lat="49.94722" lon="2.14228">
        <ele>15.9</ele>
        <time>2023-06-28T10:25:04Z</time>
      </trkpt>
      <trkpt lat="49.94722" lon="2.14228">
        <ele>15.9</ele>
        <time>2023-06-28T10:25:05Z</time>
      </trkpt>
      <trkpt lat="49.94722" lon="2.14228">
        <ele>15.9</ele>
        <time>2023-06-28T10:25:06Z</time>
      </trkpt>
      <trkpt lat="49.94722" lon="2.14228">
        <ele>15.9</ele>
        <time>2023-06-28T10:25:07Z</time>
      </trkpt>
      <trkpt lat="49.94722" lon="2.14228">
        <ele>15.9</ele>
        <time>2023-06-28T10:25:08Z</time>
      </trkpt>
      <trkpt lat="49.94722" lon="2.14228">
        <ele>15.9</ele>
        <time>2023-06-28T10:25:09Z</time>
      </trkpt>
      <trkpt lat="49.94722" lon="2.14228">
        <ele>15.9</ele>
        <time>2023-06-28T10:25:10Z</time>
      </trkpt>
      <trkpt lat="49.94722" lon="2.14228">
        <ele>15.9</ele>
        <time>2023-06-28T10:25:11Z</time>
      </trkpt>
      <trkpt lat="49.94722" lon="2.14228">
        <ele>15.9</ele>
        <time>2023-06-28T10:25:12Z</time>
      </trkpt>
      <trkpt lat="49.94722" lon="2.14228">
        <ele>15.9</ele>
        <time>2023-06-28T10:25:13Z</time>
      </trkpt>
      <trkpt lat="49.94722" lon="2.14228">
        <ele>15.9</ele>
        <time>2023-06-28T10:25:14Z</time>
      </trkpt>
      <trkpt lat="49.94722" lon="2.14228">
        <ele>15.9</ele>
        <time>2023-06-28T10:25:15Z</time>
      </trkpt>
      <trkpt lat="49.94722" lon="2.14228">
        <ele>15.9</ele>
        <time>2023-06-28T10:25:16Z</time>
      </trkpt>
      <trkpt lat="49.94722" lon="2.14228">
        <ele>15.9</ele>
        <time>2023-06-28T10:25:17Z</time>
      </trkpt>
      <trkpt lat="49.94722" lon="2.14228">
        <ele>15.9</ele>
        <time>2023-06-28T10:25:18Z</time>
      </trkpt>
      <trkpt lat="49.94722" lon="2.14228">
        <ele>15.9</ele>
        <time>2023-06-28T10:25:19Z</time>
      </trkpt>
      <trkpt lat="49.94722" lon="2.14228">
        <ele>15.9</ele>
        <time>2023-06-28T10:25:20Z</time>
      </trkpt>
      <trkpt lat="49.94722" lon="2.14228">
        <ele>15.9</ele>
        <time>2023-06-28T10:25:21Z</time>
      </trkpt>
      <trkpt lat="49.94722" lon="2.14228">
        <ele>15.9</ele>
        <time>2023-06-28T10:25:22Z</time>
      </trkpt>
      <trkpt lat="49.94722" lon="2.14228">
        <ele>15.9</ele>
        <time>2023-06-28T10:25:23Z</time>
      </trkpt>
      <trkpt lat="49.94722" lon="2.14228">
        <ele>15.9</ele>
        <time>2023-06-28T10:25:24Z</time>
      </trkpt>
      <trkpt lat="49.94722" lon="2.14228">
        <ele>15.9</ele>
        <time>2023-06-28T10:25:25Z</time>
      </trkpt>
      <trkpt lat="49.94722" lon="2.14228">
        <ele>15.9</ele>
        <time>2023-06-28T10:25:26Z</time>
      </trkpt>
      <trkpt lat="49.94722" lon="2.14228">
        <ele>15.9</ele>
        <time>2023-06-28T10:25:27Z</time>
      </trkpt>
      <trkpt lat="49.94722" lon="2.14228">
        <ele>15.9</ele>
        <time>2023-06-28T10:25:28Z</time>
      </trkpt>
      <trkpt lat="49.94722" lon="2.14228">
        <ele>15.9</ele>
        <time>2023-06-28T10:25:29Z</time>
      </trkpt>
      <trkpt lat="49.94722" lon="2.14228">
        <ele>15.9</ele>
        <time>2023-06-28T10:25:30Z</time>
      </trkpt>
      <trkpt lat="49.94722" lon="2.14228">
        <ele>15.9</ele>
        <time>2023-06-28T10:25:31Z</time>
      </trkpt>
      <trkpt lat="49.94722" lon="2.14228">
        <ele>15.9</ele>
        <time>2023-06-28T10:25:32Z</time>
      </trkpt>
      <trkpt lat="49.94722" lon="2.14228">
        <ele>15.9</ele>
        <time>2023-06-28T10:25:33Z</time>
      </trkpt>
      <trkpt lat="49.94722" lon="2.14228">
        <ele>15.9</ele>
        <time>2023-06-28T10:25:34Z</time>
      </trkpt>
      <trkpt lat="49.94722" lon="2.14228">
        <ele>15.9</ele>
        <time>2023-06-28T10:25:35Z</time>
      </trkpt>
      <trkpt lat="49.94722" lon="2.14228">
        <ele>15.9</ele>
        <time>2023-06-28T10:25:36Z</time>
      </trkpt>
      <trkpt lat="49.94722" lon="2.14228">
        <ele>15.9</ele>
        <time>2023-06-28T10:25:37Z</time>
      </trkpt>
      <trkpt lat="49.94722" lon="2.14228">
        <ele>15.9</ele>
        <time>2023-06-28T10:25:38Z</time>
      </trkpt>
      <trkpt lat="49.94722" lon="2.14228">
        <ele>15.9</ele>
        <time>2023-06-28T10:25:39Z</time>
      </trkpt>
      <trkpt lat="49.94722" lon="2.14228">
        <ele>15.9</ele>
        <time>2023-06-28T10:25:40Z</time>
      </trkpt>
      <trkpt lat="49.94722" lon="2.14228">
        <ele>15.9</ele>
        <time>2023-06-28T10:25:41Z</time>
      </trkpt>
      <trkpt lat="49.94722" lon="2.14228">
        <ele>15.9</ele>
        <time>2023-06-28T10:25:42Z</time>
      </trkpt>
      <trkpt lat="49.94722" lon="2.14228">
        <ele>15.9</ele>
        <time>2023-06-28T10:25:43Z</time>
      </trkpt>
      <trkpt lat="49.94722" lon="2.14228">
        <ele>15.9</ele>
        <time>2023-06-28T10:25:44Z</time>
      </trkpt>
      <trkpt lat="49.94722" lon="2.14228">
        <ele>15.9</ele>
        <time>2023-06-28T10:25:45Z</time>
      </trkpt>
      <trkpt lat="49.94722" lon="2.14228">
        <ele>15.9</ele>
        <time>2023-06-28T10:25:46Z</time>
      </trkpt>
      <trkpt lat="49.94722" lon="2.14228">
        <ele>15.9</ele>
        <time>2023-06-28T10:25:47Z</time>
      </trkpt>
      <trkpt lat="49.94722" lon="2.14228">
        <ele>15.9</ele>
        <time>2023-06-28T10:25:48Z</time>
      </trkpt>
      <trkpt lat="49.94722" lon="2.14228">
        <ele>15.9</ele>
        <time>2023-06-28T10:25:49Z</time>
      </trkpt>
      <trkpt lat="49.94722" lon="2.14228">
        <ele>15.9</ele>
        <time>2023-06-28T10:25:50Z</time>
      </trkpt>
      <trkpt lat="49.94722" lon="2.14228">
        <ele>15.9</ele>
        <time>2023-06-28T10:25:51Z</time>
      </trkpt>
      <trkpt lat="49.94722" lon="2.14228">
        <ele>15.9</ele>
        <time>2023-06-28T10:25:52Z</time>
      </trkpt>
      <trkpt lat="49.94722" lon="2.14228">
        <ele>15.9</ele>
        <time>2023-06-28T10:25:53Z</time>
      </trkpt>
      <trkpt lat="49.94722" lon="2.14228">
        <ele>15.9</ele>
        <time>2023-06-28T10:25:54Z</time>
      </trkpt>
      <trkpt lat="49.94722" lon="2.14228">
        <ele>15.9</ele>
        <time>2023-06-28T10:25:55Z</time>
      </trkpt>
      <trkpt lat="49.94722" lon="2.14228">
        <ele>15.9</ele>
        <time>2023-06-28T10:25:56Z</time>
      </trkpt>
      <trkpt lat="49.94722" lon="2.14228">
        <ele>15.9</ele>
        <time>2023-06-28T10:25:57Z</time>
      </trkpt>
      <trkpt lat="49.94722" lon="2.14228">
        <ele>15.9</ele>
        <time>2023-06-28T10:25:58Z</time>
      </trkpt>
      <trkpt lat="49.94722" lon="2.14228">
        <ele>15.9</ele>
        <time>2023-06-28T10:25:59Z</time>
      </trkpt>
      <trkpt lat="49.94722" lon="2.14228">
        <ele>15.9</ele>
        <time>2023-06-28T10:26:00Z</time>
      </trkpt>
      <trkpt lat="49.94722" lon="2.14228">
        <ele>15.9</ele>
        <time>2023-06-28T10:26:01Z</time>
      </trkpt>
      <trkpt lat="49.94722" lon="2.14228">
        <ele>15.9</ele>
        <time>2023-06-28T10:26:02Z</time>
      </trkpt>
      <trkpt lat="49.94722" lon="2.14228">
        <ele>15.9</ele>
        <time>2023-06-28T10:26:03Z</time>
      </trkpt>
      <trkpt lat="49.94722" lon="2.14228">
        <ele>15.9</ele>
        <time>2023-06-28T10:26:04Z</time>
      </trkpt>
      <trkpt lat="49.94722" lon="2.14228">
        <ele>15.9</ele>
        <time>2023-06-28T10:26:05Z</time>
      </trkpt>
      <trkpt lat="49.94722" lon="2.14228">
        <ele>15.9</ele>
        <time>2023-06-28T10:26:06Z</time>
      </trkpt>
      <trkpt lat="49.94722" lon="2.14228">
        <ele>15.9</ele>
        <time>2023-06-28T10:26:07Z</time>
      </trkpt>
      <trkpt lat="49.94722" lon="2.14228">
        <ele>15.9</ele>
        <time>2023-06-28T10:26:08Z</time>
      </trkpt>
      <trkpt lat="49.94722" lon="2.14228">
        <ele>15.9</ele>
        <time>2023-06-28T10:26:09Z</time>
      </trkpt>
      <trkpt lat="49.94722" lon="2.14228">
        <ele>15.9</ele>
        <time>2023-06-28T10:26:10Z</time>
      </trkpt>
      <trkpt lat="49.94722" lon="2.14228">
        <ele>15.9</ele>
        <time>2023-06-28T10:26:11Z</time>
      </trkpt>
      <trkpt lat="49.94722" lon="2.14228">
        <ele>15.9</ele>
        <time>2023-06-28T10:26:12Z</time>
      </trkpt>
      <trkpt lat="49.94722" lon="2.14228">
        <ele>15.9</ele>
        <time>2023-06-28T10:26:13Z</time>
      </trkpt>
      <trkpt lat="49.94722" lon="2.14228">
        <ele>15.9</ele>
        <time>2023-06-28T10:26:14Z</time>
      </trkpt>
      <trkpt lat="49.94722" lon="2.14228">
        <ele>15.9</ele>
        <time>2023-06-28T10:26:15Z</time>
      </trkpt>
      <trkpt lat="49.94722" lon="2.14228">
        <ele>15.9</ele>
        <time>2023-06-28T10:26:16Z</time>
      </trkpt>
      <trkpt lat="49.94722" lon="2.14228">
        <ele>15.9</ele>
        <time>2023-06-28T10:26:17Z</time>
      </trkpt>
      <trkpt lat="49.94722" lon="2.14228">
        <ele>15.9</ele>
        <time>2023-06-28T10:26:18Z</time>
      </trkpt>
      <trkpt lat="49.94722" lon="2.14228">
        <ele>15.9</ele>
        <time>2023-06-28T10:26:19Z</time>
      </trkpt>
      <trkpt lat="49.94722" lon="2.14228">
        <ele>15.9</ele>
        <time>2023-06-28T10:26:20Z</time>
      </trkpt>
      <trkpt lat="49.94722" lon="2.14228">
        <ele>15.9</ele>
        <time>2023-06-28T10:26:21Z</time>
      </trkpt>
      <trkpt lat="49.94722" lon="2.14228">
        <ele>15.9</ele>
        <time>2023-06-28T10:26:22Z</time>
      </trkpt>
      <trkpt lat="49.94722" lon="2.14228">
        <ele>15.9</ele>
        <time>2023-06-28T10:26:23Z</time>
      </trkpt>
      <trkpt lat="49.94722" lon="2.14228">
        <ele>15.9</ele>
        <time>2023-06-28T10:26:24Z</time>
      </trkpt>
      <trkpt lat="49.94722" lon="2.14228">
        <ele>15.9</ele>
        <time>2023-06-28T10:26:25Z</time>
      </trkpt>
      <trkpt lat="49.94722" lon="2.14228">
        <ele>15.9</ele>
        <time>2023-06-28T10:26:26Z</time>
      </trkpt>
      <trkpt lat="49.94722" lon="2.14228">
        <ele>15.9</ele>
        <time>2023-06-28T10:26:27Z</time>
      </trkpt>
      <trkpt lat="49.94722" lon="2.14228">
        <ele>15.9</ele>
        <time>2023-06-28T10:26:28Z</time>
      </trkpt>
      <trkpt lat="49.94722" lon="2.14228">
        <ele>15.9</ele>
        <time>2023-06-28T10:26:29Z</time>
      </trkpt>
      <trkpt lat="49.94722" lon="2.14228">
        <ele>15.9</ele>
        <time>2023-06-28T10:26:30Z</time>
      </trkpt>
      <trkpt lat="49.94722" lon="2.14228">
        <ele>15.9</ele>
        <time>2023-06-28T10:26:31Z</time>
      </trkpt>
      <trkpt lat="49.94722" lon="2.14228">
        <ele>15.9</ele>
        <time>2023-06-28T10:26:32Z</time>
      </trkpt>
      <trkpt lat="49.94722" lon="2.14228">
        <ele>15.9</ele>
        <time>2023-06-28T10:26:33Z</time>
      </trkpt>
      <trkpt lat="49.94722" lon="2.14228">
        <ele>15.9</ele>
        <time>2023-06-28T10:26:34Z</time>
      </trkpt>
      <trkpt lat="49.94722" lon="2.14228">
        <ele>15.9</ele>
        <time>2023-06-28T10:26:35Z</time>
      </trkpt>
      <trkpt lat="49.94722" lon="2.14228">
        <ele>15.9</ele>
        <time>2023-06-28T10:26:36Z</time>
      </trkpt>
      <trkpt lat="49.94722" lon="2.14228">
        <ele>15.9</ele>
        <time>2023-06-28T10:26:37Z</time>
      </trkpt>
      <trkpt lat="49.94722" lon="2.14228">
        <ele>15.9</ele>
        <time>2023-06-28T10:26:38Z</time>
      </trkpt>
      <trkpt lat="49.94722" lon="2.14228">
        <ele>15.9</ele>
        <time>2023-06-28T10:26:39Z</time>
      </trkpt>
      <trkpt lat="49.94722" lon="2.14228">
        <ele>15.9</ele>
        <time>2023-06-28T10:26:40Z</time>
      </trkpt>
      <trkpt lat="49.94722" lon="2.14228">
        <ele>15.9</ele>
        <time>2023-06-28T10:26:41Z</time>
      </trkpt>
      <trkpt lat="49.94722" lon="2.14228">
        <ele>15.9</ele>
        <time>2023-06-28T10:26:42Z</time>
      </trkpt>
      <trkpt lat="49.94722" lon="2.14228">
        <ele>15.9</ele>
        <time>2023-06-28T10:26:43Z</time>
      </trkpt>
      <trkpt lat="49.94722" lon="2.14228">
        <ele>15.9</ele>
        <time>2023-06-28T10:26:44Z</time>
      </trkpt>
      <trkpt lat="49.94722" lon="2.14228">
        <ele>15.9</ele>
        <time>2023-06-28T10:26:45Z</time>
      </trkpt>
      <trkpt lat="49.94722" lon="2.14227">
        <ele>15.9</ele>
        <time>2023-06-28T10:26:46Z</time>
      </trkpt>
      <trkpt lat="49.94722" lon="2.14227">
        <ele>15.9</ele>
        <time>2023-06-28T10:26:47Z</time>
      </trkpt>
      <trkpt lat="49.94722" lon="2.14227">
        <ele>15.9</ele>
        <time>2023-06-28T10:26:48Z</time>
      </trkpt>
      <trkpt lat="49.94722" lon="2.14227">
        <ele>15.9</ele>
        <time>2023-06-28T10:26:49Z</time>
      </trkpt>
      <trkpt lat="49.94722" lon="2.14227">
        <ele>15.9</ele>
        <time>2023-06-28T10:26:50Z</time>
      </trkpt>
      <trkpt lat="49.94722" lon="2.14227">
        <ele>15.9</ele>
        <time>2023-06-28T10:26:51Z</time>
      </trkpt>
      <trkpt lat="49.94722" lon="2.14227">
        <ele>15.9</ele>
        <time>2023-06-28T10:26:52Z</time>
      </trkpt>
      <trkpt lat="49.94722" lon="2.14227">
        <ele>15.9</ele>
        <time>2023-06-28T10:26:53Z</time>
      </trkpt>
      <trkpt lat="49.94722" lon="2.14227">
        <ele>15.9</ele>
        <time>2023-06-28T10:26:54Z</time>
      </trkpt>
      <trkpt lat="49.94722" lon="2.14227">
        <ele>15.9</ele>
        <time>2023-06-28T10:26:55Z</time>
      </trkpt>
      <trkpt lat="49.94722" lon="2.14227">
        <ele>15.9</ele>
        <time>2023-06-28T10:26:56Z</time>
      </trkpt>
      <trkpt lat="49.94722" lon="2.14227">
        <ele>15.9</ele>
        <time>2023-06-28T10:26:57Z</time>
      </trkpt>
      <trkpt lat="49.94722" lon="2.14227">
        <ele>15.9</ele>
        <time>2023-06-28T10:26:58Z</time>
      </trkpt>
      <trkpt lat="49.94722" lon="2.14227">
        <ele>15.9</ele>
        <time>2023-06-28T10:26:59Z</time>
      </trkpt>
      <trkpt lat="49.94722" lon="2.14227">
        <ele>15.9</ele>
        <time>2023-06-28T10:27:00Z</time>
      </trkpt>
      <trkpt lat="49.94722" lon="2.14227">
        <ele>15.9</ele>
        <time>2023-06-28T10:27:01Z</time>
      </trkpt>
      <trkpt lat="49.94722" lon="2.14227">
        <ele>15.9</ele>
        <time>2023-06-28T10:27:02Z</time>
      </trkpt>
      <trkpt lat="49.94722" lon="2.14227">
        <ele>15.9</ele>
        <time>2023-06-28T10:27:03Z</time>
      </trkpt>
      <trkpt lat="49.94722" lon="2.14227">
        <ele>15.9</ele>
        <time>2023-06-28T10:27:04Z</time>
      </trkpt>
      <trkpt lat="49.94722" lon="2.14227">
        <ele>15.9</ele>
        <time>2023-06-28T10:27:05Z</time>
      </trkpt>
      <trkpt lat="49.94722" lon="2.14227">
        <ele>15.9</ele>
        <time>2023-06-28T10:27:06Z</time>
      </trkpt>
      <trkpt lat="49.94722" lon="2.14227">
        <ele>15.9</ele>
        <time>2023-06-28T10:27:07Z</time>
      </trkpt>
      <trkpt lat="49.94722" lon="2.14227">
        <ele>15.9</ele>
        <time>2023-06-28T10:27:08Z</time>
      </trkpt>
      <trkpt lat="49.94722" lon="2.14227">
        <ele>15.9</ele>
        <time>2023-06-28T10:27:09Z</time>
      </trkpt>
      <trkpt lat="49.94722" lon="2.14227">
        <ele>15.9</ele>
        <time>2023-06-28T10:27:10Z</time>
      </trkpt>
      <trkpt lat="49.94722" lon="2.14227">
        <ele>15.9</ele>
        <time>2023-06-28T10:27:11Z</time>
      </trkpt>
      <trkpt lat="49.94722" lon="2.14227">
        <ele>15.9</ele>
        <time>2023-06-28T10:27:12Z</time>
      </trkpt>
      <trkpt lat="49.94722" lon="2.14227">
        <ele>15.9</ele>
        <time>2023-06-28T10:27:13Z</time>
      </trkpt>
      <trkpt lat="49.94722" lon="2.14227">
        <ele>15.9</ele>
        <time>2023-06-28T10:27:14Z</time>
      </trkpt>
      <trkpt lat="49.94722" lon="2.14227">
        <ele>15.9</ele>
        <time>2023-06-28T10:27:15Z</time>
      </trkpt>
      <trkpt lat="49.94722" lon="2.14227">
        <ele>15.9</ele>
        <time>2023-06-28T10:27:16Z</time>
      </trkpt>
      <trkpt lat="49.94722" lon="2.14227">
        <ele>15.9</ele>
        <time>2023-06-28T10:27:17Z</time>
      </trkpt>
      <trkpt lat="49.94722" lon="2.14227">
        <ele>15.9</ele>
        <time>2023-06-28T10:27:18Z</time>
      </trkpt>
      <trkpt lat="49.94722" lon="2.14227">
        <ele>15.9</ele>
        <time>2023-06-28T10:27:19Z</time>
      </trkpt>
      <trkpt lat="49.94722" lon="2.14227">
        <ele>15.9</ele>
        <time>2023-06-28T10:27:20Z</time>
      </trkpt>
      <trkpt lat="49.94722" lon="2.14227">
        <ele>15.9</ele>
        <time>2023-06-28T10:27:21Z</time>
      </trkpt>
      <trkpt lat="49.94722" lon="2.14227">
        <ele>15.9</ele>
        <time>2023-06-28T10:27:22Z</time>
      </trkpt>
      <trkpt lat="49.94722" lon="2.14227">
        <ele>15.9</ele>
        <time>2023-06-28T10:27:23Z</time>
      </trkpt>
      <trkpt lat="49.94722" lon="2.14227">
        <ele>15.9</ele>
        <time>2023-06-28T10:27:24Z</time>
      </trkpt>
      <trkpt lat="49.94722" lon="2.14227">
        <ele>15.9</ele>
        <time>2023-06-28T10:27:25Z</time>
      </trkpt>
      <trkpt lat="49.94722" lon="2.14227">
        <ele>15.9</ele>
        <time>2023-06-28T10:27:26Z</time>
      </trkpt>
      <trkpt lat="49.94722" lon="2.14227">
        <ele>15.9</ele>
        <time>2023-06-28T10:27:27Z</time>
      </trkpt>
      <trkpt lat="49.94722" lon="2.14227">
        <ele>15.9</ele>
        <time>2023-06-28T10:27:28Z</time>
      </trkpt>
      <trkpt lat="49.94722" lon="2.14227">
        <ele>15.9</ele>
        <time>2023-06-28T10:27:29Z</time>
      </trkpt>
      <trkpt lat="49.94722" lon="2.14227">
        <ele>15.9</ele>
        <time>2023-06-28T10:27:30Z</time>
      </trkpt>
      <trkpt lat="49.94722" lon="2.14227">
        <ele>15.9</ele>
        <time>2023-06-28T10:27:31Z</time>
      </trkpt>
      <trkpt lat="49.94722" lon="2.14227">
        <ele>15.9</ele>
        <time>2023-06-28T10:27:32Z</time>
      </trkpt>
      <trkpt lat="49.94722" lon="2.14227">
        <ele>15.9</ele>
        <time>2023-06-28T10:27:33Z</time>
      </trkpt>
      <trkpt lat="49.94722" lon="2.14227">
        <ele>15.9</ele>
        <time>2023-06-28T10:27:34Z</time>
      </trkpt>
      <trkpt lat="49.94722" lon="2.14227">
        <ele>15.9</ele>
        <time>2023-06-28T10:27:35Z</time>
      </trkpt>
      <trkpt lat="49.94722" lon="2.14227">
        <ele>15.9</ele>
        <time>2023-06-28T10:27:36Z</time>
      </trkpt>
      <trkpt lat="49.94722" lon="2.14227">
        <ele>15.9</ele>
        <time>2023-06-28T10:27:37Z</time>
      </trkpt>
      <trkpt lat="49.94722" lon="2.14227">
        <ele>15.9</ele>
        <time>2023-06-28T10:27:38Z</time>
      </trkpt>
      <trkpt lat="49.94722" lon="2.14227">
        <ele>15.9</ele>
        <time>2023-06-28T10:27:39Z</time>
      </trkpt>
      <trkpt lat="49.94722" lon="2.14227">
        <ele>15.9</ele>
        <time>2023-06-28T10:27:40Z</time>
      </trkpt>
      <trkpt lat="49.94722" lon="2.14227">
        <ele>15.9</ele>
        <time>2023-06-28T10:27:41Z</time>
      </trkpt>
      <trkpt lat="49.94722" lon="2.14227">
        <ele>15.9</ele>
        <time>2023-06-28T10:27:42Z</time>
      </trkpt>
      <trkpt lat="49.94722" lon="2.14227">
        <ele>15.9</ele>
        <time>2023-06-28T10:27:43Z</time>
      </trkpt>
      <trkpt lat="49.94722" lon="2.14227">
        <ele>15.9</ele>
        <time>2023-06-28T10:27:44Z</time>
      </trkpt>
      <trkpt lat="49.94722" lon="2.14227">
        <ele>15.9</ele>
        <time>2023-06-28T10:27:45Z</time>
      </trkpt>
      <trkpt lat="49.94722" lon="2.14227">
        <ele>15.9</ele>
        <time>2023-06-28T10:27:46Z</time>
      </trkpt>
      <trkpt lat="49.94722" lon="2.14227">
        <ele>15.9</ele>
        <time>2023-06-28T10:27:47Z</time>
      </trkpt>
      <trkpt lat="49.94722" lon="2.14227">
        <ele>15.9</ele>
        <time>2023-06-28T10:27:48Z</time>
      </trkpt>
      <trkpt lat="49.94722" lon="2.14227">
        <ele>15.9</ele>
        <time>2023-06-28T10:27:49Z</time>
      </trkpt>
      <trkpt lat="49.94722" lon="2.14227">
        <ele>15.9</ele>
        <time>2023-06-28T10:27:50Z</time>
      </trkpt>
      <trkpt lat="49.94722" lon="2.14227">
        <ele>15.9</ele>
        <time>2023-06-28T10:27:51Z</time>
      </trkpt>
      <trkpt lat="49.94722" lon="2.14227">
        <ele>15.9</ele>
        <time>2023-06-28T10:27:52Z</time>
      </trkpt>
      <trkpt lat="49.94722" lon="2.14227">
        <ele>15.9</ele>
        <time>2023-06-28T10:27:53Z</time>
      </trkpt>
      <trkpt lat="49.94722" lon="2.14227">
        <ele>15.9</ele>
        <time>2023-06-28T10:27:54Z</time>
      </trkpt>
      <trkpt lat="49.94722" lon="2.14227">
        <ele>15.9</ele>
        <time>2023-06-28T10:27:55Z</time>
      </trkpt>
      <trkpt lat="49.94722" lon="2.14227">
        <ele>15.9</ele>
        <time>2023-06-28T10:27:56Z</time>
      </trkpt>
      <trkpt lat="49.94722" lon="2.14227">
        <ele>15.9</ele>
        <time>2023-06-28T10:27:57Z</time>
      </trkpt>
      <trkpt lat="49.94722" lon="2.14227">
        <ele>15.9</ele>
        <time>2023-06-28T10:27:58Z</time>
      </trkpt>
      <trkpt lat="49.94722" lon="2.14227">
        <ele>15.9</ele>
        <time>2023-06-28T10:27:59Z</time>
      </trkpt>
      <trkpt lat="49.94722" lon="2.14227">
        <ele>15.9</ele>
        <time>2023-06-28T10:28:00Z</time>
      </trkpt>
      <trkpt lat="49.94722" lon="2.14227">
        <ele>15.9</ele>
        <time>2023-06-28T10:28:01Z</time>
      </trkpt>
      <trkpt lat="49.94722" lon="2.14227">
        <ele>15.9</ele>
        <time>2023-06-28T10:28:02Z</time>
      </trkpt>
      <trkpt lat="49.94722" lon="2.14227">
        <ele>15.9</ele>
        <time>2023-06-28T10:28:03Z</time>
      </trkpt>
      <trkpt lat="49.94722" lon="2.14227">
        <ele>15.9</ele>
        <time>2023-06-28T10:28:04Z</time>
      </trkpt>
      <trkpt lat="49.94722" lon="2.14227">
        <ele>15.9</ele>
        <time>2023-06-28T10:28:05Z</time>
      </trkpt>
      <trkpt lat="49.94722" lon="2.14227">
        <ele>15.9</ele>
        <time>2023-06-28T10:28:06Z</time>
      </trkpt>
      <trkpt lat="49.94722" lon="2.14227">
        <ele>15.9</ele>
        <time>2023-06-28T10:28:07Z</time>
      </trkpt>
      <trkpt lat="49.94722" lon="2.14227">
        <ele>15.9</ele>
        <time>2023-06-28T10:28:08Z</time>
      </trkpt>
      <trkpt lat="49.94722" lon="2.14227">
        <ele>15.9</ele>
        <time>2023-06-28T10:28:09Z</time>
      </trkpt>
      <trkpt lat="49.94722" lon="2.14227">
        <ele>15.9</ele>
        <time>2023-06-28T10:28:10Z</time>
      </trkpt>
      <trkpt lat="49.94722" lon="2.14227">
        <ele>15.9</ele>
        <time>2023-06-28T10:28:11Z</time>
      </trkpt>
      <trkpt lat="49.94722" lon="2.14227">
        <ele>15.9</ele>
        <time>2023-06-28T10:28:12Z</time>
      </trkpt>
      <trkpt lat="49.94722" lon="2.14227">
        <ele>15.9</ele>
        <time>2023-06-28T10:28:13Z</time>
      </trkpt>
      <trkpt lat="49.94722" lon="2.14227">
        <ele>15.9</ele>
        <time>2023-06-28T10:28:14Z</time>
      </trkpt>
      <trkpt lat="49.94722" lon="2.14227">
        <ele>15.9</ele>
        <time>2023-06-28T10:28:15Z</time>
      </trkpt>
      <trkpt lat="49.94722" lon="2.14227">
        <ele>15.9</ele>
        <time>2023-06-28T10:28:16Z</time>
      </trkpt>
      <trkpt lat="49.94722" lon="2.14227">
        <ele>15.9</ele>
        <time>2023-06-28T10:28:17Z</time>
      </trkpt>
      <trkpt lat="49.94722" lon="2.14227">
        <ele>15.9</ele>
        <time>2023-06-28T10:28:18Z</time>
      </trkpt>
      <trkpt lat="49.94722" lon="2.14227">
        <ele>15.9</ele>
        <time>2023-06-28T10:28:19Z</time>
      </trkpt>
      <trkpt lat="49.94722" lon="2.14227">
        <ele>15.9</ele>
        <time>2023-06-28T10:28:20Z</time>
      </trkpt>
      <trkpt lat="49.94722" lon="2.14227">
        <ele>15.9</ele>
        <time>2023-06-28T10:28:21Z</time>
      </trkpt>
      <trkpt lat="49.94722" lon="2.14227">
        <ele>15.9</ele>
        <time>2023-06-28T10:28:22Z</time>
      </trkpt>
      <trkpt lat="49.94722" lon="2.14227">
        <ele>15.9</ele>
        <time>2023-06-28T10:28:23Z</time>
      </trkpt>
      <trkpt lat="49.94722" lon="2.14227">
        <ele>15.9</ele>
        <time>2023-06-28T10:28:24Z</time>
      </trkpt>
      <trkpt lat="49.94722" lon="2.14227">
        <ele>15.9</ele>
        <time>2023-06-28T10:28:25Z</time>
      </trkpt>
      <trkpt lat="49.94722" lon="2.14227">
        <ele>15.9</ele>
        <time>2023-06-28T10:28:26Z</time>
      </trkpt>
      <trkpt lat="49.94722" lon="2.14227">
        <ele>15.9</ele>
        <time>2023-06-28T10:28:27Z</time>
      </trkpt>
      <trkpt lat="49.94722" lon="2.14227">
        <ele>15.9</ele>
        <time>2023-06-28T10:28:28Z</time>
      </trkpt>
      <trkpt lat="49.94722" lon="2.14227">
        <ele>15.9</ele>
        <time>2023-06-28T10:28:29Z</time>
      </trkpt>
      <trkpt lat="49.94722" lon="2.14227">
        <ele>15.9</ele>
        <time>2023-06-28T10:28:30Z</time>
      </trkpt>
      <trkpt lat="49.94722" lon="2.14227">
        <ele>15.9</ele>
        <time>2023-06-28T10:28:31Z</time>
      </trkpt>
      <trkpt lat="49.94722" lon="2.14227">
        <ele>15.9</ele>
        <time>2023-06-28T10:28:32Z</time>
      </trkpt>
      <trkpt lat="49.94722" lon="2.14227">
        <ele>15.9</ele>
        <time>2023-06-28T10:28:33Z</time>
      </trkpt>
      <trkpt lat="49.94722" lon="2.14227">
        <ele>15.9</ele>
        <time>2023-06-28T10:28:34Z</time>
      </trkpt>
      <trkpt lat="49.94722" lon="2.14227">
        <ele>15.9</ele>
        <time>2023-06-28T10:28:35Z</time>
      </trkpt>
      <trkpt lat="49.94722" lon="2.14227">
        <ele>15.9</ele>
        <time>2023-06-28T10:28:36Z</time>
      </trkpt>
      <trkpt lat="49.94722" lon="2.14227">
        <ele>15.9</ele>
        <time>2023-06-28T10:28:37Z</time>
      </trkpt>
      <trkpt lat="49.94722" lon="2.14227">
        <ele>15.9</ele>
        <time>2023-06-28T10:28:38Z</time>
      </trkpt>
      <trkpt lat="49.94722" lon="2.14227">
        <ele>15.9</ele>
        <time>2023-06-28T10:28:39Z</time>
      </trkpt>
      <trkpt lat="49.94722" lon="2.14227">
        <ele>15.9</ele>
        <time>2023-06-28T10:28:40Z</time>
      </trkpt>
      <trkpt lat="49.94722" lon="2.14227">
        <ele>15.9</ele>
        <time>2023-06-28T10:28:41Z</time>
      </trkpt>
      <trkpt lat="49.94722" lon="2.14227">
        <ele>15.9</ele>
        <time>2023-06-28T10:28:42Z</time>
      </trkpt>
      <trkpt lat="49.94723" lon="2.14226">
        <ele>15.9</ele>
        <time>2023-06-28T10:28:43Z</time>
      </trkpt>
      <trkpt lat="49.94724" lon="2.14226">
        <ele>15.9</ele>
        <time>2023-06-28T10:28:45Z</time>
      </trkpt>
      <trkpt lat="49.94724" lon="2.14226">
        <ele>15.9</ele>
        <time>2023-06-28T10:28:46Z</time>
      </trkpt>
      <trkpt lat="49.94724" lon="2.14226">
        <ele>15.9</ele>
        <time>2023-06-28T10:28:47Z</time>
      </trkpt>
      <trkpt lat="49.94724" lon="2.14226">
        <ele>15.9</ele>
        <time>2023-06-28T10:28:48Z</time>
      </trkpt>
      <trkpt lat="49.94724" lon="2.14226">
        <ele>15.9</ele>
        <time>2023-06-28T10:28:49Z</time>
      </trkpt>
      <trkpt lat="49.94724" lon="2.14226">
        <ele>15.9</ele>
        <time>2023-06-28T10:28:50Z</time>
      </trkpt>
      <trkpt lat="49.94724" lon="2.14226">
        <ele>15.9</ele>
        <time>2023-06-28T10:28:51Z</time>
      </trkpt>
      <trkpt lat="49.94724" lon="2.14226">
        <ele>15.9</ele>
        <time>2023-06-28T10:28:52Z</time>
      </trkpt>
      <trkpt lat="49.94724" lon="2.14226">
        <ele>15.9</ele>
        <time>2023-06-28T10:28:53Z</time>
      </trkpt>
      <trkpt lat="49.94724" lon="2.14226">
        <ele>15.9</ele>
        <time>2023-06-28T10:28:54Z</time>
      </trkpt>
      <trkpt lat="49.94724" lon="2.14226">
        <ele>15.9</ele>
        <time>2023-06-28T10:28:55Z</time>
      </trkpt>
      <trkpt lat="49.94724" lon="2.14226">
        <ele>15.9</ele>
        <time>2023-06-28T10:28:56Z</time>
      </trkpt>
      <trkpt lat="49.94724" lon="2.14226">
        <ele>15.9</ele>
        <time>2023-06-28T10:28:57Z</time>
      </trkpt>
      <trkpt lat="49.94724" lon="2.14226">
        <ele>15.9</ele>
        <time>2023-06-28T10:28:58Z</time>
      </trkpt>
      <trkpt lat="49.94724" lon="2.14226">
        <ele>15.9</ele>
        <time>2023-06-28T10:28:59Z</time>
      </trkpt>
      <trkpt lat="49.94724" lon="2.14226">
        <ele>15.9</ele>
        <time>2023-06-28T10:29:00Z</time>
      </trkpt>
      <trkpt lat="49.94724" lon="2.14226">
        <ele>15.9</ele>
        <time>2023-06-28T10:29:01Z</time>
      </trkpt>
      <trkpt lat="49.94724" lon="2.14226">
        <ele>15.9</ele>
        <time>2023-06-28T10:29:02Z</time>
      </trkpt>
      <trkpt lat="49.94724" lon="2.14226">
        <ele>15.9</ele>
        <time>2023-06-28T10:29:03Z</time>
      </trkpt>
      <trkpt lat="49.94724" lon="2.14226">
        <ele>15.9</ele>
        <time>2023-06-28T10:29:04Z</time>
      </trkpt>
      <trkpt lat="49.94724" lon="2.14226">
        <ele>15.9</ele>
        <time>2023-06-28T10:29:05Z</time>
      </trkpt>
      <trkpt lat="49.94724" lon="2.14226">
        <ele>15.9</ele>
        <time>2023-06-28T10:29:06Z</time>
      </trkpt>
      <trkpt lat="49.94724" lon="2.14226">
        <ele>15.9</ele>
        <time>2023-06-28T10:29:07Z</time>
      </trkpt>
      <trkpt lat="49.94724" lon="2.14226">
        <ele>15.9</ele>
        <time>2023-06-28T10:29:08Z</time>
      </trkpt>
      <trkpt lat="49.94724" lon="2.14226">
        <ele>15.9</ele>
        <time>2023-06-28T10:29:09Z</time>
      </trkpt>
      <trkpt lat="49.94724" lon="2.14226">
        <ele>15.9</ele>
        <time>2023-06-28T10:29:10Z</time>
      </trkpt>
      <trkpt lat="49.94724" lon="2.14226">
        <ele>15.9</ele>
        <time>2023-06-28T10:29:11Z</time>
      </trkpt>
      <trkpt lat="49.94724" lon="2.14226">
        <ele>15.9</ele>
        <time>2023-06-28T10:29:12Z</time>
      </trkpt>
      <trkpt lat="49.94724" lon="2.14226">
        <ele>15.9</ele>
        <time>2023-06-28T10:29:13Z</time>
      </trkpt>
      <trkpt lat="49.94724" lon="2.14226">
        <ele>15.9</ele>
        <time>2023-06-28T10:29:14Z</time>
      </trkpt>
      <trkpt lat="49.94724" lon="2.14226">
        <ele>15.9</ele>
        <time>2023-06-28T10:29:15Z</time>
      </trkpt>
      <trkpt lat="49.94724" lon="2.14226">
        <ele>15.9</ele>
        <time>2023-06-28T10:29:16Z</time>
      </trkpt>
      <trkpt lat="49.94724" lon="2.14226">
        <ele>15.9</ele>
        <time>2023-06-28T10:29:17Z</time>
      </trkpt>
      <trkpt lat="49.94724" lon="2.14226">
        <ele>15.9</ele>
        <time>2023-06-28T10:29:18Z</time>
      </trkpt>
      <trkpt lat="49.94724" lon="2.14226">
        <ele>15.9</ele>
        <time>2023-06-28T10:29:19Z</time>
      </trkpt>
      <trkpt lat="49.94724" lon="2.14226">
        <ele>15.9</ele>
        <time>2023-06-28T10:29:20Z</time>
      </trkpt>
      <trkpt lat="49.94724" lon="2.14226">
        <ele>15.9</ele>
        <time>2023-06-28T10:29:21Z</time>
      </trkpt>
      <trkpt lat="49.94724" lon="2.14226">
        <ele>15.9</ele>
        <time>2023-06-28T10:29:22Z</time>
      </trkpt>
      <trkpt lat="49.94724" lon="2.14226">
        <ele>15.9</ele>
        <time>2023-06-28T10:29:23Z</time>
      </trkpt>
      <trkpt lat="49.94724" lon="2.14226">
        <ele>15.9</ele>
        <time>2023-06-28T10:29:24Z</time>
      </trkpt>
      <trkpt lat="49.94724" lon="2.14226">
        <ele>15.9</ele>
        <time>2023-06-28T10:29:25Z</time>
      </trkpt>
      <trkpt lat="49.94724" lon="2.14226">
        <ele>15.9</ele>
        <time>2023-06-28T10:29:26Z</time>
      </trkpt>
      <trkpt lat="49.94724" lon="2.14226">
        <ele>15.9</ele>
        <time>2023-06-28T10:29:27Z</time>
      </trkpt>
      <trkpt lat="49.94724" lon="2.14226">
        <ele>15.9</ele>
        <time>2023-06-28T10:29:28Z</time>
      </trkpt>
      <trkpt lat="49.94724" lon="2.14226">
        <ele>15.9</ele>
        <time>2023-06-28T10:29:29Z</time>
      </trkpt>
      <trkpt lat="49.94724" lon="2.14226">
        <ele>15.9</ele>
        <time>2023-06-28T10:29:30Z</time>
      </trkpt>
      <trkpt lat="49.94724" lon="2.14226">
        <ele>15.9</ele>
        <time>2023-06-28T10:29:31Z</time>
      </trkpt>
      <trkpt lat="49.94724" lon="2.14226">
        <ele>15.9</ele>
        <time>2023-06-28T10:29:32Z</time>
      </trkpt>
      <trkpt lat="49.94724" lon="2.14226">
        <ele>15.9</ele>
        <time>2023-06-28T10:29:33Z</time>
      </trkpt>
      <trkpt lat="49.94724" lon="2.14226">
        <ele>15.9</ele>
        <time>2023-06-28T10:29:34Z</time>
      </trkpt>
      <trkpt lat="49.94724" lon="2.14226">
        <ele>15.9</ele>
        <time>2023-06-28T10:29:35Z</time>
      </trkpt>
      <trkpt lat="49.94724" lon="2.14226">
        <ele>15.9</ele>
        <time>2023-06-28T10:29:36Z</time>
      </trkpt>
      <trkpt lat="49.94724" lon="2.14226">
        <ele>15.9</ele>
        <time>2023-06-28T10:29:37Z</time>
      </trkpt>
      <trkpt lat="49.94724" lon="2.14226">
        <ele>15.9</ele>
        <time>2023-06-28T10:29:38Z</time>
      </trkpt>
      <trkpt lat="49.94724" lon="2.14226">
        <ele>15.9</ele>
        <time>2023-06-28T10:29:39Z</time>
      </trkpt>
      <trkpt lat="49.94724" lon="2.14226">
        <ele>15.9</ele>
        <time>2023-06-28T10:29:40Z</time>
      </trkpt>
      <trkpt lat="49.94724" lon="2.14226">
        <ele>15.9</ele>
        <time>2023-06-28T10:29:41Z</time>
      </trkpt>
      <trkpt lat="49.94724" lon="2.14226">
        <ele>15.9</ele>
        <time>2023-06-28T10:29:42Z</time>
      </trkpt>
      <trkpt lat="49.94724" lon="2.14226">
        <ele>15.9</ele>
        <time>2023-06-28T10:29:43Z</time>
      </trkpt>
      <trkpt lat="49.94724" lon="2.14226">
        <ele>15.9</ele>
        <time>2023-06-28T10:29:44Z</time>
      </trkpt>
      <trkpt lat="49.94724" lon="2.14226">
        <ele>15.9</ele>
        <time>2023-06-28T10:29:45Z</time>
      </trkpt>
      <trkpt lat="49.94724" lon="2.14226">
        <ele>15.9</ele>
        <time>2023-06-28T10:29:46Z</time>
      </trkpt>
      <trkpt lat="49.94724" lon="2.14226">
        <ele>15.9</ele>
        <time>2023-06-28T10:29:47Z</time>
      </trkpt>
      <trkpt lat="49.94724" lon="2.14226">
        <ele>15.9</ele>
        <time>2023-06-28T10:29:48Z</time>
      </trkpt>
      <trkpt lat="49.94724" lon="2.14226">
        <ele>15.9</ele>
        <time>2023-06-28T10:29:49Z</time>
      </trkpt>
      <trkpt lat="49.94724" lon="2.14226">
        <ele>15.9</ele>
        <time>2023-06-28T10:29:50Z</time>
      </trkpt>
      <trkpt lat="49.94724" lon="2.14226">
        <ele>15.9</ele>
        <time>2023-06-28T10:29:51Z</time>
      </trkpt>
      <trkpt lat="49.94724" lon="2.14226">
        <ele>15.9</ele>
        <time>2023-06-28T10:29:52Z</time>
      </trkpt>
      <trkpt lat="49.94724" lon="2.14226">
        <ele>15.9</ele>
        <time>2023-06-28T10:29:53Z</time>
      </trkpt>
      <trkpt lat="49.94724" lon="2.14226">
        <ele>15.9</ele>
        <time>2023-06-28T10:29:54Z</time>
      </trkpt>
      <trkpt lat="49.94724" lon="2.14226">
        <ele>15.9</ele>
        <time>2023-06-28T10:29:55Z</time>
      </trkpt>
      <trkpt lat="49.94724" lon="2.14226">
        <ele>15.9</ele>
        <time>2023-06-28T10:29:56Z</time>
      </trkpt>
      <trkpt lat="49.94724" lon="2.14226">
        <ele>15.9</ele>
        <time>2023-06-28T10:29:57Z</time>
      </trkpt>
      <trkpt lat="49.94724" lon="2.14226">
        <ele>15.9</ele>
        <time>2023-06-28T10:29:58Z</time>
      </trkpt>
      <trkpt lat="49.94724" lon="2.14226">
        <ele>15.9</ele>
        <time>2023-06-28T10:29:59Z</time>
      </trkpt>
      <trkpt lat="49.94724" lon="2.14226">
        <ele>15.9</ele>
        <time>2023-06-28T10:30:00Z</time>
      </trkpt>
      <trkpt lat="49.94724" lon="2.14226">
        <ele>15.9</ele>
        <time>2023-06-28T10:30:01Z</time>
      </trkpt>
      <trkpt lat="49.94724" lon="2.14226">
        <ele>15.9</ele>
        <time>2023-06-28T10:30:02Z</time>
      </trkpt>
      <trkpt lat="49.94724" lon="2.14226">
        <ele>15.9</ele>
        <time>2023-06-28T10:30:03Z</time>
      </trkpt>
      <trkpt lat="49.94724" lon="2.14226">
        <ele>15.9</ele>
        <time>2023-06-28T10:30:04Z</time>
      </trkpt>
      <trkpt lat="49.94724" lon="2.14226">
        <ele>15.9</ele>
        <time>2023-06-28T10:30:05Z</time>
      </trkpt>
      <trkpt lat="49.94724" lon="2.14226">
        <ele>15.9</ele>
        <time>2023-06-28T10:30:06Z</time>
      </trkpt>
      <trkpt lat="49.94724" lon="2.14226">
        <ele>15.9</ele>
        <time>2023-06-28T10:30:07Z</time>
      </trkpt>
      <trkpt lat="49.94724" lon="2.14226">
        <ele>15.9</ele>
        <time>2023-06-28T10:30:08Z</time>
      </trkpt>
      <trkpt lat="49.94724" lon="2.14226">
        <ele>15.9</ele>
        <time>2023-06-28T10:30:09Z</time>
      </trkpt>
      <trkpt lat="49.94724" lon="2.14226">
        <ele>15.9</ele>
        <time>2023-06-28T10:30:10Z</time>
      </trkpt>
      <trkpt lat="49.94724" lon="2.14226">
        <ele>15.9</ele>
        <time>2023-06-28T10:30:11Z</time>
      </trkpt>
      <trkpt lat="49.94724" lon="2.14226">
        <ele>15.9</ele>
        <time>2023-06-28T10:30:12Z</time>
      </trkpt>
      <trkpt lat="49.94724" lon="2.14226">
        <ele>15.9</ele>
        <time>2023-06-28T10:30:13Z</time>
      </trkpt>
      <trkpt lat="49.94724" lon="2.14226">
        <ele>15.9</ele>
        <time>2023-06-28T10:30:14Z</time>
      </trkpt>
      <trkpt lat="49.94724" lon="2.14226">
        <ele>15.9</ele>
        <time>2023-06-28T10:30:15Z</time>
      </trkpt>
      <trkpt lat="49.94724" lon="2.14226">
        <ele>15.9</ele>
        <time>2023-06-28T10:30:16Z</time>
      </trkpt>
      <trkpt lat="49.94724" lon="2.14226">
        <ele>15.9</ele>
        <time>2023-06-28T10:30:17Z</time>
      </trkpt>
      <trkpt lat="49.94724" lon="2.14226">
        <ele>15.9</ele>
        <time>2023-06-28T10:30:18Z</time>
      </trkpt>
      <trkpt lat="49.94724" lon="2.14226">
        <ele>15.9</ele>
        <time>2023-06-28T10:30:19Z</time>
      </trkpt>
      <trkpt lat="49.94724" lon="2.14226">
        <ele>15.9</ele>
        <time>2023-06-28T10:30:20Z</time>
      </trkpt>
      <trkpt lat="49.94724" lon="2.14226">
        <ele>15.9</ele>
        <time>2023-06-28T10:30:21Z</time>
      </trkpt>
      <trkpt lat="49.94724" lon="2.14226">
        <ele>15.9</ele>
        <time>2023-06-28T10:30:22Z</time>
      </trkpt>
      <trkpt lat="49.94724" lon="2.14226">
        <ele>15.9</ele>
        <time>2023-06-28T10:30:23Z</time>
      </trkpt>
      <trkpt lat="49.94724" lon="2.14226">
        <ele>15.9</ele>
        <time>2023-06-28T10:30:24Z</time>
      </trkpt>
      <trkpt lat="49.94724" lon="2.14226">
        <ele>15.9</ele>
        <time>2023-06-28T10:30:25Z</time>
      </trkpt>
      <trkpt lat="49.94724" lon="2.14226">
        <ele>15.9</ele>
        <time>2023-06-28T10:30:26Z</time>
      </trkpt>
      <trkpt lat="49.94724" lon="2.14226">
        <ele>15.9</ele>
        <time>2023-06-28T10:30:27Z</time>
      </trkpt>
      <trkpt lat="49.94724" lon="2.14226">
        <ele>15.9</ele>
        <time>2023-06-28T10:30:28Z</time>
      </trkpt>
      <trkpt lat="49.94724" lon="2.14226">
        <ele>15.9</ele>
        <time>2023-06-28T10:30:29Z</time>
      </trkpt>
      <trkpt lat="49.94724" lon="2.14226">
        <ele>15.9</ele>
        <time>2023-06-28T10:30:30Z</time>
      </trkpt>
      <trkpt lat="49.94724" lon="2.14226">
        <ele>15.9</ele>
        <time>2023-06-28T10:30:31Z</time>
      </trkpt>
      <trkpt lat="49.94724" lon="2.14226">
        <ele>15.9</ele>
        <time>2023-06-28T10:30:32Z</time>
      </trkpt>
      <trkpt lat="49.94724" lon="2.14226">
        <ele>15.9</ele>
        <time>2023-06-28T10:30:33Z</time>
      </trkpt>
      <trkpt lat="49.94724" lon="2.14226">
        <ele>15.9</ele>
        <time>2023-06-28T10:30:34Z</time>
      </trkpt>
      <trkpt lat="49.94724" lon="2.14226">
        <ele>15.9</ele>
        <time>2023-06-28T10:30:35Z</time>
      </trkpt>
      <trkpt lat="49.94724" lon="2.14226">
        <ele>15.9</ele>
        <time>2023-06-28T10:30:36Z</time>
      </trkpt>
      <trkpt lat="49.94724" lon="2.14226">
        <ele>15.9</ele>
        <time>2023-06-28T10:30:37Z</time>
      </trkpt>
      <trkpt lat="49.94724" lon="2.14226">
        <ele>15.9</ele>
        <time>2023-06-28T10:30:38Z</time>
      </trkpt>
      <trkpt lat="49.94724" lon="2.14226">
        <ele>15.9</ele>
        <time>2023-06-28T10:30:39Z</time>
      </trkpt>
      <trkpt lat="49.94724" lon="2.14226">
        <ele>15.9</ele>
        <time>2023-06-28T10:30:40Z</time>
      </trkpt>
      <trkpt lat="49.94724" lon="2.14226">
        <ele>15.9</ele>
        <time>2023-06-28T10:30:41Z</time>
      </trkpt>
      <trkpt lat="49.94724" lon="2.14226">
        <ele>15.9</ele>
        <time>2023-06-28T10:30:42Z</time>
      </trkpt>
      <trkpt lat="49.94724" lon="2.14226">
        <ele>15.9</ele>
        <time>2023-06-28T10:30:43Z</time>
      </trkpt>
      <trkpt lat="49.94724" lon="2.14226">
        <ele>15.9</ele>
        <time>2023-06-28T10:30:44Z</time>
      </trkpt>
      <trkpt lat="49.94724" lon="2.14226">
        <ele>15.9</ele>
        <time>2023-06-28T10:30:45Z</time>
      </trkpt>
      <trkpt lat="49.94724" lon="2.14226">
        <ele>15.9</ele>
        <time>2023-06-28T10:30:46Z</time>
      </trkpt>
      <trkpt lat="49.94724" lon="2.14226">
        <ele>15.9</ele>
        <time>2023-06-28T10:30:47Z</time>
      </trkpt>
      <trkpt lat="49.94724" lon="2.14226">
        <ele>15.9</ele>
        <time>2023-06-28T10:30:48Z</time>
      </trkpt>
      <trkpt lat="49.94724" lon="2.14226">
        <ele>15.9</ele>
        <time>2023-06-28T10:30:49Z</time>
      </trkpt>
      <trkpt lat="49.94724" lon="2.14226">
        <ele>15.9</ele>
        <time>2023-06-28T10:30:50Z</time>
      </trkpt>
      <trkpt lat="49.94724" lon="2.14226">
        <ele>15.9</ele>
        <time>2023-06-28T10:30:51Z</time>
      </trkpt>
      <trkpt lat="49.94724" lon="2.14226">
        <ele>15.9</ele>
        <time>2023-06-28T10:30:52Z</time>
      </trkpt>
      <trkpt lat="49.94724" lon="2.14226">
        <ele>15.9</ele>
        <time>2023-06-28T10:30:53Z</time>
      </trkpt>
      <trkpt lat="49.94724" lon="2.14226">
        <ele>15.9</ele>
        <time>2023-06-28T10:30:54Z</time>
      </trkpt>
      <trkpt lat="49.94724" lon="2.14226">
        <ele>15.9</ele>
        <time>2023-06-28T10:30:55Z</time>
      </trkpt>
      <trkpt lat="49.94724" lon="2.14226">
        <ele>15.9</ele>
        <time>2023-06-28T10:30:56Z</time>
      </trkpt>
      <trkpt lat="49.94724" lon="2.14226">
        <ele>15.9</ele>
        <time>2023-06-28T10:30:57Z</time>
      </trkpt>
      <trkpt lat="49.94724" lon="2.14226">
        <ele>15.9</ele>
        <time>2023-06-28T10:30:58Z</time>
      </trkpt>
      <trkpt lat="49.94724" lon="2.14226">
        <ele>15.9</ele>
        <time>2023-06-28T10:30:59Z</time>
      </trkpt>
      <trkpt lat="49.94724" lon="2.14226">
        <ele>15.9</ele>
        <time>2023-06-28T10:31:00Z</time>
      </trkpt>
      <trkpt lat="49.94724" lon="2.14226">
        <ele>15.9</ele>
        <time>2023-06-28T10:31:01Z</time>
      </trkpt>
      <trkpt lat="49.94724" lon="2.14226">
        <ele>15.9</ele>
        <time>2023-06-28T10:31:02Z</time>
      </trkpt>
      <trkpt lat="49.94724" lon="2.14226">
        <ele>15.9</ele>
        <time>2023-06-28T10:31:03Z</time>
      </trkpt>
      <trkpt lat="49.94724" lon="2.14226">
        <ele>15.9</ele>
        <time>2023-06-28T10:31:04Z</time>
      </trkpt>
      <trkpt lat="49.94724" lon="2.14226">
        <ele>15.9</ele>
        <time>2023-06-28T10:31:05Z</time>
      </trkpt>
      <trkpt lat="49.94724" lon="2.14226">
        <ele>15.9</ele>
        <time>2023-06-28T10:31:06Z</time>
      </trkpt>
      <trkpt lat="49.94724" lon="2.14226">
        <ele>15.9</ele>
        <time>2023-06-28T10:31:07Z</time>
      </trkpt>
      <trkpt lat="49.94724" lon="2.14226">
        <ele>15.9</ele>
        <time>2023-06-28T10:31:08Z</time>
      </trkpt>
      <trkpt lat="49.94724" lon="2.14226">
        <ele>15.9</ele>
        <time>2023-06-28T10:31:09Z</time>
      </trkpt>
      <trkpt lat="49.94724" lon="2.14226">
        <ele>15.9</ele>
        <time>2023-06-28T10:31:10Z</time>
      </trkpt>
      <trkpt lat="49.94724" lon="2.14226">
        <ele>15.9</ele>
        <time>2023-06-28T10:31:11Z</time>
      </trkpt>
      <trkpt lat="49.94724" lon="2.14226">
        <ele>15.9</ele>
        <time>2023-06-28T10:31:12Z</time>
      </trkpt>
      <trkpt lat="49.94724" lon="2.14226">
        <ele>15.9</ele>
        <time>2023-06-28T10:31:13Z</time>
      </trkpt>
      <trkpt lat="49.94724" lon="2.14226">
        <ele>15.9</ele>
        <time>2023-06-28T10:31:14Z</time>
      </trkpt>
      <trkpt lat="49.94724" lon="2.14226">
        <ele>15.9</ele>
        <time>2023-06-28T10:31:15Z</time>
      </trkpt>
      <trkpt lat="49.94724" lon="2.14226">
        <ele>15.9</ele>
        <time>2023-06-28T10:31:16Z</time>
      </trkpt>
      <trkpt lat="49.94724" lon="2.14226">
        <ele>15.9</ele>
        <time>2023-06-28T10:31:17Z</time>
      </trkpt>
      <trkpt lat="49.94724" lon="2.14226">
        <ele>15.9</ele>
        <time>2023-06-28T10:31:18Z</time>
      </trkpt>
      <trkpt lat="49.94724" lon="2.14226">
        <ele>15.9</ele>
        <time>2023-06-28T10:31:19Z</time>
      </trkpt>
      <trkpt lat="49.94724" lon="2.14226">
        <ele>15.9</ele>
        <time>2023-06-28T10:31:20Z</time>
      </trkpt>
      <trkpt lat="49.94724" lon="2.14226">
        <ele>15.9</ele>
        <time>2023-06-28T10:31:21Z</time>
      </trkpt>
      <trkpt lat="49.94724" lon="2.14226">
        <ele>15.9</ele>
        <time>2023-06-28T10:31:22Z</time>
      </trkpt>
      <trkpt lat="49.94724" lon="2.14226">
        <ele>15.9</ele>
        <time>2023-06-28T10:31:23Z</time>
      </trkpt>
      <trkpt lat="49.94724" lon="2.14226">
        <ele>15.9</ele>
        <time>2023-06-28T10:31:24Z</time>
      </trkpt>
      <trkpt lat="49.94724" lon="2.14226">
        <ele>15.9</ele>
        <time>2023-06-28T10:31:25Z</time>
      </trkpt>
      <trkpt lat="49.94724" lon="2.14226">
        <ele>15.9</ele>
        <time>2023-06-28T10:31:26Z</time>
      </trkpt>
      <trkpt lat="49.94724" lon="2.14226">
        <ele>15.9</ele>
        <time>2023-06-28T10:31:27Z</time>
      </trkpt>
      <trkpt lat="49.94724" lon="2.14226">
        <ele>15.9</ele>
        <time>2023-06-28T10:31:28Z</time>
      </trkpt>
      <trkpt lat="49.94724" lon="2.14226">
        <ele>15.9</ele>
        <time>2023-06-28T10:31:29Z</time>
      </trkpt>
      <trkpt lat="49.94724" lon="2.14226">
        <ele>15.9</ele>
        <time>2023-06-28T10:31:30Z</time>
      </trkpt>
      <trkpt lat="49.94724" lon="2.14226">
        <ele>15.9</ele>
        <time>2023-06-28T10:31:31Z</time>
      </trkpt>
      <trkpt lat="49.94724" lon="2.14226">
        <ele>15.9</ele>
        <time>2023-06-28T10:31:32Z</time>
      </trkpt>
      <trkpt lat="49.94724" lon="2.14226">
        <ele>15.9</ele>
        <time>2023-06-28T10:31:33Z</time>
      </trkpt>
      <trkpt lat="49.94724" lon="2.14226">
        <ele>15.9</ele>
        <time>2023-06-28T10:31:34Z</time>
      </trkpt>
      <trkpt lat="49.94724" lon="2.14226">
        <ele>15.9</ele>
        <time>2023-06-28T10:31:35Z</time>
      </trkpt>
      <trkpt lat="49.94724" lon="2.14226">
        <ele>15.9</ele>
        <time>2023-06-28T10:31:36Z</time>
      </trkpt>
      <trkpt lat="49.94724" lon="2.14226">
        <ele>15.9</ele>
        <time>2023-06-28T10:31:37Z</time>
      </trkpt>
      <trkpt lat="49.94724" lon="2.14226">
        <ele>15.9</ele>
        <time>2023-06-28T10:31:38Z</time>
      </trkpt>
      <trkpt lat="49.94724" lon="2.14226">
        <ele>15.9</ele>
        <time>2023-06-28T10:31:39Z</time>
      </trkpt>
      <trkpt lat="49.94724" lon="2.14226">
        <ele>15.9</ele>
        <time>2023-06-28T10:31:40Z</time>
      </trkpt>
      <trkpt lat="49.94724" lon="2.14226">
        <ele>15.9</ele>
        <time>2023-06-28T10:31:41Z</time>
      </trkpt>
      <trkpt lat="49.94724" lon="2.14226">
        <ele>15.9</ele>
        <time>2023-06-28T10:31:42Z</time>
      </trkpt>
      <trkpt lat="49.94724" lon="2.14226">
        <ele>15.9</ele>
        <time>2023-06-28T10:31:43Z</time>
      </trkpt>
      <trkpt lat="49.94724" lon="2.14226">
        <ele>15.9</ele>
        <time>2023-06-28T10:31:44Z</time>
      </trkpt>
      <trkpt lat="49.94724" lon="2.14226">
        <ele>15.9</ele>
        <time>2023-06-28T10:31:45Z</time>
      </trkpt>
      <trkpt lat="49.94724" lon="2.14226">
        <ele>15.9</ele>
        <time>2023-06-28T10:31:46Z</time>
      </trkpt>
      <trkpt lat="49.94724" lon="2.14226">
        <ele>15.9</ele>
        <time>2023-06-28T10:31:47Z</time>
      </trkpt>
      <trkpt lat="49.94724" lon="2.14226">
        <ele>15.9</ele>
        <time>2023-06-28T10:31:48Z</time>
      </trkpt>
      <trkpt lat="49.94724" lon="2.14226">
        <ele>15.9</ele>
        <time>2023-06-28T10:31:49Z</time>
      </trkpt>
      <trkpt lat="49.94724" lon="2.14226">
        <ele>15.9</ele>
        <time>2023-06-28T10:31:50Z</time>
      </trkpt>
      <trkpt lat="49.94724" lon="2.14226">
        <ele>15.9</ele>
        <time>2023-06-28T10:31:51Z</time>
      </trkpt>
      <trkpt lat="49.94724" lon="2.14226">
        <ele>15.9</ele>
        <time>2023-06-28T10:31:52Z</time>
      </trkpt>
      <trkpt lat="49.94724" lon="2.14226">
        <ele>15.9</ele>
        <time>2023-06-28T10:31:53Z</time>
      </trkpt>
      <trkpt lat="49.94724" lon="2.14226">
        <ele>15.9</ele>
        <time>2023-06-28T10:31:54Z</time>
      </trkpt>
      <trkpt lat="49.94724" lon="2.14226">
        <ele>15.9</ele>
        <time>2023-06-28T10:31:55Z</time>
      </trkpt>
      <trkpt lat="49.94724" lon="2.14226">
        <ele>15.9</ele>
        <time>2023-06-28T10:31:56Z</time>
      </trkpt>
      <trkpt lat="49.94724" lon="2.14226">
        <ele>15.9</ele>
        <time>2023-06-28T10:31:57Z</time>
      </trkpt>
      <trkpt lat="49.94724" lon="2.14226">
        <ele>15.9</ele>
        <time>2023-06-28T10:31:58Z</time>
      </trkpt>
      <trkpt lat="49.94724" lon="2.14226">
        <ele>15.9</ele>
        <time>2023-06-28T10:31:59Z</time>
      </trkpt>
      <trkpt lat="49.94724" lon="2.14226">
        <ele>15.9</ele>
        <time>2023-06-28T10:32:00Z</time>
      </trkpt>
      <trkpt lat="49.94724" lon="2.14226">
        <ele>15.9</ele>
        <time>2023-06-28T10:32:01Z</time>
      </trkpt>
      <trkpt lat="49.94724" lon="2.14226">
        <ele>15.9</ele>
        <time>2023-06-28T10:32:02Z</time>
      </trkpt>
      <trkpt lat="49.94724" lon="2.14226">
        <ele>15.9</ele>
        <time>2023-06-28T10:32:03Z</time>
      </trkpt>
      <trkpt lat="49.94724" lon="2.14226">
        <ele>15.9</ele>
        <time>2023-06-28T10:32:04Z</time>
      </trkpt>
      <trkpt lat="49.94724" lon="2.14226">
        <ele>15.9</ele>
        <time>2023-06-28T10:32:05Z</time>
      </trkpt>
      <trkpt lat="49.94724" lon="2.14226">
        <ele>15.9</ele>
        <time>2023-06-28T10:32:06Z</time>
      </trkpt>
      <trkpt lat="49.94724" lon="2.14226">
        <ele>15.9</ele>
        <time>2023-06-28T10:32:07Z</time>
      </trkpt>
      <trkpt lat="49.94724" lon="2.14226">
        <ele>15.9</ele>
        <time>2023-06-28T10:32:08Z</time>
      </trkpt>
      <trkpt lat="49.94724" lon="2.14226">
        <ele>15.9</ele>
        <time>2023-06-28T10:32:09Z</time>
      </trkpt>
      <trkpt lat="49.94724" lon="2.14226">
        <ele>15.9</ele>
        <time>2023-06-28T10:32:10Z</time>
      </trkpt>
      <trkpt lat="49.94724" lon="2.14226">
        <ele>15.9</ele>
        <time>2023-06-28T10:32:11Z</time>
      </trkpt>
      <trkpt lat="49.94724" lon="2.14226">
        <ele>15.9</ele>
        <time>2023-06-28T10:32:12Z</time>
      </trkpt>
      <trkpt lat="49.94724" lon="2.14226">
        <ele>15.9</ele>
        <time>2023-06-28T10:32:13Z</time>
      </trkpt>
      <trkpt lat="49.94724" lon="2.14226">
        <ele>15.9</ele>
        <time>2023-06-28T10:32:14Z</time>
      </trkpt>
      <trkpt lat="49.94724" lon="2.14226">
        <ele>15.9</ele>
        <time>2023-06-28T10:32:15Z</time>
      </trkpt>
      <trkpt lat="49.94724" lon="2.14226">
        <ele>15.9</ele>
        <time>2023-06-28T10:32:16Z</time>
      </trkpt>
      <trkpt lat="49.94724" lon="2.14226">
        <ele>15.9</ele>
        <time>2023-06-28T10:32:17Z</time>
      </trkpt>
      <trkpt lat="49.94724" lon="2.14226">
        <ele>15.9</ele>
        <time>2023-06-28T10:32:18Z</time>
      </trkpt>
      <trkpt lat="49.94724" lon="2.14226">
        <ele>15.9</ele>
        <time>2023-06-28T10:32:19Z</time>
      </trkpt>
      <trkpt lat="49.94724" lon="2.14226">
        <ele>15.9</ele>
        <time>2023-06-28T10:32:20Z</time>
      </trkpt>
      <trkpt lat="49.94724" lon="2.14226">
        <ele>15.9</ele>
        <time>2023-06-28T10:32:21Z</time>
      </trkpt>
      <trkpt lat="49.94724" lon="2.14226">
        <ele>15.9</ele>
        <time>2023-06-28T10:32:22Z</time>
      </trkpt>
      <trkpt lat="49.94724" lon="2.14226">
        <ele>15.9</ele>
        <time>2023-06-28T10:32:23Z</time>
      </trkpt>
      <trkpt lat="49.94724" lon="2.14226">
        <ele>15.9</ele>
        <time>2023-06-28T10:32:24Z</time>
      </trkpt>
      <trkpt lat="49.94724" lon="2.14226">
        <ele>15.9</ele>
        <time>2023-06-28T10:32:25Z</time>
      </trkpt>
      <trkpt lat="49.94724" lon="2.14226">
        <ele>15.9</ele>
        <time>2023-06-28T10:32:26Z</time>
      </trkpt>
      <trkpt lat="49.94724" lon="2.14226">
        <ele>15.9</ele>
        <time>2023-06-28T10:32:27Z</time>
      </trkpt>
      <trkpt lat="49.94722" lon="2.14228">
        <ele>15.9</ele>
        <time>2023-06-28T10:32:28Z</time>
      </trkpt>
      <trkpt lat="49.94722" lon="2.14228">
        <ele>15.9</ele>
        <time>2023-06-28T10:32:29Z</time>
      </trkpt>
      <trkpt lat="49.94722" lon="2.14228">
        <ele>15.9</ele>
        <time>2023-06-28T10:32:30Z</time>
      </trkpt>
      <trkpt lat="49.94722" lon="2.14228">
        <ele>15.9</ele>
        <time>2023-06-28T10:32:31Z</time>
      </trkpt>
      <trkpt lat="49.94722" lon="2.14228">
        <ele>15.9</ele>
        <time>2023-06-28T10:32:32Z</time>
      </trkpt>
      <trkpt lat="49.94722" lon="2.14228">
        <ele>15.9</ele>
        <time>2023-06-28T10:32:33Z</time>
      </trkpt>
      <trkpt lat="49.94722" lon="2.14228">
        <ele>15.9</ele>
        <time>2023-06-28T10:32:34Z</time>
      </trkpt>
      <trkpt lat="49.94722" lon="2.14228">
        <ele>15.9</ele>
        <time>2023-06-28T10:32:35Z</time>
      </trkpt>
      <trkpt lat="49.94722" lon="2.14228">
        <ele>15.9</ele>
        <time>2023-06-28T10:32:36Z</time>
      </trkpt>
      <trkpt lat="49.94722" lon="2.14228">
        <ele>15.9</ele>
        <time>2023-06-28T10:32:37Z</time>
      </trkpt>
      <trkpt lat="49.94722" lon="2.14228">
        <ele>15.9</ele>
        <time>2023-06-28T10:32:38Z</time>
      </trkpt>
      <trkpt lat="49.94722" lon="2.14228">
        <ele>15.9</ele>
        <time>2023-06-28T10:32:39Z</time>
      </trkpt>
      <trkpt lat="49.94722" lon="2.14228">
        <ele>15.9</ele>
        <time>2023-06-28T10:32:40Z</time>
      </trkpt>
      <trkpt lat="49.94722" lon="2.14228">
        <ele>15.9</ele>
        <time>2023-06-28T10:32:41Z</time>
      </trkpt>
      <trkpt lat="49.94722" lon="2.14228">
        <ele>15.9</ele>
        <time>2023-06-28T10:32:42Z</time>
      </trkpt>
      <trkpt lat="49.94722" lon="2.14228">
        <ele>15.9</ele>
        <time>2023-06-28T10:32:43Z</time>
      </trkpt>
      <trkpt lat="49.94722" lon="2.14228">
        <ele>15.9</ele>
        <time>2023-06-28T10:32:44Z</time>
      </trkpt>
      <trkpt lat="49.94722" lon="2.14228">
        <ele>15.9</ele>
        <time>2023-06-28T10:32:45Z</time>
      </trkpt>
      <trkpt lat="49.94722" lon="2.14228">
        <ele>15.9</ele>
        <time>2023-06-28T10:32:46Z</time>
      </trkpt>
      <trkpt lat="49.94722" lon="2.14228">
        <ele>15.9</ele>
        <time>2023-06-28T10:32:47Z</time>
      </trkpt>
      <trkpt lat="49.94722" lon="2.14228">
        <ele>15.9</ele>
        <time>2023-06-28T10:32:48Z</time>
      </trkpt>
      <trkpt lat="49.94722" lon="2.14228">
        <ele>15.9</ele>
        <time>2023-06-28T10:32:49Z</time>
      </trkpt>
      <trkpt lat="49.94722" lon="2.14228">
        <ele>15.9</ele>
        <time>2023-06-28T10:32:50Z</time>
      </trkpt>
      <trkpt lat="49.94722" lon="2.14228">
        <ele>15.9</ele>
        <time>2023-06-28T10:32:51Z</time>
      </trkpt>
      <trkpt lat="49.94722" lon="2.14229">
        <ele>15.9</ele>
        <time>2023-06-28T10:32:52Z</time>
      </trkpt>
      <trkpt lat="49.94722" lon="2.14229">
        <ele>15.9</ele>
        <time>2023-06-28T10:32:53Z</time>
      </trkpt>
      <trkpt lat="49.94722" lon="2.14229">
        <ele>15.9</ele>
        <time>2023-06-28T10:32:54Z</time>
      </trkpt>
      <trkpt lat="49.94722" lon="2.14229">
        <ele>15.9</ele>
        <time>2023-06-28T10:32:55Z</time>
      </trkpt>
      <trkpt lat="49.94722" lon="2.14229">
        <ele>15.9</ele>
        <time>2023-06-28T10:32:56Z</time>
      </trkpt>
      <trkpt lat="49.94722" lon="2.14229">
        <ele>15.9</ele>
        <time>2023-06-28T10:32:57Z</time>
      </trkpt>
      <trkpt lat="49.94722" lon="2.14229">
        <ele>15.9</ele>
        <time>2023-06-28T10:32:58Z</time>
      </trkpt>
      <trkpt lat="49.94722" lon="2.14229">
        <ele>15.9</ele>
        <time>2023-06-28T10:32:59Z</time>
      </trkpt>
      <trkpt lat="49.94722" lon="2.14229">
        <ele>15.9</ele>
        <time>2023-06-28T10:33:00Z</time>
      </trkpt>
      <trkpt lat="49.94722" lon="2.14229">
        <ele>15.9</ele>
        <time>2023-06-28T10:33:01Z</time>
      </trkpt>
      <trkpt lat="49.94722" lon="2.14229">
        <ele>15.9</ele>
        <time>2023-06-28T10:33:02Z</time>
      </trkpt>
      <trkpt lat="49.94722" lon="2.14229">
        <ele>15.9</ele>
        <time>2023-06-28T10:33:03Z</time>
      </trkpt>
      <trkpt lat="49.94722" lon="2.14229">
        <ele>15.9</ele>
        <time>2023-06-28T10:33:04Z</time>
      </trkpt>
      <trkpt lat="49.94722" lon="2.14229">
        <ele>15.9</ele>
        <time>2023-06-28T10:33:05Z</time>
      </trkpt>
      <trkpt lat="49.94722" lon="2.14229">
        <ele>15.9</ele>
        <time>2023-06-28T10:33:06Z</time>
      </trkpt>
      <trkpt lat="49.94722" lon="2.14229">
        <ele>15.9</ele>
        <time>2023-06-28T10:33:07Z</time>
      </trkpt>
      <trkpt lat="49.94722" lon="2.14229">
        <ele>15.9</ele>
        <time>2023-06-28T10:33:08Z</time>
      </trkpt>
      <trkpt lat="49.94722" lon="2.14229">
        <ele>15.9</ele>
        <time>2023-06-28T10:33:09Z</time>
      </trkpt>
      <trkpt lat="49.94722" lon="2.14229">
        <ele>15.9</ele>
        <time>2023-06-28T10:33:10Z</time>
      </trkpt>
      <trkpt lat="49.94722" lon="2.14229">
        <ele>15.9</ele>
        <time>2023-06-28T10:33:11Z</time>
      </trkpt>
      <trkpt lat="49.94722" lon="2.14229">
        <ele>15.9</ele>
        <time>2023-06-28T10:33:12Z</time>
      </trkpt>
      <trkpt lat="49.94722" lon="2.14229">
        <ele>15.9</ele>
        <time>2023-06-28T10:33:13Z</time>
      </trkpt>
      <trkpt lat="49.94722" lon="2.14229">
        <ele>15.9</ele>
        <time>2023-06-28T10:33:14Z</time>
      </trkpt>
      <trkpt lat="49.94722" lon="2.14229">
        <ele>15.9</ele>
        <time>2023-06-28T10:33:15Z</time>
      </trkpt>
      <trkpt lat="49.94722" lon="2.14229">
        <ele>15.9</ele>
        <time>2023-06-28T10:33:16Z</time>
      </trkpt>
      <trkpt lat="49.94722" lon="2.14229">
        <ele>15.9</ele>
        <time>2023-06-28T10:33:17Z</time>
      </trkpt>
      <trkpt lat="49.94722" lon="2.14229">
        <ele>15.9</ele>
        <time>2023-06-28T10:33:18Z</time>
      </trkpt>
      <trkpt lat="49.94722" lon="2.14229">
        <ele>15.9</ele>
        <time>2023-06-28T10:33:19Z</time>
      </trkpt>
      <trkpt lat="49.94722" lon="2.14229">
        <ele>15.9</ele>
        <time>2023-06-28T10:33:20Z</time>
      </trkpt>
      <trkpt lat="49.94722" lon="2.14229">
        <ele>15.9</ele>
        <time>2023-06-28T10:33:21Z</time>
      </trkpt>
      <trkpt lat="49.94722" lon="2.14229">
        <ele>15.9</ele>
        <time>2023-06-28T10:33:22Z</time>
      </trkpt>
      <trkpt lat="49.94722" lon="2.14229">
        <ele>15.9</ele>
        <time>2023-06-28T10:33:23Z</time>
      </trkpt>
      <trkpt lat="49.94722" lon="2.14229">
        <ele>15.9</ele>
        <time>2023-06-28T10:33:24Z</time>
      </trkpt>
      <trkpt lat="49.94722" lon="2.14229">
        <ele>15.9</ele>
        <time>2023-06-28T10:33:25Z</time>
      </trkpt>
      <trkpt lat="49.94722" lon="2.14229">
        <ele>15.9</ele>
        <time>2023-06-28T10:33:26Z</time>
      </trkpt>
      <trkpt lat="49.94722" lon="2.14229">
        <ele>15.9</ele>
        <time>2023-06-28T10:33:27Z</time>
      </trkpt>
      <trkpt lat="49.94722" lon="2.14229">
        <ele>15.9</ele>
        <time>2023-06-28T10:33:28Z</time>
      </trkpt>
      <trkpt lat="49.94722" lon="2.14229">
        <ele>15.9</ele>
        <time>2023-06-28T10:33:29Z</time>
      </trkpt>
      <trkpt lat="49.94722" lon="2.14229">
        <ele>15.9</ele>
        <time>2023-06-28T10:33:30Z</time>
      </trkpt>
      <trkpt lat="49.94722" lon="2.14229">
        <ele>15.9</ele>
        <time>2023-06-28T10:33:31Z</time>
      </trkpt>
      <trkpt lat="49.94722" lon="2.14229">
        <ele>15.9</ele>
        <time>2023-06-28T10:33:32Z</time>
      </trkpt>
      <trkpt lat="49.94722" lon="2.14229">
        <ele>15.9</ele>
        <time>2023-06-28T10:33:33Z</time>
      </trkpt>
      <trkpt lat="49.94722" lon="2.14229">
        <ele>15.9</ele>
        <time>2023-06-28T10:33:34Z</time>
      </trkpt>
      <trkpt lat="49.94722" lon="2.14229">
        <ele>15.9</ele>
        <time>2023-06-28T10:33:35Z</time>
      </trkpt>
      <trkpt lat="49.94722" lon="2.14229">
        <ele>15.9</ele>
        <time>2023-06-28T10:33:36Z</time>
      </trkpt>
      <trkpt lat="49.94722" lon="2.14229">
        <ele>15.9</ele>
        <time>2023-06-28T10:33:37Z</time>
      </trkpt>
      <trkpt lat="49.94722" lon="2.14229">
        <ele>15.9</ele>
        <time>2023-06-28T10:33:38Z</time>
      </trkpt>
      <trkpt lat="49.94722" lon="2.14229">
        <ele>15.9</ele>
        <time>2023-06-28T10:33:39Z</time>
      </trkpt>
      <trkpt lat="49.94722" lon="2.14229">
        <ele>15.9</ele>
        <time>2023-06-28T10:33:40Z</time>
      </trkpt>
      <trkpt lat="49.94722" lon="2.14229">
        <ele>15.9</ele>
        <time>2023-06-28T10:33:41Z</time>
      </trkpt>
      <trkpt lat="49.94722" lon="2.14229">
        <ele>15.9</ele>
        <time>2023-06-28T10:33:42Z</time>
      </trkpt>
      <trkpt lat="49.94722" lon="2.14229">
        <ele>15.9</ele>
        <time>2023-06-28T10:33:43Z</time>
      </trkpt>
      <trkpt lat="49.94722" lon="2.14229">
        <ele>15.9</ele>
        <time>2023-06-28T10:33:44Z</time>
      </trkpt>
      <trkpt lat="49.94722" lon="2.14229">
        <ele>15.9</ele>
        <time>2023-06-28T10:33:45Z</time>
      </trkpt>
      <trkpt lat="49.94722" lon="2.14229">
        <ele>15.9</ele>
        <time>2023-06-28T10:33:46Z</time>
      </trkpt>
      <trkpt lat="49.94722" lon="2.14229">
        <ele>15.9</ele>
        <time>2023-06-28T10:33:47Z</time>
      </trkpt>
      <trkpt lat="49.94722" lon="2.14229">
        <ele>15.9</ele>
        <time>2023-06-28T10:33:48Z</time>
      </trkpt>
      <trkpt lat="49.94722" lon="2.14229">
        <ele>15.9</ele>
        <time>2023-06-28T10:33:49Z</time>
      </trkpt>
      <trkpt lat="49.94722" lon="2.14229">
        <ele>15.9</ele>
        <time>2023-06-28T10:33:50Z</time>
      </trkpt>
      <trkpt lat="49.94722" lon="2.14229">
        <ele>15.9</ele>
        <time>2023-06-28T10:33:51Z</time>
      </trkpt>
      <trkpt lat="49.94722" lon="2.14229">
        <ele>15.9</ele>
        <time>2023-06-28T10:33:52Z</time>
      </trkpt>
      <trkpt lat="49.94722" lon="2.14229">
        <ele>15.9</ele>
        <time>2023-06-28T10:33:53Z</time>
      </trkpt>
      <trkpt lat="49.94722" lon="2.14229">
        <ele>15.9</ele>
        <time>2023-06-28T10:33:54Z</time>
      </trkpt>
      <trkpt lat="49.94722" lon="2.14229">
        <ele>15.9</ele>
        <time>2023-06-28T10:33:55Z</time>
      </trkpt>
      <trkpt lat="49.94722" lon="2.14229">
        <ele>15.9</ele>
        <time>2023-06-28T10:33:56Z</time>
      </trkpt>
      <trkpt lat="49.94722" lon="2.14229">
        <ele>15.9</ele>
        <time>2023-06-28T10:33:57Z</time>
      </trkpt>
      <trkpt lat="49.94722" lon="2.14229">
        <ele>15.9</ele>
        <time>2023-06-28T10:33:58Z</time>
      </trkpt>
      <trkpt lat="49.94722" lon="2.14229">
        <ele>15.9</ele>
        <time>2023-06-28T10:33:59Z</time>
      </trkpt>
      <trkpt lat="49.94722" lon="2.14229">
        <ele>15.9</ele>
        <time>2023-06-28T10:34:00Z</time>
      </trkpt>
      <trkpt lat="49.94722" lon="2.14229">
        <ele>15.9</ele>
        <time>2023-06-28T10:34:01Z</time>
      </trkpt>
      <trkpt lat="49.94722" lon="2.14229">
        <ele>15.9</ele>
        <time>2023-06-28T10:34:02Z</time>
      </trkpt>
      <trkpt lat="49.94722" lon="2.14229">
        <ele>15.9</ele>
        <time>2023-06-28T10:34:03Z</time>
      </trkpt>
      <trkpt lat="49.94722" lon="2.14229">
        <ele>15.9</ele>
        <time>2023-06-28T10:34:04Z</time>
      </trkpt>
      <trkpt lat="49.94722" lon="2.14229">
        <ele>15.9</ele>
        <time>2023-06-28T10:34:05Z</time>
      </trkpt>
      <trkpt lat="49.94722" lon="2.14229">
        <ele>15.9</ele>
        <time>2023-06-28T10:34:06Z</time>
      </trkpt>
      <trkpt lat="49.94722" lon="2.14229">
        <ele>15.9</ele>
        <time>2023-06-28T10:34:07Z</time>
      </trkpt>
      <trkpt lat="49.94722" lon="2.14229">
        <ele>15.9</ele>
        <time>2023-06-28T10:34:08Z</time>
      </trkpt>
      <trkpt lat="49.94722" lon="2.14229">
        <ele>15.9</ele>
        <time>2023-06-28T10:34:09Z</time>
      </trkpt>
      <trkpt lat="49.94722" lon="2.14229">
        <ele>15.9</ele>
        <time>2023-06-28T10:34:10Z</time>
      </trkpt>
      <trkpt lat="49.94722" lon="2.14229">
        <ele>15.9</ele>
        <time>2023-06-28T10:34:11Z</time>
      </trkpt>
      <trkpt lat="49.94722" lon="2.14229">
        <ele>15.9</ele>
        <time>2023-06-28T10:34:12Z</time>
      </trkpt>
      <trkpt lat="49.94722" lon="2.14229">
        <ele>15.9</ele>
        <time>2023-06-28T10:34:13Z</time>
      </trkpt>
      <trkpt lat="49.94722" lon="2.14229">
        <ele>15.9</ele>
        <time>2023-06-28T10:34:14Z</time>
      </trkpt>
      <trkpt lat="49.94722" lon="2.14229">
        <ele>15.9</ele>
        <time>2023-06-28T10:34:15Z</time>
      </trkpt>
      <trkpt lat="49.94722" lon="2.14229">
        <ele>15.9</ele>
        <time>2023-06-28T10:34:16Z</time>
      </trkpt>
      <trkpt lat="49.94722" lon="2.14229">
        <ele>15.9</ele>
        <time>2023-06-28T10:34:17Z</time>
      </trkpt>
      <trkpt lat="49.94722" lon="2.14229">
        <ele>15.9</ele>
        <time>2023-06-28T10:34:18Z</time>
      </trkpt>
      <trkpt lat="49.94722" lon="2.14229">
        <ele>15.9</ele>
        <time>2023-06-28T10:34:19Z</time>
      </trkpt>
      <trkpt lat="49.94722" lon="2.14229">
        <ele>15.9</ele>
        <time>2023-06-28T10:34:20Z</time>
      </trkpt>
      <trkpt lat="49.94722" lon="2.14229">
        <ele>15.9</ele>
        <time>2023-06-28T10:34:21Z</time>
      </trkpt>
      <trkpt lat="49.94722" lon="2.14229">
        <ele>15.9</ele>
        <time>2023-06-28T10:34:22Z</time>
      </trkpt>
      <trkpt lat="49.94722" lon="2.14229">
        <ele>15.9</ele>
        <time>2023-06-28T10:34:23Z</time>
      </trkpt>
      <trkpt lat="49.94722" lon="2.14229">
        <ele>15.9</ele>
        <time>2023-06-28T10:34:24Z</time>
      </trkpt>
      <trkpt lat="49.94722" lon="2.14229">
        <ele>15.9</ele>
        <time>2023-06-28T10:34:25Z</time>
      </trkpt>
      <trkpt lat="49.94722" lon="2.14229">
        <ele>15.9</ele>
        <time>2023-06-28T10:34:26Z</time>
      </trkpt>
      <trkpt lat="49.94722" lon="2.14229">
        <ele>15.9</ele>
        <time>2023-06-28T10:34:27Z</time>
      </trkpt>
      <trkpt lat="49.94722" lon="2.14229">
        <ele>15.9</ele>
        <time>2023-06-28T10:34:28Z</time>
      </trkpt>
      <trkpt lat="49.94722" lon="2.14229">
        <ele>15.9</ele>
        <time>2023-06-28T10:34:29Z</time>
      </trkpt>
      <trkpt lat="49.94722" lon="2.14229">
        <ele>15.9</ele>
        <time>2023-06-28T10:34:30Z</time>
      </trkpt>
      <trkpt lat="49.94722" lon="2.14229">
        <ele>15.9</ele>
        <time>2023-06-28T10:34:31Z</time>
      </trkpt>
      <trkpt lat="49.94722" lon="2.14229">
        <ele>15.9</ele>
        <time>2023-06-28T10:34:32Z</time>
      </trkpt>
      <trkpt lat="49.94722" lon="2.14229">
        <ele>15.9</ele>
        <time>2023-06-28T10:34:33Z</time>
      </trkpt>
      <trkpt lat="49.94722" lon="2.14229">
        <ele>15.9</ele>
        <time>2023-06-28T10:34:34Z</time>
      </trkpt>
      <trkpt lat="49.94722" lon="2.14229">
        <ele>15.9</ele>
        <time>2023-06-28T10:34:35Z</time>
      </trkpt>
      <trkpt lat="49.94722" lon="2.14229">
        <ele>15.9</ele>
        <time>2023-06-28T10:34:36Z</time>
      </trkpt>
      <trkpt lat="49.94722" lon="2.14229">
        <ele>15.9</ele>
        <time>2023-06-28T10:34:37Z</time>
      </trkpt>
      <trkpt lat="49.94722" lon="2.14229">
        <ele>15.9</ele>
        <time>2023-06-28T10:34:38Z</time>
      </trkpt>
      <trkpt lat="49.94722" lon="2.14229">
        <ele>15.9</ele>
        <time>2023-06-28T10:34:39Z</time>
      </trkpt>
      <trkpt lat="49.94722" lon="2.14229">
        <ele>15.9</ele>
        <time>2023-06-28T10:34:40Z</time>
      </trkpt>
      <trkpt lat="49.94722" lon="2.14229">
        <ele>15.9</ele>
        <time>2023-06-28T10:34:41Z</time>
      </trkpt>
      <trkpt lat="49.94722" lon="2.14229">
        <ele>15.9</ele>
        <time>2023-06-28T10:34:42Z</time>
      </trkpt>
      <trkpt lat="49.94722" lon="2.14229">
        <ele>15.9</ele>
        <time>2023-06-28T10:34:43Z</time>
      </trkpt>
      <trkpt lat="49.94722" lon="2.14229">
        <ele>15.9</ele>
        <time>2023-06-28T10:34:44Z</time>
      </trkpt>
      <trkpt lat="49.94722" lon="2.14229">
        <ele>15.9</ele>
        <time>2023-06-28T10:34:45Z</time>
      </trkpt>
      <trkpt lat="49.94722" lon="2.14229">
        <ele>15.9</ele>
        <time>2023-06-28T10:34:46Z</time>
      </trkpt>
      <trkpt lat="49.94722" lon="2.14229">
        <ele>15.9</ele>
        <time>2023-06-28T10:34:47Z</time>
      </trkpt>
      <trkpt lat="49.94722" lon="2.14229">
        <ele>15.9</ele>
        <time>2023-06-28T10:34:48Z</time>
      </trkpt>
      <trkpt lat="49.94722" lon="2.14229">
        <ele>15.9</ele>
        <time>2023-06-28T10:34:49Z</time>
      </trkpt>
      <trkpt lat="49.94722" lon="2.14229">
        <ele>15.9</ele>
        <time>2023-06-28T10:34:50Z</time>
      </trkpt>
      <trkpt lat="49.94722" lon="2.14229">
        <ele>15.9</ele>
        <time>2023-06-28T10:34:51Z</time>
      </trkpt>
      <trkpt lat="49.94722" lon="2.14229">
        <ele>15.9</ele>
        <time>2023-06-28T10:34:52Z</time>
      </trkpt>
      <trkpt lat="49.94722" lon="2.14229">
        <ele>15.9</ele>
        <time>2023-06-28T10:34:53Z</time>
      </trkpt>
      <trkpt lat="49.94722" lon="2.14229">
        <ele>15.9</ele>
        <time>2023-06-28T10:34:54Z</time>
      </trkpt>
      <trkpt lat="49.94722" lon="2.14229">
        <ele>15.9</ele>
        <time>2023-06-28T10:34:55Z</time>
      </trkpt>
      <trkpt lat="49.94722" lon="2.14229">
        <ele>15.9</ele>
        <time>2023-06-28T10:34:56Z</time>
      </trkpt>
      <trkpt lat="49.94722" lon="2.14229">
        <ele>15.9</ele>
        <time>2023-06-28T10:34:57Z</time>
      </trkpt>
      <trkpt lat="49.94722" lon="2.14229">
        <ele>15.9</ele>
        <time>2023-06-28T10:34:58Z</time>
      </trkpt>
      <trkpt lat="49.94722" lon="2.14229">
        <ele>15.9</ele>
        <time>2023-06-28T10:34:59Z</time>
      </trkpt>
      <trkpt lat="49.94722" lon="2.14229">
        <ele>15.9</ele>
        <time>2023-06-28T10:35:00Z</time>
      </trkpt>
      <trkpt lat="49.94722" lon="2.14229">
        <ele>15.9</ele>
        <time>2023-06-28T10:35:01Z</time>
      </trkpt>
      <trkpt lat="49.94722" lon="2.14229">
        <ele>15.9</ele>
        <time>2023-06-28T10:35:02Z</time>
      </trkpt>
      <trkpt lat="49.94722" lon="2.14229">
        <ele>15.9</ele>
        <time>2023-06-28T10:35:03Z</time>
      </trkpt>
      <trkpt lat="49.94722" lon="2.14229">
        <ele>15.9</ele>
        <time>2023-06-28T10:35:04Z</time>
      </trkpt>
      <trkpt lat="49.94722" lon="2.14229">
        <ele>15.9</ele>
        <time>2023-06-28T10:35:05Z</time>
      </trkpt>
      <trkpt lat="49.94722" lon="2.14229">
        <ele>15.9</ele>
        <time>2023-06-28T10:35:06Z</time>
      </trkpt>
      <trkpt lat="49.94722" lon="2.14229">
        <ele>15.9</ele>
        <time>2023-06-28T10:35:07Z</time>
      </trkpt>
      <trkpt lat="49.94722" lon="2.14229">
        <ele>15.9</ele>
        <time>2023-06-28T10:35:08Z</time>
      </trkpt>
      <trkpt lat="49.94722" lon="2.14229">
        <ele>15.9</ele>
        <time>2023-06-28T10:35:09Z</time>
      </trkpt>
      <trkpt lat="49.94722" lon="2.14229">
        <ele>15.9</ele>
        <time>2023-06-28T10:35:10Z</time>
      </trkpt>
      <trkpt lat="49.94722" lon="2.14229">
        <ele>15.9</ele>
        <time>2023-06-28T10:35:11Z</time>
      </trkpt>
      <trkpt lat="49.94722" lon="2.14229">
        <ele>15.9</ele>
        <time>2023-06-28T10:35:12Z</time>
      </trkpt>
      <trkpt lat="49.94722" lon="2.14229">
        <ele>15.9</ele>
        <time>2023-06-28T10:35:13Z</time>
      </trkpt>
      <trkpt lat="49.94722" lon="2.14229">
        <ele>15.9</ele>
        <time>2023-06-28T10:35:14Z</time>
      </trkpt>
      <trkpt lat="49.94722" lon="2.14229">
        <ele>15.9</ele>
        <time>2023-06-28T10:35:15Z</time>
      </trkpt>
      <trkpt lat="49.94722" lon="2.14229">
        <ele>15.9</ele>
        <time>2023-06-28T10:35:16Z</time>
      </trkpt>
      <trkpt lat="49.94722" lon="2.14229">
        <ele>15.9</ele>
        <time>2023-06-28T10:35:17Z</time>
      </trkpt>
      <trkpt lat="49.94722" lon="2.14229">
        <ele>15.9</ele>
        <time>2023-06-28T10:35:18Z</time>
      </trkpt>
      <trkpt lat="49.94722" lon="2.14229">
        <ele>15.9</ele>
        <time>2023-06-28T10:35:19Z</time>
      </trkpt>
      <trkpt lat="49.94722" lon="2.14229">
        <ele>15.9</ele>
        <time>2023-06-28T10:35:20Z</time>
      </trkpt>
      <trkpt lat="49.94722" lon="2.14229">
        <ele>15.9</ele>
        <time>2023-06-28T10:35:21Z</time>
      </trkpt>
      <trkpt lat="49.94722" lon="2.14229">
        <ele>15.9</ele>
        <time>2023-06-28T10:35:22Z</time>
      </trkpt>
      <trkpt lat="49.94722" lon="2.14229">
        <ele>15.9</ele>
        <time>2023-06-28T10:35:23Z</time>
      </trkpt>
      <trkpt lat="49.94722" lon="2.14229">
        <ele>15.9</ele>
        <time>2023-06-28T10:35:24Z</time>
      </trkpt>
      <trkpt lat="49.94722" lon="2.14229">
        <ele>15.9</ele>
        <time>2023-06-28T10:35:25Z</time>
      </trkpt>
      <trkpt lat="49.94722" lon="2.14229">
        <ele>15.9</ele>
        <time>2023-06-28T10:35:26Z</time>
      </trkpt>
      <trkpt lat="49.94722" lon="2.14229">
        <ele>15.9</ele>
        <time>2023-06-28T10:35:27Z</time>
      </trkpt>
      <trkpt lat="49.94722" lon="2.14229">
        <ele>15.9</ele>
        <time>2023-06-28T10:35:28Z</time>
      </trkpt>
      <trkpt lat="49.94722" lon="2.14229">
        <ele>15.9</ele>
        <time>2023-06-28T10:35:29Z</time>
      </trkpt>
      <trkpt lat="49.94722" lon="2.14229">
        <ele>15.9</ele>
        <time>2023-06-28T10:35:30Z</time>
      </trkpt>
      <trkpt lat="49.94722" lon="2.14229">
        <ele>15.9</ele>
        <time>2023-06-28T10:35:31Z</time>
      </trkpt>
      <trkpt lat="49.94722" lon="2.14229">
        <ele>15.9</ele>
        <time>2023-06-28T10:35:32Z</time>
      </trkpt>
      <trkpt lat="49.94722" lon="2.14229">
        <ele>15.9</ele>
        <time>2023-06-28T10:35:33Z</time>
      </trkpt>
      <trkpt lat="49.94722" lon="2.14229">
        <ele>15.9</ele>
        <time>2023-06-28T10:35:34Z</time>
      </trkpt>
      <trkpt lat="49.94722" lon="2.14229">
        <ele>15.9</ele>
        <time>2023-06-28T10:35:35Z</time>
      </trkpt>
      <trkpt lat="49.94722" lon="2.14229">
        <ele>15.9</ele>
        <time>2023-06-28T10:35:36Z</time>
      </trkpt>
      <trkpt lat="49.94722" lon="2.14229">
        <ele>15.9</ele>
        <time>2023-06-28T10:35:37Z</time>
      </trkpt>
      <trkpt lat="49.94722" lon="2.14229">
        <ele>15.9</ele>
        <time>2023-06-28T10:35:38Z</time>
      </trkpt>
      <trkpt lat="49.94722" lon="2.14229">
        <ele>15.9</ele>
        <time>2023-06-28T10:35:39Z</time>
      </trkpt>
      <trkpt lat="49.94722" lon="2.14229">
        <ele>15.9</ele>
        <time>2023-06-28T10:35:40Z</time>
      </trkpt>
      <trkpt lat="49.94722" lon="2.14229">
        <ele>15.9</ele>
        <time>2023-06-28T10:35:41Z</time>
      </trkpt>
      <trkpt lat="49.94722" lon="2.14229">
        <ele>15.9</ele>
        <time>2023-06-28T10:35:42Z</time>
      </trkpt>
      <trkpt lat="49.94722" lon="2.14229">
        <ele>15.9</ele>
        <time>2023-06-28T10:35:43Z</time>
      </trkpt>
      <trkpt lat="49.94722" lon="2.14229">
        <ele>15.9</ele>
        <time>2023-06-28T10:35:44Z</time>
      </trkpt>
      <trkpt lat="49.94722" lon="2.14229">
        <ele>15.9</ele>
        <time>2023-06-28T10:35:45Z</time>
      </trkpt>
      <trkpt lat="49.94722" lon="2.14229">
        <ele>15.9</ele>
        <time>2023-06-28T10:35:46Z</time>
      </trkpt>
      <trkpt lat="49.94722" lon="2.14229">
        <ele>15.9</ele>
        <time>2023-06-28T10:35:47Z</time>
      </trkpt>
      <trkpt lat="49.94722" lon="2.14229">
        <ele>15.9</ele>
        <time>2023-06-28T10:35:48Z</time>
      </trkpt>
      <trkpt lat="49.94722" lon="2.14229">
        <ele>15.9</ele>
        <time>2023-06-28T10:35:49Z</time>
      </trkpt>
      <trkpt lat="49.94722" lon="2.14229">
        <ele>15.9</ele>
        <time>2023-06-28T10:35:50Z</time>
      </trkpt>
      <trkpt lat="49.94722" lon="2.14229">
        <ele>15.9</ele>
        <time>2023-06-28T10:35:51Z</time>
      </trkpt>
      <trkpt lat="49.94722" lon="2.14229">
        <ele>15.9</ele>
        <time>2023-06-28T10:35:52Z</time>
      </trkpt>
      <trkpt lat="49.94722" lon="2.14229">
        <ele>15.9</ele>
        <time>2023-06-28T10:35:53Z</time>
      </trkpt>
      <trkpt lat="49.94722" lon="2.14229">
        <ele>15.9</ele>
        <time>2023-06-28T10:35:54Z</time>
      </trkpt>
      <trkpt lat="49.94722" lon="2.14229">
        <ele>15.9</ele>
        <time>2023-06-28T10:35:55Z</time>
      </trkpt>
      <trkpt lat="49.94722" lon="2.14229">
        <ele>15.9</ele>
        <time>2023-06-28T10:35:56Z</time>
      </trkpt>
      <trkpt lat="49.94722" lon="2.14229">
        <ele>15.9</ele>
        <time>2023-06-28T10:35:57Z</time>
      </trkpt>
      <trkpt lat="49.94722" lon="2.14229">
        <ele>15.9</ele>
        <time>2023-06-28T10:35:58Z</time>
      </trkpt>
      <trkpt lat="49.94722" lon="2.14229">
        <ele>15.9</ele>
        <time>2023-06-28T10:35:59Z</time>
      </trkpt>
      <trkpt lat="49.94722" lon="2.14229">
        <ele>15.9</ele>
        <time>2023-06-28T10:36:00Z</time>
      </trkpt>
      <trkpt lat="49.94722" lon="2.14229">
        <ele>15.9</ele>
        <time>2023-06-28T10:36:01Z</time>
      </trkpt>
      <trkpt lat="49.94722" lon="2.14229">
        <ele>15.9</ele>
        <time>2023-06-28T10:36:02Z</time>
      </trkpt>
      <trkpt lat="49.94722" lon="2.14229">
        <ele>15.9</ele>
        <time>2023-06-28T10:36:03Z</time>
      </trkpt>
      <trkpt lat="49.94722" lon="2.14229">
        <ele>15.9</ele>
        <time>2023-06-28T10:36:04Z</time>
      </trkpt>
      <trkpt lat="49.94722" lon="2.14229">
        <ele>15.9</ele>
        <time>2023-06-28T10:36:05Z</time>
      </trkpt>
      <trkpt lat="49.94722" lon="2.14229">
        <ele>15.9</ele>
        <time>2023-06-28T10:36:06Z</time>
      </trkpt>
      <trkpt lat="49.94722" lon="2.14229">
        <ele>15.9</ele>
        <time>2023-06-28T10:36:07Z</time>
      </trkpt>
      <trkpt lat="49.94722" lon="2.14229">
        <ele>15.9</ele>
        <time>2023-06-28T10:36:08Z</time>
      </trkpt>
      <trkpt lat="49.94722" lon="2.14229">
        <ele>15.9</ele>
        <time>2023-06-28T10:36:09Z</time>
      </trkpt>
      <trkpt lat="49.94722" lon="2.14229">
        <ele>15.9</ele>
        <time>2023-06-28T10:36:10Z</time>
      </trkpt>
      <trkpt lat="49.94722" lon="2.14229">
        <ele>15.9</ele>
        <time>2023-06-28T10:36:11Z</time>
      </trkpt>
      <trkpt lat="49.94722" lon="2.14229">
        <ele>15.9</ele>
        <time>2023-06-28T10:36:12Z</time>
      </trkpt>
      <trkpt lat="49.94722" lon="2.14229">
        <ele>15.9</ele>
        <time>2023-06-28T10:36:13Z</time>
      </trkpt>
      <trkpt lat="49.94722" lon="2.14229">
        <ele>15.9</ele>
        <time>2023-06-28T10:36:14Z</time>
      </trkpt>
      <trkpt lat="49.94722" lon="2.14229">
        <ele>15.9</ele>
        <time>2023-06-28T10:36:15Z</time>
      </trkpt>
      <trkpt lat="49.94722" lon="2.14229">
        <ele>15.9</ele>
        <time>2023-06-28T10:36:16Z</time>
      </trkpt>
      <trkpt lat="49.94722" lon="2.14229">
        <ele>15.9</ele>
        <time>2023-06-28T10:36:17Z</time>
      </trkpt>
      <trkpt lat="49.94722" lon="2.14229">
        <ele>15.9</ele>
        <time>2023-06-28T10:36:18Z</time>
      </trkpt>
      <trkpt lat="49.94722" lon="2.14229">
        <ele>15.9</ele>
        <time>2023-06-28T10:36:19Z</time>
      </trkpt>
      <trkpt lat="49.94722" lon="2.14229">
        <ele>15.9</ele>
        <time>2023-06-28T10:36:20Z</time>
      </trkpt>
      <trkpt lat="49.94722" lon="2.14229">
        <ele>15.9</ele>
        <time>2023-06-28T10:36:21Z</time>
      </trkpt>
      <trkpt lat="49.94722" lon="2.14229">
        <ele>15.9</ele>
        <time>2023-06-28T10:36:22Z</time>
      </trkpt>
      <trkpt lat="49.94722" lon="2.14229">
        <ele>15.9</ele>
        <time>2023-06-28T10:36:23Z</time>
      </trkpt>
      <trkpt lat="49.94722" lon="2.14229">
        <ele>15.9</ele>
        <time>2023-06-28T10:36:24Z</time>
      </trkpt>
      <trkpt lat="49.94722" lon="2.14229">
        <ele>15.9</ele>
        <time>2023-06-28T10:36:25Z</time>
      </trkpt>
      <trkpt lat="49.94722" lon="2.14229">
        <ele>15.9</ele>
        <time>2023-06-28T10:36:26Z</time>
      </trkpt>
      <trkpt lat="49.94722" lon="2.14229">
        <ele>15.9</ele>
        <time>2023-06-28T10:36:27Z</time>
      </trkpt>
      <trkpt lat="49.94722" lon="2.14229">
        <ele>15.9</ele>
        <time>2023-06-28T10:36:28Z</time>
      </trkpt>
      <trkpt lat="49.94722" lon="2.14229">
        <ele>15.9</ele>
        <time>2023-06-28T10:36:29Z</time>
      </trkpt>
      <trkpt lat="49.94722" lon="2.14229">
        <ele>15.9</ele>
        <time>2023-06-28T10:36:30Z</time>
      </trkpt>
      <trkpt lat="49.94722" lon="2.14229">
        <ele>15.9</ele>
        <time>2023-06-28T10:36:31Z</time>
      </trkpt>
      <trkpt lat="49.94722" lon="2.14229">
        <ele>15.9</ele>
        <time>2023-06-28T10:36:32Z</time>
      </trkpt>
      <trkpt lat="49.94722" lon="2.14229">
        <ele>15.9</ele>
        <time>2023-06-28T10:36:33Z</time>
      </trkpt>
      <trkpt lat="49.94722" lon="2.14229">
        <ele>15.9</ele>
        <time>2023-06-28T10:36:34Z</time>
      </trkpt>
      <trkpt lat="49.94722" lon="2.14229">
        <ele>15.9</ele>
        <time>2023-06-28T10:36:35Z</time>
      </trkpt>
      <trkpt lat="49.94722" lon="2.14229">
        <ele>15.9</ele>
        <time>2023-06-28T10:36:36Z</time>
      </trkpt>
      <trkpt lat="49.94722" lon="2.14228">
        <ele>15.9</ele>
        <time>2023-06-28T10:36:37Z</time>
      </trkpt>
      <trkpt lat="49.94722" lon="2.14228">
        <ele>15.9</ele>
        <time>2023-06-28T10:36:38Z</time>
      </trkpt>
      <trkpt lat="49.94722" lon="2.14228">
        <ele>15.9</ele>
        <time>2023-06-28T10:36:39Z</time>
      </trkpt>
      <trkpt lat="49.94722" lon="2.14228">
        <ele>15.9</ele>
        <time>2023-06-28T10:36:40Z</time>
      </trkpt>
      <trkpt lat="49.94722" lon="2.14228">
        <ele>15.9</ele>
        <time>2023-06-28T10:36:41Z</time>
      </trkpt>
      <trkpt lat="49.94722" lon="2.14228">
        <ele>15.9</ele>
        <time>2023-06-28T10:36:42Z</time>
      </trkpt>
      <trkpt lat="49.94722" lon="2.14228">
        <ele>15.9</ele>
        <time>2023-06-28T10:36:43Z</time>
      </trkpt>
      <trkpt lat="49.94722" lon="2.14228">
        <ele>15.9</ele>
        <time>2023-06-28T10:36:44Z</time>
      </trkpt>
      <trkpt lat="49.94722" lon="2.14228">
        <ele>15.9</ele>
        <time>2023-06-28T10:36:45Z</time>
      </trkpt>
      <trkpt lat="49.94722" lon="2.14228">
        <ele>15.9</ele>
        <time>2023-06-28T10:36:46Z</time>
      </trkpt>
      <trkpt lat="49.94722" lon="2.14228">
        <ele>15.9</ele>
        <time>2023-06-28T10:36:47Z</time>
      </trkpt>
      <trkpt lat="49.94722" lon="2.14229">
        <ele>15.9</ele>
        <time>2023-06-28T10:36:48Z</time>
      </trkpt>
      <trkpt lat="49.94722" lon="2.14229">
        <ele>15.9</ele>
        <time>2023-06-28T10:36:49Z</time>
      </trkpt>
      <trkpt lat="49.94722" lon="2.14229">
        <ele>15.9</ele>
        <time>2023-06-28T10:36:50Z</time>
      </trkpt>
      <trkpt lat="49.94722" lon="2.14229">
        <ele>15.9</ele>
        <time>2023-06-28T10:36:51Z</time>
      </trkpt>
      <trkpt lat="49.94722" lon="2.14229">
        <ele>15.9</ele>
        <time>2023-06-28T10:36:52Z</time>
      </trkpt>
      <trkpt lat="49.94722" lon="2.14229">
        <ele>15.9</ele>
        <time>2023-06-28T10:36:53Z</time>
      </trkpt>
      <trkpt lat="49.94722" lon="2.14229">
        <ele>15.9</ele>
        <time>2023-06-28T10:36:54Z</time>
      </trkpt>
      <trkpt lat="49.94722" lon="2.14229">
        <ele>15.9</ele>
        <time>2023-06-28T10:36:55Z</time>
      </trkpt>
      <trkpt lat="49.94722" lon="2.14229">
        <ele>15.9</ele>
        <time>2023-06-28T10:36:56Z</time>
      </trkpt>
      <trkpt lat="49.94722" lon="2.14229">
        <ele>15.9</ele>
        <time>2023-06-28T10:36:57Z</time>
      </trkpt>
      <trkpt lat="49.94722" lon="2.14229">
        <ele>15.9</ele>
        <time>2023-06-28T10:36:58Z</time>
      </trkpt>
      <trkpt lat="49.94722" lon="2.14229">
        <ele>15.9</ele>
        <time>2023-06-28T10:36:59Z</time>
      </trkpt>
      <trkpt lat="49.94722" lon="2.14229">
        <ele>15.9</ele>
        <time>2023-06-28T10:37:00Z</time>
      </trkpt>
      <trkpt lat="49.94722" lon="2.14229">
        <ele>15.9</ele>
        <time>2023-06-28T10:37:01Z</time>
      </trkpt>
      <trkpt lat="49.94722" lon="2.14228">
        <ele>15.9</ele>
        <time>2023-06-28T10:37:02Z</time>
      </trkpt>
      <trkpt lat="49.94722" lon="2.14228">
        <ele>15.9</ele>
        <time>2023-06-28T10:37:03Z</time>
      </trkpt>
      <trkpt lat="49.94722" lon="2.14228">
        <ele>15.9</ele>
        <time>2023-06-28T10:37:04Z</time>
      </trkpt>
      <trkpt lat="49.94722" lon="2.14228">
        <ele>15.9</ele>
        <time>2023-06-28T10:37:05Z</time>
      </trkpt>
      <trkpt lat="49.94722" lon="2.14228">
        <ele>15.9</ele>
        <time>2023-06-28T10:37:06Z</time>
      </trkpt>
      <trkpt lat="49.94722" lon="2.14228">
        <ele>15.9</ele>
        <time>2023-06-28T10:37:07Z</time>
      </trkpt>
      <trkpt lat="49.94722" lon="2.14228">
        <ele>15.9</ele>
        <time>2023-06-28T10:37:08Z</time>
      </trkpt>
      <trkpt lat="49.94722" lon="2.14228">
        <ele>15.9</ele>
        <time>2023-06-28T10:37:09Z</time>
      </trkpt>
      <trkpt lat="49.94722" lon="2.14227">
        <ele>15.9</ele>
        <time>2023-06-28T10:37:10Z</time>
      </trkpt>
      <trkpt lat="49.94721" lon="2.14227">
        <ele>15.9</ele>
        <time>2023-06-28T10:37:11Z</time>
      </trkpt>
      <trkpt lat="49.94721" lon="2.14227">
        <ele>15.9</ele>
        <time>2023-06-28T10:37:12Z</time>
      </trkpt>
      <trkpt lat="49.94721" lon="2.14227">
        <ele>15.9</ele>
        <time>2023-06-28T10:37:13Z</time>
      </trkpt>
      <trkpt lat="49.94721" lon="2.14227">
        <ele>15.9</ele>
        <time>2023-06-28T10:37:14Z</time>
      </trkpt>
      <trkpt lat="49.94721" lon="2.14227">
        <ele>15.9</ele>
        <time>2023-06-28T10:37:15Z</time>
      </trkpt>
      <trkpt lat="49.94721" lon="2.14227">
        <ele>15.9</ele>
        <time>2023-06-28T10:37:16Z</time>
      </trkpt>
      <trkpt lat="49.94721" lon="2.14227">
        <ele>15.9</ele>
        <time>2023-06-28T10:37:17Z</time>
      </trkpt>
      <trkpt lat="49.94721" lon="2.14227">
        <ele>15.9</ele>
        <time>2023-06-28T10:37:18Z</time>
      </trkpt>
      <trkpt lat="49.94721" lon="2.14227">
        <ele>15.9</ele>
        <time>2023-06-28T10:37:19Z</time>
      </trkpt>
      <trkpt lat="49.94721" lon="2.14227">
        <ele>15.9</ele>
        <time>2023-06-28T10:37:20Z</time>
      </trkpt>
      <trkpt lat="49.94721" lon="2.14227">
        <ele>15.9</ele>
        <time>2023-06-28T10:37:21Z</time>
      </trkpt>
      <trkpt lat="49.94721" lon="2.14226">
        <ele>15.9</ele>
        <time>2023-06-28T10:37:22Z</time>
      </trkpt>
      <trkpt lat="49.94721" lon="2.14226">
        <ele>15.9</ele>
        <time>2023-06-28T10:37:23Z</time>
      </trkpt>
      <trkpt lat="49.94721" lon="2.14225">
        <ele>15.9</ele>
        <time>2023-06-28T10:37:24Z</time>
      </trkpt>
      <trkpt lat="49.9472" lon="2.14225">
        <ele>15.9</ele>
        <time>2023-06-28T10:37:25Z</time>
      </trkpt>
      <trkpt lat="49.9472" lon="2.14225">
        <ele>15.9</ele>
        <time>2023-06-28T10:37:26Z</time>
      </trkpt>
      <trkpt lat="49.9472" lon="2.14225">
        <ele>15.9</ele>
        <time>2023-06-28T10:37:27Z</time>
      </trkpt>
      <trkpt lat="49.9472" lon="2.14225">
        <ele>15.9</ele>
        <time>2023-06-28T10:37:28Z</time>
      </trkpt>
      <trkpt lat="49.9472" lon="2.14225">
        <ele>15.9</ele>
        <time>2023-06-28T10:37:29Z</time>
      </trkpt>
      <trkpt lat="49.9472" lon="2.14225">
        <ele>15.9</ele>
        <time>2023-06-28T10:37:30Z</time>
      </trkpt>
      <trkpt lat="49.9472" lon="2.14225">
        <ele>15.9</ele>
        <time>2023-06-28T10:37:31Z</time>
      </trkpt>
      <trkpt lat="49.9472" lon="2.14225">
        <ele>15.9</ele>
        <time>2023-06-28T10:37:32Z</time>
      </trkpt>
      <trkpt lat="49.9472" lon="2.14225">
        <ele>15.9</ele>
        <time>2023-06-28T10:37:33Z</time>
      </trkpt>
      <trkpt lat="49.9472" lon="2.14225">
        <ele>15.9</ele>
        <time>2023-06-28T10:37:34Z</time>
      </trkpt>
      <trkpt lat="49.9472" lon="2.14225">
        <ele>15.9</ele>
        <time>2023-06-28T10:37:35Z</time>
      </trkpt>
      <trkpt lat="49.9472" lon="2.14225">
        <ele>15.9</ele>
        <time>2023-06-28T10:37:36Z</time>
      </trkpt>
      <trkpt lat="49.9472" lon="2.14225">
        <ele>15.9</ele>
        <time>2023-06-28T10:37:37Z</time>
      </trkpt>
      <trkpt lat="49.9472" lon="2.14225">
        <ele>15.9</ele>
        <time>2023-06-28T10:37:38Z</time>
      </trkpt>
      <trkpt lat="49.9472" lon="2.14225">
        <ele>15.9</ele>
        <time>2023-06-28T10:37:39Z</time>
      </trkpt>
      <trkpt lat="49.9472" lon="2.14225">
        <ele>15.9</ele>
        <time>2023-06-28T10:37:40Z</time>
      </trkpt>
      <trkpt lat="49.9472" lon="2.14225">
        <ele>15.9</ele>
        <time>2023-06-28T10:37:41Z</time>
      </trkpt>
      <trkpt lat="49.9472" lon="2.14225">
        <ele>15.9</ele>
        <time>2023-06-28T10:37:42Z</time>
      </trkpt>
      <trkpt lat="49.9472" lon="2.14225">
        <ele>15.9</ele>
        <time>2023-06-28T10:37:43Z</time>
      </trkpt>
      <trkpt lat="49.9472" lon="2.14225">
        <ele>15.9</ele>
        <time>2023-06-28T10:37:44Z</time>
      </trkpt>
      <trkpt lat="49.9472" lon="2.14225">
        <ele>15.9</ele>
        <time>2023-06-28T10:37:45Z</time>
      </trkpt>
      <trkpt lat="49.9472" lon="2.14225">
        <ele>15.9</ele>
        <time>2023-06-28T10:37:46Z</time>
      </trkpt>
      <trkpt lat="49.9472" lon="2.14225">
        <ele>15.9</ele>
        <time>2023-06-28T10:37:47Z</time>
      </trkpt>
      <trkpt lat="49.9472" lon="2.14225">
        <ele>15.9</ele>
        <time>2023-06-28T10:37:48Z</time>
      </trkpt>
      <trkpt lat="49.9472" lon="2.14225">
        <ele>15.9</ele>
        <time>2023-06-28T10:37:49Z</time>
      </trkpt>
      <trkpt lat="49.9472" lon="2.14225">
        <ele>15.9</ele>
        <time>2023-06-28T10:37:50Z</time>
      </trkpt>
      <trkpt lat="49.9472" lon="2.14225">
        <ele>15.9</ele>
        <time>2023-06-28T10:37:51Z</time>
      </trkpt>
      <trkpt lat="49.9472" lon="2.14225">
        <ele>15.9</ele>
        <time>2023-06-28T10:37:52Z</time>
      </trkpt>
      <trkpt lat="49.9472" lon="2.14225">
        <ele>15.9</ele>
        <time>2023-06-28T10:37:53Z</time>
      </trkpt>
      <trkpt lat="49.9472" lon="2.14225">
        <ele>15.9</ele>
        <time>2023-06-28T10:37:54Z</time>
      </trkpt>
      <trkpt lat="49.9472" lon="2.14225">
        <ele>15.9</ele>
        <time>2023-06-28T10:37:55Z</time>
      </trkpt>
      <trkpt lat="49.9472" lon="2.14224">
        <ele>15.9</ele>
        <time>2023-06-28T10:37:56Z</time>
      </trkpt>
      <trkpt lat="49.9472" lon="2.14223">
        <ele>15.9</ele>
        <time>2023-06-28T10:37:57Z</time>
      </trkpt>
      <trkpt lat="49.9472" lon="2.14223">
        <ele>15.9</ele>
        <time>2023-06-28T10:37:58Z</time>
      </trkpt>
      <trkpt lat="49.9472" lon="2.14223">
        <ele>15.9</ele>
        <time>2023-06-28T10:37:59Z</time>
      </trkpt>
      <trkpt lat="49.9472" lon="2.14222">
        <ele>15.9</ele>
        <time>2023-06-28T10:38:00Z</time>
      </trkpt>
      <trkpt lat="49.9472" lon="2.14222">
        <ele>15.9</ele>
        <time>2023-06-28T10:38:01Z</time>
      </trkpt>
      <trkpt lat="49.9472" lon="2.14222">
        <ele>15.9</ele>
        <time>2023-06-28T10:38:02Z</time>
      </trkpt>
      <trkpt lat="49.9472" lon="2.14222">
        <ele>15.9</ele>
        <time>2023-06-28T10:38:03Z</time>
      </trkpt>
      <trkpt lat="49.9472" lon="2.14222">
        <ele>15.9</ele>
        <time>2023-06-28T10:38:04Z</time>
      </trkpt>
      <trkpt lat="49.9472" lon="2.14222">
        <ele>15.9</ele>
        <time>2023-06-28T10:38:05Z</time>
      </trkpt>
      <trkpt lat="49.9472" lon="2.14222">
        <ele>15.9</ele>
        <time>2023-06-28T10:38:06Z</time>
      </trkpt>
      <trkpt lat="49.9472" lon="2.14222">
        <ele>15.9</ele>
        <time>2023-06-28T10:38:07Z</time>
      </trkpt>
      <trkpt lat="49.9472" lon="2.14222">
        <ele>15.9</ele>
        <time>2023-06-28T10:38:08Z</time>
      </trkpt>
      <trkpt lat="49.9472" lon="2.14222">
        <ele>15.9</ele>
        <time>2023-06-28T10:38:09Z</time>
      </trkpt>
      <trkpt lat="49.9472" lon="2.14222">
        <ele>15.9</ele>
        <time>2023-06-28T10:38:10Z</time>
      </trkpt>
      <trkpt lat="49.9472" lon="2.14222">
        <ele>15.9</ele>
        <time>2023-06-28T10:38:11Z</time>
      </trkpt>
      <trkpt lat="49.9472" lon="2.14222">
        <ele>15.9</ele>
        <time>2023-06-28T10:38:12Z</time>
      </trkpt>
      <trkpt lat="49.9472" lon="2.14222">
        <ele>15.9</ele>
        <time>2023-06-28T10:38:13Z</time>
      </trkpt>
      <trkpt lat="49.9472" lon="2.14222">
        <ele>15.9</ele>
        <time>2023-06-28T10:38:14Z</time>
      </trkpt>
      <trkpt lat="49.9472" lon="2.14222">
        <ele>15.9</ele>
        <time>2023-06-28T10:38:15Z</time>
      </trkpt>
      <trkpt lat="49.9472" lon="2.14222">
        <ele>15.9</ele>
        <time>2023-06-28T10:38:16Z</time>
      </trkpt>
      <trkpt lat="49.9472" lon="2.14222">
        <ele>15.9</ele>
        <time>2023-06-28T10:38:17Z</time>
      </trkpt>
      <trkpt lat="49.9472" lon="2.14222">
        <ele>15.9</ele>
        <time>2023-06-28T10:38:18Z</time>
      </trkpt>
      <trkpt lat="49.9472" lon="2.14222">
        <ele>15.9</ele>
        <time>2023-06-28T10:38:19Z</time>
      </trkpt>
      <trkpt lat="49.9472" lon="2.14222">
        <ele>15.9</ele>
        <time>2023-06-28T10:38:20Z</time>
      </trkpt>
      <trkpt lat="49.9472" lon="2.14222">
        <ele>15.9</ele>
        <time>2023-06-28T10:38:21Z</time>
      </trkpt>
      <trkpt lat="49.9472" lon="2.14222">
        <ele>15.9</ele>
        <time>2023-06-28T10:38:22Z</time>
      </trkpt>
      <trkpt lat="49.9472" lon="2.14222">
        <ele>15.9</ele>
        <time>2023-06-28T10:38:23Z</time>
      </trkpt>
      <trkpt lat="49.9472" lon="2.14222">
        <ele>15.9</ele>
        <time>2023-06-28T10:38:24Z</time>
      </trkpt>
      <trkpt lat="49.9472" lon="2.14222">
        <ele>15.9</ele>
        <time>2023-06-28T10:38:25Z</time>
      </trkpt>
      <trkpt lat="49.9472" lon="2.14222">
        <ele>15.9</ele>
        <time>2023-06-28T10:38:26Z</time>
      </trkpt>
      <trkpt lat="49.9472" lon="2.14222">
        <ele>15.9</ele>
        <time>2023-06-28T10:38:27Z</time>
      </trkpt>
      <trkpt lat="49.9472" lon="2.14222">
        <ele>15.9</ele>
        <time>2023-06-28T10:38:28Z</time>
      </trkpt>
      <trkpt lat="49.9472" lon="2.14222">
        <ele>15.9</ele>
        <time>2023-06-28T10:38:29Z</time>
      </trkpt>
      <trkpt lat="49.9472" lon="2.14222">
        <ele>15.9</ele>
        <time>2023-06-28T10:38:30Z</time>
      </trkpt>
      <trkpt lat="49.9472" lon="2.14222">
        <ele>15.9</ele>
        <time>2023-06-28T10:38:31Z</time>
      </trkpt>
      <trkpt lat="49.9472" lon="2.14222">
        <ele>15.9</ele>
        <time>2023-06-28T10:38:32Z</time>
      </trkpt>
      <trkpt lat="49.9472" lon="2.14222">
        <ele>15.9</ele>
        <time>2023-06-28T10:38:33Z</time>
      </trkpt>
      <trkpt lat="49.9472" lon="2.14222">
        <ele>15.9</ele>
        <time>2023-06-28T10:38:34Z</time>
      </trkpt>
      <trkpt lat="49.9472" lon="2.14222">
        <ele>15.9</ele>
        <time>2023-06-28T10:38:35Z</time>
      </trkpt>
      <trkpt lat="49.9472" lon="2.14222">
        <ele>15.9</ele>
        <time>2023-06-28T10:38:36Z</time>
      </trkpt>
      <trkpt lat="49.9472" lon="2.14222">
        <ele>15.9</ele>
        <time>2023-06-28T10:38:37Z</time>
      </trkpt>
      <trkpt lat="49.9472" lon="2.14222">
        <ele>15.9</ele>
        <time>2023-06-28T10:38:38Z</time>
      </trkpt>
      <trkpt lat="49.9472" lon="2.14222">
        <ele>15.9</ele>
        <time>2023-06-28T10:38:39Z</time>
      </trkpt>
      <trkpt lat="49.9472" lon="2.14222">
        <ele>15.9</ele>
        <time>2023-06-28T10:38:40Z</time>
      </trkpt>
      <trkpt lat="49.9472" lon="2.14222">
        <ele>15.9</ele>
        <time>2023-06-28T10:38:41Z</time>
      </trkpt>
      <trkpt lat="49.9472" lon="2.14222">
        <ele>15.9</ele>
        <time>2023-06-28T10:38:42Z</time>
      </trkpt>
      <trkpt lat="49.9472" lon="2.14222">
        <ele>15.9</ele>
        <time>2023-06-28T10:38:43Z</time>
      </trkpt>
      <trkpt lat="49.9472" lon="2.14222">
        <ele>15.9</ele>
        <time>2023-06-28T10:38:44Z</time>
      </trkpt>
      <trkpt lat="49.9472" lon="2.14222">
        <ele>15.9</ele>
        <time>2023-06-28T10:38:45Z</time>
      </trkpt>
      <trkpt lat="49.9472" lon="2.14222">
        <ele>15.9</ele>
        <time>2023-06-28T10:38:46Z</time>
      </trkpt>
      <trkpt lat="49.9472" lon="2.14222">
        <ele>15.9</ele>
        <time>2023-06-28T10:38:47Z</time>
      </trkpt>
      <trkpt lat="49.9472" lon="2.14222">
        <ele>15.9</ele>
        <time>2023-06-28T10:38:48Z</time>
      </trkpt>
      <trkpt lat="49.9472" lon="2.14222">
        <ele>15.9</ele>
        <time>2023-06-28T10:38:49Z</time>
      </trkpt>
      <trkpt lat="49.9472" lon="2.14222">
        <ele>15.9</ele>
        <time>2023-06-28T10:38:50Z</time>
      </trkpt>
      <trkpt lat="49.9472" lon="2.14222">
        <ele>15.9</ele>
        <time>2023-06-28T10:38:51Z</time>
      </trkpt>
      <trkpt lat="49.9472" lon="2.14222">
        <ele>15.9</ele>
        <time>2023-06-28T10:38:52Z</time>
      </trkpt>
      <trkpt lat="49.9472" lon="2.14222">
        <ele>15.9</ele>
        <time>2023-06-28T10:38:53Z</time>
      </trkpt>
      <trkpt lat="49.9472" lon="2.14222">
        <ele>15.9</ele>
        <time>2023-06-28T10:38:54Z</time>
      </trkpt>
      <trkpt lat="49.9472" lon="2.14222">
        <ele>15.9</ele>
        <time>2023-06-28T10:38:55Z</time>
      </trkpt>
      <trkpt lat="49.9472" lon="2.14222">
        <ele>15.9</ele>
        <time>2023-06-28T10:38:56Z</time>
      </trkpt>
      <trkpt lat="49.94719" lon="2.14222">
        <ele>15.9</ele>
        <time>2023-06-28T10:38:57Z</time>
      </trkpt>
      <trkpt lat="49.94719" lon="2.14222">
        <ele>15.9</ele>
        <time>2023-06-28T10:38:58Z</time>
      </trkpt>
      <trkpt lat="49.94719" lon="2.14222">
        <ele>15.9</ele>
        <time>2023-06-28T10:38:59Z</time>
      </trkpt>
      <trkpt lat="49.94719" lon="2.14222">
        <ele>15.9</ele>
        <time>2023-06-28T10:39:00Z</time>
      </trkpt>
      <trkpt lat="49.94719" lon="2.14222">
        <ele>15.9</ele>
        <time>2023-06-28T10:39:01Z</time>
      </trkpt>
      <trkpt lat="49.94719" lon="2.14222">
        <ele>15.9</ele>
        <time>2023-06-28T10:39:02Z</time>
      </trkpt>
      <trkpt lat="49.94719" lon="2.14222">
        <ele>15.9</ele>
        <time>2023-06-28T10:39:03Z</time>
      </trkpt>
      <trkpt lat="49.94719" lon="2.14222">
        <ele>15.9</ele>
        <time>2023-06-28T10:39:04Z</time>
      </trkpt>
      <trkpt lat="49.94719" lon="2.14222">
        <ele>15.9</ele>
        <time>2023-06-28T10:39:05Z</time>
      </trkpt>
      <trkpt lat="49.94719" lon="2.14222">
        <ele>15.9</ele>
        <time>2023-06-28T10:39:06Z</time>
      </trkpt>
      <trkpt lat="49.94719" lon="2.14222">
        <ele>15.9</ele>
        <time>2023-06-28T10:39:07Z</time>
      </trkpt>
      <trkpt lat="49.94719" lon="2.14222">
        <ele>15.9</ele>
        <time>2023-06-28T10:39:08Z</time>
      </trkpt>
      <trkpt lat="49.94719" lon="2.14222">
        <ele>15.9</ele>
        <time>2023-06-28T10:39:09Z</time>
      </trkpt>
      <trkpt lat="49.94719" lon="2.14222">
        <ele>15.9</ele>
        <time>2023-06-28T10:39:10Z</time>
      </trkpt>
      <trkpt lat="49.94719" lon="2.14222">
        <ele>15.9</ele>
        <time>2023-06-28T10:39:11Z</time>
      </trkpt>
      <trkpt lat="49.94719" lon="2.14222">
        <ele>15.9</ele>
        <time>2023-06-28T10:39:12Z</time>
      </trkpt>
      <trkpt lat="49.94719" lon="2.14222">
        <ele>15.9</ele>
        <time>2023-06-28T10:39:13Z</time>
      </trkpt>
      <trkpt lat="49.94719" lon="2.14222">
        <ele>15.9</ele>
        <time>2023-06-28T10:39:14Z</time>
      </trkpt>
      <trkpt lat="49.94719" lon="2.14222">
        <ele>15.9</ele>
        <time>2023-06-28T10:39:15Z</time>
      </trkpt>
      <trkpt lat="49.94719" lon="2.14222">
        <ele>15.9</ele>
        <time>2023-06-28T10:39:16Z</time>
      </trkpt>
      <trkpt lat="49.94719" lon="2.14222">
        <ele>15.9</ele>
        <time>2023-06-28T10:39:17Z</time>
      </trkpt>
      <trkpt lat="49.94719" lon="2.14222">
        <ele>15.9</ele>
        <time>2023-06-28T10:39:18Z</time>
      </trkpt>
      <trkpt lat="49.94719" lon="2.14222">
        <ele>15.9</ele>
        <time>2023-06-28T10:39:19Z</time>
      </trkpt>
      <trkpt lat="49.94719" lon="2.14222">
        <ele>15.9</ele>
        <time>2023-06-28T10:39:20Z</time>
      </trkpt>
      <trkpt lat="49.94719" lon="2.14222">
        <ele>15.9</ele>
        <time>2023-06-28T10:39:21Z</time>
      </trkpt>
      <trkpt lat="49.94719" lon="2.14222">
        <ele>15.9</ele>
        <time>2023-06-28T10:39:22Z</time>
      </trkpt>
      <trkpt lat="49.94719" lon="2.14222">
        <ele>15.9</ele>
        <time>2023-06-28T10:39:23Z</time>
      </trkpt>
      <trkpt lat="49.94719" lon="2.14222">
        <ele>15.9</ele>
        <time>2023-06-28T10:39:24Z</time>
      </trkpt>
      <trkpt lat="49.94719" lon="2.14222">
        <ele>15.9</ele>
        <time>2023-06-28T10:39:25Z</time>
      </trkpt>
      <trkpt lat="49.94719" lon="2.14222">
        <ele>15.9</ele>
        <time>2023-06-28T10:39:26Z</time>
      </trkpt>
      <trkpt lat="49.94719" lon="2.14222">
        <ele>15.9</ele>
        <time>2023-06-28T10:39:27Z</time>
      </trkpt>
      <trkpt lat="49.94719" lon="2.14222">
        <ele>15.9</ele>
        <time>2023-06-28T10:39:28Z</time>
      </trkpt>
      <trkpt lat="49.94719" lon="2.14222">
        <ele>15.9</ele>
        <time>2023-06-28T10:39:29Z</time>
      </trkpt>
      <trkpt lat="49.94719" lon="2.14222">
        <ele>15.9</ele>
        <time>2023-06-28T10:39:30Z</time>
      </trkpt>
      <trkpt lat="49.94719" lon="2.14222">
        <ele>15.9</ele>
        <time>2023-06-28T10:39:31Z</time>
      </trkpt>
      <trkpt lat="49.94719" lon="2.14222">
        <ele>15.9</ele>
        <time>2023-06-28T10:39:32Z</time>
      </trkpt>
      <trkpt lat="49.94719" lon="2.14222">
        <ele>15.9</ele>
        <time>2023-06-28T10:39:33Z</time>
      </trkpt>
      <trkpt lat="49.94719" lon="2.14222">
        <ele>15.9</ele>
        <time>2023-06-28T10:39:34Z</time>
      </trkpt>
      <trkpt lat="49.94719" lon="2.14222">
        <ele>15.9</ele>
        <time>2023-06-28T10:39:35Z</time>
      </trkpt>
      <trkpt lat="49.94719" lon="2.14222">
        <ele>15.9</ele>
        <time>2023-06-28T10:39:36Z</time>
      </trkpt>
      <trkpt lat="49.94719" lon="2.14222">
        <ele>15.9</ele>
        <time>2023-06-28T10:39:37Z</time>
      </trkpt>
      <trkpt lat="49.94719" lon="2.14222">
        <ele>15.9</ele>
        <time>2023-06-28T10:39:38Z</time>
      </trkpt>
      <trkpt lat="49.94719" lon="2.14222">
        <ele>15.9</ele>
        <time>2023-06-28T10:39:39Z</time>
      </trkpt>
      <trkpt lat="49.94719" lon="2.14222">
        <ele>15.9</ele>
        <time>2023-06-28T10:39:40Z</time>
      </trkpt>
      <trkpt lat="49.94719" lon="2.14222">
        <ele>15.9</ele>
        <time>2023-06-28T10:39:41Z</time>
      </trkpt>
      <trkpt lat="49.94719" lon="2.14222">
        <ele>15.9</ele>
        <time>2023-06-28T10:39:42Z</time>
      </trkpt>
      <trkpt lat="49.94719" lon="2.14222">
        <ele>15.9</ele>
        <time>2023-06-28T10:39:43Z</time>
      </trkpt>
      <trkpt lat="49.94719" lon="2.14222">
        <ele>15.9</ele>
        <time>2023-06-28T10:39:44Z</time>
      </trkpt>
      <trkpt lat="49.94719" lon="2.14222">
        <ele>15.9</ele>
        <time>2023-06-28T10:39:45Z</time>
      </trkpt>
      <trkpt lat="49.94719" lon="2.14222">
        <ele>15.9</ele>
        <time>2023-06-28T10:39:46Z</time>
      </trkpt>
      <trkpt lat="49.94719" lon="2.14222">
        <ele>15.9</ele>
        <time>2023-06-28T10:39:47Z</time>
      </trkpt>
      <trkpt lat="49.94719" lon="2.14222">
        <ele>15.9</ele>
        <time>2023-06-28T10:39:48Z</time>
      </trkpt>
      <trkpt lat="49.94719" lon="2.14222">
        <ele>15.9</ele>
        <time>2023-06-28T10:39:49Z</time>
      </trkpt>
      <trkpt lat="49.94719" lon="2.14222">
        <ele>15.9</ele>
        <time>2023-06-28T10:39:50Z</time>
      </trkpt>
      <trkpt lat="49.94719" lon="2.14222">
        <ele>15.9</ele>
        <time>2023-06-28T10:39:51Z</time>
      </trkpt>
      <trkpt lat="49.94719" lon="2.14222">
        <ele>15.9</ele>
        <time>2023-06-28T10:39:52Z</time>
      </trkpt>
      <trkpt lat="49.94719" lon="2.14222">
        <ele>15.9</ele>
        <time>2023-06-28T10:39:53Z</time>
      </trkpt>
      <trkpt lat="49.94719" lon="2.14222">
        <ele>15.9</ele>
        <time>2023-06-28T10:39:54Z</time>
      </trkpt>
      <trkpt lat="49.94719" lon="2.14222">
        <ele>15.9</ele>
        <time>2023-06-28T10:39:55Z</time>
      </trkpt>
      <trkpt lat="49.94719" lon="2.14222">
        <ele>15.9</ele>
        <time>2023-06-28T10:39:56Z</time>
      </trkpt>
      <trkpt lat="49.94719" lon="2.14222">
        <ele>15.9</ele>
        <time>2023-06-28T10:39:57Z</time>
      </trkpt>
      <trkpt lat="49.94719" lon="2.14222">
        <ele>15.9</ele>
        <time>2023-06-28T10:39:58Z</time>
      </trkpt>
      <trkpt lat="49.94719" lon="2.14222">
        <ele>15.9</ele>
        <time>2023-06-28T10:39:59Z</time>
      </trkpt>
      <trkpt lat="49.94719" lon="2.14222">
        <ele>15.9</ele>
        <time>2023-06-28T10:40:00Z</time>
      </trkpt>
      <trkpt lat="49.94719" lon="2.14222">
        <ele>15.9</ele>
        <time>2023-06-28T10:40:01Z</time>
      </trkpt>
      <trkpt lat="49.94719" lon="2.14222">
        <ele>15.9</ele>
        <time>2023-06-28T10:40:02Z</time>
      </trkpt>
      <trkpt lat="49.94719" lon="2.14222">
        <ele>15.9</ele>
        <time>2023-06-28T10:40:03Z</time>
      </trkpt>
      <trkpt lat="49.94719" lon="2.14222">
        <ele>15.9</ele>
        <time>2023-06-28T10:40:04Z</time>
      </trkpt>
      <trkpt lat="49.94719" lon="2.14222">
        <ele>15.9</ele>
        <time>2023-06-28T10:40:05Z</time>
      </trkpt>
      <trkpt lat="49.94719" lon="2.14222">
        <ele>15.9</ele>
        <time>2023-06-28T10:40:06Z</time>
      </trkpt>
      <trkpt lat="49.94719" lon="2.14222">
        <ele>15.9</ele>
        <time>2023-06-28T10:40:07Z</time>
      </trkpt>
      <trkpt lat="49.94719" lon="2.14222">
        <ele>15.9</ele>
        <time>2023-06-28T10:40:08Z</time>
      </trkpt>
      <trkpt lat="49.94719" lon="2.14222">
        <ele>15.9</ele>
        <time>2023-06-28T10:40:09Z</time>
      </trkpt>
      <trkpt lat="49.94719" lon="2.14222">
        <ele>15.9</ele>
        <time>2023-06-28T10:40:10Z</time>
      </trkpt>
      <trkpt lat="49.94719" lon="2.14222">
        <ele>15.9</ele>
        <time>2023-06-28T10:40:11Z</time>
      </trkpt>
      <trkpt lat="49.94719" lon="2.14222">
        <ele>15.9</ele>
        <time>2023-06-28T10:40:12Z</time>
      </trkpt>
      <trkpt lat="49.94719" lon="2.14222">
        <ele>15.9</ele>
        <time>2023-06-28T10:40:13Z</time>
      </trkpt>
      <trkpt lat="49.94719" lon="2.14222">
        <ele>15.9</ele>
        <time>2023-06-28T10:40:14Z</time>
      </trkpt>
      <trkpt lat="49.94719" lon="2.14222">
        <ele>15.9</ele>
        <time>2023-06-28T10:40:15Z</time>
      </trkpt>
      <trkpt lat="49.94719" lon="2.14222">
        <ele>15.9</ele>
        <time>2023-06-28T10:40:16Z</time>
      </trkpt>
      <trkpt lat="49.94719" lon="2.14222">
        <ele>15.9</ele>
        <time>2023-06-28T10:40:17Z</time>
      </trkpt>
      <trkpt lat="49.94719" lon="2.14222">
        <ele>15.9</ele>
        <time>2023-06-28T10:40:18Z</time>
      </trkpt>
      <trkpt lat="49.94719" lon="2.14222">
        <ele>15.9</ele>
        <time>2023-06-28T10:40:19Z</time>
      </trkpt>
      <trkpt lat="49.94719" lon="2.14222">
        <ele>15.9</ele>
        <time>2023-06-28T10:40:20Z</time>
      </trkpt>
      <trkpt lat="49.94719" lon="2.14222">
        <ele>15.9</ele>
        <time>2023-06-28T10:40:21Z</time>
      </trkpt>
      <trkpt lat="49.94719" lon="2.14222">
        <ele>15.9</ele>
        <time>2023-06-28T10:40:22Z</time>
      </trkpt>
      <trkpt lat="49.94719" lon="2.14222">
        <ele>15.9</ele>
        <time>2023-06-28T10:40:23Z</time>
      </trkpt>
      <trkpt lat="49.94719" lon="2.14222">
        <ele>15.9</ele>
        <time>2023-06-28T10:40:24Z</time>
      </trkpt>
      <trkpt lat="49.94719" lon="2.14222">
        <ele>15.9</ele>
        <time>2023-06-28T10:40:25Z</time>
      </trkpt>
      <trkpt lat="49.94719" lon="2.14222">
        <ele>15.9</ele>
        <time>2023-06-28T10:40:26Z</time>
      </trkpt>
      <trkpt lat="49.94719" lon="2.14222">
        <ele>15.9</ele>
        <time>2023-06-28T10:40:27Z</time>
      </trkpt>
      <trkpt lat="49.94719" lon="2.14222">
        <ele>15.9</ele>
        <time>2023-06-28T10:40:28Z</time>
      </trkpt>
      <trkpt lat="49.94719" lon="2.14222">
        <ele>15.9</ele>
        <time>2023-06-28T10:40:29Z</time>
      </trkpt>
      <trkpt lat="49.94719" lon="2.14222">
        <ele>15.9</ele>
        <time>2023-06-28T10:40:30Z</time>
      </trkpt>
      <trkpt lat="49.94719" lon="2.14222">
        <ele>15.9</ele>
        <time>2023-06-28T10:40:31Z</time>
      </trkpt>
      <trkpt lat="49.94719" lon="2.14222">
        <ele>15.9</ele>
        <time>2023-06-28T10:40:32Z</time>
      </trkpt>
      <trkpt lat="49.94719" lon="2.14222">
        <ele>15.9</ele>
        <time>2023-06-28T10:40:33Z</time>
      </trkpt>
      <trkpt lat="49.94719" lon="2.14222">
        <ele>15.9</ele>
        <time>2023-06-28T10:40:34Z</time>
      </trkpt>
      <trkpt lat="49.94719" lon="2.14222">
        <ele>15.9</ele>
        <time>2023-06-28T10:40:35Z</time>
      </trkpt>
      <trkpt lat="49.94719" lon="2.14222">
        <ele>15.9</ele>
        <time>2023-06-28T10:40:36Z</time>
      </trkpt>
      <trkpt lat="49.94719" lon="2.14222">
        <ele>15.9</ele>
        <time>2023-06-28T10:40:37Z</time>
      </trkpt>
      <trkpt lat="49.94719" lon="2.14222">
        <ele>15.9</ele>
        <time>2023-06-28T10:40:38Z</time>
      </trkpt>
      <trkpt lat="49.94719" lon="2.14222">
        <ele>15.9</ele>
        <time>2023-06-28T10:40:39Z</time>
      </trkpt>
      <trkpt lat="49.94719" lon="2.14222">
        <ele>15.9</ele>
        <time>2023-06-28T10:40:40Z</time>
      </trkpt>
      <trkpt lat="49.94719" lon="2.14222">
        <ele>15.9</ele>
        <time>2023-06-28T10:40:41Z</time>
      </trkpt>
      <trkpt lat="49.94719" lon="2.14222">
        <ele>15.9</ele>
        <time>2023-06-28T10:40:42Z</time>
      </trkpt>
      <trkpt lat="49.94719" lon="2.14222">
        <ele>15.9</ele>
        <time>2023-06-28T10:40:43Z</time>
      </trkpt>
      <trkpt lat="49.94719" lon="2.14222">
        <ele>15.9</ele>
        <time>2023-06-28T10:40:44Z</time>
      </trkpt>
      <trkpt lat="49.94719" lon="2.14222">
        <ele>15.9</ele>
        <time>2023-06-28T10:40:45Z</time>
      </trkpt>
      <trkpt lat="49.94719" lon="2.14222">
        <ele>15.9</ele>
        <time>2023-06-28T10:40:46Z</time>
      </trkpt>
      <trkpt lat="49.94719" lon="2.14222">
        <ele>15.9</ele>
        <time>2023-06-28T10:40:47Z</time>
      </trkpt>
      <trkpt lat="49.94719" lon="2.14222">
        <ele>15.9</ele>
        <time>2023-06-28T10:40:48Z</time>
      </trkpt>
      <trkpt lat="49.94719" lon="2.14222">
        <ele>15.9</ele>
        <time>2023-06-28T10:40:49Z</time>
      </trkpt>
      <trkpt lat="49.94719" lon="2.14222">
        <ele>15.9</ele>
        <time>2023-06-28T10:40:50Z</time>
      </trkpt>
      <trkpt lat="49.94719" lon="2.14222">
        <ele>15.9</ele>
        <time>2023-06-28T10:40:51Z</time>
      </trkpt>
      <trkpt lat="49.94719" lon="2.14222">
        <ele>15.9</ele>
        <time>2023-06-28T10:40:52Z</time>
      </trkpt>
      <trkpt lat="49.94719" lon="2.14222">
        <ele>15.9</ele>
        <time>2023-06-28T10:40:53Z</time>
      </trkpt>
      <trkpt lat="49.94719" lon="2.14222">
        <ele>15.9</ele>
        <time>2023-06-28T10:40:54Z</time>
      </trkpt>
      <trkpt lat="49.94719" lon="2.14222">
        <ele>15.9</ele>
        <time>2023-06-28T10:40:55Z</time>
      </trkpt>
      <trkpt lat="49.94719" lon="2.14222">
        <ele>15.9</ele>
        <time>2023-06-28T10:40:56Z</time>
      </trkpt>
      <trkpt lat="49.94719" lon="2.14222">
        <ele>15.9</ele>
        <time>2023-06-28T10:40:57Z</time>
      </trkpt>
      <trkpt lat="49.94719" lon="2.14222">
        <ele>15.9</ele>
        <time>2023-06-28T10:40:58Z</time>
      </trkpt>
      <trkpt lat="49.94719" lon="2.14222">
        <ele>15.9</ele>
        <time>2023-06-28T10:40:59Z</time>
      </trkpt>
      <trkpt lat="49.94719" lon="2.14222">
        <ele>15.9</ele>
        <time>2023-06-28T10:41:00Z</time>
      </trkpt>
      <trkpt lat="49.94719" lon="2.14222">
        <ele>15.9</ele>
        <time>2023-06-28T10:41:01Z</time>
      </trkpt>
      <trkpt lat="49.94719" lon="2.14222">
        <ele>15.9</ele>
        <time>2023-06-28T10:41:02Z</time>
      </trkpt>
      <trkpt lat="49.94719" lon="2.14222">
        <ele>15.9</ele>
        <time>2023-06-28T10:41:03Z</time>
      </trkpt>
      <trkpt lat="49.94719" lon="2.14222">
        <ele>15.9</ele>
        <time>2023-06-28T10:41:04Z</time>
      </trkpt>
      <trkpt lat="49.94719" lon="2.14222">
        <ele>15.9</ele>
        <time>2023-06-28T10:41:05Z</time>
      </trkpt>
      <trkpt lat="49.94719" lon="2.14222">
        <ele>15.9</ele>
        <time>2023-06-28T10:41:06Z</time>
      </trkpt>
      <trkpt lat="49.94719" lon="2.14222">
        <ele>15.9</ele>
        <time>2023-06-28T10:41:07Z</time>
      </trkpt>
      <trkpt lat="49.94719" lon="2.14222">
        <ele>15.9</ele>
        <time>2023-06-28T10:41:08Z</time>
      </trkpt>
      <trkpt lat="49.94719" lon="2.14222">
        <ele>15.9</ele>
        <time>2023-06-28T10:41:09Z</time>
      </trkpt>
      <trkpt lat="49.94719" lon="2.14222">
        <ele>15.9</ele>
        <time>2023-06-28T10:41:10Z</time>
      </trkpt>
      <trkpt lat="49.94719" lon="2.14222">
        <ele>15.9</ele>
        <time>2023-06-28T10:41:11Z</time>
      </trkpt>
      <trkpt lat="49.94719" lon="2.14222">
        <ele>15.9</ele>
        <time>2023-06-28T10:41:12Z</time>
      </trkpt>
      <trkpt lat="49.94719" lon="2.14222">
        <ele>15.9</ele>
        <time>2023-06-28T10:41:13Z</time>
      </trkpt>
      <trkpt lat="49.94719" lon="2.14222">
        <ele>15.9</ele>
        <time>2023-06-28T10:41:14Z</time>
      </trkpt>
      <trkpt lat="49.94719" lon="2.14222">
        <ele>15.9</ele>
        <time>2023-06-28T10:41:15Z</time>
      </trkpt>
      <trkpt lat="49.94719" lon="2.14222">
        <ele>15.9</ele>
        <time>2023-06-28T10:41:16Z</time>
      </trkpt>
      <trkpt lat="49.94719" lon="2.14222">
        <ele>15.9</ele>
        <time>2023-06-28T10:41:17Z</time>
      </trkpt>
      <trkpt lat="49.94719" lon="2.14222">
        <ele>15.9</ele>
        <time>2023-06-28T10:41:18Z</time>
      </trkpt>
      <trkpt lat="49.94719" lon="2.14222">
        <ele>15.9</ele>
        <time>2023-06-28T10:41:19Z</time>
      </trkpt>
      <trkpt lat="49.94719" lon="2.14222">
        <ele>15.9</ele>
        <time>2023-06-28T10:41:20Z</time>
      </trkpt>
      <trkpt lat="49.94719" lon="2.14222">
        <ele>15.9</ele>
        <time>2023-06-28T10:41:21Z</time>
      </trkpt>
      <trkpt lat="49.94719" lon="2.14222">
        <ele>15.9</ele>
        <time>2023-06-28T10:41:22Z</time>
      </trkpt>
      <trkpt lat="49.94719" lon="2.14222">
        <ele>15.9</ele>
        <time>2023-06-28T10:41:23Z</time>
      </trkpt>
      <trkpt lat="49.94719" lon="2.14222">
        <ele>15.9</ele>
        <time>2023-06-28T10:41:24Z</time>
      </trkpt>
      <trkpt lat="49.94719" lon="2.14222">
        <ele>15.9</ele>
        <time>2023-06-28T10:41:25Z</time>
      </trkpt>
      <trkpt lat="49.94719" lon="2.14222">
        <ele>15.9</ele>
        <time>2023-06-28T10:41:26Z</time>
      </trkpt>
      <trkpt lat="49.94719" lon="2.14222">
        <ele>15.9</ele>
        <time>2023-06-28T10:41:27Z</time>
      </trkpt>
      <trkpt lat="49.94719" lon="2.14222">
        <ele>15.9</ele>
        <time>2023-06-28T10:41:28Z</time>
      </trkpt>
      <trkpt lat="49.94719" lon="2.14222">
        <ele>15.9</ele>
        <time>2023-06-28T10:41:29Z</time>
      </trkpt>
      <trkpt lat="49.94719" lon="2.14222">
        <ele>15.9</ele>
        <time>2023-06-28T10:41:30Z</time>
      </trkpt>
      <trkpt lat="49.94719" lon="2.14222">
        <ele>15.9</ele>
        <time>2023-06-28T10:41:31Z</time>
      </trkpt>
      <trkpt lat="49.94719" lon="2.14222">
        <ele>15.9</ele>
        <time>2023-06-28T10:41:32Z</time>
      </trkpt>
      <trkpt lat="49.94719" lon="2.14222">
        <ele>15.9</ele>
        <time>2023-06-28T10:41:33Z</time>
      </trkpt>
      <trkpt lat="49.94719" lon="2.14222">
        <ele>15.9</ele>
        <time>2023-06-28T10:41:34Z</time>
      </trkpt>
      <trkpt lat="49.94719" lon="2.14222">
        <ele>15.9</ele>
        <time>2023-06-28T10:41:35Z</time>
      </trkpt>
      <trkpt lat="49.94719" lon="2.14222">
        <ele>15.9</ele>
        <time>2023-06-28T10:41:36Z</time>
      </trkpt>
      <trkpt lat="49.94719" lon="2.14222">
        <ele>15.9</ele>
        <time>2023-06-28T10:41:37Z</time>
      </trkpt>
      <trkpt lat="49.94719" lon="2.14222">
        <ele>15.9</ele>
        <time>2023-06-28T10:41:38Z</time>
      </trkpt>
      <trkpt lat="49.94719" lon="2.14222">
        <ele>15.9</ele>
        <time>2023-06-28T10:41:39Z</time>
      </trkpt>
      <trkpt lat="49.94719" lon="2.14222">
        <ele>15.9</ele>
        <time>2023-06-28T10:41:40Z</time>
      </trkpt>
      <trkpt lat="49.94719" lon="2.14222">
        <ele>15.9</ele>
        <time>2023-06-28T10:41:41Z</time>
      </trkpt>
      <trkpt lat="49.94719" lon="2.14222">
        <ele>15.9</ele>
        <time>2023-06-28T10:41:42Z</time>
      </trkpt>
      <trkpt lat="49.94719" lon="2.14222">
        <ele>15.9</ele>
        <time>2023-06-28T10:41:43Z</time>
      </trkpt>
      <trkpt lat="49.94719" lon="2.14222">
        <ele>15.9</ele>
        <time>2023-06-28T10:41:44Z</time>
      </trkpt>
      <trkpt lat="49.94719" lon="2.14222">
        <ele>15.9</ele>
        <time>2023-06-28T10:41:45Z</time>
      </trkpt>
      <trkpt lat="49.94719" lon="2.14222">
        <ele>15.9</ele>
        <time>2023-06-28T10:41:46Z</time>
      </trkpt>
      <trkpt lat="49.94719" lon="2.14222">
        <ele>15.9</ele>
        <time>2023-06-28T10:41:47Z</time>
      </trkpt>
      <trkpt lat="49.94719" lon="2.14222">
        <ele>15.9</ele>
        <time>2023-06-28T10:41:48Z</time>
      </trkpt>
      <trkpt lat="49.94719" lon="2.14222">
        <ele>15.9</ele>
        <time>2023-06-28T10:41:49Z</time>
      </trkpt>
      <trkpt lat="49.94719" lon="2.14222">
        <ele>15.9</ele>
        <time>2023-06-28T10:41:50Z</time>
      </trkpt>
      <trkpt lat="49.94719" lon="2.14222">
        <ele>15.9</ele>
        <time>2023-06-28T10:41:51Z</time>
      </trkpt>
      <trkpt lat="49.94719" lon="2.14222">
        <ele>15.9</ele>
        <time>2023-06-28T10:41:52Z</time>
      </trkpt>
      <trkpt lat="49.94719" lon="2.14222">
        <ele>15.9</ele>
        <time>2023-06-28T10:41:53Z</time>
      </trkpt>
      <trkpt lat="49.94719" lon="2.14222">
        <ele>15.9</ele>
        <time>2023-06-28T10:41:54Z</time>
      </trkpt>
      <trkpt lat="49.94719" lon="2.14222">
        <ele>15.9</ele>
        <time>2023-06-28T10:41:55Z</time>
      </trkpt>
      <trkpt lat="49.94719" lon="2.14222">
        <ele>15.9</ele>
        <time>2023-06-28T10:41:56Z</time>
      </trkpt>
      <trkpt lat="49.94719" lon="2.14222">
        <ele>15.9</ele>
        <time>2023-06-28T10:41:57Z</time>
      </trkpt>
      <trkpt lat="49.94719" lon="2.14222">
        <ele>15.9</ele>
        <time>2023-06-28T10:41:58Z</time>
      </trkpt>
      <trkpt lat="49.94719" lon="2.14222">
        <ele>15.9</ele>
        <time>2023-06-28T10:41:59Z</time>
      </trkpt>
      <trkpt lat="49.94719" lon="2.14222">
        <ele>15.9</ele>
        <time>2023-06-28T10:42:00Z</time>
      </trkpt>
      <trkpt lat="49.94719" lon="2.14222">
        <ele>15.9</ele>
        <time>2023-06-28T10:42:01Z</time>
      </trkpt>
      <trkpt lat="49.94719" lon="2.14222">
        <ele>15.9</ele>
        <time>2023-06-28T10:42:02Z</time>
      </trkpt>
      <trkpt lat="49.94719" lon="2.14222">
        <ele>15.9</ele>
        <time>2023-06-28T10:42:03Z</time>
      </trkpt>
      <trkpt lat="49.94719" lon="2.14222">
        <ele>15.9</ele>
        <time>2023-06-28T10:42:04Z</time>
      </trkpt>
      <trkpt lat="49.94719" lon="2.14222">
        <ele>15.9</ele>
        <time>2023-06-28T10:42:05Z</time>
      </trkpt>
      <trkpt lat="49.94719" lon="2.14222">
        <ele>15.9</ele>
        <time>2023-06-28T10:42:06Z</time>
      </trkpt>
      <trkpt lat="49.94719" lon="2.14222">
        <ele>15.9</ele>
        <time>2023-06-28T10:42:07Z</time>
      </trkpt>
      <trkpt lat="49.94719" lon="2.14222">
        <ele>15.9</ele>
        <time>2023-06-28T10:42:08Z</time>
      </trkpt>
      <trkpt lat="49.94719" lon="2.14222">
        <ele>15.9</ele>
        <time>2023-06-28T10:42:09Z</time>
      </trkpt>
      <trkpt lat="49.94719" lon="2.14222">
        <ele>15.9</ele>
        <time>2023-06-28T10:42:10Z</time>
      </trkpt>
      <trkpt lat="49.94719" lon="2.14222">
        <ele>15.9</ele>
        <time>2023-06-28T10:42:11Z</time>
      </trkpt>
      <trkpt lat="49.94719" lon="2.14222">
        <ele>15.9</ele>
        <time>2023-06-28T10:42:12Z</time>
      </trkpt>
      <trkpt lat="49.94719" lon="2.14222">
        <ele>15.9</ele>
        <time>2023-06-28T10:42:13Z</time>
      </trkpt>
      <trkpt lat="49.94719" lon="2.14222">
        <ele>15.9</ele>
        <time>2023-06-28T10:42:14Z</time>
      </trkpt>
      <trkpt lat="49.94719" lon="2.14222">
        <ele>15.9</ele>
        <time>2023-06-28T10:42:15Z</time>
      </trkpt>
      <trkpt lat="49.94719" lon="2.14222">
        <ele>15.9</ele>
        <time>2023-06-28T10:42:16Z</time>
      </trkpt>
      <trkpt lat="49.94719" lon="2.14222">
        <ele>15.9</ele>
        <time>2023-06-28T10:42:17Z</time>
      </trkpt>
      <trkpt lat="49.94719" lon="2.14222">
        <ele>15.9</ele>
        <time>2023-06-28T10:42:18Z</time>
      </trkpt>
      <trkpt lat="49.94719" lon="2.14222">
        <ele>15.9</ele>
        <time>2023-06-28T10:42:19Z</time>
      </trkpt>
      <trkpt lat="49.94719" lon="2.14222">
        <ele>15.9</ele>
        <time>2023-06-28T10:42:20Z</time>
      </trkpt>
      <trkpt lat="49.94719" lon="2.14222">
        <ele>15.9</ele>
        <time>2023-06-28T10:42:21Z</time>
      </trkpt>
      <trkpt lat="49.94719" lon="2.14222">
        <ele>15.9</ele>
        <time>2023-06-28T10:42:22Z</time>
      </trkpt>
      <trkpt lat="49.94719" lon="2.14222">
        <ele>15.9</ele>
        <time>2023-06-28T10:42:23Z</time>
      </trkpt>
      <trkpt lat="49.94719" lon="2.14222">
        <ele>15.9</ele>
        <time>2023-06-28T10:42:24Z</time>
      </trkpt>
      <trkpt lat="49.94719" lon="2.14222">
        <ele>15.9</ele>
        <time>2023-06-28T10:42:25Z</time>
      </trkpt>
      <trkpt lat="49.94719" lon="2.14222">
        <ele>15.9</ele>
        <time>2023-06-28T10:42:26Z</time>
      </trkpt>
      <trkpt lat="49.94719" lon="2.14222">
        <ele>15.9</ele>
        <time>2023-06-28T10:42:27Z</time>
      </trkpt>
      <trkpt lat="49.94719" lon="2.14222">
        <ele>15.9</ele>
        <time>2023-06-28T10:42:28Z</time>
      </trkpt>
      <trkpt lat="49.94719" lon="2.14222">
        <ele>15.9</ele>
        <time>2023-06-28T10:42:29Z</time>
      </trkpt>
      <trkpt lat="49.94719" lon="2.14222">
        <ele>15.9</ele>
        <time>2023-06-28T10:42:30Z</time>
      </trkpt>
      <trkpt lat="49.94719" lon="2.14222">
        <ele>15.9</ele>
        <time>2023-06-28T10:42:31Z</time>
      </trkpt>
      <trkpt lat="49.94719" lon="2.14222">
        <ele>15.9</ele>
        <time>2023-06-28T10:42:32Z</time>
      </trkpt>
      <trkpt lat="49.94719" lon="2.14222">
        <ele>15.9</ele>
        <time>2023-06-28T10:42:33Z</time>
      </trkpt>
      <trkpt lat="49.94719" lon="2.14222">
        <ele>15.9</ele>
        <time>2023-06-28T10:42:34Z</time>
      </trkpt>
      <trkpt lat="49.94719" lon="2.14222">
        <ele>15.9</ele>
        <time>2023-06-28T10:42:35Z</time>
      </trkpt>
      <trkpt lat="49.94719" lon="2.14222">
        <ele>15.9</ele>
        <time>2023-06-28T10:42:36Z</time>
      </trkpt>
      <trkpt lat="49.94719" lon="2.14222">
        <ele>15.9</ele>
        <time>2023-06-28T10:42:37Z</time>
      </trkpt>
      <trkpt lat="49.94719" lon="2.14222">
        <ele>15.9</ele>
        <time>2023-06-28T10:42:38Z</time>
      </trkpt>
      <trkpt lat="49.94719" lon="2.14222">
        <ele>15.9</ele>
        <time>2023-06-28T10:42:39Z</time>
      </trkpt>
      <trkpt lat="49.94719" lon="2.14222">
        <ele>15.9</ele>
        <time>2023-06-28T10:42:40Z</time>
      </trkpt>
      <trkpt lat="49.94719" lon="2.14222">
        <ele>15.9</ele>
        <time>2023-06-28T10:42:41Z</time>
      </trkpt>
      <trkpt lat="49.94719" lon="2.14222">
        <ele>15.9</ele>
        <time>2023-06-28T10:42:42Z</time>
      </trkpt>
      <trkpt lat="49.94719" lon="2.14222">
        <ele>15.9</ele>
        <time>2023-06-28T10:42:43Z</time>
      </trkpt>
      <trkpt lat="49.94719" lon="2.14222">
        <ele>15.9</ele>
        <time>2023-06-28T10:42:44Z</time>
      </trkpt>
      <trkpt lat="49.94719" lon="2.14222">
        <ele>15.9</ele>
        <time>2023-06-28T10:42:45Z</time>
      </trkpt>
      <trkpt lat="49.94719" lon="2.14222">
        <ele>15.9</ele>
        <time>2023-06-28T10:42:46Z</time>
      </trkpt>
      <trkpt lat="49.94719" lon="2.14222">
        <ele>15.9</ele>
        <time>2023-06-28T10:42:47Z</time>
      </trkpt>
      <trkpt lat="49.94719" lon="2.14222">
        <ele>15.9</ele>
        <time>2023-06-28T10:42:48Z</time>
      </trkpt>
      <trkpt lat="49.94719" lon="2.14222">
        <ele>15.9</ele>
        <time>2023-06-28T10:42:49Z</time>
      </trkpt>
      <trkpt lat="49.94719" lon="2.14222">
        <ele>15.9</ele>
        <time>2023-06-28T10:42:50Z</time>
      </trkpt>
      <trkpt lat="49.94719" lon="2.14222">
        <ele>15.9</ele>
        <time>2023-06-28T10:42:51Z</time>
      </trkpt>
      <trkpt lat="49.94719" lon="2.14222">
        <ele>15.9</ele>
        <time>2023-06-28T10:42:52Z</time>
      </trkpt>
      <trkpt lat="49.94719" lon="2.14222">
        <ele>15.9</ele>
        <time>2023-06-28T10:42:53Z</time>
      </trkpt>
      <trkpt lat="49.94719" lon="2.14222">
        <ele>15.9</ele>
        <time>2023-06-28T10:42:54Z</time>
      </trkpt>
      <trkpt lat="49.94719" lon="2.14222">
        <ele>15.9</ele>
        <time>2023-06-28T10:42:55Z</time>
      </trkpt>
      <trkpt lat="49.94719" lon="2.14222">
        <ele>15.9</ele>
        <time>2023-06-28T10:42:56Z</time>
      </trkpt>
      <trkpt lat="49.94719" lon="2.14222">
        <ele>15.9</ele>
        <time>2023-06-28T10:42:57Z</time>
      </trkpt>
      <trkpt lat="49.94719" lon="2.14222">
        <ele>15.9</ele>
        <time>2023-06-28T10:42:58Z</time>
      </trkpt>
      <trkpt lat="49.94719" lon="2.14222">
        <ele>15.9</ele>
        <time>2023-06-28T10:42:59Z</time>
      </trkpt>
      <trkpt lat="49.94719" lon="2.14222">
        <ele>15.9</ele>
        <time>2023-06-28T10:43:00Z</time>
      </trkpt>
      <trkpt lat="49.94719" lon="2.14222">
        <ele>15.9</ele>
        <time>2023-06-28T10:43:01Z</time>
      </trkpt>
      <trkpt lat="49.94719" lon="2.14222">
        <ele>15.9</ele>
        <time>2023-06-28T10:43:02Z</time>
      </trkpt>
      <trkpt lat="49.94719" lon="2.14222">
        <ele>15.9</ele>
        <time>2023-06-28T10:43:03Z</time>
      </trkpt>
      <trkpt lat="49.94719" lon="2.14222">
        <ele>15.9</ele>
        <time>2023-06-28T10:43:04Z</time>
      </trkpt>
      <trkpt lat="49.94719" lon="2.14222">
        <ele>15.9</ele>
        <time>2023-06-28T10:43:05Z</time>
      </trkpt>
      <trkpt lat="49.94719" lon="2.14222">
        <ele>15.9</ele>
        <time>2023-06-28T10:43:06Z</time>
      </trkpt>
      <trkpt lat="49.94719" lon="2.14222">
        <ele>15.9</ele>
        <time>2023-06-28T10:43:07Z</time>
      </trkpt>
      <trkpt lat="49.94719" lon="2.14222">
        <ele>15.9</ele>
        <time>2023-06-28T10:43:08Z</time>
      </trkpt>
      <trkpt lat="49.94719" lon="2.14222">
        <ele>15.9</ele>
        <time>2023-06-28T10:43:09Z</time>
      </trkpt>
      <trkpt lat="49.94719" lon="2.14222">
        <ele>15.9</ele>
        <time>2023-06-28T10:43:10Z</time>
      </trkpt>
      <trkpt lat="49.94719" lon="2.14222">
        <ele>15.9</ele>
        <time>2023-06-28T10:43:11Z</time>
      </trkpt>
      <trkpt lat="49.94719" lon="2.14222">
        <ele>15.9</ele>
        <time>2023-06-28T10:43:12Z</time>
      </trkpt>
      <trkpt lat="49.94719" lon="2.14222">
        <ele>15.9</ele>
        <time>2023-06-28T10:43:13Z</time>
      </trkpt>
      <trkpt lat="49.94719" lon="2.14222">
        <ele>15.9</ele>
        <time>2023-06-28T10:43:14Z</time>
      </trkpt>
      <trkpt lat="49.94719" lon="2.14222">
        <ele>15.9</ele>
        <time>2023-06-28T10:43:15Z</time>
      </trkpt>
      <trkpt lat="49.94719" lon="2.14222">
        <ele>15.9</ele>
        <time>2023-06-28T10:43:16Z</time>
      </trkpt>
      <trkpt lat="49.94719" lon="2.14222">
        <ele>15.9</ele>
        <time>2023-06-28T10:43:17Z</time>
      </trkpt>
      <trkpt lat="49.94719" lon="2.14222">
        <ele>15.9</ele>
        <time>2023-06-28T10:43:18Z</time>
      </trkpt>
      <trkpt lat="49.94719" lon="2.14222">
        <ele>15.9</ele>
        <time>2023-06-28T10:43:19Z</time>
      </trkpt>
      <trkpt lat="49.94719" lon="2.14222">
        <ele>15.9</ele>
        <time>2023-06-28T10:43:20Z</time>
      </trkpt>
      <trkpt lat="49.94719" lon="2.14222">
        <ele>15.9</ele>
        <time>2023-06-28T10:43:21Z</time>
      </trkpt>
      <trkpt lat="49.94719" lon="2.14222">
        <ele>15.9</ele>
        <time>2023-06-28T10:43:22Z</time>
      </trkpt>
      <trkpt lat="49.94719" lon="2.14222">
        <ele>15.9</ele>
        <time>2023-06-28T10:43:23Z</time>
      </trkpt>
      <trkpt lat="49.94719" lon="2.14222">
        <ele>15.9</ele>
        <time>2023-06-28T10:43:24Z</time>
      </trkpt>
      <trkpt lat="49.94719" lon="2.14222">
        <ele>15.9</ele>
        <time>2023-06-28T10:43:25Z</time>
      </trkpt>
      <trkpt lat="49.94719" lon="2.14222">
        <ele>15.9</ele>
        <time>2023-06-28T10:43:26Z</time>
      </trkpt>
      <trkpt lat="49.94719" lon="2.14222">
        <ele>15.9</ele>
        <time>2023-06-28T10:43:27Z</time>
      </trkpt>
      <trkpt lat="49.94719" lon="2.14222">
        <ele>15.9</ele>
        <time>2023-06-28T10:43:28Z</time>
      </trkpt>
      <trkpt lat="49.94719" lon="2.14222">
        <ele>15.9</ele>
        <time>2023-06-28T10:43:29Z</time>
      </trkpt>
      <trkpt lat="49.94719" lon="2.14222">
        <ele>15.9</ele>
        <time>2023-06-28T10:43:30Z</time>
      </trkpt>
      <trkpt lat="49.94719" lon="2.14222">
        <ele>15.9</ele>
        <time>2023-06-28T10:43:31Z</time>
      </trkpt>
      <trkpt lat="49.94719" lon="2.14222">
        <ele>15.9</ele>
        <time>2023-06-28T10:43:32Z</time>
      </trkpt>
      <trkpt lat="49.94719" lon="2.14222">
        <ele>15.9</ele>
        <time>2023-06-28T10:43:33Z</time>
      </trkpt>
      <trkpt lat="49.94719" lon="2.14222">
        <ele>15.9</ele>
        <time>2023-06-28T10:43:34Z</time>
      </trkpt>
      <trkpt lat="49.94719" lon="2.14222">
        <ele>15.9</ele>
        <time>2023-06-28T10:43:35Z</time>
      </trkpt>
      <trkpt lat="49.94719" lon="2.14222">
        <ele>15.9</ele>
        <time>2023-06-28T10:43:36Z</time>
      </trkpt>
      <trkpt lat="49.94719" lon="2.14222">
        <ele>15.9</ele>
        <time>2023-06-28T10:43:37Z</time>
      </trkpt>
      <trkpt lat="49.94719" lon="2.14222">
        <ele>15.9</ele>
        <time>2023-06-28T10:43:38Z</time>
      </trkpt>
      <trkpt lat="49.94719" lon="2.14222">
        <ele>15.9</ele>
        <time>2023-06-28T10:43:39Z</time>
      </trkpt>
      <trkpt lat="49.94719" lon="2.14222">
        <ele>15.9</ele>
        <time>2023-06-28T10:43:40Z</time>
      </trkpt>
      <trkpt lat="49.94719" lon="2.14222">
        <ele>15.9</ele>
        <time>2023-06-28T10:43:41Z</time>
      </trkpt>
      <trkpt lat="49.94719" lon="2.14222">
        <ele>15.9</ele>
        <time>2023-06-28T10:43:42Z</time>
      </trkpt>
      <trkpt lat="49.94719" lon="2.14222">
        <ele>15.9</ele>
        <time>2023-06-28T10:43:43Z</time>
      </trkpt>
      <trkpt lat="49.94719" lon="2.14222">
        <ele>15.9</ele>
        <time>2023-06-28T10:43:44Z</time>
      </trkpt>
      <trkpt lat="49.94719" lon="2.14222">
        <ele>15.9</ele>
        <time>2023-06-28T10:43:45Z</time>
      </trkpt>
      <trkpt lat="49.94719" lon="2.14222">
        <ele>15.9</ele>
        <time>2023-06-28T10:43:46Z</time>
      </trkpt>
      <trkpt lat="49.94719" lon="2.14222">
        <ele>15.9</ele>
        <time>2023-06-28T10:43:47Z</time>
      </trkpt>
      <trkpt lat="49.94719" lon="2.14222">
        <ele>15.9</ele>
        <time>2023-06-28T10:43:48Z</time>
      </trkpt>
      <trkpt lat="49.94719" lon="2.14222">
        <ele>15.9</ele>
        <time>2023-06-28T10:43:49Z</time>
      </trkpt>
      <trkpt lat="49.94719" lon="2.14222">
        <ele>15.9</ele>
        <time>2023-06-28T10:43:50Z</time>
      </trkpt>
      <trkpt lat="49.94719" lon="2.14222">
        <ele>15.9</ele>
        <time>2023-06-28T10:43:51Z</time>
      </trkpt>
      <trkpt lat="49.94719" lon="2.14222">
        <ele>15.9</ele>
        <time>2023-06-28T10:43:52Z</time>
      </trkpt>
      <trkpt lat="49.94719" lon="2.14222">
        <ele>15.9</ele>
        <time>2023-06-28T10:43:53Z</time>
      </trkpt>
      <trkpt lat="49.94719" lon="2.14222">
        <ele>15.9</ele>
        <time>2023-06-28T10:43:54Z</time>
      </trkpt>
      <trkpt lat="49.94719" lon="2.14222">
        <ele>15.9</ele>
        <time>2023-06-28T10:43:55Z</time>
      </trkpt>
      <trkpt lat="49.94719" lon="2.14222">
        <ele>15.9</ele>
        <time>2023-06-28T10:43:56Z</time>
      </trkpt>
      <trkpt lat="49.94719" lon="2.14222">
        <ele>15.9</ele>
        <time>2023-06-28T10:43:57Z</time>
      </trkpt>
      <trkpt lat="49.94719" lon="2.14222">
        <ele>15.9</ele>
        <time>2023-06-28T10:43:58Z</time>
      </trkpt>
      <trkpt lat="49.94719" lon="2.14222">
        <ele>15.9</ele>
        <time>2023-06-28T10:43:59Z</time>
      </trkpt>
      <trkpt lat="49.94719" lon="2.14222">
        <ele>15.9</ele>
        <time>2023-06-28T10:44:00Z</time>
      </trkpt>
      <trkpt lat="49.94719" lon="2.14222">
        <ele>15.9</ele>
        <time>2023-06-28T10:44:01Z</time>
      </trkpt>
      <trkpt lat="49.94719" lon="2.14222">
        <ele>15.9</ele>
        <time>2023-06-28T10:44:02Z</time>
      </trkpt>
      <trkpt lat="49.94719" lon="2.14222">
        <ele>15.9</ele>
        <time>2023-06-28T10:44:03Z</time>
      </trkpt>
      <trkpt lat="49.94719" lon="2.14222">
        <ele>15.9</ele>
        <time>2023-06-28T10:44:04Z</time>
      </trkpt>
      <trkpt lat="49.94719" lon="2.14222">
        <ele>15.9</ele>
        <time>2023-06-28T10:44:05Z</time>
      </trkpt>
      <trkpt lat="49.94719" lon="2.14222">
        <ele>15.9</ele>
        <time>2023-06-28T10:44:06Z</time>
      </trkpt>
      <trkpt lat="49.94719" lon="2.14222">
        <ele>15.9</ele>
        <time>2023-06-28T10:44:07Z</time>
      </trkpt>
      <trkpt lat="49.94719" lon="2.14222">
        <ele>15.9</ele>
        <time>2023-06-28T10:44:08Z</time>
      </trkpt>
      <trkpt lat="49.94719" lon="2.14222">
        <ele>15.9</ele>
        <time>2023-06-28T10:44:09Z</time>
      </trkpt>
      <trkpt lat="49.94719" lon="2.14222">
        <ele>15.9</ele>
        <time>2023-06-28T10:44:10Z</time>
      </trkpt>
      <trkpt lat="49.94719" lon="2.14222">
        <ele>15.9</ele>
        <time>2023-06-28T10:44:11Z</time>
      </trkpt>
      <trkpt lat="49.94719" lon="2.14222">
        <ele>15.9</ele>
        <time>2023-06-28T10:44:12Z</time>
      </trkpt>
      <trkpt lat="49.94719" lon="2.14222">
        <ele>15.9</ele>
        <time>2023-06-28T10:44:13Z</time>
      </trkpt>
      <trkpt lat="49.94719" lon="2.14222">
        <ele>15.9</ele>
        <time>2023-06-28T10:44:14Z</time>
      </trkpt>
      <trkpt lat="49.94719" lon="2.14222">
        <ele>15.9</ele>
        <time>2023-06-28T10:44:15Z</time>
      </trkpt>
      <trkpt lat="49.94719" lon="2.14222">
        <ele>15.9</ele>
        <time>2023-06-28T10:44:16Z</time>
      </trkpt>
      <trkpt lat="49.94719" lon="2.14222">
        <ele>15.9</ele>
        <time>2023-06-28T10:44:17Z</time>
      </trkpt>
      <trkpt lat="49.94719" lon="2.14222">
        <ele>15.9</ele>
        <time>2023-06-28T10:44:18Z</time>
      </trkpt>
      <trkpt lat="49.94719" lon="2.14222">
        <ele>15.9</ele>
        <time>2023-06-28T10:44:19Z</time>
      </trkpt>
      <trkpt lat="49.94719" lon="2.14222">
        <ele>15.9</ele>
        <time>2023-06-28T10:44:20Z</time>
      </trkpt>
      <trkpt lat="49.94719" lon="2.14222">
        <ele>15.9</ele>
        <time>2023-06-28T10:44:21Z</time>
      </trkpt>
      <trkpt lat="49.94719" lon="2.14222">
        <ele>15.9</ele>
        <time>2023-06-28T10:44:22Z</time>
      </trkpt>
      <trkpt lat="49.94719" lon="2.14222">
        <ele>15.9</ele>
        <time>2023-06-28T10:44:23Z</time>
      </trkpt>
      <trkpt lat="49.94719" lon="2.14222">
        <ele>15.9</ele>
        <time>2023-06-28T10:44:24Z</time>
      </trkpt>
      <trkpt lat="49.94719" lon="2.14222">
        <ele>15.9</ele>
        <time>2023-06-28T10:44:25Z</time>
      </trkpt>
      <trkpt lat="49.94719" lon="2.14222">
        <ele>15.9</ele>
        <time>2023-06-28T10:44:26Z</time>
      </trkpt>
      <trkpt lat="49.94719" lon="2.14222">
        <ele>15.9</ele>
        <time>2023-06-28T10:44:27Z</time>
      </trkpt>
      <trkpt lat="49.94719" lon="2.14222">
        <ele>15.9</ele>
        <time>2023-06-28T10:44:28Z</time>
      </trkpt>
      <trkpt lat="49.94719" lon="2.14222">
        <ele>15.9</ele>
        <time>2023-06-28T10:44:29Z</time>
      </trkpt>
      <trkpt lat="49.94719" lon="2.14222">
        <ele>15.9</ele>
        <time>2023-06-28T10:44:30Z</time>
      </trkpt>
      <trkpt lat="49.94719" lon="2.14222">
        <ele>15.9</ele>
        <time>2023-06-28T10:45:26Z</time>
      </trkpt>
      <trkpt lat="49.94719" lon="2.14222">
        <ele>15.9</ele>
        <time>2023-06-28T10:45:27Z</time>
      </trkpt>
      <trkpt lat="49.94719" lon="2.14222">
        <ele>15.9</ele>
        <time>2023-06-28T10:45:28Z</time>
      </trkpt>
      <trkpt lat="49.94719" lon="2.14222">
        <ele>15.9</ele>
        <time>2023-06-28T10:45:29Z</time>
      </trkpt>
      <trkpt lat="49.94719" lon="2.14222">
        <ele>15.9</ele>
        <time>2023-06-28T10:45:30Z</time>
      </trkpt>
      <trkpt lat="49.94719" lon="2.14222">
        <ele>15.9</ele>
        <time>2023-06-28T10:45:31Z</time>
      </trkpt>
      <trkpt lat="49.94719" lon="2.14222">
        <ele>15.9</ele>
        <time>2023-06-28T10:45:32Z</time>
      </trkpt>
      <trkpt lat="49.94719" lon="2.14222">
        <ele>15.9</ele>
        <time>2023-06-28T10:45:33Z</time>
      </trkpt>
      <trkpt lat="49.94719" lon="2.14222">
        <ele>15.9</ele>
        <time>2023-06-28T10:45:34Z</time>
      </trkpt>
      <trkpt lat="49.94719" lon="2.14222">
        <ele>15.9</ele>
        <time>2023-06-28T10:45:35Z</time>
      </trkpt>
      <trkpt lat="49.94719" lon="2.14222">
        <ele>15.9</ele>
        <time>2023-06-28T10:45:36Z</time>
      </trkpt>
      <trkpt lat="49.94719" lon="2.14222">
        <ele>15.9</ele>
        <time>2023-06-28T10:45:37Z</time>
      </trkpt>
      <trkpt lat="49.94719" lon="2.14222">
        <ele>15.9</ele>
        <time>2023-06-28T10:45:38Z</time>
      </trkpt>
      <trkpt lat="49.94719" lon="2.14222">
        <ele>15.9</ele>
        <time>2023-06-28T10:45:39Z</time>
      </trkpt>
      <trkpt lat="49.94719" lon="2.14222">
        <ele>15.9</ele>
        <time>2023-06-28T10:45:40Z</time>
      </trkpt>
      <trkpt lat="49.94719" lon="2.14222">
        <ele>15.9</ele>
        <time>2023-06-28T10:45:41Z</time>
      </trkpt>
      <trkpt lat="49.94719" lon="2.14222">
        <ele>15.9</ele>
        <time>2023-06-28T10:45:42Z</time>
      </trkpt>
      <trkpt lat="49.94719" lon="2.14222">
        <ele>15.9</ele>
        <time>2023-06-28T10:45:43Z</time>
      </trkpt>
      <trkpt lat="49.94719" lon="2.14222">
        <ele>15.9</ele>
        <time>2023-06-28T10:45:44Z</time>
      </trkpt>
      <trkpt lat="49.94719" lon="2.14222">
        <ele>15.9</ele>
        <time>2023-06-28T10:45:45Z</time>
      </trkpt>
      <trkpt lat="49.94719" lon="2.14222">
        <ele>15.9</ele>
        <time>2023-06-28T10:45:46Z</time>
      </trkpt>
      <trkpt lat="49.94719" lon="2.14222">
        <ele>15.9</ele>
        <time>2023-06-28T10:45:47Z</time>
      </trkpt>
      <trkpt lat="49.94719" lon="2.14222">
        <ele>15.9</ele>
        <time>2023-06-28T10:45:48Z</time>
      </trkpt>
      <trkpt lat="49.94719" lon="2.14222">
        <ele>15.9</ele>
        <time>2023-06-28T10:45:49Z</time>
      </trkpt>
      <trkpt lat="49.94719" lon="2.14222">
        <ele>15.9</ele>
        <time>2023-06-28T10:45:50Z</time>
      </trkpt>
      <trkpt lat="49.94719" lon="2.14222">
        <ele>15.9</ele>
        <time>2023-06-28T10:45:51Z</time>
      </trkpt>
      <trkpt lat="49.94719" lon="2.14222">
        <ele>15.9</ele>
        <time>2023-06-28T10:45:52Z</time>
      </trkpt>
      <trkpt lat="49.94719" lon="2.14222">
        <ele>15.9</ele>
        <time>2023-06-28T10:45:53Z</time>
      </trkpt>
      <trkpt lat="49.94719" lon="2.14222">
        <ele>15.9</ele>
        <time>2023-06-28T10:45:54Z</time>
      </trkpt>
      <trkpt lat="49.94719" lon="2.14222">
        <ele>15.9</ele>
        <time>2023-06-28T10:45:55Z</time>
      </trkpt>
      <trkpt lat="49.94719" lon="2.14222">
        <ele>15.9</ele>
        <time>2023-06-28T10:45:56Z</time>
      </trkpt>
      <trkpt lat="49.94719" lon="2.14222">
        <ele>15.9</ele>
        <time>2023-06-28T10:45:57Z</time>
      </trkpt>
      <trkpt lat="49.94719" lon="2.14222">
        <ele>15.9</ele>
        <time>2023-06-28T10:45:58Z</time>
      </trkpt>
      <trkpt lat="49.94719" lon="2.14222">
        <ele>15.9</ele>
        <time>2023-06-28T10:45:59Z</time>
      </trkpt>
      <trkpt lat="49.94719" lon="2.14222">
        <ele>15.9</ele>
        <time>2023-06-28T10:46:00Z</time>
      </trkpt>
      <trkpt lat="49.94719" lon="2.14222">
        <ele>15.9</ele>
        <time>2023-06-28T10:46:01Z</time>
      </trkpt>
      <trkpt lat="49.94719" lon="2.14222">
        <ele>15.9</ele>
        <time>2023-06-28T10:46:02Z</time>
      </trkpt>
      <trkpt lat="49.94719" lon="2.14222">
        <ele>15.9</ele>
        <time>2023-06-28T10:46:03Z</time>
      </trkpt>
      <trkpt lat="49.94719" lon="2.14222">
        <ele>15.9</ele>
        <time>2023-06-28T10:46:04Z</time>
      </trkpt>
      <trkpt lat="49.94719" lon="2.14222">
        <ele>15.9</ele>
        <time>2023-06-28T10:46:05Z</time>
      </trkpt>
      <trkpt lat="49.94719" lon="2.14222">
        <ele>15.9</ele>
        <time>2023-06-28T10:46:06Z</time>
      </trkpt>
      <trkpt lat="49.94719" lon="2.14222">
        <ele>15.9</ele>
        <time>2023-06-28T10:46:07Z</time>
      </trkpt>
      <trkpt lat="49.94719" lon="2.14222">
        <ele>15.9</ele>
        <time>2023-06-28T10:46:08Z</time>
      </trkpt>
      <trkpt lat="49.94719" lon="2.14222">
        <ele>15.9</ele>
        <time>2023-06-28T10:46:09Z</time>
      </trkpt>
      <trkpt lat="49.94719" lon="2.14222">
        <ele>15.9</ele>
        <time>2023-06-28T10:46:10Z</time>
      </trkpt>
      <trkpt lat="49.94719" lon="2.14222">
        <ele>15.9</ele>
        <time>2023-06-28T10:46:11Z</time>
      </trkpt>
      <trkpt lat="49.94719" lon="2.14222">
        <ele>15.9</ele>
        <time>2023-06-28T10:46:12Z</time>
      </trkpt>
      <trkpt lat="49.94719" lon="2.14222">
        <ele>15.9</ele>
        <time>2023-06-28T10:46:13Z</time>
      </trkpt>
      <trkpt lat="49.94719" lon="2.14222">
        <ele>15.9</ele>
        <time>2023-06-28T10:46:14Z</time>
      </trkpt>
      <trkpt lat="49.94719" lon="2.14222">
        <ele>15.9</ele>
        <time>2023-06-28T10:46:15Z</time>
      </trkpt>
      <trkpt lat="49.94719" lon="2.14222">
        <ele>15.9</ele>
        <time>2023-06-28T10:46:16Z</time>
      </trkpt>
      <trkpt lat="49.94719" lon="2.14222">
        <ele>15.9</ele>
        <time>2023-06-28T10:46:17Z</time>
      </trkpt>
      <trkpt lat="49.94719" lon="2.14222">
        <ele>15.9</ele>
        <time>2023-06-28T10:46:18Z</time>
      </trkpt>
      <trkpt lat="49.94719" lon="2.14222">
        <ele>15.9</ele>
        <time>2023-06-28T10:46:19Z</time>
      </trkpt>
      <trkpt lat="49.94719" lon="2.14222">
        <ele>15.9</ele>
        <time>2023-06-28T10:46:20Z</time>
      </trkpt>
      <trkpt lat="49.94719" lon="2.14222">
        <ele>15.9</ele>
        <time>2023-06-28T10:46:21Z</time>
      </trkpt>
      <trkpt lat="49.94719" lon="2.14222">
        <ele>15.9</ele>
        <time>2023-06-28T10:46:22Z</time>
      </trkpt>
      <trkpt lat="49.94719" lon="2.14222">
        <ele>15.9</ele>
        <time>2023-06-28T10:46:23Z</time>
      </trkpt>
      <trkpt lat="49.94719" lon="2.14222">
        <ele>15.9</ele>
        <time>2023-06-28T10:46:24Z</time>
      </trkpt>
      <trkpt lat="49.94719" lon="2.14222">
        <ele>15.9</ele>
        <time>2023-06-28T10:46:25Z</time>
      </trkpt>
      <trkpt lat="49.94719" lon="2.14222">
        <ele>15.9</ele>
        <time>2023-06-28T10:46:26Z</time>
      </trkpt>
      <trkpt lat="49.94719" lon="2.14222">
        <ele>15.9</ele>
        <time>2023-06-28T10:46:27Z</time>
      </trkpt>
      <trkpt lat="49.94719" lon="2.14222">
        <ele>15.9</ele>
        <time>2023-06-28T10:46:28Z</time>
      </trkpt>
      <trkpt lat="49.94719" lon="2.14222">
        <ele>15.9</ele>
        <time>2023-06-28T10:46:29Z</time>
      </trkpt>
      <trkpt lat="49.94719" lon="2.14222">
        <ele>15.9</ele>
        <time>2023-06-28T10:46:30Z</time>
      </trkpt>
      <trkpt lat="49.94719" lon="2.14222">
        <ele>15.9</ele>
        <time>2023-06-28T10:46:31Z</time>
      </trkpt>
      <trkpt lat="49.94719" lon="2.14222">
        <ele>15.9</ele>
        <time>2023-06-28T10:46:32Z</time>
      </trkpt>
      <trkpt lat="49.94719" lon="2.14222">
        <ele>15.9</ele>
        <time>2023-06-28T10:46:33Z</time>
      </trkpt>
      <trkpt lat="49.94719" lon="2.14222">
        <ele>15.9</ele>
        <time>2023-06-28T10:46:34Z</time>
      </trkpt>
      <trkpt lat="49.94719" lon="2.14222">
        <ele>15.9</ele>
        <time>2023-06-28T10:46:35Z</time>
      </trkpt>
      <trkpt lat="49.94719" lon="2.14222">
        <ele>15.9</ele>
        <time>2023-06-28T10:46:36Z</time>
      </trkpt>
      <trkpt lat="49.94719" lon="2.14222">
        <ele>15.9</ele>
        <time>2023-06-28T10:46:37Z</time>
      </trkpt>
      <trkpt lat="49.94719" lon="2.14222">
        <ele>15.9</ele>
        <time>2023-06-28T10:46:38Z</time>
      </trkpt>
      <trkpt lat="49.94719" lon="2.14222">
        <ele>15.9</ele>
        <time>2023-06-28T10:46:39Z</time>
      </trkpt>
      <trkpt lat="49.94719" lon="2.14222">
        <ele>15.9</ele>
        <time>2023-06-28T10:46:40Z</time>
      </trkpt>
      <trkpt lat="49.94719" lon="2.14222">
        <ele>15.9</ele>
        <time>2023-06-28T10:46:41Z</time>
      </trkpt>
      <trkpt lat="49.94719" lon="2.14222">
        <ele>15.9</ele>
        <time>2023-06-28T10:46:42Z</time>
      </trkpt>
      <trkpt lat="49.94719" lon="2.14222">
        <ele>15.9</ele>
        <time>2023-06-28T10:46:43Z</time>
      </trkpt>
      <trkpt lat="49.94719" lon="2.14222">
        <ele>15.9</ele>
        <time>2023-06-28T10:46:44Z</time>
      </trkpt>
      <trkpt lat="49.94719" lon="2.14222">
        <ele>15.9</ele>
        <time>2023-06-28T10:46:45Z</time>
      </trkpt>
      <trkpt lat="49.94719" lon="2.14222">
        <ele>15.9</ele>
        <time>2023-06-28T10:46:46Z</time>
      </trkpt>
      <trkpt lat="49.94719" lon="2.14222">
        <ele>15.9</ele>
        <time>2023-06-28T10:46:47Z</time>
      </trkpt>
      <trkpt lat="49.94719" lon="2.14222">
        <ele>15.9</ele>
        <time>2023-06-28T10:46:48Z</time>
      </trkpt>
      <trkpt lat="49.94719" lon="2.14222">
        <ele>15.9</ele>
        <time>2023-06-28T10:46:49Z</time>
      </trkpt>
      <trkpt lat="49.94719" lon="2.14222">
        <ele>15.9</ele>
        <time>2023-06-28T10:46:50Z</time>
      </trkpt>
      <trkpt lat="49.94719" lon="2.14222">
        <ele>15.9</ele>
        <time>2023-06-28T10:46:51Z</time>
      </trkpt>
      <trkpt lat="49.94719" lon="2.14222">
        <ele>15.9</ele>
        <time>2023-06-28T10:46:52Z</time>
      </trkpt>
      <trkpt lat="49.94719" lon="2.14222">
        <ele>15.9</ele>
        <time>2023-06-28T10:46:53Z</time>
      </trkpt>
      <trkpt lat="49.94719" lon="2.14222">
        <ele>15.9</ele>
        <time>2023-06-28T10:46:54Z</time>
      </trkpt>
      <trkpt lat="49.94719" lon="2.14222">
        <ele>15.9</ele>
        <time>2023-06-28T10:46:55Z</time>
      </trkpt>
      <trkpt lat="49.94719" lon="2.14222">
        <ele>15.9</ele>
        <time>2023-06-28T10:46:56Z</time>
      </trkpt>
      <trkpt lat="49.94719" lon="2.14222">
        <ele>15.9</ele>
        <time>2023-06-28T10:46:57Z</time>
      </trkpt>
      <trkpt lat="49.94719" lon="2.14222">
        <ele>15.9</ele>
        <time>2023-06-28T10:46:58Z</time>
      </trkpt>
      <trkpt lat="49.94719" lon="2.14222">
        <ele>15.9</ele>
        <time>2023-06-28T10:46:59Z</time>
      </trkpt>
      <trkpt lat="49.94719" lon="2.14222">
        <ele>15.9</ele>
        <time>2023-06-28T10:47:00Z</time>
      </trkpt>
      <trkpt lat="49.94719" lon="2.14222">
        <ele>15.9</ele>
        <time>2023-06-28T10:47:01Z</time>
      </trkpt>
      <trkpt lat="49.94719" lon="2.14222">
        <ele>15.9</ele>
        <time>2023-06-28T10:47:02Z</time>
      </trkpt>
      <trkpt lat="49.94719" lon="2.14222">
        <ele>15.9</ele>
        <time>2023-06-28T10:47:03Z</time>
      </trkpt>
      <trkpt lat="49.94719" lon="2.14222">
        <ele>15.9</ele>
        <time>2023-06-28T10:47:04Z</time>
      </trkpt>
      <trkpt lat="49.94719" lon="2.14222">
        <ele>15.9</ele>
        <time>2023-06-28T10:47:05Z</time>
      </trkpt>
      <trkpt lat="49.94719" lon="2.14222">
        <ele>15.9</ele>
        <time>2023-06-28T10:47:06Z</time>
      </trkpt>
      <trkpt lat="49.94719" lon="2.14222">
        <ele>15.9</ele>
        <time>2023-06-28T10:47:07Z</time>
      </trkpt>
      <trkpt lat="49.94719" lon="2.14222">
        <ele>15.9</ele>
        <time>2023-06-28T10:47:08Z</time>
      </trkpt>
      <trkpt lat="49.94719" lon="2.14222">
        <ele>15.9</ele>
        <time>2023-06-28T10:47:09Z</time>
      </trkpt>
      <trkpt lat="49.94719" lon="2.14222">
        <ele>15.9</ele>
        <time>2023-06-28T10:47:10Z</time>
      </trkpt>
      <trkpt lat="49.94719" lon="2.14222">
        <ele>15.9</ele>
        <time>2023-06-28T10:47:11Z</time>
      </trkpt>
      <trkpt lat="49.94719" lon="2.14222">
        <ele>15.9</ele>
        <time>2023-06-28T10:47:12Z</time>
      </trkpt>
      <trkpt lat="49.94719" lon="2.14222">
        <ele>15.9</ele>
        <time>2023-06-28T10:47:13Z</time>
      </trkpt>
      <trkpt lat="49.94719" lon="2.14222">
        <ele>15.9</ele>
        <time>2023-06-28T10:47:14Z</time>
      </trkpt>
      <trkpt lat="49.94719" lon="2.14222">
        <ele>15.9</ele>
        <time>2023-06-28T10:47:15Z</time>
      </trkpt>
      <trkpt lat="49.94719" lon="2.14222">
        <ele>15.9</ele>
        <time>2023-06-28T10:47:16Z</time>
      </trkpt>
      <trkpt lat="49.94719" lon="2.14222">
        <ele>15.9</ele>
        <time>2023-06-28T10:47:17Z</time>
      </trkpt>
      <trkpt lat="49.94719" lon="2.14222">
        <ele>15.9</ele>
        <time>2023-06-28T10:47:18Z</time>
      </trkpt>
      <trkpt lat="49.94719" lon="2.14222">
        <ele>15.9</ele>
        <time>2023-06-28T10:47:19Z</time>
      </trkpt>
      <trkpt lat="49.94719" lon="2.14222">
        <ele>15.9</ele>
        <time>2023-06-28T10:47:20Z</time>
      </trkpt>
      <trkpt lat="49.94719" lon="2.14222">
        <ele>15.9</ele>
        <time>2023-06-28T10:47:21Z</time>
      </trkpt>
      <trkpt lat="49.94719" lon="2.14222">
        <ele>15.9</ele>
        <time>2023-06-28T10:47:22Z</time>
      </trkpt>
      <trkpt lat="49.94719" lon="2.14222">
        <ele>15.9</ele>
        <time>2023-06-28T10:47:23Z</time>
      </trkpt>
      <trkpt lat="49.94719" lon="2.14222">
        <ele>15.9</ele>
        <time>2023-06-28T10:47:24Z</time>
      </trkpt>
      <trkpt lat="49.94719" lon="2.14222">
        <ele>15.9</ele>
        <time>2023-06-28T10:47:25Z</time>
      </trkpt>
      <trkpt lat="49.94719" lon="2.14222">
        <ele>15.9</ele>
        <time>2023-06-28T10:47:26Z</time>
      </trkpt>
      <trkpt lat="49.94719" lon="2.14222">
        <ele>15.9</ele>
        <time>2023-06-28T10:47:27Z</time>
      </trkpt>
      <trkpt lat="49.94719" lon="2.14222">
        <ele>15.9</ele>
        <time>2023-06-28T10:47:28Z</time>
      </trkpt>
      <trkpt lat="49.94719" lon="2.14222">
        <ele>15.9</ele>
        <time>2023-06-28T10:47:29Z</time>
      </trkpt>
      <trkpt lat="49.94719" lon="2.14222">
        <ele>15.9</ele>
        <time>2023-06-28T10:47:30Z</time>
      </trkpt>
      <trkpt lat="49.94719" lon="2.14222">
        <ele>15.9</ele>
        <time>2023-06-28T10:47:31Z</time>
      </trkpt>
      <trkpt lat="49.94719" lon="2.14222">
        <ele>15.9</ele>
        <time>2023-06-28T10:47:32Z</time>
      </trkpt>
      <trkpt lat="49.94719" lon="2.14222">
        <ele>15.9</ele>
        <time>2023-06-28T10:47:33Z</time>
      </trkpt>
      <trkpt lat="49.94719" lon="2.14222">
        <ele>15.9</ele>
        <time>2023-06-28T10:47:34Z</time>
      </trkpt>
      <trkpt lat="49.94719" lon="2.14222">
        <ele>15.9</ele>
        <time>2023-06-28T10:47:35Z</time>
      </trkpt>
      <trkpt lat="49.94719" lon="2.14222">
        <ele>15.9</ele>
        <time>2023-06-28T10:47:36Z</time>
      </trkpt>
      <trkpt lat="49.94719" lon="2.14222">
        <ele>15.9</ele>
        <time>2023-06-28T10:47:37Z</time>
      </trkpt>
      <trkpt lat="49.94719" lon="2.14222">
        <ele>15.9</ele>
        <time>2023-06-28T10:47:38Z</time>
      </trkpt>
      <trkpt lat="49.94719" lon="2.14222">
        <ele>15.9</ele>
        <time>2023-06-28T10:47:39Z</time>
      </trkpt>
      <trkpt lat="49.94719" lon="2.14222">
        <ele>15.9</ele>
        <time>2023-06-28T10:47:40Z</time>
      </trkpt>
      <trkpt lat="49.94719" lon="2.14222">
        <ele>15.9</ele>
        <time>2023-06-28T10:47:41Z</time>
      </trkpt>
      <trkpt lat="49.94719" lon="2.14222">
        <ele>15.9</ele>
        <time>2023-06-28T10:47:42Z</time>
      </trkpt>
      <trkpt lat="49.94719" lon="2.14222">
        <ele>15.9</ele>
        <time>2023-06-28T10:47:43Z</time>
      </trkpt>
      <trkpt lat="49.94719" lon="2.14222">
        <ele>15.9</ele>
        <time>2023-06-28T10:47:44Z</time>
      </trkpt>
      <trkpt lat="49.94719" lon="2.14222">
        <ele>15.9</ele>
        <time>2023-06-28T10:47:45Z</time>
      </trkpt>
      <trkpt lat="49.94719" lon="2.14222">
        <ele>15.9</ele>
        <time>2023-06-28T10:47:46Z</time>
      </trkpt>
      <trkpt lat="49.94719" lon="2.14222">
        <ele>15.9</ele>
        <time>2023-06-28T10:47:47Z</time>
      </trkpt>
      <trkpt lat="49.94719" lon="2.14222">
        <ele>15.9</ele>
        <time>2023-06-28T10:47:48Z</time>
      </trkpt>
      <trkpt lat="49.94719" lon="2.14222">
        <ele>15.9</ele>
        <time>2023-06-28T10:47:49Z</time>
      </trkpt>
      <trkpt lat="49.94719" lon="2.14222">
        <ele>15.9</ele>
        <time>2023-06-28T10:47:50Z</time>
      </trkpt>
      <trkpt lat="49.94719" lon="2.14222">
        <ele>15.9</ele>
        <time>2023-06-28T10:47:51Z</time>
      </trkpt>
      <trkpt lat="49.94719" lon="2.14222">
        <ele>15.9</ele>
        <time>2023-06-28T10:47:52Z</time>
      </trkpt>
      <trkpt lat="49.94719" lon="2.14222">
        <ele>15.9</ele>
        <time>2023-06-28T10:47:53Z</time>
      </trkpt>
      <trkpt lat="49.94719" lon="2.14222">
        <ele>15.9</ele>
        <time>2023-06-28T10:47:54Z</time>
      </trkpt>
      <trkpt lat="49.94719" lon="2.14222">
        <ele>15.9</ele>
        <time>2023-06-28T10:47:55Z</time>
      </trkpt>
      <trkpt lat="49.94719" lon="2.14222">
        <ele>15.9</ele>
        <time>2023-06-28T10:47:56Z</time>
      </trkpt>
      <trkpt lat="49.94719" lon="2.14222">
        <ele>15.9</ele>
        <time>2023-06-28T10:47:57Z</time>
      </trkpt>
      <trkpt lat="49.94719" lon="2.14222">
        <ele>15.9</ele>
        <time>2023-06-28T10:47:58Z</time>
      </trkpt>
      <trkpt lat="49.94719" lon="2.14222">
        <ele>15.9</ele>
        <time>2023-06-28T10:47:59Z</time>
      </trkpt>
      <trkpt lat="49.94719" lon="2.14222">
        <ele>15.9</ele>
        <time>2023-06-28T10:48:00Z</time>
      </trkpt>
      <trkpt lat="49.94719" lon="2.14222">
        <ele>15.9</ele>
        <time>2023-06-28T10:48:01Z</time>
      </trkpt>
      <trkpt lat="49.94719" lon="2.14222">
        <ele>15.9</ele>
        <time>2023-06-28T10:48:02Z</time>
      </trkpt>
      <trkpt lat="49.94719" lon="2.14222">
        <ele>15.9</ele>
        <time>2023-06-28T10:48:03Z</time>
      </trkpt>
      <trkpt lat="49.94719" lon="2.14222">
        <ele>15.9</ele>
        <time>2023-06-28T10:48:04Z</time>
      </trkpt>
      <trkpt lat="49.94719" lon="2.14222">
        <ele>15.9</ele>
        <time>2023-06-28T10:48:05Z</time>
      </trkpt>
      <trkpt lat="49.94719" lon="2.14222">
        <ele>15.9</ele>
        <time>2023-06-28T10:48:06Z</time>
      </trkpt>
      <trkpt lat="49.94719" lon="2.14222">
        <ele>15.9</ele>
        <time>2023-06-28T10:48:07Z</time>
      </trkpt>
      <trkpt lat="49.94719" lon="2.14222">
        <ele>15.9</ele>
        <time>2023-06-28T10:48:08Z</time>
      </trkpt>
      <trkpt lat="49.94719" lon="2.14222">
        <ele>15.9</ele>
        <time>2023-06-28T10:48:09Z</time>
      </trkpt>
      <trkpt lat="49.94719" lon="2.14222">
        <ele>15.9</ele>
        <time>2023-06-28T10:48:10Z</time>
      </trkpt>
      <trkpt lat="49.94719" lon="2.14222">
        <ele>15.9</ele>
        <time>2023-06-28T10:48:11Z</time>
      </trkpt>
      <trkpt lat="49.94719" lon="2.14222">
        <ele>15.9</ele>
        <time>2023-06-28T10:48:12Z</time>
      </trkpt>
      <trkpt lat="49.94719" lon="2.14222">
        <ele>15.9</ele>
        <time>2023-06-28T10:48:13Z</time>
      </trkpt>
      <trkpt lat="49.94719" lon="2.14222">
        <ele>15.9</ele>
        <time>2023-06-28T10:48:14Z</time>
      </trkpt>
      <trkpt lat="49.94719" lon="2.14222">
        <ele>15.9</ele>
        <time>2023-06-28T10:48:15Z</time>
      </trkpt>
      <trkpt lat="49.94719" lon="2.14222">
        <ele>15.9</ele>
        <time>2023-06-28T10:48:16Z</time>
      </trkpt>
      <trkpt lat="49.94719" lon="2.14222">
        <ele>15.9</ele>
        <time>2023-06-28T10:48:17Z</time>
      </trkpt>
      <trkpt lat="49.94719" lon="2.14222">
        <ele>15.9</ele>
        <time>2023-06-28T10:48:18Z</time>
      </trkpt>
      <trkpt lat="49.94719" lon="2.14222">
        <ele>15.9</ele>
        <time>2023-06-28T10:48:19Z</time>
      </trkpt>
      <trkpt lat="49.94719" lon="2.14222">
        <ele>15.9</ele>
        <time>2023-06-28T10:48:20Z</time>
      </trkpt>
      <trkpt lat="49.94719" lon="2.14222">
        <ele>15.9</ele>
        <time>2023-06-28T10:48:21Z</time>
      </trkpt>
      <trkpt lat="49.94719" lon="2.14222">
        <ele>15.9</ele>
        <time>2023-06-28T10:48:22Z</time>
      </trkpt>
      <trkpt lat="49.94719" lon="2.14222">
        <ele>15.9</ele>
        <time>2023-06-28T10:48:23Z</time>
      </trkpt>
      <trkpt lat="49.94719" lon="2.14222">
        <ele>15.9</ele>
        <time>2023-06-28T10:48:24Z</time>
      </trkpt>
      <trkpt lat="49.94719" lon="2.14222">
        <ele>15.9</ele>
        <time>2023-06-28T10:48:25Z</time>
      </trkpt>
      <trkpt lat="49.94719" lon="2.14222">
        <ele>15.9</ele>
        <time>2023-06-28T10:48:26Z</time>
      </trkpt>
      <trkpt lat="49.94719" lon="2.14222">
        <ele>15.9</ele>
        <time>2023-06-28T10:48:27Z</time>
      </trkpt>
      <trkpt lat="49.94719" lon="2.14222">
        <ele>15.9</ele>
        <time>2023-06-28T10:48:28Z</time>
      </trkpt>
      <trkpt lat="49.94719" lon="2.14222">
        <ele>15.9</ele>
        <time>2023-06-28T10:48:29Z</time>
      </trkpt>
      <trkpt lat="49.94719" lon="2.14222">
        <ele>15.9</ele>
        <time>2023-06-28T10:48:30Z</time>
      </trkpt>
      <trkpt lat="49.94719" lon="2.14222">
        <ele>15.9</ele>
        <time>2023-06-28T10:48:31Z</time>
      </trkpt>
      <trkpt lat="49.94719" lon="2.14222">
        <ele>15.9</ele>
        <time>2023-06-28T10:48:32Z</time>
      </trkpt>
      <trkpt lat="49.94719" lon="2.14222">
        <ele>15.9</ele>
        <time>2023-06-28T10:48:33Z</time>
      </trkpt>
      <trkpt lat="49.94719" lon="2.14222">
        <ele>15.9</ele>
        <time>2023-06-28T10:48:34Z</time>
      </trkpt>
      <trkpt lat="49.94719" lon="2.14222">
        <ele>15.9</ele>
        <time>2023-06-28T10:48:35Z</time>
      </trkpt>
      <trkpt lat="49.94719" lon="2.14222">
        <ele>15.9</ele>
        <time>2023-06-28T10:48:36Z</time>
      </trkpt>
      <trkpt lat="49.94719" lon="2.14222">
        <ele>15.9</ele>
        <time>2023-06-28T10:48:37Z</time>
      </trkpt>
      <trkpt lat="49.94719" lon="2.14222">
        <ele>15.9</ele>
        <time>2023-06-28T10:48:38Z</time>
      </trkpt>
      <trkpt lat="49.94719" lon="2.14222">
        <ele>15.9</ele>
        <time>2023-06-28T10:48:39Z</time>
      </trkpt>
      <trkpt lat="49.94719" lon="2.14222">
        <ele>15.9</ele>
        <time>2023-06-28T10:48:40Z</time>
      </trkpt>
      <trkpt lat="49.94719" lon="2.14222">
        <ele>15.9</ele>
        <time>2023-06-28T10:48:41Z</time>
      </trkpt>
      <trkpt lat="49.94719" lon="2.14222">
        <ele>15.9</ele>
        <time>2023-06-28T10:48:42Z</time>
      </trkpt>
      <trkpt lat="49.94719" lon="2.14222">
        <ele>15.9</ele>
        <time>2023-06-28T10:48:43Z</time>
      </trkpt>
      <trkpt lat="49.94719" lon="2.14222">
        <ele>15.9</ele>
        <time>2023-06-28T10:48:44Z</time>
      </trkpt>
      <trkpt lat="49.94719" lon="2.14222">
        <ele>15.9</ele>
        <time>2023-06-28T10:48:45Z</time>
      </trkpt>
      <trkpt lat="49.94719" lon="2.14222">
        <ele>15.9</ele>
        <time>2023-06-28T10:48:46Z</time>
      </trkpt>
      <trkpt lat="49.94719" lon="2.14222">
        <ele>15.9</ele>
        <time>2023-06-28T10:48:47Z</time>
      </trkpt>
      <trkpt lat="49.94719" lon="2.14222">
        <ele>15.9</ele>
        <time>2023-06-28T10:48:48Z</time>
      </trkpt>
      <trkpt lat="49.94719" lon="2.14222">
        <ele>15.9</ele>
        <time>2023-06-28T10:48:49Z</time>
      </trkpt>
      <trkpt lat="49.94719" lon="2.14222">
        <ele>15.9</ele>
        <time>2023-06-28T10:48:50Z</time>
      </trkpt>
      <trkpt lat="49.94719" lon="2.14222">
        <ele>15.9</ele>
        <time>2023-06-28T10:48:51Z</time>
      </trkpt>
      <trkpt lat="49.94719" lon="2.14222">
        <ele>15.9</ele>
        <time>2023-06-28T10:48:52Z</time>
      </trkpt>
      <trkpt lat="49.94719" lon="2.14222">
        <ele>15.9</ele>
        <time>2023-06-28T10:48:53Z</time>
      </trkpt>
      <trkpt lat="49.94719" lon="2.14222">
        <ele>15.9</ele>
        <time>2023-06-28T10:48:54Z</time>
      </trkpt>
      <trkpt lat="49.94719" lon="2.14222">
        <ele>15.9</ele>
        <time>2023-06-28T10:48:55Z</time>
      </trkpt>
      <trkpt lat="49.94719" lon="2.14222">
        <ele>15.9</ele>
        <time>2023-06-28T10:48:56Z</time>
      </trkpt>
      <trkpt lat="49.94719" lon="2.14222">
        <ele>15.9</ele>
        <time>2023-06-28T10:48:57Z</time>
      </trkpt>
      <trkpt lat="49.94719" lon="2.14222">
        <ele>15.9</ele>
        <time>2023-06-28T10:48:58Z</time>
      </trkpt>
      <trkpt lat="49.94719" lon="2.14222">
        <ele>15.9</ele>
        <time>2023-06-28T10:48:59Z</time>
      </trkpt>
      <trkpt lat="49.94719" lon="2.14222">
        <ele>15.9</ele>
        <time>2023-06-28T10:49:00Z</time>
      </trkpt>
      <trkpt lat="49.94719" lon="2.14222">
        <ele>15.9</ele>
        <time>2023-06-28T10:49:01Z</time>
      </trkpt>
      <trkpt lat="49.94719" lon="2.14222">
        <ele>15.9</ele>
        <time>2023-06-28T10:49:02Z</time>
      </trkpt>
      <trkpt lat="49.94719" lon="2.14222">
        <ele>15.9</ele>
        <time>2023-06-28T10:49:03Z</time>
      </trkpt>
      <trkpt lat="49.94719" lon="2.14222">
        <ele>15.9</ele>
        <time>2023-06-28T10:49:04Z</time>
      </trkpt>
      <trkpt lat="49.94719" lon="2.14222">
        <ele>15.9</ele>
        <time>2023-06-28T10:49:05Z</time>
      </trkpt>
      <trkpt lat="49.94719" lon="2.14222">
        <ele>15.9</ele>
        <time>2023-06-28T10:49:06Z</time>
      </trkpt>
      <trkpt lat="49.94719" lon="2.14222">
        <ele>15.9</ele>
        <time>2023-06-28T10:49:07Z</time>
      </trkpt>
      <trkpt lat="49.94719" lon="2.14222">
        <ele>15.9</ele>
        <time>2023-06-28T10:49:08Z</time>
      </trkpt>
      <trkpt lat="49.94719" lon="2.14222">
        <ele>15.9</ele>
        <time>2023-06-28T10:49:09Z</time>
      </trkpt>
      <trkpt lat="49.94719" lon="2.14222">
        <ele>15.9</ele>
        <time>2023-06-28T10:49:10Z</time>
      </trkpt>
      <trkpt lat="49.94719" lon="2.14222">
        <ele>15.9</ele>
        <time>2023-06-28T10:49:11Z</time>
      </trkpt>
      <trkpt lat="49.94719" lon="2.14222">
        <ele>15.9</ele>
        <time>2023-06-28T10:49:12Z</time>
      </trkpt>
      <trkpt lat="49.94719" lon="2.14222">
        <ele>15.9</ele>
        <time>2023-06-28T10:49:13Z</time>
      </trkpt>
      <trkpt lat="49.94719" lon="2.14222">
        <ele>15.9</ele>
        <time>2023-06-28T10:49:14Z</time>
      </trkpt>
      <trkpt lat="49.94719" lon="2.14222">
        <ele>15.9</ele>
        <time>2023-06-28T10:49:15Z</time>
      </trkpt>
      <trkpt lat="49.94719" lon="2.14222">
        <ele>15.9</ele>
        <time>2023-06-28T10:49:16Z</time>
      </trkpt>
      <trkpt lat="49.94719" lon="2.14222">
        <ele>15.9</ele>
        <time>2023-06-28T10:49:17Z</time>
      </trkpt>
      <trkpt lat="49.94719" lon="2.14222">
        <ele>15.9</ele>
        <time>2023-06-28T10:49:18Z</time>
      </trkpt>
      <trkpt lat="49.94719" lon="2.14222">
        <ele>15.9</ele>
        <time>2023-06-28T10:49:19Z</time>
      </trkpt>
      <trkpt lat="49.94719" lon="2.14222">
        <ele>15.9</ele>
        <time>2023-06-28T10:49:20Z</time>
      </trkpt>
      <trkpt lat="49.94719" lon="2.14222">
        <ele>15.9</ele>
        <time>2023-06-28T10:49:21Z</time>
      </trkpt>
      <trkpt lat="49.94719" lon="2.14222">
        <ele>15.9</ele>
        <time>2023-06-28T10:49:22Z</time>
      </trkpt>
      <trkpt lat="49.94719" lon="2.14222">
        <ele>15.9</ele>
        <time>2023-06-28T10:49:23Z</time>
      </trkpt>
      <trkpt lat="49.94719" lon="2.14222">
        <ele>15.9</ele>
        <time>2023-06-28T10:49:24Z</time>
      </trkpt>
      <trkpt lat="49.94719" lon="2.14222">
        <ele>15.9</ele>
        <time>2023-06-28T10:49:25Z</time>
      </trkpt>
      <trkpt lat="49.94719" lon="2.14222">
        <ele>15.9</ele>
        <time>2023-06-28T10:49:26Z</time>
      </trkpt>
      <trkpt lat="49.94719" lon="2.14222">
        <ele>15.9</ele>
        <time>2023-06-28T10:49:27Z</time>
      </trkpt>
      <trkpt lat="49.94719" lon="2.14222">
        <ele>15.9</ele>
        <time>2023-06-28T10:49:28Z</time>
      </trkpt>
      <trkpt lat="49.94719" lon="2.14222">
        <ele>15.9</ele>
        <time>2023-06-28T10:49:29Z</time>
      </trkpt>
      <trkpt lat="49.94719" lon="2.14222">
        <ele>15.9</ele>
        <time>2023-06-28T10:49:30Z</time>
      </trkpt>
      <trkpt lat="49.94719" lon="2.14222">
        <ele>15.9</ele>
        <time>2023-06-28T10:49:31Z</time>
      </trkpt>
      <trkpt lat="49.94719" lon="2.14222">
        <ele>15.9</ele>
        <time>2023-06-28T10:49:32Z</time>
      </trkpt>
      <trkpt lat="49.94719" lon="2.14222">
        <ele>15.9</ele>
        <time>2023-06-28T10:49:33Z</time>
      </trkpt>
      <trkpt lat="49.94719" lon="2.14222">
        <ele>15.9</ele>
        <time>2023-06-28T10:49:34Z</time>
      </trkpt>
      <trkpt lat="49.94719" lon="2.14222">
        <ele>15.9</ele>
        <time>2023-06-28T10:49:35Z</time>
      </trkpt>
      <trkpt lat="49.94719" lon="2.14222">
        <ele>15.9</ele>
        <time>2023-06-28T10:49:36Z</time>
      </trkpt>
      <trkpt lat="49.94719" lon="2.14222">
        <ele>15.9</ele>
        <time>2023-06-28T10:49:37Z</time>
      </trkpt>
      <trkpt lat="49.94719" lon="2.14222">
        <ele>15.9</ele>
        <time>2023-06-28T10:49:38Z</time>
      </trkpt>
      <trkpt lat="49.94719" lon="2.14222">
        <ele>15.9</ele>
        <time>2023-06-28T10:49:39Z</time>
      </trkpt>
      <trkpt lat="49.94719" lon="2.14222">
        <ele>15.9</ele>
        <time>2023-06-28T10:49:40Z</time>
      </trkpt>
      <trkpt lat="49.94719" lon="2.14222">
        <ele>15.9</ele>
        <time>2023-06-28T10:49:41Z</time>
      </trkpt>
      <trkpt lat="49.94719" lon="2.14222">
        <ele>15.9</ele>
        <time>2023-06-28T10:49:42Z</time>
      </trkpt>
      <trkpt lat="49.94719" lon="2.14222">
        <ele>15.9</ele>
        <time>2023-06-28T10:49:43Z</time>
      </trkpt>
      <trkpt lat="49.94719" lon="2.14222">
        <ele>15.9</ele>
        <time>2023-06-28T10:49:44Z</time>
      </trkpt>
      <trkpt lat="49.94719" lon="2.14222">
        <ele>15.9</ele>
        <time>2023-06-28T10:49:45Z</time>
      </trkpt>
      <trkpt lat="49.94719" lon="2.14222">
        <ele>15.9</ele>
        <time>2023-06-28T10:49:46Z</time>
      </trkpt>
      <trkpt lat="49.94719" lon="2.14222">
        <ele>15.9</ele>
        <time>2023-06-28T10:49:47Z</time>
      </trkpt>
      <trkpt lat="49.94719" lon="2.14222">
        <ele>15.9</ele>
        <time>2023-06-28T10:49:48Z</time>
      </trkpt>
      <trkpt lat="49.94719" lon="2.14222">
        <ele>15.9</ele>
        <time>2023-06-28T10:49:49Z</time>
      </trkpt>
      <trkpt lat="49.94719" lon="2.14222">
        <ele>15.9</ele>
        <time>2023-06-28T10:49:50Z</time>
      </trkpt>
      <trkpt lat="49.94719" lon="2.14222">
        <ele>15.9</ele>
        <time>2023-06-28T10:49:51Z</time>
      </trkpt>
      <trkpt lat="49.94719" lon="2.14222">
        <ele>15.9</ele>
        <time>2023-06-28T10:49:52Z</time>
      </trkpt>
      <trkpt lat="49.94719" lon="2.14222">
        <ele>15.9</ele>
        <time>2023-06-28T10:49:53Z</time>
      </trkpt>
      <trkpt lat="49.94719" lon="2.14222">
        <ele>15.9</ele>
        <time>2023-06-28T10:49:54Z</time>
      </trkpt>
      <trkpt lat="49.94719" lon="2.14222">
        <ele>15.9</ele>
        <time>2023-06-28T10:49:55Z</time>
      </trkpt>
      <trkpt lat="49.94719" lon="2.14222">
        <ele>15.9</ele>
        <time>2023-06-28T10:49:56Z</time>
      </trkpt>
      <trkpt lat="49.94719" lon="2.14222">
        <ele>15.9</ele>
        <time>2023-06-28T10:49:57Z</time>
      </trkpt>
      <trkpt lat="49.94719" lon="2.14222">
        <ele>15.9</ele>
        <time>2023-06-28T10:49:58Z</time>
      </trkpt>
      <trkpt lat="49.94719" lon="2.14222">
        <ele>15.9</ele>
        <time>2023-06-28T10:49:59Z</time>
      </trkpt>
      <trkpt lat="49.94719" lon="2.14222">
        <ele>15.9</ele>
        <time>2023-06-28T10:50:00Z</time>
      </trkpt>
      <trkpt lat="49.94719" lon="2.14222">
        <ele>15.9</ele>
        <time>2023-06-28T10:50:01Z</time>
      </trkpt>
      <trkpt lat="49.94719" lon="2.14222">
        <ele>15.9</ele>
        <time>2023-06-28T10:50:02Z</time>
      </trkpt>
      <trkpt lat="49.94719" lon="2.14222">
        <ele>15.9</ele>
        <time>2023-06-28T10:50:03Z</time>
      </trkpt>
      <trkpt lat="49.94719" lon="2.14222">
        <ele>15.9</ele>
        <time>2023-06-28T10:50:04Z</time>
      </trkpt>
      <trkpt lat="49.94719" lon="2.14222">
        <ele>15.9</ele>
        <time>2023-06-28T10:50:05Z</time>
      </trkpt>
      <trkpt lat="49.94719" lon="2.14222">
        <ele>15.9</ele>
        <time>2023-06-28T10:50:06Z</time>
      </trkpt>
      <trkpt lat="49.94719" lon="2.14222">
        <ele>15.9</ele>
        <time>2023-06-28T10:50:07Z</time>
      </trkpt>
      <trkpt lat="49.94719" lon="2.14222">
        <ele>15.9</ele>
        <time>2023-06-28T10:50:08Z</time>
      </trkpt>
      <trkpt lat="49.94719" lon="2.14222">
        <ele>15.9</ele>
        <time>2023-06-28T10:50:09Z</time>
      </trkpt>
      <trkpt lat="49.94719" lon="2.14222">
        <ele>15.9</ele>
        <time>2023-06-28T10:50:10Z</time>
      </trkpt>
      <trkpt lat="49.94719" lon="2.14222">
        <ele>15.9</ele>
        <time>2023-06-28T10:50:11Z</time>
      </trkpt>
      <trkpt lat="49.94719" lon="2.14222">
        <ele>15.9</ele>
        <time>2023-06-28T10:50:12Z</time>
      </trkpt>
      <trkpt lat="49.94719" lon="2.14222">
        <ele>15.9</ele>
        <time>2023-06-28T10:50:13Z</time>
      </trkpt>
      <trkpt lat="49.94719" lon="2.14222">
        <ele>15.9</ele>
        <time>2023-06-28T10:50:14Z</time>
      </trkpt>
      <trkpt lat="49.94719" lon="2.14222">
        <ele>15.9</ele>
        <time>2023-06-28T10:50:15Z</time>
      </trkpt>
      <trkpt lat="49.94719" lon="2.14222">
        <ele>15.9</ele>
        <time>2023-06-28T10:50:16Z</time>
      </trkpt>
      <trkpt lat="49.94719" lon="2.14222">
        <ele>15.9</ele>
        <time>2023-06-28T10:50:17Z</time>
      </trkpt>
      <trkpt lat="49.94719" lon="2.14222">
        <ele>15.9</ele>
        <time>2023-06-28T10:50:18Z</time>
      </trkpt>
      <trkpt lat="49.94719" lon="2.14222">
        <ele>15.9</ele>
        <time>2023-06-28T10:50:19Z</time>
      </trkpt>
      <trkpt lat="49.94719" lon="2.14222">
        <ele>15.9</ele>
        <time>2023-06-28T10:50:20Z</time>
      </trkpt>
      <trkpt lat="49.94719" lon="2.14222">
        <ele>15.9</ele>
        <time>2023-06-28T10:50:21Z</time>
      </trkpt>
      <trkpt lat="49.94719" lon="2.14222">
        <ele>15.9</ele>
        <time>2023-06-28T10:50:22Z</time>
      </trkpt>
      <trkpt lat="49.94719" lon="2.14222">
        <ele>15.9</ele>
        <time>2023-06-28T10:50:23Z</time>
      </trkpt>
      <trkpt lat="49.94719" lon="2.14222">
        <ele>15.9</ele>
        <time>2023-06-28T10:50:24Z</time>
      </trkpt>
      <trkpt lat="49.94719" lon="2.14222">
        <ele>15.9</ele>
        <time>2023-06-28T10:50:25Z</time>
      </trkpt>
      <trkpt lat="49.94719" lon="2.14222">
        <ele>15.9</ele>
        <time>2023-06-28T10:50:26Z</time>
      </trkpt>
      <trkpt lat="49.94719" lon="2.14222">
        <ele>15.9</ele>
        <time>2023-06-28T10:50:27Z</time>
      </trkpt>
      <trkpt lat="49.94719" lon="2.14222">
        <ele>15.9</ele>
        <time>2023-06-28T10:50:28Z</time>
      </trkpt>
      <trkpt lat="49.94719" lon="2.14222">
        <ele>15.9</ele>
        <time>2023-06-28T10:50:29Z</time>
      </trkpt>
      <trkpt lat="49.94719" lon="2.14222">
        <ele>15.9</ele>
        <time>2023-06-28T10:50:30Z</time>
      </trkpt>
      <trkpt lat="49.94719" lon="2.14222">
        <ele>15.9</ele>
        <time>2023-06-28T10:50:31Z</time>
      </trkpt>
      <trkpt lat="49.94719" lon="2.14222">
        <ele>15.9</ele>
        <time>2023-06-28T10:50:32Z</time>
      </trkpt>
      <trkpt lat="49.94719" lon="2.14222">
        <ele>15.9</ele>
        <time>2023-06-28T10:50:33Z</time>
      </trkpt>
      <trkpt lat="49.94719" lon="2.14222">
        <ele>15.9</ele>
        <time>2023-06-28T10:50:34Z</time>
      </trkpt>
      <trkpt lat="49.94719" lon="2.14222">
        <ele>15.9</ele>
        <time>2023-06-28T10:50:35Z</time>
      </trkpt>
      <trkpt lat="49.94719" lon="2.14222">
        <ele>15.9</ele>
        <time>2023-06-28T10:50:36Z</time>
      </trkpt>
      <trkpt lat="49.94719" lon="2.14222">
        <ele>15.9</ele>
        <time>2023-06-28T10:50:37Z</time>
      </trkpt>
      <trkpt lat="49.94719" lon="2.14222">
        <ele>15.9</ele>
        <time>2023-06-28T10:50:38Z</time>
      </trkpt>
      <trkpt lat="49.94719" lon="2.14222">
        <ele>15.9</ele>
        <time>2023-06-28T10:50:39Z</time>
      </trkpt>
      <trkpt lat="49.94719" lon="2.14222">
        <ele>15.9</ele>
        <time>2023-06-28T10:50:40Z</time>
      </trkpt>
      <trkpt lat="49.94719" lon="2.14222">
        <ele>15.9</ele>
        <time>2023-06-28T10:50:41Z</time>
      </trkpt>
      <trkpt lat="49.94719" lon="2.14222">
        <ele>15.9</ele>
        <time>2023-06-28T10:50:42Z</time>
      </trkpt>
      <trkpt lat="49.94719" lon="2.14222">
        <ele>15.9</ele>
        <time>2023-06-28T10:50:43Z</time>
      </trkpt>
      <trkpt lat="49.94719" lon="2.14222">
        <ele>15.9</ele>
        <time>2023-06-28T10:50:44Z</time>
      </trkpt>
      <trkpt lat="49.94719" lon="2.14222">
        <ele>15.9</ele>
        <time>2023-06-28T10:50:45Z</time>
      </trkpt>
      <trkpt lat="49.94719" lon="2.14222">
        <ele>15.9</ele>
        <time>2023-06-28T10:50:46Z</time>
      </trkpt>
      <trkpt lat="49.94719" lon="2.14222">
        <ele>15.9</ele>
        <time>2023-06-28T10:50:47Z</time>
      </trkpt>
      <trkpt lat="49.94719" lon="2.14222">
        <ele>15.9</ele>
        <time>2023-06-28T10:50:48Z</time>
      </trkpt>
      <trkpt lat="49.94719" lon="2.14222">
        <ele>15.9</ele>
        <time>2023-06-28T10:50:49Z</time>
      </trkpt>
      <trkpt lat="49.94719" lon="2.14222">
        <ele>15.9</ele>
        <time>2023-06-28T10:50:50Z</time>
      </trkpt>
      <trkpt lat="49.94719" lon="2.14222">
        <ele>15.9</ele>
        <time>2023-06-28T10:50:51Z</time>
      </trkpt>
      <trkpt lat="49.94719" lon="2.14222">
        <ele>15.9</ele>
        <time>2023-06-28T10:50:52Z</time>
      </trkpt>
      <trkpt lat="49.94719" lon="2.14222">
        <ele>15.9</ele>
        <time>2023-06-28T10:50:53Z</time>
      </trkpt>
      <trkpt lat="49.94719" lon="2.14222">
        <ele>15.9</ele>
        <time>2023-06-28T10:50:54Z</time>
      </trkpt>
      <trkpt lat="49.94719" lon="2.14222">
        <ele>15.9</ele>
        <time>2023-06-28T10:50:55Z</time>
      </trkpt>
      <trkpt lat="49.94719" lon="2.14222">
        <ele>15.9</ele>
        <time>2023-06-28T10:50:56Z</time>
      </trkpt>
      <trkpt lat="49.94719" lon="2.14222">
        <ele>15.9</ele>
        <time>2023-06-28T10:50:57Z</time>
      </trkpt>
      <trkpt lat="49.94719" lon="2.14222">
        <ele>15.9</ele>
        <time>2023-06-28T10:50:58Z</time>
      </trkpt>
      <trkpt lat="49.94719" lon="2.14222">
        <ele>15.9</ele>
        <time>2023-06-28T10:50:59Z</time>
      </trkpt>
      <trkpt lat="49.94719" lon="2.14222">
        <ele>15.9</ele>
        <time>2023-06-28T10:51:00Z</time>
      </trkpt>
      <trkpt lat="49.94719" lon="2.14222">
        <ele>15.9</ele>
        <time>2023-06-28T10:51:01Z</time>
      </trkpt>
      <trkpt lat="49.94719" lon="2.14222">
        <ele>15.9</ele>
        <time>2023-06-28T10:51:02Z</time>
      </trkpt>
      <trkpt lat="49.94719" lon="2.14222">
        <ele>15.9</ele>
        <time>2023-06-28T10:51:03Z</time>
      </trkpt>
      <trkpt lat="49.94719" lon="2.14222">
        <ele>15.9</ele>
        <time>2023-06-28T10:51:04Z</time>
      </trkpt>
      <trkpt lat="49.94719" lon="2.14222">
        <ele>15.9</ele>
        <time>2023-06-28T10:51:05Z</time>
      </trkpt>
      <trkpt lat="49.94719" lon="2.14222">
        <ele>15.9</ele>
        <time>2023-06-28T10:51:06Z</time>
      </trkpt>
      <trkpt lat="49.94719" lon="2.14222">
        <ele>15.9</ele>
        <time>2023-06-28T10:51:07Z</time>
      </trkpt>
      <trkpt lat="49.94719" lon="2.14222">
        <ele>15.9</ele>
        <time>2023-06-28T10:51:08Z</time>
      </trkpt>
      <trkpt lat="49.94719" lon="2.14222">
        <ele>15.9</ele>
        <time>2023-06-28T10:51:09Z</time>
      </trkpt>
      <trkpt lat="49.94719" lon="2.14222">
        <ele>15.9</ele>
        <time>2023-06-28T10:51:10Z</time>
      </trkpt>
      <trkpt lat="49.94719" lon="2.14222">
        <ele>15.9</ele>
        <time>2023-06-28T10:51:11Z</time>
      </trkpt>
      <trkpt lat="49.94719" lon="2.14222">
        <ele>15.9</ele>
        <time>2023-06-28T10:51:12Z</time>
      </trkpt>
      <trkpt lat="49.94719" lon="2.14222">
        <ele>15.9</ele>
        <time>2023-06-28T10:51:13Z</time>
      </trkpt>
      <trkpt lat="49.94719" lon="2.14222">
        <ele>15.9</ele>
        <time>2023-06-28T10:51:14Z</time>
      </trkpt>
      <trkpt lat="49.94719" lon="2.14222">
        <ele>15.9</ele>
        <time>2023-06-28T10:51:15Z</time>
      </trkpt>
      <trkpt lat="49.94719" lon="2.14222">
        <ele>15.9</ele>
        <time>2023-06-28T10:51:16Z</time>
      </trkpt>
      <trkpt lat="49.94719" lon="2.14222">
        <ele>15.9</ele>
        <time>2023-06-28T10:51:17Z</time>
      </trkpt>
      <trkpt lat="49.94719" lon="2.14222">
        <ele>15.9</ele>
        <time>2023-06-28T10:51:18Z</time>
      </trkpt>
      <trkpt lat="49.94719" lon="2.14222">
        <ele>15.9</ele>
        <time>2023-06-28T10:51:19Z</time>
      </trkpt>
      <trkpt lat="49.94719" lon="2.14222">
        <ele>15.9</ele>
        <time>2023-06-28T10:51:20Z</time>
      </trkpt>
      <trkpt lat="49.94719" lon="2.14222">
        <ele>15.9</ele>
        <time>2023-06-28T10:51:21Z</time>
      </trkpt>
      <trkpt lat="49.94719" lon="2.14222">
        <ele>15.9</ele>
        <time>2023-06-28T10:51:22Z</time>
      </trkpt>
      <trkpt lat="49.94719" lon="2.14222">
        <ele>15.9</ele>
        <time>2023-06-28T10:51:23Z</time>
      </trkpt>
      <trkpt lat="49.94719" lon="2.14222">
        <ele>15.9</ele>
        <time>2023-06-28T10:51:24Z</time>
      </trkpt>
      <trkpt lat="49.94719" lon="2.14222">
        <ele>15.9</ele>
        <time>2023-06-28T10:51:25Z</time>
      </trkpt>
      <trkpt lat="49.94719" lon="2.14222">
        <ele>15.9</ele>
        <time>2023-06-28T10:51:26Z</time>
      </trkpt>
      <trkpt lat="49.94719" lon="2.14222">
        <ele>15.9</ele>
        <time>2023-06-28T10:51:27Z</time>
      </trkpt>
      <trkpt lat="49.94719" lon="2.14222">
        <ele>15.9</ele>
        <time>2023-06-28T10:51:28Z</time>
      </trkpt>
      <trkpt lat="49.94719" lon="2.14222">
        <ele>15.9</ele>
        <time>2023-06-28T10:51:29Z</time>
      </trkpt>
      <trkpt lat="49.94719" lon="2.14222">
        <ele>15.9</ele>
        <time>2023-06-28T10:51:30Z</time>
      </trkpt>
      <trkpt lat="49.94719" lon="2.14222">
        <ele>15.9</ele>
        <time>2023-06-28T10:51:31Z</time>
      </trkpt>
      <trkpt lat="49.94719" lon="2.14222">
        <ele>15.9</ele>
        <time>2023-06-28T10:51:32Z</time>
      </trkpt>
      <trkpt lat="49.94719" lon="2.14222">
        <ele>15.9</ele>
        <time>2023-06-28T10:51:33Z</time>
      </trkpt>
      <trkpt lat="49.94719" lon="2.14222">
        <ele>15.9</ele>
        <time>2023-06-28T10:51:34Z</time>
      </trkpt>
      <trkpt lat="49.94719" lon="2.14222">
        <ele>15.9</ele>
        <time>2023-06-28T10:51:35Z</time>
      </trkpt>
      <trkpt lat="49.94719" lon="2.14222">
        <ele>15.9</ele>
        <time>2023-06-28T10:51:36Z</time>
      </trkpt>
      <trkpt lat="49.94719" lon="2.14222">
        <ele>15.9</ele>
        <time>2023-06-28T10:51:37Z</time>
      </trkpt>
      <trkpt lat="49.94719" lon="2.14222">
        <ele>15.9</ele>
        <time>2023-06-28T10:51:38Z</time>
      </trkpt>
      <trkpt lat="49.94719" lon="2.14222">
        <ele>15.9</ele>
        <time>2023-06-28T10:51:39Z</time>
      </trkpt>
      <trkpt lat="49.94719" lon="2.14222">
        <ele>15.9</ele>
        <time>2023-06-28T10:51:40Z</time>
      </trkpt>
      <trkpt lat="49.94719" lon="2.14222">
        <ele>15.9</ele>
        <time>2023-06-28T10:51:41Z</time>
      </trkpt>
      <trkpt lat="49.94719" lon="2.14222">
        <ele>15.9</ele>
        <time>2023-06-28T10:51:42Z</time>
      </trkpt>
      <trkpt lat="49.94719" lon="2.14222">
        <ele>15.9</ele>
        <time>2023-06-28T10:51:43Z</time>
      </trkpt>
      <trkpt lat="49.94719" lon="2.14222">
        <ele>15.9</ele>
        <time>2023-06-28T10:51:44Z</time>
      </trkpt>
      <trkpt lat="49.94719" lon="2.14222">
        <ele>15.9</ele>
        <time>2023-06-28T10:51:45Z</time>
      </trkpt>
      <trkpt lat="49.94719" lon="2.14222">
        <ele>15.9</ele>
        <time>2023-06-28T10:51:46Z</time>
      </trkpt>
      <trkpt lat="49.94719" lon="2.14222">
        <ele>15.9</ele>
        <time>2023-06-28T10:51:47Z</time>
      </trkpt>
      <trkpt lat="49.94719" lon="2.14222">
        <ele>15.9</ele>
        <time>2023-06-28T10:51:48Z</time>
      </trkpt>
      <trkpt lat="49.94719" lon="2.14222">
        <ele>15.9</ele>
        <time>2023-06-28T10:51:49Z</time>
      </trkpt>
      <trkpt lat="49.94719" lon="2.14222">
        <ele>15.9</ele>
        <time>2023-06-28T10:51:50Z</time>
      </trkpt>
      <trkpt lat="49.94719" lon="2.14222">
        <ele>15.9</ele>
        <time>2023-06-28T10:51:51Z</time>
      </trkpt>
      <trkpt lat="49.94719" lon="2.14222">
        <ele>15.9</ele>
        <time>2023-06-28T10:51:52Z</time>
      </trkpt>
      <trkpt lat="49.94719" lon="2.14222">
        <ele>15.9</ele>
        <time>2023-06-28T10:51:53Z</time>
      </trkpt>
      <trkpt lat="49.94719" lon="2.14222">
        <ele>15.9</ele>
        <time>2023-06-28T10:51:54Z</time>
      </trkpt>
      <trkpt lat="49.94719" lon="2.14222">
        <ele>15.9</ele>
        <time>2023-06-28T10:51:55Z</time>
      </trkpt>
      <trkpt lat="49.94719" lon="2.14222">
        <ele>15.9</ele>
        <time>2023-06-28T10:51:56Z</time>
      </trkpt>
      <trkpt lat="49.94719" lon="2.14222">
        <ele>15.9</ele>
        <time>2023-06-28T10:51:57Z</time>
      </trkpt>
      <trkpt lat="49.94719" lon="2.14222">
        <ele>15.9</ele>
        <time>2023-06-28T10:51:58Z</time>
      </trkpt>
      <trkpt lat="49.94719" lon="2.14222">
        <ele>15.9</ele>
        <time>2023-06-28T10:51:59Z</time>
      </trkpt>
      <trkpt lat="49.94719" lon="2.14222">
        <ele>15.9</ele>
        <time>2023-06-28T10:52:00Z</time>
      </trkpt>
      <trkpt lat="49.94719" lon="2.14222">
        <ele>15.9</ele>
        <time>2023-06-28T10:52:01Z</time>
      </trkpt>
      <trkpt lat="49.94719" lon="2.14222">
        <ele>15.9</ele>
        <time>2023-06-28T10:52:02Z</time>
      </trkpt>
      <trkpt lat="49.94719" lon="2.14222">
        <ele>15.9</ele>
        <time>2023-06-28T10:52:03Z</time>
      </trkpt>
      <trkpt lat="49.94719" lon="2.14222">
        <ele>15.9</ele>
        <time>2023-06-28T10:52:04Z</time>
      </trkpt>
      <trkpt lat="49.94719" lon="2.14222">
        <ele>15.9</ele>
        <time>2023-06-28T10:52:05Z</time>
      </trkpt>
      <trkpt lat="49.94719" lon="2.14222">
        <ele>15.9</ele>
        <time>2023-06-28T10:52:06Z</time>
      </trkpt>
      <trkpt lat="49.94719" lon="2.14222">
        <ele>15.9</ele>
        <time>2023-06-28T10:52:07Z</time>
      </trkpt>
      <trkpt lat="49.94719" lon="2.14222">
        <ele>15.9</ele>
        <time>2023-06-28T10:52:08Z</time>
      </trkpt>
      <trkpt lat="49.94719" lon="2.14222">
        <ele>15.9</ele>
        <time>2023-06-28T10:52:09Z</time>
      </trkpt>
      <trkpt lat="49.94719" lon="2.14222">
        <ele>15.9</ele>
        <time>2023-06-28T10:52:10Z</time>
      </trkpt>
      <trkpt lat="49.94719" lon="2.14222">
        <ele>15.9</ele>
        <time>2023-06-28T10:52:11Z</time>
      </trkpt>
      <trkpt lat="49.94719" lon="2.14222">
        <ele>15.9</ele>
        <time>2023-06-28T10:52:12Z</time>
      </trkpt>
      <trkpt lat="49.94719" lon="2.14222">
        <ele>15.9</ele>
        <time>2023-06-28T10:52:13Z</time>
      </trkpt>
      <trkpt lat="49.94719" lon="2.14222">
        <ele>15.9</ele>
        <time>2023-06-28T10:52:14Z</time>
      </trkpt>
      <trkpt lat="49.94719" lon="2.14222">
        <ele>15.9</ele>
        <time>2023-06-28T10:52:15Z</time>
      </trkpt>
      <trkpt lat="49.94719" lon="2.14222">
        <ele>15.9</ele>
        <time>2023-06-28T10:52:16Z</time>
      </trkpt>
      <trkpt lat="49.94719" lon="2.14222">
        <ele>15.9</ele>
        <time>2023-06-28T10:52:17Z</time>
      </trkpt>
      <trkpt lat="49.94719" lon="2.14222">
        <ele>15.9</ele>
        <time>2023-06-28T10:52:18Z</time>
      </trkpt>
      <trkpt lat="49.94719" lon="2.14222">
        <ele>15.9</ele>
        <time>2023-06-28T10:52:19Z</time>
      </trkpt>
      <trkpt lat="49.94719" lon="2.14222">
        <ele>15.9</ele>
        <time>2023-06-28T10:52:20Z</time>
      </trkpt>
      <trkpt lat="49.94719" lon="2.14222">
        <ele>15.9</ele>
        <time>2023-06-28T10:52:21Z</time>
      </trkpt>
      <trkpt lat="49.94719" lon="2.14222">
        <ele>15.9</ele>
        <time>2023-06-28T10:52:22Z</time>
      </trkpt>
      <trkpt lat="49.94719" lon="2.14222">
        <ele>15.9</ele>
        <time>2023-06-28T10:52:23Z</time>
      </trkpt>
      <trkpt lat="49.94719" lon="2.14222">
        <ele>15.9</ele>
        <time>2023-06-28T10:52:24Z</time>
      </trkpt>
      <trkpt lat="49.94719" lon="2.14222">
        <ele>15.9</ele>
        <time>2023-06-28T10:52:25Z</time>
      </trkpt>
      <trkpt lat="49.94719" lon="2.14222">
        <ele>15.9</ele>
        <time>2023-06-28T10:52:26Z</time>
      </trkpt>
      <trkpt lat="49.94719" lon="2.14222">
        <ele>15.9</ele>
        <time>2023-06-28T10:52:27Z</time>
      </trkpt>
      <trkpt lat="49.94719" lon="2.14222">
        <ele>15.9</ele>
        <time>2023-06-28T10:52:28Z</time>
      </trkpt>
      <trkpt lat="49.94719" lon="2.14222">
        <ele>15.9</ele>
        <time>2023-06-28T10:52:29Z</time>
      </trkpt>
      <trkpt lat="49.94719" lon="2.14222">
        <ele>15.9</ele>
        <time>2023-06-28T10:52:30Z</time>
      </trkpt>
      <trkpt lat="49.94719" lon="2.14222">
        <ele>15.9</ele>
        <time>2023-06-28T10:52:31Z</time>
      </trkpt>
      <trkpt lat="49.94719" lon="2.14222">
        <ele>15.9</ele>
        <time>2023-06-28T10:52:32Z</time>
      </trkpt>
      <trkpt lat="49.94719" lon="2.14222">
        <ele>15.9</ele>
        <time>2023-06-28T10:52:33Z</time>
      </trkpt>
      <trkpt lat="49.94719" lon="2.14222">
        <ele>15.9</ele>
        <time>2023-06-28T10:52:34Z</time>
      </trkpt>
      <trkpt lat="49.94719" lon="2.14222">
        <ele>15.9</ele>
        <time>2023-06-28T10:52:35Z</time>
      </trkpt>
      <trkpt lat="49.94719" lon="2.14222">
        <ele>15.9</ele>
        <time>2023-06-28T10:52:36Z</time>
      </trkpt>
      <trkpt lat="49.94719" lon="2.14222">
        <ele>15.9</ele>
        <time>2023-06-28T10:52:37Z</time>
      </trkpt>
      <trkpt lat="49.94719" lon="2.14222">
        <ele>15.9</ele>
        <time>2023-06-28T10:52:38Z</time>
      </trkpt>
      <trkpt lat="49.94719" lon="2.14222">
        <ele>15.9</ele>
        <time>2023-06-28T10:52:39Z</time>
      </trkpt>
      <trkpt lat="49.94719" lon="2.14222">
        <ele>15.9</ele>
        <time>2023-06-28T10:52:40Z</time>
      </trkpt>
      <trkpt lat="49.94719" lon="2.14222">
        <ele>15.9</ele>
        <time>2023-06-28T10:52:41Z</time>
      </trkpt>
      <trkpt lat="49.94719" lon="2.14222">
        <ele>15.9</ele>
        <time>2023-06-28T10:52:42Z</time>
      </trkpt>
      <trkpt lat="49.94719" lon="2.14222">
        <ele>15.9</ele>
        <time>2023-06-28T10:52:43Z</time>
      </trkpt>
      <trkpt lat="49.94719" lon="2.14222">
        <ele>15.9</ele>
        <time>2023-06-28T10:52:44Z</time>
      </trkpt>
      <trkpt lat="49.94719" lon="2.14222">
        <ele>15.9</ele>
        <time>2023-06-28T10:52:45Z</time>
      </trkpt>
      <trkpt lat="49.94719" lon="2.14222">
        <ele>15.9</ele>
        <time>2023-06-28T10:52:46Z</time>
      </trkpt>
      <trkpt lat="49.94719" lon="2.14222">
        <ele>15.9</ele>
        <time>2023-06-28T10:52:47Z</time>
      </trkpt>
      <trkpt lat="49.94719" lon="2.14222">
        <ele>15.9</ele>
        <time>2023-06-28T10:52:48Z</time>
      </trkpt>
      <trkpt lat="49.94719" lon="2.14222">
        <ele>15.9</ele>
        <time>2023-06-28T10:52:49Z</time>
      </trkpt>
      <trkpt lat="49.94719" lon="2.14222">
        <ele>15.9</ele>
        <time>2023-06-28T10:52:50Z</time>
      </trkpt>
      <trkpt lat="49.94719" lon="2.14222">
        <ele>15.9</ele>
        <time>2023-06-28T10:52:51Z</time>
      </trkpt>
      <trkpt lat="49.94719" lon="2.14222">
        <ele>15.9</ele>
        <time>2023-06-28T10:52:52Z</time>
      </trkpt>
      <trkpt lat="49.94719" lon="2.14222">
        <ele>15.9</ele>
        <time>2023-06-28T10:52:53Z</time>
      </trkpt>
      <trkpt lat="49.94719" lon="2.14222">
        <ele>15.9</ele>
        <time>2023-06-28T10:52:54Z</time>
      </trkpt>
      <trkpt lat="49.94719" lon="2.14222">
        <ele>15.9</ele>
        <time>2023-06-28T10:52:55Z</time>
      </trkpt>
      <trkpt lat="49.94719" lon="2.14222">
        <ele>15.9</ele>
        <time>2023-06-28T10:52:56Z</time>
      </trkpt>
      <trkpt lat="49.94719" lon="2.14222">
        <ele>15.9</ele>
        <time>2023-06-28T10:52:57Z</time>
      </trkpt>
      <trkpt lat="49.94719" lon="2.14222">
        <ele>15.9</ele>
        <time>2023-06-28T10:52:58Z</time>
      </trkpt>
      <trkpt lat="49.94719" lon="2.14222">
        <ele>15.9</ele>
        <time>2023-06-28T10:52:59Z</time>
      </trkpt>
      <trkpt lat="49.94719" lon="2.14222">
        <ele>15.9</ele>
        <time>2023-06-28T10:53:00Z</time>
      </trkpt>
      <trkpt lat="49.94719" lon="2.14222">
        <ele>15.9</ele>
        <time>2023-06-28T10:53:01Z</time>
      </trkpt>
      <trkpt lat="49.94719" lon="2.14222">
        <ele>15.9</ele>
        <time>2023-06-28T10:53:02Z</time>
      </trkpt>
      <trkpt lat="49.94719" lon="2.14222">
        <ele>15.9</ele>
        <time>2023-06-28T10:53:03Z</time>
      </trkpt>
      <trkpt lat="49.94719" lon="2.14222">
        <ele>15.9</ele>
        <time>2023-06-28T10:53:04Z</time>
      </trkpt>
      <trkpt lat="49.94719" lon="2.14222">
        <ele>15.9</ele>
        <time>2023-06-28T10:53:05Z</time>
      </trkpt>
      <trkpt lat="49.94719" lon="2.14222">
        <ele>15.9</ele>
        <time>2023-06-28T10:53:06Z</time>
      </trkpt>
      <trkpt lat="49.94719" lon="2.14222">
        <ele>15.9</ele>
        <time>2023-06-28T10:53:07Z</time>
      </trkpt>
      <trkpt lat="49.94719" lon="2.14222">
        <ele>15.9</ele>
        <time>2023-06-28T10:53:08Z</time>
      </trkpt>
      <trkpt lat="49.94719" lon="2.14222">
        <ele>15.9</ele>
        <time>2023-06-28T10:53:09Z</time>
      </trkpt>
      <trkpt lat="49.94719" lon="2.14222">
        <ele>15.9</ele>
        <time>2023-06-28T10:53:10Z</time>
      </trkpt>
      <trkpt lat="49.94719" lon="2.14222">
        <ele>15.9</ele>
        <time>2023-06-28T10:53:11Z</time>
      </trkpt>
      <trkpt lat="49.94719" lon="2.14222">
        <ele>15.9</ele>
        <time>2023-06-28T10:53:12Z</time>
      </trkpt>
      <trkpt lat="49.94719" lon="2.14222">
        <ele>15.9</ele>
        <time>2023-06-28T10:53:13Z</time>
      </trkpt>
      <trkpt lat="49.94719" lon="2.14222">
        <ele>15.9</ele>
        <time>2023-06-28T10:53:14Z</time>
      </trkpt>
      <trkpt lat="49.94719" lon="2.14222">
        <ele>15.9</ele>
        <time>2023-06-28T10:53:15Z</time>
      </trkpt>
      <trkpt lat="49.94719" lon="2.14222">
        <ele>15.9</ele>
        <time>2023-06-28T10:53:16Z</time>
      </trkpt>
      <trkpt lat="49.94719" lon="2.14222">
        <ele>15.9</ele>
        <time>2023-06-28T10:53:17Z</time>
      </trkpt>
      <trkpt lat="49.94719" lon="2.14222">
        <ele>15.9</ele>
        <time>2023-06-28T10:53:18Z</time>
      </trkpt>
      <trkpt lat="49.94719" lon="2.14222">
        <ele>15.9</ele>
        <time>2023-06-28T10:53:19Z</time>
      </trkpt>
      <trkpt lat="49.94719" lon="2.14222">
        <ele>15.9</ele>
        <time>2023-06-28T10:53:20Z</time>
      </trkpt>
      <trkpt lat="49.94719" lon="2.14222">
        <ele>15.9</ele>
        <time>2023-06-28T10:53:21Z</time>
      </trkpt>
      <trkpt lat="49.94719" lon="2.14222">
        <ele>15.9</ele>
        <time>2023-06-28T10:53:22Z</time>
      </trkpt>
      <trkpt lat="49.94719" lon="2.14222">
        <ele>15.9</ele>
        <time>2023-06-28T10:53:23Z</time>
      </trkpt>
      <trkpt lat="49.94719" lon="2.14222">
        <ele>15.9</ele>
        <time>2023-06-28T10:53:24Z</time>
      </trkpt>
      <trkpt lat="49.94719" lon="2.14222">
        <ele>15.9</ele>
        <time>2023-06-28T10:53:25Z</time>
      </trkpt>
      <trkpt lat="49.94719" lon="2.14222">
        <ele>15.9</ele>
        <time>2023-06-28T10:53:26Z</time>
      </trkpt>
      <trkpt lat="49.94719" lon="2.14222">
        <ele>15.9</ele>
        <time>2023-06-28T10:53:27Z</time>
      </trkpt>
      <trkpt lat="49.94719" lon="2.14222">
        <ele>15.9</ele>
        <time>2023-06-28T10:53:28Z</time>
      </trkpt>
      <trkpt lat="49.94719" lon="2.14222">
        <ele>15.9</ele>
        <time>2023-06-28T10:53:29Z</time>
      </trkpt>
      <trkpt lat="49.94719" lon="2.14222">
        <ele>15.9</ele>
        <time>2023-06-28T10:53:30Z</time>
      </trkpt>
      <trkpt lat="49.94719" lon="2.14222">
        <ele>15.9</ele>
        <time>2023-06-28T10:53:31Z</time>
      </trkpt>
      <trkpt lat="49.94719" lon="2.14222">
        <ele>15.9</ele>
        <time>2023-06-28T10:53:32Z</time>
      </trkpt>
      <trkpt lat="49.94719" lon="2.14222">
        <ele>15.9</ele>
        <time>2023-06-28T10:53:33Z</time>
      </trkpt>
      <trkpt lat="49.94719" lon="2.14222">
        <ele>15.9</ele>
        <time>2023-06-28T10:53:34Z</time>
      </trkpt>
      <trkpt lat="49.94719" lon="2.14222">
        <ele>15.9</ele>
        <time>2023-06-28T10:53:35Z</time>
      </trkpt>
      <trkpt lat="49.94719" lon="2.14222">
        <ele>15.9</ele>
        <time>2023-06-28T10:53:36Z</time>
      </trkpt>
      <trkpt lat="49.94719" lon="2.14222">
        <ele>15.9</ele>
        <time>2023-06-28T10:53:37Z</time>
      </trkpt>
      <trkpt lat="49.94719" lon="2.14222">
        <ele>15.9</ele>
        <time>2023-06-28T10:53:38Z</time>
      </trkpt>
      <trkpt lat="49.94719" lon="2.14222">
        <ele>15.9</ele>
        <time>2023-06-28T10:53:39Z</time>
      </trkpt>
      <trkpt lat="49.94719" lon="2.14222">
        <ele>15.9</ele>
        <time>2023-06-28T10:53:40Z</time>
      </trkpt>
      <trkpt lat="49.94719" lon="2.14222">
        <ele>15.9</ele>
        <time>2023-06-28T10:53:41Z</time>
      </trkpt>
      <trkpt lat="49.94719" lon="2.14222">
        <ele>15.9</ele>
        <time>2023-06-28T10:53:42Z</time>
      </trkpt>
      <trkpt lat="49.94719" lon="2.14222">
        <ele>15.9</ele>
        <time>2023-06-28T10:53:43Z</time>
      </trkpt>
      <trkpt lat="49.94719" lon="2.14222">
        <ele>15.9</ele>
        <time>2023-06-28T10:53:44Z</time>
      </trkpt>
      <trkpt lat="49.94719" lon="2.14222">
        <ele>15.9</ele>
        <time>2023-06-28T10:53:45Z</time>
      </trkpt>
      <trkpt lat="49.94719" lon="2.14222">
        <ele>15.9</ele>
        <time>2023-06-28T10:53:46Z</time>
      </trkpt>
      <trkpt lat="49.94719" lon="2.14222">
        <ele>15.9</ele>
        <time>2023-06-28T10:53:47Z</time>
      </trkpt>
      <trkpt lat="49.94719" lon="2.14222">
        <ele>15.9</ele>
        <time>2023-06-28T10:53:48Z</time>
      </trkpt>
      <trkpt lat="49.94719" lon="2.14222">
        <ele>15.9</ele>
        <time>2023-06-28T10:53:49Z</time>
      </trkpt>
      <trkpt lat="49.94719" lon="2.14222">
        <ele>15.9</ele>
        <time>2023-06-28T10:53:50Z</time>
      </trkpt>
      <trkpt lat="49.94719" lon="2.14222">
        <ele>15.9</ele>
        <time>2023-06-28T10:53:51Z</time>
      </trkpt>
      <trkpt lat="49.94719" lon="2.14222">
        <ele>15.9</ele>
        <time>2023-06-28T10:53:52Z</time>
      </trkpt>
      <trkpt lat="49.94719" lon="2.14222">
        <ele>15.9</ele>
        <time>2023-06-28T10:53:53Z</time>
      </trkpt>
      <trkpt lat="49.94719" lon="2.14222">
        <ele>15.9</ele>
        <time>2023-06-28T10:53:54Z</time>
      </trkpt>
      <trkpt lat="49.94719" lon="2.14222">
        <ele>15.9</ele>
        <time>2023-06-28T10:53:55Z</time>
      </trkpt>
      <trkpt lat="49.94719" lon="2.14222">
        <ele>15.9</ele>
        <time>2023-06-28T10:53:56Z</time>
      </trkpt>
      <trkpt lat="49.94719" lon="2.14222">
        <ele>15.9</ele>
        <time>2023-06-28T10:53:57Z</time>
      </trkpt>
      <trkpt lat="49.94719" lon="2.14222">
        <ele>15.9</ele>
        <time>2023-06-28T10:53:58Z</time>
      </trkpt>
      <trkpt lat="49.94719" lon="2.14222">
        <ele>15.9</ele>
        <time>2023-06-28T10:53:59Z</time>
      </trkpt>
      <trkpt lat="49.94719" lon="2.14222">
        <ele>15.9</ele>
        <time>2023-06-28T10:54:00Z</time>
      </trkpt>
      <trkpt lat="49.94719" lon="2.14222">
        <ele>15.9</ele>
        <time>2023-06-28T10:54:01Z</time>
      </trkpt>
      <trkpt lat="49.94719" lon="2.14222">
        <ele>15.9</ele>
        <time>2023-06-28T10:54:02Z</time>
      </trkpt>
      <trkpt lat="49.94719" lon="2.14222">
        <ele>15.9</ele>
        <time>2023-06-28T10:54:03Z</time>
      </trkpt>
      <trkpt lat="49.94719" lon="2.14222">
        <ele>15.9</ele>
        <time>2023-06-28T10:54:04Z</time>
      </trkpt>
      <trkpt lat="49.94719" lon="2.14222">
        <ele>15.9</ele>
        <time>2023-06-28T10:54:05Z</time>
      </trkpt>
      <trkpt lat="49.94719" lon="2.14222">
        <ele>15.9</ele>
        <time>2023-06-28T10:54:06Z</time>
      </trkpt>
      <trkpt lat="49.94719" lon="2.14222">
        <ele>15.9</ele>
        <time>2023-06-28T10:54:07Z</time>
      </trkpt>
      <trkpt lat="49.94719" lon="2.14222">
        <ele>15.9</ele>
        <time>2023-06-28T10:54:08Z</time>
      </trkpt>
      <trkpt lat="49.94719" lon="2.14222">
        <ele>15.9</ele>
        <time>2023-06-28T10:54:09Z</time>
      </trkpt>
      <trkpt lat="49.94719" lon="2.14222">
        <ele>15.9</ele>
        <time>2023-06-28T10:54:10Z</time>
      </trkpt>
      <trkpt lat="49.94719" lon="2.14222">
        <ele>15.9</ele>
        <time>2023-06-28T10:54:11Z</time>
      </trkpt>
      <trkpt lat="49.94719" lon="2.14222">
        <ele>15.9</ele>
        <time>2023-06-28T10:54:12Z</time>
      </trkpt>
      <trkpt lat="49.94719" lon="2.14222">
        <ele>15.9</ele>
        <time>2023-06-28T10:54:13Z</time>
      </trkpt>
      <trkpt lat="49.94719" lon="2.14222">
        <ele>15.9</ele>
        <time>2023-06-28T10:54:14Z</time>
      </trkpt>
      <trkpt lat="49.94719" lon="2.14222">
        <ele>15.9</ele>
        <time>2023-06-28T10:54:15Z</time>
      </trkpt>
      <trkpt lat="49.94719" lon="2.14222">
        <ele>15.9</ele>
        <time>2023-06-28T10:54:16Z</time>
      </trkpt>
      <trkpt lat="49.94719" lon="2.14222">
        <ele>15.9</ele>
        <time>2023-06-28T10:54:17Z</time>
      </trkpt>
      <trkpt lat="49.94719" lon="2.14222">
        <ele>15.9</ele>
        <time>2023-06-28T10:54:18Z</time>
      </trkpt>
      <trkpt lat="49.94719" lon="2.14222">
        <ele>15.9</ele>
        <time>2023-06-28T10:54:19Z</time>
      </trkpt>
      <trkpt lat="49.94719" lon="2.14222">
        <ele>15.9</ele>
        <time>2023-06-28T10:54:20Z</time>
      </trkpt>
      <trkpt lat="49.94719" lon="2.14222">
        <ele>15.9</ele>
        <time>2023-06-28T10:54:21Z</time>
      </trkpt>
      <trkpt lat="49.94719" lon="2.14222">
        <ele>15.9</ele>
        <time>2023-06-28T10:54:22Z</time>
      </trkpt>
      <trkpt lat="49.94719" lon="2.14222">
        <ele>15.9</ele>
        <time>2023-06-28T10:54:23Z</time>
      </trkpt>
      <trkpt lat="49.94719" lon="2.14222">
        <ele>15.9</ele>
        <time>2023-06-28T10:54:24Z</time>
      </trkpt>
      <trkpt lat="49.94719" lon="2.14222">
        <ele>15.9</ele>
        <time>2023-06-28T10:54:25Z</time>
      </trkpt>
      <trkpt lat="49.94719" lon="2.14222">
        <ele>15.9</ele>
        <time>2023-06-28T10:54:26Z</time>
      </trkpt>
      <trkpt lat="49.94719" lon="2.14222">
        <ele>15.9</ele>
        <time>2023-06-28T10:54:27Z</time>
      </trkpt>
      <trkpt lat="49.94719" lon="2.14222">
        <ele>15.9</ele>
        <time>2023-06-28T10:54:28Z</time>
      </trkpt>
      <trkpt lat="49.94719" lon="2.14222">
        <ele>15.9</ele>
        <time>2023-06-28T10:54:29Z</time>
      </trkpt>
      <trkpt lat="49.94719" lon="2.14222">
        <ele>15.9</ele>
        <time>2023-06-28T10:54:30Z</time>
      </trkpt>
      <trkpt lat="49.94719" lon="2.14222">
        <ele>15.9</ele>
        <time>2023-06-28T10:54:31Z</time>
      </trkpt>
      <trkpt lat="49.94719" lon="2.14222">
        <ele>15.9</ele>
        <time>2023-06-28T10:54:32Z</time>
      </trkpt>
      <trkpt lat="49.94719" lon="2.14222">
        <ele>15.9</ele>
        <time>2023-06-28T10:54:33Z</time>
      </trkpt>
      <trkpt lat="49.94719" lon="2.14222">
        <ele>15.9</ele>
        <time>2023-06-28T10:54:34Z</time>
      </trkpt>
      <trkpt lat="49.94719" lon="2.14222">
        <ele>15.9</ele>
        <time>2023-06-28T10:54:35Z</time>
      </trkpt>
      <trkpt lat="49.94719" lon="2.14222">
        <ele>15.9</ele>
        <time>2023-06-28T10:54:36Z</time>
      </trkpt>
      <trkpt lat="49.94719" lon="2.14222">
        <ele>15.9</ele>
        <time>2023-06-28T10:54:37Z</time>
      </trkpt>
      <trkpt lat="49.94719" lon="2.14222">
        <ele>15.9</ele>
        <time>2023-06-28T10:54:38Z</time>
      </trkpt>
      <trkpt lat="49.94719" lon="2.14222">
        <ele>15.9</ele>
        <time>2023-06-28T10:54:39Z</time>
      </trkpt>
      <trkpt lat="49.94719" lon="2.14222">
        <ele>15.9</ele>
        <time>2023-06-28T10:54:40Z</time>
      </trkpt>
      <trkpt lat="49.94719" lon="2.14222">
        <ele>15.9</ele>
        <time>2023-06-28T10:54:41Z</time>
      </trkpt>
      <trkpt lat="49.94719" lon="2.14222">
        <ele>15.9</ele>
        <time>2023-06-28T10:54:42Z</time>
      </trkpt>
      <trkpt lat="49.94719" lon="2.14222">
        <ele>15.9</ele>
        <time>2023-06-28T10:54:43Z</time>
      </trkpt>
      <trkpt lat="49.94719" lon="2.14222">
        <ele>15.9</ele>
        <time>2023-06-28T10:54:44Z</time>
      </trkpt>
      <trkpt lat="49.94719" lon="2.14222">
        <ele>15.9</ele>
        <time>2023-06-28T10:54:45Z</time>
      </trkpt>
      <trkpt lat="49.94719" lon="2.14222">
        <ele>15.9</ele>
        <time>2023-06-28T10:54:46Z</time>
      </trkpt>
      <trkpt lat="49.94719" lon="2.14222">
        <ele>15.9</ele>
        <time>2023-06-28T10:54:47Z</time>
      </trkpt>
      <trkpt lat="49.94719" lon="2.14222">
        <ele>15.9</ele>
        <time>2023-06-28T10:54:48Z</time>
      </trkpt>
      <trkpt lat="49.94719" lon="2.14222">
        <ele>15.9</ele>
        <time>2023-06-28T10:54:49Z</time>
      </trkpt>
      <trkpt lat="49.94719" lon="2.14222">
        <ele>15.9</ele>
        <time>2023-06-28T10:54:50Z</time>
      </trkpt>
      <trkpt lat="49.94719" lon="2.14222">
        <ele>15.9</ele>
        <time>2023-06-28T10:54:51Z</time>
      </trkpt>
      <trkpt lat="49.94719" lon="2.14222">
        <ele>15.9</ele>
        <time>2023-06-28T10:54:52Z</time>
      </trkpt>
      <trkpt lat="49.94719" lon="2.14222">
        <ele>15.9</ele>
        <time>2023-06-28T10:54:53Z</time>
      </trkpt>
      <trkpt lat="49.94719" lon="2.14222">
        <ele>15.9</ele>
        <time>2023-06-28T10:54:54Z</time>
      </trkpt>
      <trkpt lat="49.94719" lon="2.14222">
        <ele>15.9</ele>
        <time>2023-06-28T10:54:55Z</time>
      </trkpt>
      <trkpt lat="49.94719" lon="2.14222">
        <ele>15.9</ele>
        <time>2023-06-28T10:54:56Z</time>
      </trkpt>
      <trkpt lat="49.94719" lon="2.14222">
        <ele>15.9</ele>
        <time>2023-06-28T10:54:57Z</time>
      </trkpt>
      <trkpt lat="49.94719" lon="2.14222">
        <ele>15.9</ele>
        <time>2023-06-28T10:54:58Z</time>
      </trkpt>
      <trkpt lat="49.94719" lon="2.14222">
        <ele>15.9</ele>
        <time>2023-06-28T10:54:59Z</time>
      </trkpt>
      <trkpt lat="49.94719" lon="2.14222">
        <ele>15.9</ele>
        <time>2023-06-28T10:55:00Z</time>
      </trkpt>
      <trkpt lat="49.94719" lon="2.14222">
        <ele>15.9</ele>
        <time>2023-06-28T10:55:01Z</time>
      </trkpt>
      <trkpt lat="49.94719" lon="2.14222">
        <ele>15.9</ele>
        <time>2023-06-28T10:55:02Z</time>
      </trkpt>
      <trkpt lat="49.94719" lon="2.14222">
        <ele>15.9</ele>
        <time>2023-06-28T10:55:03Z</time>
      </trkpt>
      <trkpt lat="49.94719" lon="2.14222">
        <ele>15.9</ele>
        <time>2023-06-28T10:55:04Z</time>
      </trkpt>
      <trkpt lat="49.94719" lon="2.14222">
        <ele>15.9</ele>
        <time>2023-06-28T10:55:05Z</time>
      </trkpt>
      <trkpt lat="49.94719" lon="2.14222">
        <ele>15.9</ele>
        <time>2023-06-28T10:55:06Z</time>
      </trkpt>
      <trkpt lat="49.94719" lon="2.14222">
        <ele>15.9</ele>
        <time>2023-06-28T10:55:07Z</time>
      </trkpt>
      <trkpt lat="49.94719" lon="2.14222">
        <ele>15.9</ele>
        <time>2023-06-28T10:55:08Z</time>
      </trkpt>
      <trkpt lat="49.94719" lon="2.14222">
        <ele>15.9</ele>
        <time>2023-06-28T10:55:09Z</time>
      </trkpt>
      <trkpt lat="49.94719" lon="2.14222">
        <ele>15.9</ele>
        <time>2023-06-28T10:55:10Z</time>
      </trkpt>
      <trkpt lat="49.94719" lon="2.14222">
        <ele>15.9</ele>
        <time>2023-06-28T10:55:11Z</time>
      </trkpt>
      <trkpt lat="49.94719" lon="2.14222">
        <ele>15.9</ele>
        <time>2023-06-28T10:55:12Z</time>
      </trkpt>
      <trkpt lat="49.94719" lon="2.14222">
        <ele>15.9</ele>
        <time>2023-06-28T10:55:13Z</time>
      </trkpt>
      <trkpt lat="49.94719" lon="2.14222">
        <ele>15.9</ele>
        <time>2023-06-28T10:55:14Z</time>
      </trkpt>
      <trkpt lat="49.94719" lon="2.14222">
        <ele>15.9</ele>
        <time>2023-06-28T10:55:15Z</time>
      </trkpt>
      <trkpt lat="49.94719" lon="2.14222">
        <ele>15.9</ele>
        <time>2023-06-28T10:55:16Z</time>
      </trkpt>
      <trkpt lat="49.94719" lon="2.14222">
        <ele>15.9</ele>
        <time>2023-06-28T10:55:17Z</time>
      </trkpt>
      <trkpt lat="49.94719" lon="2.14222">
        <ele>15.9</ele>
        <time>2023-06-28T10:55:18Z</time>
      </trkpt>
      <trkpt lat="49.94719" lon="2.14222">
        <ele>15.9</ele>
        <time>2023-06-28T10:55:19Z</time>
      </trkpt>
      <trkpt lat="49.94719" lon="2.14222">
        <ele>15.9</ele>
        <time>2023-06-28T10:55:20Z</time>
      </trkpt>
      <trkpt lat="49.94719" lon="2.14222">
        <ele>15.9</ele>
        <time>2023-06-28T10:55:21Z</time>
      </trkpt>
      <trkpt lat="49.94719" lon="2.14222">
        <ele>15.9</ele>
        <time>2023-06-28T10:55:22Z</time>
      </trkpt>
      <trkpt lat="49.94719" lon="2.14222">
        <ele>15.9</ele>
        <time>2023-06-28T10:55:23Z</time>
      </trkpt>
      <trkpt lat="49.94719" lon="2.14222">
        <ele>15.9</ele>
        <time>2023-06-28T10:55:24Z</time>
      </trkpt>
      <trkpt lat="49.94719" lon="2.14222">
        <ele>15.9</ele>
        <time>2023-06-28T10:55:25Z</time>
      </trkpt>
      <trkpt lat="49.94719" lon="2.14222">
        <ele>15.9</ele>
        <time>2023-06-28T10:55:26Z</time>
      </trkpt>
      <trkpt lat="49.94719" lon="2.14222">
        <ele>15.9</ele>
        <time>2023-06-28T10:55:27Z</time>
      </trkpt>
      <trkpt lat="49.94719" lon="2.14222">
        <ele>15.9</ele>
        <time>2023-06-28T10:55:28Z</time>
      </trkpt>
      <trkpt lat="49.94719" lon="2.14222">
        <ele>15.9</ele>
        <time>2023-06-28T10:55:29Z</time>
      </trkpt>
      <trkpt lat="49.94719" lon="2.14222">
        <ele>15.9</ele>
        <time>2023-06-28T10:55:30Z</time>
      </trkpt>
      <trkpt lat="49.94719" lon="2.14222">
        <ele>15.9</ele>
        <time>2023-06-28T10:55:31Z</time>
      </trkpt>
      <trkpt lat="49.94719" lon="2.14222">
        <ele>15.9</ele>
        <time>2023-06-28T10:55:32Z</time>
      </trkpt>
      <trkpt lat="49.94719" lon="2.14222">
        <ele>15.9</ele>
        <time>2023-06-28T10:55:33Z</time>
      </trkpt>
      <trkpt lat="49.94719" lon="2.14222">
        <ele>15.9</ele>
        <time>2023-06-28T10:55:34Z</time>
      </trkpt>
      <trkpt lat="49.94719" lon="2.14222">
        <ele>15.9</ele>
        <time>2023-06-28T10:55:35Z</time>
      </trkpt>
      <trkpt lat="49.94719" lon="2.14222">
        <ele>15.9</ele>
        <time>2023-06-28T10:55:36Z</time>
      </trkpt>
      <trkpt lat="49.94719" lon="2.14222">
        <ele>15.9</ele>
        <time>2023-06-28T10:55:37Z</time>
      </trkpt>
      <trkpt lat="49.94719" lon="2.14222">
        <ele>15.9</ele>
        <time>2023-06-28T10:55:38Z</time>
      </trkpt>
      <trkpt lat="49.94719" lon="2.14222">
        <ele>15.9</ele>
        <time>2023-06-28T10:55:39Z</time>
      </trkpt>
      <trkpt lat="49.94719" lon="2.14222">
        <ele>15.9</ele>
        <time>2023-06-28T10:55:40Z</time>
      </trkpt>
      <trkpt lat="49.94719" lon="2.14222">
        <ele>15.9</ele>
        <time>2023-06-28T10:55:41Z</time>
      </trkpt>
      <trkpt lat="49.94719" lon="2.14222">
        <ele>15.9</ele>
        <time>2023-06-28T10:55:42Z</time>
      </trkpt>
      <trkpt lat="49.94719" lon="2.14222">
        <ele>15.9</ele>
        <time>2023-06-28T10:55:43Z</time>
      </trkpt>
      <trkpt lat="49.94719" lon="2.14222">
        <ele>15.9</ele>
        <time>2023-06-28T10:55:44Z</time>
      </trkpt>
      <trkpt lat="49.94719" lon="2.14222">
        <ele>15.9</ele>
        <time>2023-06-28T10:55:45Z</time>
      </trkpt>
      <trkpt lat="49.94719" lon="2.14222">
        <ele>15.9</ele>
        <time>2023-06-28T10:55:46Z</time>
      </trkpt>
      <trkpt lat="49.94719" lon="2.14222">
        <ele>15.9</ele>
        <time>2023-06-28T10:55:47Z</time>
      </trkpt>
      <trkpt lat="49.94719" lon="2.14222">
        <ele>15.9</ele>
        <time>2023-06-28T10:55:48Z</time>
      </trkpt>
      <trkpt lat="49.94719" lon="2.14222">
        <ele>15.9</ele>
        <time>2023-06-28T10:55:49Z</time>
      </trkpt>
      <trkpt lat="49.94719" lon="2.14222">
        <ele>15.9</ele>
        <time>2023-06-28T10:55:50Z</time>
      </trkpt>
      <trkpt lat="49.94719" lon="2.14222">
        <ele>15.9</ele>
        <time>2023-06-28T10:55:51Z</time>
      </trkpt>
      <trkpt lat="49.94719" lon="2.14222">
        <ele>15.9</ele>
        <time>2023-06-28T10:55:52Z</time>
      </trkpt>
      <trkpt lat="49.94719" lon="2.14222">
        <ele>15.9</ele>
        <time>2023-06-28T10:55:53Z</time>
      </trkpt>
      <trkpt lat="49.94719" lon="2.14222">
        <ele>15.9</ele>
        <time>2023-06-28T10:55:54Z</time>
      </trkpt>
      <trkpt lat="49.94719" lon="2.14222">
        <ele>15.9</ele>
        <time>2023-06-28T10:55:55Z</time>
      </trkpt>
      <trkpt lat="49.94719" lon="2.14222">
        <ele>15.9</ele>
        <time>2023-06-28T10:55:56Z</time>
      </trkpt>
      <trkpt lat="49.94719" lon="2.14222">
        <ele>15.9</ele>
        <time>2023-06-28T10:55:57Z</time>
      </trkpt>
      <trkpt lat="49.94719" lon="2.14222">
        <ele>15.9</ele>
        <time>2023-06-28T10:55:58Z</time>
      </trkpt>
      <trkpt lat="49.94719" lon="2.14222">
        <ele>15.9</ele>
        <time>2023-06-28T10:55:59Z</time>
      </trkpt>
      <trkpt lat="49.94719" lon="2.14222">
        <ele>15.9</ele>
        <time>2023-06-28T10:56:00Z</time>
      </trkpt>
      <trkpt lat="49.94719" lon="2.14222">
        <ele>15.9</ele>
        <time>2023-06-28T10:56:01Z</time>
      </trkpt>
      <trkpt lat="49.94719" lon="2.14222">
        <ele>15.9</ele>
        <time>2023-06-28T10:56:02Z</time>
      </trkpt>
      <trkpt lat="49.94719" lon="2.14222">
        <ele>15.9</ele>
        <time>2023-06-28T10:56:03Z</time>
      </trkpt>
      <trkpt lat="49.94719" lon="2.14222">
        <ele>15.9</ele>
        <time>2023-06-28T10:56:04Z</time>
      </trkpt>
      <trkpt lat="49.94719" lon="2.14222">
        <ele>15.9</ele>
        <time>2023-06-28T10:56:05Z</time>
      </trkpt>
      <trkpt lat="49.94719" lon="2.14222">
        <ele>15.9</ele>
        <time>2023-06-28T10:56:06Z</time>
      </trkpt>
      <trkpt lat="49.94719" lon="2.14222">
        <ele>15.9</ele>
        <time>2023-06-28T10:56:07Z</time>
      </trkpt>
      <trkpt lat="49.94719" lon="2.14222">
        <ele>15.9</ele>
        <time>2023-06-28T10:56:08Z</time>
      </trkpt>
      <trkpt lat="49.94719" lon="2.14222">
        <ele>15.9</ele>
        <time>2023-06-28T10:56:09Z</time>
      </trkpt>
      <trkpt lat="49.94719" lon="2.14222">
        <ele>15.9</ele>
        <time>2023-06-28T10:56:10Z</time>
      </trkpt>
      <trkpt lat="49.94719" lon="2.14222">
        <ele>15.9</ele>
        <time>2023-06-28T10:56:11Z</time>
      </trkpt>
      <trkpt lat="49.94719" lon="2.14222">
        <ele>15.9</ele>
        <time>2023-06-28T10:56:12Z</time>
      </trkpt>
      <trkpt lat="49.94719" lon="2.14222">
        <ele>15.9</ele>
        <time>2023-06-28T10:56:13Z</time>
      </trkpt>
      <trkpt lat="49.94719" lon="2.14222">
        <ele>15.9</ele>
        <time>2023-06-28T10:56:14Z</time>
      </trkpt>
      <trkpt lat="49.94719" lon="2.14222">
        <ele>15.9</ele>
        <time>2023-06-28T10:56:15Z</time>
      </trkpt>
      <trkpt lat="49.94719" lon="2.14222">
        <ele>15.9</ele>
        <time>2023-06-28T10:56:16Z</time>
      </trkpt>
      <trkpt lat="49.94719" lon="2.14222">
        <ele>15.9</ele>
        <time>2023-06-28T10:56:17Z</time>
      </trkpt>
      <trkpt lat="49.94719" lon="2.14222">
        <ele>15.9</ele>
        <time>2023-06-28T10:56:18Z</time>
      </trkpt>
      <trkpt lat="49.94719" lon="2.14222">
        <ele>15.9</ele>
        <time>2023-06-28T10:56:19Z</time>
      </trkpt>
      <trkpt lat="49.94719" lon="2.14222">
        <ele>15.9</ele>
        <time>2023-06-28T10:56:20Z</time>
      </trkpt>
      <trkpt lat="49.94719" lon="2.14222">
        <ele>15.9</ele>
        <time>2023-06-28T10:56:21Z</time>
      </trkpt>
      <trkpt lat="49.9472" lon="2.14223">
        <ele>15.9</ele>
        <time>2023-06-28T10:56:22Z</time>
      </trkpt>
      <trkpt lat="49.9472" lon="2.14222">
        <ele>15.9</ele>
        <time>2023-06-28T10:56:23Z</time>
      </trkpt>
      <trkpt lat="49.9472" lon="2.14222">
        <ele>15.9</ele>
        <time>2023-06-28T10:56:24Z</time>
      </trkpt>
      <trkpt lat="49.9472" lon="2.14222">
        <ele>15.9</ele>
        <time>2023-06-28T10:56:25Z</time>
      </trkpt>
      <trkpt lat="49.9472" lon="2.14222">
        <ele>15.9</ele>
        <time>2023-06-28T10:56:26Z</time>
      </trkpt>
      <trkpt lat="49.9472" lon="2.14222">
        <ele>15.9</ele>
        <time>2023-06-28T10:56:27Z</time>
      </trkpt>
      <trkpt lat="49.9472" lon="2.14223">
        <ele>15.9</ele>
        <time>2023-06-28T10:56:28Z</time>
      </trkpt>
      <trkpt lat="49.9472" lon="2.14222">
        <ele>15.9</ele>
        <time>2023-06-28T10:56:29Z</time>
      </trkpt>
      <trkpt lat="49.9472" lon="2.14222">
        <ele>15.9</ele>
        <time>2023-06-28T10:56:30Z</time>
      </trkpt>
      <trkpt lat="49.9472" lon="2.14222">
        <ele>15.9</ele>
        <time>2023-06-28T10:56:31Z</time>
      </trkpt>
      <trkpt lat="49.9472" lon="2.14222">
        <ele>15.9</ele>
        <time>2023-06-28T10:56:32Z</time>
      </trkpt>
      <trkpt lat="49.9472" lon="2.14223">
        <ele>15.9</ele>
        <time>2023-06-28T10:56:33Z</time>
      </trkpt>
      <trkpt lat="49.9472" lon="2.14223">
        <ele>15.9</ele>
        <time>2023-06-28T10:56:34Z</time>
      </trkpt>
      <trkpt lat="49.9472" lon="2.14223">
        <ele>15.9</ele>
        <time>2023-06-28T10:56:35Z</time>
      </trkpt>
      <trkpt lat="49.9472" lon="2.14223">
        <ele>15.9</ele>
        <time>2023-06-28T10:56:36Z</time>
      </trkpt>
      <trkpt lat="49.9472" lon="2.14223">
        <ele>15.9</ele>
        <time>2023-06-28T10:56:37Z</time>
      </trkpt>
      <trkpt lat="49.9472" lon="2.14222">
        <ele>15.9</ele>
        <time>2023-06-28T10:56:38Z</time>
      </trkpt>
      <trkpt lat="49.9472" lon="2.14222">
        <ele>15.9</ele>
        <time>2023-06-28T10:56:39Z</time>
      </trkpt>
      <trkpt lat="49.9472" lon="2.14222">
        <ele>15.9</ele>
        <time>2023-06-28T10:56:40Z</time>
      </trkpt>
      <trkpt lat="49.9472" lon="2.14222">
        <ele>15.9</ele>
        <time>2023-06-28T10:56:41Z</time>
      </trkpt>
      <trkpt lat="49.9472" lon="2.14223">
        <ele>15.9</ele>
        <time>2023-06-28T10:56:42Z</time>
      </trkpt>
      <trkpt lat="49.9472" lon="2.14223">
        <ele>15.9</ele>
        <time>2023-06-28T10:56:43Z</time>
      </trkpt>
      <trkpt lat="49.9472" lon="2.14223">
        <ele>15.9</ele>
        <time>2023-06-28T10:56:44Z</time>
      </trkpt>
      <trkpt lat="49.9472" lon="2.14223">
        <ele>15.9</ele>
        <time>2023-06-28T10:56:45Z</time>
      </trkpt>
      <trkpt lat="49.9472" lon="2.14224">
        <ele>15.9</ele>
        <time>2023-06-28T10:56:46Z</time>
      </trkpt>
      <trkpt lat="49.9472" lon="2.14224">
        <ele>15.9</ele>
        <time>2023-06-28T10:56:47Z</time>
      </trkpt>
      <trkpt lat="49.9472" lon="2.14224">
        <ele>15.9</ele>
        <time>2023-06-28T10:56:48Z</time>
      </trkpt>
      <trkpt lat="49.9472" lon="2.14224">
        <ele>15.9</ele>
        <time>2023-06-28T10:56:49Z</time>
      </trkpt>
      <trkpt lat="49.9472" lon="2.14224">
        <ele>15.9</ele>
        <time>2023-06-28T10:56:50Z</time>
      </trkpt>
      <trkpt lat="49.9472" lon="2.14224">
        <ele>15.9</ele>
        <time>2023-06-28T10:56:51Z</time>
      </trkpt>
      <trkpt lat="49.9472" lon="2.14224">
        <ele>15.9</ele>
        <time>2023-06-28T10:56:52Z</time>
      </trkpt>
      <trkpt lat="49.9472" lon="2.14224">
        <ele>15.9</ele>
        <time>2023-06-28T10:56:53Z</time>
      </trkpt>
      <trkpt lat="49.9472" lon="2.14225">
        <ele>15.9</ele>
        <time>2023-06-28T10:56:54Z</time>
      </trkpt>
      <trkpt lat="49.9472" lon="2.14225">
        <ele>15.9</ele>
        <time>2023-06-28T10:56:55Z</time>
      </trkpt>
      <trkpt lat="49.9472" lon="2.14225">
        <ele>15.9</ele>
        <time>2023-06-28T10:56:56Z</time>
      </trkpt>
      <trkpt lat="49.9472" lon="2.14226">
        <ele>15.9</ele>
        <time>2023-06-28T10:56:57Z</time>
      </trkpt>
      <trkpt lat="49.9472" lon="2.14226">
        <ele>15.9</ele>
        <time>2023-06-28T10:56:58Z</time>
      </trkpt>
      <trkpt lat="49.9472" lon="2.14226">
        <ele>15.9</ele>
        <time>2023-06-28T10:56:59Z</time>
      </trkpt>
      <trkpt lat="49.9472" lon="2.14226">
        <ele>15.9</ele>
        <time>2023-06-28T10:57:00Z</time>
      </trkpt>
      <trkpt lat="49.9472" lon="2.14226">
        <ele>15.9</ele>
        <time>2023-06-28T10:57:01Z</time>
      </trkpt>
      <trkpt lat="49.9472" lon="2.14227">
        <ele>15.9</ele>
        <time>2023-06-28T10:57:02Z</time>
      </trkpt>
      <trkpt lat="49.9472" lon="2.14226">
        <ele>15.9</ele>
        <time>2023-06-28T10:57:03Z</time>
      </trkpt>
      <trkpt lat="49.9472" lon="2.14226">
        <ele>15.9</ele>
        <time>2023-06-28T10:57:04Z</time>
      </trkpt>
      <trkpt lat="49.94721" lon="2.14226">
        <ele>15.9</ele>
        <time>2023-06-28T10:57:05Z</time>
      </trkpt>
      <trkpt lat="49.94721" lon="2.14226">
        <ele>15.9</ele>
        <time>2023-06-28T10:57:06Z</time>
      </trkpt>
      <trkpt lat="49.94721" lon="2.14226">
        <ele>15.9</ele>
        <time>2023-06-28T10:57:07Z</time>
      </trkpt>
      <trkpt lat="49.94722" lon="2.14227">
        <ele>15.9</ele>
        <time>2023-06-28T10:57:08Z</time>
      </trkpt>
      <trkpt lat="49.94722" lon="2.14227">
        <ele>15.9</ele>
        <time>2023-06-28T10:57:09Z</time>
      </trkpt>
      <trkpt lat="49.94722" lon="2.14227">
        <ele>15.9</ele>
        <time>2023-06-28T10:57:10Z</time>
      </trkpt>
      <trkpt lat="49.94722" lon="2.14227">
        <ele>15.9</ele>
        <time>2023-06-28T10:57:11Z</time>
      </trkpt>
      <trkpt lat="49.94722" lon="2.14227">
        <ele>15.9</ele>
        <time>2023-06-28T10:57:12Z</time>
      </trkpt>
      <trkpt lat="49.94722" lon="2.14228">
        <ele>15.9</ele>
        <time>2023-06-28T10:57:13Z</time>
      </trkpt>
      <trkpt lat="49.94722" lon="2.14227">
        <ele>15.9</ele>
        <time>2023-06-28T10:57:14Z</time>
      </trkpt>
      <trkpt lat="49.94722" lon="2.14227">
        <ele>15.9</ele>
        <time>2023-06-28T10:57:15Z</time>
      </trkpt>
      <trkpt lat="49.94723" lon="2.14227">
        <ele>15.9</ele>
        <time>2023-06-28T10:57:16Z</time>
      </trkpt>
      <trkpt lat="49.94723" lon="2.14227">
        <ele>15.9</ele>
        <time>2023-06-28T10:57:17Z</time>
      </trkpt>
      <trkpt lat="49.94723" lon="2.14227">
        <ele>15.9</ele>
        <time>2023-06-28T10:57:18Z</time>
      </trkpt>
      <trkpt lat="49.94723" lon="2.14227">
        <ele>15.9</ele>
        <time>2023-06-28T10:57:19Z</time>
      </trkpt>
      <trkpt lat="49.94722" lon="2.14227">
        <ele>15.9</ele>
        <time>2023-06-28T10:57:20Z</time>
      </trkpt>
      <trkpt lat="49.94722" lon="2.14228">
        <ele>15.9</ele>
        <time>2023-06-28T10:57:21Z</time>
      </trkpt>
      <trkpt lat="49.94722" lon="2.14228">
        <ele>15.9</ele>
        <time>2023-06-28T10:57:22Z</time>
      </trkpt>
      <trkpt lat="49.94721" lon="2.14229">
        <ele>15.9</ele>
        <time>2023-06-28T10:57:23Z</time>
      </trkpt>
      <trkpt lat="49.94721" lon="2.1423">
        <ele>15.9</ele>
        <time>2023-06-28T10:57:24Z</time>
      </trkpt>
      <trkpt lat="49.9472" lon="2.1423">
        <ele>15.9</ele>
        <time>2023-06-28T10:57:25Z</time>
      </trkpt>
      <trkpt lat="49.9472" lon="2.14231">
        <ele>15.9</ele>
        <time>2023-06-28T10:57:26Z</time>
      </trkpt>
      <trkpt lat="49.9472" lon="2.14232">
        <ele>15.9</ele>
        <time>2023-06-28T10:57:27Z</time>
      </trkpt>
      <trkpt lat="49.94719" lon="2.14233">
        <ele>15.9</ele>
        <time>2023-06-28T10:57:28Z</time>
      </trkpt>
      <trkpt lat="49.94718" lon="2.14234">
        <ele>15.9</ele>
        <time>2023-06-28T10:57:29Z</time>
      </trkpt>
      <trkpt lat="49.94718" lon="2.14234">
        <ele>15.9</ele>
        <time>2023-06-28T10:57:30Z</time>
      </trkpt>
      <trkpt lat="49.94717" lon="2.14235">
        <ele>15.9</ele>
        <time>2023-06-28T10:57:31Z</time>
      </trkpt>
      <trkpt lat="49.94717" lon="2.14236">
        <ele>16</ele>
        <time>2023-06-28T10:57:32Z</time>
      </trkpt>
      <trkpt lat="49.94716" lon="2.14237">
        <ele>16</ele>
        <time>2023-06-28T10:57:33Z</time>
      </trkpt>
      <trkpt lat="49.94716" lon="2.14237">
        <ele>16</ele>
        <time>2023-06-28T10:57:34Z</time>
      </trkpt>
      <trkpt lat="49.94716" lon="2.14238">
        <ele>16</ele>
        <time>2023-06-28T10:57:35Z</time>
      </trkpt>
      <trkpt lat="49.94716" lon="2.14238">
        <ele>16</ele>
        <time>2023-06-28T10:57:36Z</time>
      </trkpt>
      <trkpt lat="49.94715" lon="2.14239">
        <ele>16</ele>
        <time>2023-06-28T10:57:37Z</time>
      </trkpt>
      <trkpt lat="49.94715" lon="2.14239">
        <ele>16</ele>
        <time>2023-06-28T10:57:38Z</time>
      </trkpt>
      <trkpt lat="49.94715" lon="2.14239">
        <ele>16</ele>
        <time>2023-06-28T10:57:39Z</time>
      </trkpt>
      <trkpt lat="49.94715" lon="2.14239">
        <ele>16</ele>
        <time>2023-06-28T10:57:40Z</time>
      </trkpt>
      <trkpt lat="49.94714" lon="2.14239">
        <ele>16</ele>
        <time>2023-06-28T10:57:41Z</time>
      </trkpt>
      <trkpt lat="49.94714" lon="2.14239">
        <ele>16</ele>
        <time>2023-06-28T10:57:42Z</time>
      </trkpt>
      <trkpt lat="49.94714" lon="2.14239">
        <ele>16</ele>
        <time>2023-06-28T10:57:43Z</time>
      </trkpt>
      <trkpt lat="49.94714" lon="2.14239">
        <ele>16</ele>
        <time>2023-06-28T10:57:44Z</time>
      </trkpt>
      <trkpt lat="49.94714" lon="2.14239">
        <ele>16</ele>
        <time>2023-06-28T10:57:45Z</time>
      </trkpt>
      <trkpt lat="49.94714" lon="2.14239">
        <ele>16</ele>
        <time>2023-06-28T10:57:46Z</time>
      </trkpt>
      <trkpt lat="49.94714" lon="2.14239">
        <ele>16</ele>
        <time>2023-06-28T10:57:47Z</time>
      </trkpt>
      <trkpt lat="49.94714" lon="2.14239">
        <ele>16</ele>
        <time>2023-06-28T10:57:48Z</time>
      </trkpt>
      <trkpt lat="49.94715" lon="2.14239">
        <ele>16</ele>
        <time>2023-06-28T10:57:49Z</time>
      </trkpt>
      <trkpt lat="49.94715" lon="2.14239">
        <ele>16</ele>
        <time>2023-06-28T10:57:50Z</time>
      </trkpt>
      <trkpt lat="49.94715" lon="2.14239">
        <ele>16</ele>
        <time>2023-06-28T10:57:51Z</time>
      </trkpt>
      <trkpt lat="49.94714" lon="2.14239">
        <ele>16</ele>
        <time>2023-06-28T10:57:52Z</time>
      </trkpt>
      <trkpt lat="49.94714" lon="2.14239">
        <ele>16</ele>
        <time>2023-06-28T10:57:53Z</time>
      </trkpt>
      <trkpt lat="49.94715" lon="2.14239">
        <ele>16</ele>
        <time>2023-06-28T10:57:54Z</time>
      </trkpt>
      <trkpt lat="49.94715" lon="2.1424">
        <ele>16</ele>
        <time>2023-06-28T10:57:55Z</time>
      </trkpt>
      <trkpt lat="49.94716" lon="2.1424">
        <ele>16</ele>
        <time>2023-06-28T10:57:56Z</time>
      </trkpt>
      <trkpt lat="49.94716" lon="2.1424">
        <ele>16</ele>
        <time>2023-06-28T10:57:57Z</time>
      </trkpt>
      <trkpt lat="49.94717" lon="2.1424">
        <ele>16</ele>
        <time>2023-06-28T10:57:58Z</time>
      </trkpt>
      <trkpt lat="49.94717" lon="2.1424">
        <ele>16</ele>
        <time>2023-06-28T10:57:59Z</time>
      </trkpt>
      <trkpt lat="49.94717" lon="2.1424">
        <ele>16</ele>
        <time>2023-06-28T10:58:00Z</time>
      </trkpt>
      <trkpt lat="49.94717" lon="2.1424">
        <ele>16</ele>
        <time>2023-06-28T10:58:01Z</time>
      </trkpt>
      <trkpt lat="49.94717" lon="2.1424">
        <ele>16</ele>
        <time>2023-06-28T10:58:02Z</time>
      </trkpt>
      <trkpt lat="49.94717" lon="2.1424">
        <ele>16</ele>
        <time>2023-06-28T10:58:03Z</time>
      </trkpt>
      <trkpt lat="49.94718" lon="2.14239">
        <ele>16</ele>
        <time>2023-06-28T10:58:04Z</time>
      </trkpt>
      <trkpt lat="49.94718" lon="2.14239">
        <ele>16</ele>
        <time>2023-06-28T10:58:05Z</time>
      </trkpt>
      <trkpt lat="49.94718" lon="2.14239">
        <ele>16</ele>
        <time>2023-06-28T10:58:06Z</time>
      </trkpt>
      <trkpt lat="49.94718" lon="2.14239">
        <ele>16</ele>
        <time>2023-06-28T10:58:07Z</time>
      </trkpt>
      <trkpt lat="49.94718" lon="2.14239">
        <ele>16</ele>
        <time>2023-06-28T10:58:08Z</time>
      </trkpt>
      <trkpt lat="49.94718" lon="2.14239">
        <ele>16</ele>
        <time>2023-06-28T10:58:09Z</time>
      </trkpt>
      <trkpt lat="49.94718" lon="2.14239">
        <ele>16</ele>
        <time>2023-06-28T10:58:10Z</time>
      </trkpt>
      <trkpt lat="49.94718" lon="2.14239">
        <ele>16</ele>
        <time>2023-06-28T10:58:11Z</time>
      </trkpt>
      <trkpt lat="49.94718" lon="2.14239">
        <ele>16</ele>
        <time>2023-06-28T10:58:12Z</time>
      </trkpt>
      <trkpt lat="49.94718" lon="2.14239">
        <ele>16</ele>
        <time>2023-06-28T10:58:13Z</time>
      </trkpt>
      <trkpt lat="49.94718" lon="2.14239">
        <ele>16</ele>
        <time>2023-06-28T10:58:14Z</time>
      </trkpt>
      <trkpt lat="49.94718" lon="2.14239">
        <ele>16</ele>
        <time>2023-06-28T10:58:15Z</time>
      </trkpt>
      <trkpt lat="49.94718" lon="2.14239">
        <ele>16</ele>
        <time>2023-06-28T10:58:16Z</time>
      </trkpt>
      <trkpt lat="49.94718" lon="2.14239">
        <ele>16</ele>
        <time>2023-06-28T10:58:17Z</time>
      </trkpt>
      <trkpt lat="49.94718" lon="2.14239">
        <ele>16</ele>
        <time>2023-06-28T10:58:18Z</time>
      </trkpt>
      <trkpt lat="49.94718" lon="2.14239">
        <ele>16</ele>
        <time>2023-06-28T10:58:19Z</time>
      </trkpt>
      <trkpt lat="49.94718" lon="2.14239">
        <ele>16</ele>
        <time>2023-06-28T10:58:20Z</time>
      </trkpt>
      <trkpt lat="49.94718" lon="2.14239">
        <ele>16</ele>
        <time>2023-06-28T10:58:21Z</time>
      </trkpt>
      <trkpt lat="49.94718" lon="2.14239">
        <ele>16</ele>
        <time>2023-06-28T10:58:22Z</time>
      </trkpt>
      <trkpt lat="49.94718" lon="2.14239">
        <ele>16</ele>
        <time>2023-06-28T10:58:23Z</time>
      </trkpt>
      <trkpt lat="49.94718" lon="2.14239">
        <ele>16</ele>
        <time>2023-06-28T10:58:24Z</time>
      </trkpt>
      <trkpt lat="49.94718" lon="2.14239">
        <ele>16</ele>
        <time>2023-06-28T10:58:25Z</time>
      </trkpt>
      <trkpt lat="49.94718" lon="2.14239">
        <ele>16</ele>
        <time>2023-06-28T10:58:26Z</time>
      </trkpt>
      <trkpt lat="49.94718" lon="2.14239">
        <ele>16</ele>
        <time>2023-06-28T10:58:27Z</time>
      </trkpt>
      <trkpt lat="49.94718" lon="2.14239">
        <ele>16</ele>
        <time>2023-06-28T10:58:28Z</time>
      </trkpt>
      <trkpt lat="49.94718" lon="2.14239">
        <ele>16</ele>
        <time>2023-06-28T10:58:29Z</time>
      </trkpt>
      <trkpt lat="49.94718" lon="2.14239">
        <ele>16</ele>
        <time>2023-06-28T10:58:30Z</time>
      </trkpt>
      <trkpt lat="49.94718" lon="2.14239">
        <ele>16</ele>
        <time>2023-06-28T10:58:31Z</time>
      </trkpt>
      <trkpt lat="49.94718" lon="2.14239">
        <ele>16</ele>
        <time>2023-06-28T10:58:32Z</time>
      </trkpt>
      <trkpt lat="49.94718" lon="2.14239">
        <ele>16</ele>
        <time>2023-06-28T10:58:33Z</time>
      </trkpt>
      <trkpt lat="49.94718" lon="2.14239">
        <ele>16</ele>
        <time>2023-06-28T10:58:34Z</time>
      </trkpt>
      <trkpt lat="49.94718" lon="2.14239">
        <ele>16</ele>
        <time>2023-06-28T10:58:35Z</time>
      </trkpt>
      <trkpt lat="49.94718" lon="2.14239">
        <ele>16</ele>
        <time>2023-06-28T10:58:36Z</time>
      </trkpt>
      <trkpt lat="49.94718" lon="2.14239">
        <ele>16</ele>
        <time>2023-06-28T10:58:37Z</time>
      </trkpt>
      <trkpt lat="49.94718" lon="2.14239">
        <ele>16</ele>
        <time>2023-06-28T10:58:38Z</time>
      </trkpt>
      <trkpt lat="49.94718" lon="2.14239">
        <ele>16</ele>
        <time>2023-06-28T10:58:39Z</time>
      </trkpt>
      <trkpt lat="49.94718" lon="2.14239">
        <ele>16</ele>
        <time>2023-06-28T10:58:40Z</time>
      </trkpt>
      <trkpt lat="49.94718" lon="2.14239">
        <ele>16</ele>
        <time>2023-06-28T10:58:41Z</time>
      </trkpt>
      <trkpt lat="49.94718" lon="2.14239">
        <ele>16</ele>
        <time>2023-06-28T10:58:42Z</time>
      </trkpt>
      <trkpt lat="49.94718" lon="2.14239">
        <ele>16</ele>
        <time>2023-06-28T10:58:43Z</time>
      </trkpt>
      <trkpt lat="49.94718" lon="2.14239">
        <ele>16</ele>
        <time>2023-06-28T10:58:44Z</time>
      </trkpt>
      <trkpt lat="49.94718" lon="2.14239">
        <ele>16</ele>
        <time>2023-06-28T10:58:45Z</time>
      </trkpt>
      <trkpt lat="49.94718" lon="2.14239">
        <ele>16</ele>
        <time>2023-06-28T10:58:46Z</time>
      </trkpt>
      <trkpt lat="49.94718" lon="2.14239">
        <ele>16</ele>
        <time>2023-06-28T10:58:47Z</time>
      </trkpt>
      <trkpt lat="49.94718" lon="2.14239">
        <ele>16</ele>
        <time>2023-06-28T10:58:48Z</time>
      </trkpt>
      <trkpt lat="49.94718" lon="2.14239">
        <ele>16</ele>
        <time>2023-06-28T10:58:49Z</time>
      </trkpt>
      <trkpt lat="49.94718" lon="2.14239">
        <ele>16</ele>
        <time>2023-06-28T10:58:50Z</time>
      </trkpt>
      <trkpt lat="49.94718" lon="2.14239">
        <ele>16</ele>
        <time>2023-06-28T10:58:51Z</time>
      </trkpt>
      <trkpt lat="49.94718" lon="2.14239">
        <ele>16</ele>
        <time>2023-06-28T10:58:52Z</time>
      </trkpt>
      <trkpt lat="49.94718" lon="2.14239">
        <ele>16</ele>
        <time>2023-06-28T10:58:53Z</time>
      </trkpt>
      <trkpt lat="49.94718" lon="2.14239">
        <ele>16</ele>
        <time>2023-06-28T10:58:54Z</time>
      </trkpt>
      <trkpt lat="49.94718" lon="2.14239">
        <ele>16</ele>
        <time>2023-06-28T10:58:55Z</time>
      </trkpt>
      <trkpt lat="49.94718" lon="2.14239">
        <ele>16</ele>
        <time>2023-06-28T10:58:56Z</time>
      </trkpt>
      <trkpt lat="49.94718" lon="2.14239">
        <ele>16</ele>
        <time>2023-06-28T10:58:57Z</time>
      </trkpt>
      <trkpt lat="49.94718" lon="2.14239">
        <ele>16</ele>
        <time>2023-06-28T10:58:58Z</time>
      </trkpt>
      <trkpt lat="49.94718" lon="2.14239">
        <ele>16</ele>
        <time>2023-06-28T10:58:59Z</time>
      </trkpt>
      <trkpt lat="49.94718" lon="2.14239">
        <ele>16</ele>
        <time>2023-06-28T10:59:00Z</time>
      </trkpt>
      <trkpt lat="49.94718" lon="2.14239">
        <ele>16</ele>
        <time>2023-06-28T10:59:01Z</time>
      </trkpt>
      <trkpt lat="49.94718" lon="2.14239">
        <ele>16</ele>
        <time>2023-06-28T10:59:02Z</time>
      </trkpt>
      <trkpt lat="49.94718" lon="2.14239">
        <ele>16</ele>
        <time>2023-06-28T10:59:03Z</time>
      </trkpt>
      <trkpt lat="49.94718" lon="2.14239">
        <ele>16</ele>
        <time>2023-06-28T10:59:04Z</time>
      </trkpt>
      <trkpt lat="49.94718" lon="2.14239">
        <ele>16</ele>
        <time>2023-06-28T10:59:05Z</time>
      </trkpt>
      <trkpt lat="49.94718" lon="2.14239">
        <ele>16</ele>
        <time>2023-06-28T10:59:06Z</time>
      </trkpt>
      <trkpt lat="49.94718" lon="2.14239">
        <ele>16</ele>
        <time>2023-06-28T10:59:07Z</time>
      </trkpt>
      <trkpt lat="49.94718" lon="2.14239">
        <ele>16</ele>
        <time>2023-06-28T10:59:08Z</time>
      </trkpt>
      <trkpt lat="49.94718" lon="2.14239">
        <ele>16</ele>
        <time>2023-06-28T10:59:09Z</time>
      </trkpt>
      <trkpt lat="49.94718" lon="2.14239">
        <ele>16</ele>
        <time>2023-06-28T10:59:10Z</time>
      </trkpt>
      <trkpt lat="49.94718" lon="2.14239">
        <ele>16</ele>
        <time>2023-06-28T10:59:11Z</time>
      </trkpt>
      <trkpt lat="49.94718" lon="2.14239">
        <ele>16</ele>
        <time>2023-06-28T10:59:12Z</time>
      </trkpt>
      <trkpt lat="49.94718" lon="2.14239">
        <ele>16</ele>
        <time>2023-06-28T10:59:13Z</time>
      </trkpt>
      <trkpt lat="49.94718" lon="2.14239">
        <ele>16</ele>
        <time>2023-06-28T10:59:14Z</time>
      </trkpt>
      <trkpt lat="49.94718" lon="2.14239">
        <ele>16</ele>
        <time>2023-06-28T10:59:15Z</time>
      </trkpt>
      <trkpt lat="49.94718" lon="2.14239">
        <ele>16</ele>
        <time>2023-06-28T10:59:16Z</time>
      </trkpt>
      <trkpt lat="49.94718" lon="2.14239">
        <ele>16</ele>
        <time>2023-06-28T10:59:17Z</time>
      </trkpt>
      <trkpt lat="49.94718" lon="2.14239">
        <ele>16</ele>
        <time>2023-06-28T10:59:18Z</time>
      </trkpt>
      <trkpt lat="49.94718" lon="2.14239">
        <ele>16</ele>
        <time>2023-06-28T10:59:19Z</time>
      </trkpt>
      <trkpt lat="49.94718" lon="2.14239">
        <ele>16</ele>
        <time>2023-06-28T10:59:20Z</time>
      </trkpt>
      <trkpt lat="49.94718" lon="2.14239">
        <ele>16</ele>
        <time>2023-06-28T10:59:21Z</time>
      </trkpt>
      <trkpt lat="49.94718" lon="2.14239">
        <ele>16</ele>
        <time>2023-06-28T10:59:22Z</time>
      </trkpt>
      <trkpt lat="49.94718" lon="2.14239">
        <ele>16</ele>
        <time>2023-06-28T10:59:23Z</time>
      </trkpt>
      <trkpt lat="49.94718" lon="2.14239">
        <ele>16</ele>
        <time>2023-06-28T10:59:24Z</time>
      </trkpt>
      <trkpt lat="49.94718" lon="2.14239">
        <ele>16</ele>
        <time>2023-06-28T10:59:25Z</time>
      </trkpt>
      <trkpt lat="49.94718" lon="2.14239">
        <ele>16</ele>
        <time>2023-06-28T10:59:26Z</time>
      </trkpt>
      <trkpt lat="49.94718" lon="2.14239">
        <ele>16</ele>
        <time>2023-06-28T10:59:27Z</time>
      </trkpt>
      <trkpt lat="49.94718" lon="2.14239">
        <ele>16</ele>
        <time>2023-06-28T10:59:28Z</time>
      </trkpt>
      <trkpt lat="49.94718" lon="2.14239">
        <ele>16</ele>
        <time>2023-06-28T10:59:29Z</time>
      </trkpt>
      <trkpt lat="49.94718" lon="2.14239">
        <ele>16</ele>
        <time>2023-06-28T10:59:30Z</time>
      </trkpt>
      <trkpt lat="49.94718" lon="2.14239">
        <ele>16</ele>
        <time>2023-06-28T10:59:31Z</time>
      </trkpt>
      <trkpt lat="49.94718" lon="2.14239">
        <ele>16</ele>
        <time>2023-06-28T10:59:32Z</time>
      </trkpt>
      <trkpt lat="49.94718" lon="2.14239">
        <ele>16</ele>
        <time>2023-06-28T10:59:33Z</time>
      </trkpt>
      <trkpt lat="49.94718" lon="2.14239">
        <ele>16</ele>
        <time>2023-06-28T10:59:34Z</time>
      </trkpt>
      <trkpt lat="49.94718" lon="2.14239">
        <ele>16</ele>
        <time>2023-06-28T10:59:35Z</time>
      </trkpt>
      <trkpt lat="49.94718" lon="2.14239">
        <ele>16</ele>
        <time>2023-06-28T10:59:36Z</time>
      </trkpt>
      <trkpt lat="49.94718" lon="2.14239">
        <ele>16</ele>
        <time>2023-06-28T10:59:37Z</time>
      </trkpt>
      <trkpt lat="49.94718" lon="2.14239">
        <ele>16</ele>
        <time>2023-06-28T10:59:38Z</time>
      </trkpt>
      <trkpt lat="49.94718" lon="2.14239">
        <ele>16</ele>
        <time>2023-06-28T10:59:39Z</time>
      </trkpt>
      <trkpt lat="49.94718" lon="2.14239">
        <ele>16</ele>
        <time>2023-06-28T10:59:40Z</time>
      </trkpt>
      <trkpt lat="49.94718" lon="2.14239">
        <ele>16</ele>
        <time>2023-06-28T10:59:41Z</time>
      </trkpt>
      <trkpt lat="49.94718" lon="2.14239">
        <ele>16</ele>
        <time>2023-06-28T10:59:42Z</time>
      </trkpt>
      <trkpt lat="49.94718" lon="2.14239">
        <ele>16</ele>
        <time>2023-06-28T10:59:43Z</time>
      </trkpt>
      <trkpt lat="49.94718" lon="2.14239">
        <ele>16</ele>
        <time>2023-06-28T10:59:44Z</time>
      </trkpt>
      <trkpt lat="49.94718" lon="2.14239">
        <ele>16</ele>
        <time>2023-06-28T10:59:45Z</time>
      </trkpt>
      <trkpt lat="49.94718" lon="2.14239">
        <ele>16</ele>
        <time>2023-06-28T10:59:46Z</time>
      </trkpt>
      <trkpt lat="49.94718" lon="2.14239">
        <ele>16</ele>
        <time>2023-06-28T10:59:47Z</time>
      </trkpt>
      <trkpt lat="49.94718" lon="2.14239">
        <ele>16</ele>
        <time>2023-06-28T10:59:48Z</time>
      </trkpt>
      <trkpt lat="49.94718" lon="2.14239">
        <ele>16</ele>
        <time>2023-06-28T10:59:49Z</time>
      </trkpt>
      <trkpt lat="49.94718" lon="2.14239">
        <ele>16</ele>
        <time>2023-06-28T10:59:50Z</time>
      </trkpt>
      <trkpt lat="49.94718" lon="2.14239">
        <ele>16</ele>
        <time>2023-06-28T10:59:51Z</time>
      </trkpt>
      <trkpt lat="49.94718" lon="2.14239">
        <ele>16</ele>
        <time>2023-06-28T10:59:52Z</time>
      </trkpt>
      <trkpt lat="49.94718" lon="2.14239">
        <ele>16</ele>
        <time>2023-06-28T10:59:53Z</time>
      </trkpt>
      <trkpt lat="49.94718" lon="2.14239">
        <ele>16</ele>
        <time>2023-06-28T10:59:54Z</time>
      </trkpt>
      <trkpt lat="49.94718" lon="2.14239">
        <ele>16</ele>
        <time>2023-06-28T10:59:55Z</time>
      </trkpt>
      <trkpt lat="49.94718" lon="2.14239">
        <ele>16</ele>
        <time>2023-06-28T10:59:56Z</time>
      </trkpt>
      <trkpt lat="49.94718" lon="2.14239">
        <ele>16</ele>
        <time>2023-06-28T10:59:57Z</time>
      </trkpt>
      <trkpt lat="49.94718" lon="2.14239">
        <ele>16</ele>
        <time>2023-06-28T10:59:58Z</time>
      </trkpt>
      <trkpt lat="49.94718" lon="2.14239">
        <ele>16</ele>
        <time>2023-06-28T10:59:59Z</time>
      </trkpt>
      <trkpt lat="49.94718" lon="2.14239">
        <ele>16</ele>
        <time>2023-06-28T11:00:00Z</time>
      </trkpt>
      <trkpt lat="49.94718" lon="2.14239">
        <ele>16</ele>
        <time>2023-06-28T11:00:01Z</time>
      </trkpt>
      <trkpt lat="49.94718" lon="2.14239">
        <ele>16</ele>
        <time>2023-06-28T11:00:02Z</time>
      </trkpt>
      <trkpt lat="49.94718" lon="2.14239">
        <ele>16</ele>
        <time>2023-06-28T11:00:03Z</time>
      </trkpt>
      <trkpt lat="49.94718" lon="2.14239">
        <ele>16</ele>
        <time>2023-06-28T11:00:04Z</time>
      </trkpt>
      <trkpt lat="49.94718" lon="2.14239">
        <ele>16</ele>
        <time>2023-06-28T11:00:05Z</time>
      </trkpt>
      <trkpt lat="49.94718" lon="2.14239">
        <ele>16</ele>
        <time>2023-06-28T11:00:06Z</time>
      </trkpt>
      <trkpt lat="49.94718" lon="2.14239">
        <ele>16</ele>
        <time>2023-06-28T11:00:07Z</time>
      </trkpt>
      <trkpt lat="49.94718" lon="2.14239">
        <ele>16</ele>
        <time>2023-06-28T11:00:08Z</time>
      </trkpt>
      <trkpt lat="49.94718" lon="2.14239">
        <ele>16</ele>
        <time>2023-06-28T11:00:09Z</time>
      </trkpt>
      <trkpt lat="49.94718" lon="2.14239">
        <ele>16</ele>
        <time>2023-06-28T11:00:10Z</time>
      </trkpt>
      <trkpt lat="49.94718" lon="2.14239">
        <ele>16</ele>
        <time>2023-06-28T11:00:11Z</time>
      </trkpt>
      <trkpt lat="49.94718" lon="2.14239">
        <ele>16</ele>
        <time>2023-06-28T11:00:12Z</time>
      </trkpt>
      <trkpt lat="49.94718" lon="2.14239">
        <ele>16</ele>
        <time>2023-06-28T11:00:13Z</time>
      </trkpt>
      <trkpt lat="49.94718" lon="2.14239">
        <ele>16</ele>
        <time>2023-06-28T11:00:14Z</time>
      </trkpt>
      <trkpt lat="49.94718" lon="2.14239">
        <ele>16</ele>
        <time>2023-06-28T11:00:15Z</time>
      </trkpt>
      <trkpt lat="49.94718" lon="2.14239">
        <ele>16</ele>
        <time>2023-06-28T11:00:18Z</time>
      </trkpt>
      <trkpt lat="49.94719" lon="2.14238">
        <ele>16</ele>
        <time>2023-06-28T11:00:19Z</time>
      </trkpt>
      <trkpt lat="49.94719" lon="2.14238">
        <ele>16</ele>
        <time>2023-06-28T11:00:20Z</time>
      </trkpt>
      <trkpt lat="49.94719" lon="2.14238">
        <ele>16</ele>
        <time>2023-06-28T11:00:21Z</time>
      </trkpt>
      <trkpt lat="49.9472" lon="2.14238">
        <ele>16</ele>
        <time>2023-06-28T11:00:22Z</time>
      </trkpt>
      <trkpt lat="49.9472" lon="2.14239">
        <ele>16</ele>
        <time>2023-06-28T11:00:23Z</time>
      </trkpt>
      <trkpt lat="49.94717" lon="2.14232">
        <ele>16</ele>
        <time>2023-06-28T11:03:52Z</time>
      </trkpt>
      <trkpt lat="49.94718" lon="2.14233">
        <ele>16</ele>
        <time>2023-06-28T11:03:53Z</time>
      </trkpt>
      <trkpt lat="49.94718" lon="2.14233">
        <ele>16</ele>
        <time>2023-06-28T11:03:54Z</time>
      </trkpt>
      <trkpt lat="49.94718" lon="2.14232">
        <ele>16</ele>
        <time>2023-06-28T11:03:55Z</time>
      </trkpt>
      <trkpt lat="49.94718" lon="2.14232">
        <ele>16</ele>
        <time>2023-06-28T11:03:56Z</time>
      </trkpt>
      <trkpt lat="49.94717" lon="2.14232">
        <ele>16</ele>
        <time>2023-06-28T11:03:57Z</time>
      </trkpt>
      <trkpt lat="49.94716" lon="2.14232">
        <ele>16</ele>
        <time>2023-06-28T11:03:58Z</time>
      </trkpt>
      <trkpt lat="49.94716" lon="2.14232">
        <ele>16</ele>
        <time>2023-06-28T11:04:00Z</time>
      </trkpt>
      <trkpt lat="49.94716" lon="2.14232">
        <ele>16</ele>
        <time>2023-06-28T11:04:01Z</time>
      </trkpt>
      <trkpt lat="49.94716" lon="2.14233">
        <ele>16</ele>
        <time>2023-06-28T11:04:03Z</time>
      </trkpt>
      <trkpt lat="49.94716" lon="2.14233">
        <ele>16</ele>
        <time>2023-06-28T11:04:04Z</time>
      </trkpt>
      <trkpt lat="49.94717" lon="2.14234">
        <ele>16</ele>
        <time>2023-06-28T11:04:05Z</time>
      </trkpt>
      <trkpt lat="49.94718" lon="2.14234">
        <ele>16</ele>
        <time>2023-06-28T11:04:06Z</time>
      </trkpt>
      <trkpt lat="49.94719" lon="2.14235">
        <ele>16</ele>
        <time>2023-06-28T11:04:08Z</time>
      </trkpt>
      <trkpt lat="49.9472" lon="2.14235">
        <ele>16</ele>
        <time>2023-06-28T11:04:09Z</time>
      </trkpt>
      <trkpt lat="49.94721" lon="2.14236">
        <ele>16</ele>
        <time>2023-06-28T11:04:11Z</time>
      </trkpt>
      <trkpt lat="49.94721" lon="2.14236">
        <ele>16</ele>
        <time>2023-06-28T11:04:12Z</time>
      </trkpt>
      <trkpt lat="49.94721" lon="2.14237">
        <ele>16</ele>
        <time>2023-06-28T11:04:14Z</time>
      </trkpt>
      <trkpt lat="49.94721" lon="2.14237">
        <ele>16</ele>
        <time>2023-06-28T11:04:15Z</time>
      </trkpt>
      <trkpt lat="49.94721" lon="2.14237">
        <ele>16</ele>
        <time>2023-06-28T11:04:17Z</time>
      </trkpt>
      <trkpt lat="49.94722" lon="2.14237">
        <ele>16</ele>
        <time>2023-06-28T11:04:18Z</time>
      </trkpt>
      <trkpt lat="49.94722" lon="2.14238">
        <ele>16</ele>
        <time>2023-06-28T11:04:19Z</time>
      </trkpt>
      <trkpt lat="49.94722" lon="2.14238">
        <ele>16</ele>
        <time>2023-06-28T11:04:21Z</time>
      </trkpt>
      <trkpt lat="49.94722" lon="2.14238">
        <ele>16</ele>
        <time>2023-06-28T11:04:22Z</time>
      </trkpt>
      <trkpt lat="49.94722" lon="2.14238">
        <ele>16</ele>
        <time>2023-06-28T11:04:23Z</time>
      </trkpt>
      <trkpt lat="49.94721" lon="2.14238">
        <ele>16</ele>
        <time>2023-06-28T11:04:24Z</time>
      </trkpt>
      <trkpt lat="49.94721" lon="2.14238">
        <ele>16</ele>
        <time>2023-06-28T11:04:25Z</time>
      </trkpt>
      <trkpt lat="49.94721" lon="2.14238">
        <ele>16</ele>
        <time>2023-06-28T11:04:26Z</time>
      </trkpt>
      <trkpt lat="49.94721" lon="2.14238">
        <ele>16</ele>
        <time>2023-06-28T11:04:27Z</time>
      </trkpt>
      <trkpt lat="49.94721" lon="2.14238">
        <ele>16</ele>
        <time>2023-06-28T11:04:28Z</time>
      </trkpt>
      <trkpt lat="49.94721" lon="2.14238">
        <ele>16</ele>
        <time>2023-06-28T11:04:29Z</time>
      </trkpt>
      <trkpt lat="49.94721" lon="2.14238">
        <ele>16</ele>
        <time>2023-06-28T11:04:30Z</time>
      </trkpt>
      <trkpt lat="49.94721" lon="2.14238">
        <ele>16</ele>
        <time>2023-06-28T11:04:31Z</time>
      </trkpt>
      <trkpt lat="49.94721" lon="2.14238">
        <ele>16</ele>
        <time>2023-06-28T11:04:32Z</time>
      </trkpt>
      <trkpt lat="49.94721" lon="2.14238">
        <ele>16</ele>
        <time>2023-06-28T11:04:33Z</time>
      </trkpt>
      <trkpt lat="49.94721" lon="2.14238">
        <ele>16</ele>
        <time>2023-06-28T11:04:34Z</time>
      </trkpt>
      <trkpt lat="49.94721" lon="2.14238">
        <ele>16</ele>
        <time>2023-06-28T11:04:35Z</time>
      </trkpt>
      <trkpt lat="49.94721" lon="2.14238">
        <ele>16</ele>
        <time>2023-06-28T11:04:36Z</time>
      </trkpt>
      <trkpt lat="49.94721" lon="2.14238">
        <ele>16</ele>
        <time>2023-06-28T11:04:37Z</time>
      </trkpt>
      <trkpt lat="49.94721" lon="2.14238">
        <ele>16</ele>
        <time>2023-06-28T11:04:38Z</time>
      </trkpt>
      <trkpt lat="49.94722" lon="2.14238">
        <ele>16</ele>
        <time>2023-06-28T11:04:39Z</time>
      </trkpt>
      <trkpt lat="49.94722" lon="2.14238">
        <ele>16</ele>
        <time>2023-06-28T11:04:40Z</time>
      </trkpt>
      <trkpt lat="49.94723" lon="2.14238">
        <ele>16</ele>
        <time>2023-06-28T11:04:42Z</time>
      </trkpt>
      <trkpt lat="49.94723" lon="2.14239">
        <ele>16</ele>
        <time>2023-06-28T11:04:44Z</time>
      </trkpt>
      <trkpt lat="49.94723" lon="2.14239">
        <ele>16</ele>
        <time>2023-06-28T11:04:45Z</time>
      </trkpt>
      <trkpt lat="49.94723" lon="2.14239">
        <ele>16</ele>
        <time>2023-06-28T11:04:47Z</time>
      </trkpt>
      <trkpt lat="49.94723" lon="2.14239">
        <ele>16</ele>
        <time>2023-06-28T11:04:48Z</time>
      </trkpt>
      <trkpt lat="49.94723" lon="2.14238">
        <ele>16</ele>
        <time>2023-06-28T11:04:50Z</time>
      </trkpt>
      <trkpt lat="49.94723" lon="2.14239">
        <ele>16</ele>
        <time>2023-06-28T11:04:51Z</time>
      </trkpt>
      <trkpt lat="49.94723" lon="2.14239">
        <ele>16</ele>
        <time>2023-06-28T11:04:52Z</time>
      </trkpt>
      <trkpt lat="49.94723" lon="2.14239">
        <ele>16</ele>
        <time>2023-06-28T11:04:54Z</time>
      </trkpt>
      <trkpt lat="49.94723" lon="2.14239">
        <ele>16</ele>
        <time>2023-06-28T11:04:55Z</time>
      </trkpt>
      <trkpt lat="49.94723" lon="2.14239">
        <ele>16</ele>
        <time>2023-06-28T11:04:57Z</time>
      </trkpt>
      <trkpt lat="49.94723" lon="2.14239">
        <ele>16</ele>
        <time>2023-06-28T11:04:58Z</time>
      </trkpt>
      <trkpt lat="49.94723" lon="2.14239">
        <ele>16</ele>
        <time>2023-06-28T11:04:59Z</time>
      </trkpt>
      <trkpt lat="49.94723" lon="2.14239">
        <ele>16</ele>
        <time>2023-06-28T11:05:01Z</time>
      </trkpt>
      <trkpt lat="49.94723" lon="2.14239">
        <ele>16</ele>
        <time>2023-06-28T11:05:02Z</time>
      </trkpt>
      <trkpt lat="49.94723" lon="2.14239">
        <ele>16</ele>
        <time>2023-06-28T11:05:03Z</time>
      </trkpt>
      <trkpt lat="49.94722" lon="2.1424">
        <ele>16</ele>
        <time>2023-06-28T11:05:04Z</time>
      </trkpt>
      <trkpt lat="49.94722" lon="2.1424">
        <ele>16</ele>
        <time>2023-06-28T11:05:05Z</time>
      </trkpt>
      <trkpt lat="49.94722" lon="2.1424">
        <ele>16</ele>
        <time>2023-06-28T11:05:07Z</time>
      </trkpt>
      <trkpt lat="49.94722" lon="2.14239">
        <ele>16</ele>
        <time>2023-06-28T11:05:08Z</time>
      </trkpt>
      <trkpt lat="49.94722" lon="2.14239">
        <ele>16</ele>
        <time>2023-06-28T11:05:10Z</time>
      </trkpt>
      <trkpt lat="49.94722" lon="2.14238">
        <ele>16</ele>
        <time>2023-06-28T11:05:11Z</time>
      </trkpt>
      <trkpt lat="49.94722" lon="2.14238">
        <ele>16</ele>
        <time>2023-06-28T11:05:13Z</time>
      </trkpt>
      <trkpt lat="49.94722" lon="2.14238">
        <ele>16</ele>
        <time>2023-06-28T11:05:14Z</time>
      </trkpt>
      <trkpt lat="49.94722" lon="2.14238">
        <ele>16</ele>
        <time>2023-06-28T11:05:15Z</time>
      </trkpt>
      <trkpt lat="49.94722" lon="2.14237">
        <ele>16</ele>
        <time>2023-06-28T11:05:17Z</time>
      </trkpt>
      <trkpt lat="49.94722" lon="2.14237">
        <ele>16</ele>
        <time>2023-06-28T11:05:18Z</time>
      </trkpt>
      <trkpt lat="49.94722" lon="2.14237">
        <ele>16</ele>
        <time>2023-06-28T11:05:20Z</time>
      </trkpt>
      <trkpt lat="49.94722" lon="2.14237">
        <ele>16</ele>
        <time>2023-06-28T11:05:21Z</time>
      </trkpt>
      <trkpt lat="49.94722" lon="2.14237">
        <ele>16</ele>
        <time>2023-06-28T11:05:23Z</time>
      </trkpt>
      <trkpt lat="49.94722" lon="2.14237">
        <ele>16</ele>
        <time>2023-06-28T11:05:24Z</time>
      </trkpt>
      <trkpt lat="49.94722" lon="2.14237">
        <ele>16</ele>
        <time>2023-06-28T11:05:25Z</time>
      </trkpt>
      <trkpt lat="49.94722" lon="2.14237">
        <ele>16</ele>
        <time>2023-06-28T11:05:26Z</time>
      </trkpt>
      <trkpt lat="49.94722" lon="2.14237">
        <ele>16</ele>
        <time>2023-06-28T11:05:27Z</time>
      </trkpt>
      <trkpt lat="49.94722" lon="2.14237">
        <ele>16</ele>
        <time>2023-06-28T11:05:28Z</time>
      </trkpt>
      <trkpt lat="49.94722" lon="2.14237">
        <ele>16</ele>
        <time>2023-06-28T11:05:29Z</time>
      </trkpt>
      <trkpt lat="49.94722" lon="2.14237">
        <ele>16</ele>
        <time>2023-06-28T11:05:30Z</time>
      </trkpt>
      <trkpt lat="49.94722" lon="2.14237">
        <ele>16</ele>
        <time>2023-06-28T11:05:31Z</time>
      </trkpt>
      <trkpt lat="49.94722" lon="2.14237">
        <ele>16</ele>
        <time>2023-06-28T11:05:32Z</time>
      </trkpt>
      <trkpt lat="49.94722" lon="2.14237">
        <ele>16</ele>
        <time>2023-06-28T11:05:33Z</time>
      </trkpt>
      <trkpt lat="49.94722" lon="2.14237">
        <ele>16</ele>
        <time>2023-06-28T11:05:34Z</time>
      </trkpt>
      <trkpt lat="49.94722" lon="2.14237">
        <ele>16</ele>
        <time>2023-06-28T11:05:35Z</time>
      </trkpt>
      <trkpt lat="49.94722" lon="2.14237">
        <ele>16</ele>
        <time>2023-06-28T11:05:36Z</time>
      </trkpt>
      <trkpt lat="49.94722" lon="2.14237">
        <ele>16</ele>
        <time>2023-06-28T11:05:37Z</time>
      </trkpt>
      <trkpt lat="49.94722" lon="2.14237">
        <ele>16</ele>
        <time>2023-06-28T11:05:38Z</time>
      </trkpt>
      <trkpt lat="49.94722" lon="2.14237">
        <ele>16</ele>
        <time>2023-06-28T11:05:39Z</time>
      </trkpt>
      <trkpt lat="49.94722" lon="2.14237">
        <ele>16</ele>
        <time>2023-06-28T11:05:40Z</time>
      </trkpt>
      <trkpt lat="49.94722" lon="2.14237">
        <ele>16</ele>
        <time>2023-06-28T11:05:41Z</time>
      </trkpt>
      <trkpt lat="49.94722" lon="2.14237">
        <ele>16</ele>
        <time>2023-06-28T11:05:42Z</time>
      </trkpt>
      <trkpt lat="49.94722" lon="2.14237">
        <ele>16</ele>
        <time>2023-06-28T11:05:43Z</time>
      </trkpt>
      <trkpt lat="49.94722" lon="2.14237">
        <ele>16</ele>
        <time>2023-06-28T11:05:44Z</time>
      </trkpt>
      <trkpt lat="49.94722" lon="2.14237">
        <ele>16</ele>
        <time>2023-06-28T11:05:45Z</time>
      </trkpt>
      <trkpt lat="49.94722" lon="2.14237">
        <ele>16</ele>
        <time>2023-06-28T11:05:46Z</time>
      </trkpt>
      <trkpt lat="49.94722" lon="2.14237">
        <ele>16</ele>
        <time>2023-06-28T11:05:47Z</time>
      </trkpt>
      <trkpt lat="49.94722" lon="2.14237">
        <ele>16</ele>
        <time>2023-06-28T11:05:48Z</time>
      </trkpt>
      <trkpt lat="49.94722" lon="2.14237">
        <ele>16</ele>
        <time>2023-06-28T11:05:49Z</time>
      </trkpt>
      <trkpt lat="49.94722" lon="2.14237">
        <ele>16</ele>
        <time>2023-06-28T11:05:50Z</time>
      </trkpt>
      <trkpt lat="49.94722" lon="2.14237">
        <ele>16</ele>
        <time>2023-06-28T11:05:51Z</time>
      </trkpt>
      <trkpt lat="49.94722" lon="2.14237">
        <ele>16</ele>
        <time>2023-06-28T11:05:52Z</time>
      </trkpt>
      <trkpt lat="49.94722" lon="2.14237">
        <ele>16</ele>
        <time>2023-06-28T11:05:53Z</time>
      </trkpt>
      <trkpt lat="49.94722" lon="2.14237">
        <ele>16</ele>
        <time>2023-06-28T11:05:54Z</time>
      </trkpt>
      <trkpt lat="49.94722" lon="2.14237">
        <ele>16</ele>
        <time>2023-06-28T11:05:55Z</time>
      </trkpt>
      <trkpt lat="49.94722" lon="2.14237">
        <ele>16</ele>
        <time>2023-06-28T11:05:56Z</time>
      </trkpt>
      <trkpt lat="49.94722" lon="2.14237">
        <ele>16</ele>
        <time>2023-06-28T11:05:57Z</time>
      </trkpt>
      <trkpt lat="49.94722" lon="2.14237">
        <ele>16</ele>
        <time>2023-06-28T11:05:58Z</time>
      </trkpt>
      <trkpt lat="49.94722" lon="2.14237">
        <ele>16</ele>
        <time>2023-06-28T11:05:59Z</time>
      </trkpt>
      <trkpt lat="49.94722" lon="2.14237">
        <ele>16</ele>
        <time>2023-06-28T11:06:00Z</time>
      </trkpt>
      <trkpt lat="49.94722" lon="2.14237">
        <ele>16</ele>
        <time>2023-06-28T11:06:01Z</time>
      </trkpt>
      <trkpt lat="49.94722" lon="2.14237">
        <ele>16</ele>
        <time>2023-06-28T11:06:02Z</time>
      </trkpt>
      <trkpt lat="49.94722" lon="2.14237">
        <ele>16</ele>
        <time>2023-06-28T11:06:03Z</time>
      </trkpt>
      <trkpt lat="49.94722" lon="2.14237">
        <ele>16</ele>
        <time>2023-06-28T11:06:04Z</time>
      </trkpt>
      <trkpt lat="49.94722" lon="2.14237">
        <ele>16</ele>
        <time>2023-06-28T11:06:05Z</time>
      </trkpt>
      <trkpt lat="49.94722" lon="2.14237">
        <ele>16</ele>
        <time>2023-06-28T11:06:06Z</time>
      </trkpt>
      <trkpt lat="49.94722" lon="2.14237">
        <ele>16</ele>
        <time>2023-06-28T11:06:07Z</time>
      </trkpt>
      <trkpt lat="49.94722" lon="2.14237">
        <ele>16</ele>
        <time>2023-06-28T11:06:08Z</time>
      </trkpt>
      <trkpt lat="49.94722" lon="2.14237">
        <ele>16</ele>
        <time>2023-06-28T11:06:09Z</time>
      </trkpt>
      <trkpt lat="49.94722" lon="2.14237">
        <ele>16</ele>
        <time>2023-06-28T11:06:10Z</time>
      </trkpt>
      <trkpt lat="49.94722" lon="2.14237">
        <ele>16</ele>
        <time>2023-06-28T11:06:11Z</time>
      </trkpt>
      <trkpt lat="49.94722" lon="2.14237">
        <ele>16</ele>
        <time>2023-06-28T11:06:12Z</time>
      </trkpt>
      <trkpt lat="49.94722" lon="2.14237">
        <ele>16</ele>
        <time>2023-06-28T11:06:13Z</time>
      </trkpt>
      <trkpt lat="49.94722" lon="2.14237">
        <ele>16</ele>
        <time>2023-06-28T11:06:14Z</time>
      </trkpt>
      <trkpt lat="49.94722" lon="2.14237">
        <ele>16</ele>
        <time>2023-06-28T11:06:15Z</time>
      </trkpt>
      <trkpt lat="49.94722" lon="2.14237">
        <ele>16</ele>
        <time>2023-06-28T11:06:16Z</time>
      </trkpt>
      <trkpt lat="49.94722" lon="2.14237">
        <ele>16</ele>
        <time>2023-06-28T11:06:17Z</time>
      </trkpt>
      <trkpt lat="49.94722" lon="2.14237">
        <ele>16</ele>
        <time>2023-06-28T11:06:18Z</time>
      </trkpt>
      <trkpt lat="49.94722" lon="2.14237">
        <ele>16</ele>
        <time>2023-06-28T11:06:19Z</time>
      </trkpt>
      <trkpt lat="49.94722" lon="2.14237">
        <ele>16</ele>
        <time>2023-06-28T11:06:20Z</time>
      </trkpt>
      <trkpt lat="49.94722" lon="2.14237">
        <ele>16</ele>
        <time>2023-06-28T11:06:21Z</time>
      </trkpt>
      <trkpt lat="49.94722" lon="2.14237">
        <ele>16</ele>
        <time>2023-06-28T11:06:22Z</time>
      </trkpt>
      <trkpt lat="49.94722" lon="2.14237">
        <ele>16</ele>
        <time>2023-06-28T11:06:23Z</time>
      </trkpt>
      <trkpt lat="49.94722" lon="2.14237">
        <ele>16</ele>
        <time>2023-06-28T11:06:24Z</time>
      </trkpt>
      <trkpt lat="49.94722" lon="2.14237">
        <ele>16</ele>
        <time>2023-06-28T11:06:25Z</time>
      </trkpt>
      <trkpt lat="49.94722" lon="2.14237">
        <ele>16</ele>
        <time>2023-06-28T11:06:26Z</time>
      </trkpt>
      <trkpt lat="49.94722" lon="2.14237">
        <ele>16</ele>
        <time>2023-06-28T11:06:27Z</time>
      </trkpt>
      <trkpt lat="49.94722" lon="2.14237">
        <ele>16</ele>
        <time>2023-06-28T11:06:28Z</time>
      </trkpt>
      <trkpt lat="49.94722" lon="2.14237">
        <ele>16</ele>
        <time>2023-06-28T11:06:29Z</time>
      </trkpt>
      <trkpt lat="49.94722" lon="2.14237">
        <ele>16</ele>
        <time>2023-06-28T11:06:30Z</time>
      </trkpt>
      <trkpt lat="49.94722" lon="2.14237">
        <ele>16</ele>
        <time>2023-06-28T11:06:31Z</time>
      </trkpt>
      <trkpt lat="49.94722" lon="2.14237">
        <ele>16</ele>
        <time>2023-06-28T11:06:32Z</time>
      </trkpt>
      <trkpt lat="49.94722" lon="2.14237">
        <ele>16</ele>
        <time>2023-06-28T11:06:33Z</time>
      </trkpt>
      <trkpt lat="49.94722" lon="2.14237">
        <ele>16</ele>
        <time>2023-06-28T11:06:34Z</time>
      </trkpt>
      <trkpt lat="49.94722" lon="2.14237">
        <ele>16</ele>
        <time>2023-06-28T11:06:35Z</time>
      </trkpt>
      <trkpt lat="49.94722" lon="2.14237">
        <ele>16</ele>
        <time>2023-06-28T11:06:36Z</time>
      </trkpt>
      <trkpt lat="49.94722" lon="2.14237">
        <ele>16</ele>
        <time>2023-06-28T11:06:37Z</time>
      </trkpt>
      <trkpt lat="49.94722" lon="2.14237">
        <ele>16</ele>
        <time>2023-06-28T11:06:38Z</time>
      </trkpt>
      <trkpt lat="49.94722" lon="2.14237">
        <ele>16</ele>
        <time>2023-06-28T11:06:39Z</time>
      </trkpt>
      <trkpt lat="49.94722" lon="2.14237">
        <ele>16</ele>
        <time>2023-06-28T11:06:40Z</time>
      </trkpt>
      <trkpt lat="49.94722" lon="2.14237">
        <ele>16</ele>
        <time>2023-06-28T11:06:41Z</time>
      </trkpt>
      <trkpt lat="49.94722" lon="2.14237">
        <ele>16</ele>
        <time>2023-06-28T11:06:42Z</time>
      </trkpt>
      <trkpt lat="49.94722" lon="2.14237">
        <ele>16</ele>
        <time>2023-06-28T11:06:43Z</time>
      </trkpt>
      <trkpt lat="49.94722" lon="2.14237">
        <ele>16</ele>
        <time>2023-06-28T11:06:44Z</time>
      </trkpt>
      <trkpt lat="49.94722" lon="2.14237">
        <ele>16</ele>
        <time>2023-06-28T11:06:45Z</time>
      </trkpt>
      <trkpt lat="49.94722" lon="2.14237">
        <ele>16</ele>
        <time>2023-06-28T11:06:46Z</time>
      </trkpt>
      <trkpt lat="49.94722" lon="2.14237">
        <ele>16</ele>
        <time>2023-06-28T11:06:47Z</time>
      </trkpt>
      <trkpt lat="49.94722" lon="2.14237">
        <ele>16</ele>
        <time>2023-06-28T11:06:48Z</time>
      </trkpt>
      <trkpt lat="49.94722" lon="2.14237">
        <ele>16</ele>
        <time>2023-06-28T11:06:49Z</time>
      </trkpt>
      <trkpt lat="49.94722" lon="2.14237">
        <ele>16</ele>
        <time>2023-06-28T11:06:50Z</time>
      </trkpt>
      <trkpt lat="49.94722" lon="2.14237">
        <ele>16</ele>
        <time>2023-06-28T11:06:51Z</time>
      </trkpt>
      <trkpt lat="49.94722" lon="2.14237">
        <ele>16</ele>
        <time>2023-06-28T11:06:52Z</time>
      </trkpt>
      <trkpt lat="49.94722" lon="2.14237">
        <ele>16</ele>
        <time>2023-06-28T11:06:53Z</time>
      </trkpt>
      <trkpt lat="49.94722" lon="2.14237">
        <ele>16</ele>
        <time>2023-06-28T11:06:54Z</time>
      </trkpt>
      <trkpt lat="49.94722" lon="2.14237">
        <ele>16</ele>
        <time>2023-06-28T11:06:55Z</time>
      </trkpt>
      <trkpt lat="49.94722" lon="2.14237">
        <ele>16</ele>
        <time>2023-06-28T11:06:56Z</time>
      </trkpt>
      <trkpt lat="49.94722" lon="2.14237">
        <ele>16</ele>
        <time>2023-06-28T11:06:57Z</time>
      </trkpt>
      <trkpt lat="49.94722" lon="2.14237">
        <ele>16</ele>
        <time>2023-06-28T11:06:58Z</time>
      </trkpt>
      <trkpt lat="49.94722" lon="2.14237">
        <ele>16</ele>
        <time>2023-06-28T11:06:59Z</time>
      </trkpt>
      <trkpt lat="49.94722" lon="2.14237">
        <ele>16</ele>
        <time>2023-06-28T11:07:00Z</time>
      </trkpt>
      <trkpt lat="49.94722" lon="2.14237">
        <ele>16</ele>
        <time>2023-06-28T11:07:01Z</time>
      </trkpt>
      <trkpt lat="49.94722" lon="2.14237">
        <ele>16</ele>
        <time>2023-06-28T11:07:02Z</time>
      </trkpt>
      <trkpt lat="49.94722" lon="2.14237">
        <ele>16</ele>
        <time>2023-06-28T11:07:03Z</time>
      </trkpt>
      <trkpt lat="49.94722" lon="2.14237">
        <ele>16</ele>
        <time>2023-06-28T11:07:04Z</time>
      </trkpt>
      <trkpt lat="49.94722" lon="2.14237">
        <ele>16</ele>
        <time>2023-06-28T11:07:05Z</time>
      </trkpt>
      <trkpt lat="49.94722" lon="2.14237">
        <ele>16</ele>
        <time>2023-06-28T11:07:06Z</time>
      </trkpt>
      <trkpt lat="49.94722" lon="2.14237">
        <ele>16</ele>
        <time>2023-06-28T11:07:07Z</time>
      </trkpt>
      <trkpt lat="49.94722" lon="2.14237">
        <ele>16</ele>
        <time>2023-06-28T11:07:08Z</time>
      </trkpt>
      <trkpt lat="49.94722" lon="2.14237">
        <ele>16</ele>
        <time>2023-06-28T11:07:09Z</time>
      </trkpt>
      <trkpt lat="49.94722" lon="2.14237">
        <ele>16</ele>
        <time>2023-06-28T11:07:10Z</time>
      </trkpt>
      <trkpt lat="49.94722" lon="2.14237">
        <ele>16</ele>
        <time>2023-06-28T11:07:11Z</time>
      </trkpt>
      <trkpt lat="49.94722" lon="2.14237">
        <ele>16</ele>
        <time>2023-06-28T11:07:12Z</time>
      </trkpt>
      <trkpt lat="49.94722" lon="2.14237">
        <ele>16</ele>
        <time>2023-06-28T11:07:13Z</time>
      </trkpt>
      <trkpt lat="49.94722" lon="2.14237">
        <ele>16</ele>
        <time>2023-06-28T11:07:14Z</time>
      </trkpt>
      <trkpt lat="49.94722" lon="2.14237">
        <ele>16</ele>
        <time>2023-06-28T11:07:15Z</time>
      </trkpt>
      <trkpt lat="49.94722" lon="2.14237">
        <ele>16</ele>
        <time>2023-06-28T11:07:16Z</time>
      </trkpt>
      <trkpt lat="49.94722" lon="2.14237">
        <ele>16</ele>
        <time>2023-06-28T11:07:17Z</time>
      </trkpt>
      <trkpt lat="49.94722" lon="2.14237">
        <ele>16</ele>
        <time>2023-06-28T11:07:18Z</time>
      </trkpt>
      <trkpt lat="49.94722" lon="2.14237">
        <ele>16</ele>
        <time>2023-06-28T11:07:19Z</time>
      </trkpt>
      <trkpt lat="49.94722" lon="2.14237">
        <ele>16</ele>
        <time>2023-06-28T11:07:20Z</time>
      </trkpt>
      <trkpt lat="49.94722" lon="2.14237">
        <ele>16</ele>
        <time>2023-06-28T11:07:21Z</time>
      </trkpt>
      <trkpt lat="49.94722" lon="2.14237">
        <ele>16</ele>
        <time>2023-06-28T11:07:22Z</time>
      </trkpt>
      <trkpt lat="49.94722" lon="2.14237">
        <ele>16</ele>
        <time>2023-06-28T11:07:23Z</time>
      </trkpt>
      <trkpt lat="49.94722" lon="2.14237">
        <ele>16</ele>
        <time>2023-06-28T11:07:24Z</time>
      </trkpt>
      <trkpt lat="49.94722" lon="2.14237">
        <ele>16</ele>
        <time>2023-06-28T11:07:25Z</time>
      </trkpt>
      <trkpt lat="49.94722" lon="2.14237">
        <ele>16</ele>
        <time>2023-06-28T11:07:26Z</time>
      </trkpt>
      <trkpt lat="49.94722" lon="2.14237">
        <ele>16</ele>
        <time>2023-06-28T11:07:27Z</time>
      </trkpt>
      <trkpt lat="49.94722" lon="2.14237">
        <ele>16</ele>
        <time>2023-06-28T11:07:28Z</time>
      </trkpt>
      <trkpt lat="49.94722" lon="2.14237">
        <ele>16</ele>
        <time>2023-06-28T11:07:29Z</time>
      </trkpt>
      <trkpt lat="49.94722" lon="2.14237">
        <ele>16</ele>
        <time>2023-06-28T11:07:30Z</time>
      </trkpt>
      <trkpt lat="49.94722" lon="2.14237">
        <ele>16</ele>
        <time>2023-06-28T11:07:31Z</time>
      </trkpt>
      <trkpt lat="49.94722" lon="2.14237">
        <ele>16</ele>
        <time>2023-06-28T11:07:32Z</time>
      </trkpt>
      <trkpt lat="49.94722" lon="2.14237">
        <ele>16</ele>
        <time>2023-06-28T11:07:33Z</time>
      </trkpt>
      <trkpt lat="49.94722" lon="2.14237">
        <ele>16</ele>
        <time>2023-06-28T11:07:34Z</time>
      </trkpt>
      <trkpt lat="49.94722" lon="2.14237">
        <ele>16</ele>
        <time>2023-06-28T11:07:35Z</time>
      </trkpt>
      <trkpt lat="49.94722" lon="2.14237">
        <ele>16</ele>
        <time>2023-06-28T11:07:36Z</time>
      </trkpt>
      <trkpt lat="49.94722" lon="2.14237">
        <ele>16</ele>
        <time>2023-06-28T11:07:37Z</time>
      </trkpt>
      <trkpt lat="49.94722" lon="2.14237">
        <ele>16</ele>
        <time>2023-06-28T11:07:38Z</time>
      </trkpt>
      <trkpt lat="49.94722" lon="2.14237">
        <ele>16</ele>
        <time>2023-06-28T11:07:39Z</time>
      </trkpt>
      <trkpt lat="49.94722" lon="2.14237">
        <ele>16</ele>
        <time>2023-06-28T11:07:40Z</time>
      </trkpt>
      <trkpt lat="49.94722" lon="2.14237">
        <ele>16</ele>
        <time>2023-06-28T11:07:41Z</time>
      </trkpt>
      <trkpt lat="49.94722" lon="2.14237">
        <ele>16</ele>
        <time>2023-06-28T11:07:42Z</time>
      </trkpt>
      <trkpt lat="49.94722" lon="2.14237">
        <ele>16</ele>
        <time>2023-06-28T11:07:43Z</time>
      </trkpt>
      <trkpt lat="49.94722" lon="2.14237">
        <ele>16</ele>
        <time>2023-06-28T11:07:44Z</time>
      </trkpt>
      <trkpt lat="49.94722" lon="2.14237">
        <ele>16</ele>
        <time>2023-06-28T11:07:45Z</time>
      </trkpt>
      <trkpt lat="49.94722" lon="2.14237">
        <ele>16</ele>
        <time>2023-06-28T11:07:46Z</time>
      </trkpt>
      <trkpt lat="49.94722" lon="2.14237">
        <ele>16</ele>
        <time>2023-06-28T11:07:47Z</time>
      </trkpt>
      <trkpt lat="49.94722" lon="2.14237">
        <ele>16</ele>
        <time>2023-06-28T11:07:48Z</time>
      </trkpt>
      <trkpt lat="49.94722" lon="2.14237">
        <ele>16</ele>
        <time>2023-06-28T11:07:49Z</time>
      </trkpt>
      <trkpt lat="49.94722" lon="2.14237">
        <ele>16</ele>
        <time>2023-06-28T11:07:50Z</time>
      </trkpt>
      <trkpt lat="49.94722" lon="2.14237">
        <ele>16</ele>
        <time>2023-06-28T11:07:51Z</time>
      </trkpt>
      <trkpt lat="49.94722" lon="2.14237">
        <ele>16</ele>
        <time>2023-06-28T11:07:52Z</time>
      </trkpt>
      <trkpt lat="49.94722" lon="2.14237">
        <ele>16</ele>
        <time>2023-06-28T11:07:53Z</time>
      </trkpt>
      <trkpt lat="49.94722" lon="2.14237">
        <ele>16</ele>
        <time>2023-06-28T11:07:54Z</time>
      </trkpt>
      <trkpt lat="49.94722" lon="2.14237">
        <ele>16</ele>
        <time>2023-06-28T11:07:55Z</time>
      </trkpt>
      <trkpt lat="49.94722" lon="2.14237">
        <ele>16</ele>
        <time>2023-06-28T11:07:56Z</time>
      </trkpt>
      <trkpt lat="49.94722" lon="2.14237">
        <ele>16</ele>
        <time>2023-06-28T11:07:57Z</time>
      </trkpt>
      <trkpt lat="49.94722" lon="2.14237">
        <ele>16</ele>
        <time>2023-06-28T11:07:58Z</time>
      </trkpt>
      <trkpt lat="49.94722" lon="2.14237">
        <ele>16</ele>
        <time>2023-06-28T11:07:59Z</time>
      </trkpt>
      <trkpt lat="49.94722" lon="2.14237">
        <ele>16</ele>
        <time>2023-06-28T11:08:00Z</time>
      </trkpt>
      <trkpt lat="49.94722" lon="2.14237">
        <ele>16</ele>
        <time>2023-06-28T11:08:01Z</time>
      </trkpt>
      <trkpt lat="49.94722" lon="2.14237">
        <ele>16</ele>
        <time>2023-06-28T11:08:02Z</time>
      </trkpt>
      <trkpt lat="49.94722" lon="2.14237">
        <ele>16</ele>
        <time>2023-06-28T11:08:03Z</time>
      </trkpt>
      <trkpt lat="49.94722" lon="2.14237">
        <ele>16</ele>
        <time>2023-06-28T11:08:04Z</time>
      </trkpt>
      <trkpt lat="49.94722" lon="2.14237">
        <ele>16</ele>
        <time>2023-06-28T11:08:05Z</time>
      </trkpt>
      <trkpt lat="49.94722" lon="2.14237">
        <ele>16</ele>
        <time>2023-06-28T11:08:06Z</time>
      </trkpt>
      <trkpt lat="49.94722" lon="2.14237">
        <ele>16</ele>
        <time>2023-06-28T11:08:07Z</time>
      </trkpt>
      <trkpt lat="49.94722" lon="2.14237">
        <ele>16</ele>
        <time>2023-06-28T11:08:08Z</time>
      </trkpt>
      <trkpt lat="49.94722" lon="2.14237">
        <ele>16</ele>
        <time>2023-06-28T11:08:09Z</time>
      </trkpt>
      <trkpt lat="49.94722" lon="2.14237">
        <ele>16</ele>
        <time>2023-06-28T11:08:10Z</time>
      </trkpt>
      <trkpt lat="49.94722" lon="2.14237">
        <ele>16</ele>
        <time>2023-06-28T11:08:11Z</time>
      </trkpt>
      <trkpt lat="49.94722" lon="2.14237">
        <ele>16</ele>
        <time>2023-06-28T11:08:12Z</time>
      </trkpt>
      <trkpt lat="49.94722" lon="2.14237">
        <ele>16</ele>
        <time>2023-06-28T11:08:13Z</time>
      </trkpt>
      <trkpt lat="49.94722" lon="2.14237">
        <ele>16</ele>
        <time>2023-06-28T11:08:14Z</time>
      </trkpt>
      <trkpt lat="49.94722" lon="2.14237">
        <ele>16</ele>
        <time>2023-06-28T11:08:15Z</time>
      </trkpt>
      <trkpt lat="49.94722" lon="2.14237">
        <ele>16</ele>
        <time>2023-06-28T11:08:16Z</time>
      </trkpt>
      <trkpt lat="49.94722" lon="2.14237">
        <ele>16</ele>
        <time>2023-06-28T11:08:17Z</time>
      </trkpt>
      <trkpt lat="49.94722" lon="2.14237">
        <ele>16</ele>
        <time>2023-06-28T11:08:18Z</time>
      </trkpt>
      <trkpt lat="49.94722" lon="2.14237">
        <ele>16</ele>
        <time>2023-06-28T11:08:19Z</time>
      </trkpt>
      <trkpt lat="49.94722" lon="2.14237">
        <ele>16</ele>
        <time>2023-06-28T11:08:20Z</time>
      </trkpt>
      <trkpt lat="49.94722" lon="2.14237">
        <ele>16</ele>
        <time>2023-06-28T11:08:21Z</time>
      </trkpt>
      <trkpt lat="49.94722" lon="2.14237">
        <ele>16</ele>
        <time>2023-06-28T11:08:22Z</time>
      </trkpt>
      <trkpt lat="49.94722" lon="2.14237">
        <ele>16</ele>
        <time>2023-06-28T11:08:23Z</time>
      </trkpt>
      <trkpt lat="49.94722" lon="2.14237">
        <ele>16</ele>
        <time>2023-06-28T11:08:24Z</time>
      </trkpt>
      <trkpt lat="49.94722" lon="2.14237">
        <ele>16</ele>
        <time>2023-06-28T11:08:25Z</time>
      </trkpt>
      <trkpt lat="49.94722" lon="2.14237">
        <ele>16</ele>
        <time>2023-06-28T11:08:26Z</time>
      </trkpt>
      <trkpt lat="49.94722" lon="2.14237">
        <ele>16</ele>
        <time>2023-06-28T11:08:27Z</time>
      </trkpt>
      <trkpt lat="49.94722" lon="2.14237">
        <ele>16</ele>
        <time>2023-06-28T11:08:28Z</time>
      </trkpt>
      <trkpt lat="49.94722" lon="2.14237">
        <ele>16</ele>
        <time>2023-06-28T11:08:29Z</time>
      </trkpt>
      <trkpt lat="49.94722" lon="2.14237">
        <ele>16</ele>
        <time>2023-06-28T11:08:30Z</time>
      </trkpt>
      <trkpt lat="49.94722" lon="2.14237">
        <ele>16</ele>
        <time>2023-06-28T11:08:31Z</time>
      </trkpt>
      <trkpt lat="49.94722" lon="2.14237">
        <ele>16</ele>
        <time>2023-06-28T11:08:32Z</time>
      </trkpt>
      <trkpt lat="49.94722" lon="2.14237">
        <ele>16</ele>
        <time>2023-06-28T11:08:33Z</time>
      </trkpt>
      <trkpt lat="49.94722" lon="2.14237">
        <ele>16</ele>
        <time>2023-06-28T11:08:34Z</time>
      </trkpt>
      <trkpt lat="49.94722" lon="2.14237">
        <ele>16</ele>
        <time>2023-06-28T11:08:35Z</time>
      </trkpt>
      <trkpt lat="49.94722" lon="2.14237">
        <ele>16</ele>
        <time>2023-06-28T11:08:36Z</time>
      </trkpt>
      <trkpt lat="49.94722" lon="2.14237">
        <ele>16</ele>
        <time>2023-06-28T11:08:37Z</time>
      </trkpt>
      <trkpt lat="49.94722" lon="2.14237">
        <ele>16</ele>
        <time>2023-06-28T11:08:38Z</time>
      </trkpt>
      <trkpt lat="49.94722" lon="2.14237">
        <ele>16</ele>
        <time>2023-06-28T11:08:39Z</time>
      </trkpt>
      <trkpt lat="49.94722" lon="2.14237">
        <ele>16</ele>
        <time>2023-06-28T11:08:40Z</time>
      </trkpt>
      <trkpt lat="49.94722" lon="2.14237">
        <ele>16</ele>
        <time>2023-06-28T11:08:41Z</time>
      </trkpt>
      <trkpt lat="49.94722" lon="2.14237">
        <ele>16</ele>
        <time>2023-06-28T11:08:42Z</time>
      </trkpt>
      <trkpt lat="49.94722" lon="2.14237">
        <ele>16</ele>
        <time>2023-06-28T11:08:43Z</time>
      </trkpt>
      <trkpt lat="49.94722" lon="2.14237">
        <ele>16</ele>
        <time>2023-06-28T11:08:44Z</time>
      </trkpt>
      <trkpt lat="49.94722" lon="2.14237">
        <ele>16</ele>
        <time>2023-06-28T11:08:45Z</time>
      </trkpt>
      <trkpt lat="49.94722" lon="2.14237">
        <ele>16</ele>
        <time>2023-06-28T11:08:46Z</time>
      </trkpt>
      <trkpt lat="49.94722" lon="2.14237">
        <ele>16</ele>
        <time>2023-06-28T11:08:47Z</time>
      </trkpt>
      <trkpt lat="49.94722" lon="2.14237">
        <ele>16</ele>
        <time>2023-06-28T11:08:48Z</time>
      </trkpt>
      <trkpt lat="49.94722" lon="2.14237">
        <ele>16</ele>
        <time>2023-06-28T11:08:49Z</time>
      </trkpt>
      <trkpt lat="49.94722" lon="2.14237">
        <ele>16</ele>
        <time>2023-06-28T11:08:50Z</time>
      </trkpt>
      <trkpt lat="49.94722" lon="2.14237">
        <ele>16</ele>
        <time>2023-06-28T11:08:51Z</time>
      </trkpt>
      <trkpt lat="49.94722" lon="2.14237">
        <ele>16</ele>
        <time>2023-06-28T11:08:52Z</time>
      </trkpt>
      <trkpt lat="49.94722" lon="2.14237">
        <ele>16</ele>
        <time>2023-06-28T11:08:53Z</time>
      </trkpt>
      <trkpt lat="49.94722" lon="2.14237">
        <ele>16</ele>
        <time>2023-06-28T11:08:54Z</time>
      </trkpt>
      <trkpt lat="49.94722" lon="2.14237">
        <ele>16</ele>
        <time>2023-06-28T11:08:55Z</time>
      </trkpt>
      <trkpt lat="49.94722" lon="2.14237">
        <ele>16</ele>
        <time>2023-06-28T11:08:56Z</time>
      </trkpt>
      <trkpt lat="49.94722" lon="2.14237">
        <ele>16</ele>
        <time>2023-06-28T11:08:57Z</time>
      </trkpt>
      <trkpt lat="49.94722" lon="2.14237">
        <ele>16</ele>
        <time>2023-06-28T11:08:58Z</time>
      </trkpt>
      <trkpt lat="49.94722" lon="2.14237">
        <ele>16</ele>
        <time>2023-06-28T11:08:59Z</time>
      </trkpt>
      <trkpt lat="49.94722" lon="2.14237">
        <ele>16</ele>
        <time>2023-06-28T11:09:00Z</time>
      </trkpt>
      <trkpt lat="49.94722" lon="2.14237">
        <ele>16</ele>
        <time>2023-06-28T11:09:01Z</time>
      </trkpt>
      <trkpt lat="49.94722" lon="2.14237">
        <ele>16</ele>
        <time>2023-06-28T11:09:02Z</time>
      </trkpt>
      <trkpt lat="49.94722" lon="2.14237">
        <ele>16</ele>
        <time>2023-06-28T11:09:03Z</time>
      </trkpt>
      <trkpt lat="49.94722" lon="2.14237">
        <ele>16</ele>
        <time>2023-06-28T11:09:04Z</time>
      </trkpt>
      <trkpt lat="49.94722" lon="2.14237">
        <ele>16</ele>
        <time>2023-06-28T11:09:05Z</time>
      </trkpt>
      <trkpt lat="49.94722" lon="2.14237">
        <ele>16</ele>
        <time>2023-06-28T11:09:06Z</time>
      </trkpt>
      <trkpt lat="49.94722" lon="2.14237">
        <ele>16</ele>
        <time>2023-06-28T11:09:07Z</time>
      </trkpt>
      <trkpt lat="49.94722" lon="2.14237">
        <ele>16</ele>
        <time>2023-06-28T11:09:08Z</time>
      </trkpt>
      <trkpt lat="49.94722" lon="2.14237">
        <ele>16</ele>
        <time>2023-06-28T11:09:09Z</time>
      </trkpt>
      <trkpt lat="49.94722" lon="2.14237">
        <ele>16</ele>
        <time>2023-06-28T11:09:10Z</time>
      </trkpt>
      <trkpt lat="49.94722" lon="2.14237">
        <ele>16</ele>
        <time>2023-06-28T11:09:11Z</time>
      </trkpt>
      <trkpt lat="49.94722" lon="2.14237">
        <ele>16</ele>
        <time>2023-06-28T11:09:12Z</time>
      </trkpt>
      <trkpt lat="49.94722" lon="2.14237">
        <ele>16</ele>
        <time>2023-06-28T11:09:13Z</time>
      </trkpt>
      <trkpt lat="49.94722" lon="2.14237">
        <ele>16</ele>
        <time>2023-06-28T11:09:14Z</time>
      </trkpt>
      <trkpt lat="49.94722" lon="2.14237">
        <ele>16</ele>
        <time>2023-06-28T11:09:15Z</time>
      </trkpt>
      <trkpt lat="49.94722" lon="2.14237">
        <ele>16</ele>
        <time>2023-06-28T11:09:16Z</time>
      </trkpt>
      <trkpt lat="49.94722" lon="2.14237">
        <ele>16</ele>
        <time>2023-06-28T11:09:17Z</time>
      </trkpt>
      <trkpt lat="49.94722" lon="2.14237">
        <ele>16</ele>
        <time>2023-06-28T11:09:18Z</time>
      </trkpt>
      <trkpt lat="49.94722" lon="2.14237">
        <ele>16</ele>
        <time>2023-06-28T11:09:19Z</time>
      </trkpt>
      <trkpt lat="49.94722" lon="2.14237">
        <ele>16</ele>
        <time>2023-06-28T11:09:20Z</time>
      </trkpt>
      <trkpt lat="49.94722" lon="2.14237">
        <ele>16</ele>
        <time>2023-06-28T11:09:21Z</time>
      </trkpt>
      <trkpt lat="49.94722" lon="2.14237">
        <ele>16</ele>
        <time>2023-06-28T11:09:22Z</time>
      </trkpt>
      <trkpt lat="49.94722" lon="2.14237">
        <ele>16</ele>
        <time>2023-06-28T11:09:23Z</time>
      </trkpt>
      <trkpt lat="49.94722" lon="2.14237">
        <ele>16</ele>
        <time>2023-06-28T11:09:24Z</time>
      </trkpt>
      <trkpt lat="49.94722" lon="2.14237">
        <ele>16</ele>
        <time>2023-06-28T11:09:25Z</time>
      </trkpt>
      <trkpt lat="49.94722" lon="2.14237">
        <ele>16</ele>
        <time>2023-06-28T11:09:26Z</time>
      </trkpt>
      <trkpt lat="49.94722" lon="2.14237">
        <ele>16</ele>
        <time>2023-06-28T11:09:27Z</time>
      </trkpt>
      <trkpt lat="49.94722" lon="2.14237">
        <ele>16</ele>
        <time>2023-06-28T11:09:28Z</time>
      </trkpt>
      <trkpt lat="49.94722" lon="2.14237">
        <ele>16</ele>
        <time>2023-06-28T11:09:29Z</time>
      </trkpt>
      <trkpt lat="49.94722" lon="2.14237">
        <ele>16</ele>
        <time>2023-06-28T11:09:30Z</time>
      </trkpt>
      <trkpt lat="49.94722" lon="2.14237">
        <ele>16</ele>
        <time>2023-06-28T11:09:31Z</time>
      </trkpt>
      <trkpt lat="49.94722" lon="2.14237">
        <ele>16</ele>
        <time>2023-06-28T11:09:32Z</time>
      </trkpt>
      <trkpt lat="49.94722" lon="2.14237">
        <ele>16</ele>
        <time>2023-06-28T11:09:33Z</time>
      </trkpt>
      <trkpt lat="49.94722" lon="2.14237">
        <ele>16</ele>
        <time>2023-06-28T11:09:34Z</time>
      </trkpt>
      <trkpt lat="49.94722" lon="2.14237">
        <ele>16</ele>
        <time>2023-06-28T11:09:35Z</time>
      </trkpt>
      <trkpt lat="49.94722" lon="2.14237">
        <ele>16</ele>
        <time>2023-06-28T11:09:36Z</time>
      </trkpt>
      <trkpt lat="49.94722" lon="2.14237">
        <ele>16</ele>
        <time>2023-06-28T11:09:37Z</time>
      </trkpt>
      <trkpt lat="49.94722" lon="2.14237">
        <ele>16</ele>
        <time>2023-06-28T11:09:38Z</time>
      </trkpt>
      <trkpt lat="49.94722" lon="2.14237">
        <ele>16</ele>
        <time>2023-06-28T11:09:39Z</time>
      </trkpt>
      <trkpt lat="49.94722" lon="2.14237">
        <ele>16</ele>
        <time>2023-06-28T11:09:40Z</time>
      </trkpt>
      <trkpt lat="49.94722" lon="2.14237">
        <ele>16</ele>
        <time>2023-06-28T11:09:41Z</time>
      </trkpt>
      <trkpt lat="49.94722" lon="2.14237">
        <ele>16</ele>
        <time>2023-06-28T11:09:42Z</time>
      </trkpt>
      <trkpt lat="49.94722" lon="2.14237">
        <ele>16</ele>
        <time>2023-06-28T11:09:43Z</time>
      </trkpt>
      <trkpt lat="49.94722" lon="2.14237">
        <ele>16</ele>
        <time>2023-06-28T11:09:44Z</time>
      </trkpt>
      <trkpt lat="49.94722" lon="2.14237">
        <ele>16</ele>
        <time>2023-06-28T11:09:45Z</time>
      </trkpt>
      <trkpt lat="49.94722" lon="2.14237">
        <ele>16</ele>
        <time>2023-06-28T11:09:46Z</time>
      </trkpt>
      <trkpt lat="49.94722" lon="2.14237">
        <ele>16</ele>
        <time>2023-06-28T11:09:47Z</time>
      </trkpt>
      <trkpt lat="49.94722" lon="2.14237">
        <ele>16</ele>
        <time>2023-06-28T11:09:48Z</time>
      </trkpt>
      <trkpt lat="49.94722" lon="2.14237">
        <ele>16</ele>
        <time>2023-06-28T11:09:49Z</time>
      </trkpt>
      <trkpt lat="49.94722" lon="2.14237">
        <ele>16</ele>
        <time>2023-06-28T11:09:50Z</time>
      </trkpt>
      <trkpt lat="49.94722" lon="2.14237">
        <ele>16</ele>
        <time>2023-06-28T11:09:51Z</time>
      </trkpt>
      <trkpt lat="49.94722" lon="2.14237">
        <ele>16</ele>
        <time>2023-06-28T11:09:52Z</time>
      </trkpt>
      <trkpt lat="49.94722" lon="2.14237">
        <ele>16</ele>
        <time>2023-06-28T11:09:53Z</time>
      </trkpt>
      <trkpt lat="49.94722" lon="2.14237">
        <ele>16</ele>
        <time>2023-06-28T11:09:54Z</time>
      </trkpt>
      <trkpt lat="49.94722" lon="2.14237">
        <ele>16</ele>
        <time>2023-06-28T11:09:55Z</time>
      </trkpt>
      <trkpt lat="49.94722" lon="2.14237">
        <ele>16</ele>
        <time>2023-06-28T11:09:56Z</time>
      </trkpt>
      <trkpt lat="49.94722" lon="2.14237">
        <ele>16</ele>
        <time>2023-06-28T11:09:57Z</time>
      </trkpt>
      <trkpt lat="49.94722" lon="2.14237">
        <ele>16</ele>
        <time>2023-06-28T11:09:58Z</time>
      </trkpt>
      <trkpt lat="49.94722" lon="2.14237">
        <ele>16</ele>
        <time>2023-06-28T11:09:59Z</time>
      </trkpt>
      <trkpt lat="49.94722" lon="2.14237">
        <ele>16</ele>
        <time>2023-06-28T11:10:00Z</time>
      </trkpt>
      <trkpt lat="49.94722" lon="2.14237">
        <ele>16</ele>
        <time>2023-06-28T11:10:01Z</time>
      </trkpt>
      <trkpt lat="49.94722" lon="2.14237">
        <ele>16</ele>
        <time>2023-06-28T11:10:02Z</time>
      </trkpt>
      <trkpt lat="49.94722" lon="2.14237">
        <ele>16</ele>
        <time>2023-06-28T11:10:03Z</time>
      </trkpt>
      <trkpt lat="49.94722" lon="2.14237">
        <ele>16</ele>
        <time>2023-06-28T11:10:04Z</time>
      </trkpt>
      <trkpt lat="49.94722" lon="2.14237">
        <ele>16</ele>
        <time>2023-06-28T11:10:05Z</time>
      </trkpt>
      <trkpt lat="49.94722" lon="2.14237">
        <ele>16</ele>
        <time>2023-06-28T11:10:06Z</time>
      </trkpt>
      <trkpt lat="49.94722" lon="2.14237">
        <ele>16</ele>
        <time>2023-06-28T11:10:07Z</time>
      </trkpt>
      <trkpt lat="49.94722" lon="2.14237">
        <ele>16</ele>
        <time>2023-06-28T11:10:08Z</time>
      </trkpt>
      <trkpt lat="49.94722" lon="2.14237">
        <ele>16</ele>
        <time>2023-06-28T11:10:09Z</time>
      </trkpt>
      <trkpt lat="49.94722" lon="2.14237">
        <ele>16</ele>
        <time>2023-06-28T11:10:10Z</time>
      </trkpt>
      <trkpt lat="49.94722" lon="2.14237">
        <ele>16</ele>
        <time>2023-06-28T11:10:11Z</time>
      </trkpt>
      <trkpt lat="49.94722" lon="2.14237">
        <ele>16</ele>
        <time>2023-06-28T11:10:12Z</time>
      </trkpt>
      <trkpt lat="49.94722" lon="2.14237">
        <ele>16</ele>
        <time>2023-06-28T11:10:13Z</time>
      </trkpt>
      <trkpt lat="49.94722" lon="2.14237">
        <ele>16</ele>
        <time>2023-06-28T11:10:14Z</time>
      </trkpt>
      <trkpt lat="49.94722" lon="2.14237">
        <ele>16</ele>
        <time>2023-06-28T11:10:15Z</time>
      </trkpt>
      <trkpt lat="49.94722" lon="2.14237">
        <ele>16</ele>
        <time>2023-06-28T11:10:16Z</time>
      </trkpt>
      <trkpt lat="49.94722" lon="2.14237">
        <ele>16</ele>
        <time>2023-06-28T11:10:17Z</time>
      </trkpt>
      <trkpt lat="49.94722" lon="2.14237">
        <ele>16</ele>
        <time>2023-06-28T11:10:18Z</time>
      </trkpt>
      <trkpt lat="49.94722" lon="2.14237">
        <ele>16</ele>
        <time>2023-06-28T11:10:19Z</time>
      </trkpt>
      <trkpt lat="49.94722" lon="2.14237">
        <ele>16</ele>
        <time>2023-06-28T11:10:20Z</time>
      </trkpt>
      <trkpt lat="49.94722" lon="2.14237">
        <ele>16</ele>
        <time>2023-06-28T11:10:21Z</time>
      </trkpt>
      <trkpt lat="49.94722" lon="2.14237">
        <ele>16</ele>
        <time>2023-06-28T11:10:22Z</time>
      </trkpt>
      <trkpt lat="49.94722" lon="2.14237">
        <ele>16</ele>
        <time>2023-06-28T11:10:23Z</time>
      </trkpt>
      <trkpt lat="49.94722" lon="2.14237">
        <ele>16</ele>
        <time>2023-06-28T11:10:24Z</time>
      </trkpt>
      <trkpt lat="49.94722" lon="2.14237">
        <ele>16</ele>
        <time>2023-06-28T11:10:25Z</time>
      </trkpt>
      <trkpt lat="49.94722" lon="2.14237">
        <ele>16</ele>
        <time>2023-06-28T11:10:26Z</time>
      </trkpt>
      <trkpt lat="49.94722" lon="2.14237">
        <ele>16</ele>
        <time>2023-06-28T11:10:27Z</time>
      </trkpt>
      <trkpt lat="49.94722" lon="2.14237">
        <ele>16</ele>
        <time>2023-06-28T11:10:28Z</time>
      </trkpt>
      <trkpt lat="49.94722" lon="2.14237">
        <ele>16</ele>
        <time>2023-06-28T11:10:29Z</time>
      </trkpt>
      <trkpt lat="49.94722" lon="2.14237">
        <ele>16</ele>
        <time>2023-06-28T11:10:30Z</time>
      </trkpt>
      <trkpt lat="49.94722" lon="2.14237">
        <ele>16</ele>
        <time>2023-06-28T11:10:31Z</time>
      </trkpt>
      <trkpt lat="49.94722" lon="2.14237">
        <ele>16</ele>
        <time>2023-06-28T11:10:32Z</time>
      </trkpt>
      <trkpt lat="49.94722" lon="2.14237">
        <ele>16</ele>
        <time>2023-06-28T11:10:33Z</time>
      </trkpt>
      <trkpt lat="49.94722" lon="2.14237">
        <ele>16</ele>
        <time>2023-06-28T11:10:34Z</time>
      </trkpt>
      <trkpt lat="49.94722" lon="2.14237">
        <ele>16</ele>
        <time>2023-06-28T11:10:35Z</time>
      </trkpt>
      <trkpt lat="49.94722" lon="2.14237">
        <ele>16</ele>
        <time>2023-06-28T11:10:36Z</time>
      </trkpt>
      <trkpt lat="49.94722" lon="2.14237">
        <ele>16</ele>
        <time>2023-06-28T11:10:37Z</time>
      </trkpt>
      <trkpt lat="49.94722" lon="2.14237">
        <ele>16</ele>
        <time>2023-06-28T11:10:38Z</time>
      </trkpt>
      <trkpt lat="49.94722" lon="2.14237">
        <ele>16</ele>
        <time>2023-06-28T11:10:39Z</time>
      </trkpt>
      <trkpt lat="49.94722" lon="2.14237">
        <ele>16</ele>
        <time>2023-06-28T11:10:40Z</time>
      </trkpt>
      <trkpt lat="49.94722" lon="2.14237">
        <ele>16</ele>
        <time>2023-06-28T11:10:41Z</time>
      </trkpt>
      <trkpt lat="49.94722" lon="2.14237">
        <ele>16</ele>
        <time>2023-06-28T11:10:42Z</time>
      </trkpt>
      <trkpt lat="49.94722" lon="2.14237">
        <ele>16</ele>
        <time>2023-06-28T11:10:43Z</time>
      </trkpt>
      <trkpt lat="49.94722" lon="2.14237">
        <ele>16</ele>
        <time>2023-06-28T11:10:44Z</time>
      </trkpt>
      <trkpt lat="49.94722" lon="2.14237">
        <ele>16</ele>
        <time>2023-06-28T11:10:45Z</time>
      </trkpt>
      <trkpt lat="49.94722" lon="2.14237">
        <ele>16</ele>
        <time>2023-06-28T11:10:46Z</time>
      </trkpt>
      <trkpt lat="49.94722" lon="2.14237">
        <ele>16</ele>
        <time>2023-06-28T11:10:47Z</time>
      </trkpt>
      <trkpt lat="49.94722" lon="2.14237">
        <ele>16</ele>
        <time>2023-06-28T11:10:48Z</time>
      </trkpt>
      <trkpt lat="49.94722" lon="2.14237">
        <ele>16</ele>
        <time>2023-06-28T11:10:49Z</time>
      </trkpt>
      <trkpt lat="49.94722" lon="2.14237">
        <ele>16</ele>
        <time>2023-06-28T11:10:50Z</time>
      </trkpt>
      <trkpt lat="49.94722" lon="2.14237">
        <ele>16</ele>
        <time>2023-06-28T11:10:51Z</time>
      </trkpt>
      <trkpt lat="49.94722" lon="2.14237">
        <ele>16</ele>
        <time>2023-06-28T11:10:52Z</time>
      </trkpt>
      <trkpt lat="49.94722" lon="2.14237">
        <ele>16</ele>
        <time>2023-06-28T11:10:53Z</time>
      </trkpt>
      <trkpt lat="49.94722" lon="2.14237">
        <ele>16</ele>
        <time>2023-06-28T11:10:54Z</time>
      </trkpt>
      <trkpt lat="49.94722" lon="2.14237">
        <ele>16</ele>
        <time>2023-06-28T11:10:55Z</time>
      </trkpt>
      <trkpt lat="49.94722" lon="2.14237">
        <ele>16</ele>
        <time>2023-06-28T11:10:56Z</time>
      </trkpt>
      <trkpt lat="49.94722" lon="2.14237">
        <ele>16</ele>
        <time>2023-06-28T11:10:57Z</time>
      </trkpt>
      <trkpt lat="49.94722" lon="2.14237">
        <ele>16</ele>
        <time>2023-06-28T11:10:58Z</time>
      </trkpt>
      <trkpt lat="49.94722" lon="2.14237">
        <ele>16</ele>
        <time>2023-06-28T11:10:59Z</time>
      </trkpt>
      <trkpt lat="49.94722" lon="2.14237">
        <ele>16</ele>
        <time>2023-06-28T11:11:00Z</time>
      </trkpt>
      <trkpt lat="49.94722" lon="2.14237">
        <ele>16</ele>
        <time>2023-06-28T11:11:01Z</time>
      </trkpt>
      <trkpt lat="49.94722" lon="2.14237">
        <ele>16</ele>
        <time>2023-06-28T11:11:02Z</time>
      </trkpt>
      <trkpt lat="49.94722" lon="2.14237">
        <ele>16</ele>
        <time>2023-06-28T11:11:03Z</time>
      </trkpt>
      <trkpt lat="49.94722" lon="2.14237">
        <ele>16</ele>
        <time>2023-06-28T11:11:04Z</time>
      </trkpt>
      <trkpt lat="49.94722" lon="2.14237">
        <ele>16</ele>
        <time>2023-06-28T11:11:05Z</time>
      </trkpt>
      <trkpt lat="49.94722" lon="2.14237">
        <ele>16</ele>
        <time>2023-06-28T11:11:06Z</time>
      </trkpt>
      <trkpt lat="49.94722" lon="2.14237">
        <ele>16</ele>
        <time>2023-06-28T11:11:07Z</time>
      </trkpt>
      <trkpt lat="49.94722" lon="2.14237">
        <ele>16</ele>
        <time>2023-06-28T11:11:08Z</time>
      </trkpt>
      <trkpt lat="49.94722" lon="2.14237">
        <ele>16</ele>
        <time>2023-06-28T11:11:09Z</time>
      </trkpt>
      <trkpt lat="49.94722" lon="2.14237">
        <ele>16</ele>
        <time>2023-06-28T11:11:10Z</time>
      </trkpt>
      <trkpt lat="49.94722" lon="2.14237">
        <ele>16</ele>
        <time>2023-06-28T11:11:11Z</time>
      </trkpt>
      <trkpt lat="49.94722" lon="2.14237">
        <ele>16</ele>
        <time>2023-06-28T11:11:12Z</time>
      </trkpt>
      <trkpt lat="49.94722" lon="2.14237">
        <ele>16</ele>
        <time>2023-06-28T11:11:13Z</time>
      </trkpt>
      <trkpt lat="49.94722" lon="2.14237">
        <ele>16</ele>
        <time>2023-06-28T11:11:14Z</time>
      </trkpt>
      <trkpt lat="49.94722" lon="2.14237">
        <ele>16</ele>
        <time>2023-06-28T11:11:15Z</time>
      </trkpt>
      <trkpt lat="49.94722" lon="2.14237">
        <ele>16</ele>
        <time>2023-06-28T11:11:16Z</time>
      </trkpt>
      <trkpt lat="49.94722" lon="2.14237">
        <ele>16</ele>
        <time>2023-06-28T11:11:17Z</time>
      </trkpt>
      <trkpt lat="49.94723" lon="2.14233">
        <ele>16</ele>
        <time>2023-06-28T11:11:18Z</time>
      </trkpt>
      <trkpt lat="49.94724" lon="2.14231">
        <ele>16</ele>
        <time>2023-06-28T11:11:19Z</time>
      </trkpt>
      <trkpt lat="49.94724" lon="2.14231">
        <ele>16</ele>
        <time>2023-06-28T11:11:20Z</time>
      </trkpt>
      <trkpt lat="49.94724" lon="2.14231">
        <ele>16</ele>
        <time>2023-06-28T11:11:21Z</time>
      </trkpt>
      <trkpt lat="49.94724" lon="2.14231">
        <ele>16</ele>
        <time>2023-06-28T11:11:22Z</time>
      </trkpt>
      <trkpt lat="49.94724" lon="2.14231">
        <ele>16</ele>
        <time>2023-06-28T11:11:23Z</time>
      </trkpt>
      <trkpt lat="49.94724" lon="2.14231">
        <ele>16</ele>
        <time>2023-06-28T11:11:24Z</time>
      </trkpt>
      <trkpt lat="49.94724" lon="2.14231">
        <ele>16</ele>
        <time>2023-06-28T11:11:25Z</time>
      </trkpt>
      <trkpt lat="49.94724" lon="2.14231">
        <ele>16</ele>
        <time>2023-06-28T11:11:26Z</time>
      </trkpt>
      <trkpt lat="49.94724" lon="2.14231">
        <ele>16</ele>
        <time>2023-06-28T11:11:27Z</time>
      </trkpt>
      <trkpt lat="49.94724" lon="2.14231">
        <ele>16</ele>
        <time>2023-06-28T11:11:28Z</time>
      </trkpt>
      <trkpt lat="49.94724" lon="2.14231">
        <ele>16</ele>
        <time>2023-06-28T11:11:29Z</time>
      </trkpt>
      <trkpt lat="49.94724" lon="2.14231">
        <ele>16</ele>
        <time>2023-06-28T11:11:30Z</time>
      </trkpt>
      <trkpt lat="49.94724" lon="2.14231">
        <ele>16</ele>
        <time>2023-06-28T11:11:31Z</time>
      </trkpt>
      <trkpt lat="49.94724" lon="2.14231">
        <ele>16</ele>
        <time>2023-06-28T11:11:32Z</time>
      </trkpt>
      <trkpt lat="49.94724" lon="2.14231">
        <ele>16</ele>
        <time>2023-06-28T11:11:33Z</time>
      </trkpt>
      <trkpt lat="49.94724" lon="2.14231">
        <ele>16</ele>
        <time>2023-06-28T11:11:34Z</time>
      </trkpt>
      <trkpt lat="49.94724" lon="2.14231">
        <ele>16</ele>
        <time>2023-06-28T11:11:35Z</time>
      </trkpt>
      <trkpt lat="49.94724" lon="2.14231">
        <ele>16</ele>
        <time>2023-06-28T11:11:36Z</time>
      </trkpt>
      <trkpt lat="49.94724" lon="2.14231">
        <ele>16</ele>
        <time>2023-06-28T11:11:37Z</time>
      </trkpt>
      <trkpt lat="49.94724" lon="2.14231">
        <ele>16</ele>
        <time>2023-06-28T11:11:38Z</time>
      </trkpt>
      <trkpt lat="49.94724" lon="2.14231">
        <ele>16</ele>
        <time>2023-06-28T11:11:39Z</time>
      </trkpt>
      <trkpt lat="49.94724" lon="2.14231">
        <ele>16</ele>
        <time>2023-06-28T11:11:40Z</time>
      </trkpt>
      <trkpt lat="49.94724" lon="2.14231">
        <ele>16</ele>
        <time>2023-06-28T11:11:41Z</time>
      </trkpt>
      <trkpt lat="49.94724" lon="2.14231">
        <ele>16</ele>
        <time>2023-06-28T11:11:42Z</time>
      </trkpt>
      <trkpt lat="49.94724" lon="2.14231">
        <ele>16</ele>
        <time>2023-06-28T11:11:43Z</time>
      </trkpt>
      <trkpt lat="49.94724" lon="2.14231">
        <ele>16</ele>
        <time>2023-06-28T11:11:44Z</time>
      </trkpt>
      <trkpt lat="49.94724" lon="2.14231">
        <ele>16</ele>
        <time>2023-06-28T11:11:45Z</time>
      </trkpt>
      <trkpt lat="49.94724" lon="2.14231">
        <ele>16</ele>
        <time>2023-06-28T11:11:46Z</time>
      </trkpt>
      <trkpt lat="49.94724" lon="2.14231">
        <ele>16</ele>
        <time>2023-06-28T11:11:47Z</time>
      </trkpt>
      <trkpt lat="49.94724" lon="2.14231">
        <ele>16</ele>
        <time>2023-06-28T11:11:48Z</time>
      </trkpt>
      <trkpt lat="49.94724" lon="2.14231">
        <ele>16</ele>
        <time>2023-06-28T11:11:49Z</time>
      </trkpt>
      <trkpt lat="49.94724" lon="2.14231">
        <ele>16</ele>
        <time>2023-06-28T11:11:50Z</time>
      </trkpt>
      <trkpt lat="49.94724" lon="2.14231">
        <ele>16</ele>
        <time>2023-06-28T11:11:51Z</time>
      </trkpt>
      <trkpt lat="49.94724" lon="2.14231">
        <ele>16</ele>
        <time>2023-06-28T11:11:52Z</time>
      </trkpt>
      <trkpt lat="49.94724" lon="2.14231">
        <ele>16</ele>
        <time>2023-06-28T11:11:53Z</time>
      </trkpt>
      <trkpt lat="49.94724" lon="2.14231">
        <ele>16</ele>
        <time>2023-06-28T11:11:54Z</time>
      </trkpt>
      <trkpt lat="49.94724" lon="2.14231">
        <ele>16</ele>
        <time>2023-06-28T11:11:55Z</time>
      </trkpt>
      <trkpt lat="49.94724" lon="2.14231">
        <ele>16</ele>
        <time>2023-06-28T11:11:56Z</time>
      </trkpt>
      <trkpt lat="49.94724" lon="2.14231">
        <ele>16</ele>
        <time>2023-06-28T11:11:57Z</time>
      </trkpt>
      <trkpt lat="49.94724" lon="2.14231">
        <ele>16</ele>
        <time>2023-06-28T11:11:58Z</time>
      </trkpt>
      <trkpt lat="49.94724" lon="2.14231">
        <ele>16</ele>
        <time>2023-06-28T11:11:59Z</time>
      </trkpt>
      <trkpt lat="49.94724" lon="2.14231">
        <ele>16</ele>
        <time>2023-06-28T11:12:00Z</time>
      </trkpt>
      <trkpt lat="49.94724" lon="2.14231">
        <ele>16</ele>
        <time>2023-06-28T11:12:01Z</time>
      </trkpt>
      <trkpt lat="49.94724" lon="2.14231">
        <ele>16</ele>
        <time>2023-06-28T11:12:02Z</time>
      </trkpt>
      <trkpt lat="49.94724" lon="2.14231">
        <ele>16</ele>
        <time>2023-06-28T11:12:03Z</time>
      </trkpt>
      <trkpt lat="49.94724" lon="2.14231">
        <ele>16</ele>
        <time>2023-06-28T11:12:04Z</time>
      </trkpt>
      <trkpt lat="49.94724" lon="2.14231">
        <ele>16</ele>
        <time>2023-06-28T11:12:05Z</time>
      </trkpt>
      <trkpt lat="49.94724" lon="2.14231">
        <ele>16</ele>
        <time>2023-06-28T11:12:06Z</time>
      </trkpt>
      <trkpt lat="49.94724" lon="2.14231">
        <ele>16</ele>
        <time>2023-06-28T11:12:07Z</time>
      </trkpt>
      <trkpt lat="49.94724" lon="2.14231">
        <ele>16</ele>
        <time>2023-06-28T11:12:08Z</time>
      </trkpt>
      <trkpt lat="49.94724" lon="2.14231">
        <ele>16</ele>
        <time>2023-06-28T11:12:09Z</time>
      </trkpt>
      <trkpt lat="49.94724" lon="2.14231">
        <ele>16</ele>
        <time>2023-06-28T11:12:10Z</time>
      </trkpt>
      <trkpt lat="49.94724" lon="2.14231">
        <ele>16</ele>
        <time>2023-06-28T11:12:11Z</time>
      </trkpt>
      <trkpt lat="49.94724" lon="2.14231">
        <ele>16</ele>
        <time>2023-06-28T11:12:12Z</time>
      </trkpt>
      <trkpt lat="49.94724" lon="2.14231">
        <ele>16</ele>
        <time>2023-06-28T11:12:13Z</time>
      </trkpt>
      <trkpt lat="49.94724" lon="2.14231">
        <ele>16</ele>
        <time>2023-06-28T11:12:14Z</time>
      </trkpt>
      <trkpt lat="49.94724" lon="2.14231">
        <ele>16</ele>
        <time>2023-06-28T11:12:15Z</time>
      </trkpt>
      <trkpt lat="49.94724" lon="2.14231">
        <ele>16</ele>
        <time>2023-06-28T11:12:16Z</time>
      </trkpt>
      <trkpt lat="49.94724" lon="2.14231">
        <ele>16</ele>
        <time>2023-06-28T11:12:17Z</time>
      </trkpt>
      <trkpt lat="49.94724" lon="2.14231">
        <ele>16</ele>
        <time>2023-06-28T11:12:18Z</time>
      </trkpt>
      <trkpt lat="49.94724" lon="2.14231">
        <ele>16</ele>
        <time>2023-06-28T11:12:19Z</time>
      </trkpt>
      <trkpt lat="49.94724" lon="2.14231">
        <ele>16</ele>
        <time>2023-06-28T11:12:20Z</time>
      </trkpt>
      <trkpt lat="49.94724" lon="2.14231">
        <ele>16</ele>
        <time>2023-06-28T11:12:21Z</time>
      </trkpt>
      <trkpt lat="49.94724" lon="2.14231">
        <ele>16</ele>
        <time>2023-06-28T11:12:22Z</time>
      </trkpt>
      <trkpt lat="49.94724" lon="2.14231">
        <ele>16</ele>
        <time>2023-06-28T11:12:23Z</time>
      </trkpt>
      <trkpt lat="49.94724" lon="2.14231">
        <ele>16</ele>
        <time>2023-06-28T11:12:24Z</time>
      </trkpt>
      <trkpt lat="49.94724" lon="2.14231">
        <ele>16</ele>
        <time>2023-06-28T11:12:25Z</time>
      </trkpt>
      <trkpt lat="49.94724" lon="2.14231">
        <ele>16</ele>
        <time>2023-06-28T11:12:26Z</time>
      </trkpt>
      <trkpt lat="49.94724" lon="2.14231">
        <ele>16</ele>
        <time>2023-06-28T11:12:27Z</time>
      </trkpt>
      <trkpt lat="49.94724" lon="2.14231">
        <ele>16</ele>
        <time>2023-06-28T11:12:28Z</time>
      </trkpt>
      <trkpt lat="49.94724" lon="2.14231">
        <ele>16</ele>
        <time>2023-06-28T11:12:29Z</time>
      </trkpt>
      <trkpt lat="49.94724" lon="2.14231">
        <ele>16</ele>
        <time>2023-06-28T11:12:30Z</time>
      </trkpt>
      <trkpt lat="49.94724" lon="2.14231">
        <ele>16</ele>
        <time>2023-06-28T11:12:31Z</time>
      </trkpt>
      <trkpt lat="49.94724" lon="2.14231">
        <ele>16</ele>
        <time>2023-06-28T11:12:32Z</time>
      </trkpt>
      <trkpt lat="49.94724" lon="2.14231">
        <ele>16</ele>
        <time>2023-06-28T11:12:33Z</time>
      </trkpt>
      <trkpt lat="49.94724" lon="2.14231">
        <ele>16</ele>
        <time>2023-06-28T11:12:34Z</time>
      </trkpt>
      <trkpt lat="49.94724" lon="2.14231">
        <ele>16</ele>
        <time>2023-06-28T11:12:35Z</time>
      </trkpt>
      <trkpt lat="49.94724" lon="2.14231">
        <ele>16</ele>
        <time>2023-06-28T11:12:36Z</time>
      </trkpt>
      <trkpt lat="49.94724" lon="2.14231">
        <ele>16</ele>
        <time>2023-06-28T11:12:37Z</time>
      </trkpt>
      <trkpt lat="49.94724" lon="2.14231">
        <ele>16</ele>
        <time>2023-06-28T11:12:38Z</time>
      </trkpt>
      <trkpt lat="49.94724" lon="2.14231">
        <ele>16</ele>
        <time>2023-06-28T11:12:39Z</time>
      </trkpt>
      <trkpt lat="49.94724" lon="2.14231">
        <ele>16</ele>
        <time>2023-06-28T11:12:40Z</time>
      </trkpt>
      <trkpt lat="49.94724" lon="2.14231">
        <ele>16</ele>
        <time>2023-06-28T11:12:41Z</time>
      </trkpt>
      <trkpt lat="49.94724" lon="2.14231">
        <ele>16</ele>
        <time>2023-06-28T11:12:42Z</time>
      </trkpt>
      <trkpt lat="49.94724" lon="2.14231">
        <ele>16</ele>
        <time>2023-06-28T11:12:43Z</time>
      </trkpt>
      <trkpt lat="49.94724" lon="2.14231">
        <ele>16</ele>
        <time>2023-06-28T11:12:44Z</time>
      </trkpt>
      <trkpt lat="49.94724" lon="2.14231">
        <ele>16</ele>
        <time>2023-06-28T11:12:45Z</time>
      </trkpt>
      <trkpt lat="49.94724" lon="2.14231">
        <ele>16</ele>
        <time>2023-06-28T11:12:46Z</time>
      </trkpt>
      <trkpt lat="49.94724" lon="2.14231">
        <ele>16</ele>
        <time>2023-06-28T11:12:47Z</time>
      </trkpt>
      <trkpt lat="49.94724" lon="2.14231">
        <ele>16</ele>
        <time>2023-06-28T11:12:48Z</time>
      </trkpt>
      <trkpt lat="49.94724" lon="2.14231">
        <ele>16</ele>
        <time>2023-06-28T11:12:49Z</time>
      </trkpt>
      <trkpt lat="49.94724" lon="2.14231">
        <ele>16</ele>
        <time>2023-06-28T11:12:50Z</time>
      </trkpt>
      <trkpt lat="49.94724" lon="2.14231">
        <ele>16</ele>
        <time>2023-06-28T11:12:51Z</time>
      </trkpt>
      <trkpt lat="49.94724" lon="2.14231">
        <ele>16</ele>
        <time>2023-06-28T11:12:52Z</time>
      </trkpt>
      <trkpt lat="49.94724" lon="2.14231">
        <ele>16</ele>
        <time>2023-06-28T11:12:53Z</time>
      </trkpt>
      <trkpt lat="49.94724" lon="2.14231">
        <ele>16</ele>
        <time>2023-06-28T11:12:54Z</time>
      </trkpt>
      <trkpt lat="49.94724" lon="2.14231">
        <ele>16</ele>
        <time>2023-06-28T11:12:55Z</time>
      </trkpt>
      <trkpt lat="49.94724" lon="2.14231">
        <ele>16</ele>
        <time>2023-06-28T11:12:56Z</time>
      </trkpt>
      <trkpt lat="49.94724" lon="2.14231">
        <ele>16</ele>
        <time>2023-06-28T11:12:57Z</time>
      </trkpt>
      <trkpt lat="49.94724" lon="2.14231">
        <ele>16</ele>
        <time>2023-06-28T11:12:58Z</time>
      </trkpt>
      <trkpt lat="49.94724" lon="2.14231">
        <ele>16</ele>
        <time>2023-06-28T11:12:59Z</time>
      </trkpt>
      <trkpt lat="49.94724" lon="2.14231">
        <ele>16</ele>
        <time>2023-06-28T11:13:00Z</time>
      </trkpt>
      <trkpt lat="49.94724" lon="2.14231">
        <ele>16</ele>
        <time>2023-06-28T11:13:01Z</time>
      </trkpt>
      <trkpt lat="49.94724" lon="2.14231">
        <ele>16</ele>
        <time>2023-06-28T11:13:02Z</time>
      </trkpt>
      <trkpt lat="49.94724" lon="2.14231">
        <ele>16</ele>
        <time>2023-06-28T11:13:03Z</time>
      </trkpt>
      <trkpt lat="49.94724" lon="2.14231">
        <ele>16</ele>
        <time>2023-06-28T11:13:04Z</time>
      </trkpt>
      <trkpt lat="49.94724" lon="2.14231">
        <ele>16</ele>
        <time>2023-06-28T11:13:05Z</time>
      </trkpt>
      <trkpt lat="49.94724" lon="2.14231">
        <ele>16</ele>
        <time>2023-06-28T11:13:06Z</time>
      </trkpt>
      <trkpt lat="49.94724" lon="2.14231">
        <ele>16</ele>
        <time>2023-06-28T11:13:07Z</time>
      </trkpt>
      <trkpt lat="49.94724" lon="2.14231">
        <ele>16</ele>
        <time>2023-06-28T11:13:08Z</time>
      </trkpt>
      <trkpt lat="49.94724" lon="2.14231">
        <ele>16</ele>
        <time>2023-06-28T11:13:09Z</time>
      </trkpt>
      <trkpt lat="49.94724" lon="2.14231">
        <ele>16</ele>
        <time>2023-06-28T11:13:10Z</time>
      </trkpt>
      <trkpt lat="49.94724" lon="2.14231">
        <ele>16</ele>
        <time>2023-06-28T11:13:11Z</time>
      </trkpt>
      <trkpt lat="49.94724" lon="2.14231">
        <ele>16</ele>
        <time>2023-06-28T11:13:12Z</time>
      </trkpt>
      <trkpt lat="49.94724" lon="2.14231">
        <ele>16</ele>
        <time>2023-06-28T11:13:13Z</time>
      </trkpt>
      <trkpt lat="49.94724" lon="2.14231">
        <ele>16</ele>
        <time>2023-06-28T11:13:14Z</time>
      </trkpt>
      <trkpt lat="49.94724" lon="2.14231">
        <ele>16</ele>
        <time>2023-06-28T11:13:15Z</time>
      </trkpt>
      <trkpt lat="49.94724" lon="2.14231">
        <ele>16</ele>
        <time>2023-06-28T11:13:16Z</time>
      </trkpt>
      <trkpt lat="49.94724" lon="2.14231">
        <ele>16</ele>
        <time>2023-06-28T11:13:17Z</time>
      </trkpt>
      <trkpt lat="49.94724" lon="2.14231">
        <ele>16</ele>
        <time>2023-06-28T11:13:18Z</time>
      </trkpt>
      <trkpt lat="49.94724" lon="2.14231">
        <ele>16</ele>
        <time>2023-06-28T11:13:19Z</time>
      </trkpt>
      <trkpt lat="49.94724" lon="2.14231">
        <ele>16</ele>
        <time>2023-06-28T11:13:20Z</time>
      </trkpt>
      <trkpt lat="49.94724" lon="2.14231">
        <ele>16</ele>
        <time>2023-06-28T11:13:21Z</time>
      </trkpt>
      <trkpt lat="49.94724" lon="2.14231">
        <ele>16</ele>
        <time>2023-06-28T11:13:22Z</time>
      </trkpt>
      <trkpt lat="49.94724" lon="2.14231">
        <ele>16</ele>
        <time>2023-06-28T11:13:23Z</time>
      </trkpt>
      <trkpt lat="49.94724" lon="2.14231">
        <ele>16</ele>
        <time>2023-06-28T11:13:24Z</time>
      </trkpt>
      <trkpt lat="49.94724" lon="2.14231">
        <ele>16</ele>
        <time>2023-06-28T11:13:25Z</time>
      </trkpt>
      <trkpt lat="49.94724" lon="2.14231">
        <ele>16</ele>
        <time>2023-06-28T11:13:26Z</time>
      </trkpt>
      <trkpt lat="49.94724" lon="2.14231">
        <ele>16</ele>
        <time>2023-06-28T11:13:27Z</time>
      </trkpt>
      <trkpt lat="49.94724" lon="2.14231">
        <ele>16</ele>
        <time>2023-06-28T11:13:28Z</time>
      </trkpt>
      <trkpt lat="49.94724" lon="2.14231">
        <ele>16</ele>
        <time>2023-06-28T11:13:29Z</time>
      </trkpt>
      <trkpt lat="49.94724" lon="2.14231">
        <ele>16</ele>
        <time>2023-06-28T11:13:30Z</time>
      </trkpt>
      <trkpt lat="49.94724" lon="2.14231">
        <ele>16</ele>
        <time>2023-06-28T11:13:31Z</time>
      </trkpt>
      <trkpt lat="49.94724" lon="2.14231">
        <ele>16</ele>
        <time>2023-06-28T11:13:32Z</time>
      </trkpt>
      <trkpt lat="49.94724" lon="2.14231">
        <ele>16</ele>
        <time>2023-06-28T11:13:34Z</time>
      </trkpt>
      <trkpt lat="49.94724" lon="2.14231">
        <ele>16</ele>
        <time>2023-06-28T11:13:35Z</time>
      </trkpt>
      <trkpt lat="49.94724" lon="2.14231">
        <ele>16</ele>
        <time>2023-06-28T11:13:36Z</time>
      </trkpt>
      <trkpt lat="49.94724" lon="2.14231">
        <ele>16</ele>
        <time>2023-06-28T11:13:37Z</time>
      </trkpt>
      <trkpt lat="49.94724" lon="2.14231">
        <ele>16</ele>
        <time>2023-06-28T11:13:38Z</time>
      </trkpt>
      <trkpt lat="49.94724" lon="2.14231">
        <ele>16</ele>
        <time>2023-06-28T11:13:39Z</time>
      </trkpt>
      <trkpt lat="49.94724" lon="2.14231">
        <ele>16</ele>
        <time>2023-06-28T11:13:40Z</time>
      </trkpt>
      <trkpt lat="49.94724" lon="2.14231">
        <ele>16</ele>
        <time>2023-06-28T11:13:41Z</time>
      </trkpt>
      <trkpt lat="49.94724" lon="2.14231">
        <ele>16</ele>
        <time>2023-06-28T11:13:42Z</time>
      </trkpt>
      <trkpt lat="49.94724" lon="2.14231">
        <ele>16</ele>
        <time>2023-06-28T11:13:43Z</time>
      </trkpt>
      <trkpt lat="49.94724" lon="2.14231">
        <ele>16</ele>
        <time>2023-06-28T11:13:44Z</time>
      </trkpt>
      <trkpt lat="49.94724" lon="2.14231">
        <ele>16</ele>
        <time>2023-06-28T11:13:45Z</time>
      </trkpt>
      <trkpt lat="49.94724" lon="2.14231">
        <ele>16</ele>
        <time>2023-06-28T11:13:46Z</time>
      </trkpt>
      <trkpt lat="49.94724" lon="2.14231">
        <ele>16</ele>
        <time>2023-06-28T11:13:47Z</time>
      </trkpt>
      <trkpt lat="49.94724" lon="2.14231">
        <ele>16</ele>
        <time>2023-06-28T11:13:48Z</time>
      </trkpt>
      <trkpt lat="49.94724" lon="2.14231">
        <ele>16</ele>
        <time>2023-06-28T11:13:49Z</time>
      </trkpt>
      <trkpt lat="49.94724" lon="2.14231">
        <ele>16</ele>
        <time>2023-06-28T11:13:50Z</time>
      </trkpt>
      <trkpt lat="49.94724" lon="2.14231">
        <ele>16</ele>
        <time>2023-06-28T11:13:51Z</time>
      </trkpt>
      <trkpt lat="49.94724" lon="2.14231">
        <ele>16</ele>
        <time>2023-06-28T11:13:52Z</time>
      </trkpt>
      <trkpt lat="49.94724" lon="2.14231">
        <ele>16</ele>
        <time>2023-06-28T11:13:53Z</time>
      </trkpt>
      <trkpt lat="49.94724" lon="2.14231">
        <ele>16</ele>
        <time>2023-06-28T11:13:54Z</time>
      </trkpt>
      <trkpt lat="49.94724" lon="2.14231">
        <ele>16</ele>
        <time>2023-06-28T11:13:55Z</time>
      </trkpt>
      <trkpt lat="49.94724" lon="2.14231">
        <ele>16</ele>
        <time>2023-06-28T11:13:56Z</time>
      </trkpt>
      <trkpt lat="49.94724" lon="2.14231">
        <ele>16</ele>
        <time>2023-06-28T11:13:57Z</time>
      </trkpt>
      <trkpt lat="49.94724" lon="2.14231">
        <ele>16</ele>
        <time>2023-06-28T11:13:58Z</time>
      </trkpt>
      <trkpt lat="49.94724" lon="2.14231">
        <ele>16</ele>
        <time>2023-06-28T11:13:59Z</time>
      </trkpt>
      <trkpt lat="49.94724" lon="2.14231">
        <ele>16</ele>
        <time>2023-06-28T11:14:00Z</time>
      </trkpt>
      <trkpt lat="49.94724" lon="2.14231">
        <ele>16</ele>
        <time>2023-06-28T11:14:01Z</time>
      </trkpt>
      <trkpt lat="49.94724" lon="2.14231">
        <ele>16</ele>
        <time>2023-06-28T11:14:02Z</time>
      </trkpt>
      <trkpt lat="49.94724" lon="2.14231">
        <ele>16</ele>
        <time>2023-06-28T11:14:03Z</time>
      </trkpt>
      <trkpt lat="49.94724" lon="2.14231">
        <ele>16</ele>
        <time>2023-06-28T11:14:04Z</time>
      </trkpt>
      <trkpt lat="49.94724" lon="2.14231">
        <ele>16</ele>
        <time>2023-06-28T11:14:05Z</time>
      </trkpt>
      <trkpt lat="49.94724" lon="2.14231">
        <ele>16</ele>
        <time>2023-06-28T11:14:06Z</time>
      </trkpt>
      <trkpt lat="49.94724" lon="2.14231">
        <ele>16</ele>
        <time>2023-06-28T11:14:07Z</time>
      </trkpt>
      <trkpt lat="49.94724" lon="2.14231">
        <ele>16</ele>
        <time>2023-06-28T11:14:08Z</time>
      </trkpt>
      <trkpt lat="49.94724" lon="2.14231">
        <ele>16</ele>
        <time>2023-06-28T11:14:09Z</time>
      </trkpt>
      <trkpt lat="49.94724" lon="2.14231">
        <ele>16</ele>
        <time>2023-06-28T11:14:10Z</time>
      </trkpt>
      <trkpt lat="49.94724" lon="2.14231">
        <ele>16</ele>
        <time>2023-06-28T11:14:11Z</time>
      </trkpt>
      <trkpt lat="49.94724" lon="2.14231">
        <ele>16</ele>
        <time>2023-06-28T11:14:12Z</time>
      </trkpt>
      <trkpt lat="49.94724" lon="2.14231">
        <ele>16</ele>
        <time>2023-06-28T11:14:13Z</time>
      </trkpt>
      <trkpt lat="49.94724" lon="2.14231">
        <ele>16</ele>
        <time>2023-06-28T11:14:14Z</time>
      </trkpt>
      <trkpt lat="49.94724" lon="2.14231">
        <ele>16</ele>
        <time>2023-06-28T11:14:15Z</time>
      </trkpt>
      <trkpt lat="49.94724" lon="2.14231">
        <ele>16</ele>
        <time>2023-06-28T11:14:16Z</time>
      </trkpt>
      <trkpt lat="49.94724" lon="2.14231">
        <ele>16</ele>
        <time>2023-06-28T11:14:17Z</time>
      </trkpt>
      <trkpt lat="49.94724" lon="2.14231">
        <ele>16</ele>
        <time>2023-06-28T11:14:18Z</time>
      </trkpt>
      <trkpt lat="49.94724" lon="2.14231">
        <ele>16</ele>
        <time>2023-06-28T11:14:19Z</time>
      </trkpt>
      <trkpt lat="49.94724" lon="2.14231">
        <ele>16</ele>
        <time>2023-06-28T11:14:20Z</time>
      </trkpt>
      <trkpt lat="49.94724" lon="2.14231">
        <ele>16</ele>
        <time>2023-06-28T11:14:21Z</time>
      </trkpt>
      <trkpt lat="49.94724" lon="2.14231">
        <ele>16</ele>
        <time>2023-06-28T11:14:22Z</time>
      </trkpt>
      <trkpt lat="49.94724" lon="2.14231">
        <ele>16</ele>
        <time>2023-06-28T11:14:23Z</time>
      </trkpt>
      <trkpt lat="49.94724" lon="2.14231">
        <ele>16</ele>
        <time>2023-06-28T11:14:24Z</time>
      </trkpt>
      <trkpt lat="49.94724" lon="2.14231">
        <ele>16</ele>
        <time>2023-06-28T11:14:25Z</time>
      </trkpt>
      <trkpt lat="49.94724" lon="2.14231">
        <ele>16</ele>
        <time>2023-06-28T11:14:26Z</time>
      </trkpt>
      <trkpt lat="49.94724" lon="2.14231">
        <ele>16</ele>
        <time>2023-06-28T11:14:27Z</time>
      </trkpt>
      <trkpt lat="49.94724" lon="2.14231">
        <ele>16</ele>
        <time>2023-06-28T11:14:28Z</time>
      </trkpt>
      <trkpt lat="49.94724" lon="2.14231">
        <ele>16</ele>
        <time>2023-06-28T11:14:29Z</time>
      </trkpt>
      <trkpt lat="49.94724" lon="2.14231">
        <ele>16</ele>
        <time>2023-06-28T11:14:30Z</time>
      </trkpt>
      <trkpt lat="49.94724" lon="2.14231">
        <ele>16</ele>
        <time>2023-06-28T11:14:31Z</time>
      </trkpt>
      <trkpt lat="49.94724" lon="2.14231">
        <ele>16</ele>
        <time>2023-06-28T11:14:32Z</time>
      </trkpt>
      <trkpt lat="49.94724" lon="2.14231">
        <ele>16</ele>
        <time>2023-06-28T11:14:33Z</time>
      </trkpt>
      <trkpt lat="49.94724" lon="2.14231">
        <ele>16</ele>
        <time>2023-06-28T11:14:34Z</time>
      </trkpt>
      <trkpt lat="49.94724" lon="2.14231">
        <ele>16</ele>
        <time>2023-06-28T11:14:35Z</time>
      </trkpt>
      <trkpt lat="49.94724" lon="2.14231">
        <ele>16</ele>
        <time>2023-06-28T11:14:36Z</time>
      </trkpt>
      <trkpt lat="49.94724" lon="2.14231">
        <ele>16</ele>
        <time>2023-06-28T11:14:37Z</time>
      </trkpt>
      <trkpt lat="49.94724" lon="2.14231">
        <ele>16</ele>
        <time>2023-06-28T11:14:38Z</time>
      </trkpt>
      <trkpt lat="49.94724" lon="2.14231">
        <ele>16</ele>
        <time>2023-06-28T11:14:39Z</time>
      </trkpt>
      <trkpt lat="49.94724" lon="2.14231">
        <ele>16</ele>
        <time>2023-06-28T11:14:40Z</time>
      </trkpt>
      <trkpt lat="49.94724" lon="2.14231">
        <ele>16</ele>
        <time>2023-06-28T11:14:41Z</time>
      </trkpt>
      <trkpt lat="49.94724" lon="2.14231">
        <ele>16</ele>
        <time>2023-06-28T11:14:42Z</time>
      </trkpt>
      <trkpt lat="49.94724" lon="2.14231">
        <ele>16</ele>
        <time>2023-06-28T11:14:43Z</time>
      </trkpt>
      <trkpt lat="49.94724" lon="2.14231">
        <ele>16</ele>
        <time>2023-06-28T11:14:44Z</time>
      </trkpt>
      <trkpt lat="49.94724" lon="2.14231">
        <ele>16</ele>
        <time>2023-06-28T11:14:45Z</time>
      </trkpt>
      <trkpt lat="49.94724" lon="2.14231">
        <ele>16</ele>
        <time>2023-06-28T11:14:46Z</time>
      </trkpt>
      <trkpt lat="49.94724" lon="2.14231">
        <ele>16</ele>
        <time>2023-06-28T11:14:47Z</time>
      </trkpt>
      <trkpt lat="49.94724" lon="2.14231">
        <ele>16</ele>
        <time>2023-06-28T11:14:48Z</time>
      </trkpt>
      <trkpt lat="49.94724" lon="2.14231">
        <ele>16</ele>
        <time>2023-06-28T11:14:49Z</time>
      </trkpt>
      <trkpt lat="49.94724" lon="2.14231">
        <ele>16</ele>
        <time>2023-06-28T11:14:50Z</time>
      </trkpt>
      <trkpt lat="49.94724" lon="2.14231">
        <ele>16</ele>
        <time>2023-06-28T11:14:51Z</time>
      </trkpt>
      <trkpt lat="49.94724" lon="2.14231">
        <ele>16</ele>
        <time>2023-06-28T11:14:52Z</time>
      </trkpt>
      <trkpt lat="49.94724" lon="2.14231">
        <ele>16</ele>
        <time>2023-06-28T11:14:53Z</time>
      </trkpt>
      <trkpt lat="49.94724" lon="2.14231">
        <ele>16</ele>
        <time>2023-06-28T11:14:54Z</time>
      </trkpt>
      <trkpt lat="49.94724" lon="2.14231">
        <ele>16</ele>
        <time>2023-06-28T11:14:55Z</time>
      </trkpt>
      <trkpt lat="49.94724" lon="2.14231">
        <ele>16</ele>
        <time>2023-06-28T11:14:56Z</time>
      </trkpt>
      <trkpt lat="49.94724" lon="2.14231">
        <ele>16</ele>
        <time>2023-06-28T11:14:57Z</time>
      </trkpt>
      <trkpt lat="49.94724" lon="2.14231">
        <ele>16</ele>
        <time>2023-06-28T11:14:58Z</time>
      </trkpt>
      <trkpt lat="49.94724" lon="2.14231">
        <ele>16</ele>
        <time>2023-06-28T11:14:59Z</time>
      </trkpt>
      <trkpt lat="49.94724" lon="2.14231">
        <ele>16</ele>
        <time>2023-06-28T11:15:00Z</time>
      </trkpt>
      <trkpt lat="49.94724" lon="2.14231">
        <ele>16</ele>
        <time>2023-06-28T11:15:01Z</time>
      </trkpt>
      <trkpt lat="49.94724" lon="2.14231">
        <ele>16</ele>
        <time>2023-06-28T11:15:02Z</time>
      </trkpt>
      <trkpt lat="49.94724" lon="2.14231">
        <ele>16</ele>
        <time>2023-06-28T11:15:03Z</time>
      </trkpt>
      <trkpt lat="49.94724" lon="2.14231">
        <ele>16</ele>
        <time>2023-06-28T11:15:04Z</time>
      </trkpt>
      <trkpt lat="49.94724" lon="2.14231">
        <ele>16</ele>
        <time>2023-06-28T11:15:05Z</time>
      </trkpt>
      <trkpt lat="49.94724" lon="2.14231">
        <ele>16</ele>
        <time>2023-06-28T11:15:06Z</time>
      </trkpt>
      <trkpt lat="49.94724" lon="2.14231">
        <ele>16</ele>
        <time>2023-06-28T11:15:07Z</time>
      </trkpt>
      <trkpt lat="49.94724" lon="2.14231">
        <ele>16</ele>
        <time>2023-06-28T11:15:08Z</time>
      </trkpt>
      <trkpt lat="49.94724" lon="2.14231">
        <ele>16</ele>
        <time>2023-06-28T11:15:09Z</time>
      </trkpt>
      <trkpt lat="49.94724" lon="2.14231">
        <ele>16</ele>
        <time>2023-06-28T11:15:10Z</time>
      </trkpt>
      <trkpt lat="49.94724" lon="2.14231">
        <ele>16</ele>
        <time>2023-06-28T11:15:11Z</time>
      </trkpt>
      <trkpt lat="49.94724" lon="2.14231">
        <ele>16</ele>
        <time>2023-06-28T11:15:12Z</time>
      </trkpt>
      <trkpt lat="49.94724" lon="2.14231">
        <ele>16</ele>
        <time>2023-06-28T11:15:13Z</time>
      </trkpt>
      <trkpt lat="49.94724" lon="2.14231">
        <ele>16</ele>
        <time>2023-06-28T11:15:14Z</time>
      </trkpt>
      <trkpt lat="49.94724" lon="2.14231">
        <ele>16</ele>
        <time>2023-06-28T11:15:15Z</time>
      </trkpt>
      <trkpt lat="49.94724" lon="2.14231">
        <ele>16</ele>
        <time>2023-06-28T11:15:16Z</time>
      </trkpt>
      <trkpt lat="49.94724" lon="2.14231">
        <ele>16</ele>
        <time>2023-06-28T11:15:17Z</time>
      </trkpt>
      <trkpt lat="49.94724" lon="2.14231">
        <ele>16</ele>
        <time>2023-06-28T11:15:18Z</time>
      </trkpt>
      <trkpt lat="49.94724" lon="2.14231">
        <ele>16</ele>
        <time>2023-06-28T11:15:19Z</time>
      </trkpt>
      <trkpt lat="49.94724" lon="2.14231">
        <ele>16</ele>
        <time>2023-06-28T11:15:20Z</time>
      </trkpt>
      <trkpt lat="49.94724" lon="2.14231">
        <ele>16</ele>
        <time>2023-06-28T11:15:21Z</time>
      </trkpt>
      <trkpt lat="49.94724" lon="2.14231">
        <ele>16</ele>
        <time>2023-06-28T11:15:22Z</time>
      </trkpt>
      <trkpt lat="49.94724" lon="2.14231">
        <ele>16</ele>
        <time>2023-06-28T11:15:23Z</time>
      </trkpt>
      <trkpt lat="49.94724" lon="2.14231">
        <ele>16</ele>
        <time>2023-06-28T11:15:24Z</time>
      </trkpt>
      <trkpt lat="49.94724" lon="2.14231">
        <ele>16</ele>
        <time>2023-06-28T11:15:25Z</time>
      </trkpt>
      <trkpt lat="49.94724" lon="2.14231">
        <ele>16</ele>
        <time>2023-06-28T11:15:26Z</time>
      </trkpt>
      <trkpt lat="49.94724" lon="2.14231">
        <ele>16</ele>
        <time>2023-06-28T11:15:27Z</time>
      </trkpt>
      <trkpt lat="49.94724" lon="2.14231">
        <ele>16</ele>
        <time>2023-06-28T11:15:28Z</time>
      </trkpt>
      <trkpt lat="49.94724" lon="2.14231">
        <ele>16</ele>
        <time>2023-06-28T11:15:29Z</time>
      </trkpt>
      <trkpt lat="49.94724" lon="2.14231">
        <ele>16</ele>
        <time>2023-06-28T11:15:30Z</time>
      </trkpt>
      <trkpt lat="49.94724" lon="2.14231">
        <ele>16</ele>
        <time>2023-06-28T11:15:31Z</time>
      </trkpt>
      <trkpt lat="49.94724" lon="2.14231">
        <ele>16</ele>
        <time>2023-06-28T11:15:32Z</time>
      </trkpt>
      <trkpt lat="49.94724" lon="2.14231">
        <ele>16</ele>
        <time>2023-06-28T11:15:33Z</time>
      </trkpt>
      <trkpt lat="49.94724" lon="2.14231">
        <ele>16</ele>
        <time>2023-06-28T11:15:34Z</time>
      </trkpt>
      <trkpt lat="49.94724" lon="2.14231">
        <ele>16</ele>
        <time>2023-06-28T11:15:35Z</time>
      </trkpt>
      <trkpt lat="49.94724" lon="2.14231">
        <ele>16</ele>
        <time>2023-06-28T11:15:36Z</time>
      </trkpt>
      <trkpt lat="49.94724" lon="2.14231">
        <ele>16</ele>
        <time>2023-06-28T11:15:37Z</time>
      </trkpt>
      <trkpt lat="49.94724" lon="2.14231">
        <ele>16</ele>
        <time>2023-06-28T11:15:38Z</time>
      </trkpt>
      <trkpt lat="49.94724" lon="2.14231">
        <ele>16</ele>
        <time>2023-06-28T11:15:39Z</time>
      </trkpt>
      <trkpt lat="49.94724" lon="2.14231">
        <ele>16</ele>
        <time>2023-06-28T11:15:40Z</time>
      </trkpt>
      <trkpt lat="49.94724" lon="2.14231">
        <ele>16</ele>
        <time>2023-06-28T11:15:41Z</time>
      </trkpt>
      <trkpt lat="49.94724" lon="2.14231">
        <ele>16</ele>
        <time>2023-06-28T11:15:42Z</time>
      </trkpt>
      <trkpt lat="49.94724" lon="2.14231">
        <ele>16</ele>
        <time>2023-06-28T11:15:43Z</time>
      </trkpt>
      <trkpt lat="49.94724" lon="2.14231">
        <ele>16</ele>
        <time>2023-06-28T11:15:44Z</time>
      </trkpt>
      <trkpt lat="49.94724" lon="2.14231">
        <ele>16</ele>
        <time>2023-06-28T11:15:45Z</time>
      </trkpt>
      <trkpt lat="49.94724" lon="2.14231">
        <ele>16</ele>
        <time>2023-06-28T11:15:46Z</time>
      </trkpt>
      <trkpt lat="49.94724" lon="2.14231">
        <ele>16</ele>
        <time>2023-06-28T11:15:47Z</time>
      </trkpt>
      <trkpt lat="49.94724" lon="2.14231">
        <ele>16</ele>
        <time>2023-06-28T11:15:48Z</time>
      </trkpt>
      <trkpt lat="49.94724" lon="2.14231">
        <ele>16</ele>
        <time>2023-06-28T11:15:49Z</time>
      </trkpt>
      <trkpt lat="49.94724" lon="2.14231">
        <ele>16</ele>
        <time>2023-06-28T11:15:50Z</time>
      </trkpt>
      <trkpt lat="49.94724" lon="2.14231">
        <ele>16</ele>
        <time>2023-06-28T11:15:51Z</time>
      </trkpt>
      <trkpt lat="49.94724" lon="2.14231">
        <ele>16</ele>
        <time>2023-06-28T11:15:52Z</time>
      </trkpt>
      <trkpt lat="49.94724" lon="2.14231">
        <ele>16</ele>
        <time>2023-06-28T11:15:53Z</time>
      </trkpt>
      <trkpt lat="49.94724" lon="2.14231">
        <ele>16</ele>
        <time>2023-06-28T11:15:54Z</time>
      </trkpt>
      <trkpt lat="49.94724" lon="2.14231">
        <ele>16</ele>
        <time>2023-06-28T11:15:55Z</time>
      </trkpt>
      <trkpt lat="49.94724" lon="2.14231">
        <ele>16</ele>
        <time>2023-06-28T11:15:56Z</time>
      </trkpt>
      <trkpt lat="49.94724" lon="2.14231">
        <ele>16</ele>
        <time>2023-06-28T11:15:57Z</time>
      </trkpt>
      <trkpt lat="49.94724" lon="2.14231">
        <ele>16</ele>
        <time>2023-06-28T11:15:58Z</time>
      </trkpt>
      <trkpt lat="49.94724" lon="2.14231">
        <ele>16</ele>
        <time>2023-06-28T11:15:59Z</time>
      </trkpt>
      <trkpt lat="49.94724" lon="2.14231">
        <ele>16</ele>
        <time>2023-06-28T11:16:00Z</time>
      </trkpt>
      <trkpt lat="49.94724" lon="2.14231">
        <ele>16</ele>
        <time>2023-06-28T11:16:01Z</time>
      </trkpt>
      <trkpt lat="49.94724" lon="2.14231">
        <ele>16</ele>
        <time>2023-06-28T11:16:02Z</time>
      </trkpt>
      <trkpt lat="49.94724" lon="2.14231">
        <ele>16</ele>
        <time>2023-06-28T11:16:03Z</time>
      </trkpt>
      <trkpt lat="49.94724" lon="2.14231">
        <ele>16</ele>
        <time>2023-06-28T11:16:04Z</time>
      </trkpt>
      <trkpt lat="49.94724" lon="2.14231">
        <ele>16</ele>
        <time>2023-06-28T11:16:05Z</time>
      </trkpt>
      <trkpt lat="49.94724" lon="2.14231">
        <ele>16</ele>
        <time>2023-06-28T11:16:06Z</time>
      </trkpt>
      <trkpt lat="49.94724" lon="2.14231">
        <ele>16</ele>
        <time>2023-06-28T11:16:07Z</time>
      </trkpt>
      <trkpt lat="49.94724" lon="2.14231">
        <ele>16</ele>
        <time>2023-06-28T11:16:08Z</time>
      </trkpt>
      <trkpt lat="49.94724" lon="2.14231">
        <ele>16</ele>
        <time>2023-06-28T11:16:09Z</time>
      </trkpt>
      <trkpt lat="49.94724" lon="2.14231">
        <ele>16</ele>
        <time>2023-06-28T11:16:10Z</time>
      </trkpt>
      <trkpt lat="49.94724" lon="2.14231">
        <ele>16</ele>
        <time>2023-06-28T11:16:11Z</time>
      </trkpt>
      <trkpt lat="49.94724" lon="2.14231">
        <ele>16</ele>
        <time>2023-06-28T11:16:12Z</time>
      </trkpt>
      <trkpt lat="49.94724" lon="2.14231">
        <ele>16</ele>
        <time>2023-06-28T11:16:13Z</time>
      </trkpt>
      <trkpt lat="49.94724" lon="2.14231">
        <ele>16</ele>
        <time>2023-06-28T11:16:14Z</time>
      </trkpt>
      <trkpt lat="49.94724" lon="2.14231">
        <ele>16</ele>
        <time>2023-06-28T11:16:15Z</time>
      </trkpt>
      <trkpt lat="49.94724" lon="2.14231">
        <ele>16</ele>
        <time>2023-06-28T11:16:16Z</time>
      </trkpt>
      <trkpt lat="49.94724" lon="2.14231">
        <ele>16</ele>
        <time>2023-06-28T11:16:17Z</time>
      </trkpt>
      <trkpt lat="49.94724" lon="2.14231">
        <ele>16</ele>
        <time>2023-06-28T11:16:18Z</time>
      </trkpt>
      <trkpt lat="49.94724" lon="2.14231">
        <ele>16</ele>
        <time>2023-06-28T11:16:19Z</time>
      </trkpt>
      <trkpt lat="49.94724" lon="2.14231">
        <ele>16</ele>
        <time>2023-06-28T11:16:20Z</time>
      </trkpt>
      <trkpt lat="49.94724" lon="2.14231">
        <ele>16</ele>
        <time>2023-06-28T11:16:21Z</time>
      </trkpt>
      <trkpt lat="49.94724" lon="2.14231">
        <ele>16</ele>
        <time>2023-06-28T11:16:22Z</time>
      </trkpt>
      <trkpt lat="49.94724" lon="2.14231">
        <ele>16</ele>
        <time>2023-06-28T11:16:23Z</time>
      </trkpt>
      <trkpt lat="49.94724" lon="2.14231">
        <ele>16</ele>
        <time>2023-06-28T11:16:24Z</time>
      </trkpt>
      <trkpt lat="49.94724" lon="2.14231">
        <ele>16</ele>
        <time>2023-06-28T11:16:25Z</time>
      </trkpt>
      <trkpt lat="49.94724" lon="2.14231">
        <ele>16</ele>
        <time>2023-06-28T11:16:26Z</time>
      </trkpt>
      <trkpt lat="49.94724" lon="2.14231">
        <ele>16</ele>
        <time>2023-06-28T11:16:27Z</time>
      </trkpt>
      <trkpt lat="49.94724" lon="2.14231">
        <ele>16</ele>
        <time>2023-06-28T11:16:28Z</time>
      </trkpt>
      <trkpt lat="49.94724" lon="2.14231">
        <ele>16</ele>
        <time>2023-06-28T11:16:29Z</time>
      </trkpt>
      <trkpt lat="49.94724" lon="2.14231">
        <ele>16</ele>
        <time>2023-06-28T11:16:30Z</time>
      </trkpt>
      <trkpt lat="49.94724" lon="2.14231">
        <ele>16</ele>
        <time>2023-06-28T11:16:31Z</time>
      </trkpt>
      <trkpt lat="49.94724" lon="2.14231">
        <ele>16</ele>
        <time>2023-06-28T11:16:32Z</time>
      </trkpt>
      <trkpt lat="49.94724" lon="2.14231">
        <ele>16</ele>
        <time>2023-06-28T11:16:33Z</time>
      </trkpt>
      <trkpt lat="49.94724" lon="2.14231">
        <ele>16</ele>
        <time>2023-06-28T11:16:34Z</time>
      </trkpt>
      <trkpt lat="49.94724" lon="2.14231">
        <ele>16</ele>
        <time>2023-06-28T11:16:35Z</time>
      </trkpt>
      <trkpt lat="49.94724" lon="2.14231">
        <ele>16</ele>
        <time>2023-06-28T11:16:36Z</time>
      </trkpt>
      <trkpt lat="49.94724" lon="2.14231">
        <ele>16</ele>
        <time>2023-06-28T11:16:37Z</time>
      </trkpt>
      <trkpt lat="49.94724" lon="2.14231">
        <ele>16</ele>
        <time>2023-06-28T11:16:38Z</time>
      </trkpt>
      <trkpt lat="49.94724" lon="2.14231">
        <ele>16</ele>
        <time>2023-06-28T11:16:39Z</time>
      </trkpt>
      <trkpt lat="49.94724" lon="2.14231">
        <ele>16</ele>
        <time>2023-06-28T11:16:40Z</time>
      </trkpt>
      <trkpt lat="49.94724" lon="2.14231">
        <ele>16</ele>
        <time>2023-06-28T11:16:41Z</time>
      </trkpt>
      <trkpt lat="49.94724" lon="2.14231">
        <ele>16</ele>
        <time>2023-06-28T11:16:42Z</time>
      </trkpt>
      <trkpt lat="49.94724" lon="2.14231">
        <ele>16</ele>
        <time>2023-06-28T11:16:43Z</time>
      </trkpt>
      <trkpt lat="49.94724" lon="2.14231">
        <ele>16</ele>
        <time>2023-06-28T11:16:44Z</time>
      </trkpt>
      <trkpt lat="49.94724" lon="2.14231">
        <ele>16</ele>
        <time>2023-06-28T11:16:45Z</time>
      </trkpt>
      <trkpt lat="49.94724" lon="2.14231">
        <ele>16</ele>
        <time>2023-06-28T11:16:46Z</time>
      </trkpt>
      <trkpt lat="49.94724" lon="2.14231">
        <ele>16</ele>
        <time>2023-06-28T11:16:47Z</time>
      </trkpt>
      <trkpt lat="49.94724" lon="2.14231">
        <ele>16</ele>
        <time>2023-06-28T11:16:48Z</time>
      </trkpt>
      <trkpt lat="49.94724" lon="2.14231">
        <ele>16</ele>
        <time>2023-06-28T11:16:49Z</time>
      </trkpt>
      <trkpt lat="49.94724" lon="2.14231">
        <ele>16</ele>
        <time>2023-06-28T11:16:50Z</time>
      </trkpt>
      <trkpt lat="49.94724" lon="2.14231">
        <ele>16</ele>
        <time>2023-06-28T11:16:51Z</time>
      </trkpt>
      <trkpt lat="49.94724" lon="2.14231">
        <ele>16</ele>
        <time>2023-06-28T11:16:52Z</time>
      </trkpt>
      <trkpt lat="49.94724" lon="2.14231">
        <ele>16</ele>
        <time>2023-06-28T11:16:53Z</time>
      </trkpt>
      <trkpt lat="49.94724" lon="2.14231">
        <ele>16</ele>
        <time>2023-06-28T11:16:54Z</time>
      </trkpt>
      <trkpt lat="49.94724" lon="2.14231">
        <ele>16</ele>
        <time>2023-06-28T11:16:55Z</time>
      </trkpt>
      <trkpt lat="49.94724" lon="2.14231">
        <ele>16</ele>
        <time>2023-06-28T11:16:56Z</time>
      </trkpt>
      <trkpt lat="49.94724" lon="2.14231">
        <ele>16</ele>
        <time>2023-06-28T11:16:57Z</time>
      </trkpt>
      <trkpt lat="49.94724" lon="2.14231">
        <ele>16</ele>
        <time>2023-06-28T11:16:58Z</time>
      </trkpt>
      <trkpt lat="49.94724" lon="2.14231">
        <ele>16</ele>
        <time>2023-06-28T11:16:59Z</time>
      </trkpt>
      <trkpt lat="49.94724" lon="2.14231">
        <ele>16</ele>
        <time>2023-06-28T11:17:00Z</time>
      </trkpt>
      <trkpt lat="49.94724" lon="2.14231">
        <ele>16</ele>
        <time>2023-06-28T11:17:01Z</time>
      </trkpt>
      <trkpt lat="49.94724" lon="2.14231">
        <ele>16</ele>
        <time>2023-06-28T11:17:02Z</time>
      </trkpt>
      <trkpt lat="49.94724" lon="2.14231">
        <ele>16</ele>
        <time>2023-06-28T11:17:03Z</time>
      </trkpt>
      <trkpt lat="49.94724" lon="2.14231">
        <ele>16</ele>
        <time>2023-06-28T11:17:04Z</time>
      </trkpt>
      <trkpt lat="49.94724" lon="2.14231">
        <ele>16</ele>
        <time>2023-06-28T11:17:05Z</time>
      </trkpt>
      <trkpt lat="49.94724" lon="2.14231">
        <ele>16</ele>
        <time>2023-06-28T11:17:06Z</time>
      </trkpt>
      <trkpt lat="49.94724" lon="2.14231">
        <ele>16</ele>
        <time>2023-06-28T11:17:07Z</time>
      </trkpt>
      <trkpt lat="49.94724" lon="2.14231">
        <ele>16</ele>
        <time>2023-06-28T11:17:08Z</time>
      </trkpt>
      <trkpt lat="49.94724" lon="2.14231">
        <ele>16</ele>
        <time>2023-06-28T11:17:09Z</time>
      </trkpt>
      <trkpt lat="49.94724" lon="2.14231">
        <ele>16</ele>
        <time>2023-06-28T11:17:10Z</time>
      </trkpt>
      <trkpt lat="49.94724" lon="2.14231">
        <ele>16</ele>
        <time>2023-06-28T11:17:11Z</time>
      </trkpt>
      <trkpt lat="49.94724" lon="2.14231">
        <ele>16</ele>
        <time>2023-06-28T11:17:12Z</time>
      </trkpt>
      <trkpt lat="49.94724" lon="2.14231">
        <ele>16</ele>
        <time>2023-06-28T11:17:13Z</time>
      </trkpt>
      <trkpt lat="49.94724" lon="2.14231">
        <ele>16</ele>
        <time>2023-06-28T11:17:14Z</time>
      </trkpt>
      <trkpt lat="49.94724" lon="2.14231">
        <ele>16</ele>
        <time>2023-06-28T11:17:15Z</time>
      </trkpt>
      <trkpt lat="49.94724" lon="2.14231">
        <ele>16</ele>
        <time>2023-06-28T11:17:16Z</time>
      </trkpt>
      <trkpt lat="49.94724" lon="2.14231">
        <ele>16</ele>
        <time>2023-06-28T11:17:17Z</time>
      </trkpt>
      <trkpt lat="49.94724" lon="2.14231">
        <ele>16</ele>
        <time>2023-06-28T11:17:18Z</time>
      </trkpt>
      <trkpt lat="49.94724" lon="2.14231">
        <ele>16</ele>
        <time>2023-06-28T11:17:19Z</time>
      </trkpt>
      <trkpt lat="49.94724" lon="2.14231">
        <ele>16</ele>
        <time>2023-06-28T11:17:20Z</time>
      </trkpt>
      <trkpt lat="49.94724" lon="2.14231">
        <ele>16</ele>
        <time>2023-06-28T11:17:21Z</time>
      </trkpt>
      <trkpt lat="49.94724" lon="2.14231">
        <ele>16</ele>
        <time>2023-06-28T11:17:22Z</time>
      </trkpt>
      <trkpt lat="49.94724" lon="2.14231">
        <ele>16</ele>
        <time>2023-06-28T11:17:23Z</time>
      </trkpt>
      <trkpt lat="49.94724" lon="2.14231">
        <ele>16</ele>
        <time>2023-06-28T11:17:24Z</time>
      </trkpt>
      <trkpt lat="49.94724" lon="2.14231">
        <ele>16</ele>
        <time>2023-06-28T11:17:25Z</time>
      </trkpt>
      <trkpt lat="49.94724" lon="2.14231">
        <ele>16</ele>
        <time>2023-06-28T11:17:26Z</time>
      </trkpt>
      <trkpt lat="49.94724" lon="2.14231">
        <ele>16</ele>
        <time>2023-06-28T11:17:27Z</time>
      </trkpt>
      <trkpt lat="49.94724" lon="2.14231">
        <ele>16</ele>
        <time>2023-06-28T11:17:28Z</time>
      </trkpt>
      <trkpt lat="49.94724" lon="2.14231">
        <ele>16</ele>
        <time>2023-06-28T11:17:29Z</time>
      </trkpt>
      <trkpt lat="49.94724" lon="2.14231">
        <ele>16</ele>
        <time>2023-06-28T11:17:30Z</time>
      </trkpt>
      <trkpt lat="49.94724" lon="2.14231">
        <ele>16</ele>
        <time>2023-06-28T11:17:31Z</time>
      </trkpt>
      <trkpt lat="49.94724" lon="2.14231">
        <ele>16</ele>
        <time>2023-06-28T11:17:32Z</time>
      </trkpt>
      <trkpt lat="49.94724" lon="2.14231">
        <ele>16</ele>
        <time>2023-06-28T11:17:33Z</time>
      </trkpt>
      <trkpt lat="49.94724" lon="2.14231">
        <ele>16</ele>
        <time>2023-06-28T11:17:34Z</time>
      </trkpt>
      <trkpt lat="49.94724" lon="2.14231">
        <ele>16</ele>
        <time>2023-06-28T11:17:35Z</time>
      </trkpt>
      <trkpt lat="49.94724" lon="2.14231">
        <ele>16</ele>
        <time>2023-06-28T11:17:36Z</time>
      </trkpt>
      <trkpt lat="49.94724" lon="2.14231">
        <ele>16</ele>
        <time>2023-06-28T11:17:37Z</time>
      </trkpt>
      <trkpt lat="49.94724" lon="2.14231">
        <ele>16</ele>
        <time>2023-06-28T11:17:38Z</time>
      </trkpt>
      <trkpt lat="49.94724" lon="2.14231">
        <ele>16</ele>
        <time>2023-06-28T11:17:39Z</time>
      </trkpt>
      <trkpt lat="49.94724" lon="2.14231">
        <ele>16</ele>
        <time>2023-06-28T11:17:40Z</time>
      </trkpt>
      <trkpt lat="49.94724" lon="2.14231">
        <ele>16</ele>
        <time>2023-06-28T11:17:41Z</time>
      </trkpt>
      <trkpt lat="49.94724" lon="2.14231">
        <ele>16</ele>
        <time>2023-06-28T11:17:42Z</time>
      </trkpt>
      <trkpt lat="49.94724" lon="2.14231">
        <ele>16</ele>
        <time>2023-06-28T11:17:43Z</time>
      </trkpt>
      <trkpt lat="49.94724" lon="2.14231">
        <ele>16</ele>
        <time>2023-06-28T11:17:44Z</time>
      </trkpt>
      <trkpt lat="49.94724" lon="2.14231">
        <ele>16</ele>
        <time>2023-06-28T11:17:45Z</time>
      </trkpt>
      <trkpt lat="49.94724" lon="2.14231">
        <ele>16</ele>
        <time>2023-06-28T11:17:46Z</time>
      </trkpt>
      <trkpt lat="49.94724" lon="2.14231">
        <ele>16</ele>
        <time>2023-06-28T11:17:47Z</time>
      </trkpt>
      <trkpt lat="49.94724" lon="2.14231">
        <ele>16</ele>
        <time>2023-06-28T11:17:48Z</time>
      </trkpt>
      <trkpt lat="49.94724" lon="2.14231">
        <ele>16</ele>
        <time>2023-06-28T11:17:49Z</time>
      </trkpt>
      <trkpt lat="49.94724" lon="2.14231">
        <ele>16</ele>
        <time>2023-06-28T11:17:50Z</time>
      </trkpt>
      <trkpt lat="49.94724" lon="2.14231">
        <ele>16</ele>
        <time>2023-06-28T11:17:51Z</time>
      </trkpt>
      <trkpt lat="49.94724" lon="2.14231">
        <ele>16</ele>
        <time>2023-06-28T11:17:52Z</time>
      </trkpt>
      <trkpt lat="49.94724" lon="2.14231">
        <ele>16</ele>
        <time>2023-06-28T11:17:53Z</time>
      </trkpt>
      <trkpt lat="49.94724" lon="2.14231">
        <ele>16</ele>
        <time>2023-06-28T11:17:54Z</time>
      </trkpt>
      <trkpt lat="49.94724" lon="2.14231">
        <ele>16</ele>
        <time>2023-06-28T11:17:55Z</time>
      </trkpt>
      <trkpt lat="49.94724" lon="2.14231">
        <ele>16</ele>
        <time>2023-06-28T11:17:56Z</time>
      </trkpt>
      <trkpt lat="49.94724" lon="2.14231">
        <ele>16</ele>
        <time>2023-06-28T11:17:57Z</time>
      </trkpt>
      <trkpt lat="49.94724" lon="2.14231">
        <ele>16</ele>
        <time>2023-06-28T11:17:58Z</time>
      </trkpt>
      <trkpt lat="49.94724" lon="2.14231">
        <ele>16</ele>
        <time>2023-06-28T11:17:59Z</time>
      </trkpt>
      <trkpt lat="49.94724" lon="2.14231">
        <ele>16</ele>
        <time>2023-06-28T11:18:00Z</time>
      </trkpt>
      <trkpt lat="49.94724" lon="2.14231">
        <ele>16</ele>
        <time>2023-06-28T11:18:01Z</time>
      </trkpt>
      <trkpt lat="49.94724" lon="2.14231">
        <ele>16</ele>
        <time>2023-06-28T11:18:02Z</time>
      </trkpt>
      <trkpt lat="49.94724" lon="2.14231">
        <ele>16</ele>
        <time>2023-06-28T11:18:03Z</time>
      </trkpt>
      <trkpt lat="49.94724" lon="2.14231">
        <ele>16</ele>
        <time>2023-06-28T11:18:04Z</time>
      </trkpt>
      <trkpt lat="49.94724" lon="2.14231">
        <ele>16</ele>
        <time>2023-06-28T11:18:05Z</time>
      </trkpt>
      <trkpt lat="49.94724" lon="2.14231">
        <ele>16</ele>
        <time>2023-06-28T11:18:06Z</time>
      </trkpt>
      <trkpt lat="49.94724" lon="2.14231">
        <ele>16</ele>
        <time>2023-06-28T11:18:07Z</time>
      </trkpt>
      <trkpt lat="49.94724" lon="2.14231">
        <ele>16</ele>
        <time>2023-06-28T11:18:08Z</time>
      </trkpt>
      <trkpt lat="49.94724" lon="2.14231">
        <ele>16</ele>
        <time>2023-06-28T11:18:09Z</time>
      </trkpt>
      <trkpt lat="49.94724" lon="2.14231">
        <ele>16</ele>
        <time>2023-06-28T11:18:10Z</time>
      </trkpt>
      <trkpt lat="49.94724" lon="2.14231">
        <ele>16</ele>
        <time>2023-06-28T11:18:11Z</time>
      </trkpt>
      <trkpt lat="49.94724" lon="2.14231">
        <ele>16</ele>
        <time>2023-06-28T11:18:12Z</time>
      </trkpt>
      <trkpt lat="49.94724" lon="2.14231">
        <ele>16</ele>
        <time>2023-06-28T11:18:13Z</time>
      </trkpt>
      <trkpt lat="49.94724" lon="2.14231">
        <ele>16</ele>
        <time>2023-06-28T11:18:14Z</time>
      </trkpt>
      <trkpt lat="49.94724" lon="2.14231">
        <ele>16</ele>
        <time>2023-06-28T11:18:15Z</time>
      </trkpt>
      <trkpt lat="49.94724" lon="2.14231">
        <ele>16</ele>
        <time>2023-06-28T11:18:16Z</time>
      </trkpt>
      <trkpt lat="49.94724" lon="2.14231">
        <ele>16</ele>
        <time>2023-06-28T11:18:17Z</time>
      </trkpt>
      <trkpt lat="49.94724" lon="2.14231">
        <ele>16</ele>
        <time>2023-06-28T11:18:18Z</time>
      </trkpt>
      <trkpt lat="49.94724" lon="2.14231">
        <ele>16</ele>
        <time>2023-06-28T11:18:19Z</time>
      </trkpt>
      <trkpt lat="49.94724" lon="2.14231">
        <ele>16</ele>
        <time>2023-06-28T11:18:20Z</time>
      </trkpt>
      <trkpt lat="49.94724" lon="2.14231">
        <ele>16</ele>
        <time>2023-06-28T11:18:21Z</time>
      </trkpt>
      <trkpt lat="49.94724" lon="2.14231">
        <ele>16</ele>
        <time>2023-06-28T11:18:22Z</time>
      </trkpt>
      <trkpt lat="49.94724" lon="2.14231">
        <ele>16</ele>
        <time>2023-06-28T11:18:23Z</time>
      </trkpt>
      <trkpt lat="49.94724" lon="2.14231">
        <ele>16</ele>
        <time>2023-06-28T11:18:24Z</time>
      </trkpt>
      <trkpt lat="49.94724" lon="2.14231">
        <ele>16</ele>
        <time>2023-06-28T11:18:25Z</time>
      </trkpt>
      <trkpt lat="49.94724" lon="2.14231">
        <ele>16</ele>
        <time>2023-06-28T11:18:26Z</time>
      </trkpt>
      <trkpt lat="49.94724" lon="2.14231">
        <ele>16</ele>
        <time>2023-06-28T11:18:27Z</time>
      </trkpt>
      <trkpt lat="49.94724" lon="2.14231">
        <ele>16</ele>
        <time>2023-06-28T11:18:28Z</time>
      </trkpt>
      <trkpt lat="49.94724" lon="2.14231">
        <ele>16</ele>
        <time>2023-06-28T11:18:29Z</time>
      </trkpt>
      <trkpt lat="49.94724" lon="2.14231">
        <ele>16</ele>
        <time>2023-06-28T11:18:30Z</time>
      </trkpt>
      <trkpt lat="49.94724" lon="2.14231">
        <ele>16</ele>
        <time>2023-06-28T11:18:31Z</time>
      </trkpt>
      <trkpt lat="49.94724" lon="2.14231">
        <ele>16</ele>
        <time>2023-06-28T11:18:32Z</time>
      </trkpt>
      <trkpt lat="49.94724" lon="2.14231">
        <ele>16</ele>
        <time>2023-06-28T11:18:33Z</time>
      </trkpt>
      <trkpt lat="49.94724" lon="2.14231">
        <ele>16</ele>
        <time>2023-06-28T11:18:34Z</time>
      </trkpt>
      <trkpt lat="49.94724" lon="2.14231">
        <ele>16</ele>
        <time>2023-06-28T11:18:35Z</time>
      </trkpt>
      <trkpt lat="49.94724" lon="2.14231">
        <ele>16</ele>
        <time>2023-06-28T11:18:36Z</time>
      </trkpt>
      <trkpt lat="49.94724" lon="2.14231">
        <ele>16</ele>
        <time>2023-06-28T11:18:37Z</time>
      </trkpt>
      <trkpt lat="49.94724" lon="2.14231">
        <ele>16</ele>
        <time>2023-06-28T11:18:38Z</time>
      </trkpt>
      <trkpt lat="49.94724" lon="2.14231">
        <ele>16</ele>
        <time>2023-06-28T11:18:39Z</time>
      </trkpt>
      <trkpt lat="49.94724" lon="2.14231">
        <ele>16</ele>
        <time>2023-06-28T11:18:40Z</time>
      </trkpt>
      <trkpt lat="49.94724" lon="2.14231">
        <ele>16</ele>
        <time>2023-06-28T11:18:41Z</time>
      </trkpt>
      <trkpt lat="49.94724" lon="2.14231">
        <ele>16</ele>
        <time>2023-06-28T11:18:42Z</time>
      </trkpt>
      <trkpt lat="49.94724" lon="2.14231">
        <ele>16</ele>
        <time>2023-06-28T11:18:43Z</time>
      </trkpt>
      <trkpt lat="49.94724" lon="2.14231">
        <ele>16</ele>
        <time>2023-06-28T11:18:44Z</time>
      </trkpt>
      <trkpt lat="49.94724" lon="2.14231">
        <ele>16</ele>
        <time>2023-06-28T11:18:45Z</time>
      </trkpt>
      <trkpt lat="49.94724" lon="2.14231">
        <ele>16</ele>
        <time>2023-06-28T11:18:46Z</time>
      </trkpt>
      <trkpt lat="49.94724" lon="2.14231">
        <ele>16</ele>
        <time>2023-06-28T11:18:47Z</time>
      </trkpt>
      <trkpt lat="49.94724" lon="2.14231">
        <ele>16</ele>
        <time>2023-06-28T11:18:48Z</time>
      </trkpt>
      <trkpt lat="49.94724" lon="2.14231">
        <ele>16</ele>
        <time>2023-06-28T11:18:49Z</time>
      </trkpt>
      <trkpt lat="49.94724" lon="2.14231">
        <ele>16</ele>
        <time>2023-06-28T11:18:50Z</time>
      </trkpt>
      <trkpt lat="49.94724" lon="2.14231">
        <ele>16</ele>
        <time>2023-06-28T11:18:51Z</time>
      </trkpt>
      <trkpt lat="49.94724" lon="2.14231">
        <ele>16</ele>
        <time>2023-06-28T11:18:52Z</time>
      </trkpt>
      <trkpt lat="49.94724" lon="2.14231">
        <ele>16</ele>
        <time>2023-06-28T11:18:53Z</time>
      </trkpt>
      <trkpt lat="49.94724" lon="2.14231">
        <ele>16</ele>
        <time>2023-06-28T11:18:54Z</time>
      </trkpt>
      <trkpt lat="49.94724" lon="2.14231">
        <ele>16</ele>
        <time>2023-06-28T11:18:55Z</time>
      </trkpt>
      <trkpt lat="49.94724" lon="2.14231">
        <ele>16</ele>
        <time>2023-06-28T11:18:56Z</time>
      </trkpt>
      <trkpt lat="49.94724" lon="2.14231">
        <ele>16</ele>
        <time>2023-06-28T11:18:57Z</time>
      </trkpt>
      <trkpt lat="49.94724" lon="2.14231">
        <ele>16</ele>
        <time>2023-06-28T11:18:58Z</time>
      </trkpt>
      <trkpt lat="49.94724" lon="2.14231">
        <ele>16</ele>
        <time>2023-06-28T11:18:59Z</time>
      </trkpt>
      <trkpt lat="49.94724" lon="2.14231">
        <ele>16</ele>
        <time>2023-06-28T11:19:00Z</time>
      </trkpt>
      <trkpt lat="49.94724" lon="2.14231">
        <ele>16</ele>
        <time>2023-06-28T11:19:01Z</time>
      </trkpt>
      <trkpt lat="49.94724" lon="2.14231">
        <ele>16</ele>
        <time>2023-06-28T11:19:02Z</time>
      </trkpt>
      <trkpt lat="49.94724" lon="2.14231">
        <ele>16</ele>
        <time>2023-06-28T11:19:03Z</time>
      </trkpt>
      <trkpt lat="49.94724" lon="2.14231">
        <ele>16</ele>
        <time>2023-06-28T11:19:04Z</time>
      </trkpt>
      <trkpt lat="49.94724" lon="2.14231">
        <ele>16</ele>
        <time>2023-06-28T11:19:05Z</time>
      </trkpt>
      <trkpt lat="49.94724" lon="2.14231">
        <ele>16</ele>
        <time>2023-06-28T11:19:06Z</time>
      </trkpt>
      <trkpt lat="49.94724" lon="2.14231">
        <ele>16</ele>
        <time>2023-06-28T11:19:07Z</time>
      </trkpt>
      <trkpt lat="49.94724" lon="2.14231">
        <ele>16</ele>
        <time>2023-06-28T11:19:08Z</time>
      </trkpt>
      <trkpt lat="49.94724" lon="2.14231">
        <ele>16</ele>
        <time>2023-06-28T11:19:09Z</time>
      </trkpt>
      <trkpt lat="49.94724" lon="2.14231">
        <ele>16</ele>
        <time>2023-06-28T11:19:10Z</time>
      </trkpt>
      <trkpt lat="49.94724" lon="2.14231">
        <ele>16</ele>
        <time>2023-06-28T11:19:11Z</time>
      </trkpt>
      <trkpt lat="49.94724" lon="2.14231">
        <ele>16</ele>
        <time>2023-06-28T11:19:12Z</time>
      </trkpt>
      <trkpt lat="49.94724" lon="2.14231">
        <ele>16</ele>
        <time>2023-06-28T11:19:13Z</time>
      </trkpt>
      <trkpt lat="49.94724" lon="2.14231">
        <ele>16</ele>
        <time>2023-06-28T11:19:14Z</time>
      </trkpt>
      <trkpt lat="49.94724" lon="2.14231">
        <ele>16</ele>
        <time>2023-06-28T11:19:15Z</time>
      </trkpt>
      <trkpt lat="49.94724" lon="2.14231">
        <ele>16</ele>
        <time>2023-06-28T11:19:16Z</time>
      </trkpt>
      <trkpt lat="49.94724" lon="2.14231">
        <ele>16</ele>
        <time>2023-06-28T11:19:17Z</time>
      </trkpt>
      <trkpt lat="49.94724" lon="2.14231">
        <ele>16</ele>
        <time>2023-06-28T11:19:18Z</time>
      </trkpt>
      <trkpt lat="49.94724" lon="2.14231">
        <ele>16</ele>
        <time>2023-06-28T11:19:19Z</time>
      </trkpt>
      <trkpt lat="49.94724" lon="2.14231">
        <ele>16</ele>
        <time>2023-06-28T11:19:20Z</time>
      </trkpt>
      <trkpt lat="49.94724" lon="2.14231">
        <ele>16</ele>
        <time>2023-06-28T11:19:21Z</time>
      </trkpt>
      <trkpt lat="49.94724" lon="2.14231">
        <ele>16</ele>
        <time>2023-06-28T11:19:22Z</time>
      </trkpt>
      <trkpt lat="49.94724" lon="2.14231">
        <ele>16</ele>
        <time>2023-06-28T11:19:23Z</time>
      </trkpt>
      <trkpt lat="49.94724" lon="2.14231">
        <ele>16</ele>
        <time>2023-06-28T11:19:24Z</time>
      </trkpt>
      <trkpt lat="49.94724" lon="2.14231">
        <ele>16</ele>
        <time>2023-06-28T11:19:25Z</time>
      </trkpt>
      <trkpt lat="49.94724" lon="2.14231">
        <ele>16</ele>
        <time>2023-06-28T11:19:26Z</time>
      </trkpt>
      <trkpt lat="49.94724" lon="2.14231">
        <ele>16</ele>
        <time>2023-06-28T11:19:27Z</time>
      </trkpt>
      <trkpt lat="49.94724" lon="2.14231">
        <ele>16</ele>
        <time>2023-06-28T11:19:28Z</time>
      </trkpt>
      <trkpt lat="49.94724" lon="2.14231">
        <ele>16</ele>
        <time>2023-06-28T11:19:29Z</time>
      </trkpt>
      <trkpt lat="49.94724" lon="2.14231">
        <ele>16</ele>
        <time>2023-06-28T11:19:30Z</time>
      </trkpt>
      <trkpt lat="49.94724" lon="2.14231">
        <ele>16</ele>
        <time>2023-06-28T11:19:31Z</time>
      </trkpt>
      <trkpt lat="49.94724" lon="2.14231">
        <ele>16</ele>
        <time>2023-06-28T11:19:32Z</time>
      </trkpt>
      <trkpt lat="49.94724" lon="2.14231">
        <ele>16</ele>
        <time>2023-06-28T11:19:33Z</time>
      </trkpt>
      <trkpt lat="49.94724" lon="2.14231">
        <ele>16</ele>
        <time>2023-06-28T11:19:34Z</time>
      </trkpt>
      <trkpt lat="49.94724" lon="2.14231">
        <ele>16</ele>
        <time>2023-06-28T11:19:35Z</time>
      </trkpt>
      <trkpt lat="49.94724" lon="2.14231">
        <ele>16</ele>
        <time>2023-06-28T11:19:36Z</time>
      </trkpt>
      <trkpt lat="49.94724" lon="2.14231">
        <ele>16</ele>
        <time>2023-06-28T11:19:37Z</time>
      </trkpt>
      <trkpt lat="49.94724" lon="2.14231">
        <ele>16</ele>
        <time>2023-06-28T11:19:38Z</time>
      </trkpt>
      <trkpt lat="49.94724" lon="2.14231">
        <ele>16</ele>
        <time>2023-06-28T11:19:39Z</time>
      </trkpt>
      <trkpt lat="49.94724" lon="2.14231">
        <ele>16</ele>
        <time>2023-06-28T11:19:40Z</time>
      </trkpt>
      <trkpt lat="49.94724" lon="2.14231">
        <ele>16</ele>
        <time>2023-06-28T11:19:41Z</time>
      </trkpt>
      <trkpt lat="49.94724" lon="2.14231">
        <ele>16</ele>
        <time>2023-06-28T11:19:42Z</time>
      </trkpt>
      <trkpt lat="49.94724" lon="2.14231">
        <ele>16</ele>
        <time>2023-06-28T11:19:43Z</time>
      </trkpt>
      <trkpt lat="49.94724" lon="2.14231">
        <ele>16</ele>
        <time>2023-06-28T11:19:44Z</time>
      </trkpt>
      <trkpt lat="49.94724" lon="2.14231">
        <ele>16</ele>
        <time>2023-06-28T11:19:45Z</time>
      </trkpt>
      <trkpt lat="49.94724" lon="2.14231">
        <ele>16</ele>
        <time>2023-06-28T11:19:46Z</time>
      </trkpt>
      <trkpt lat="49.94724" lon="2.14231">
        <ele>16</ele>
        <time>2023-06-28T11:19:47Z</time>
      </trkpt>
      <trkpt lat="49.94724" lon="2.14231">
        <ele>16</ele>
        <time>2023-06-28T11:19:48Z</time>
      </trkpt>
      <trkpt lat="49.94724" lon="2.14231">
        <ele>16</ele>
        <time>2023-06-28T11:19:49Z</time>
      </trkpt>
      <trkpt lat="49.94724" lon="2.14231">
        <ele>16</ele>
        <time>2023-06-28T11:19:50Z</time>
      </trkpt>
      <trkpt lat="49.94724" lon="2.14231">
        <ele>16</ele>
        <time>2023-06-28T11:19:51Z</time>
      </trkpt>
      <trkpt lat="49.94724" lon="2.14231">
        <ele>16</ele>
        <time>2023-06-28T11:19:52Z</time>
      </trkpt>
      <trkpt lat="49.94724" lon="2.14231">
        <ele>16</ele>
        <time>2023-06-28T11:19:53Z</time>
      </trkpt>
      <trkpt lat="49.94724" lon="2.14231">
        <ele>16</ele>
        <time>2023-06-28T11:19:54Z</time>
      </trkpt>
      <trkpt lat="49.94724" lon="2.14231">
        <ele>16</ele>
        <time>2023-06-28T11:19:55Z</time>
      </trkpt>
      <trkpt lat="49.94724" lon="2.14231">
        <ele>16</ele>
        <time>2023-06-28T11:19:56Z</time>
      </trkpt>
      <trkpt lat="49.94724" lon="2.14231">
        <ele>16</ele>
        <time>2023-06-28T11:19:57Z</time>
      </trkpt>
      <trkpt lat="49.94724" lon="2.14231">
        <ele>16</ele>
        <time>2023-06-28T11:19:58Z</time>
      </trkpt>
      <trkpt lat="49.94724" lon="2.14231">
        <ele>16</ele>
        <time>2023-06-28T11:19:59Z</time>
      </trkpt>
      <trkpt lat="49.94724" lon="2.14231">
        <ele>16</ele>
        <time>2023-06-28T11:20:00Z</time>
      </trkpt>
      <trkpt lat="49.94724" lon="2.14231">
        <ele>16</ele>
        <time>2023-06-28T11:20:01Z</time>
      </trkpt>
      <trkpt lat="49.94724" lon="2.14231">
        <ele>16</ele>
        <time>2023-06-28T11:20:02Z</time>
      </trkpt>
      <trkpt lat="49.94724" lon="2.14231">
        <ele>16</ele>
        <time>2023-06-28T11:20:03Z</time>
      </trkpt>
      <trkpt lat="49.94724" lon="2.14231">
        <ele>16</ele>
        <time>2023-06-28T11:20:04Z</time>
      </trkpt>
      <trkpt lat="49.94724" lon="2.14231">
        <ele>16</ele>
        <time>2023-06-28T11:20:05Z</time>
      </trkpt>
      <trkpt lat="49.94724" lon="2.14231">
        <ele>16</ele>
        <time>2023-06-28T11:20:06Z</time>
      </trkpt>
      <trkpt lat="49.94724" lon="2.14231">
        <ele>16</ele>
        <time>2023-06-28T11:20:07Z</time>
      </trkpt>
      <trkpt lat="49.94724" lon="2.14231">
        <ele>16</ele>
        <time>2023-06-28T11:20:08Z</time>
      </trkpt>
      <trkpt lat="49.94724" lon="2.14231">
        <ele>16</ele>
        <time>2023-06-28T11:20:09Z</time>
      </trkpt>
      <trkpt lat="49.94724" lon="2.14231">
        <ele>16</ele>
        <time>2023-06-28T11:20:10Z</time>
      </trkpt>
      <trkpt lat="49.94724" lon="2.14231">
        <ele>16</ele>
        <time>2023-06-28T11:20:11Z</time>
      </trkpt>
      <trkpt lat="49.94724" lon="2.14231">
        <ele>16</ele>
        <time>2023-06-28T11:20:12Z</time>
      </trkpt>
      <trkpt lat="49.94724" lon="2.14231">
        <ele>16</ele>
        <time>2023-06-28T11:20:13Z</time>
      </trkpt>
      <trkpt lat="49.94724" lon="2.14231">
        <ele>16</ele>
        <time>2023-06-28T11:20:14Z</time>
      </trkpt>
      <trkpt lat="49.94724" lon="2.14231">
        <ele>16</ele>
        <time>2023-06-28T11:20:15Z</time>
      </trkpt>
      <trkpt lat="49.94724" lon="2.14231">
        <ele>16</ele>
        <time>2023-06-28T11:20:16Z</time>
      </trkpt>
      <trkpt lat="49.94724" lon="2.14231">
        <ele>16</ele>
        <time>2023-06-28T11:20:17Z</time>
      </trkpt>
      <trkpt lat="49.94724" lon="2.14231">
        <ele>16</ele>
        <time>2023-06-28T11:20:18Z</time>
      </trkpt>
      <trkpt lat="49.94724" lon="2.14231">
        <ele>16</ele>
        <time>2023-06-28T11:20:19Z</time>
      </trkpt>
      <trkpt lat="49.94724" lon="2.14231">
        <ele>16</ele>
        <time>2023-06-28T11:20:20Z</time>
      </trkpt>
      <trkpt lat="49.94724" lon="2.14231">
        <ele>16</ele>
        <time>2023-06-28T11:20:21Z</time>
      </trkpt>
      <trkpt lat="49.94724" lon="2.14231">
        <ele>16</ele>
        <time>2023-06-28T11:20:22Z</time>
      </trkpt>
      <trkpt lat="49.94724" lon="2.14231">
        <ele>16</ele>
        <time>2023-06-28T11:20:23Z</time>
      </trkpt>
      <trkpt lat="49.94724" lon="2.14231">
        <ele>16</ele>
        <time>2023-06-28T11:20:24Z</time>
      </trkpt>
      <trkpt lat="49.94724" lon="2.14231">
        <ele>16</ele>
        <time>2023-06-28T11:20:25Z</time>
      </trkpt>
      <trkpt lat="49.94724" lon="2.14231">
        <ele>16</ele>
        <time>2023-06-28T11:20:26Z</time>
      </trkpt>
      <trkpt lat="49.94724" lon="2.14231">
        <ele>16</ele>
        <time>2023-06-28T11:20:27Z</time>
      </trkpt>
      <trkpt lat="49.94724" lon="2.14231">
        <ele>16</ele>
        <time>2023-06-28T11:20:28Z</time>
      </trkpt>
      <trkpt lat="49.94724" lon="2.14231">
        <ele>16</ele>
        <time>2023-06-28T11:20:29Z</time>
      </trkpt>
      <trkpt lat="49.94724" lon="2.14231">
        <ele>16</ele>
        <time>2023-06-28T11:20:30Z</time>
      </trkpt>
      <trkpt lat="49.94724" lon="2.14231">
        <ele>16</ele>
        <time>2023-06-28T11:20:31Z</time>
      </trkpt>
      <trkpt lat="49.94724" lon="2.14231">
        <ele>16</ele>
        <time>2023-06-28T11:20:32Z</time>
      </trkpt>
      <trkpt lat="49.94724" lon="2.14231">
        <ele>16</ele>
        <time>2023-06-28T11:20:33Z</time>
      </trkpt>
      <trkpt lat="49.94724" lon="2.14231">
        <ele>16</ele>
        <time>2023-06-28T11:20:34Z</time>
      </trkpt>
      <trkpt lat="49.94724" lon="2.14231">
        <ele>16</ele>
        <time>2023-06-28T11:20:35Z</time>
      </trkpt>
      <trkpt lat="49.94724" lon="2.14231">
        <ele>16</ele>
        <time>2023-06-28T11:20:36Z</time>
      </trkpt>
      <trkpt lat="49.94724" lon="2.14231">
        <ele>16</ele>
        <time>2023-06-28T11:20:37Z</time>
      </trkpt>
      <trkpt lat="49.94724" lon="2.14231">
        <ele>16</ele>
        <time>2023-06-28T11:20:38Z</time>
      </trkpt>
      <trkpt lat="49.94724" lon="2.14231">
        <ele>16</ele>
        <time>2023-06-28T11:20:39Z</time>
      </trkpt>
      <trkpt lat="49.94724" lon="2.14231">
        <ele>16</ele>
        <time>2023-06-28T11:20:40Z</time>
      </trkpt>
      <trkpt lat="49.94724" lon="2.14231">
        <ele>16</ele>
        <time>2023-06-28T11:20:41Z</time>
      </trkpt>
      <trkpt lat="49.94724" lon="2.14231">
        <ele>16</ele>
        <time>2023-06-28T11:20:42Z</time>
      </trkpt>
      <trkpt lat="49.94724" lon="2.14231">
        <ele>16</ele>
        <time>2023-06-28T11:20:43Z</time>
      </trkpt>
      <trkpt lat="49.94724" lon="2.14231">
        <ele>16</ele>
        <time>2023-06-28T11:20:44Z</time>
      </trkpt>
      <trkpt lat="49.94724" lon="2.14231">
        <ele>16</ele>
        <time>2023-06-28T11:20:45Z</time>
      </trkpt>
      <trkpt lat="49.94724" lon="2.14231">
        <ele>16</ele>
        <time>2023-06-28T11:20:46Z</time>
      </trkpt>
      <trkpt lat="49.94724" lon="2.14231">
        <ele>16</ele>
        <time>2023-06-28T11:20:47Z</time>
      </trkpt>
      <trkpt lat="49.94724" lon="2.14231">
        <ele>16</ele>
        <time>2023-06-28T11:20:48Z</time>
      </trkpt>
      <trkpt lat="49.94724" lon="2.14231">
        <ele>16</ele>
        <time>2023-06-28T11:20:49Z</time>
      </trkpt>
      <trkpt lat="49.94724" lon="2.14231">
        <ele>16</ele>
        <time>2023-06-28T11:20:50Z</time>
      </trkpt>
      <trkpt lat="49.94724" lon="2.14231">
        <ele>16</ele>
        <time>2023-06-28T11:20:51Z</time>
      </trkpt>
      <trkpt lat="49.94724" lon="2.14231">
        <ele>16</ele>
        <time>2023-06-28T11:20:52Z</time>
      </trkpt>
      <trkpt lat="49.94724" lon="2.14231">
        <ele>16</ele>
        <time>2023-06-28T11:20:53Z</time>
      </trkpt>
      <trkpt lat="49.94724" lon="2.14231">
        <ele>16</ele>
        <time>2023-06-28T11:20:54Z</time>
      </trkpt>
      <trkpt lat="49.94724" lon="2.14231">
        <ele>16</ele>
        <time>2023-06-28T11:20:55Z</time>
      </trkpt>
      <trkpt lat="49.94724" lon="2.14231">
        <ele>16</ele>
        <time>2023-06-28T11:20:56Z</time>
      </trkpt>
      <trkpt lat="49.94724" lon="2.14231">
        <ele>16</ele>
        <time>2023-06-28T11:20:57Z</time>
      </trkpt>
      <trkpt lat="49.94724" lon="2.14231">
        <ele>16</ele>
        <time>2023-06-28T11:20:58Z</time>
      </trkpt>
      <trkpt lat="49.94724" lon="2.14231">
        <ele>16</ele>
        <time>2023-06-28T11:20:59Z</time>
      </trkpt>
      <trkpt lat="49.94724" lon="2.14231">
        <ele>16</ele>
        <time>2023-06-28T11:21:00Z</time>
      </trkpt>
      <trkpt lat="49.94724" lon="2.14231">
        <ele>16</ele>
        <time>2023-06-28T11:21:01Z</time>
      </trkpt>
      <trkpt lat="49.94724" lon="2.14231">
        <ele>16</ele>
        <time>2023-06-28T11:21:02Z</time>
      </trkpt>
      <trkpt lat="49.94724" lon="2.14231">
        <ele>16</ele>
        <time>2023-06-28T11:21:03Z</time>
      </trkpt>
      <trkpt lat="49.94724" lon="2.14231">
        <ele>16</ele>
        <time>2023-06-28T11:21:04Z</time>
      </trkpt>
      <trkpt lat="49.94724" lon="2.14231">
        <ele>16</ele>
        <time>2023-06-28T11:21:05Z</time>
      </trkpt>
      <trkpt lat="49.94724" lon="2.14231">
        <ele>16</ele>
        <time>2023-06-28T11:21:06Z</time>
      </trkpt>
      <trkpt lat="49.94724" lon="2.14231">
        <ele>16</ele>
        <time>2023-06-28T11:21:07Z</time>
      </trkpt>
      <trkpt lat="49.94724" lon="2.14231">
        <ele>16</ele>
        <time>2023-06-28T11:21:08Z</time>
      </trkpt>
      <trkpt lat="49.94724" lon="2.14231">
        <ele>16</ele>
        <time>2023-06-28T11:21:09Z</time>
      </trkpt>
      <trkpt lat="49.94724" lon="2.14231">
        <ele>16</ele>
        <time>2023-06-28T11:21:10Z</time>
      </trkpt>
      <trkpt lat="49.94724" lon="2.14231">
        <ele>16</ele>
        <time>2023-06-28T11:21:11Z</time>
      </trkpt>
      <trkpt lat="49.94724" lon="2.14231">
        <ele>16</ele>
        <time>2023-06-28T11:21:12Z</time>
      </trkpt>
      <trkpt lat="49.94724" lon="2.14231">
        <ele>16</ele>
        <time>2023-06-28T11:21:13Z</time>
      </trkpt>
      <trkpt lat="49.94724" lon="2.14231">
        <ele>16</ele>
        <time>2023-06-28T11:21:14Z</time>
      </trkpt>
      <trkpt lat="49.94724" lon="2.14231">
        <ele>16</ele>
        <time>2023-06-28T11:21:15Z</time>
      </trkpt>
      <trkpt lat="49.94724" lon="2.14231">
        <ele>16</ele>
        <time>2023-06-28T11:21:16Z</time>
      </trkpt>
      <trkpt lat="49.94724" lon="2.14231">
        <ele>16</ele>
        <time>2023-06-28T11:21:17Z</time>
      </trkpt>
      <trkpt lat="49.94724" lon="2.14231">
        <ele>16</ele>
        <time>2023-06-28T11:21:18Z</time>
      </trkpt>
      <trkpt lat="49.94724" lon="2.14231">
        <ele>16</ele>
        <time>2023-06-28T11:21:19Z</time>
      </trkpt>
      <trkpt lat="49.94724" lon="2.14231">
        <ele>16</ele>
        <time>2023-06-28T11:21:20Z</time>
      </trkpt>
      <trkpt lat="49.94724" lon="2.14231">
        <ele>16</ele>
        <time>2023-06-28T11:21:21Z</time>
      </trkpt>
      <trkpt lat="49.94724" lon="2.14231">
        <ele>16</ele>
        <time>2023-06-28T11:21:22Z</time>
      </trkpt>
      <trkpt lat="49.94724" lon="2.14231">
        <ele>16</ele>
        <time>2023-06-28T11:21:23Z</time>
      </trkpt>
      <trkpt lat="49.94724" lon="2.14231">
        <ele>16</ele>
        <time>2023-06-28T11:21:24Z</time>
      </trkpt>
      <trkpt lat="49.94724" lon="2.14231">
        <ele>16</ele>
        <time>2023-06-28T11:21:25Z</time>
      </trkpt>
      <trkpt lat="49.94724" lon="2.14231">
        <ele>16</ele>
        <time>2023-06-28T11:21:26Z</time>
      </trkpt>
      <trkpt lat="49.94724" lon="2.14231">
        <ele>16</ele>
        <time>2023-06-28T11:21:27Z</time>
      </trkpt>
      <trkpt lat="49.94724" lon="2.14231">
        <ele>16</ele>
        <time>2023-06-28T11:21:28Z</time>
      </trkpt>
      <trkpt lat="49.94724" lon="2.14231">
        <ele>16</ele>
        <time>2023-06-28T11:21:29Z</time>
      </trkpt>
      <trkpt lat="49.94724" lon="2.14231">
        <ele>16</ele>
        <time>2023-06-28T11:21:30Z</time>
      </trkpt>
      <trkpt lat="49.94724" lon="2.14231">
        <ele>16</ele>
        <time>2023-06-28T11:21:31Z</time>
      </trkpt>
      <trkpt lat="49.94724" lon="2.14231">
        <ele>16</ele>
        <time>2023-06-28T11:21:32Z</time>
      </trkpt>
      <trkpt lat="49.94724" lon="2.14231">
        <ele>16</ele>
        <time>2023-06-28T11:21:33Z</time>
      </trkpt>
      <trkpt lat="49.94724" lon="2.14231">
        <ele>16</ele>
        <time>2023-06-28T11:21:34Z</time>
      </trkpt>
      <trkpt lat="49.94724" lon="2.14231">
        <ele>16</ele>
        <time>2023-06-28T11:21:35Z</time>
      </trkpt>
      <trkpt lat="49.94724" lon="2.14231">
        <ele>16</ele>
        <time>2023-06-28T11:21:36Z</time>
      </trkpt>
      <trkpt lat="49.94724" lon="2.14231">
        <ele>16</ele>
        <time>2023-06-28T11:21:37Z</time>
      </trkpt>
      <trkpt lat="49.94724" lon="2.14231">
        <ele>16</ele>
        <time>2023-06-28T11:21:38Z</time>
      </trkpt>
      <trkpt lat="49.94724" lon="2.14231">
        <ele>16</ele>
        <time>2023-06-28T11:21:39Z</time>
      </trkpt>
      <trkpt lat="49.94724" lon="2.14231">
        <ele>16</ele>
        <time>2023-06-28T11:21:40Z</time>
      </trkpt>
      <trkpt lat="49.94724" lon="2.14231">
        <ele>16</ele>
        <time>2023-06-28T11:21:41Z</time>
      </trkpt>
      <trkpt lat="49.94724" lon="2.14231">
        <ele>16</ele>
        <time>2023-06-28T11:21:42Z</time>
      </trkpt>
      <trkpt lat="49.94724" lon="2.14231">
        <ele>16</ele>
        <time>2023-06-28T11:21:43Z</time>
      </trkpt>
      <trkpt lat="49.94724" lon="2.14231">
        <ele>16</ele>
        <time>2023-06-28T11:21:44Z</time>
      </trkpt>
      <trkpt lat="49.94724" lon="2.14231">
        <ele>16</ele>
        <time>2023-06-28T11:21:45Z</time>
      </trkpt>
      <trkpt lat="49.94724" lon="2.14231">
        <ele>16</ele>
        <time>2023-06-28T11:21:46Z</time>
      </trkpt>
      <trkpt lat="49.94724" lon="2.14231">
        <ele>16</ele>
        <time>2023-06-28T11:21:47Z</time>
      </trkpt>
      <trkpt lat="49.94724" lon="2.14231">
        <ele>16</ele>
        <time>2023-06-28T11:21:48Z</time>
      </trkpt>
      <trkpt lat="49.94724" lon="2.14231">
        <ele>16</ele>
        <time>2023-06-28T11:21:49Z</time>
      </trkpt>
      <trkpt lat="49.94724" lon="2.14231">
        <ele>16</ele>
        <time>2023-06-28T11:21:50Z</time>
      </trkpt>
      <trkpt lat="49.94724" lon="2.14231">
        <ele>16</ele>
        <time>2023-06-28T11:21:51Z</time>
      </trkpt>
      <trkpt lat="49.94724" lon="2.14231">
        <ele>16</ele>
        <time>2023-06-28T11:21:52Z</time>
      </trkpt>
      <trkpt lat="49.94724" lon="2.14231">
        <ele>16</ele>
        <time>2023-06-28T11:21:53Z</time>
      </trkpt>
      <trkpt lat="49.94724" lon="2.14231">
        <ele>16</ele>
        <time>2023-06-28T11:21:54Z</time>
      </trkpt>
      <trkpt lat="49.94724" lon="2.14231">
        <ele>16</ele>
        <time>2023-06-28T11:21:55Z</time>
      </trkpt>
      <trkpt lat="49.94724" lon="2.14231">
        <ele>16</ele>
        <time>2023-06-28T11:21:56Z</time>
      </trkpt>
      <trkpt lat="49.94724" lon="2.14231">
        <ele>16</ele>
        <time>2023-06-28T11:21:57Z</time>
      </trkpt>
      <trkpt lat="49.94724" lon="2.14231">
        <ele>16</ele>
        <time>2023-06-28T11:21:58Z</time>
      </trkpt>
      <trkpt lat="49.94724" lon="2.14231">
        <ele>16</ele>
        <time>2023-06-28T11:21:59Z</time>
      </trkpt>
      <trkpt lat="49.94724" lon="2.14231">
        <ele>16</ele>
        <time>2023-06-28T11:22:00Z</time>
      </trkpt>
      <trkpt lat="49.94724" lon="2.14231">
        <ele>16</ele>
        <time>2023-06-28T11:22:01Z</time>
      </trkpt>
      <trkpt lat="49.94724" lon="2.14231">
        <ele>16</ele>
        <time>2023-06-28T11:22:02Z</time>
      </trkpt>
      <trkpt lat="49.94724" lon="2.14231">
        <ele>16</ele>
        <time>2023-06-28T11:22:03Z</time>
      </trkpt>
      <trkpt lat="49.94724" lon="2.14231">
        <ele>16</ele>
        <time>2023-06-28T11:22:04Z</time>
      </trkpt>
      <trkpt lat="49.94724" lon="2.14231">
        <ele>16</ele>
        <time>2023-06-28T11:22:05Z</time>
      </trkpt>
      <trkpt lat="49.94724" lon="2.14231">
        <ele>16</ele>
        <time>2023-06-28T11:22:06Z</time>
      </trkpt>
      <trkpt lat="49.94724" lon="2.14231">
        <ele>16</ele>
        <time>2023-06-28T11:22:07Z</time>
      </trkpt>
      <trkpt lat="49.94724" lon="2.14231">
        <ele>16</ele>
        <time>2023-06-28T11:22:08Z</time>
      </trkpt>
      <trkpt lat="49.94724" lon="2.14231">
        <ele>16</ele>
        <time>2023-06-28T11:22:09Z</time>
      </trkpt>
      <trkpt lat="49.94724" lon="2.14231">
        <ele>16</ele>
        <time>2023-06-28T11:22:10Z</time>
      </trkpt>
      <trkpt lat="49.94724" lon="2.14231">
        <ele>16</ele>
        <time>2023-06-28T11:22:11Z</time>
      </trkpt>
      <trkpt lat="49.94724" lon="2.14231">
        <ele>16</ele>
        <time>2023-06-28T11:22:12Z</time>
      </trkpt>
      <trkpt lat="49.94724" lon="2.14231">
        <ele>16</ele>
        <time>2023-06-28T11:22:13Z</time>
      </trkpt>
      <trkpt lat="49.94724" lon="2.14231">
        <ele>16</ele>
        <time>2023-06-28T11:22:14Z</time>
      </trkpt>
      <trkpt lat="49.94724" lon="2.14231">
        <ele>16</ele>
        <time>2023-06-28T11:22:15Z</time>
      </trkpt>
      <trkpt lat="49.94724" lon="2.14231">
        <ele>16</ele>
        <time>2023-06-28T11:22:16Z</time>
      </trkpt>
      <trkpt lat="49.94724" lon="2.14231">
        <ele>16</ele>
        <time>2023-06-28T11:22:17Z</time>
      </trkpt>
      <trkpt lat="49.94724" lon="2.14231">
        <ele>16</ele>
        <time>2023-06-28T11:22:18Z</time>
      </trkpt>
      <trkpt lat="49.94724" lon="2.14231">
        <ele>16</ele>
        <time>2023-06-28T11:22:19Z</time>
      </trkpt>
      <trkpt lat="49.94724" lon="2.14231">
        <ele>16</ele>
        <time>2023-06-28T11:24:47Z</time>
      </trkpt>
      <trkpt lat="49.94724" lon="2.14231">
        <ele>16</ele>
        <time>2023-06-28T11:24:48Z</time>
      </trkpt>
      <trkpt lat="49.94724" lon="2.14231">
        <ele>16</ele>
        <time>2023-06-28T11:24:49Z</time>
      </trkpt>
      <trkpt lat="49.94724" lon="2.14231">
        <ele>16</ele>
        <time>2023-06-28T11:24:50Z</time>
      </trkpt>
      <trkpt lat="49.94724" lon="2.14231">
        <ele>16</ele>
        <time>2023-06-28T11:24:51Z</time>
      </trkpt>
      <trkpt lat="49.94724" lon="2.14231">
        <ele>16</ele>
        <time>2023-06-28T11:24:52Z</time>
      </trkpt>
      <trkpt lat="49.94724" lon="2.14231">
        <ele>16</ele>
        <time>2023-06-28T11:24:53Z</time>
      </trkpt>
      <trkpt lat="49.94724" lon="2.14231">
        <ele>16</ele>
        <time>2023-06-28T11:24:54Z</time>
      </trkpt>
      <trkpt lat="49.94724" lon="2.14231">
        <ele>16</ele>
        <time>2023-06-28T11:24:55Z</time>
      </trkpt>
      <trkpt lat="49.94724" lon="2.14231">
        <ele>16</ele>
        <time>2023-06-28T11:24:56Z</time>
      </trkpt>
      <trkpt lat="49.94724" lon="2.14231">
        <ele>16</ele>
        <time>2023-06-28T11:24:57Z</time>
      </trkpt>
      <trkpt lat="49.94724" lon="2.14231">
        <ele>16</ele>
        <time>2023-06-28T11:24:58Z</time>
      </trkpt>
      <trkpt lat="49.94724" lon="2.14231">
        <ele>16</ele>
        <time>2023-06-28T11:24:59Z</time>
      </trkpt>
      <trkpt lat="49.94724" lon="2.14231">
        <ele>16</ele>
        <time>2023-06-28T11:25:00Z</time>
      </trkpt>
      <trkpt lat="49.94724" lon="2.14231">
        <ele>16</ele>
        <time>2023-06-28T11:25:01Z</time>
      </trkpt>
      <trkpt lat="49.94724" lon="2.14231">
        <ele>16</ele>
        <time>2023-06-28T11:25:02Z</time>
      </trkpt>
      <trkpt lat="49.94724" lon="2.14231">
        <ele>16</ele>
        <time>2023-06-28T11:25:03Z</time>
      </trkpt>
      <trkpt lat="49.94724" lon="2.14231">
        <ele>16</ele>
        <time>2023-06-28T11:25:04Z</time>
      </trkpt>
      <trkpt lat="49.94724" lon="2.14231">
        <ele>16</ele>
        <time>2023-06-28T11:25:05Z</time>
      </trkpt>
      <trkpt lat="49.94724" lon="2.14231">
        <ele>16</ele>
        <time>2023-06-28T11:25:06Z</time>
      </trkpt>
      <trkpt lat="49.94724" lon="2.14231">
        <ele>16</ele>
        <time>2023-06-28T11:25:07Z</time>
      </trkpt>
      <trkpt lat="49.94724" lon="2.14231">
        <ele>16</ele>
        <time>2023-06-28T11:25:08Z</time>
      </trkpt>
      <trkpt lat="49.94724" lon="2.14231">
        <ele>16</ele>
        <time>2023-06-28T11:25:09Z</time>
      </trkpt>
      <trkpt lat="49.94724" lon="2.14231">
        <ele>16</ele>
        <time>2023-06-28T11:25:10Z</time>
      </trkpt>
      <trkpt lat="49.94724" lon="2.14231">
        <ele>16</ele>
        <time>2023-06-28T11:25:11Z</time>
      </trkpt>
      <trkpt lat="49.94724" lon="2.14231">
        <ele>16</ele>
        <time>2023-06-28T11:25:12Z</time>
      </trkpt>
      <trkpt lat="49.94724" lon="2.14231">
        <ele>16</ele>
        <time>2023-06-28T11:25:13Z</time>
      </trkpt>
      <trkpt lat="49.94724" lon="2.14231">
        <ele>16</ele>
        <time>2023-06-28T11:25:14Z</time>
      </trkpt>
      <trkpt lat="49.94724" lon="2.14231">
        <ele>16</ele>
        <time>2023-06-28T11:25:15Z</time>
      </trkpt>
      <trkpt lat="49.94724" lon="2.14231">
        <ele>16</ele>
        <time>2023-06-28T11:25:16Z</time>
      </trkpt>
      <trkpt lat="49.94724" lon="2.14231">
        <ele>16</ele>
        <time>2023-06-28T11:25:17Z</time>
      </trkpt>
      <trkpt lat="49.94724" lon="2.14231">
        <ele>16</ele>
        <time>2023-06-28T11:25:18Z</time>
      </trkpt>
      <trkpt lat="49.94724" lon="2.14231">
        <ele>16</ele>
        <time>2023-06-28T11:25:19Z</time>
      </trkpt>
      <trkpt lat="49.94724" lon="2.14231">
        <ele>16</ele>
        <time>2023-06-28T11:25:20Z</time>
      </trkpt>
      <trkpt lat="49.94724" lon="2.14231">
        <ele>16</ele>
        <time>2023-06-28T11:25:21Z</time>
      </trkpt>
      <trkpt lat="49.94724" lon="2.14231">
        <ele>16</ele>
        <time>2023-06-28T11:25:22Z</time>
      </trkpt>
      <trkpt lat="49.94724" lon="2.14231">
        <ele>16</ele>
        <time>2023-06-28T11:25:23Z</time>
      </trkpt>
      <trkpt lat="49.94724" lon="2.14231">
        <ele>16</ele>
        <time>2023-06-28T11:25:24Z</time>
      </trkpt>
      <trkpt lat="49.94724" lon="2.14231">
        <ele>16</ele>
        <time>2023-06-28T11:25:25Z</time>
      </trkpt>
      <trkpt lat="49.94724" lon="2.14231">
        <ele>16</ele>
        <time>2023-06-28T11:25:26Z</time>
      </trkpt>
      <trkpt lat="49.94724" lon="2.14231">
        <ele>16</ele>
        <time>2023-06-28T11:25:27Z</time>
      </trkpt>
      <trkpt lat="49.94724" lon="2.14231">
        <ele>16</ele>
        <time>2023-06-28T11:25:28Z</time>
      </trkpt>
      <trkpt lat="49.94724" lon="2.14231">
        <ele>16</ele>
        <time>2023-06-28T11:25:29Z</time>
      </trkpt>
      <trkpt lat="49.94724" lon="2.14231">
        <ele>16</ele>
        <time>2023-06-28T11:25:30Z</time>
      </trkpt>
      <trkpt lat="49.94724" lon="2.14231">
        <ele>16</ele>
        <time>2023-06-28T11:25:31Z</time>
      </trkpt>
      <trkpt lat="49.94724" lon="2.14231">
        <ele>16</ele>
        <time>2023-06-28T11:25:32Z</time>
      </trkpt>
      <trkpt lat="49.94724" lon="2.14231">
        <ele>16</ele>
        <time>2023-06-28T11:25:33Z</time>
      </trkpt>
      <trkpt lat="49.94724" lon="2.14231">
        <ele>16</ele>
        <time>2023-06-28T11:25:34Z</time>
      </trkpt>
      <trkpt lat="49.94724" lon="2.14231">
        <ele>16</ele>
        <time>2023-06-28T11:25:35Z</time>
      </trkpt>
      <trkpt lat="49.94724" lon="2.14231">
        <ele>16</ele>
        <time>2023-06-28T11:25:36Z</time>
      </trkpt>
      <trkpt lat="49.94724" lon="2.14231">
        <ele>16</ele>
        <time>2023-06-28T11:25:37Z</time>
      </trkpt>
      <trkpt lat="49.94724" lon="2.14231">
        <ele>16</ele>
        <time>2023-06-28T11:25:38Z</time>
      </trkpt>
      <trkpt lat="49.94724" lon="2.14231">
        <ele>16</ele>
        <time>2023-06-28T11:25:39Z</time>
      </trkpt>
      <trkpt lat="49.94724" lon="2.14231">
        <ele>16</ele>
        <time>2023-06-28T11:25:40Z</time>
      </trkpt>
      <trkpt lat="49.94724" lon="2.14231">
        <ele>16</ele>
        <time>2023-06-28T11:25:41Z</time>
      </trkpt>
      <trkpt lat="49.94724" lon="2.14231">
        <ele>16</ele>
        <time>2023-06-28T11:25:42Z</time>
      </trkpt>
      <trkpt lat="49.94724" lon="2.14231">
        <ele>16</ele>
        <time>2023-06-28T11:25:43Z</time>
      </trkpt>
      <trkpt lat="49.94724" lon="2.14231">
        <ele>16</ele>
        <time>2023-06-28T11:25:44Z</time>
      </trkpt>
      <trkpt lat="49.94724" lon="2.14231">
        <ele>16</ele>
        <time>2023-06-28T11:25:45Z</time>
      </trkpt>
      <trkpt lat="49.94724" lon="2.14231">
        <ele>16</ele>
        <time>2023-06-28T11:25:46Z</time>
      </trkpt>
      <trkpt lat="49.94724" lon="2.14231">
        <ele>16</ele>
        <time>2023-06-28T11:25:47Z</time>
      </trkpt>
      <trkpt lat="49.94724" lon="2.14231">
        <ele>16</ele>
        <time>2023-06-28T11:25:48Z</time>
      </trkpt>
      <trkpt lat="49.94724" lon="2.14231">
        <ele>16</ele>
        <time>2023-06-28T11:25:49Z</time>
      </trkpt>
      <trkpt lat="49.94724" lon="2.14231">
        <ele>16</ele>
        <time>2023-06-28T11:25:50Z</time>
      </trkpt>
      <trkpt lat="49.94724" lon="2.14231">
        <ele>16</ele>
        <time>2023-06-28T11:25:51Z</time>
      </trkpt>
      <trkpt lat="49.94724" lon="2.14231">
        <ele>16</ele>
        <time>2023-06-28T11:25:52Z</time>
      </trkpt>
      <trkpt lat="49.94724" lon="2.14231">
        <ele>16</ele>
        <time>2023-06-28T11:25:53Z</time>
      </trkpt>
      <trkpt lat="49.94724" lon="2.14231">
        <ele>16</ele>
        <time>2023-06-28T11:25:54Z</time>
      </trkpt>
      <trkpt lat="49.94724" lon="2.14231">
        <ele>16</ele>
        <time>2023-06-28T11:25:55Z</time>
      </trkpt>
      <trkpt lat="49.94724" lon="2.14231">
        <ele>16</ele>
        <time>2023-06-28T11:25:56Z</time>
      </trkpt>
      <trkpt lat="49.94724" lon="2.14231">
        <ele>16</ele>
        <time>2023-06-28T11:25:57Z</time>
      </trkpt>
      <trkpt lat="49.94724" lon="2.14231">
        <ele>16</ele>
        <time>2023-06-28T11:25:58Z</time>
      </trkpt>
      <trkpt lat="49.94724" lon="2.14231">
        <ele>16</ele>
        <time>2023-06-28T11:25:59Z</time>
      </trkpt>
      <trkpt lat="49.94724" lon="2.14231">
        <ele>16</ele>
        <time>2023-06-28T11:26:00Z</time>
      </trkpt>
      <trkpt lat="49.94724" lon="2.14231">
        <ele>16</ele>
        <time>2023-06-28T11:26:01Z</time>
      </trkpt>
      <trkpt lat="49.94724" lon="2.14231">
        <ele>16</ele>
        <time>2023-06-28T11:26:02Z</time>
      </trkpt>
      <trkpt lat="49.94724" lon="2.14231">
        <ele>16</ele>
        <time>2023-06-28T11:26:03Z</time>
      </trkpt>
      <trkpt lat="49.94724" lon="2.14231">
        <ele>16</ele>
        <time>2023-06-28T11:26:04Z</time>
      </trkpt>
      <trkpt lat="49.94724" lon="2.14231">
        <ele>16</ele>
        <time>2023-06-28T11:26:05Z</time>
      </trkpt>
      <trkpt lat="49.94724" lon="2.14231">
        <ele>16</ele>
        <time>2023-06-28T11:26:06Z</time>
      </trkpt>
      <trkpt lat="49.94724" lon="2.14231">
        <ele>16</ele>
        <time>2023-06-28T11:26:07Z</time>
      </trkpt>
      <trkpt lat="49.94724" lon="2.14231">
        <ele>16</ele>
        <time>2023-06-28T11:26:08Z</time>
      </trkpt>
      <trkpt lat="49.94724" lon="2.14231">
        <ele>16</ele>
        <time>2023-06-28T11:26:09Z</time>
      </trkpt>
      <trkpt lat="49.94724" lon="2.14231">
        <ele>16</ele>
        <time>2023-06-28T11:26:10Z</time>
      </trkpt>
      <trkpt lat="49.94724" lon="2.14231">
        <ele>16</ele>
        <time>2023-06-28T11:26:11Z</time>
      </trkpt>
      <trkpt lat="49.94724" lon="2.14231">
        <ele>16</ele>
        <time>2023-06-28T11:26:12Z</time>
      </trkpt>
      <trkpt lat="49.94724" lon="2.14231">
        <ele>16</ele>
        <time>2023-06-28T11:26:13Z</time>
      </trkpt>
      <trkpt lat="49.94724" lon="2.14231">
        <ele>16</ele>
        <time>2023-06-28T11:26:14Z</time>
      </trkpt>
      <trkpt lat="49.94724" lon="2.14231">
        <ele>16</ele>
        <time>2023-06-28T11:26:15Z</time>
      </trkpt>
      <trkpt lat="49.94724" lon="2.14231">
        <ele>16</ele>
        <time>2023-06-28T11:26:16Z</time>
      </trkpt>
      <trkpt lat="49.94724" lon="2.14231">
        <ele>16</ele>
        <time>2023-06-28T11:26:17Z</time>
      </trkpt>
      <trkpt lat="49.94724" lon="2.14231">
        <ele>16</ele>
        <time>2023-06-28T11:26:18Z</time>
      </trkpt>
      <trkpt lat="49.94724" lon="2.14231">
        <ele>16</ele>
        <time>2023-06-28T11:26:19Z</time>
      </trkpt>
      <trkpt lat="49.94724" lon="2.14231">
        <ele>16</ele>
        <time>2023-06-28T11:26:20Z</time>
      </trkpt>
      <trkpt lat="49.94724" lon="2.14231">
        <ele>16</ele>
        <time>2023-06-28T11:26:21Z</time>
      </trkpt>
      <trkpt lat="49.94724" lon="2.14231">
        <ele>16</ele>
        <time>2023-06-28T11:26:22Z</time>
      </trkpt>
      <trkpt lat="49.94724" lon="2.14231">
        <ele>16</ele>
        <time>2023-06-28T11:26:23Z</time>
      </trkpt>
      <trkpt lat="49.94724" lon="2.14231">
        <ele>16</ele>
        <time>2023-06-28T11:26:24Z</time>
      </trkpt>
      <trkpt lat="49.94724" lon="2.14231">
        <ele>16</ele>
        <time>2023-06-28T11:26:25Z</time>
      </trkpt>
      <trkpt lat="49.94724" lon="2.14231">
        <ele>16</ele>
        <time>2023-06-28T11:26:26Z</time>
      </trkpt>
      <trkpt lat="49.94724" lon="2.14231">
        <ele>16</ele>
        <time>2023-06-28T11:26:27Z</time>
      </trkpt>
      <trkpt lat="49.94724" lon="2.14231">
        <ele>16</ele>
        <time>2023-06-28T11:26:28Z</time>
      </trkpt>
      <trkpt lat="49.94724" lon="2.14231">
        <ele>16</ele>
        <time>2023-06-28T11:26:29Z</time>
      </trkpt>
      <trkpt lat="49.94724" lon="2.14231">
        <ele>16</ele>
        <time>2023-06-28T11:26:30Z</time>
      </trkpt>
      <trkpt lat="49.94724" lon="2.14231">
        <ele>16</ele>
        <time>2023-06-28T11:26:31Z</time>
      </trkpt>
      <trkpt lat="49.94724" lon="2.14231">
        <ele>16</ele>
        <time>2023-06-28T11:26:32Z</time>
      </trkpt>
      <trkpt lat="49.94724" lon="2.14231">
        <ele>16</ele>
        <time>2023-06-28T11:26:33Z</time>
      </trkpt>
      <trkpt lat="49.94724" lon="2.14231">
        <ele>16</ele>
        <time>2023-06-28T11:26:34Z</time>
      </trkpt>
      <trkpt lat="49.94724" lon="2.14231">
        <ele>16</ele>
        <time>2023-06-28T11:26:35Z</time>
      </trkpt>
      <trkpt lat="49.94724" lon="2.14231">
        <ele>16</ele>
        <time>2023-06-28T11:26:36Z</time>
      </trkpt>
      <trkpt lat="49.94724" lon="2.14231">
        <ele>16</ele>
        <time>2023-06-28T11:26:37Z</time>
      </trkpt>
      <trkpt lat="49.94724" lon="2.14231">
        <ele>16</ele>
        <time>2023-06-28T11:26:38Z</time>
      </trkpt>
      <trkpt lat="49.94724" lon="2.14231">
        <ele>16</ele>
        <time>2023-06-28T11:26:39Z</time>
      </trkpt>
      <trkpt lat="49.94724" lon="2.14231">
        <ele>16</ele>
        <time>2023-06-28T11:26:40Z</time>
      </trkpt>
      <trkpt lat="49.94724" lon="2.14231">
        <ele>16</ele>
        <time>2023-06-28T11:26:41Z</time>
      </trkpt>
      <trkpt lat="49.94724" lon="2.14231">
        <ele>16</ele>
        <time>2023-06-28T11:26:42Z</time>
      </trkpt>
      <trkpt lat="49.94724" lon="2.14231">
        <ele>16</ele>
        <time>2023-06-28T11:26:43Z</time>
      </trkpt>
      <trkpt lat="49.94724" lon="2.14231">
        <ele>16</ele>
        <time>2023-06-28T11:26:44Z</time>
      </trkpt>
      <trkpt lat="49.94724" lon="2.14231">
        <ele>16</ele>
        <time>2023-06-28T11:26:45Z</time>
      </trkpt>
      <trkpt lat="49.94724" lon="2.14231">
        <ele>16</ele>
        <time>2023-06-28T11:26:46Z</time>
      </trkpt>
      <trkpt lat="49.94724" lon="2.14231">
        <ele>16</ele>
        <time>2023-06-28T11:26:47Z</time>
      </trkpt>
      <trkpt lat="49.94724" lon="2.14231">
        <ele>16</ele>
        <time>2023-06-28T11:26:48Z</time>
      </trkpt>
      <trkpt lat="49.94724" lon="2.14231">
        <ele>16</ele>
        <time>2023-06-28T11:26:49Z</time>
      </trkpt>
      <trkpt lat="49.94724" lon="2.14231">
        <ele>16</ele>
        <time>2023-06-28T11:26:50Z</time>
      </trkpt>
      <trkpt lat="49.94724" lon="2.14231">
        <ele>16</ele>
        <time>2023-06-28T11:26:51Z</time>
      </trkpt>
      <trkpt lat="49.94724" lon="2.14231">
        <ele>16</ele>
        <time>2023-06-28T11:26:52Z</time>
      </trkpt>
      <trkpt lat="49.94724" lon="2.14231">
        <ele>16</ele>
        <time>2023-06-28T11:26:53Z</time>
      </trkpt>
      <trkpt lat="49.94724" lon="2.14231">
        <ele>16</ele>
        <time>2023-06-28T11:26:54Z</time>
      </trkpt>
      <trkpt lat="49.94724" lon="2.14231">
        <ele>16</ele>
        <time>2023-06-28T11:26:55Z</time>
      </trkpt>
      <trkpt lat="49.94724" lon="2.14231">
        <ele>16</ele>
        <time>2023-06-28T11:26:56Z</time>
      </trkpt>
      <trkpt lat="49.94724" lon="2.14231">
        <ele>16</ele>
        <time>2023-06-28T11:26:57Z</time>
      </trkpt>
      <trkpt lat="49.94724" lon="2.14231">
        <ele>16</ele>
        <time>2023-06-28T11:26:58Z</time>
      </trkpt>
      <trkpt lat="49.94724" lon="2.14231">
        <ele>16</ele>
        <time>2023-06-28T11:26:59Z</time>
      </trkpt>
      <trkpt lat="49.94724" lon="2.14231">
        <ele>16</ele>
        <time>2023-06-28T11:27:00Z</time>
      </trkpt>
      <trkpt lat="49.94724" lon="2.14231">
        <ele>16</ele>
        <time>2023-06-28T11:27:01Z</time>
      </trkpt>
      <trkpt lat="49.94724" lon="2.14231">
        <ele>16</ele>
        <time>2023-06-28T11:27:02Z</time>
      </trkpt>
      <trkpt lat="49.94724" lon="2.14231">
        <ele>16</ele>
        <time>2023-06-28T11:27:03Z</time>
      </trkpt>
      <trkpt lat="49.94724" lon="2.14231">
        <ele>16</ele>
        <time>2023-06-28T11:27:04Z</time>
      </trkpt>
      <trkpt lat="49.94724" lon="2.14231">
        <ele>16</ele>
        <time>2023-06-28T11:27:05Z</time>
      </trkpt>
      <trkpt lat="49.94724" lon="2.14231">
        <ele>16</ele>
        <time>2023-06-28T11:27:06Z</time>
      </trkpt>
      <trkpt lat="49.94724" lon="2.14231">
        <ele>16</ele>
        <time>2023-06-28T11:27:07Z</time>
      </trkpt>
      <trkpt lat="49.94724" lon="2.14231">
        <ele>16</ele>
        <time>2023-06-28T11:27:08Z</time>
      </trkpt>
      <trkpt lat="49.94724" lon="2.14231">
        <ele>16</ele>
        <time>2023-06-28T11:27:09Z</time>
      </trkpt>
      <trkpt lat="49.94724" lon="2.14231">
        <ele>16</ele>
        <time>2023-06-28T11:27:10Z</time>
      </trkpt>
      <trkpt lat="49.94724" lon="2.14231">
        <ele>16</ele>
        <time>2023-06-28T11:27:11Z</time>
      </trkpt>
      <trkpt lat="49.94724" lon="2.14231">
        <ele>16</ele>
        <time>2023-06-28T11:27:12Z</time>
      </trkpt>
      <trkpt lat="49.94724" lon="2.14231">
        <ele>16</ele>
        <time>2023-06-28T11:27:13Z</time>
      </trkpt>
      <trkpt lat="49.94724" lon="2.14231">
        <ele>16</ele>
        <time>2023-06-28T11:27:14Z</time>
      </trkpt>
      <trkpt lat="49.94724" lon="2.14231">
        <ele>16</ele>
        <time>2023-06-28T11:27:15Z</time>
      </trkpt>
      <trkpt lat="49.94724" lon="2.14231">
        <ele>16</ele>
        <time>2023-06-28T11:27:16Z</time>
      </trkpt>
      <trkpt lat="49.94724" lon="2.14231">
        <ele>16</ele>
        <time>2023-06-28T11:27:17Z</time>
      </trkpt>
      <trkpt lat="49.94724" lon="2.14231">
        <ele>16</ele>
        <time>2023-06-28T11:27:18Z</time>
      </trkpt>
      <trkpt lat="49.94724" lon="2.14231">
        <ele>16</ele>
        <time>2023-06-28T11:27:19Z</time>
      </trkpt>
      <trkpt lat="49.94724" lon="2.14231">
        <ele>16</ele>
        <time>2023-06-28T11:27:20Z</time>
      </trkpt>
      <trkpt lat="49.94724" lon="2.14231">
        <ele>16</ele>
        <time>2023-06-28T11:27:21Z</time>
      </trkpt>
      <trkpt lat="49.94724" lon="2.14231">
        <ele>16</ele>
        <time>2023-06-28T11:27:22Z</time>
      </trkpt>
      <trkpt lat="49.94724" lon="2.14231">
        <ele>16</ele>
        <time>2023-06-28T11:27:23Z</time>
      </trkpt>
      <trkpt lat="49.94724" lon="2.14231">
        <ele>16</ele>
        <time>2023-06-28T11:27:24Z</time>
      </trkpt>
      <trkpt lat="49.94724" lon="2.14231">
        <ele>16</ele>
        <time>2023-06-28T11:27:25Z</time>
      </trkpt>
      <trkpt lat="49.94724" lon="2.14231">
        <ele>16</ele>
        <time>2023-06-28T11:27:26Z</time>
      </trkpt>
      <trkpt lat="49.94724" lon="2.14231">
        <ele>16</ele>
        <time>2023-06-28T11:27:27Z</time>
      </trkpt>
      <trkpt lat="49.94724" lon="2.14231">
        <ele>16</ele>
        <time>2023-06-28T11:27:28Z</time>
      </trkpt>
      <trkpt lat="49.94724" lon="2.14231">
        <ele>16</ele>
        <time>2023-06-28T11:27:29Z</time>
      </trkpt>
      <trkpt lat="49.94724" lon="2.14231">
        <ele>16</ele>
        <time>2023-06-28T11:27:30Z</time>
      </trkpt>
      <trkpt lat="49.94724" lon="2.14231">
        <ele>16</ele>
        <time>2023-06-28T11:27:31Z</time>
      </trkpt>
      <trkpt lat="49.94724" lon="2.14231">
        <ele>16</ele>
        <time>2023-06-28T11:27:32Z</time>
      </trkpt>
      <trkpt lat="49.94724" lon="2.14231">
        <ele>16</ele>
        <time>2023-06-28T11:27:33Z</time>
      </trkpt>
      <trkpt lat="49.94724" lon="2.14231">
        <ele>16</ele>
        <time>2023-06-28T11:27:34Z</time>
      </trkpt>
      <trkpt lat="49.94724" lon="2.14231">
        <ele>16</ele>
        <time>2023-06-28T11:27:35Z</time>
      </trkpt>
      <trkpt lat="49.94724" lon="2.14231">
        <ele>16</ele>
        <time>2023-06-28T11:27:36Z</time>
      </trkpt>
      <trkpt lat="49.94724" lon="2.14231">
        <ele>16</ele>
        <time>2023-06-28T11:27:37Z</time>
      </trkpt>
      <trkpt lat="49.94724" lon="2.14231">
        <ele>16</ele>
        <time>2023-06-28T11:27:38Z</time>
      </trkpt>
      <trkpt lat="49.94724" lon="2.14231">
        <ele>16</ele>
        <time>2023-06-28T11:27:39Z</time>
      </trkpt>
      <trkpt lat="49.94724" lon="2.14231">
        <ele>16</ele>
        <time>2023-06-28T11:27:40Z</time>
      </trkpt>
      <trkpt lat="49.94724" lon="2.14231">
        <ele>16</ele>
        <time>2023-06-28T11:27:41Z</time>
      </trkpt>
      <trkpt lat="49.94724" lon="2.14231">
        <ele>16</ele>
        <time>2023-06-28T11:27:42Z</time>
      </trkpt>
      <trkpt lat="49.94724" lon="2.14231">
        <ele>16</ele>
        <time>2023-06-28T11:27:43Z</time>
      </trkpt>
      <trkpt lat="49.94724" lon="2.14231">
        <ele>16</ele>
        <time>2023-06-28T11:27:44Z</time>
      </trkpt>
      <trkpt lat="49.94724" lon="2.14231">
        <ele>16</ele>
        <time>2023-06-28T11:27:45Z</time>
      </trkpt>
      <trkpt lat="49.94724" lon="2.14231">
        <ele>16</ele>
        <time>2023-06-28T11:27:46Z</time>
      </trkpt>
      <trkpt lat="49.94724" lon="2.14231">
        <ele>16</ele>
        <time>2023-06-28T11:27:47Z</time>
      </trkpt>
      <trkpt lat="49.94724" lon="2.14231">
        <ele>16</ele>
        <time>2023-06-28T11:27:48Z</time>
      </trkpt>
      <trkpt lat="49.94724" lon="2.14231">
        <ele>16</ele>
        <time>2023-06-28T11:27:49Z</time>
      </trkpt>
      <trkpt lat="49.94724" lon="2.14231">
        <ele>16</ele>
        <time>2023-06-28T11:27:50Z</time>
      </trkpt>
      <trkpt lat="49.94724" lon="2.14231">
        <ele>16</ele>
        <time>2023-06-28T11:27:51Z</time>
      </trkpt>
      <trkpt lat="49.94724" lon="2.14231">
        <ele>16</ele>
        <time>2023-06-28T11:27:52Z</time>
      </trkpt>
      <trkpt lat="49.94724" lon="2.14231">
        <ele>16</ele>
        <time>2023-06-28T11:27:53Z</time>
      </trkpt>
      <trkpt lat="49.94724" lon="2.14231">
        <ele>16</ele>
        <time>2023-06-28T11:27:54Z</time>
      </trkpt>
      <trkpt lat="49.94724" lon="2.14231">
        <ele>16</ele>
        <time>2023-06-28T11:27:55Z</time>
      </trkpt>
      <trkpt lat="49.94724" lon="2.14231">
        <ele>16</ele>
        <time>2023-06-28T11:27:56Z</time>
      </trkpt>
      <trkpt lat="49.94724" lon="2.14231">
        <ele>16</ele>
        <time>2023-06-28T11:27:57Z</time>
      </trkpt>
      <trkpt lat="49.94724" lon="2.14231">
        <ele>16</ele>
        <time>2023-06-28T11:27:58Z</time>
      </trkpt>
      <trkpt lat="49.94724" lon="2.14231">
        <ele>16</ele>
        <time>2023-06-28T11:27:59Z</time>
      </trkpt>
      <trkpt lat="49.94724" lon="2.14231">
        <ele>16</ele>
        <time>2023-06-28T11:28:00Z</time>
      </trkpt>
      <trkpt lat="49.94724" lon="2.14231">
        <ele>16</ele>
        <time>2023-06-28T11:28:01Z</time>
      </trkpt>
      <trkpt lat="49.94724" lon="2.14231">
        <ele>16</ele>
        <time>2023-06-28T11:28:02Z</time>
      </trkpt>
      <trkpt lat="49.94724" lon="2.14231">
        <ele>16</ele>
        <time>2023-06-28T11:28:03Z</time>
      </trkpt>
      <trkpt lat="49.94724" lon="2.14231">
        <ele>16</ele>
        <time>2023-06-28T11:28:04Z</time>
      </trkpt>
      <trkpt lat="49.94724" lon="2.14231">
        <ele>16</ele>
        <time>2023-06-28T11:28:05Z</time>
      </trkpt>
      <trkpt lat="49.94724" lon="2.14231">
        <ele>16</ele>
        <time>2023-06-28T11:28:06Z</time>
      </trkpt>
      <trkpt lat="49.94724" lon="2.14231">
        <ele>16</ele>
        <time>2023-06-28T11:28:07Z</time>
      </trkpt>
      <trkpt lat="49.94724" lon="2.14231">
        <ele>16</ele>
        <time>2023-06-28T11:28:08Z</time>
      </trkpt>
      <trkpt lat="49.94724" lon="2.14231">
        <ele>16</ele>
        <time>2023-06-28T11:28:09Z</time>
      </trkpt>
      <trkpt lat="49.94724" lon="2.14231">
        <ele>16</ele>
        <time>2023-06-28T11:28:10Z</time>
      </trkpt>
      <trkpt lat="49.94724" lon="2.14231">
        <ele>16</ele>
        <time>2023-06-28T11:28:11Z</time>
      </trkpt>
      <trkpt lat="49.94724" lon="2.14231">
        <ele>16</ele>
        <time>2023-06-28T11:28:12Z</time>
      </trkpt>
      <trkpt lat="49.94724" lon="2.14231">
        <ele>16</ele>
        <time>2023-06-28T11:28:13Z</time>
      </trkpt>
      <trkpt lat="49.94724" lon="2.14231">
        <ele>16</ele>
        <time>2023-06-28T11:28:14Z</time>
      </trkpt>
      <trkpt lat="49.94724" lon="2.14231">
        <ele>16</ele>
        <time>2023-06-28T11:28:15Z</time>
      </trkpt>
      <trkpt lat="49.94724" lon="2.14231">
        <ele>16</ele>
        <time>2023-06-28T11:28:16Z</time>
      </trkpt>
      <trkpt lat="49.94724" lon="2.14231">
        <ele>16</ele>
        <time>2023-06-28T11:28:17Z</time>
      </trkpt>
      <trkpt lat="49.94724" lon="2.14231">
        <ele>16</ele>
        <time>2023-06-28T11:28:18Z</time>
      </trkpt>
      <trkpt lat="49.94724" lon="2.14231">
        <ele>16</ele>
        <time>2023-06-28T11:28:19Z</time>
      </trkpt>
      <trkpt lat="49.94724" lon="2.14231">
        <ele>16</ele>
        <time>2023-06-28T11:28:20Z</time>
      </trkpt>
      <trkpt lat="49.94724" lon="2.14231">
        <ele>16</ele>
        <time>2023-06-28T11:28:21Z</time>
      </trkpt>
      <trkpt lat="49.94724" lon="2.14231">
        <ele>16</ele>
        <time>2023-06-28T11:28:22Z</time>
      </trkpt>
      <trkpt lat="49.94724" lon="2.14231">
        <ele>16</ele>
        <time>2023-06-28T11:28:23Z</time>
      </trkpt>
      <trkpt lat="49.94724" lon="2.14231">
        <ele>16</ele>
        <time>2023-06-28T11:28:24Z</time>
      </trkpt>
      <trkpt lat="49.94724" lon="2.14231">
        <ele>16</ele>
        <time>2023-06-28T11:28:25Z</time>
      </trkpt>
      <trkpt lat="49.94724" lon="2.14231">
        <ele>16</ele>
        <time>2023-06-28T11:28:26Z</time>
      </trkpt>
      <trkpt lat="49.94724" lon="2.14231">
        <ele>16</ele>
        <time>2023-06-28T11:28:27Z</time>
      </trkpt>
      <trkpt lat="49.94724" lon="2.14231">
        <ele>16</ele>
        <time>2023-06-28T11:28:28Z</time>
      </trkpt>
      <trkpt lat="49.94724" lon="2.14231">
        <ele>16</ele>
        <time>2023-06-28T11:28:29Z</time>
      </trkpt>
      <trkpt lat="49.94724" lon="2.14231">
        <ele>16</ele>
        <time>2023-06-28T11:28:30Z</time>
      </trkpt>
      <trkpt lat="49.94724" lon="2.14231">
        <ele>16</ele>
        <time>2023-06-28T11:28:31Z</time>
      </trkpt>
      <trkpt lat="49.94724" lon="2.14231">
        <ele>16</ele>
        <time>2023-06-28T11:28:32Z</time>
      </trkpt>
      <trkpt lat="49.94724" lon="2.14231">
        <ele>16</ele>
        <time>2023-06-28T11:28:33Z</time>
      </trkpt>
      <trkpt lat="49.94724" lon="2.14231">
        <ele>16</ele>
        <time>2023-06-28T11:28:34Z</time>
      </trkpt>
      <trkpt lat="49.94724" lon="2.14231">
        <ele>16</ele>
        <time>2023-06-28T11:28:35Z</time>
      </trkpt>
      <trkpt lat="49.94724" lon="2.14231">
        <ele>16</ele>
        <time>2023-06-28T11:28:36Z</time>
      </trkpt>
      <trkpt lat="49.94724" lon="2.14231">
        <ele>16</ele>
        <time>2023-06-28T11:28:37Z</time>
      </trkpt>
      <trkpt lat="49.94724" lon="2.14231">
        <ele>16</ele>
        <time>2023-06-28T11:28:38Z</time>
      </trkpt>
      <trkpt lat="49.94724" lon="2.14231">
        <ele>16</ele>
        <time>2023-06-28T11:28:39Z</time>
      </trkpt>
      <trkpt lat="49.94724" lon="2.14231">
        <ele>16</ele>
        <time>2023-06-28T11:28:40Z</time>
      </trkpt>
      <trkpt lat="49.94724" lon="2.14231">
        <ele>16</ele>
        <time>2023-06-28T11:28:41Z</time>
      </trkpt>
      <trkpt lat="49.94724" lon="2.14231">
        <ele>16</ele>
        <time>2023-06-28T11:28:42Z</time>
      </trkpt>
      <trkpt lat="49.94724" lon="2.14231">
        <ele>16</ele>
        <time>2023-06-28T11:28:43Z</time>
      </trkpt>
      <trkpt lat="49.94724" lon="2.14231">
        <ele>16</ele>
        <time>2023-06-28T11:28:44Z</time>
      </trkpt>
      <trkpt lat="49.94724" lon="2.14231">
        <ele>16</ele>
        <time>2023-06-28T11:28:45Z</time>
      </trkpt>
      <trkpt lat="49.94724" lon="2.14231">
        <ele>16</ele>
        <time>2023-06-28T11:28:46Z</time>
      </trkpt>
      <trkpt lat="49.94724" lon="2.14231">
        <ele>16</ele>
        <time>2023-06-28T11:28:47Z</time>
      </trkpt>
      <trkpt lat="49.94724" lon="2.14231">
        <ele>16</ele>
        <time>2023-06-28T11:28:48Z</time>
      </trkpt>
      <trkpt lat="49.94724" lon="2.14231">
        <ele>16</ele>
        <time>2023-06-28T11:28:49Z</time>
      </trkpt>
      <trkpt lat="49.94724" lon="2.14231">
        <ele>16</ele>
        <time>2023-06-28T11:28:50Z</time>
      </trkpt>
      <trkpt lat="49.94724" lon="2.14231">
        <ele>16</ele>
        <time>2023-06-28T11:28:51Z</time>
      </trkpt>
      <trkpt lat="49.94724" lon="2.14231">
        <ele>16</ele>
        <time>2023-06-28T11:28:52Z</time>
      </trkpt>
      <trkpt lat="49.94724" lon="2.14231">
        <ele>16</ele>
        <time>2023-06-28T11:28:53Z</time>
      </trkpt>
      <trkpt lat="49.94724" lon="2.14231">
        <ele>16</ele>
        <time>2023-06-28T11:28:54Z</time>
      </trkpt>
      <trkpt lat="49.94724" lon="2.14231">
        <ele>16</ele>
        <time>2023-06-28T11:28:55Z</time>
      </trkpt>
      <trkpt lat="49.94724" lon="2.14231">
        <ele>16</ele>
        <time>2023-06-28T11:28:56Z</time>
      </trkpt>
      <trkpt lat="49.94724" lon="2.14231">
        <ele>16</ele>
        <time>2023-06-28T11:28:57Z</time>
      </trkpt>
      <trkpt lat="49.94724" lon="2.14231">
        <ele>16</ele>
        <time>2023-06-28T11:28:58Z</time>
      </trkpt>
      <trkpt lat="49.94724" lon="2.14231">
        <ele>16</ele>
        <time>2023-06-28T11:28:59Z</time>
      </trkpt>
      <trkpt lat="49.94724" lon="2.14231">
        <ele>16</ele>
        <time>2023-06-28T11:29:00Z</time>
      </trkpt>
      <trkpt lat="49.94724" lon="2.14231">
        <ele>16</ele>
        <time>2023-06-28T11:29:01Z</time>
      </trkpt>
      <trkpt lat="49.94724" lon="2.14231">
        <ele>16</ele>
        <time>2023-06-28T11:29:02Z</time>
      </trkpt>
      <trkpt lat="49.94724" lon="2.14231">
        <ele>16</ele>
        <time>2023-06-28T11:29:03Z</time>
      </trkpt>
      <trkpt lat="49.94724" lon="2.14231">
        <ele>16</ele>
        <time>2023-06-28T11:29:04Z</time>
      </trkpt>
      <trkpt lat="49.94724" lon="2.14231">
        <ele>16</ele>
        <time>2023-06-28T11:29:05Z</time>
      </trkpt>
      <trkpt lat="49.94724" lon="2.14231">
        <ele>16</ele>
        <time>2023-06-28T11:29:06Z</time>
      </trkpt>
      <trkpt lat="49.94724" lon="2.14231">
        <ele>16</ele>
        <time>2023-06-28T11:29:07Z</time>
      </trkpt>
      <trkpt lat="49.94724" lon="2.14231">
        <ele>16</ele>
        <time>2023-06-28T11:29:08Z</time>
      </trkpt>
      <trkpt lat="49.94724" lon="2.14231">
        <ele>16</ele>
        <time>2023-06-28T11:29:09Z</time>
      </trkpt>
      <trkpt lat="49.94724" lon="2.14231">
        <ele>16</ele>
        <time>2023-06-28T11:29:10Z</time>
      </trkpt>
      <trkpt lat="49.94724" lon="2.14231">
        <ele>16</ele>
        <time>2023-06-28T11:29:11Z</time>
      </trkpt>
      <trkpt lat="49.94724" lon="2.14231">
        <ele>16</ele>
        <time>2023-06-28T11:29:12Z</time>
      </trkpt>
      <trkpt lat="49.94724" lon="2.14231">
        <ele>16</ele>
        <time>2023-06-28T11:29:13Z</time>
      </trkpt>
      <trkpt lat="49.94724" lon="2.14231">
        <ele>16</ele>
        <time>2023-06-28T11:29:14Z</time>
      </trkpt>
      <trkpt lat="49.94724" lon="2.14231">
        <ele>16</ele>
        <time>2023-06-28T11:29:15Z</time>
      </trkpt>
      <trkpt lat="49.94724" lon="2.14231">
        <ele>16</ele>
        <time>2023-06-28T11:29:16Z</time>
      </trkpt>
      <trkpt lat="49.94724" lon="2.14231">
        <ele>16</ele>
        <time>2023-06-28T11:29:17Z</time>
      </trkpt>
      <trkpt lat="49.94724" lon="2.14231">
        <ele>16</ele>
        <time>2023-06-28T11:29:18Z</time>
      </trkpt>
      <trkpt lat="49.94724" lon="2.14231">
        <ele>16</ele>
        <time>2023-06-28T11:29:19Z</time>
      </trkpt>
      <trkpt lat="49.94724" lon="2.14231">
        <ele>16</ele>
        <time>2023-06-28T11:29:20Z</time>
      </trkpt>
      <trkpt lat="49.94724" lon="2.14231">
        <ele>16</ele>
        <time>2023-06-28T11:29:21Z</time>
      </trkpt>
      <trkpt lat="49.94724" lon="2.14231">
        <ele>16</ele>
        <time>2023-06-28T11:29:22Z</time>
      </trkpt>
      <trkpt lat="49.94724" lon="2.14231">
        <ele>16</ele>
        <time>2023-06-28T11:29:23Z</time>
      </trkpt>
      <trkpt lat="49.94724" lon="2.14231">
        <ele>16</ele>
        <time>2023-06-28T11:29:24Z</time>
      </trkpt>
      <trkpt lat="49.94724" lon="2.14231">
        <ele>16</ele>
        <time>2023-06-28T11:29:25Z</time>
      </trkpt>
      <trkpt lat="49.94724" lon="2.14231">
        <ele>16</ele>
        <time>2023-06-28T11:29:26Z</time>
      </trkpt>
      <trkpt lat="49.94724" lon="2.14231">
        <ele>16</ele>
        <time>2023-06-28T11:29:27Z</time>
      </trkpt>
      <trkpt lat="49.94724" lon="2.14231">
        <ele>16</ele>
        <time>2023-06-28T11:29:28Z</time>
      </trkpt>
      <trkpt lat="49.94724" lon="2.14231">
        <ele>16</ele>
        <time>2023-06-28T11:29:29Z</time>
      </trkpt>
      <trkpt lat="49.94724" lon="2.14231">
        <ele>16</ele>
        <time>2023-06-28T11:29:30Z</time>
      </trkpt>
      <trkpt lat="49.94724" lon="2.14231">
        <ele>16</ele>
        <time>2023-06-28T11:29:31Z</time>
      </trkpt>
      <trkpt lat="49.94724" lon="2.14231">
        <ele>16</ele>
        <time>2023-06-28T11:29:32Z</time>
      </trkpt>
      <trkpt lat="49.94724" lon="2.14231">
        <ele>16</ele>
        <time>2023-06-28T11:29:33Z</time>
      </trkpt>
      <trkpt lat="49.94724" lon="2.14231">
        <ele>16</ele>
        <time>2023-06-28T11:29:34Z</time>
      </trkpt>
      <trkpt lat="49.94724" lon="2.14231">
        <ele>16</ele>
        <time>2023-06-28T11:29:35Z</time>
      </trkpt>
      <trkpt lat="49.94724" lon="2.14231">
        <ele>16</ele>
        <time>2023-06-28T11:29:36Z</time>
      </trkpt>
      <trkpt lat="49.94724" lon="2.14231">
        <ele>16</ele>
        <time>2023-06-28T11:29:37Z</time>
      </trkpt>
      <trkpt lat="49.94724" lon="2.14231">
        <ele>16</ele>
        <time>2023-06-28T11:29:38Z</time>
      </trkpt>
      <trkpt lat="49.94724" lon="2.14231">
        <ele>16</ele>
        <time>2023-06-28T11:29:39Z</time>
      </trkpt>
      <trkpt lat="49.94724" lon="2.14231">
        <ele>16</ele>
        <time>2023-06-28T11:29:40Z</time>
      </trkpt>
      <trkpt lat="49.94724" lon="2.14231">
        <ele>16</ele>
        <time>2023-06-28T11:29:41Z</time>
      </trkpt>
      <trkpt lat="49.94724" lon="2.14231">
        <ele>16</ele>
        <time>2023-06-28T11:29:42Z</time>
      </trkpt>
      <trkpt lat="49.94724" lon="2.14231">
        <ele>16</ele>
        <time>2023-06-28T11:29:43Z</time>
      </trkpt>
      <trkpt lat="49.94724" lon="2.14231">
        <ele>16</ele>
        <time>2023-06-28T11:29:44Z</time>
      </trkpt>
      <trkpt lat="49.94724" lon="2.14231">
        <ele>16</ele>
        <time>2023-06-28T11:29:45Z</time>
      </trkpt>
      <trkpt lat="49.94724" lon="2.14231">
        <ele>16</ele>
        <time>2023-06-28T11:29:46Z</time>
      </trkpt>
      <trkpt lat="49.94724" lon="2.14231">
        <ele>16</ele>
        <time>2023-06-28T11:29:47Z</time>
      </trkpt>
      <trkpt lat="49.94724" lon="2.14231">
        <ele>16</ele>
        <time>2023-06-28T11:29:48Z</time>
      </trkpt>
      <trkpt lat="49.94724" lon="2.14231">
        <ele>16</ele>
        <time>2023-06-28T11:29:49Z</time>
      </trkpt>
      <trkpt lat="49.94724" lon="2.14231">
        <ele>16</ele>
        <time>2023-06-28T11:29:50Z</time>
      </trkpt>
      <trkpt lat="49.94724" lon="2.14231">
        <ele>16</ele>
        <time>2023-06-28T11:29:51Z</time>
      </trkpt>
      <trkpt lat="49.94724" lon="2.14231">
        <ele>16</ele>
        <time>2023-06-28T11:29:52Z</time>
      </trkpt>
      <trkpt lat="49.94724" lon="2.14231">
        <ele>16</ele>
        <time>2023-06-28T11:29:53Z</time>
      </trkpt>
      <trkpt lat="49.94724" lon="2.14231">
        <ele>16</ele>
        <time>2023-06-28T11:29:54Z</time>
      </trkpt>
      <trkpt lat="49.94724" lon="2.14231">
        <ele>16</ele>
        <time>2023-06-28T11:29:55Z</time>
      </trkpt>
      <trkpt lat="49.94724" lon="2.14231">
        <ele>16</ele>
        <time>2023-06-28T11:29:56Z</time>
      </trkpt>
      <trkpt lat="49.94724" lon="2.14231">
        <ele>16</ele>
        <time>2023-06-28T11:29:57Z</time>
      </trkpt>
      <trkpt lat="49.94724" lon="2.14231">
        <ele>16</ele>
        <time>2023-06-28T11:29:58Z</time>
      </trkpt>
      <trkpt lat="49.94724" lon="2.14231">
        <ele>16</ele>
        <time>2023-06-28T11:29:59Z</time>
      </trkpt>
      <trkpt lat="49.94724" lon="2.14231">
        <ele>16</ele>
        <time>2023-06-28T11:30:00Z</time>
      </trkpt>
      <trkpt lat="49.94724" lon="2.14231">
        <ele>16</ele>
        <time>2023-06-28T11:30:01Z</time>
      </trkpt>
      <trkpt lat="49.94724" lon="2.14231">
        <ele>16</ele>
        <time>2023-06-28T11:30:02Z</time>
      </trkpt>
      <trkpt lat="49.94724" lon="2.14231">
        <ele>16</ele>
        <time>2023-06-28T11:30:03Z</time>
      </trkpt>
      <trkpt lat="49.94724" lon="2.14231">
        <ele>16</ele>
        <time>2023-06-28T11:30:04Z</time>
      </trkpt>
      <trkpt lat="49.94724" lon="2.14231">
        <ele>16</ele>
        <time>2023-06-28T11:30:05Z</time>
      </trkpt>
      <trkpt lat="49.94724" lon="2.14231">
        <ele>16</ele>
        <time>2023-06-28T11:30:06Z</time>
      </trkpt>
      <trkpt lat="49.94724" lon="2.14231">
        <ele>16</ele>
        <time>2023-06-28T11:30:07Z</time>
      </trkpt>
      <trkpt lat="49.94724" lon="2.14231">
        <ele>16</ele>
        <time>2023-06-28T11:30:08Z</time>
      </trkpt>
      <trkpt lat="49.94724" lon="2.14231">
        <ele>16</ele>
        <time>2023-06-28T11:30:09Z</time>
      </trkpt>
      <trkpt lat="49.94724" lon="2.14231">
        <ele>16</ele>
        <time>2023-06-28T11:30:10Z</time>
      </trkpt>
      <trkpt lat="49.94724" lon="2.14231">
        <ele>16</ele>
        <time>2023-06-28T11:30:11Z</time>
      </trkpt>
      <trkpt lat="49.94724" lon="2.14231">
        <ele>16</ele>
        <time>2023-06-28T11:30:12Z</time>
      </trkpt>
      <trkpt lat="49.94724" lon="2.14231">
        <ele>16</ele>
        <time>2023-06-28T11:30:13Z</time>
      </trkpt>
      <trkpt lat="49.94724" lon="2.14231">
        <ele>16</ele>
        <time>2023-06-28T11:30:14Z</time>
      </trkpt>
      <trkpt lat="49.94724" lon="2.14231">
        <ele>16</ele>
        <time>2023-06-28T11:30:15Z</time>
      </trkpt>
      <trkpt lat="49.94724" lon="2.14231">
        <ele>16</ele>
        <time>2023-06-28T11:30:16Z</time>
      </trkpt>
      <trkpt lat="49.94724" lon="2.14231">
        <ele>16</ele>
        <time>2023-06-28T11:30:17Z</time>
      </trkpt>
      <trkpt lat="49.94724" lon="2.14231">
        <ele>16</ele>
        <time>2023-06-28T11:30:18Z</time>
      </trkpt>
      <trkpt lat="49.94724" lon="2.14231">
        <ele>16</ele>
        <time>2023-06-28T11:30:19Z</time>
      </trkpt>
      <trkpt lat="49.94724" lon="2.14231">
        <ele>16</ele>
        <time>2023-06-28T11:30:20Z</time>
      </trkpt>
      <trkpt lat="49.94724" lon="2.14231">
        <ele>16</ele>
        <time>2023-06-28T11:30:21Z</time>
      </trkpt>
      <trkpt lat="49.94724" lon="2.14231">
        <ele>16</ele>
        <time>2023-06-28T11:30:22Z</time>
      </trkpt>
      <trkpt lat="49.94724" lon="2.14231">
        <ele>16</ele>
        <time>2023-06-28T11:30:23Z</time>
      </trkpt>
      <trkpt lat="49.94724" lon="2.14231">
        <ele>16</ele>
        <time>2023-06-28T11:30:24Z</time>
      </trkpt>
      <trkpt lat="49.94724" lon="2.14231">
        <ele>16</ele>
        <time>2023-06-28T11:30:25Z</time>
      </trkpt>
      <trkpt lat="49.94724" lon="2.14231">
        <ele>16</ele>
        <time>2023-06-28T11:30:26Z</time>
      </trkpt>
      <trkpt lat="49.94724" lon="2.14231">
        <ele>16</ele>
        <time>2023-06-28T11:30:27Z</time>
      </trkpt>
      <trkpt lat="49.94724" lon="2.14231">
        <ele>16</ele>
        <time>2023-06-28T11:30:28Z</time>
      </trkpt>
      <trkpt lat="49.94724" lon="2.14231">
        <ele>16</ele>
        <time>2023-06-28T11:30:29Z</time>
      </trkpt>
      <trkpt lat="49.94724" lon="2.14231">
        <ele>16</ele>
        <time>2023-06-28T11:30:30Z</time>
      </trkpt>
      <trkpt lat="49.94724" lon="2.14231">
        <ele>16</ele>
        <time>2023-06-28T11:30:31Z</time>
      </trkpt>
      <trkpt lat="49.94724" lon="2.14231">
        <ele>16</ele>
        <time>2023-06-28T11:30:32Z</time>
      </trkpt>
      <trkpt lat="49.94724" lon="2.14231">
        <ele>16</ele>
        <time>2023-06-28T11:30:33Z</time>
      </trkpt>
      <trkpt lat="49.94724" lon="2.14231">
        <ele>16</ele>
        <time>2023-06-28T11:30:34Z</time>
      </trkpt>
      <trkpt lat="49.94724" lon="2.14231">
        <ele>16</ele>
        <time>2023-06-28T11:30:35Z</time>
      </trkpt>
      <trkpt lat="49.94724" lon="2.14231">
        <ele>16</ele>
        <time>2023-06-28T11:30:36Z</time>
      </trkpt>
      <trkpt lat="49.94724" lon="2.14231">
        <ele>16</ele>
        <time>2023-06-28T11:30:37Z</time>
      </trkpt>
      <trkpt lat="49.94724" lon="2.14231">
        <ele>16</ele>
        <time>2023-06-28T11:30:38Z</time>
      </trkpt>
      <trkpt lat="49.94724" lon="2.14231">
        <ele>16</ele>
        <time>2023-06-28T11:30:39Z</time>
      </trkpt>
      <trkpt lat="49.94724" lon="2.14231">
        <ele>16</ele>
        <time>2023-06-28T11:30:40Z</time>
      </trkpt>
      <trkpt lat="49.94724" lon="2.14231">
        <ele>16</ele>
        <time>2023-06-28T11:30:41Z</time>
      </trkpt>
      <trkpt lat="49.94724" lon="2.14231">
        <ele>16</ele>
        <time>2023-06-28T11:30:42Z</time>
      </trkpt>
      <trkpt lat="49.94724" lon="2.14231">
        <ele>16</ele>
        <time>2023-06-28T11:30:43Z</time>
      </trkpt>
      <trkpt lat="49.94724" lon="2.14231">
        <ele>16</ele>
        <time>2023-06-28T11:30:44Z</time>
      </trkpt>
      <trkpt lat="49.94724" lon="2.14231">
        <ele>16</ele>
        <time>2023-06-28T11:30:45Z</time>
      </trkpt>
      <trkpt lat="49.94724" lon="2.14231">
        <ele>16</ele>
        <time>2023-06-28T11:30:46Z</time>
      </trkpt>
      <trkpt lat="49.94724" lon="2.14231">
        <ele>16</ele>
        <time>2023-06-28T11:30:47Z</time>
      </trkpt>
      <trkpt lat="49.94724" lon="2.14231">
        <ele>16</ele>
        <time>2023-06-28T11:30:48Z</time>
      </trkpt>
      <trkpt lat="49.94724" lon="2.14231">
        <ele>16</ele>
        <time>2023-06-28T11:30:49Z</time>
      </trkpt>
      <trkpt lat="49.94724" lon="2.14231">
        <ele>16</ele>
        <time>2023-06-28T11:30:50Z</time>
      </trkpt>
      <trkpt lat="49.94724" lon="2.14231">
        <ele>16</ele>
        <time>2023-06-28T11:30:51Z</time>
      </trkpt>
      <trkpt lat="49.94724" lon="2.14231">
        <ele>16</ele>
        <time>2023-06-28T11:30:52Z</time>
      </trkpt>
      <trkpt lat="49.94724" lon="2.14231">
        <ele>16</ele>
        <time>2023-06-28T11:30:53Z</time>
      </trkpt>
      <trkpt lat="49.94724" lon="2.14231">
        <ele>16</ele>
        <time>2023-06-28T11:30:54Z</time>
      </trkpt>
      <trkpt lat="49.94724" lon="2.14231">
        <ele>16</ele>
        <time>2023-06-28T11:30:55Z</time>
      </trkpt>
      <trkpt lat="49.94724" lon="2.14231">
        <ele>16</ele>
        <time>2023-06-28T11:30:56Z</time>
      </trkpt>
      <trkpt lat="49.94724" lon="2.14231">
        <ele>16</ele>
        <time>2023-06-28T11:30:57Z</time>
      </trkpt>
      <trkpt lat="49.94724" lon="2.14231">
        <ele>16</ele>
        <time>2023-06-28T11:30:58Z</time>
      </trkpt>
      <trkpt lat="49.94724" lon="2.14231">
        <ele>16</ele>
        <time>2023-06-28T11:30:59Z</time>
      </trkpt>
      <trkpt lat="49.94724" lon="2.14231">
        <ele>16</ele>
        <time>2023-06-28T11:31:00Z</time>
      </trkpt>
      <trkpt lat="49.94724" lon="2.14231">
        <ele>16</ele>
        <time>2023-06-28T11:31:01Z</time>
      </trkpt>
      <trkpt lat="49.94724" lon="2.14231">
        <ele>16</ele>
        <time>2023-06-28T11:31:02Z</time>
      </trkpt>
      <trkpt lat="49.94724" lon="2.14231">
        <ele>16</ele>
        <time>2023-06-28T11:31:03Z</time>
      </trkpt>
      <trkpt lat="49.94724" lon="2.14231">
        <ele>16</ele>
        <time>2023-06-28T11:31:04Z</time>
      </trkpt>
      <trkpt lat="49.94724" lon="2.14231">
        <ele>16</ele>
        <time>2023-06-28T11:31:05Z</time>
      </trkpt>
      <trkpt lat="49.94724" lon="2.14231">
        <ele>16</ele>
        <time>2023-06-28T11:31:06Z</time>
      </trkpt>
      <trkpt lat="49.94724" lon="2.14231">
        <ele>16</ele>
        <time>2023-06-28T11:31:07Z</time>
      </trkpt>
      <trkpt lat="49.94724" lon="2.14231">
        <ele>16</ele>
        <time>2023-06-28T11:31:08Z</time>
      </trkpt>
      <trkpt lat="49.94724" lon="2.14231">
        <ele>16</ele>
        <time>2023-06-28T11:31:09Z</time>
      </trkpt>
      <trkpt lat="49.94724" lon="2.14231">
        <ele>16</ele>
        <time>2023-06-28T11:31:10Z</time>
      </trkpt>
      <trkpt lat="49.94724" lon="2.14231">
        <ele>16</ele>
        <time>2023-06-28T11:31:11Z</time>
      </trkpt>
      <trkpt lat="49.94724" lon="2.14231">
        <ele>16</ele>
        <time>2023-06-28T11:31:12Z</time>
      </trkpt>
      <trkpt lat="49.94724" lon="2.14231">
        <ele>16</ele>
        <time>2023-06-28T11:31:13Z</time>
      </trkpt>
      <trkpt lat="49.94724" lon="2.14231">
        <ele>16</ele>
        <time>2023-06-28T11:31:14Z</time>
      </trkpt>
      <trkpt lat="49.94724" lon="2.14231">
        <ele>16</ele>
        <time>2023-06-28T11:31:15Z</time>
      </trkpt>
      <trkpt lat="49.94724" lon="2.14231">
        <ele>16</ele>
        <time>2023-06-28T11:31:16Z</time>
      </trkpt>
      <trkpt lat="49.94724" lon="2.14231">
        <ele>16</ele>
        <time>2023-06-28T11:31:17Z</time>
      </trkpt>
      <trkpt lat="49.94724" lon="2.14231">
        <ele>16</ele>
        <time>2023-06-28T11:31:18Z</time>
      </trkpt>
      <trkpt lat="49.94724" lon="2.14231">
        <ele>16</ele>
        <time>2023-06-28T11:31:19Z</time>
      </trkpt>
      <trkpt lat="49.94724" lon="2.14231">
        <ele>16</ele>
        <time>2023-06-28T11:31:20Z</time>
      </trkpt>
      <trkpt lat="49.94724" lon="2.14231">
        <ele>16</ele>
        <time>2023-06-28T11:31:21Z</time>
      </trkpt>
      <trkpt lat="49.94724" lon="2.14231">
        <ele>16</ele>
        <time>2023-06-28T11:31:22Z</time>
      </trkpt>
      <trkpt lat="49.94724" lon="2.14231">
        <ele>16</ele>
        <time>2023-06-28T11:31:23Z</time>
      </trkpt>
      <trkpt lat="49.94724" lon="2.14231">
        <ele>16</ele>
        <time>2023-06-28T11:31:24Z</time>
      </trkpt>
      <trkpt lat="49.94724" lon="2.14231">
        <ele>16</ele>
        <time>2023-06-28T11:31:25Z</time>
      </trkpt>
      <trkpt lat="49.94724" lon="2.14231">
        <ele>16</ele>
        <time>2023-06-28T11:31:26Z</time>
      </trkpt>
      <trkpt lat="49.94724" lon="2.14231">
        <ele>16</ele>
        <time>2023-06-28T11:31:27Z</time>
      </trkpt>
      <trkpt lat="49.94724" lon="2.14231">
        <ele>16</ele>
        <time>2023-06-28T11:31:28Z</time>
      </trkpt>
      <trkpt lat="49.94724" lon="2.14231">
        <ele>16</ele>
        <time>2023-06-28T11:31:29Z</time>
      </trkpt>
      <trkpt lat="49.94724" lon="2.14231">
        <ele>16</ele>
        <time>2023-06-28T11:31:30Z</time>
      </trkpt>
      <trkpt lat="49.94724" lon="2.14231">
        <ele>16</ele>
        <time>2023-06-28T11:31:31Z</time>
      </trkpt>
      <trkpt lat="49.94724" lon="2.14231">
        <ele>16</ele>
        <time>2023-06-28T11:31:32Z</time>
      </trkpt>
      <trkpt lat="49.94724" lon="2.14231">
        <ele>16</ele>
        <time>2023-06-28T11:31:33Z</time>
      </trkpt>
      <trkpt lat="49.94724" lon="2.14231">
        <ele>16</ele>
        <time>2023-06-28T11:31:34Z</time>
      </trkpt>
      <trkpt lat="49.94724" lon="2.14231">
        <ele>16</ele>
        <time>2023-06-28T11:31:35Z</time>
      </trkpt>
      <trkpt lat="49.94724" lon="2.14231">
        <ele>16</ele>
        <time>2023-06-28T11:31:36Z</time>
      </trkpt>
      <trkpt lat="49.94724" lon="2.14231">
        <ele>16</ele>
        <time>2023-06-28T11:31:37Z</time>
      </trkpt>
      <trkpt lat="49.94724" lon="2.14231">
        <ele>16</ele>
        <time>2023-06-28T11:31:38Z</time>
      </trkpt>
      <trkpt lat="49.94724" lon="2.14231">
        <ele>16</ele>
        <time>2023-06-28T11:31:39Z</time>
      </trkpt>
      <trkpt lat="49.94724" lon="2.14231">
        <ele>16</ele>
        <time>2023-06-28T11:31:40Z</time>
      </trkpt>
      <trkpt lat="49.94724" lon="2.14231">
        <ele>16</ele>
        <time>2023-06-28T11:31:41Z</time>
      </trkpt>
      <trkpt lat="49.94724" lon="2.14231">
        <ele>16</ele>
        <time>2023-06-28T11:31:42Z</time>
      </trkpt>
      <trkpt lat="49.94724" lon="2.14231">
        <ele>16</ele>
        <time>2023-06-28T11:31:43Z</time>
      </trkpt>
      <trkpt lat="49.94724" lon="2.14231">
        <ele>16</ele>
        <time>2023-06-28T11:31:44Z</time>
      </trkpt>
      <trkpt lat="49.94724" lon="2.14231">
        <ele>16</ele>
        <time>2023-06-28T11:31:45Z</time>
      </trkpt>
      <trkpt lat="49.94724" lon="2.14231">
        <ele>16</ele>
        <time>2023-06-28T11:31:46Z</time>
      </trkpt>
      <trkpt lat="49.94724" lon="2.14231">
        <ele>16</ele>
        <time>2023-06-28T11:31:47Z</time>
      </trkpt>
      <trkpt lat="49.94724" lon="2.14231">
        <ele>16</ele>
        <time>2023-06-28T11:31:48Z</time>
      </trkpt>
      <trkpt lat="49.94724" lon="2.14231">
        <ele>16</ele>
        <time>2023-06-28T11:31:49Z</time>
      </trkpt>
      <trkpt lat="49.94724" lon="2.14231">
        <ele>16</ele>
        <time>2023-06-28T11:31:50Z</time>
      </trkpt>
      <trkpt lat="49.94724" lon="2.14231">
        <ele>16</ele>
        <time>2023-06-28T11:31:51Z</time>
      </trkpt>
      <trkpt lat="49.94724" lon="2.14231">
        <ele>16</ele>
        <time>2023-06-28T11:31:52Z</time>
      </trkpt>
      <trkpt lat="49.94724" lon="2.14231">
        <ele>16</ele>
        <time>2023-06-28T11:31:53Z</time>
      </trkpt>
      <trkpt lat="49.94724" lon="2.14231">
        <ele>16</ele>
        <time>2023-06-28T11:31:54Z</time>
      </trkpt>
      <trkpt lat="49.94724" lon="2.14231">
        <ele>16</ele>
        <time>2023-06-28T11:31:55Z</time>
      </trkpt>
      <trkpt lat="49.94724" lon="2.14231">
        <ele>16</ele>
        <time>2023-06-28T11:31:56Z</time>
      </trkpt>
      <trkpt lat="49.94724" lon="2.14231">
        <ele>16</ele>
        <time>2023-06-28T11:31:57Z</time>
      </trkpt>
      <trkpt lat="49.94724" lon="2.14231">
        <ele>16</ele>
        <time>2023-06-28T11:31:58Z</time>
      </trkpt>
      <trkpt lat="49.94724" lon="2.14231">
        <ele>16</ele>
        <time>2023-06-28T11:31:59Z</time>
      </trkpt>
      <trkpt lat="49.94724" lon="2.14231">
        <ele>16</ele>
        <time>2023-06-28T11:32:00Z</time>
      </trkpt>
      <trkpt lat="49.94724" lon="2.14231">
        <ele>16</ele>
        <time>2023-06-28T11:32:01Z</time>
      </trkpt>
      <trkpt lat="49.94724" lon="2.14231">
        <ele>16</ele>
        <time>2023-06-28T11:32:02Z</time>
      </trkpt>
      <trkpt lat="49.94724" lon="2.14231">
        <ele>16</ele>
        <time>2023-06-28T11:32:03Z</time>
      </trkpt>
      <trkpt lat="49.94724" lon="2.14231">
        <ele>16</ele>
        <time>2023-06-28T11:32:04Z</time>
      </trkpt>
      <trkpt lat="49.94724" lon="2.14231">
        <ele>16</ele>
        <time>2023-06-28T11:32:05Z</time>
      </trkpt>
      <trkpt lat="49.94724" lon="2.14231">
        <ele>16</ele>
        <time>2023-06-28T11:32:06Z</time>
      </trkpt>
      <trkpt lat="49.94724" lon="2.14231">
        <ele>16</ele>
        <time>2023-06-28T11:32:07Z</time>
      </trkpt>
      <trkpt lat="49.94724" lon="2.14231">
        <ele>16</ele>
        <time>2023-06-28T11:32:08Z</time>
      </trkpt>
      <trkpt lat="49.94724" lon="2.14231">
        <ele>16</ele>
        <time>2023-06-28T11:32:09Z</time>
      </trkpt>
      <trkpt lat="49.94724" lon="2.14231">
        <ele>16</ele>
        <time>2023-06-28T11:32:10Z</time>
      </trkpt>
      <trkpt lat="49.94724" lon="2.14231">
        <ele>16</ele>
        <time>2023-06-28T11:32:11Z</time>
      </trkpt>
      <trkpt lat="49.94724" lon="2.14231">
        <ele>16</ele>
        <time>2023-06-28T11:32:12Z</time>
      </trkpt>
      <trkpt lat="49.94724" lon="2.14231">
        <ele>16</ele>
        <time>2023-06-28T11:32:13Z</time>
      </trkpt>
      <trkpt lat="49.94724" lon="2.14231">
        <ele>16</ele>
        <time>2023-06-28T11:32:14Z</time>
      </trkpt>
      <trkpt lat="49.94724" lon="2.14231">
        <ele>16</ele>
        <time>2023-06-28T11:32:15Z</time>
      </trkpt>
      <trkpt lat="49.94724" lon="2.14231">
        <ele>16</ele>
        <time>2023-06-28T11:32:16Z</time>
      </trkpt>
      <trkpt lat="49.94724" lon="2.14231">
        <ele>16</ele>
        <time>2023-06-28T11:32:17Z</time>
      </trkpt>
      <trkpt lat="49.94724" lon="2.14231">
        <ele>16</ele>
        <time>2023-06-28T11:32:18Z</time>
      </trkpt>
      <trkpt lat="49.94724" lon="2.14231">
        <ele>16</ele>
        <time>2023-06-28T11:32:19Z</time>
      </trkpt>
      <trkpt lat="49.94724" lon="2.14231">
        <ele>16</ele>
        <time>2023-06-28T11:32:20Z</time>
      </trkpt>
      <trkpt lat="49.94724" lon="2.14231">
        <ele>16</ele>
        <time>2023-06-28T11:32:21Z</time>
      </trkpt>
      <trkpt lat="49.94724" lon="2.14231">
        <ele>16</ele>
        <time>2023-06-28T11:32:22Z</time>
      </trkpt>
      <trkpt lat="49.94724" lon="2.14231">
        <ele>16</ele>
        <time>2023-06-28T11:32:23Z</time>
      </trkpt>
      <trkpt lat="49.94724" lon="2.14231">
        <ele>16</ele>
        <time>2023-06-28T11:32:24Z</time>
      </trkpt>
      <trkpt lat="49.94724" lon="2.14231">
        <ele>16</ele>
        <time>2023-06-28T11:32:25Z</time>
      </trkpt>
      <trkpt lat="49.94724" lon="2.14231">
        <ele>16</ele>
        <time>2023-06-28T11:32:26Z</time>
      </trkpt>
      <trkpt lat="49.94724" lon="2.14231">
        <ele>16</ele>
        <time>2023-06-28T11:32:27Z</time>
      </trkpt>
      <trkpt lat="49.94724" lon="2.14231">
        <ele>16</ele>
        <time>2023-06-28T11:32:28Z</time>
      </trkpt>
      <trkpt lat="49.94724" lon="2.14231">
        <ele>16</ele>
        <time>2023-06-28T11:32:29Z</time>
      </trkpt>
      <trkpt lat="49.94724" lon="2.14231">
        <ele>16</ele>
        <time>2023-06-28T11:32:30Z</time>
      </trkpt>
      <trkpt lat="49.94724" lon="2.14231">
        <ele>16</ele>
        <time>2023-06-28T11:32:31Z</time>
      </trkpt>
      <trkpt lat="49.94724" lon="2.14231">
        <ele>16</ele>
        <time>2023-06-28T11:32:32Z</time>
      </trkpt>
      <trkpt lat="49.94724" lon="2.14231">
        <ele>16</ele>
        <time>2023-06-28T11:32:33Z</time>
      </trkpt>
      <trkpt lat="49.94724" lon="2.14231">
        <ele>16</ele>
        <time>2023-06-28T11:32:34Z</time>
      </trkpt>
      <trkpt lat="49.94724" lon="2.14231">
        <ele>16</ele>
        <time>2023-06-28T11:32:35Z</time>
      </trkpt>
      <trkpt lat="49.94724" lon="2.14231">
        <ele>16</ele>
        <time>2023-06-28T11:32:36Z</time>
      </trkpt>
      <trkpt lat="49.94724" lon="2.14231">
        <ele>16</ele>
        <time>2023-06-28T11:32:37Z</time>
      </trkpt>
      <trkpt lat="49.94724" lon="2.14231">
        <ele>16</ele>
        <time>2023-06-28T11:32:38Z</time>
      </trkpt>
      <trkpt lat="49.94724" lon="2.14231">
        <ele>16</ele>
        <time>2023-06-28T11:32:39Z</time>
      </trkpt>
      <trkpt lat="49.94724" lon="2.14231">
        <ele>16</ele>
        <time>2023-06-28T11:32:40Z</time>
      </trkpt>
      <trkpt lat="49.94724" lon="2.14231">
        <ele>16</ele>
        <time>2023-06-28T11:32:41Z</time>
      </trkpt>
      <trkpt lat="49.94724" lon="2.14231">
        <ele>16</ele>
        <time>2023-06-28T11:32:42Z</time>
      </trkpt>
      <trkpt lat="49.94724" lon="2.14231">
        <ele>16</ele>
        <time>2023-06-28T11:32:43Z</time>
      </trkpt>
      <trkpt lat="49.94724" lon="2.14231">
        <ele>16</ele>
        <time>2023-06-28T11:32:44Z</time>
      </trkpt>
      <trkpt lat="49.94724" lon="2.14231">
        <ele>16</ele>
        <time>2023-06-28T11:32:45Z</time>
      </trkpt>
      <trkpt lat="49.94724" lon="2.14231">
        <ele>16</ele>
        <time>2023-06-28T11:32:46Z</time>
      </trkpt>
      <trkpt lat="49.94724" lon="2.14231">
        <ele>16</ele>
        <time>2023-06-28T11:32:47Z</time>
      </trkpt>
      <trkpt lat="49.94724" lon="2.14231">
        <ele>16</ele>
        <time>2023-06-28T11:32:48Z</time>
      </trkpt>
      <trkpt lat="49.94724" lon="2.14231">
        <ele>16</ele>
        <time>2023-06-28T11:32:49Z</time>
      </trkpt>
      <trkpt lat="49.94724" lon="2.14231">
        <ele>16</ele>
        <time>2023-06-28T11:32:50Z</time>
      </trkpt>
      <trkpt lat="49.94724" lon="2.14231">
        <ele>16</ele>
        <time>2023-06-28T11:32:51Z</time>
      </trkpt>
      <trkpt lat="49.94724" lon="2.14231">
        <ele>16</ele>
        <time>2023-06-28T11:32:52Z</time>
      </trkpt>
      <trkpt lat="49.94724" lon="2.14231">
        <ele>16</ele>
        <time>2023-06-28T11:32:53Z</time>
      </trkpt>
      <trkpt lat="49.94724" lon="2.14231">
        <ele>16</ele>
        <time>2023-06-28T11:32:54Z</time>
      </trkpt>
      <trkpt lat="49.94724" lon="2.14231">
        <ele>16</ele>
        <time>2023-06-28T11:32:55Z</time>
      </trkpt>
      <trkpt lat="49.94724" lon="2.14231">
        <ele>16</ele>
        <time>2023-06-28T11:32:56Z</time>
      </trkpt>
      <trkpt lat="49.94724" lon="2.14231">
        <ele>16</ele>
        <time>2023-06-28T11:32:57Z</time>
      </trkpt>
      <trkpt lat="49.94724" lon="2.14231">
        <ele>16</ele>
        <time>2023-06-28T11:32:58Z</time>
      </trkpt>
      <trkpt lat="49.94724" lon="2.14231">
        <ele>16</ele>
        <time>2023-06-28T11:32:59Z</time>
      </trkpt>
      <trkpt lat="49.94724" lon="2.14231">
        <ele>16</ele>
        <time>2023-06-28T11:33:00Z</time>
      </trkpt>
      <trkpt lat="49.94724" lon="2.14231">
        <ele>16</ele>
        <time>2023-06-28T11:33:01Z</time>
      </trkpt>
      <trkpt lat="49.94724" lon="2.14231">
        <ele>16</ele>
        <time>2023-06-28T11:33:02Z</time>
      </trkpt>
      <trkpt lat="49.94724" lon="2.14231">
        <ele>16</ele>
        <time>2023-06-28T11:33:03Z</time>
      </trkpt>
      <trkpt lat="49.94724" lon="2.14231">
        <ele>16</ele>
        <time>2023-06-28T11:33:04Z</time>
      </trkpt>
      <trkpt lat="49.94724" lon="2.14231">
        <ele>16</ele>
        <time>2023-06-28T11:33:05Z</time>
      </trkpt>
      <trkpt lat="49.94724" lon="2.14231">
        <ele>16</ele>
        <time>2023-06-28T11:33:06Z</time>
      </trkpt>
      <trkpt lat="49.94724" lon="2.14231">
        <ele>16</ele>
        <time>2023-06-28T11:33:07Z</time>
      </trkpt>
      <trkpt lat="49.94724" lon="2.14231">
        <ele>16</ele>
        <time>2023-06-28T11:33:08Z</time>
      </trkpt>
      <trkpt lat="49.94724" lon="2.14231">
        <ele>16</ele>
        <time>2023-06-28T11:33:09Z</time>
      </trkpt>
      <trkpt lat="49.94724" lon="2.14231">
        <ele>16</ele>
        <time>2023-06-28T11:33:10Z</time>
      </trkpt>
      <trkpt lat="49.94724" lon="2.14231">
        <ele>16</ele>
        <time>2023-06-28T11:33:11Z</time>
      </trkpt>
      <trkpt lat="49.94724" lon="2.14231">
        <ele>16</ele>
        <time>2023-06-28T11:33:12Z</time>
      </trkpt>
      <trkpt lat="49.94724" lon="2.14231">
        <ele>16</ele>
        <time>2023-06-28T11:33:13Z</time>
      </trkpt>
      <trkpt lat="49.94724" lon="2.14231">
        <ele>16</ele>
        <time>2023-06-28T11:33:14Z</time>
      </trkpt>
      <trkpt lat="49.94724" lon="2.14231">
        <ele>16</ele>
        <time>2023-06-28T11:33:15Z</time>
      </trkpt>
      <trkpt lat="49.94724" lon="2.14231">
        <ele>16</ele>
        <time>2023-06-28T11:33:16Z</time>
      </trkpt>
      <trkpt lat="49.94724" lon="2.14231">
        <ele>16</ele>
        <time>2023-06-28T11:33:17Z</time>
      </trkpt>
      <trkpt lat="49.94724" lon="2.14231">
        <ele>16</ele>
        <time>2023-06-28T11:33:18Z</time>
      </trkpt>
      <trkpt lat="49.94724" lon="2.14231">
        <ele>16</ele>
        <time>2023-06-28T11:33:19Z</time>
      </trkpt>
      <trkpt lat="49.94724" lon="2.14231">
        <ele>16</ele>
        <time>2023-06-28T11:33:20Z</time>
      </trkpt>
      <trkpt lat="49.94724" lon="2.14231">
        <ele>16</ele>
        <time>2023-06-28T11:33:21Z</time>
      </trkpt>
      <trkpt lat="49.94724" lon="2.14231">
        <ele>16</ele>
        <time>2023-06-28T11:33:22Z</time>
      </trkpt>
      <trkpt lat="49.94724" lon="2.14231">
        <ele>16</ele>
        <time>2023-06-28T11:33:23Z</time>
      </trkpt>
      <trkpt lat="49.94724" lon="2.14231">
        <ele>16</ele>
        <time>2023-06-28T11:33:24Z</time>
      </trkpt>
      <trkpt lat="49.94724" lon="2.14231">
        <ele>16</ele>
        <time>2023-06-28T11:33:25Z</time>
      </trkpt>
      <trkpt lat="49.94724" lon="2.14231">
        <ele>16</ele>
        <time>2023-06-28T11:33:26Z</time>
      </trkpt>
      <trkpt lat="49.94724" lon="2.14231">
        <ele>16</ele>
        <time>2023-06-28T11:33:27Z</time>
      </trkpt>
      <trkpt lat="49.94724" lon="2.14231">
        <ele>16</ele>
        <time>2023-06-28T11:33:28Z</time>
      </trkpt>
      <trkpt lat="49.94724" lon="2.14231">
        <ele>16</ele>
        <time>2023-06-28T11:33:29Z</time>
      </trkpt>
      <trkpt lat="49.94724" lon="2.14231">
        <ele>16</ele>
        <time>2023-06-28T11:33:30Z</time>
      </trkpt>
      <trkpt lat="49.94724" lon="2.14231">
        <ele>16</ele>
        <time>2023-06-28T11:33:31Z</time>
      </trkpt>
      <trkpt lat="49.94724" lon="2.14231">
        <ele>16</ele>
        <time>2023-06-28T11:33:32Z</time>
      </trkpt>
      <trkpt lat="49.94724" lon="2.14231">
        <ele>16</ele>
        <time>2023-06-28T11:33:33Z</time>
      </trkpt>
      <trkpt lat="49.94724" lon="2.14231">
        <ele>16</ele>
        <time>2023-06-28T11:33:34Z</time>
      </trkpt>
      <trkpt lat="49.94724" lon="2.14231">
        <ele>16</ele>
        <time>2023-06-28T11:33:35Z</time>
      </trkpt>
      <trkpt lat="49.94724" lon="2.14231">
        <ele>16</ele>
        <time>2023-06-28T11:33:36Z</time>
      </trkpt>
      <trkpt lat="49.94724" lon="2.14231">
        <ele>16</ele>
        <time>2023-06-28T11:33:37Z</time>
      </trkpt>
      <trkpt lat="49.94724" lon="2.14231">
        <ele>16</ele>
        <time>2023-06-28T11:33:38Z</time>
      </trkpt>
      <trkpt lat="49.94724" lon="2.14231">
        <ele>16</ele>
        <time>2023-06-28T11:33:39Z</time>
      </trkpt>
      <trkpt lat="49.94724" lon="2.14231">
        <ele>16</ele>
        <time>2023-06-28T11:33:40Z</time>
      </trkpt>
      <trkpt lat="49.94724" lon="2.14231">
        <ele>16</ele>
        <time>2023-06-28T11:33:41Z</time>
      </trkpt>
      <trkpt lat="49.94724" lon="2.14231">
        <ele>16</ele>
        <time>2023-06-28T11:33:42Z</time>
      </trkpt>
      <trkpt lat="49.94724" lon="2.14231">
        <ele>16</ele>
        <time>2023-06-28T11:33:43Z</time>
      </trkpt>
      <trkpt lat="49.94724" lon="2.14231">
        <ele>16</ele>
        <time>2023-06-28T11:33:44Z</time>
      </trkpt>
      <trkpt lat="49.94724" lon="2.14231">
        <ele>16</ele>
        <time>2023-06-28T11:33:45Z</time>
      </trkpt>
      <trkpt lat="49.94724" lon="2.14231">
        <ele>16</ele>
        <time>2023-06-28T11:33:46Z</time>
      </trkpt>
      <trkpt lat="49.94724" lon="2.14231">
        <ele>16</ele>
        <time>2023-06-28T11:33:47Z</time>
      </trkpt>
      <trkpt lat="49.94724" lon="2.14231">
        <ele>16</ele>
        <time>2023-06-28T11:33:48Z</time>
      </trkpt>
      <trkpt lat="49.94724" lon="2.14231">
        <ele>16</ele>
        <time>2023-06-28T11:33:49Z</time>
      </trkpt>
      <trkpt lat="49.94724" lon="2.14231">
        <ele>16</ele>
        <time>2023-06-28T11:33:50Z</time>
      </trkpt>
      <trkpt lat="49.94724" lon="2.14231">
        <ele>16</ele>
        <time>2023-06-28T11:33:51Z</time>
      </trkpt>
      <trkpt lat="49.94724" lon="2.14231">
        <ele>16</ele>
        <time>2023-06-28T11:33:52Z</time>
      </trkpt>
      <trkpt lat="49.94724" lon="2.14231">
        <ele>16</ele>
        <time>2023-06-28T11:33:53Z</time>
      </trkpt>
      <trkpt lat="49.94724" lon="2.14231">
        <ele>16</ele>
        <time>2023-06-28T11:33:54Z</time>
      </trkpt>
      <trkpt lat="49.94724" lon="2.14231">
        <ele>16</ele>
        <time>2023-06-28T11:33:55Z</time>
      </trkpt>
      <trkpt lat="49.94724" lon="2.14231">
        <ele>16</ele>
        <time>2023-06-28T11:33:56Z</time>
      </trkpt>
      <trkpt lat="49.94724" lon="2.14231">
        <ele>16</ele>
        <time>2023-06-28T11:33:57Z</time>
      </trkpt>
      <trkpt lat="49.94724" lon="2.14231">
        <ele>16</ele>
        <time>2023-06-28T11:33:58Z</time>
      </trkpt>
      <trkpt lat="49.94724" lon="2.14231">
        <ele>16</ele>
        <time>2023-06-28T11:33:59Z</time>
      </trkpt>
      <trkpt lat="49.94724" lon="2.14231">
        <ele>16</ele>
        <time>2023-06-28T11:34:00Z</time>
      </trkpt>
      <trkpt lat="49.94724" lon="2.14231">
        <ele>16</ele>
        <time>2023-06-28T11:34:01Z</time>
      </trkpt>
      <trkpt lat="49.94724" lon="2.14231">
        <ele>16</ele>
        <time>2023-06-28T11:34:02Z</time>
      </trkpt>
      <trkpt lat="49.94724" lon="2.14231">
        <ele>16</ele>
        <time>2023-06-28T11:34:03Z</time>
      </trkpt>
      <trkpt lat="49.94724" lon="2.14231">
        <ele>16</ele>
        <time>2023-06-28T11:34:04Z</time>
      </trkpt>
      <trkpt lat="49.94724" lon="2.14231">
        <ele>16</ele>
        <time>2023-06-28T11:34:05Z</time>
      </trkpt>
      <trkpt lat="49.94724" lon="2.14231">
        <ele>16</ele>
        <time>2023-06-28T11:34:06Z</time>
      </trkpt>
      <trkpt lat="49.94724" lon="2.14231">
        <ele>16</ele>
        <time>2023-06-28T11:34:07Z</time>
      </trkpt>
      <trkpt lat="49.94724" lon="2.14231">
        <ele>16</ele>
        <time>2023-06-28T11:34:08Z</time>
      </trkpt>
      <trkpt lat="49.94724" lon="2.14231">
        <ele>16</ele>
        <time>2023-06-28T11:34:09Z</time>
      </trkpt>
      <trkpt lat="49.94724" lon="2.14231">
        <ele>16</ele>
        <time>2023-06-28T11:34:10Z</time>
      </trkpt>
      <trkpt lat="49.94724" lon="2.14231">
        <ele>16</ele>
        <time>2023-06-28T11:34:11Z</time>
      </trkpt>
      <trkpt lat="49.94724" lon="2.14231">
        <ele>16</ele>
        <time>2023-06-28T11:34:12Z</time>
      </trkpt>
      <trkpt lat="49.94724" lon="2.14231">
        <ele>16</ele>
        <time>2023-06-28T11:34:13Z</time>
      </trkpt>
      <trkpt lat="49.94724" lon="2.14231">
        <ele>16</ele>
        <time>2023-06-28T11:34:14Z</time>
      </trkpt>
      <trkpt lat="49.94724" lon="2.14231">
        <ele>16</ele>
        <time>2023-06-28T11:34:15Z</time>
      </trkpt>
      <trkpt lat="49.94724" lon="2.14231">
        <ele>16</ele>
        <time>2023-06-28T11:34:16Z</time>
      </trkpt>
      <trkpt lat="49.94724" lon="2.14231">
        <ele>16</ele>
        <time>2023-06-28T11:34:17Z</time>
      </trkpt>
      <trkpt lat="49.94724" lon="2.14231">
        <ele>16</ele>
        <time>2023-06-28T11:34:18Z</time>
      </trkpt>
      <trkpt lat="49.94724" lon="2.14231">
        <ele>16</ele>
        <time>2023-06-28T11:34:19Z</time>
      </trkpt>
      <trkpt lat="49.94724" lon="2.14231">
        <ele>16</ele>
        <time>2023-06-28T11:34:20Z</time>
      </trkpt>
      <trkpt lat="49.94724" lon="2.14231">
        <ele>16</ele>
        <time>2023-06-28T11:34:21Z</time>
      </trkpt>
      <trkpt lat="49.94724" lon="2.14231">
        <ele>16</ele>
        <time>2023-06-28T11:34:22Z</time>
      </trkpt>
      <trkpt lat="49.94724" lon="2.14231">
        <ele>16</ele>
        <time>2023-06-28T11:34:23Z</time>
      </trkpt>
      <trkpt lat="49.94724" lon="2.14231">
        <ele>16</ele>
        <time>2023-06-28T11:34:24Z</time>
      </trkpt>
      <trkpt lat="49.94724" lon="2.14231">
        <ele>16</ele>
        <time>2023-06-28T11:34:25Z</time>
      </trkpt>
      <trkpt lat="49.94724" lon="2.14231">
        <ele>16</ele>
        <time>2023-06-28T11:34:26Z</time>
      </trkpt>
      <trkpt lat="49.94724" lon="2.14231">
        <ele>16</ele>
        <time>2023-06-28T11:34:27Z</time>
      </trkpt>
      <trkpt lat="49.94724" lon="2.14231">
        <ele>16</ele>
        <time>2023-06-28T11:34:28Z</time>
      </trkpt>
      <trkpt lat="49.94724" lon="2.14231">
        <ele>16</ele>
        <time>2023-06-28T11:34:29Z</time>
      </trkpt>
      <trkpt lat="49.94724" lon="2.14231">
        <ele>16</ele>
        <time>2023-06-28T11:34:30Z</time>
      </trkpt>
      <trkpt lat="49.94724" lon="2.14231">
        <ele>16</ele>
        <time>2023-06-28T11:34:31Z</time>
      </trkpt>
      <trkpt lat="49.94724" lon="2.14231">
        <ele>16</ele>
        <time>2023-06-28T11:34:32Z</time>
      </trkpt>
      <trkpt lat="49.94724" lon="2.14231">
        <ele>16</ele>
        <time>2023-06-28T11:34:33Z</time>
      </trkpt>
      <trkpt lat="49.94724" lon="2.14231">
        <ele>16</ele>
        <time>2023-06-28T11:34:34Z</time>
      </trkpt>
      <trkpt lat="49.94724" lon="2.14231">
        <ele>16</ele>
        <time>2023-06-28T11:34:35Z</time>
      </trkpt>
      <trkpt lat="49.94724" lon="2.14231">
        <ele>16</ele>
        <time>2023-06-28T11:34:36Z</time>
      </trkpt>
      <trkpt lat="49.94724" lon="2.14231">
        <ele>16</ele>
        <time>2023-06-28T11:34:37Z</time>
      </trkpt>
      <trkpt lat="49.94724" lon="2.14231">
        <ele>16</ele>
        <time>2023-06-28T11:34:38Z</time>
      </trkpt>
      <trkpt lat="49.94724" lon="2.14231">
        <ele>16</ele>
        <time>2023-06-28T11:34:39Z</time>
      </trkpt>
      <trkpt lat="49.94724" lon="2.14231">
        <ele>16</ele>
        <time>2023-06-28T11:34:40Z</time>
      </trkpt>
      <trkpt lat="49.94724" lon="2.14231">
        <ele>16</ele>
        <time>2023-06-28T11:34:41Z</time>
      </trkpt>
      <trkpt lat="49.94724" lon="2.14231">
        <ele>16</ele>
        <time>2023-06-28T11:34:42Z</time>
      </trkpt>
      <trkpt lat="49.94724" lon="2.14231">
        <ele>16</ele>
        <time>2023-06-28T11:34:43Z</time>
      </trkpt>
      <trkpt lat="49.94724" lon="2.14231">
        <ele>16</ele>
        <time>2023-06-28T11:34:44Z</time>
      </trkpt>
      <trkpt lat="49.94724" lon="2.14231">
        <ele>16</ele>
        <time>2023-06-28T11:34:45Z</time>
      </trkpt>
      <trkpt lat="49.94724" lon="2.14231">
        <ele>16</ele>
        <time>2023-06-28T11:34:46Z</time>
      </trkpt>
      <trkpt lat="49.94724" lon="2.14231">
        <ele>16</ele>
        <time>2023-06-28T11:34:47Z</time>
      </trkpt>
      <trkpt lat="49.94724" lon="2.14231">
        <ele>16</ele>
        <time>2023-06-28T11:34:48Z</time>
      </trkpt>
      <trkpt lat="49.94724" lon="2.14231">
        <ele>16</ele>
        <time>2023-06-28T11:34:49Z</time>
      </trkpt>
      <trkpt lat="49.94724" lon="2.14231">
        <ele>16</ele>
        <time>2023-06-28T11:34:50Z</time>
      </trkpt>
      <trkpt lat="49.94724" lon="2.14231">
        <ele>16</ele>
        <time>2023-06-28T11:34:51Z</time>
      </trkpt>
      <trkpt lat="49.94724" lon="2.14231">
        <ele>16</ele>
        <time>2023-06-28T11:34:52Z</time>
      </trkpt>
      <trkpt lat="49.94724" lon="2.14231">
        <ele>16</ele>
        <time>2023-06-28T11:34:53Z</time>
      </trkpt>
      <trkpt lat="49.94724" lon="2.14231">
        <ele>16</ele>
        <time>2023-06-28T11:34:54Z</time>
      </trkpt>
      <trkpt lat="49.94724" lon="2.14231">
        <ele>16</ele>
        <time>2023-06-28T11:34:55Z</time>
      </trkpt>
      <trkpt lat="49.94724" lon="2.14231">
        <ele>16</ele>
        <time>2023-06-28T11:34:56Z</time>
      </trkpt>
      <trkpt lat="49.94724" lon="2.14231">
        <ele>16</ele>
        <time>2023-06-28T11:34:57Z</time>
      </trkpt>
      <trkpt lat="49.94724" lon="2.14231">
        <ele>16</ele>
        <time>2023-06-28T11:34:58Z</time>
      </trkpt>
      <trkpt lat="49.94724" lon="2.14231">
        <ele>16</ele>
        <time>2023-06-28T11:34:59Z</time>
      </trkpt>
      <trkpt lat="49.94724" lon="2.14231">
        <ele>16</ele>
        <time>2023-06-28T11:35:00Z</time>
      </trkpt>
      <trkpt lat="49.94724" lon="2.14231">
        <ele>16</ele>
        <time>2023-06-28T11:35:01Z</time>
      </trkpt>
      <trkpt lat="49.94724" lon="2.14231">
        <ele>16</ele>
        <time>2023-06-28T11:35:02Z</time>
      </trkpt>
      <trkpt lat="49.94724" lon="2.14231">
        <ele>16</ele>
        <time>2023-06-28T11:35:03Z</time>
      </trkpt>
      <trkpt lat="49.94724" lon="2.14231">
        <ele>16</ele>
        <time>2023-06-28T11:35:04Z</time>
      </trkpt>
      <trkpt lat="49.94724" lon="2.14231">
        <ele>16</ele>
        <time>2023-06-28T11:35:05Z</time>
      </trkpt>
      <trkpt lat="49.94724" lon="2.14231">
        <ele>16</ele>
        <time>2023-06-28T11:35:06Z</time>
      </trkpt>
      <trkpt lat="49.94724" lon="2.14231">
        <ele>16</ele>
        <time>2023-06-28T11:35:07Z</time>
      </trkpt>
      <trkpt lat="49.94724" lon="2.14231">
        <ele>16</ele>
        <time>2023-06-28T11:35:08Z</time>
      </trkpt>
      <trkpt lat="49.94724" lon="2.14231">
        <ele>16</ele>
        <time>2023-06-28T11:35:09Z</time>
      </trkpt>
      <trkpt lat="49.94724" lon="2.14231">
        <ele>16</ele>
        <time>2023-06-28T11:35:10Z</time>
      </trkpt>
      <trkpt lat="49.94724" lon="2.14231">
        <ele>16</ele>
        <time>2023-06-28T11:35:11Z</time>
      </trkpt>
      <trkpt lat="49.94724" lon="2.14231">
        <ele>16</ele>
        <time>2023-06-28T11:35:12Z</time>
      </trkpt>
      <trkpt lat="49.94722" lon="2.14231">
        <ele>16</ele>
        <time>2023-06-28T11:35:13Z</time>
      </trkpt>
      <trkpt lat="49.94721" lon="2.14231">
        <ele>16</ele>
        <time>2023-06-28T11:35:14Z</time>
      </trkpt>
      <trkpt lat="49.9472" lon="2.14231">
        <ele>16</ele>
        <time>2023-06-28T11:35:15Z</time>
      </trkpt>
      <trkpt lat="49.9472" lon="2.14231">
        <ele>16</ele>
        <time>2023-06-28T11:35:16Z</time>
      </trkpt>
      <trkpt lat="49.94721" lon="2.14231">
        <ele>16</ele>
        <time>2023-06-28T11:35:18Z</time>
      </trkpt>
      <trkpt lat="49.9472" lon="2.14231">
        <ele>16</ele>
        <time>2023-06-28T11:35:19Z</time>
      </trkpt>
      <trkpt lat="49.9472" lon="2.14231">
        <ele>16</ele>
        <time>2023-06-28T11:35:21Z</time>
      </trkpt>
      <trkpt lat="49.9472" lon="2.14231">
        <ele>16</ele>
        <time>2023-06-28T11:35:22Z</time>
      </trkpt>
      <trkpt lat="49.9472" lon="2.14232">
        <ele>16</ele>
        <time>2023-06-28T11:35:24Z</time>
      </trkpt>
      <trkpt lat="49.9472" lon="2.14231">
        <ele>16</ele>
        <time>2023-06-28T11:35:25Z</time>
      </trkpt>
      <trkpt lat="49.9472" lon="2.14231">
        <ele>16</ele>
        <time>2023-06-28T11:35:28Z</time>
      </trkpt>
      <trkpt lat="49.9472" lon="2.14231">
        <ele>16</ele>
        <time>2023-06-28T11:35:29Z</time>
      </trkpt>
      <trkpt lat="49.9472" lon="2.14231">
        <ele>16</ele>
        <time>2023-06-28T11:35:31Z</time>
      </trkpt>
      <trkpt lat="49.9472" lon="2.14231">
        <ele>16</ele>
        <time>2023-06-28T11:35:32Z</time>
      </trkpt>
      <trkpt lat="49.9472" lon="2.14231">
        <ele>16</ele>
        <time>2023-06-28T11:35:34Z</time>
      </trkpt>
      <trkpt lat="49.9472" lon="2.14231">
        <ele>16</ele>
        <time>2023-06-28T11:35:35Z</time>
      </trkpt>
      <trkpt lat="49.9472" lon="2.14231">
        <ele>16</ele>
        <time>2023-06-28T11:35:37Z</time>
      </trkpt>
      <trkpt lat="49.9472" lon="2.14231">
        <ele>16</ele>
        <time>2023-06-28T11:35:38Z</time>
      </trkpt>
      <trkpt lat="49.9472" lon="2.14231">
        <ele>16</ele>
        <time>2023-06-28T11:35:40Z</time>
      </trkpt>
      <trkpt lat="49.9472" lon="2.14231">
        <ele>16</ele>
        <time>2023-06-28T11:35:41Z</time>
      </trkpt>
      <trkpt lat="49.9472" lon="2.14231">
        <ele>16</ele>
        <time>2023-06-28T11:35:42Z</time>
      </trkpt>
      <trkpt lat="49.9472" lon="2.14231">
        <ele>16</ele>
        <time>2023-06-28T11:35:44Z</time>
      </trkpt>
      <trkpt lat="49.94721" lon="2.14231">
        <ele>16</ele>
        <time>2023-06-28T11:35:45Z</time>
      </trkpt>
      <trkpt lat="49.94721" lon="2.14231">
        <ele>16</ele>
        <time>2023-06-28T11:35:46Z</time>
      </trkpt>
      <trkpt lat="49.94721" lon="2.14231">
        <ele>16</ele>
        <time>2023-06-28T11:35:47Z</time>
      </trkpt>
      <trkpt lat="49.94721" lon="2.14231">
        <ele>16</ele>
        <time>2023-06-28T11:35:48Z</time>
      </trkpt>
      <trkpt lat="49.94721" lon="2.14231">
        <ele>16</ele>
        <time>2023-06-28T11:35:49Z</time>
      </trkpt>
      <trkpt lat="49.94721" lon="2.14231">
        <ele>16</ele>
        <time>2023-06-28T11:35:50Z</time>
      </trkpt>
      <trkpt lat="49.94721" lon="2.14231">
        <ele>16</ele>
        <time>2023-06-28T11:35:51Z</time>
      </trkpt>
      <trkpt lat="49.94721" lon="2.14231">
        <ele>16</ele>
        <time>2023-06-28T11:35:52Z</time>
      </trkpt>
      <trkpt lat="49.94721" lon="2.14231">
        <ele>16</ele>
        <time>2023-06-28T11:35:53Z</time>
      </trkpt>
      <trkpt lat="49.94721" lon="2.14231">
        <ele>16</ele>
        <time>2023-06-28T11:35:54Z</time>
      </trkpt>
      <trkpt lat="49.94721" lon="2.14231">
        <ele>16</ele>
        <time>2023-06-28T11:35:55Z</time>
      </trkpt>
      <trkpt lat="49.94721" lon="2.14231">
        <ele>16</ele>
        <time>2023-06-28T11:35:56Z</time>
      </trkpt>
      <trkpt lat="49.94721" lon="2.14231">
        <ele>16</ele>
        <time>2023-06-28T11:35:57Z</time>
      </trkpt>
      <trkpt lat="49.94721" lon="2.14231">
        <ele>16</ele>
        <time>2023-06-28T11:35:58Z</time>
      </trkpt>
      <trkpt lat="49.94721" lon="2.14231">
        <ele>16</ele>
        <time>2023-06-28T11:35:59Z</time>
      </trkpt>
      <trkpt lat="49.94721" lon="2.14231">
        <ele>16</ele>
        <time>2023-06-28T11:36:00Z</time>
      </trkpt>
      <trkpt lat="49.94721" lon="2.14231">
        <ele>16</ele>
        <time>2023-06-28T11:36:01Z</time>
      </trkpt>
      <trkpt lat="49.94721" lon="2.14231">
        <ele>16</ele>
        <time>2023-06-28T11:36:02Z</time>
      </trkpt>
      <trkpt lat="49.94721" lon="2.14231">
        <ele>16</ele>
        <time>2023-06-28T11:36:03Z</time>
      </trkpt>
      <trkpt lat="49.94721" lon="2.14231">
        <ele>16</ele>
        <time>2023-06-28T11:36:04Z</time>
      </trkpt>
      <trkpt lat="49.94721" lon="2.14231">
        <ele>16</ele>
        <time>2023-06-28T11:36:05Z</time>
      </trkpt>
      <trkpt lat="49.94721" lon="2.14231">
        <ele>16</ele>
        <time>2023-06-28T11:36:06Z</time>
      </trkpt>
      <trkpt lat="49.94721" lon="2.14231">
        <ele>16</ele>
        <time>2023-06-28T11:36:07Z</time>
      </trkpt>
      <trkpt lat="49.94721" lon="2.14231">
        <ele>16</ele>
        <time>2023-06-28T11:36:08Z</time>
      </trkpt>
      <trkpt lat="49.94721" lon="2.14231">
        <ele>16</ele>
        <time>2023-06-28T11:36:09Z</time>
      </trkpt>
      <trkpt lat="49.94721" lon="2.14231">
        <ele>16</ele>
        <time>2023-06-28T11:36:10Z</time>
      </trkpt>
      <trkpt lat="49.94721" lon="2.14231">
        <ele>16</ele>
        <time>2023-06-28T11:36:11Z</time>
      </trkpt>
      <trkpt lat="49.94721" lon="2.14231">
        <ele>16</ele>
        <time>2023-06-28T11:36:12Z</time>
      </trkpt>
      <trkpt lat="49.94721" lon="2.14231">
        <ele>16</ele>
        <time>2023-06-28T11:36:13Z</time>
      </trkpt>
      <trkpt lat="49.94721" lon="2.14231">
        <ele>16</ele>
        <time>2023-06-28T11:36:14Z</time>
      </trkpt>
      <trkpt lat="49.94721" lon="2.14231">
        <ele>16</ele>
        <time>2023-06-28T11:36:15Z</time>
      </trkpt>
      <trkpt lat="49.94721" lon="2.14231">
        <ele>16</ele>
        <time>2023-06-28T11:36:16Z</time>
      </trkpt>
      <trkpt lat="49.94721" lon="2.14231">
        <ele>16</ele>
        <time>2023-06-28T11:36:17Z</time>
      </trkpt>
      <trkpt lat="49.94721" lon="2.14231">
        <ele>16</ele>
        <time>2023-06-28T11:36:18Z</time>
      </trkpt>
      <trkpt lat="49.94721" lon="2.14231">
        <ele>16</ele>
        <time>2023-06-28T11:36:19Z</time>
      </trkpt>
      <trkpt lat="49.94721" lon="2.14231">
        <ele>16</ele>
        <time>2023-06-28T11:36:20Z</time>
      </trkpt>
      <trkpt lat="49.94721" lon="2.14231">
        <ele>16</ele>
        <time>2023-06-28T11:36:21Z</time>
      </trkpt>
      <trkpt lat="49.94721" lon="2.14231">
        <ele>16</ele>
        <time>2023-06-28T11:36:22Z</time>
      </trkpt>
      <trkpt lat="49.94721" lon="2.14231">
        <ele>16</ele>
        <time>2023-06-28T11:36:23Z</time>
      </trkpt>
      <trkpt lat="49.94721" lon="2.14231">
        <ele>16</ele>
        <time>2023-06-28T11:36:24Z</time>
      </trkpt>
      <trkpt lat="49.94721" lon="2.14231">
        <ele>16</ele>
        <time>2023-06-28T11:36:25Z</time>
      </trkpt>
      <trkpt lat="49.94721" lon="2.14231">
        <ele>16</ele>
        <time>2023-06-28T11:36:26Z</time>
      </trkpt>
      <trkpt lat="49.94721" lon="2.14231">
        <ele>16</ele>
        <time>2023-06-28T11:36:27Z</time>
      </trkpt>
      <trkpt lat="49.9472" lon="2.14231">
        <ele>16</ele>
        <time>2023-06-28T11:36:28Z</time>
      </trkpt>
      <trkpt lat="49.9472" lon="2.14231">
        <ele>16</ele>
        <time>2023-06-28T11:36:29Z</time>
      </trkpt>
      <trkpt lat="49.9472" lon="2.14231">
        <ele>16</ele>
        <time>2023-06-28T11:36:30Z</time>
      </trkpt>
      <trkpt lat="49.9472" lon="2.14232">
        <ele>16</ele>
        <time>2023-06-28T11:36:32Z</time>
      </trkpt>
      <trkpt lat="49.9472" lon="2.14232">
        <ele>16</ele>
        <time>2023-06-28T11:36:33Z</time>
      </trkpt>
      <trkpt lat="49.9472" lon="2.14232">
        <ele>16</ele>
        <time>2023-06-28T11:36:34Z</time>
      </trkpt>
      <trkpt lat="49.9472" lon="2.14231">
        <ele>16</ele>
        <time>2023-06-28T11:36:36Z</time>
      </trkpt>
      <trkpt lat="49.94719" lon="2.14231">
        <ele>16</ele>
        <time>2023-06-28T11:36:37Z</time>
      </trkpt>
      <trkpt lat="49.9472" lon="2.1423">
        <ele>16</ele>
        <time>2023-06-28T11:36:38Z</time>
      </trkpt>
      <trkpt lat="49.94719" lon="2.1423">
        <ele>16</ele>
        <time>2023-06-28T11:36:40Z</time>
      </trkpt>
      <trkpt lat="49.94718" lon="2.14229">
        <ele>16</ele>
        <time>2023-06-28T11:36:41Z</time>
      </trkpt>
      <trkpt lat="49.94717" lon="2.14228">
        <ele>16</ele>
        <time>2023-06-28T11:36:42Z</time>
      </trkpt>
      <trkpt lat="49.94716" lon="2.14227">
        <ele>16</ele>
        <time>2023-06-28T11:36:43Z</time>
      </trkpt>
      <trkpt lat="49.94716" lon="2.14225">
        <ele>16.1</ele>
        <time>2023-06-28T11:36:45Z</time>
      </trkpt>
      <trkpt lat="49.94715" lon="2.14223">
        <ele>16.1</ele>
        <time>2023-06-28T11:36:46Z</time>
      </trkpt>
      <trkpt lat="49.94716" lon="2.14221">
        <ele>16.1</ele>
        <time>2023-06-28T11:36:47Z</time>
      </trkpt>
      <trkpt lat="49.94715" lon="2.14219">
        <ele>16.1</ele>
        <time>2023-06-28T11:36:49Z</time>
      </trkpt>
      <trkpt lat="49.94714" lon="2.14218">
        <ele>16.1</ele>
        <time>2023-06-28T11:36:50Z</time>
      </trkpt>
      <trkpt lat="49.94714" lon="2.14218">
        <ele>16.1</ele>
        <time>2023-06-28T11:36:52Z</time>
      </trkpt>
      <trkpt lat="49.94713" lon="2.14218">
        <ele>16.1</ele>
        <time>2023-06-28T11:36:53Z</time>
      </trkpt>
      <trkpt lat="49.94712" lon="2.14218">
        <ele>16.1</ele>
        <time>2023-06-28T11:36:54Z</time>
      </trkpt>
      <trkpt lat="49.94712" lon="2.14218">
        <ele>16.1</ele>
        <time>2023-06-28T11:36:55Z</time>
      </trkpt>
      <trkpt lat="49.9471" lon="2.14219">
        <ele>16.1</ele>
        <time>2023-06-28T11:36:57Z</time>
      </trkpt>
      <trkpt lat="49.94709" lon="2.1422">
        <ele>16.1</ele>
        <time>2023-06-28T11:36:58Z</time>
      </trkpt>
      <trkpt lat="49.94708" lon="2.14221">
        <ele>16.1</ele>
        <time>2023-06-28T11:37:00Z</time>
      </trkpt>
      <trkpt lat="49.94706" lon="2.14221">
        <ele>16.1</ele>
        <time>2023-06-28T11:37:01Z</time>
      </trkpt>
      <trkpt lat="49.94705" lon="2.14222">
        <ele>16.1</ele>
        <time>2023-06-28T11:37:02Z</time>
      </trkpt>
      <trkpt lat="49.94704" lon="2.14222">
        <ele>16.1</ele>
        <time>2023-06-28T11:37:04Z</time>
      </trkpt>
      <trkpt lat="49.94703" lon="2.14223">
        <ele>16.1</ele>
        <time>2023-06-28T11:37:05Z</time>
      </trkpt>
      <trkpt lat="49.94702" lon="2.14224">
        <ele>16.1</ele>
        <time>2023-06-28T11:37:06Z</time>
      </trkpt>
      <trkpt lat="49.94702" lon="2.14225">
        <ele>16.1</ele>
        <time>2023-06-28T11:37:07Z</time>
      </trkpt>
      <trkpt lat="49.94701" lon="2.14226">
        <ele>16.1</ele>
        <time>2023-06-28T11:37:09Z</time>
      </trkpt>
      <trkpt lat="49.947" lon="2.14226">
        <ele>16.1</ele>
        <time>2023-06-28T11:37:10Z</time>
      </trkpt>
      <trkpt lat="49.94699" lon="2.14226">
        <ele>16.1</ele>
        <time>2023-06-28T11:37:11Z</time>
      </trkpt>
      <trkpt lat="49.94699" lon="2.14227">
        <ele>16.1</ele>
        <time>2023-06-28T11:37:12Z</time>
      </trkpt>
      <trkpt lat="49.94698" lon="2.14228">
        <ele>16.1</ele>
        <time>2023-06-28T11:37:13Z</time>
      </trkpt>
      <trkpt lat="49.94697" lon="2.14228">
        <ele>16.1</ele>
        <time>2023-06-28T11:37:14Z</time>
      </trkpt>
      <trkpt lat="49.94696" lon="2.1423">
        <ele>16.1</ele>
        <time>2023-06-28T11:37:16Z</time>
      </trkpt>
      <trkpt lat="49.94696" lon="2.14231">
        <ele>16.1</ele>
        <time>2023-06-28T11:37:17Z</time>
      </trkpt>
      <trkpt lat="49.94695" lon="2.14231">
        <ele>16.1</ele>
        <time>2023-06-28T11:37:18Z</time>
      </trkpt>
      <trkpt lat="49.94694" lon="2.14232">
        <ele>16.1</ele>
        <time>2023-06-28T11:37:19Z</time>
      </trkpt>
      <trkpt lat="49.94693" lon="2.14232">
        <ele>16.1</ele>
        <time>2023-06-28T11:37:20Z</time>
      </trkpt>
      <trkpt lat="49.94693" lon="2.14232">
        <ele>16.1</ele>
        <time>2023-06-28T11:37:21Z</time>
      </trkpt>
      <trkpt lat="49.94692" lon="2.14232">
        <ele>16.2</ele>
        <time>2023-06-28T11:37:23Z</time>
      </trkpt>
      <trkpt lat="49.94691" lon="2.14231">
        <ele>16.2</ele>
        <time>2023-06-28T11:37:24Z</time>
      </trkpt>
      <trkpt lat="49.94691" lon="2.1423">
        <ele>16.2</ele>
        <time>2023-06-28T11:37:25Z</time>
      </trkpt>
      <trkpt lat="49.94691" lon="2.1423">
        <ele>16.2</ele>
        <time>2023-06-28T11:37:26Z</time>
      </trkpt>
      <trkpt lat="49.94691" lon="2.1423">
        <ele>16.2</ele>
        <time>2023-06-28T11:37:27Z</time>
      </trkpt>
      <trkpt lat="49.94691" lon="2.1423">
        <ele>16.2</ele>
        <time>2023-06-28T11:37:29Z</time>
      </trkpt>
      <trkpt lat="49.9469" lon="2.1423">
        <ele>16.2</ele>
        <time>2023-06-28T11:37:30Z</time>
      </trkpt>
      <trkpt lat="49.9469" lon="2.14231">
        <ele>16.2</ele>
        <time>2023-06-28T11:37:31Z</time>
      </trkpt>
      <trkpt lat="49.9469" lon="2.14231">
        <ele>16.2</ele>
        <time>2023-06-28T11:37:33Z</time>
      </trkpt>
      <trkpt lat="49.9469" lon="2.14231">
        <ele>16.2</ele>
        <time>2023-06-28T11:37:34Z</time>
      </trkpt>
      <trkpt lat="49.94689" lon="2.14232">
        <ele>16.2</ele>
        <time>2023-06-28T11:37:35Z</time>
      </trkpt>
      <trkpt lat="49.94688" lon="2.14232">
        <ele>16.2</ele>
        <time>2023-06-28T11:37:36Z</time>
      </trkpt>
      <trkpt lat="49.94687" lon="2.14231">
        <ele>16.2</ele>
        <time>2023-06-28T11:37:37Z</time>
      </trkpt>
      <trkpt lat="49.94686" lon="2.14231">
        <ele>16.2</ele>
        <time>2023-06-28T11:37:38Z</time>
      </trkpt>
      <trkpt lat="49.94684" lon="2.1423">
        <ele>16.2</ele>
        <time>2023-06-28T11:37:40Z</time>
      </trkpt>
      <trkpt lat="49.94683" lon="2.14228">
        <ele>16.2</ele>
        <time>2023-06-28T11:37:41Z</time>
      </trkpt>
      <trkpt lat="49.94682" lon="2.14227">
        <ele>16.2</ele>
        <time>2023-06-28T11:37:42Z</time>
      </trkpt>
      <trkpt lat="49.94681" lon="2.14226">
        <ele>16.2</ele>
        <time>2023-06-28T11:37:43Z</time>
      </trkpt>
      <trkpt lat="49.9468" lon="2.14225">
        <ele>16.2</ele>
        <time>2023-06-28T11:37:44Z</time>
      </trkpt>
      <trkpt lat="49.94679" lon="2.14224">
        <ele>16.2</ele>
        <time>2023-06-28T11:37:45Z</time>
      </trkpt>
      <trkpt lat="49.94679" lon="2.14223">
        <ele>16.2</ele>
        <time>2023-06-28T11:37:46Z</time>
      </trkpt>
      <trkpt lat="49.94678" lon="2.14222">
        <ele>16.2</ele>
        <time>2023-06-28T11:37:47Z</time>
      </trkpt>
      <trkpt lat="49.94676" lon="2.14221">
        <ele>16.2</ele>
        <time>2023-06-28T11:37:49Z</time>
      </trkpt>
      <trkpt lat="49.94675" lon="2.14221">
        <ele>16.2</ele>
        <time>2023-06-28T11:37:50Z</time>
      </trkpt>
      <trkpt lat="49.94673" lon="2.1422">
        <ele>16.2</ele>
        <time>2023-06-28T11:37:51Z</time>
      </trkpt>
      <trkpt lat="49.94671" lon="2.1422">
        <ele>16.3</ele>
        <time>2023-06-28T11:37:52Z</time>
      </trkpt>
      <trkpt lat="49.9467" lon="2.1422">
        <ele>16.3</ele>
        <time>2023-06-28T11:37:53Z</time>
      </trkpt>
      <trkpt lat="49.94669" lon="2.1422">
        <ele>16.3</ele>
        <time>2023-06-28T11:37:54Z</time>
      </trkpt>
      <trkpt lat="49.94668" lon="2.14219">
        <ele>16.3</ele>
        <time>2023-06-28T11:37:55Z</time>
      </trkpt>
      <trkpt lat="49.94667" lon="2.14219">
        <ele>16.3</ele>
        <time>2023-06-28T11:37:57Z</time>
      </trkpt>
      <trkpt lat="49.94666" lon="2.14219">
        <ele>16.3</ele>
        <time>2023-06-28T11:37:58Z</time>
      </trkpt>
      <trkpt lat="49.94665" lon="2.14219">
        <ele>16.3</ele>
        <time>2023-06-28T11:37:59Z</time>
      </trkpt>
      <trkpt lat="49.94664" lon="2.14219">
        <ele>16.3</ele>
        <time>2023-06-28T11:38:00Z</time>
      </trkpt>
      <trkpt lat="49.94663" lon="2.14219">
        <ele>16.3</ele>
        <time>2023-06-28T11:38:01Z</time>
      </trkpt>
      <trkpt lat="49.9466" lon="2.14219">
        <ele>16.4</ele>
        <time>2023-06-28T11:38:02Z</time>
      </trkpt>
      <trkpt lat="49.94659" lon="2.14218">
        <ele>16.4</ele>
        <time>2023-06-28T11:38:03Z</time>
      </trkpt>
      <trkpt lat="49.94658" lon="2.14218">
        <ele>16.4</ele>
        <time>2023-06-28T11:38:05Z</time>
      </trkpt>
      <trkpt lat="49.94657" lon="2.14218">
        <ele>16.4</ele>
        <time>2023-06-28T11:38:06Z</time>
      </trkpt>
      <trkpt lat="49.94656" lon="2.14217">
        <ele>16.4</ele>
        <time>2023-06-28T11:38:07Z</time>
      </trkpt>
      <trkpt lat="49.94655" lon="2.14217">
        <ele>16.4</ele>
        <time>2023-06-28T11:38:08Z</time>
      </trkpt>
      <trkpt lat="49.94654" lon="2.14216">
        <ele>16.4</ele>
        <time>2023-06-28T11:38:09Z</time>
      </trkpt>
      <trkpt lat="49.94653" lon="2.14215">
        <ele>16.4</ele>
        <time>2023-06-28T11:38:10Z</time>
      </trkpt>
      <trkpt lat="49.94652" lon="2.14215">
        <ele>16.4</ele>
        <time>2023-06-28T11:38:11Z</time>
      </trkpt>
      <trkpt lat="49.94651" lon="2.14214">
        <ele>16.4</ele>
        <time>2023-06-28T11:38:13Z</time>
      </trkpt>
      <trkpt lat="49.9465" lon="2.14214">
        <ele>16.4</ele>
        <time>2023-06-28T11:38:14Z</time>
      </trkpt>
      <trkpt lat="49.9465" lon="2.14213">
        <ele>16.4</ele>
        <time>2023-06-28T11:38:15Z</time>
      </trkpt>
      <trkpt lat="49.94649" lon="2.14213">
        <ele>16.4</ele>
        <time>2023-06-28T11:38:16Z</time>
      </trkpt>
      <trkpt lat="49.94647" lon="2.14213">
        <ele>16.4</ele>
        <time>2023-06-28T11:38:17Z</time>
      </trkpt>
      <trkpt lat="49.94646" lon="2.14214">
        <ele>16.4</ele>
        <time>2023-06-28T11:38:18Z</time>
      </trkpt>
      <trkpt lat="49.94644" lon="2.14215">
        <ele>16.4</ele>
        <time>2023-06-28T11:38:19Z</time>
      </trkpt>
      <trkpt lat="49.94643" lon="2.14215">
        <ele>16.4</ele>
        <time>2023-06-28T11:38:21Z</time>
      </trkpt>
      <trkpt lat="49.94642" lon="2.14215">
        <ele>16.4</ele>
        <time>2023-06-28T11:38:22Z</time>
      </trkpt>
      <trkpt lat="49.9464" lon="2.14216">
        <ele>16.5</ele>
        <time>2023-06-28T11:38:23Z</time>
      </trkpt>
      <trkpt lat="49.94639" lon="2.14216">
        <ele>16.5</ele>
        <time>2023-06-28T11:38:24Z</time>
      </trkpt>
      <trkpt lat="49.94638" lon="2.14215">
        <ele>16.5</ele>
        <time>2023-06-28T11:38:25Z</time>
      </trkpt>
      <trkpt lat="49.94637" lon="2.14215">
        <ele>16.5</ele>
        <time>2023-06-28T11:38:26Z</time>
      </trkpt>
      <trkpt lat="49.94636" lon="2.14216">
        <ele>16.5</ele>
        <time>2023-06-28T11:38:27Z</time>
      </trkpt>
      <trkpt lat="49.94635" lon="2.14216">
        <ele>16.5</ele>
        <time>2023-06-28T11:38:29Z</time>
      </trkpt>
      <trkpt lat="49.94634" lon="2.14216">
        <ele>16.5</ele>
        <time>2023-06-28T11:38:30Z</time>
      </trkpt>
      <trkpt lat="49.94633" lon="2.14215">
        <ele>16.5</ele>
        <time>2023-06-28T11:38:31Z</time>
      </trkpt>
      <trkpt lat="49.94633" lon="2.14213">
        <ele>16.5</ele>
        <time>2023-06-28T11:38:32Z</time>
      </trkpt>
      <trkpt lat="49.94633" lon="2.14209">
        <ele>15.7</ele>
        <time>2023-06-28T11:38:33Z</time>
      </trkpt>
      <trkpt lat="49.94633" lon="2.14209">
        <ele>15.7</ele>
        <time>2023-06-28T11:38:34Z</time>
      </trkpt>
      <trkpt lat="49.94634" lon="2.14206">
        <ele>15.5</ele>
        <time>2023-06-28T11:38:35Z</time>
      </trkpt>
      <trkpt lat="49.94634" lon="2.14204">
        <ele>15.5</ele>
        <time>2023-06-28T11:38:37Z</time>
      </trkpt>
      <trkpt lat="49.94635" lon="2.14203">
        <ele>15.4</ele>
        <time>2023-06-28T11:38:38Z</time>
      </trkpt>
      <trkpt lat="49.94636" lon="2.142">
        <ele>15.2</ele>
        <time>2023-06-28T11:38:39Z</time>
      </trkpt>
      <trkpt lat="49.94636" lon="2.14199">
        <ele>15.1</ele>
        <time>2023-06-28T11:38:40Z</time>
      </trkpt>
      <trkpt lat="49.94637" lon="2.14196">
        <ele>15</ele>
        <time>2023-06-28T11:38:41Z</time>
      </trkpt>
      <trkpt lat="49.94637" lon="2.14194">
        <ele>14.9</ele>
        <time>2023-06-28T11:38:43Z</time>
      </trkpt>
      <trkpt lat="49.94637" lon="2.14193">
        <ele>14.8</ele>
        <time>2023-06-28T11:38:44Z</time>
      </trkpt>
      <trkpt lat="49.94637" lon="2.14191">
        <ele>14.8</ele>
        <time>2023-06-28T11:38:45Z</time>
      </trkpt>
      <trkpt lat="49.94638" lon="2.1419">
        <ele>14.7</ele>
        <time>2023-06-28T11:38:46Z</time>
      </trkpt>
      <trkpt lat="49.94638" lon="2.14188">
        <ele>14.6</ele>
        <time>2023-06-28T11:38:47Z</time>
      </trkpt>
      <trkpt lat="49.94638" lon="2.14186">
        <ele>14.5</ele>
        <time>2023-06-28T11:38:48Z</time>
      </trkpt>
      <trkpt lat="49.94638" lon="2.14184">
        <ele>14.4</ele>
        <time>2023-06-28T11:38:50Z</time>
      </trkpt>
      <trkpt lat="49.94638" lon="2.14183">
        <ele>14.4</ele>
        <time>2023-06-28T11:38:51Z</time>
      </trkpt>
      <trkpt lat="49.94639" lon="2.14182">
        <ele>14.3</ele>
        <time>2023-06-28T11:38:52Z</time>
      </trkpt>
      <trkpt lat="49.94639" lon="2.14181">
        <ele>14.2</ele>
        <time>2023-06-28T11:38:53Z</time>
      </trkpt>
      <trkpt lat="49.94639" lon="2.14179">
        <ele>14.2</ele>
        <time>2023-06-28T11:38:54Z</time>
      </trkpt>
      <trkpt lat="49.94639" lon="2.14177">
        <ele>14.1</ele>
        <time>2023-06-28T11:38:55Z</time>
      </trkpt>
      <trkpt lat="49.94639" lon="2.14176">
        <ele>14</ele>
        <time>2023-06-28T11:38:57Z</time>
      </trkpt>
      <trkpt lat="49.94639" lon="2.14174">
        <ele>14</ele>
        <time>2023-06-28T11:38:58Z</time>
      </trkpt>
      <trkpt lat="49.94639" lon="2.14173">
        <ele>13.9</ele>
        <time>2023-06-28T11:38:59Z</time>
      </trkpt>
      <trkpt lat="49.94639" lon="2.14172">
        <ele>13.9</ele>
        <time>2023-06-28T11:39:00Z</time>
      </trkpt>
      <trkpt lat="49.94639" lon="2.1417">
        <ele>13.8</ele>
        <time>2023-06-28T11:39:01Z</time>
      </trkpt>
      <trkpt lat="49.94639" lon="2.14169">
        <ele>13.7</ele>
        <time>2023-06-28T11:39:02Z</time>
      </trkpt>
      <trkpt lat="49.94639" lon="2.14165">
        <ele>13.6</ele>
        <time>2023-06-28T11:39:04Z</time>
      </trkpt>
      <trkpt lat="49.94639" lon="2.14164">
        <ele>13.6</ele>
        <time>2023-06-28T11:39:05Z</time>
      </trkpt>
      <trkpt lat="49.94638" lon="2.14163">
        <ele>13.5</ele>
        <time>2023-06-28T11:39:06Z</time>
      </trkpt>
      <trkpt lat="49.94638" lon="2.1416">
        <ele>13.5</ele>
        <time>2023-06-28T11:39:07Z</time>
      </trkpt>
      <trkpt lat="49.94638" lon="2.14158">
        <ele>13.4</ele>
        <time>2023-06-28T11:39:08Z</time>
      </trkpt>
      <trkpt lat="49.94638" lon="2.14157">
        <ele>13.4</ele>
        <time>2023-06-28T11:39:09Z</time>
      </trkpt>
      <trkpt lat="49.94638" lon="2.14155">
        <ele>13.3</ele>
        <time>2023-06-28T11:39:11Z</time>
      </trkpt>
      <trkpt lat="49.94638" lon="2.14154">
        <ele>13.3</ele>
        <time>2023-06-28T11:39:12Z</time>
      </trkpt>
      <trkpt lat="49.94638" lon="2.14151">
        <ele>13.2</ele>
        <time>2023-06-28T11:39:13Z</time>
      </trkpt>
      <trkpt lat="49.94639" lon="2.14149">
        <ele>13.1</ele>
        <time>2023-06-28T11:39:14Z</time>
      </trkpt>
      <trkpt lat="49.9464" lon="2.14148">
        <ele>13.1</ele>
        <time>2023-06-28T11:39:15Z</time>
      </trkpt>
      <trkpt lat="49.9464" lon="2.14146">
        <ele>13</ele>
        <time>2023-06-28T11:39:16Z</time>
      </trkpt>
      <trkpt lat="49.94642" lon="2.14143">
        <ele>13</ele>
        <time>2023-06-28T11:39:17Z</time>
      </trkpt>
      <trkpt lat="49.94642" lon="2.14142">
        <ele>12.9</ele>
        <time>2023-06-28T11:39:19Z</time>
      </trkpt>
      <trkpt lat="49.94643" lon="2.14141">
        <ele>12.9</ele>
        <time>2023-06-28T11:39:20Z</time>
      </trkpt>
      <trkpt lat="49.94644" lon="2.14139">
        <ele>12.8</ele>
        <time>2023-06-28T11:39:21Z</time>
      </trkpt>
      <trkpt lat="49.94645" lon="2.14138">
        <ele>12.8</ele>
        <time>2023-06-28T11:39:22Z</time>
      </trkpt>
      <trkpt lat="49.94645" lon="2.14137">
        <ele>12.8</ele>
        <time>2023-06-28T11:39:23Z</time>
      </trkpt>
      <trkpt lat="49.94646" lon="2.14135">
        <ele>12.8</ele>
        <time>2023-06-28T11:39:24Z</time>
      </trkpt>
      <trkpt lat="49.94647" lon="2.14134">
        <ele>12.7</ele>
        <time>2023-06-28T11:39:25Z</time>
      </trkpt>
      <trkpt lat="49.94647" lon="2.14132">
        <ele>12.7</ele>
        <time>2023-06-28T11:39:27Z</time>
      </trkpt>
      <trkpt lat="49.94648" lon="2.14131">
        <ele>12.7</ele>
        <time>2023-06-28T11:39:28Z</time>
      </trkpt>
      <trkpt lat="49.94648" lon="2.14129">
        <ele>12.7</ele>
        <time>2023-06-28T11:39:29Z</time>
      </trkpt>
      <trkpt lat="49.94648" lon="2.14128">
        <ele>12.7</ele>
        <time>2023-06-28T11:39:30Z</time>
      </trkpt>
      <trkpt lat="49.94648" lon="2.14127">
        <ele>12.7</ele>
        <time>2023-06-28T11:39:31Z</time>
      </trkpt>
      <trkpt lat="49.94648" lon="2.14127">
        <ele>12.7</ele>
        <time>2023-06-28T11:39:33Z</time>
      </trkpt>
      <trkpt lat="49.94648" lon="2.14126">
        <ele>12.7</ele>
        <time>2023-06-28T11:39:34Z</time>
      </trkpt>
      <trkpt lat="49.94648" lon="2.14126">
        <ele>12.7</ele>
        <time>2023-06-28T11:39:36Z</time>
      </trkpt>
      <trkpt lat="49.94648" lon="2.14126">
        <ele>12.7</ele>
        <time>2023-06-28T11:39:37Z</time>
      </trkpt>
      <trkpt lat="49.94648" lon="2.14126">
        <ele>12.7</ele>
        <time>2023-06-28T11:39:39Z</time>
      </trkpt>
      <trkpt lat="49.94648" lon="2.14126">
        <ele>12.7</ele>
        <time>2023-06-28T11:39:40Z</time>
      </trkpt>
      <trkpt lat="49.94648" lon="2.14127">
        <ele>12.7</ele>
        <time>2023-06-28T11:39:41Z</time>
      </trkpt>
      <trkpt lat="49.94647" lon="2.14126">
        <ele>12.7</ele>
        <time>2023-06-28T11:39:43Z</time>
      </trkpt>
      <trkpt lat="49.94647" lon="2.14126">
        <ele>12.7</ele>
        <time>2023-06-28T11:39:44Z</time>
      </trkpt>
      <trkpt lat="49.94647" lon="2.14125">
        <ele>12.7</ele>
        <time>2023-06-28T11:39:45Z</time>
      </trkpt>
      <trkpt lat="49.94647" lon="2.14124">
        <ele>12.7</ele>
        <time>2023-06-28T11:39:46Z</time>
      </trkpt>
      <trkpt lat="49.94647" lon="2.14123">
        <ele>12.7</ele>
        <time>2023-06-28T11:39:47Z</time>
      </trkpt>
      <trkpt lat="49.94647" lon="2.14121">
        <ele>12.7</ele>
        <time>2023-06-28T11:39:49Z</time>
      </trkpt>
      <trkpt lat="49.94646" lon="2.14119">
        <ele>12.7</ele>
        <time>2023-06-28T11:39:50Z</time>
      </trkpt>
      <trkpt lat="49.94646" lon="2.14117">
        <ele>12.7</ele>
        <time>2023-06-28T11:39:51Z</time>
      </trkpt>
      <trkpt lat="49.94645" lon="2.14115">
        <ele>12.7</ele>
        <time>2023-06-28T11:39:52Z</time>
      </trkpt>
      <trkpt lat="49.94645" lon="2.14113">
        <ele>12.7</ele>
        <time>2023-06-28T11:39:53Z</time>
      </trkpt>
      <trkpt lat="49.94645" lon="2.14112">
        <ele>12.7</ele>
        <time>2023-06-28T11:39:54Z</time>
      </trkpt>
      <trkpt lat="49.94646" lon="2.1411">
        <ele>12.7</ele>
        <time>2023-06-28T11:39:56Z</time>
      </trkpt>
      <trkpt lat="49.94646" lon="2.14108">
        <ele>12.7</ele>
        <time>2023-06-28T11:39:57Z</time>
      </trkpt>
      <trkpt lat="49.94647" lon="2.14107">
        <ele>12.7</ele>
        <time>2023-06-28T11:39:58Z</time>
      </trkpt>
      <trkpt lat="49.94647" lon="2.14105">
        <ele>12.7</ele>
        <time>2023-06-28T11:39:59Z</time>
      </trkpt>
      <trkpt lat="49.94647" lon="2.14103">
        <ele>12.7</ele>
        <time>2023-06-28T11:40:00Z</time>
      </trkpt>
      <trkpt lat="49.94648" lon="2.14102">
        <ele>12.7</ele>
        <time>2023-06-28T11:40:01Z</time>
      </trkpt>
      <trkpt lat="49.94648" lon="2.141">
        <ele>12.7</ele>
        <time>2023-06-28T11:40:03Z</time>
      </trkpt>
      <trkpt lat="49.94649" lon="2.14098">
        <ele>12.7</ele>
        <time>2023-06-28T11:40:04Z</time>
      </trkpt>
      <trkpt lat="49.94649" lon="2.14097">
        <ele>12.7</ele>
        <time>2023-06-28T11:40:05Z</time>
      </trkpt>
      <trkpt lat="49.9465" lon="2.14095">
        <ele>12.7</ele>
        <time>2023-06-28T11:40:06Z</time>
      </trkpt>
      <trkpt lat="49.94651" lon="2.14094">
        <ele>12.7</ele>
        <time>2023-06-28T11:40:07Z</time>
      </trkpt>
      <trkpt lat="49.94651" lon="2.14092">
        <ele>12.7</ele>
        <time>2023-06-28T11:40:08Z</time>
      </trkpt>
      <trkpt lat="49.94652" lon="2.14091">
        <ele>12.7</ele>
        <time>2023-06-28T11:40:09Z</time>
      </trkpt>
      <trkpt lat="49.94652" lon="2.1409">
        <ele>12.7</ele>
        <time>2023-06-28T11:40:11Z</time>
      </trkpt>
      <trkpt lat="49.94653" lon="2.14089">
        <ele>12.7</ele>
        <time>2023-06-28T11:40:12Z</time>
      </trkpt>
      <trkpt lat="49.94654" lon="2.14088">
        <ele>12.8</ele>
        <time>2023-06-28T11:40:13Z</time>
      </trkpt>
      <trkpt lat="49.94654" lon="2.14087">
        <ele>12.8</ele>
        <time>2023-06-28T11:40:14Z</time>
      </trkpt>
      <trkpt lat="49.94655" lon="2.14086">
        <ele>12.8</ele>
        <time>2023-06-28T11:40:15Z</time>
      </trkpt>
      <trkpt lat="49.94655" lon="2.14085">
        <ele>12.8</ele>
        <time>2023-06-28T11:40:16Z</time>
      </trkpt>
      <trkpt lat="49.94656" lon="2.14084">
        <ele>12.8</ele>
        <time>2023-06-28T11:40:17Z</time>
      </trkpt>
      <trkpt lat="49.94657" lon="2.14083">
        <ele>12.8</ele>
        <time>2023-06-28T11:40:19Z</time>
      </trkpt>
      <trkpt lat="49.94657" lon="2.14082">
        <ele>12.8</ele>
        <time>2023-06-28T11:40:20Z</time>
      </trkpt>
      <trkpt lat="49.94658" lon="2.14081">
        <ele>12.8</ele>
        <time>2023-06-28T11:40:21Z</time>
      </trkpt>
      <trkpt lat="49.94658" lon="2.1408">
        <ele>12.8</ele>
        <time>2023-06-28T11:40:22Z</time>
      </trkpt>
      <trkpt lat="49.94659" lon="2.14079">
        <ele>12.8</ele>
        <time>2023-06-28T11:40:23Z</time>
      </trkpt>
      <trkpt lat="49.9466" lon="2.14078">
        <ele>12.9</ele>
        <time>2023-06-28T11:40:24Z</time>
      </trkpt>
      <trkpt lat="49.9466" lon="2.14076">
        <ele>12.9</ele>
        <time>2023-06-28T11:40:25Z</time>
      </trkpt>
      <trkpt lat="49.9466" lon="2.14075">
        <ele>12.9</ele>
        <time>2023-06-28T11:40:27Z</time>
      </trkpt>
      <trkpt lat="49.9466" lon="2.14073">
        <ele>12.9</ele>
        <time>2023-06-28T11:40:28Z</time>
      </trkpt>
      <trkpt lat="49.9466" lon="2.14072">
        <ele>12.9</ele>
        <time>2023-06-28T11:40:29Z</time>
      </trkpt>
      <trkpt lat="49.9466" lon="2.14068">
        <ele>12.9</ele>
        <time>2023-06-28T11:40:30Z</time>
      </trkpt>
      <trkpt lat="49.9466" lon="2.14067">
        <ele>12.9</ele>
        <time>2023-06-28T11:40:31Z</time>
      </trkpt>
      <trkpt lat="49.9466" lon="2.14066">
        <ele>12.9</ele>
        <time>2023-06-28T11:40:32Z</time>
      </trkpt>
      <trkpt lat="49.94659" lon="2.14063">
        <ele>12.9</ele>
        <time>2023-06-28T11:40:34Z</time>
      </trkpt>
      <trkpt lat="49.94659" lon="2.14062">
        <ele>12.9</ele>
        <time>2023-06-28T11:40:35Z</time>
      </trkpt>
      <trkpt lat="49.94658" lon="2.1406">
        <ele>12.9</ele>
        <time>2023-06-28T11:40:36Z</time>
      </trkpt>
      <trkpt lat="49.94657" lon="2.14057">
        <ele>12.9</ele>
        <time>2023-06-28T11:40:37Z</time>
      </trkpt>
      <trkpt lat="49.94657" lon="2.14056">
        <ele>12.9</ele>
        <time>2023-06-28T11:40:38Z</time>
      </trkpt>
      <trkpt lat="49.94656" lon="2.14055">
        <ele>12.9</ele>
        <time>2023-06-28T11:40:39Z</time>
      </trkpt>
      <trkpt lat="49.94656" lon="2.14052">
        <ele>12.9</ele>
        <time>2023-06-28T11:40:40Z</time>
      </trkpt>
      <trkpt lat="49.94655" lon="2.14051">
        <ele>12.9</ele>
        <time>2023-06-28T11:40:42Z</time>
      </trkpt>
      <trkpt lat="49.94655" lon="2.14049">
        <ele>12.9</ele>
        <time>2023-06-28T11:40:43Z</time>
      </trkpt>
      <trkpt lat="49.94654" lon="2.14048">
        <ele>12.9</ele>
        <time>2023-06-28T11:40:44Z</time>
      </trkpt>
      <trkpt lat="49.94654" lon="2.14046">
        <ele>12.9</ele>
        <time>2023-06-28T11:40:46Z</time>
      </trkpt>
      <trkpt lat="49.94654" lon="2.14045">
        <ele>12.9</ele>
        <time>2023-06-28T11:40:47Z</time>
      </trkpt>
      <trkpt lat="49.94653" lon="2.14043">
        <ele>12.9</ele>
        <time>2023-06-28T11:40:48Z</time>
      </trkpt>
      <trkpt lat="49.94653" lon="2.14041">
        <ele>12.9</ele>
        <time>2023-06-28T11:40:49Z</time>
      </trkpt>
      <trkpt lat="49.94652" lon="2.1404">
        <ele>12.9</ele>
        <time>2023-06-28T11:40:50Z</time>
      </trkpt>
      <trkpt lat="49.94651" lon="2.14039">
        <ele>12.9</ele>
        <time>2023-06-28T11:40:51Z</time>
      </trkpt>
      <trkpt lat="49.94649" lon="2.14039">
        <ele>12.8</ele>
        <time>2023-06-28T11:40:52Z</time>
      </trkpt>
      <trkpt lat="49.94648" lon="2.14039">
        <ele>12.8</ele>
        <time>2023-06-28T11:40:53Z</time>
      </trkpt>
      <trkpt lat="49.94647" lon="2.14039">
        <ele>12.8</ele>
        <time>2023-06-28T11:40:55Z</time>
      </trkpt>
      <trkpt lat="49.94646" lon="2.14039">
        <ele>12.8</ele>
        <time>2023-06-28T11:40:56Z</time>
      </trkpt>
      <trkpt lat="49.94644" lon="2.14039">
        <ele>12.8</ele>
        <time>2023-06-28T11:40:57Z</time>
      </trkpt>
      <trkpt lat="49.94643" lon="2.14038">
        <ele>12.7</ele>
        <time>2023-06-28T11:40:58Z</time>
      </trkpt>
      <trkpt lat="49.94642" lon="2.14037">
        <ele>12.7</ele>
        <time>2023-06-28T11:40:59Z</time>
      </trkpt>
      <trkpt lat="49.94641" lon="2.14036">
        <ele>12.7</ele>
        <time>2023-06-28T11:41:00Z</time>
      </trkpt>
      <trkpt lat="49.94641" lon="2.14034">
        <ele>12.7</ele>
        <time>2023-06-28T11:41:01Z</time>
      </trkpt>
      <trkpt lat="49.9464" lon="2.14032">
        <ele>12.7</ele>
        <time>2023-06-28T11:41:02Z</time>
      </trkpt>
      <trkpt lat="49.9464" lon="2.14029">
        <ele>12.6</ele>
        <time>2023-06-28T11:41:03Z</time>
      </trkpt>
      <trkpt lat="49.9464" lon="2.14028">
        <ele>12.6</ele>
        <time>2023-06-28T11:41:05Z</time>
      </trkpt>
      <trkpt lat="49.9464" lon="2.14026">
        <ele>12.6</ele>
        <time>2023-06-28T11:41:06Z</time>
      </trkpt>
      <trkpt lat="49.9464" lon="2.14024">
        <ele>12.6</ele>
        <time>2023-06-28T11:41:07Z</time>
      </trkpt>
      <trkpt lat="49.9464" lon="2.14022">
        <ele>12.6</ele>
        <time>2023-06-28T11:41:08Z</time>
      </trkpt>
      <trkpt lat="49.94639" lon="2.1402">
        <ele>12.6</ele>
        <time>2023-06-28T11:41:09Z</time>
      </trkpt>
      <trkpt lat="49.94639" lon="2.14018">
        <ele>12.6</ele>
        <time>2023-06-28T11:41:10Z</time>
      </trkpt>
      <trkpt lat="49.94639" lon="2.14016">
        <ele>12.6</ele>
        <time>2023-06-28T11:41:11Z</time>
      </trkpt>
      <trkpt lat="49.94639" lon="2.14014">
        <ele>12.6</ele>
        <time>2023-06-28T11:41:13Z</time>
      </trkpt>
      <trkpt lat="49.94638" lon="2.14013">
        <ele>12.6</ele>
        <time>2023-06-28T11:41:14Z</time>
      </trkpt>
      <trkpt lat="49.94638" lon="2.1401">
        <ele>12.6</ele>
        <time>2023-06-28T11:41:15Z</time>
      </trkpt>
      <trkpt lat="49.94638" lon="2.14009">
        <ele>12.6</ele>
        <time>2023-06-28T11:41:16Z</time>
      </trkpt>
      <trkpt lat="49.94637" lon="2.14008">
        <ele>12.6</ele>
        <time>2023-06-28T11:41:17Z</time>
      </trkpt>
      <trkpt lat="49.94636" lon="2.14007">
        <ele>12.6</ele>
        <time>2023-06-28T11:41:18Z</time>
      </trkpt>
      <trkpt lat="49.94635" lon="2.14007">
        <ele>12.6</ele>
        <time>2023-06-28T11:41:20Z</time>
      </trkpt>
      <trkpt lat="49.94633" lon="2.14006">
        <ele>12.6</ele>
        <time>2023-06-28T11:41:21Z</time>
      </trkpt>
      <trkpt lat="49.94632" lon="2.14007">
        <ele>12.6</ele>
        <time>2023-06-28T11:41:22Z</time>
      </trkpt>
      <trkpt lat="49.94631" lon="2.14007">
        <ele>12.8</ele>
        <time>2023-06-28T11:41:23Z</time>
      </trkpt>
      <trkpt lat="49.94629" lon="2.14009">
        <ele>12.9</ele>
        <time>2023-06-28T11:41:24Z</time>
      </trkpt>
      <trkpt lat="49.94628" lon="2.1401">
        <ele>12.9</ele>
        <time>2023-06-28T11:41:25Z</time>
      </trkpt>
      <trkpt lat="49.94627" lon="2.14012">
        <ele>13</ele>
        <time>2023-06-28T11:41:27Z</time>
      </trkpt>
      <trkpt lat="49.94626" lon="2.14013">
        <ele>13</ele>
        <time>2023-06-28T11:41:28Z</time>
      </trkpt>
      <trkpt lat="49.94625" lon="2.14015">
        <ele>13.1</ele>
        <time>2023-06-28T11:41:29Z</time>
      </trkpt>
      <trkpt lat="49.94625" lon="2.14015">
        <ele>13.1</ele>
        <time>2023-06-28T11:41:30Z</time>
      </trkpt>
      <trkpt lat="49.94624" lon="2.14017">
        <ele>13.1</ele>
        <time>2023-06-28T11:41:31Z</time>
      </trkpt>
      <trkpt lat="49.94623" lon="2.14017">
        <ele>13.2</ele>
        <time>2023-06-28T11:41:32Z</time>
      </trkpt>
      <trkpt lat="49.94621" lon="2.14019">
        <ele>13.2</ele>
        <time>2023-06-28T11:41:34Z</time>
      </trkpt>
      <trkpt lat="49.94621" lon="2.1402">
        <ele>13.2</ele>
        <time>2023-06-28T11:41:35Z</time>
      </trkpt>
      <trkpt lat="49.94621" lon="2.14021">
        <ele>13.3</ele>
        <time>2023-06-28T11:41:37Z</time>
      </trkpt>
      <trkpt lat="49.94621" lon="2.14021">
        <ele>13.3</ele>
        <time>2023-06-28T11:41:38Z</time>
      </trkpt>
      <trkpt lat="49.94621" lon="2.14021">
        <ele>13.3</ele>
        <time>2023-06-28T11:41:40Z</time>
      </trkpt>
      <trkpt lat="49.94621" lon="2.14021">
        <ele>13.3</ele>
        <time>2023-06-28T11:41:41Z</time>
      </trkpt>
      <trkpt lat="49.94622" lon="2.14021">
        <ele>13.3</ele>
        <time>2023-06-28T11:41:43Z</time>
      </trkpt>
      <trkpt lat="49.94622" lon="2.14021">
        <ele>13.3</ele>
        <time>2023-06-28T11:41:44Z</time>
      </trkpt>
      <trkpt lat="49.94622" lon="2.1402">
        <ele>13.3</ele>
        <time>2023-06-28T11:41:45Z</time>
      </trkpt>
      <trkpt lat="49.94622" lon="2.1402">
        <ele>13.3</ele>
        <time>2023-06-28T11:41:47Z</time>
      </trkpt>
      <trkpt lat="49.94622" lon="2.1402">
        <ele>13.3</ele>
        <time>2023-06-28T11:41:48Z</time>
      </trkpt>
      <trkpt lat="49.94621" lon="2.1402">
        <ele>13.3</ele>
        <time>2023-06-28T11:41:49Z</time>
      </trkpt>
      <trkpt lat="49.94621" lon="2.1402">
        <ele>13.3</ele>
        <time>2023-06-28T11:41:50Z</time>
      </trkpt>
      <trkpt lat="49.9462" lon="2.14021">
        <ele>13.3</ele>
        <time>2023-06-28T11:41:51Z</time>
      </trkpt>
      <trkpt lat="49.9462" lon="2.14022">
        <ele>13.3</ele>
        <time>2023-06-28T11:41:52Z</time>
      </trkpt>
      <trkpt lat="49.9462" lon="2.14022">
        <ele>13.4</ele>
        <time>2023-06-28T11:41:54Z</time>
      </trkpt>
      <trkpt lat="49.94619" lon="2.14023">
        <ele>13.4</ele>
        <time>2023-06-28T11:41:55Z</time>
      </trkpt>
      <trkpt lat="49.94619" lon="2.14024">
        <ele>13.4</ele>
        <time>2023-06-28T11:41:56Z</time>
      </trkpt>
      <trkpt lat="49.94618" lon="2.14025">
        <ele>13.4</ele>
        <time>2023-06-28T11:41:57Z</time>
      </trkpt>
      <trkpt lat="49.94617" lon="2.14026">
        <ele>13.5</ele>
        <time>2023-06-28T11:41:58Z</time>
      </trkpt>
      <trkpt lat="49.94615" lon="2.14028">
        <ele>13.5</ele>
        <time>2023-06-28T11:42:00Z</time>
      </trkpt>
      <trkpt lat="49.94615" lon="2.1403">
        <ele>13.5</ele>
        <time>2023-06-28T11:42:01Z</time>
      </trkpt>
      <trkpt lat="49.94614" lon="2.14031">
        <ele>13.6</ele>
        <time>2023-06-28T11:42:02Z</time>
      </trkpt>
      <trkpt lat="49.94612" lon="2.14033">
        <ele>13.6</ele>
        <time>2023-06-28T11:42:03Z</time>
      </trkpt>
      <trkpt lat="49.94612" lon="2.14035">
        <ele>13.6</ele>
        <time>2023-06-28T11:42:04Z</time>
      </trkpt>
      <trkpt lat="49.94611" lon="2.14036">
        <ele>13.7</ele>
        <time>2023-06-28T11:42:05Z</time>
      </trkpt>
      <trkpt lat="49.9461" lon="2.14037">
        <ele>13.7</ele>
        <time>2023-06-28T11:42:07Z</time>
      </trkpt>
      <trkpt lat="49.9461" lon="2.14038">
        <ele>13.7</ele>
        <time>2023-06-28T11:42:08Z</time>
      </trkpt>
      <trkpt lat="49.94608" lon="2.1404">
        <ele>13.8</ele>
        <time>2023-06-28T11:42:09Z</time>
      </trkpt>
      <trkpt lat="49.94608" lon="2.14041">
        <ele>13.8</ele>
        <time>2023-06-28T11:42:10Z</time>
      </trkpt>
      <trkpt lat="49.94607" lon="2.14042">
        <ele>13.8</ele>
        <time>2023-06-28T11:42:11Z</time>
      </trkpt>
      <trkpt lat="49.94605" lon="2.14044">
        <ele>13.9</ele>
        <time>2023-06-28T11:42:12Z</time>
      </trkpt>
      <trkpt lat="49.94604" lon="2.14045">
        <ele>13.9</ele>
        <time>2023-06-28T11:42:13Z</time>
      </trkpt>
      <trkpt lat="49.94604" lon="2.14046">
        <ele>13.9</ele>
        <time>2023-06-28T11:42:15Z</time>
      </trkpt>
      <trkpt lat="49.94603" lon="2.14047">
        <ele>14</ele>
        <time>2023-06-28T11:42:16Z</time>
      </trkpt>
      <trkpt lat="49.94602" lon="2.14048">
        <ele>14</ele>
        <time>2023-06-28T11:42:17Z</time>
      </trkpt>
      <trkpt lat="49.94601" lon="2.14049">
        <ele>14</ele>
        <time>2023-06-28T11:42:18Z</time>
      </trkpt>
      <trkpt lat="49.946" lon="2.1405">
        <ele>14</ele>
        <time>2023-06-28T11:42:19Z</time>
      </trkpt>
      <trkpt lat="49.946" lon="2.14051">
        <ele>14.1</ele>
        <time>2023-06-28T11:42:21Z</time>
      </trkpt>
      <trkpt lat="49.94599" lon="2.14052">
        <ele>14.1</ele>
        <time>2023-06-28T11:42:22Z</time>
      </trkpt>
      <trkpt lat="49.94598" lon="2.14053">
        <ele>14.1</ele>
        <time>2023-06-28T11:42:23Z</time>
      </trkpt>
      <trkpt lat="49.94597" lon="2.14054">
        <ele>14.2</ele>
        <time>2023-06-28T11:42:24Z</time>
      </trkpt>
      <trkpt lat="49.94596" lon="2.14056">
        <ele>14.2</ele>
        <time>2023-06-28T11:42:25Z</time>
      </trkpt>
      <trkpt lat="49.94594" lon="2.14058">
        <ele>14.3</ele>
        <time>2023-06-28T11:42:26Z</time>
      </trkpt>
      <trkpt lat="49.94594" lon="2.14058">
        <ele>14.3</ele>
        <time>2023-06-28T11:42:28Z</time>
      </trkpt>
      <trkpt lat="49.94593" lon="2.14059">
        <ele>14.4</ele>
        <time>2023-06-28T11:42:29Z</time>
      </trkpt>
      <trkpt lat="49.94592" lon="2.14061">
        <ele>14.3</ele>
        <time>2023-06-28T11:42:30Z</time>
      </trkpt>
      <trkpt lat="49.94592" lon="2.14062">
        <ele>14.3</ele>
        <time>2023-06-28T11:42:31Z</time>
      </trkpt>
      <trkpt lat="49.94592" lon="2.14063">
        <ele>14.3</ele>
        <time>2023-06-28T11:42:32Z</time>
      </trkpt>
      <trkpt lat="49.94593" lon="2.14064">
        <ele>14.3</ele>
        <time>2023-06-28T11:42:33Z</time>
      </trkpt>
      <trkpt lat="49.94594" lon="2.14064">
        <ele>14.3</ele>
        <time>2023-06-28T11:42:35Z</time>
      </trkpt>
      <trkpt lat="49.94595" lon="2.14063">
        <ele>14.2</ele>
        <time>2023-06-28T11:42:36Z</time>
      </trkpt>
      <trkpt lat="49.94596" lon="2.14063">
        <ele>14.2</ele>
        <time>2023-06-28T11:42:38Z</time>
      </trkpt>
      <trkpt lat="49.94596" lon="2.14063">
        <ele>14.2</ele>
        <time>2023-06-28T11:42:39Z</time>
      </trkpt>
      <trkpt lat="49.94596" lon="2.14063">
        <ele>14.2</ele>
        <time>2023-06-28T11:42:41Z</time>
      </trkpt>
      <trkpt lat="49.94596" lon="2.14063">
        <ele>14.2</ele>
        <time>2023-06-28T11:42:42Z</time>
      </trkpt>
      <trkpt lat="49.94596" lon="2.14063">
        <ele>14.2</ele>
        <time>2023-06-28T11:42:43Z</time>
      </trkpt>
      <trkpt lat="49.94596" lon="2.14063">
        <ele>14.2</ele>
        <time>2023-06-28T11:42:45Z</time>
      </trkpt>
      <trkpt lat="49.94596" lon="2.14063">
        <ele>14.2</ele>
        <time>2023-06-28T11:42:46Z</time>
      </trkpt>
      <trkpt lat="49.94596" lon="2.14063">
        <ele>14.2</ele>
        <time>2023-06-28T11:42:48Z</time>
      </trkpt>
      <trkpt lat="49.94596" lon="2.14062">
        <ele>14.2</ele>
        <time>2023-06-28T11:42:49Z</time>
      </trkpt>
      <trkpt lat="49.94595" lon="2.14062">
        <ele>14.2</ele>
        <time>2023-06-28T11:42:51Z</time>
      </trkpt>
      <trkpt lat="49.94595" lon="2.14062">
        <ele>14.2</ele>
        <time>2023-06-28T11:42:52Z</time>
      </trkpt>
      <trkpt lat="49.94595" lon="2.14062">
        <ele>14.2</ele>
        <time>2023-06-28T11:42:54Z</time>
      </trkpt>
      <trkpt lat="49.94595" lon="2.14062">
        <ele>14.2</ele>
        <time>2023-06-28T11:42:55Z</time>
      </trkpt>
      <trkpt lat="49.94595" lon="2.14062">
        <ele>14.2</ele>
        <time>2023-06-28T11:42:56Z</time>
      </trkpt>
      <trkpt lat="49.94595" lon="2.14062">
        <ele>14.2</ele>
        <time>2023-06-28T11:42:57Z</time>
      </trkpt>
      <trkpt lat="49.94595" lon="2.14061">
        <ele>14.2</ele>
        <time>2023-06-28T11:42:58Z</time>
      </trkpt>
      <trkpt lat="49.94595" lon="2.14061">
        <ele>14.2</ele>
        <time>2023-06-28T11:42:59Z</time>
      </trkpt>
      <trkpt lat="49.94594" lon="2.14061">
        <ele>14.2</ele>
        <time>2023-06-28T11:43:00Z</time>
      </trkpt>
      <trkpt lat="49.94594" lon="2.14061">
        <ele>14.2</ele>
        <time>2023-06-28T11:43:01Z</time>
      </trkpt>
      <trkpt lat="49.94594" lon="2.14061">
        <ele>14.2</ele>
        <time>2023-06-28T11:43:02Z</time>
      </trkpt>
      <trkpt lat="49.94594" lon="2.14061">
        <ele>14.1</ele>
        <time>2023-06-28T11:43:03Z</time>
      </trkpt>
      <trkpt lat="49.94594" lon="2.14061">
        <ele>14.1</ele>
        <time>2023-06-28T11:43:04Z</time>
      </trkpt>
      <trkpt lat="49.94594" lon="2.14061">
        <ele>14.1</ele>
        <time>2023-06-28T11:43:05Z</time>
      </trkpt>
      <trkpt lat="49.94594" lon="2.1406">
        <ele>14.1</ele>
        <time>2023-06-28T11:43:06Z</time>
      </trkpt>
      <trkpt lat="49.94594" lon="2.1406">
        <ele>14.1</ele>
        <time>2023-06-28T11:43:07Z</time>
      </trkpt>
      <trkpt lat="49.94594" lon="2.1406">
        <ele>14.1</ele>
        <time>2023-06-28T11:43:08Z</time>
      </trkpt>
      <trkpt lat="49.94593" lon="2.1406">
        <ele>14.1</ele>
        <time>2023-06-28T11:43:09Z</time>
      </trkpt>
      <trkpt lat="49.94593" lon="2.1406">
        <ele>14.1</ele>
        <time>2023-06-28T11:43:10Z</time>
      </trkpt>
      <trkpt lat="49.94593" lon="2.1406">
        <ele>14.1</ele>
        <time>2023-06-28T11:43:11Z</time>
      </trkpt>
      <trkpt lat="49.94593" lon="2.14059">
        <ele>14.1</ele>
        <time>2023-06-28T11:43:12Z</time>
      </trkpt>
      <trkpt lat="49.94593" lon="2.14059">
        <ele>14.1</ele>
        <time>2023-06-28T11:43:13Z</time>
      </trkpt>
      <trkpt lat="49.94593" lon="2.14059">
        <ele>14.1</ele>
        <time>2023-06-28T11:43:14Z</time>
      </trkpt>
      <trkpt lat="49.94593" lon="2.14059">
        <ele>14.1</ele>
        <time>2023-06-28T11:43:15Z</time>
      </trkpt>
      <trkpt lat="49.94593" lon="2.14059">
        <ele>14.1</ele>
        <time>2023-06-28T11:43:16Z</time>
      </trkpt>
      <trkpt lat="49.94593" lon="2.14059">
        <ele>14.1</ele>
        <time>2023-06-28T11:43:17Z</time>
      </trkpt>
      <trkpt lat="49.94592" lon="2.14059">
        <ele>14.1</ele>
        <time>2023-06-28T11:43:18Z</time>
      </trkpt>
      <trkpt lat="49.94592" lon="2.14059">
        <ele>14.1</ele>
        <time>2023-06-28T11:43:19Z</time>
      </trkpt>
      <trkpt lat="49.94592" lon="2.14059">
        <ele>14.1</ele>
        <time>2023-06-28T11:43:20Z</time>
      </trkpt>
      <trkpt lat="49.94592" lon="2.14059">
        <ele>14.1</ele>
        <time>2023-06-28T11:43:21Z</time>
      </trkpt>
      <trkpt lat="49.94592" lon="2.14059">
        <ele>14.1</ele>
        <time>2023-06-28T11:43:22Z</time>
      </trkpt>
      <trkpt lat="49.94592" lon="2.14059">
        <ele>14.1</ele>
        <time>2023-06-28T11:43:23Z</time>
      </trkpt>
      <trkpt lat="49.94592" lon="2.14059">
        <ele>14.1</ele>
        <time>2023-06-28T11:43:24Z</time>
      </trkpt>
      <trkpt lat="49.94592" lon="2.14059">
        <ele>14.1</ele>
        <time>2023-06-28T11:43:25Z</time>
      </trkpt>
      <trkpt lat="49.94592" lon="2.14059">
        <ele>14.1</ele>
        <time>2023-06-28T11:43:26Z</time>
      </trkpt>
      <trkpt lat="49.94592" lon="2.14059">
        <ele>14.1</ele>
        <time>2023-06-28T11:43:27Z</time>
      </trkpt>
      <trkpt lat="49.94592" lon="2.14059">
        <ele>14.1</ele>
        <time>2023-06-28T11:43:28Z</time>
      </trkpt>
      <trkpt lat="49.94592" lon="2.14059">
        <ele>14.1</ele>
        <time>2023-06-28T11:43:29Z</time>
      </trkpt>
      <trkpt lat="49.94592" lon="2.14059">
        <ele>14.1</ele>
        <time>2023-06-28T11:43:30Z</time>
      </trkpt>
      <trkpt lat="49.94592" lon="2.14059">
        <ele>14.1</ele>
        <time>2023-06-28T11:43:31Z</time>
      </trkpt>
      <trkpt lat="49.94592" lon="2.14059">
        <ele>14.1</ele>
        <time>2023-06-28T11:43:32Z</time>
      </trkpt>
      <trkpt lat="49.94592" lon="2.14059">
        <ele>14.1</ele>
        <time>2023-06-28T11:43:33Z</time>
      </trkpt>
      <trkpt lat="49.94592" lon="2.14059">
        <ele>14.1</ele>
        <time>2023-06-28T11:43:34Z</time>
      </trkpt>
      <trkpt lat="49.94592" lon="2.14059">
        <ele>14.1</ele>
        <time>2023-06-28T11:43:35Z</time>
      </trkpt>
      <trkpt lat="49.94592" lon="2.14059">
        <ele>14.1</ele>
        <time>2023-06-28T11:43:36Z</time>
      </trkpt>
      <trkpt lat="49.94592" lon="2.14059">
        <ele>14.1</ele>
        <time>2023-06-28T11:43:37Z</time>
      </trkpt>
      <trkpt lat="49.94592" lon="2.14059">
        <ele>14.1</ele>
        <time>2023-06-28T11:43:38Z</time>
      </trkpt>
      <trkpt lat="49.94592" lon="2.14059">
        <ele>14.1</ele>
        <time>2023-06-28T11:43:39Z</time>
      </trkpt>
      <trkpt lat="49.94592" lon="2.14059">
        <ele>14.1</ele>
        <time>2023-06-28T11:43:40Z</time>
      </trkpt>
      <trkpt lat="49.94592" lon="2.14059">
        <ele>14.1</ele>
        <time>2023-06-28T11:43:41Z</time>
      </trkpt>
      <trkpt lat="49.94592" lon="2.14059">
        <ele>14.1</ele>
        <time>2023-06-28T11:43:42Z</time>
      </trkpt>
      <trkpt lat="49.94592" lon="2.14059">
        <ele>14.1</ele>
        <time>2023-06-28T11:43:43Z</time>
      </trkpt>
      <trkpt lat="49.94592" lon="2.14059">
        <ele>14.1</ele>
        <time>2023-06-28T11:43:44Z</time>
      </trkpt>
      <trkpt lat="49.94592" lon="2.14059">
        <ele>14.1</ele>
        <time>2023-06-28T11:43:45Z</time>
      </trkpt>
      <trkpt lat="49.94592" lon="2.14059">
        <ele>14.1</ele>
        <time>2023-06-28T11:43:46Z</time>
      </trkpt>
      <trkpt lat="49.94592" lon="2.14059">
        <ele>14.1</ele>
        <time>2023-06-28T11:43:47Z</time>
      </trkpt>
      <trkpt lat="49.94592" lon="2.14059">
        <ele>14.1</ele>
        <time>2023-06-28T11:43:48Z</time>
      </trkpt>
      <trkpt lat="49.94592" lon="2.14059">
        <ele>14.1</ele>
        <time>2023-06-28T11:43:49Z</time>
      </trkpt>
      <trkpt lat="49.94592" lon="2.14059">
        <ele>14.1</ele>
        <time>2023-06-28T11:43:50Z</time>
      </trkpt>
      <trkpt lat="49.94592" lon="2.14059">
        <ele>14.1</ele>
        <time>2023-06-28T11:43:51Z</time>
      </trkpt>
      <trkpt lat="49.94592" lon="2.14059">
        <ele>14.1</ele>
        <time>2023-06-28T11:43:52Z</time>
      </trkpt>
      <trkpt lat="49.94592" lon="2.14059">
        <ele>14.1</ele>
        <time>2023-06-28T11:43:53Z</time>
      </trkpt>
      <trkpt lat="49.94592" lon="2.14059">
        <ele>14.1</ele>
        <time>2023-06-28T11:43:54Z</time>
      </trkpt>
      <trkpt lat="49.94592" lon="2.14059">
        <ele>14.1</ele>
        <time>2023-06-28T11:43:55Z</time>
      </trkpt>
      <trkpt lat="49.94592" lon="2.14059">
        <ele>14.1</ele>
        <time>2023-06-28T11:43:56Z</time>
      </trkpt>
      <trkpt lat="49.94592" lon="2.14059">
        <ele>14.1</ele>
        <time>2023-06-28T11:43:57Z</time>
      </trkpt>
      <trkpt lat="49.94592" lon="2.14059">
        <ele>14.1</ele>
        <time>2023-06-28T11:43:58Z</time>
      </trkpt>
      <trkpt lat="49.94592" lon="2.14059">
        <ele>14.1</ele>
        <time>2023-06-28T11:43:59Z</time>
      </trkpt>
      <trkpt lat="49.94592" lon="2.14059">
        <ele>14.1</ele>
        <time>2023-06-28T11:44:00Z</time>
      </trkpt>
      <trkpt lat="49.94592" lon="2.14059">
        <ele>14.1</ele>
        <time>2023-06-28T11:44:01Z</time>
      </trkpt>
      <trkpt lat="49.94592" lon="2.14059">
        <ele>14.1</ele>
        <time>2023-06-28T11:44:02Z</time>
      </trkpt>
      <trkpt lat="49.94592" lon="2.14059">
        <ele>14.1</ele>
        <time>2023-06-28T11:44:03Z</time>
      </trkpt>
      <trkpt lat="49.94592" lon="2.14059">
        <ele>14.1</ele>
        <time>2023-06-28T11:44:04Z</time>
      </trkpt>
      <trkpt lat="49.94592" lon="2.14059">
        <ele>14.1</ele>
        <time>2023-06-28T11:44:05Z</time>
      </trkpt>
      <trkpt lat="49.94592" lon="2.14059">
        <ele>14.1</ele>
        <time>2023-06-28T11:44:06Z</time>
      </trkpt>
      <trkpt lat="49.94592" lon="2.14059">
        <ele>14.1</ele>
        <time>2023-06-28T11:44:07Z</time>
      </trkpt>
      <trkpt lat="49.94592" lon="2.14059">
        <ele>14.1</ele>
        <time>2023-06-28T11:44:08Z</time>
      </trkpt>
      <trkpt lat="49.94592" lon="2.14059">
        <ele>14.1</ele>
        <time>2023-06-28T11:44:09Z</time>
      </trkpt>
      <trkpt lat="49.94592" lon="2.14059">
        <ele>14.1</ele>
        <time>2023-06-28T11:44:10Z</time>
      </trkpt>
      <trkpt lat="49.94592" lon="2.14059">
        <ele>14.1</ele>
        <time>2023-06-28T11:44:11Z</time>
      </trkpt>
      <trkpt lat="49.94592" lon="2.14059">
        <ele>14.1</ele>
        <time>2023-06-28T11:44:12Z</time>
      </trkpt>
      <trkpt lat="49.94592" lon="2.14059">
        <ele>14.1</ele>
        <time>2023-06-28T11:44:13Z</time>
      </trkpt>
      <trkpt lat="49.94592" lon="2.14059">
        <ele>14.1</ele>
        <time>2023-06-28T11:44:14Z</time>
      </trkpt>
      <trkpt lat="49.94592" lon="2.14059">
        <ele>14.1</ele>
        <time>2023-06-28T11:44:15Z</time>
      </trkpt>
      <trkpt lat="49.94592" lon="2.14059">
        <ele>14.1</ele>
        <time>2023-06-28T11:44:16Z</time>
      </trkpt>
      <trkpt lat="49.94592" lon="2.14059">
        <ele>14.1</ele>
        <time>2023-06-28T11:44:17Z</time>
      </trkpt>
      <trkpt lat="49.94592" lon="2.14059">
        <ele>14.1</ele>
        <time>2023-06-28T11:44:18Z</time>
      </trkpt>
      <trkpt lat="49.94592" lon="2.14059">
        <ele>14.1</ele>
        <time>2023-06-28T11:44:19Z</time>
      </trkpt>
      <trkpt lat="49.94592" lon="2.14059">
        <ele>14.1</ele>
        <time>2023-06-28T11:44:20Z</time>
      </trkpt>
      <trkpt lat="49.94592" lon="2.14059">
        <ele>14.1</ele>
        <time>2023-06-28T11:44:21Z</time>
      </trkpt>
      <trkpt lat="49.94592" lon="2.14059">
        <ele>14.1</ele>
        <time>2023-06-28T11:44:22Z</time>
      </trkpt>
      <trkpt lat="49.94592" lon="2.14059">
        <ele>14.1</ele>
        <time>2023-06-28T11:44:23Z</time>
      </trkpt>
      <trkpt lat="49.94592" lon="2.14059">
        <ele>14.1</ele>
        <time>2023-06-28T11:44:24Z</time>
      </trkpt>
      <trkpt lat="49.94592" lon="2.14059">
        <ele>14.1</ele>
        <time>2023-06-28T11:44:25Z</time>
      </trkpt>
      <trkpt lat="49.94592" lon="2.14059">
        <ele>14.1</ele>
        <time>2023-06-28T11:44:26Z</time>
      </trkpt>
      <trkpt lat="49.94592" lon="2.14059">
        <ele>14.1</ele>
        <time>2023-06-28T11:44:27Z</time>
      </trkpt>
      <trkpt lat="49.94592" lon="2.14059">
        <ele>14.1</ele>
        <time>2023-06-28T11:44:28Z</time>
      </trkpt>
      <trkpt lat="49.94592" lon="2.14059">
        <ele>14.1</ele>
        <time>2023-06-28T11:44:29Z</time>
      </trkpt>
      <trkpt lat="49.94592" lon="2.14059">
        <ele>14.1</ele>
        <time>2023-06-28T11:44:30Z</time>
      </trkpt>
      <trkpt lat="49.94592" lon="2.14059">
        <ele>14.1</ele>
        <time>2023-06-28T11:44:31Z</time>
      </trkpt>
      <trkpt lat="49.94592" lon="2.14059">
        <ele>14.1</ele>
        <time>2023-06-28T11:44:32Z</time>
      </trkpt>
      <trkpt lat="49.94592" lon="2.14059">
        <ele>14.1</ele>
        <time>2023-06-28T11:44:33Z</time>
      </trkpt>
      <trkpt lat="49.94592" lon="2.14059">
        <ele>14.1</ele>
        <time>2023-06-28T11:44:34Z</time>
      </trkpt>
      <trkpt lat="49.94592" lon="2.14059">
        <ele>14.1</ele>
        <time>2023-06-28T11:44:35Z</time>
      </trkpt>
      <trkpt lat="49.94592" lon="2.14059">
        <ele>14.1</ele>
        <time>2023-06-28T11:44:36Z</time>
      </trkpt>
      <trkpt lat="49.94592" lon="2.14059">
        <ele>14.1</ele>
        <time>2023-06-28T11:44:37Z</time>
      </trkpt>
      <trkpt lat="49.94592" lon="2.14059">
        <ele>14.1</ele>
        <time>2023-06-28T11:44:38Z</time>
      </trkpt>
      <trkpt lat="49.94592" lon="2.14059">
        <ele>14.1</ele>
        <time>2023-06-28T11:44:39Z</time>
      </trkpt>
      <trkpt lat="49.94592" lon="2.14059">
        <ele>14.1</ele>
        <time>2023-06-28T11:44:40Z</time>
      </trkpt>
      <trkpt lat="49.94592" lon="2.14059">
        <ele>14.1</ele>
        <time>2023-06-28T11:44:41Z</time>
      </trkpt>
      <trkpt lat="49.94592" lon="2.14059">
        <ele>14.1</ele>
        <time>2023-06-28T11:44:42Z</time>
      </trkpt>
      <trkpt lat="49.94592" lon="2.14059">
        <ele>14.1</ele>
        <time>2023-06-28T11:44:43Z</time>
      </trkpt>
      <trkpt lat="49.94592" lon="2.14059">
        <ele>14.1</ele>
        <time>2023-06-28T11:44:44Z</time>
      </trkpt>
      <trkpt lat="49.94592" lon="2.14059">
        <ele>14.1</ele>
        <time>2023-06-28T11:44:45Z</time>
      </trkpt>
      <trkpt lat="49.94592" lon="2.14059">
        <ele>14.1</ele>
        <time>2023-06-28T11:44:46Z</time>
      </trkpt>
      <trkpt lat="49.94592" lon="2.14059">
        <ele>14.1</ele>
        <time>2023-06-28T11:44:47Z</time>
      </trkpt>
      <trkpt lat="49.94592" lon="2.14059">
        <ele>14.1</ele>
        <time>2023-06-28T11:44:48Z</time>
      </trkpt>
      <trkpt lat="49.94592" lon="2.14059">
        <ele>14.1</ele>
        <time>2023-06-28T11:44:49Z</time>
      </trkpt>
      <trkpt lat="49.94592" lon="2.14059">
        <ele>14.1</ele>
        <time>2023-06-28T11:44:50Z</time>
      </trkpt>
      <trkpt lat="49.94592" lon="2.14059">
        <ele>14.1</ele>
        <time>2023-06-28T11:44:51Z</time>
      </trkpt>
      <trkpt lat="49.94592" lon="2.14059">
        <ele>14.1</ele>
        <time>2023-06-28T11:44:52Z</time>
      </trkpt>
      <trkpt lat="49.94592" lon="2.14059">
        <ele>14.1</ele>
        <time>2023-06-28T11:44:53Z</time>
      </trkpt>
      <trkpt lat="49.94592" lon="2.14059">
        <ele>14.1</ele>
        <time>2023-06-28T11:44:54Z</time>
      </trkpt>
      <trkpt lat="49.94592" lon="2.14059">
        <ele>14.1</ele>
        <time>2023-06-28T11:44:55Z</time>
      </trkpt>
      <trkpt lat="49.94592" lon="2.14059">
        <ele>14.1</ele>
        <time>2023-06-28T11:44:56Z</time>
      </trkpt>
      <trkpt lat="49.94592" lon="2.14059">
        <ele>14.1</ele>
        <time>2023-06-28T11:44:57Z</time>
      </trkpt>
      <trkpt lat="49.94592" lon="2.14059">
        <ele>14.1</ele>
        <time>2023-06-28T11:44:58Z</time>
      </trkpt>
      <trkpt lat="49.94592" lon="2.14059">
        <ele>14.1</ele>
        <time>2023-06-28T11:44:59Z</time>
      </trkpt>
      <trkpt lat="49.94592" lon="2.14059">
        <ele>14.1</ele>
        <time>2023-06-28T11:45:00Z</time>
      </trkpt>
      <trkpt lat="49.94592" lon="2.14059">
        <ele>14.1</ele>
        <time>2023-06-28T11:45:01Z</time>
      </trkpt>
      <trkpt lat="49.94592" lon="2.14059">
        <ele>14.1</ele>
        <time>2023-06-28T11:45:02Z</time>
      </trkpt>
      <trkpt lat="49.94592" lon="2.14059">
        <ele>14.1</ele>
        <time>2023-06-28T11:45:03Z</time>
      </trkpt>
      <trkpt lat="49.94592" lon="2.14059">
        <ele>14.1</ele>
        <time>2023-06-28T11:45:04Z</time>
      </trkpt>
      <trkpt lat="49.94592" lon="2.14059">
        <ele>14.1</ele>
        <time>2023-06-28T11:45:05Z</time>
      </trkpt>
      <trkpt lat="49.94592" lon="2.14059">
        <ele>14.1</ele>
        <time>2023-06-28T11:45:06Z</time>
      </trkpt>
      <trkpt lat="49.94592" lon="2.14059">
        <ele>14.1</ele>
        <time>2023-06-28T11:45:07Z</time>
      </trkpt>
      <trkpt lat="49.94592" lon="2.14059">
        <ele>14.1</ele>
        <time>2023-06-28T11:45:08Z</time>
      </trkpt>
      <trkpt lat="49.94592" lon="2.14059">
        <ele>14.1</ele>
        <time>2023-06-28T11:45:09Z</time>
      </trkpt>
      <trkpt lat="49.94592" lon="2.14059">
        <ele>14.1</ele>
        <time>2023-06-28T11:45:10Z</time>
      </trkpt>
      <trkpt lat="49.94592" lon="2.14059">
        <ele>14.1</ele>
        <time>2023-06-28T11:45:11Z</time>
      </trkpt>
      <trkpt lat="49.94592" lon="2.14059">
        <ele>14.1</ele>
        <time>2023-06-28T11:45:12Z</time>
      </trkpt>
      <trkpt lat="49.94592" lon="2.14059">
        <ele>14.1</ele>
        <time>2023-06-28T11:45:13Z</time>
      </trkpt>
      <trkpt lat="49.94592" lon="2.14059">
        <ele>14.1</ele>
        <time>2023-06-28T11:45:14Z</time>
      </trkpt>
      <trkpt lat="49.94592" lon="2.14059">
        <ele>14.1</ele>
        <time>2023-06-28T11:45:15Z</time>
      </trkpt>
      <trkpt lat="49.94592" lon="2.14059">
        <ele>14.1</ele>
        <time>2023-06-28T11:45:16Z</time>
      </trkpt>
      <trkpt lat="49.94592" lon="2.14059">
        <ele>14.1</ele>
        <time>2023-06-28T11:45:17Z</time>
      </trkpt>
      <trkpt lat="49.94592" lon="2.14059">
        <ele>14.1</ele>
        <time>2023-06-28T11:45:18Z</time>
      </trkpt>
      <trkpt lat="49.94592" lon="2.14059">
        <ele>14.1</ele>
        <time>2023-06-28T11:45:19Z</time>
      </trkpt>
      <trkpt lat="49.94592" lon="2.14059">
        <ele>14.1</ele>
        <time>2023-06-28T11:45:20Z</time>
      </trkpt>
      <trkpt lat="49.94592" lon="2.14059">
        <ele>14.1</ele>
        <time>2023-06-28T11:45:21Z</time>
      </trkpt>
      <trkpt lat="49.94592" lon="2.14059">
        <ele>14.1</ele>
        <time>2023-06-28T11:45:22Z</time>
      </trkpt>
      <trkpt lat="49.94592" lon="2.14059">
        <ele>14.1</ele>
        <time>2023-06-28T11:45:23Z</time>
      </trkpt>
      <trkpt lat="49.94592" lon="2.14059">
        <ele>14.1</ele>
        <time>2023-06-28T11:45:24Z</time>
      </trkpt>
      <trkpt lat="49.94592" lon="2.14059">
        <ele>14.1</ele>
        <time>2023-06-28T11:45:25Z</time>
      </trkpt>
      <trkpt lat="49.94592" lon="2.14059">
        <ele>14.1</ele>
        <time>2023-06-28T11:45:26Z</time>
      </trkpt>
      <trkpt lat="49.94592" lon="2.14059">
        <ele>14.1</ele>
        <time>2023-06-28T11:45:27Z</time>
      </trkpt>
      <trkpt lat="49.94592" lon="2.14059">
        <ele>14.1</ele>
        <time>2023-06-28T11:45:28Z</time>
      </trkpt>
      <trkpt lat="49.94592" lon="2.14059">
        <ele>14.1</ele>
        <time>2023-06-28T11:45:29Z</time>
      </trkpt>
      <trkpt lat="49.94592" lon="2.14059">
        <ele>14.1</ele>
        <time>2023-06-28T11:45:30Z</time>
      </trkpt>
      <trkpt lat="49.94592" lon="2.14059">
        <ele>14.1</ele>
        <time>2023-06-28T11:45:31Z</time>
      </trkpt>
      <trkpt lat="49.94592" lon="2.14059">
        <ele>14.1</ele>
        <time>2023-06-28T11:45:32Z</time>
      </trkpt>
      <trkpt lat="49.94592" lon="2.14059">
        <ele>14.1</ele>
        <time>2023-06-28T11:45:33Z</time>
      </trkpt>
      <trkpt lat="49.94592" lon="2.14059">
        <ele>14.1</ele>
        <time>2023-06-28T11:45:34Z</time>
      </trkpt>
      <trkpt lat="49.94592" lon="2.14059">
        <ele>14.1</ele>
        <time>2023-06-28T11:45:35Z</time>
      </trkpt>
      <trkpt lat="49.94592" lon="2.14059">
        <ele>14.1</ele>
        <time>2023-06-28T11:45:36Z</time>
      </trkpt>
      <trkpt lat="49.94592" lon="2.14059">
        <ele>14.1</ele>
        <time>2023-06-28T11:45:37Z</time>
      </trkpt>
      <trkpt lat="49.94592" lon="2.14059">
        <ele>14.1</ele>
        <time>2023-06-28T11:45:38Z</time>
      </trkpt>
      <trkpt lat="49.94592" lon="2.14059">
        <ele>14.1</ele>
        <time>2023-06-28T11:45:39Z</time>
      </trkpt>
      <trkpt lat="49.94592" lon="2.14059">
        <ele>14.1</ele>
        <time>2023-06-28T11:45:40Z</time>
      </trkpt>
      <trkpt lat="49.94592" lon="2.14059">
        <ele>14.1</ele>
        <time>2023-06-28T11:45:41Z</time>
      </trkpt>
      <trkpt lat="49.94592" lon="2.14059">
        <ele>14.1</ele>
        <time>2023-06-28T11:45:42Z</time>
      </trkpt>
      <trkpt lat="49.94592" lon="2.14059">
        <ele>14.1</ele>
        <time>2023-06-28T11:45:43Z</time>
      </trkpt>
      <trkpt lat="49.94592" lon="2.14059">
        <ele>14.1</ele>
        <time>2023-06-28T11:45:44Z</time>
      </trkpt>
      <trkpt lat="49.94592" lon="2.14059">
        <ele>14.1</ele>
        <time>2023-06-28T11:45:45Z</time>
      </trkpt>
      <trkpt lat="49.94592" lon="2.14059">
        <ele>14.1</ele>
        <time>2023-06-28T11:45:46Z</time>
      </trkpt>
      <trkpt lat="49.94592" lon="2.14059">
        <ele>14.1</ele>
        <time>2023-06-28T11:45:47Z</time>
      </trkpt>
      <trkpt lat="49.94592" lon="2.14059">
        <ele>14.1</ele>
        <time>2023-06-28T11:45:48Z</time>
      </trkpt>
      <trkpt lat="49.94592" lon="2.14059">
        <ele>14.1</ele>
        <time>2023-06-28T11:45:49Z</time>
      </trkpt>
      <trkpt lat="49.94592" lon="2.14059">
        <ele>14.1</ele>
        <time>2023-06-28T11:45:50Z</time>
      </trkpt>
      <trkpt lat="49.94592" lon="2.14059">
        <ele>14.1</ele>
        <time>2023-06-28T11:45:51Z</time>
      </trkpt>
      <trkpt lat="49.94592" lon="2.14059">
        <ele>14.1</ele>
        <time>2023-06-28T11:45:52Z</time>
      </trkpt>
      <trkpt lat="49.94592" lon="2.14059">
        <ele>14.1</ele>
        <time>2023-06-28T11:45:53Z</time>
      </trkpt>
      <trkpt lat="49.94592" lon="2.14059">
        <ele>14.1</ele>
        <time>2023-06-28T11:45:54Z</time>
      </trkpt>
      <trkpt lat="49.94592" lon="2.14059">
        <ele>14.1</ele>
        <time>2023-06-28T11:45:55Z</time>
      </trkpt>
      <trkpt lat="49.94592" lon="2.14059">
        <ele>14.1</ele>
        <time>2023-06-28T11:45:56Z</time>
      </trkpt>
      <trkpt lat="49.94592" lon="2.14059">
        <ele>14.1</ele>
        <time>2023-06-28T11:45:57Z</time>
      </trkpt>
      <trkpt lat="49.94593" lon="2.14059">
        <ele>14.1</ele>
        <time>2023-06-28T11:45:59Z</time>
      </trkpt>
      <trkpt lat="49.94593" lon="2.14061">
        <ele>14.1</ele>
        <time>2023-06-28T11:46:00Z</time>
      </trkpt>
      <trkpt lat="49.94593" lon="2.14063">
        <ele>14.1</ele>
        <time>2023-06-28T11:46:02Z</time>
      </trkpt>
      <trkpt lat="49.94593" lon="2.14064">
        <ele>14</ele>
        <time>2023-06-28T11:46:03Z</time>
      </trkpt>
      <trkpt lat="49.94593" lon="2.14065">
        <ele>14</ele>
        <time>2023-06-28T11:46:05Z</time>
      </trkpt>
      <trkpt lat="49.94593" lon="2.14066">
        <ele>14</ele>
        <time>2023-06-28T11:46:06Z</time>
      </trkpt>
      <trkpt lat="49.94593" lon="2.14067">
        <ele>14</ele>
        <time>2023-06-28T11:46:08Z</time>
      </trkpt>
      <trkpt lat="49.94593" lon="2.14067">
        <ele>14</ele>
        <time>2023-06-28T11:46:09Z</time>
      </trkpt>
      <trkpt lat="49.94593" lon="2.14067">
        <ele>14</ele>
        <time>2023-06-28T11:46:10Z</time>
      </trkpt>
      <trkpt lat="49.94593" lon="2.14068">
        <ele>14</ele>
        <time>2023-06-28T11:46:12Z</time>
      </trkpt>
      <trkpt lat="49.94593" lon="2.14068">
        <ele>14</ele>
        <time>2023-06-28T11:46:13Z</time>
      </trkpt>
      <trkpt lat="49.94593" lon="2.14069">
        <ele>14</ele>
        <time>2023-06-28T11:46:14Z</time>
      </trkpt>
      <trkpt lat="49.94593" lon="2.14069">
        <ele>14</ele>
        <time>2023-06-28T11:46:15Z</time>
      </trkpt>
      <trkpt lat="49.94593" lon="2.14069">
        <ele>14</ele>
        <time>2023-06-28T11:46:16Z</time>
      </trkpt>
      <trkpt lat="49.94593" lon="2.14069">
        <ele>14</ele>
        <time>2023-06-28T11:46:17Z</time>
      </trkpt>
      <trkpt lat="49.94593" lon="2.14069">
        <ele>14</ele>
        <time>2023-06-28T11:46:18Z</time>
      </trkpt>
      <trkpt lat="49.94593" lon="2.14069">
        <ele>14</ele>
        <time>2023-06-28T11:46:19Z</time>
      </trkpt>
      <trkpt lat="49.94593" lon="2.14069">
        <ele>14</ele>
        <time>2023-06-28T11:46:20Z</time>
      </trkpt>
      <trkpt lat="49.94593" lon="2.14069">
        <ele>14</ele>
        <time>2023-06-28T11:46:21Z</time>
      </trkpt>
      <trkpt lat="49.94593" lon="2.14069">
        <ele>14</ele>
        <time>2023-06-28T11:46:22Z</time>
      </trkpt>
      <trkpt lat="49.94593" lon="2.14069">
        <ele>14</ele>
        <time>2023-06-28T11:46:23Z</time>
      </trkpt>
      <trkpt lat="49.94593" lon="2.14069">
        <ele>14</ele>
        <time>2023-06-28T11:46:24Z</time>
      </trkpt>
      <trkpt lat="49.94593" lon="2.14069">
        <ele>14</ele>
        <time>2023-06-28T11:46:25Z</time>
      </trkpt>
      <trkpt lat="49.94593" lon="2.14069">
        <ele>14</ele>
        <time>2023-06-28T11:46:26Z</time>
      </trkpt>
      <trkpt lat="49.94593" lon="2.14069">
        <ele>14</ele>
        <time>2023-06-28T11:46:27Z</time>
      </trkpt>
      <trkpt lat="49.94593" lon="2.14069">
        <ele>14</ele>
        <time>2023-06-28T11:46:28Z</time>
      </trkpt>
      <trkpt lat="49.94593" lon="2.14069">
        <ele>14</ele>
        <time>2023-06-28T11:46:29Z</time>
      </trkpt>
      <trkpt lat="49.94593" lon="2.14069">
        <ele>14</ele>
        <time>2023-06-28T11:46:30Z</time>
      </trkpt>
      <trkpt lat="49.94593" lon="2.14069">
        <ele>14</ele>
        <time>2023-06-28T11:46:31Z</time>
      </trkpt>
      <trkpt lat="49.94593" lon="2.14069">
        <ele>14</ele>
        <time>2023-06-28T11:46:32Z</time>
      </trkpt>
      <trkpt lat="49.94593" lon="2.14069">
        <ele>14</ele>
        <time>2023-06-28T11:46:33Z</time>
      </trkpt>
      <trkpt lat="49.94593" lon="2.14069">
        <ele>14</ele>
        <time>2023-06-28T11:46:34Z</time>
      </trkpt>
      <trkpt lat="49.94593" lon="2.14069">
        <ele>14</ele>
        <time>2023-06-28T11:46:35Z</time>
      </trkpt>
      <trkpt lat="49.94593" lon="2.14069">
        <ele>14</ele>
        <time>2023-06-28T11:46:36Z</time>
      </trkpt>
      <trkpt lat="49.94593" lon="2.14069">
        <ele>14</ele>
        <time>2023-06-28T11:46:37Z</time>
      </trkpt>
      <trkpt lat="49.94593" lon="2.14069">
        <ele>14</ele>
        <time>2023-06-28T11:46:38Z</time>
      </trkpt>
      <trkpt lat="49.94593" lon="2.14069">
        <ele>14</ele>
        <time>2023-06-28T11:46:39Z</time>
      </trkpt>
      <trkpt lat="49.94593" lon="2.14069">
        <ele>14</ele>
        <time>2023-06-28T11:46:40Z</time>
      </trkpt>
      <trkpt lat="49.94593" lon="2.14069">
        <ele>14</ele>
        <time>2023-06-28T11:46:41Z</time>
      </trkpt>
      <trkpt lat="49.94593" lon="2.14069">
        <ele>14</ele>
        <time>2023-06-28T11:46:42Z</time>
      </trkpt>
      <trkpt lat="49.94593" lon="2.14069">
        <ele>14</ele>
        <time>2023-06-28T11:46:43Z</time>
      </trkpt>
      <trkpt lat="49.94593" lon="2.14069">
        <ele>14</ele>
        <time>2023-06-28T11:46:44Z</time>
      </trkpt>
      <trkpt lat="49.94593" lon="2.14069">
        <ele>14</ele>
        <time>2023-06-28T11:46:45Z</time>
      </trkpt>
      <trkpt lat="49.94593" lon="2.14069">
        <ele>14</ele>
        <time>2023-06-28T11:46:46Z</time>
      </trkpt>
      <trkpt lat="49.94593" lon="2.14069">
        <ele>14</ele>
        <time>2023-06-28T11:46:47Z</time>
      </trkpt>
      <trkpt lat="49.94593" lon="2.14069">
        <ele>14</ele>
        <time>2023-06-28T11:46:48Z</time>
      </trkpt>
      <trkpt lat="49.94593" lon="2.14069">
        <ele>14</ele>
        <time>2023-06-28T11:46:49Z</time>
      </trkpt>
      <trkpt lat="49.94593" lon="2.14069">
        <ele>14</ele>
        <time>2023-06-28T11:46:50Z</time>
      </trkpt>
      <trkpt lat="49.94593" lon="2.14069">
        <ele>14</ele>
        <time>2023-06-28T11:46:51Z</time>
      </trkpt>
      <trkpt lat="49.94593" lon="2.14069">
        <ele>14</ele>
        <time>2023-06-28T11:46:52Z</time>
      </trkpt>
      <trkpt lat="49.94593" lon="2.14069">
        <ele>14</ele>
        <time>2023-06-28T11:46:53Z</time>
      </trkpt>
      <trkpt lat="49.94593" lon="2.14069">
        <ele>14</ele>
        <time>2023-06-28T11:46:54Z</time>
      </trkpt>
      <trkpt lat="49.94593" lon="2.14069">
        <ele>14</ele>
        <time>2023-06-28T11:46:55Z</time>
      </trkpt>
      <trkpt lat="49.94593" lon="2.14069">
        <ele>14</ele>
        <time>2023-06-28T11:46:56Z</time>
      </trkpt>
      <trkpt lat="49.94593" lon="2.14069">
        <ele>14</ele>
        <time>2023-06-28T11:46:57Z</time>
      </trkpt>
      <trkpt lat="49.94593" lon="2.14069">
        <ele>14</ele>
        <time>2023-06-28T11:46:58Z</time>
      </trkpt>
      <trkpt lat="49.94593" lon="2.14069">
        <ele>14</ele>
        <time>2023-06-28T11:46:59Z</time>
      </trkpt>
      <trkpt lat="49.94593" lon="2.14069">
        <ele>14</ele>
        <time>2023-06-28T11:47:00Z</time>
      </trkpt>
      <trkpt lat="49.94593" lon="2.14069">
        <ele>14</ele>
        <time>2023-06-28T11:47:01Z</time>
      </trkpt>
      <trkpt lat="49.94593" lon="2.14069">
        <ele>14</ele>
        <time>2023-06-28T11:47:02Z</time>
      </trkpt>
      <trkpt lat="49.94593" lon="2.14069">
        <ele>14</ele>
        <time>2023-06-28T11:47:03Z</time>
      </trkpt>
      <trkpt lat="49.94593" lon="2.14069">
        <ele>14</ele>
        <time>2023-06-28T11:47:04Z</time>
      </trkpt>
      <trkpt lat="49.94593" lon="2.14069">
        <ele>14</ele>
        <time>2023-06-28T11:47:05Z</time>
      </trkpt>
      <trkpt lat="49.94593" lon="2.14069">
        <ele>14</ele>
        <time>2023-06-28T11:47:06Z</time>
      </trkpt>
      <trkpt lat="49.94593" lon="2.14069">
        <ele>14</ele>
        <time>2023-06-28T11:47:07Z</time>
      </trkpt>
      <trkpt lat="49.94593" lon="2.14069">
        <ele>14</ele>
        <time>2023-06-28T11:47:08Z</time>
      </trkpt>
      <trkpt lat="49.94593" lon="2.14069">
        <ele>14</ele>
        <time>2023-06-28T11:47:09Z</time>
      </trkpt>
      <trkpt lat="49.94593" lon="2.14069">
        <ele>14</ele>
        <time>2023-06-28T11:47:10Z</time>
      </trkpt>
      <trkpt lat="49.94593" lon="2.14069">
        <ele>14</ele>
        <time>2023-06-28T11:47:11Z</time>
      </trkpt>
      <trkpt lat="49.94593" lon="2.14069">
        <ele>14</ele>
        <time>2023-06-28T11:47:12Z</time>
      </trkpt>
      <trkpt lat="49.94593" lon="2.14069">
        <ele>14</ele>
        <time>2023-06-28T11:47:13Z</time>
      </trkpt>
      <trkpt lat="49.94593" lon="2.14069">
        <ele>14</ele>
        <time>2023-06-28T11:47:14Z</time>
      </trkpt>
      <trkpt lat="49.94593" lon="2.14069">
        <ele>14</ele>
        <time>2023-06-28T11:47:15Z</time>
      </trkpt>
      <trkpt lat="49.94593" lon="2.14069">
        <ele>14</ele>
        <time>2023-06-28T11:47:16Z</time>
      </trkpt>
      <trkpt lat="49.94592" lon="2.14069">
        <ele>14</ele>
        <time>2023-06-28T11:47:18Z</time>
      </trkpt>
      <trkpt lat="49.94592" lon="2.14069">
        <ele>14</ele>
        <time>2023-06-28T11:47:19Z</time>
      </trkpt>
      <trkpt lat="49.94592" lon="2.14069">
        <ele>14</ele>
        <time>2023-06-28T11:47:21Z</time>
      </trkpt>
      <trkpt lat="49.94592" lon="2.14069">
        <ele>14</ele>
        <time>2023-06-28T11:47:22Z</time>
      </trkpt>
      <trkpt lat="49.94592" lon="2.14069">
        <ele>14</ele>
        <time>2023-06-28T11:47:23Z</time>
      </trkpt>
      <trkpt lat="49.94592" lon="2.14069">
        <ele>14</ele>
        <time>2023-06-28T11:47:25Z</time>
      </trkpt>
      <trkpt lat="49.94592" lon="2.14069">
        <ele>14</ele>
        <time>2023-06-28T11:47:26Z</time>
      </trkpt>
      <trkpt lat="49.94592" lon="2.14069">
        <ele>14</ele>
        <time>2023-06-28T11:47:28Z</time>
      </trkpt>
      <trkpt lat="49.94592" lon="2.14069">
        <ele>14</ele>
        <time>2023-06-28T11:47:29Z</time>
      </trkpt>
      <trkpt lat="49.94592" lon="2.14069">
        <ele>13.9</ele>
        <time>2023-06-28T11:47:31Z</time>
      </trkpt>
      <trkpt lat="49.94592" lon="2.14069">
        <ele>13.9</ele>
        <time>2023-06-28T11:47:32Z</time>
      </trkpt>
      <trkpt lat="49.94592" lon="2.14069">
        <ele>13.9</ele>
        <time>2023-06-28T11:47:34Z</time>
      </trkpt>
      <trkpt lat="49.94592" lon="2.14069">
        <ele>13.9</ele>
        <time>2023-06-28T11:47:35Z</time>
      </trkpt>
      <trkpt lat="49.94592" lon="2.14069">
        <ele>13.9</ele>
        <time>2023-06-28T11:47:36Z</time>
      </trkpt>
      <trkpt lat="49.94593" lon="2.14069">
        <ele>13.9</ele>
        <time>2023-06-28T11:47:38Z</time>
      </trkpt>
      <trkpt lat="49.94593" lon="2.14069">
        <ele>13.9</ele>
        <time>2023-06-28T11:47:39Z</time>
      </trkpt>
      <trkpt lat="49.94593" lon="2.14069">
        <ele>13.9</ele>
        <time>2023-06-28T11:47:40Z</time>
      </trkpt>
      <trkpt lat="49.94593" lon="2.14069">
        <ele>13.9</ele>
        <time>2023-06-28T11:47:41Z</time>
      </trkpt>
      <trkpt lat="49.94593" lon="2.14069">
        <ele>13.9</ele>
        <time>2023-06-28T11:47:42Z</time>
      </trkpt>
      <trkpt lat="49.94593" lon="2.14069">
        <ele>13.9</ele>
        <time>2023-06-28T11:47:43Z</time>
      </trkpt>
      <trkpt lat="49.94593" lon="2.14069">
        <ele>13.9</ele>
        <time>2023-06-28T11:47:44Z</time>
      </trkpt>
      <trkpt lat="49.94593" lon="2.14069">
        <ele>13.9</ele>
        <time>2023-06-28T11:47:45Z</time>
      </trkpt>
      <trkpt lat="49.94593" lon="2.14069">
        <ele>13.9</ele>
        <time>2023-06-28T11:47:46Z</time>
      </trkpt>
      <trkpt lat="49.94593" lon="2.14069">
        <ele>13.9</ele>
        <time>2023-06-28T11:47:47Z</time>
      </trkpt>
      <trkpt lat="49.94593" lon="2.14069">
        <ele>13.9</ele>
        <time>2023-06-28T11:47:48Z</time>
      </trkpt>
      <trkpt lat="49.94593" lon="2.14069">
        <ele>13.9</ele>
        <time>2023-06-28T11:47:49Z</time>
      </trkpt>
      <trkpt lat="49.94593" lon="2.14069">
        <ele>13.9</ele>
        <time>2023-06-28T11:47:50Z</time>
      </trkpt>
      <trkpt lat="49.94593" lon="2.14069">
        <ele>13.9</ele>
        <time>2023-06-28T11:47:51Z</time>
      </trkpt>
      <trkpt lat="49.94593" lon="2.14069">
        <ele>13.9</ele>
        <time>2023-06-28T11:47:52Z</time>
      </trkpt>
      <trkpt lat="49.94593" lon="2.14069">
        <ele>13.9</ele>
        <time>2023-06-28T11:47:53Z</time>
      </trkpt>
      <trkpt lat="49.94593" lon="2.14069">
        <ele>13.9</ele>
        <time>2023-06-28T11:47:54Z</time>
      </trkpt>
      <trkpt lat="49.94593" lon="2.14069">
        <ele>13.9</ele>
        <time>2023-06-28T11:47:55Z</time>
      </trkpt>
      <trkpt lat="49.94593" lon="2.14069">
        <ele>13.9</ele>
        <time>2023-06-28T11:47:56Z</time>
      </trkpt>
      <trkpt lat="49.94593" lon="2.14069">
        <ele>13.9</ele>
        <time>2023-06-28T11:47:57Z</time>
      </trkpt>
      <trkpt lat="49.94593" lon="2.14069">
        <ele>13.9</ele>
        <time>2023-06-28T11:47:58Z</time>
      </trkpt>
      <trkpt lat="49.94593" lon="2.14069">
        <ele>13.9</ele>
        <time>2023-06-28T11:47:59Z</time>
      </trkpt>
      <trkpt lat="49.94593" lon="2.14069">
        <ele>13.9</ele>
        <time>2023-06-28T11:48:00Z</time>
      </trkpt>
      <trkpt lat="49.94593" lon="2.14069">
        <ele>13.9</ele>
        <time>2023-06-28T11:48:01Z</time>
      </trkpt>
      <trkpt lat="49.94593" lon="2.14069">
        <ele>13.9</ele>
        <time>2023-06-28T11:48:02Z</time>
      </trkpt>
      <trkpt lat="49.94593" lon="2.14069">
        <ele>13.9</ele>
        <time>2023-06-28T11:48:03Z</time>
      </trkpt>
      <trkpt lat="49.94593" lon="2.14069">
        <ele>13.9</ele>
        <time>2023-06-28T11:48:04Z</time>
      </trkpt>
      <trkpt lat="49.94593" lon="2.14069">
        <ele>13.9</ele>
        <time>2023-06-28T11:48:05Z</time>
      </trkpt>
      <trkpt lat="49.94593" lon="2.14069">
        <ele>13.9</ele>
        <time>2023-06-28T11:48:06Z</time>
      </trkpt>
      <trkpt lat="49.94593" lon="2.14069">
        <ele>13.9</ele>
        <time>2023-06-28T11:48:07Z</time>
      </trkpt>
      <trkpt lat="49.94593" lon="2.14069">
        <ele>13.9</ele>
        <time>2023-06-28T11:48:08Z</time>
      </trkpt>
      <trkpt lat="49.94593" lon="2.14069">
        <ele>13.9</ele>
        <time>2023-06-28T11:48:09Z</time>
      </trkpt>
      <trkpt lat="49.94593" lon="2.14069">
        <ele>13.9</ele>
        <time>2023-06-28T11:48:10Z</time>
      </trkpt>
      <trkpt lat="49.94593" lon="2.14069">
        <ele>13.9</ele>
        <time>2023-06-28T11:48:11Z</time>
      </trkpt>
      <trkpt lat="49.94593" lon="2.14069">
        <ele>13.9</ele>
        <time>2023-06-28T11:48:12Z</time>
      </trkpt>
      <trkpt lat="49.94593" lon="2.14069">
        <ele>13.9</ele>
        <time>2023-06-28T11:48:13Z</time>
      </trkpt>
      <trkpt lat="49.94593" lon="2.14069">
        <ele>13.9</ele>
        <time>2023-06-28T11:48:14Z</time>
      </trkpt>
      <trkpt lat="49.94593" lon="2.14069">
        <ele>13.9</ele>
        <time>2023-06-28T11:48:15Z</time>
      </trkpt>
      <trkpt lat="49.94593" lon="2.14069">
        <ele>13.9</ele>
        <time>2023-06-28T11:48:16Z</time>
      </trkpt>
      <trkpt lat="49.94593" lon="2.14069">
        <ele>13.9</ele>
        <time>2023-06-28T11:48:17Z</time>
      </trkpt>
      <trkpt lat="49.94593" lon="2.14069">
        <ele>13.9</ele>
        <time>2023-06-28T11:48:18Z</time>
      </trkpt>
      <trkpt lat="49.94593" lon="2.14069">
        <ele>13.9</ele>
        <time>2023-06-28T11:48:19Z</time>
      </trkpt>
      <trkpt lat="49.94593" lon="2.14069">
        <ele>13.9</ele>
        <time>2023-06-28T11:48:20Z</time>
      </trkpt>
      <trkpt lat="49.94593" lon="2.14069">
        <ele>13.9</ele>
        <time>2023-06-28T11:48:21Z</time>
      </trkpt>
      <trkpt lat="49.94593" lon="2.14069">
        <ele>13.9</ele>
        <time>2023-06-28T11:48:22Z</time>
      </trkpt>
      <trkpt lat="49.94593" lon="2.14069">
        <ele>13.9</ele>
        <time>2023-06-28T11:48:23Z</time>
      </trkpt>
      <trkpt lat="49.94593" lon="2.14069">
        <ele>13.9</ele>
        <time>2023-06-28T11:48:24Z</time>
      </trkpt>
      <trkpt lat="49.94593" lon="2.14069">
        <ele>13.9</ele>
        <time>2023-06-28T11:48:25Z</time>
      </trkpt>
      <trkpt lat="49.94593" lon="2.14069">
        <ele>13.9</ele>
        <time>2023-06-28T11:48:26Z</time>
      </trkpt>
      <trkpt lat="49.94593" lon="2.14069">
        <ele>13.9</ele>
        <time>2023-06-28T11:48:27Z</time>
      </trkpt>
      <trkpt lat="49.94593" lon="2.14069">
        <ele>13.9</ele>
        <time>2023-06-28T11:48:28Z</time>
      </trkpt>
      <trkpt lat="49.94593" lon="2.14069">
        <ele>13.9</ele>
        <time>2023-06-28T11:48:29Z</time>
      </trkpt>
      <trkpt lat="49.94593" lon="2.14069">
        <ele>13.9</ele>
        <time>2023-06-28T11:48:30Z</time>
      </trkpt>
      <trkpt lat="49.94593" lon="2.14069">
        <ele>13.9</ele>
        <time>2023-06-28T11:48:31Z</time>
      </trkpt>
      <trkpt lat="49.94593" lon="2.14069">
        <ele>13.9</ele>
        <time>2023-06-28T11:48:32Z</time>
      </trkpt>
      <trkpt lat="49.94593" lon="2.14069">
        <ele>13.9</ele>
        <time>2023-06-28T11:48:33Z</time>
      </trkpt>
      <trkpt lat="49.94593" lon="2.14069">
        <ele>13.9</ele>
        <time>2023-06-28T11:48:34Z</time>
      </trkpt>
      <trkpt lat="49.94593" lon="2.14069">
        <ele>13.9</ele>
        <time>2023-06-28T11:48:35Z</time>
      </trkpt>
      <trkpt lat="49.94593" lon="2.14069">
        <ele>13.9</ele>
        <time>2023-06-28T11:48:36Z</time>
      </trkpt>
      <trkpt lat="49.94593" lon="2.14069">
        <ele>13.9</ele>
        <time>2023-06-28T11:48:37Z</time>
      </trkpt>
      <trkpt lat="49.94593" lon="2.14069">
        <ele>13.9</ele>
        <time>2023-06-28T11:48:38Z</time>
      </trkpt>
      <trkpt lat="49.94593" lon="2.14069">
        <ele>13.9</ele>
        <time>2023-06-28T11:48:39Z</time>
      </trkpt>
      <trkpt lat="49.94593" lon="2.14069">
        <ele>13.9</ele>
        <time>2023-06-28T11:48:40Z</time>
      </trkpt>
      <trkpt lat="49.94593" lon="2.14069">
        <ele>13.9</ele>
        <time>2023-06-28T11:48:41Z</time>
      </trkpt>
      <trkpt lat="49.94593" lon="2.14069">
        <ele>13.9</ele>
        <time>2023-06-28T11:48:42Z</time>
      </trkpt>
      <trkpt lat="49.94593" lon="2.14069">
        <ele>13.9</ele>
        <time>2023-06-28T11:48:43Z</time>
      </trkpt>
      <trkpt lat="49.94593" lon="2.14069">
        <ele>13.9</ele>
        <time>2023-06-28T11:48:44Z</time>
      </trkpt>
      <trkpt lat="49.94593" lon="2.14069">
        <ele>13.9</ele>
        <time>2023-06-28T11:48:45Z</time>
      </trkpt>
      <trkpt lat="49.94593" lon="2.14069">
        <ele>13.9</ele>
        <time>2023-06-28T11:48:46Z</time>
      </trkpt>
      <trkpt lat="49.94593" lon="2.14069">
        <ele>13.9</ele>
        <time>2023-06-28T11:48:47Z</time>
      </trkpt>
      <trkpt lat="49.94593" lon="2.14069">
        <ele>13.9</ele>
        <time>2023-06-28T11:48:48Z</time>
      </trkpt>
      <trkpt lat="49.94593" lon="2.14069">
        <ele>13.9</ele>
        <time>2023-06-28T11:48:49Z</time>
      </trkpt>
      <trkpt lat="49.94593" lon="2.14069">
        <ele>13.9</ele>
        <time>2023-06-28T11:48:50Z</time>
      </trkpt>
      <trkpt lat="49.94593" lon="2.14069">
        <ele>13.9</ele>
        <time>2023-06-28T11:48:51Z</time>
      </trkpt>
      <trkpt lat="49.94593" lon="2.14069">
        <ele>13.9</ele>
        <time>2023-06-28T11:48:52Z</time>
      </trkpt>
      <trkpt lat="49.94593" lon="2.14069">
        <ele>13.9</ele>
        <time>2023-06-28T11:48:53Z</time>
      </trkpt>
      <trkpt lat="49.94593" lon="2.14069">
        <ele>13.9</ele>
        <time>2023-06-28T11:48:54Z</time>
      </trkpt>
      <trkpt lat="49.94593" lon="2.14069">
        <ele>13.9</ele>
        <time>2023-06-28T11:48:55Z</time>
      </trkpt>
      <trkpt lat="49.94593" lon="2.14069">
        <ele>13.9</ele>
        <time>2023-06-28T11:48:56Z</time>
      </trkpt>
      <trkpt lat="49.94593" lon="2.14069">
        <ele>13.9</ele>
        <time>2023-06-28T11:48:57Z</time>
      </trkpt>
      <trkpt lat="49.94593" lon="2.14069">
        <ele>13.9</ele>
        <time>2023-06-28T11:48:58Z</time>
      </trkpt>
      <trkpt lat="49.94593" lon="2.14068">
        <ele>13.9</ele>
        <time>2023-06-28T11:48:59Z</time>
      </trkpt>
      <trkpt lat="49.94593" lon="2.14068">
        <ele>13.9</ele>
        <time>2023-06-28T11:49:01Z</time>
      </trkpt>
      <trkpt lat="49.94593" lon="2.14068">
        <ele>13.9</ele>
        <time>2023-06-28T11:49:02Z</time>
      </trkpt>
      <trkpt lat="49.94594" lon="2.14068">
        <ele>13.9</ele>
        <time>2023-06-28T11:49:03Z</time>
      </trkpt>
      <trkpt lat="49.94594" lon="2.14067">
        <ele>13.9</ele>
        <time>2023-06-28T11:49:04Z</time>
      </trkpt>
      <trkpt lat="49.94595" lon="2.14067">
        <ele>13.9</ele>
        <time>2023-06-28T11:49:05Z</time>
      </trkpt>
      <trkpt lat="49.94595" lon="2.14066">
        <ele>13.9</ele>
        <time>2023-06-28T11:49:06Z</time>
      </trkpt>
      <trkpt lat="49.94596" lon="2.14065">
        <ele>13.9</ele>
        <time>2023-06-28T11:49:07Z</time>
      </trkpt>
      <trkpt lat="49.94597" lon="2.14064">
        <ele>13.8</ele>
        <time>2023-06-28T11:49:09Z</time>
      </trkpt>
      <trkpt lat="49.94597" lon="2.14062">
        <ele>13.8</ele>
        <time>2023-06-28T11:49:10Z</time>
      </trkpt>
      <trkpt lat="49.94596" lon="2.1406">
        <ele>13.8</ele>
        <time>2023-06-28T11:49:11Z</time>
      </trkpt>
      <trkpt lat="49.94596" lon="2.14058">
        <ele>13.8</ele>
        <time>2023-06-28T11:49:12Z</time>
      </trkpt>
      <trkpt lat="49.94597" lon="2.14057">
        <ele>13.8</ele>
        <time>2023-06-28T11:49:13Z</time>
      </trkpt>
      <trkpt lat="49.94597" lon="2.14055">
        <ele>13.7</ele>
        <time>2023-06-28T11:49:14Z</time>
      </trkpt>
      <trkpt lat="49.94597" lon="2.14054">
        <ele>13.7</ele>
        <time>2023-06-28T11:49:16Z</time>
      </trkpt>
      <trkpt lat="49.94597" lon="2.14054">
        <ele>13.7</ele>
        <time>2023-06-28T11:49:17Z</time>
      </trkpt>
      <trkpt lat="49.94597" lon="2.14053">
        <ele>13.7</ele>
        <time>2023-06-28T11:49:18Z</time>
      </trkpt>
      <trkpt lat="49.94599" lon="2.14052">
        <ele>13.7</ele>
        <time>2023-06-28T11:49:19Z</time>
      </trkpt>
      <trkpt lat="49.94602" lon="2.14051">
        <ele>13.6</ele>
        <time>2023-06-28T11:49:21Z</time>
      </trkpt>
      <trkpt lat="49.94603" lon="2.14051">
        <ele>13.6</ele>
        <time>2023-06-28T11:49:22Z</time>
      </trkpt>
      <trkpt lat="49.94604" lon="2.1405">
        <ele>13.6</ele>
        <time>2023-06-28T11:49:23Z</time>
      </trkpt>
      <trkpt lat="49.94605" lon="2.14049">
        <ele>13.6</ele>
        <time>2023-06-28T11:49:25Z</time>
      </trkpt>
      <trkpt lat="49.94605" lon="2.14049">
        <ele>13.6</ele>
        <time>2023-06-28T11:49:26Z</time>
      </trkpt>
      <trkpt lat="49.94606" lon="2.14048">
        <ele>13.6</ele>
        <time>2023-06-28T11:49:28Z</time>
      </trkpt>
      <trkpt lat="49.94606" lon="2.14048">
        <ele>13.6</ele>
        <time>2023-06-28T11:49:29Z</time>
      </trkpt>
      <trkpt lat="49.94606" lon="2.14047">
        <ele>13.6</ele>
        <time>2023-06-28T11:49:31Z</time>
      </trkpt>
      <trkpt lat="49.94606" lon="2.14047">
        <ele>13.6</ele>
        <time>2023-06-28T11:49:32Z</time>
      </trkpt>
      <trkpt lat="49.94606" lon="2.14046">
        <ele>13.5</ele>
        <time>2023-06-28T11:49:33Z</time>
      </trkpt>
      <trkpt lat="49.94606" lon="2.14044">
        <ele>13.5</ele>
        <time>2023-06-28T11:49:34Z</time>
      </trkpt>
      <trkpt lat="49.94607" lon="2.14042">
        <ele>13.5</ele>
        <time>2023-06-28T11:49:35Z</time>
      </trkpt>
      <trkpt lat="49.94607" lon="2.14041">
        <ele>13.5</ele>
        <time>2023-06-28T11:49:36Z</time>
      </trkpt>
      <trkpt lat="49.94608" lon="2.1404">
        <ele>13.5</ele>
        <time>2023-06-28T11:49:37Z</time>
      </trkpt>
      <trkpt lat="49.9461" lon="2.14038">
        <ele>13.4</ele>
        <time>2023-06-28T11:49:39Z</time>
      </trkpt>
      <trkpt lat="49.94611" lon="2.14038">
        <ele>13.4</ele>
        <time>2023-06-28T11:49:40Z</time>
      </trkpt>
      <trkpt lat="49.94612" lon="2.14036">
        <ele>13.4</ele>
        <time>2023-06-28T11:49:41Z</time>
      </trkpt>
      <trkpt lat="49.94614" lon="2.14035">
        <ele>13.4</ele>
        <time>2023-06-28T11:49:42Z</time>
      </trkpt>
      <trkpt lat="49.94616" lon="2.14034">
        <ele>13.3</ele>
        <time>2023-06-28T11:49:43Z</time>
      </trkpt>
      <trkpt lat="49.94617" lon="2.14034">
        <ele>13.3</ele>
        <time>2023-06-28T11:49:44Z</time>
      </trkpt>
      <trkpt lat="49.94617" lon="2.14034">
        <ele>13.3</ele>
        <time>2023-06-28T11:49:46Z</time>
      </trkpt>
      <trkpt lat="49.94618" lon="2.14034">
        <ele>13.3</ele>
        <time>2023-06-28T11:49:47Z</time>
      </trkpt>
      <trkpt lat="49.94618" lon="2.14034">
        <ele>13.3</ele>
        <time>2023-06-28T11:49:48Z</time>
      </trkpt>
      <trkpt lat="49.94619" lon="2.14033">
        <ele>13.3</ele>
        <time>2023-06-28T11:49:49Z</time>
      </trkpt>
      <trkpt lat="49.94619" lon="2.14032">
        <ele>13.3</ele>
        <time>2023-06-28T11:49:50Z</time>
      </trkpt>
      <trkpt lat="49.94619" lon="2.14031">
        <ele>13.3</ele>
        <time>2023-06-28T11:49:51Z</time>
      </trkpt>
      <trkpt lat="49.9462" lon="2.1403">
        <ele>13.2</ele>
        <time>2023-06-28T11:49:53Z</time>
      </trkpt>
      <trkpt lat="49.94621" lon="2.14029">
        <ele>13.2</ele>
        <time>2023-06-28T11:49:54Z</time>
      </trkpt>
      <trkpt lat="49.94622" lon="2.14028">
        <ele>13.2</ele>
        <time>2023-06-28T11:49:55Z</time>
      </trkpt>
      <trkpt lat="49.94623" lon="2.14027">
        <ele>13.2</ele>
        <time>2023-06-28T11:49:56Z</time>
      </trkpt>
      <trkpt lat="49.94624" lon="2.14025">
        <ele>13.1</ele>
        <time>2023-06-28T11:49:57Z</time>
      </trkpt>
      <trkpt lat="49.94627" lon="2.14024">
        <ele>13.1</ele>
        <time>2023-06-28T11:49:59Z</time>
      </trkpt>
      <trkpt lat="49.94628" lon="2.14024">
        <ele>13.1</ele>
        <time>2023-06-28T11:50:00Z</time>
      </trkpt>
      <trkpt lat="49.9463" lon="2.14023">
        <ele>13</ele>
        <time>2023-06-28T11:50:01Z</time>
      </trkpt>
      <trkpt lat="49.94631" lon="2.14022">
        <ele>13</ele>
        <time>2023-06-28T11:50:02Z</time>
      </trkpt>
      <trkpt lat="49.94634" lon="2.1402">
        <ele>12.9</ele>
        <time>2023-06-28T11:50:03Z</time>
      </trkpt>
      <trkpt lat="49.94635" lon="2.1402">
        <ele>12.9</ele>
        <time>2023-06-28T11:50:04Z</time>
      </trkpt>
      <trkpt lat="49.94636" lon="2.14019">
        <ele>12.9</ele>
        <time>2023-06-28T11:50:06Z</time>
      </trkpt>
      <trkpt lat="49.94637" lon="2.14019">
        <ele>12.9</ele>
        <time>2023-06-28T11:50:07Z</time>
      </trkpt>
      <trkpt lat="49.94638" lon="2.14018">
        <ele>12.8</ele>
        <time>2023-06-28T11:50:08Z</time>
      </trkpt>
      <trkpt lat="49.94638" lon="2.14018">
        <ele>12.8</ele>
        <time>2023-06-28T11:50:09Z</time>
      </trkpt>
      <trkpt lat="49.94639" lon="2.14017">
        <ele>12.8</ele>
        <time>2023-06-28T11:50:10Z</time>
      </trkpt>
      <trkpt lat="49.94639" lon="2.14017">
        <ele>12.8</ele>
        <time>2023-06-28T11:50:11Z</time>
      </trkpt>
      <trkpt lat="49.9464" lon="2.14017">
        <ele>12.8</ele>
        <time>2023-06-28T11:50:12Z</time>
      </trkpt>
      <trkpt lat="49.94642" lon="2.14017">
        <ele>12.8</ele>
        <time>2023-06-28T11:50:13Z</time>
      </trkpt>
      <trkpt lat="49.94643" lon="2.14018">
        <ele>12.8</ele>
        <time>2023-06-28T11:50:14Z</time>
      </trkpt>
      <trkpt lat="49.94643" lon="2.14019">
        <ele>12.8</ele>
        <time>2023-06-28T11:50:16Z</time>
      </trkpt>
      <trkpt lat="49.94644" lon="2.14019">
        <ele>12.8</ele>
        <time>2023-06-28T11:50:17Z</time>
      </trkpt>
      <trkpt lat="49.94645" lon="2.1402">
        <ele>12.8</ele>
        <time>2023-06-28T11:50:19Z</time>
      </trkpt>
      <trkpt lat="49.94646" lon="2.14021">
        <ele>12.8</ele>
        <time>2023-06-28T11:50:20Z</time>
      </trkpt>
      <trkpt lat="49.94647" lon="2.14023">
        <ele>12.8</ele>
        <time>2023-06-28T11:50:21Z</time>
      </trkpt>
      <trkpt lat="49.94648" lon="2.14025">
        <ele>12.8</ele>
        <time>2023-06-28T11:50:22Z</time>
      </trkpt>
      <trkpt lat="49.94649" lon="2.14027">
        <ele>12.8</ele>
        <time>2023-06-28T11:50:24Z</time>
      </trkpt>
      <trkpt lat="49.94649" lon="2.14027">
        <ele>12.8</ele>
        <time>2023-06-28T11:50:25Z</time>
      </trkpt>
      <trkpt lat="49.9465" lon="2.14028">
        <ele>12.8</ele>
        <time>2023-06-28T11:50:26Z</time>
      </trkpt>
      <trkpt lat="49.9465" lon="2.14029">
        <ele>12.8</ele>
        <time>2023-06-28T11:50:27Z</time>
      </trkpt>
      <trkpt lat="49.9465" lon="2.14029">
        <ele>12.8</ele>
        <time>2023-06-28T11:50:28Z</time>
      </trkpt>
      <trkpt lat="49.9465" lon="2.14029">
        <ele>12.8</ele>
        <time>2023-06-28T11:50:29Z</time>
      </trkpt>
      <trkpt lat="49.9465" lon="2.14029">
        <ele>12.8</ele>
        <time>2023-06-28T11:50:31Z</time>
      </trkpt>
      <trkpt lat="49.94649" lon="2.14029">
        <ele>12.8</ele>
        <time>2023-06-28T11:50:32Z</time>
      </trkpt>
      <trkpt lat="49.94649" lon="2.14029">
        <ele>12.8</ele>
        <time>2023-06-28T11:50:34Z</time>
      </trkpt>
      <trkpt lat="49.94649" lon="2.14029">
        <ele>12.8</ele>
        <time>2023-06-28T11:50:35Z</time>
      </trkpt>
      <trkpt lat="49.94649" lon="2.14029">
        <ele>12.8</ele>
        <time>2023-06-28T11:50:37Z</time>
      </trkpt>
      <trkpt lat="49.94649" lon="2.14028">
        <ele>12.8</ele>
        <time>2023-06-28T11:50:38Z</time>
      </trkpt>
      <trkpt lat="49.94649" lon="2.14028">
        <ele>12.8</ele>
        <time>2023-06-28T11:50:39Z</time>
      </trkpt>
      <trkpt lat="49.94648" lon="2.14028">
        <ele>12.8</ele>
        <time>2023-06-28T11:50:41Z</time>
      </trkpt>
      <trkpt lat="49.94648" lon="2.14028">
        <ele>12.8</ele>
        <time>2023-06-28T11:50:42Z</time>
      </trkpt>
      <trkpt lat="49.94648" lon="2.14028">
        <ele>12.8</ele>
        <time>2023-06-28T11:50:44Z</time>
      </trkpt>
      <trkpt lat="49.94648" lon="2.14028">
        <ele>12.8</ele>
        <time>2023-06-28T11:50:45Z</time>
      </trkpt>
      <trkpt lat="49.94648" lon="2.14028">
        <ele>12.8</ele>
        <time>2023-06-28T11:50:46Z</time>
      </trkpt>
      <trkpt lat="49.94648" lon="2.14028">
        <ele>12.8</ele>
        <time>2023-06-28T11:50:47Z</time>
      </trkpt>
      <trkpt lat="49.94647" lon="2.14028">
        <ele>12.8</ele>
        <time>2023-06-28T11:50:48Z</time>
      </trkpt>
      <trkpt lat="49.94647" lon="2.14028">
        <ele>12.8</ele>
        <time>2023-06-28T11:50:49Z</time>
      </trkpt>
      <trkpt lat="49.94647" lon="2.14028">
        <ele>12.8</ele>
        <time>2023-06-28T11:50:50Z</time>
      </trkpt>
      <trkpt lat="49.94647" lon="2.14027">
        <ele>12.8</ele>
        <time>2023-06-28T11:50:51Z</time>
      </trkpt>
      <trkpt lat="49.94647" lon="2.14027">
        <ele>12.8</ele>
        <time>2023-06-28T11:50:52Z</time>
      </trkpt>
      <trkpt lat="49.94647" lon="2.14027">
        <ele>12.8</ele>
        <time>2023-06-28T11:50:53Z</time>
      </trkpt>
      <trkpt lat="49.94646" lon="2.14027">
        <ele>12.8</ele>
        <time>2023-06-28T11:50:54Z</time>
      </trkpt>
      <trkpt lat="49.94646" lon="2.14027">
        <ele>12.8</ele>
        <time>2023-06-28T11:50:55Z</time>
      </trkpt>
      <trkpt lat="49.94646" lon="2.14027">
        <ele>12.8</ele>
        <time>2023-06-28T11:50:56Z</time>
      </trkpt>
      <trkpt lat="49.94646" lon="2.14027">
        <ele>12.8</ele>
        <time>2023-06-28T11:50:57Z</time>
      </trkpt>
      <trkpt lat="49.94646" lon="2.14027">
        <ele>12.8</ele>
        <time>2023-06-28T11:50:58Z</time>
      </trkpt>
      <trkpt lat="49.94646" lon="2.14027">
        <ele>12.8</ele>
        <time>2023-06-28T11:50:59Z</time>
      </trkpt>
      <trkpt lat="49.94645" lon="2.14027">
        <ele>12.8</ele>
        <time>2023-06-28T11:51:00Z</time>
      </trkpt>
      <trkpt lat="49.94645" lon="2.14027">
        <ele>12.8</ele>
        <time>2023-06-28T11:51:01Z</time>
      </trkpt>
      <trkpt lat="49.94645" lon="2.14026">
        <ele>12.8</ele>
        <time>2023-06-28T11:51:02Z</time>
      </trkpt>
      <trkpt lat="49.94642" lon="2.14026">
        <ele>12.8</ele>
        <time>2023-06-28T11:51:03Z</time>
      </trkpt>
      <trkpt lat="49.94641" lon="2.14026">
        <ele>12.8</ele>
        <time>2023-06-28T11:51:04Z</time>
      </trkpt>
      <trkpt lat="49.94641" lon="2.14026">
        <ele>12.8</ele>
        <time>2023-06-28T11:51:05Z</time>
      </trkpt>
      <trkpt lat="49.9464" lon="2.14027">
        <ele>12.8</ele>
        <time>2023-06-28T11:51:06Z</time>
      </trkpt>
      <trkpt lat="49.94639" lon="2.14027">
        <ele>12.8</ele>
        <time>2023-06-28T11:51:07Z</time>
      </trkpt>
      <trkpt lat="49.94639" lon="2.14027">
        <ele>12.8</ele>
        <time>2023-06-28T11:51:08Z</time>
      </trkpt>
      <trkpt lat="49.94639" lon="2.14027">
        <ele>12.8</ele>
        <time>2023-06-28T11:51:09Z</time>
      </trkpt>
      <trkpt lat="49.94639" lon="2.14027">
        <ele>12.8</ele>
        <time>2023-06-28T11:51:10Z</time>
      </trkpt>
      <trkpt lat="49.94639" lon="2.14027">
        <ele>12.8</ele>
        <time>2023-06-28T11:51:11Z</time>
      </trkpt>
    </trkseg>
  </trk>
</gpx>